<?xml version="1.0" encoding="UTF-8" standalone="no" ?>
<gpx xmlns="http://www.topografix.com/GPX/1/1" xmlns:xsi="http://www.w3.org/2001/XMLSchema-instance" xsi:schemaLocation="http://www.topografix.com/GPX/1/1 http://www.topografix.com/GPX/1/1/gpx.xsd" version="1.1" creator="VisuGPX - https://www.visugpx.com">
  <metadata>
    <name>Lalley</name>
    <desc><![CDATA[Très beau !!!]]></desc>
  </metadata>
  <trk>
    <name><![CDATA[Lalley]]></name>
    <trkseg>
      <trkpt lat="44.75789" lon="5.67813">
        <ele>833.3</ele>
        <time>2022-07-14T06:00:03Z</time>
      </trkpt>
      <trkpt lat="44.75797" lon="5.67814">
        <ele>832.9</ele>
        <time>2022-07-14T06:00:04Z</time>
      </trkpt>
      <trkpt lat="44.75795" lon="5.67812">
        <ele>832.8</ele>
        <time>2022-07-14T06:00:05Z</time>
      </trkpt>
      <trkpt lat="44.75795" lon="5.67812">
        <ele>832.8</ele>
        <time>2022-07-14T06:00:06Z</time>
      </trkpt>
      <trkpt lat="44.75795" lon="5.67807">
        <ele>832.6</ele>
        <time>2022-07-14T06:00:08Z</time>
      </trkpt>
      <trkpt lat="44.75794" lon="5.67805">
        <ele>832.5</ele>
        <time>2022-07-14T06:00:09Z</time>
      </trkpt>
      <trkpt lat="44.75793" lon="5.67805">
        <ele>832.5</ele>
        <time>2022-07-14T06:00:10Z</time>
      </trkpt>
      <trkpt lat="44.75792" lon="5.67805">
        <ele>832.4</ele>
        <time>2022-07-14T06:00:11Z</time>
      </trkpt>
      <trkpt lat="44.75792" lon="5.67805">
        <ele>832.4</ele>
        <time>2022-07-14T06:00:12Z</time>
      </trkpt>
      <trkpt lat="44.7579" lon="5.67806">
        <ele>832.3</ele>
        <time>2022-07-14T06:00:15Z</time>
      </trkpt>
      <trkpt lat="44.75789" lon="5.67806">
        <ele>832.3</ele>
        <time>2022-07-14T06:00:16Z</time>
      </trkpt>
      <trkpt lat="44.75787" lon="5.67804">
        <ele>832.2</ele>
        <time>2022-07-14T06:00:19Z</time>
      </trkpt>
      <trkpt lat="44.75786" lon="5.67804">
        <ele>832.1</ele>
        <time>2022-07-14T06:00:20Z</time>
      </trkpt>
      <trkpt lat="44.75785" lon="5.67803">
        <ele>832.1</ele>
        <time>2022-07-14T06:00:22Z</time>
      </trkpt>
      <trkpt lat="44.75786" lon="5.67806">
        <ele>832</ele>
        <time>2022-07-14T06:00:23Z</time>
      </trkpt>
      <trkpt lat="44.75786" lon="5.6782">
        <ele>831.5</ele>
        <time>2022-07-14T06:00:25Z</time>
      </trkpt>
      <trkpt lat="44.75782" lon="5.67836">
        <ele>831.1</ele>
        <time>2022-07-14T06:00:27Z</time>
      </trkpt>
      <trkpt lat="44.75774" lon="5.67855">
        <ele>830.6</ele>
        <time>2022-07-14T06:00:30Z</time>
      </trkpt>
      <trkpt lat="44.75771" lon="5.67863">
        <ele>830.3</ele>
        <time>2022-07-14T06:00:31Z</time>
      </trkpt>
      <trkpt lat="44.75767" lon="5.6787">
        <ele>830.1</ele>
        <time>2022-07-14T06:00:32Z</time>
      </trkpt>
      <trkpt lat="44.75764" lon="5.67878">
        <ele>829.9</ele>
        <time>2022-07-14T06:00:33Z</time>
      </trkpt>
      <trkpt lat="44.75761" lon="5.67887">
        <ele>829.7</ele>
        <time>2022-07-14T06:00:34Z</time>
      </trkpt>
      <trkpt lat="44.75757" lon="5.67896">
        <ele>829.5</ele>
        <time>2022-07-14T06:00:35Z</time>
      </trkpt>
      <trkpt lat="44.75754" lon="5.67904">
        <ele>829.3</ele>
        <time>2022-07-14T06:00:36Z</time>
      </trkpt>
      <trkpt lat="44.7575" lon="5.67911">
        <ele>829.1</ele>
        <time>2022-07-14T06:00:37Z</time>
      </trkpt>
      <trkpt lat="44.75745" lon="5.67919">
        <ele>828.8</ele>
        <time>2022-07-14T06:00:38Z</time>
      </trkpt>
      <trkpt lat="44.7574" lon="5.67926">
        <ele>828.6</ele>
        <time>2022-07-14T06:00:39Z</time>
      </trkpt>
      <trkpt lat="44.75735" lon="5.67935">
        <ele>828.4</ele>
        <time>2022-07-14T06:00:40Z</time>
      </trkpt>
      <trkpt lat="44.75731" lon="5.67944">
        <ele>828.2</ele>
        <time>2022-07-14T06:00:41Z</time>
      </trkpt>
      <trkpt lat="44.75727" lon="5.67953">
        <ele>828</ele>
        <time>2022-07-14T06:00:42Z</time>
      </trkpt>
      <trkpt lat="44.75723" lon="5.67962">
        <ele>827.8</ele>
        <time>2022-07-14T06:00:43Z</time>
      </trkpt>
      <trkpt lat="44.75719" lon="5.67971">
        <ele>827.7</ele>
        <time>2022-07-14T06:00:44Z</time>
      </trkpt>
      <trkpt lat="44.75715" lon="5.67979">
        <ele>827.5</ele>
        <time>2022-07-14T06:00:45Z</time>
      </trkpt>
      <trkpt lat="44.75711" lon="5.67987">
        <ele>827.4</ele>
        <time>2022-07-14T06:00:46Z</time>
      </trkpt>
      <trkpt lat="44.75708" lon="5.67992">
        <ele>827.3</ele>
        <time>2022-07-14T06:00:47Z</time>
      </trkpt>
      <trkpt lat="44.75705" lon="5.67992">
        <ele>827.4</ele>
        <time>2022-07-14T06:00:48Z</time>
      </trkpt>
      <trkpt lat="44.75702" lon="5.6799">
        <ele>827.5</ele>
        <time>2022-07-14T06:00:49Z</time>
      </trkpt>
      <trkpt lat="44.75699" lon="5.67988">
        <ele>827.6</ele>
        <time>2022-07-14T06:00:50Z</time>
      </trkpt>
      <trkpt lat="44.75696" lon="5.67985">
        <ele>827.7</ele>
        <time>2022-07-14T06:00:51Z</time>
      </trkpt>
      <trkpt lat="44.7569" lon="5.67983">
        <ele>827.9</ele>
        <time>2022-07-14T06:00:52Z</time>
      </trkpt>
      <trkpt lat="44.75691" lon="5.67985">
        <ele>828</ele>
        <time>2022-07-14T06:00:53Z</time>
      </trkpt>
      <trkpt lat="44.75685" lon="5.6798">
        <ele>828.2</ele>
        <time>2022-07-14T06:00:54Z</time>
      </trkpt>
      <trkpt lat="44.75678" lon="5.67976">
        <ele>828.5</ele>
        <time>2022-07-14T06:00:56Z</time>
      </trkpt>
      <trkpt lat="44.75672" lon="5.67976">
        <ele>828.8</ele>
        <time>2022-07-14T06:00:57Z</time>
      </trkpt>
      <trkpt lat="44.75668" lon="5.6797">
        <ele>829</ele>
        <time>2022-07-14T06:00:59Z</time>
      </trkpt>
      <trkpt lat="44.75664" lon="5.67966">
        <ele>829.2</ele>
        <time>2022-07-14T06:01:00Z</time>
      </trkpt>
      <trkpt lat="44.75659" lon="5.67961">
        <ele>829.4</ele>
        <time>2022-07-14T06:01:02Z</time>
      </trkpt>
      <trkpt lat="44.7565" lon="5.67963">
        <ele>829.8</ele>
        <time>2022-07-14T06:01:04Z</time>
      </trkpt>
      <trkpt lat="44.75643" lon="5.67965">
        <ele>830.1</ele>
        <time>2022-07-14T06:01:06Z</time>
      </trkpt>
      <trkpt lat="44.75637" lon="5.67967">
        <ele>830.4</ele>
        <time>2022-07-14T06:01:07Z</time>
      </trkpt>
      <trkpt lat="44.75634" lon="5.67966">
        <ele>830.6</ele>
        <time>2022-07-14T06:01:08Z</time>
      </trkpt>
      <trkpt lat="44.7563" lon="5.67967">
        <ele>830.8</ele>
        <time>2022-07-14T06:01:09Z</time>
      </trkpt>
      <trkpt lat="44.75623" lon="5.6797">
        <ele>831.2</ele>
        <time>2022-07-14T06:01:11Z</time>
      </trkpt>
      <trkpt lat="44.75612" lon="5.67974">
        <ele>831.9</ele>
        <time>2022-07-14T06:01:14Z</time>
      </trkpt>
      <trkpt lat="44.75598" lon="5.67975">
        <ele>832.5</ele>
        <time>2022-07-14T06:01:17Z</time>
      </trkpt>
      <trkpt lat="44.75595" lon="5.67974">
        <ele>832.6</ele>
        <time>2022-07-14T06:01:18Z</time>
      </trkpt>
      <trkpt lat="44.75591" lon="5.67976">
        <ele>832.8</ele>
        <time>2022-07-14T06:01:19Z</time>
      </trkpt>
      <trkpt lat="44.75585" lon="5.67978">
        <ele>833</ele>
        <time>2022-07-14T06:01:20Z</time>
      </trkpt>
      <trkpt lat="44.75583" lon="5.67976">
        <ele>833.1</ele>
        <time>2022-07-14T06:01:21Z</time>
      </trkpt>
      <trkpt lat="44.75576" lon="5.67975">
        <ele>833.4</ele>
        <time>2022-07-14T06:01:22Z</time>
      </trkpt>
      <trkpt lat="44.75572" lon="5.67974">
        <ele>833.6</ele>
        <time>2022-07-14T06:01:24Z</time>
      </trkpt>
      <trkpt lat="44.75568" lon="5.67973">
        <ele>833.8</ele>
        <time>2022-07-14T06:01:25Z</time>
      </trkpt>
      <trkpt lat="44.75564" lon="5.67973">
        <ele>834</ele>
        <time>2022-07-14T06:01:26Z</time>
      </trkpt>
      <trkpt lat="44.7556" lon="5.67972">
        <ele>834.2</ele>
        <time>2022-07-14T06:01:27Z</time>
      </trkpt>
      <trkpt lat="44.75558" lon="5.6797">
        <ele>834.3</ele>
        <time>2022-07-14T06:01:28Z</time>
      </trkpt>
      <trkpt lat="44.75552" lon="5.67971">
        <ele>834.6</ele>
        <time>2022-07-14T06:01:29Z</time>
      </trkpt>
      <trkpt lat="44.75546" lon="5.67972">
        <ele>835</ele>
        <time>2022-07-14T06:01:31Z</time>
      </trkpt>
      <trkpt lat="44.75542" lon="5.67971">
        <ele>835.2</ele>
        <time>2022-07-14T06:01:32Z</time>
      </trkpt>
      <trkpt lat="44.75535" lon="5.67968">
        <ele>835.6</ele>
        <time>2022-07-14T06:01:34Z</time>
      </trkpt>
      <trkpt lat="44.75531" lon="5.67967">
        <ele>835.8</ele>
        <time>2022-07-14T06:01:35Z</time>
      </trkpt>
      <trkpt lat="44.75527" lon="5.67965">
        <ele>836.1</ele>
        <time>2022-07-14T06:01:36Z</time>
      </trkpt>
      <trkpt lat="44.75525" lon="5.67964">
        <ele>836.2</ele>
        <time>2022-07-14T06:01:37Z</time>
      </trkpt>
      <trkpt lat="44.75519" lon="5.6796">
        <ele>836.6</ele>
        <time>2022-07-14T06:01:39Z</time>
      </trkpt>
      <trkpt lat="44.75517" lon="5.67956">
        <ele>836.8</ele>
        <time>2022-07-14T06:01:40Z</time>
      </trkpt>
      <trkpt lat="44.75515" lon="5.67954">
        <ele>836.9</ele>
        <time>2022-07-14T06:01:41Z</time>
      </trkpt>
      <trkpt lat="44.75511" lon="5.67952">
        <ele>837.1</ele>
        <time>2022-07-14T06:01:42Z</time>
      </trkpt>
      <trkpt lat="44.75508" lon="5.67947">
        <ele>836.7</ele>
        <time>2022-07-14T06:01:43Z</time>
      </trkpt>
      <trkpt lat="44.75508" lon="5.67942">
        <ele>835.9</ele>
        <time>2022-07-14T06:01:44Z</time>
      </trkpt>
      <trkpt lat="44.75507" lon="5.67931">
        <ele>834</ele>
        <time>2022-07-14T06:01:46Z</time>
      </trkpt>
      <trkpt lat="44.75505" lon="5.67925">
        <ele>833</ele>
        <time>2022-07-14T06:01:47Z</time>
      </trkpt>
      <trkpt lat="44.75502" lon="5.67924">
        <ele>832.2</ele>
        <time>2022-07-14T06:01:48Z</time>
      </trkpt>
      <trkpt lat="44.75498" lon="5.67922">
        <ele>832</ele>
        <time>2022-07-14T06:01:49Z</time>
      </trkpt>
      <trkpt lat="44.75497" lon="5.67921">
        <ele>832</ele>
        <time>2022-07-14T06:01:50Z</time>
      </trkpt>
      <trkpt lat="44.75492" lon="5.67914">
        <ele>832</ele>
        <time>2022-07-14T06:01:53Z</time>
      </trkpt>
      <trkpt lat="44.75489" lon="5.67913">
        <ele>831.9</ele>
        <time>2022-07-14T06:01:54Z</time>
      </trkpt>
      <trkpt lat="44.75485" lon="5.67915">
        <ele>831.9</ele>
        <time>2022-07-14T06:01:55Z</time>
      </trkpt>
      <trkpt lat="44.75478" lon="5.67915">
        <ele>831.7</ele>
        <time>2022-07-14T06:01:57Z</time>
      </trkpt>
      <trkpt lat="44.75473" lon="5.67917">
        <ele>831.6</ele>
        <time>2022-07-14T06:01:59Z</time>
      </trkpt>
      <trkpt lat="44.7547" lon="5.67918">
        <ele>831.4</ele>
        <time>2022-07-14T06:02:00Z</time>
      </trkpt>
      <trkpt lat="44.75464" lon="5.67912">
        <ele>831.2</ele>
        <time>2022-07-14T06:02:02Z</time>
      </trkpt>
      <trkpt lat="44.75457" lon="5.67909">
        <ele>831.4</ele>
        <time>2022-07-14T06:02:04Z</time>
      </trkpt>
      <trkpt lat="44.75454" lon="5.67905">
        <ele>831.5</ele>
        <time>2022-07-14T06:02:05Z</time>
      </trkpt>
      <trkpt lat="44.75448" lon="5.679">
        <ele>831.7</ele>
        <time>2022-07-14T06:02:07Z</time>
      </trkpt>
      <trkpt lat="44.75444" lon="5.67896">
        <ele>831.8</ele>
        <time>2022-07-14T06:02:08Z</time>
      </trkpt>
      <trkpt lat="44.75441" lon="5.67893">
        <ele>831.9</ele>
        <time>2022-07-14T06:02:09Z</time>
      </trkpt>
      <trkpt lat="44.75439" lon="5.67894">
        <ele>831.9</ele>
        <time>2022-07-14T06:02:10Z</time>
      </trkpt>
      <trkpt lat="44.75435" lon="5.67887">
        <ele>832.1</ele>
        <time>2022-07-14T06:02:12Z</time>
      </trkpt>
      <trkpt lat="44.75431" lon="5.67885">
        <ele>832.2</ele>
        <time>2022-07-14T06:02:13Z</time>
      </trkpt>
      <trkpt lat="44.75427" lon="5.67883">
        <ele>832.3</ele>
        <time>2022-07-14T06:02:14Z</time>
      </trkpt>
      <trkpt lat="44.75425" lon="5.67878">
        <ele>832.4</ele>
        <time>2022-07-14T06:02:15Z</time>
      </trkpt>
      <trkpt lat="44.75423" lon="5.67876">
        <ele>832.3</ele>
        <time>2022-07-14T06:02:16Z</time>
      </trkpt>
      <trkpt lat="44.75421" lon="5.67871">
        <ele>832.3</ele>
        <time>2022-07-14T06:02:18Z</time>
      </trkpt>
      <trkpt lat="44.7542" lon="5.6787">
        <ele>832.3</ele>
        <time>2022-07-14T06:02:19Z</time>
      </trkpt>
      <trkpt lat="44.75419" lon="5.67869">
        <ele>832.3</ele>
        <time>2022-07-14T06:02:22Z</time>
      </trkpt>
      <trkpt lat="44.75421" lon="5.67871">
        <ele>832.2</ele>
        <time>2022-07-14T06:02:23Z</time>
      </trkpt>
      <trkpt lat="44.75421" lon="5.67871">
        <ele>832.2</ele>
        <time>2022-07-14T06:02:24Z</time>
      </trkpt>
      <trkpt lat="44.75422" lon="5.67871">
        <ele>832.2</ele>
        <time>2022-07-14T06:02:25Z</time>
      </trkpt>
      <trkpt lat="44.75422" lon="5.67871">
        <ele>832.2</ele>
        <time>2022-07-14T06:02:26Z</time>
      </trkpt>
      <trkpt lat="44.75422" lon="5.67871">
        <ele>832.2</ele>
        <time>2022-07-14T06:02:27Z</time>
      </trkpt>
      <trkpt lat="44.75422" lon="5.67871">
        <ele>832.2</ele>
        <time>2022-07-14T06:02:28Z</time>
      </trkpt>
      <trkpt lat="44.75421" lon="5.67872">
        <ele>832.2</ele>
        <time>2022-07-14T06:02:30Z</time>
      </trkpt>
      <trkpt lat="44.75422" lon="5.67878">
        <ele>832.1</ele>
        <time>2022-07-14T06:09:48Z</time>
      </trkpt>
      <trkpt lat="44.75422" lon="5.67877">
        <ele>832.1</ele>
        <time>2022-07-14T06:09:49Z</time>
      </trkpt>
      <trkpt lat="44.75421" lon="5.67877">
        <ele>832.1</ele>
        <time>2022-07-14T06:09:50Z</time>
      </trkpt>
      <trkpt lat="44.75421" lon="5.67877">
        <ele>832.1</ele>
        <time>2022-07-14T06:09:51Z</time>
      </trkpt>
      <trkpt lat="44.75421" lon="5.67877">
        <ele>832.1</ele>
        <time>2022-07-14T06:09:52Z</time>
      </trkpt>
      <trkpt lat="44.75421" lon="5.67877">
        <ele>832.1</ele>
        <time>2022-07-14T06:09:53Z</time>
      </trkpt>
      <trkpt lat="44.75421" lon="5.67877">
        <ele>832.1</ele>
        <time>2022-07-14T06:09:54Z</time>
      </trkpt>
      <trkpt lat="44.75421" lon="5.67877">
        <ele>832.1</ele>
        <time>2022-07-14T06:09:55Z</time>
      </trkpt>
      <trkpt lat="44.75421" lon="5.67877">
        <ele>832.1</ele>
        <time>2022-07-14T06:09:56Z</time>
      </trkpt>
      <trkpt lat="44.75421" lon="5.67877">
        <ele>832.1</ele>
        <time>2022-07-14T06:09:57Z</time>
      </trkpt>
      <trkpt lat="44.7542" lon="5.67877">
        <ele>832.1</ele>
        <time>2022-07-14T06:09:58Z</time>
      </trkpt>
      <trkpt lat="44.7542" lon="5.67877">
        <ele>832.1</ele>
        <time>2022-07-14T06:09:59Z</time>
      </trkpt>
      <trkpt lat="44.7542" lon="5.67877">
        <ele>832.1</ele>
        <time>2022-07-14T06:10:00Z</time>
      </trkpt>
      <trkpt lat="44.75424" lon="5.67881">
        <ele>832</ele>
        <time>2022-07-14T06:10:14Z</time>
      </trkpt>
      <trkpt lat="44.75425" lon="5.67883">
        <ele>832</ele>
        <time>2022-07-14T06:10:16Z</time>
      </trkpt>
      <trkpt lat="44.75426" lon="5.67885">
        <ele>832</ele>
        <time>2022-07-14T06:10:17Z</time>
      </trkpt>
      <trkpt lat="44.75427" lon="5.67887">
        <ele>832</ele>
        <time>2022-07-14T06:10:18Z</time>
      </trkpt>
      <trkpt lat="44.7543" lon="5.67894">
        <ele>831.9</ele>
        <time>2022-07-14T06:10:21Z</time>
      </trkpt>
      <trkpt lat="44.75432" lon="5.67896">
        <ele>831.8</ele>
        <time>2022-07-14T06:10:22Z</time>
      </trkpt>
      <trkpt lat="44.75436" lon="5.67898">
        <ele>831.8</ele>
        <time>2022-07-14T06:10:24Z</time>
      </trkpt>
      <trkpt lat="44.75435" lon="5.67896">
        <ele>831.7</ele>
        <time>2022-07-14T06:10:27Z</time>
      </trkpt>
      <trkpt lat="44.75435" lon="5.67895">
        <ele>831.7</ele>
        <time>2022-07-14T06:10:28Z</time>
      </trkpt>
      <trkpt lat="44.75435" lon="5.67895">
        <ele>831.7</ele>
        <time>2022-07-14T06:10:29Z</time>
      </trkpt>
      <trkpt lat="44.75435" lon="5.67895">
        <ele>831.7</ele>
        <time>2022-07-14T06:10:30Z</time>
      </trkpt>
      <trkpt lat="44.75435" lon="5.67895">
        <ele>831.7</ele>
        <time>2022-07-14T06:10:31Z</time>
      </trkpt>
      <trkpt lat="44.75435" lon="5.67895">
        <ele>831.7</ele>
        <time>2022-07-14T06:10:32Z</time>
      </trkpt>
      <trkpt lat="44.75435" lon="5.67895">
        <ele>831.7</ele>
        <time>2022-07-14T06:10:33Z</time>
      </trkpt>
      <trkpt lat="44.75435" lon="5.67895">
        <ele>831.7</ele>
        <time>2022-07-14T06:10:34Z</time>
      </trkpt>
      <trkpt lat="44.75438" lon="5.67896">
        <ele>831.7</ele>
        <time>2022-07-14T06:10:53Z</time>
      </trkpt>
      <trkpt lat="44.75442" lon="5.679">
        <ele>831.6</ele>
        <time>2022-07-14T06:10:55Z</time>
      </trkpt>
      <trkpt lat="44.75444" lon="5.679">
        <ele>831.6</ele>
        <time>2022-07-14T06:10:56Z</time>
      </trkpt>
      <trkpt lat="44.75447" lon="5.67903">
        <ele>831.5</ele>
        <time>2022-07-14T06:10:58Z</time>
      </trkpt>
      <trkpt lat="44.7545" lon="5.67903">
        <ele>831.5</ele>
        <time>2022-07-14T06:10:59Z</time>
      </trkpt>
      <trkpt lat="44.75451" lon="5.67904">
        <ele>831.4</ele>
        <time>2022-07-14T06:11:00Z</time>
      </trkpt>
      <trkpt lat="44.75455" lon="5.67907">
        <ele>831.4</ele>
        <time>2022-07-14T06:11:01Z</time>
      </trkpt>
      <trkpt lat="44.75456" lon="5.67908">
        <ele>831.3</ele>
        <time>2022-07-14T06:11:02Z</time>
      </trkpt>
      <trkpt lat="44.75459" lon="5.67911">
        <ele>831.3</ele>
        <time>2022-07-14T06:11:03Z</time>
      </trkpt>
      <trkpt lat="44.75463" lon="5.67912">
        <ele>831.2</ele>
        <time>2022-07-14T06:11:05Z</time>
      </trkpt>
      <trkpt lat="44.75464" lon="5.67914">
        <ele>831.2</ele>
        <time>2022-07-14T06:11:06Z</time>
      </trkpt>
      <trkpt lat="44.75468" lon="5.67916">
        <ele>831.4</ele>
        <time>2022-07-14T06:11:08Z</time>
      </trkpt>
      <trkpt lat="44.7547" lon="5.67919">
        <ele>831.4</ele>
        <time>2022-07-14T06:11:09Z</time>
      </trkpt>
      <trkpt lat="44.75471" lon="5.6792">
        <ele>831.5</ele>
        <time>2022-07-14T06:11:10Z</time>
      </trkpt>
      <trkpt lat="44.75475" lon="5.67921">
        <ele>831.6</ele>
        <time>2022-07-14T06:11:11Z</time>
      </trkpt>
      <trkpt lat="44.75477" lon="5.67921">
        <ele>831.6</ele>
        <time>2022-07-14T06:11:12Z</time>
      </trkpt>
      <trkpt lat="44.7548" lon="5.6792">
        <ele>831.7</ele>
        <time>2022-07-14T06:11:13Z</time>
      </trkpt>
      <trkpt lat="44.75485" lon="5.67917">
        <ele>831.9</ele>
        <time>2022-07-14T06:11:15Z</time>
      </trkpt>
      <trkpt lat="44.75489" lon="5.6792">
        <ele>831.9</ele>
        <time>2022-07-14T06:11:16Z</time>
      </trkpt>
      <trkpt lat="44.75496" lon="5.6792">
        <ele>832</ele>
        <time>2022-07-14T06:11:18Z</time>
      </trkpt>
      <trkpt lat="44.75499" lon="5.67929">
        <ele>832.7</ele>
        <time>2022-07-14T06:11:20Z</time>
      </trkpt>
      <trkpt lat="44.75501" lon="5.67937">
        <ele>834.2</ele>
        <time>2022-07-14T06:11:23Z</time>
      </trkpt>
      <trkpt lat="44.75503" lon="5.6794">
        <ele>835</ele>
        <time>2022-07-14T06:11:24Z</time>
      </trkpt>
      <trkpt lat="44.75507" lon="5.67949">
        <ele>837.3</ele>
        <time>2022-07-14T06:11:26Z</time>
      </trkpt>
      <trkpt lat="44.75507" lon="5.67954">
        <ele>837.1</ele>
        <time>2022-07-14T06:11:27Z</time>
      </trkpt>
      <trkpt lat="44.75511" lon="5.67961">
        <ele>836.8</ele>
        <time>2022-07-14T06:11:29Z</time>
      </trkpt>
      <trkpt lat="44.75514" lon="5.67962">
        <ele>836.6</ele>
        <time>2022-07-14T06:11:30Z</time>
      </trkpt>
      <trkpt lat="44.75517" lon="5.67965">
        <ele>836.4</ele>
        <time>2022-07-14T06:11:31Z</time>
      </trkpt>
      <trkpt lat="44.75521" lon="5.67967">
        <ele>836.2</ele>
        <time>2022-07-14T06:11:32Z</time>
      </trkpt>
      <trkpt lat="44.75529" lon="5.6797">
        <ele>835.7</ele>
        <time>2022-07-14T06:11:34Z</time>
      </trkpt>
      <trkpt lat="44.75533" lon="5.67971">
        <ele>835.5</ele>
        <time>2022-07-14T06:11:35Z</time>
      </trkpt>
      <trkpt lat="44.75538" lon="5.67972">
        <ele>835.2</ele>
        <time>2022-07-14T06:11:37Z</time>
      </trkpt>
      <trkpt lat="44.75542" lon="5.67972">
        <ele>835</ele>
        <time>2022-07-14T06:11:38Z</time>
      </trkpt>
      <trkpt lat="44.7555" lon="5.67973">
        <ele>834.6</ele>
        <time>2022-07-14T06:11:39Z</time>
      </trkpt>
      <trkpt lat="44.75556" lon="5.67974">
        <ele>834.3</ele>
        <time>2022-07-14T06:11:41Z</time>
      </trkpt>
      <trkpt lat="44.75564" lon="5.67975">
        <ele>833.9</ele>
        <time>2022-07-14T06:11:43Z</time>
      </trkpt>
      <trkpt lat="44.75569" lon="5.67976">
        <ele>833.7</ele>
        <time>2022-07-14T06:11:44Z</time>
      </trkpt>
      <trkpt lat="44.75575" lon="5.67977">
        <ele>833.4</ele>
        <time>2022-07-14T06:11:45Z</time>
      </trkpt>
      <trkpt lat="44.75587" lon="5.67981">
        <ele>832.9</ele>
        <time>2022-07-14T06:11:46Z</time>
      </trkpt>
      <trkpt lat="44.75592" lon="5.67976">
        <ele>832.7</ele>
        <time>2022-07-14T06:11:48Z</time>
      </trkpt>
      <trkpt lat="44.75595" lon="5.67978">
        <ele>832.6</ele>
        <time>2022-07-14T06:11:49Z</time>
      </trkpt>
      <trkpt lat="44.75598" lon="5.67978">
        <ele>832.4</ele>
        <time>2022-07-14T06:11:50Z</time>
      </trkpt>
      <trkpt lat="44.75601" lon="5.67978">
        <ele>832.3</ele>
        <time>2022-07-14T06:11:51Z</time>
      </trkpt>
      <trkpt lat="44.75608" lon="5.67976">
        <ele>832.1</ele>
        <time>2022-07-14T06:11:53Z</time>
      </trkpt>
      <trkpt lat="44.75612" lon="5.67977">
        <ele>831.9</ele>
        <time>2022-07-14T06:11:54Z</time>
      </trkpt>
      <trkpt lat="44.75616" lon="5.67975">
        <ele>831.7</ele>
        <time>2022-07-14T06:11:55Z</time>
      </trkpt>
      <trkpt lat="44.75629" lon="5.67972">
        <ele>831</ele>
        <time>2022-07-14T06:11:58Z</time>
      </trkpt>
      <trkpt lat="44.75635" lon="5.67971">
        <ele>830.7</ele>
        <time>2022-07-14T06:11:59Z</time>
      </trkpt>
      <trkpt lat="44.7564" lon="5.6797">
        <ele>830.4</ele>
        <time>2022-07-14T06:12:00Z</time>
      </trkpt>
      <trkpt lat="44.75653" lon="5.67969">
        <ele>829.9</ele>
        <time>2022-07-14T06:12:01Z</time>
      </trkpt>
      <trkpt lat="44.75652" lon="5.67976">
        <ele>829.7</ele>
        <time>2022-07-14T06:12:03Z</time>
      </trkpt>
      <trkpt lat="44.75659" lon="5.6797">
        <ele>829.4</ele>
        <time>2022-07-14T06:12:04Z</time>
      </trkpt>
      <trkpt lat="44.75666" lon="5.6797">
        <ele>829.2</ele>
        <time>2022-07-14T06:12:05Z</time>
      </trkpt>
      <trkpt lat="44.7567" lon="5.67971">
        <ele>829</ele>
        <time>2022-07-14T06:12:06Z</time>
      </trkpt>
      <trkpt lat="44.75674" lon="5.67974">
        <ele>828.8</ele>
        <time>2022-07-14T06:12:07Z</time>
      </trkpt>
      <trkpt lat="44.75683" lon="5.67981">
        <ele>828.5</ele>
        <time>2022-07-14T06:12:10Z</time>
      </trkpt>
      <trkpt lat="44.75687" lon="5.67985">
        <ele>828.3</ele>
        <time>2022-07-14T06:12:11Z</time>
      </trkpt>
      <trkpt lat="44.757" lon="5.67993">
        <ele>827.8</ele>
        <time>2022-07-14T06:12:12Z</time>
      </trkpt>
      <trkpt lat="44.75696" lon="5.67997">
        <ele>827.7</ele>
        <time>2022-07-14T06:12:14Z</time>
      </trkpt>
      <trkpt lat="44.75704" lon="5.67997">
        <ele>827.5</ele>
        <time>2022-07-14T06:12:15Z</time>
      </trkpt>
      <trkpt lat="44.75707" lon="5.67997">
        <ele>827.4</ele>
        <time>2022-07-14T06:12:16Z</time>
      </trkpt>
      <trkpt lat="44.7571" lon="5.67995">
        <ele>827.3</ele>
        <time>2022-07-14T06:12:19Z</time>
      </trkpt>
      <trkpt lat="44.75709" lon="5.67995">
        <ele>827.3</ele>
        <time>2022-07-14T06:12:20Z</time>
      </trkpt>
      <trkpt lat="44.75708" lon="5.67995">
        <ele>827.3</ele>
        <time>2022-07-14T06:12:21Z</time>
      </trkpt>
      <trkpt lat="44.75709" lon="5.67994">
        <ele>827.3</ele>
        <time>2022-07-14T06:12:22Z</time>
      </trkpt>
      <trkpt lat="44.7571" lon="5.67993">
        <ele>827.4</ele>
        <time>2022-07-14T06:12:23Z</time>
      </trkpt>
      <trkpt lat="44.75711" lon="5.67993">
        <ele>827.4</ele>
        <time>2022-07-14T06:12:24Z</time>
      </trkpt>
      <trkpt lat="44.75712" lon="5.67992">
        <ele>827.4</ele>
        <time>2022-07-14T06:12:25Z</time>
      </trkpt>
      <trkpt lat="44.75716" lon="5.6799">
        <ele>827.5</ele>
        <time>2022-07-14T06:12:26Z</time>
      </trkpt>
      <trkpt lat="44.75718" lon="5.6798">
        <ele>827.6</ele>
        <time>2022-07-14T06:12:28Z</time>
      </trkpt>
      <trkpt lat="44.75722" lon="5.67975">
        <ele>827.7</ele>
        <time>2022-07-14T06:12:29Z</time>
      </trkpt>
      <trkpt lat="44.75728" lon="5.67969">
        <ele>827.8</ele>
        <time>2022-07-14T06:12:31Z</time>
      </trkpt>
      <trkpt lat="44.75732" lon="5.67964">
        <ele>827.9</ele>
        <time>2022-07-14T06:12:32Z</time>
      </trkpt>
      <trkpt lat="44.75734" lon="5.67957">
        <ele>828</ele>
        <time>2022-07-14T06:12:33Z</time>
      </trkpt>
      <trkpt lat="44.75737" lon="5.67946">
        <ele>828.2</ele>
        <time>2022-07-14T06:12:35Z</time>
      </trkpt>
      <trkpt lat="44.75739" lon="5.6794">
        <ele>828.4</ele>
        <time>2022-07-14T06:12:36Z</time>
      </trkpt>
      <trkpt lat="44.75743" lon="5.67932">
        <ele>828.6</ele>
        <time>2022-07-14T06:12:38Z</time>
      </trkpt>
      <trkpt lat="44.75746" lon="5.67925">
        <ele>828.7</ele>
        <time>2022-07-14T06:12:39Z</time>
      </trkpt>
      <trkpt lat="44.7575" lon="5.67918">
        <ele>828.9</ele>
        <time>2022-07-14T06:12:41Z</time>
      </trkpt>
      <trkpt lat="44.75753" lon="5.67909">
        <ele>829.2</ele>
        <time>2022-07-14T06:12:43Z</time>
      </trkpt>
      <trkpt lat="44.75754" lon="5.67905">
        <ele>829.3</ele>
        <time>2022-07-14T06:12:44Z</time>
      </trkpt>
      <trkpt lat="44.75761" lon="5.67897">
        <ele>829.6</ele>
        <time>2022-07-14T06:12:46Z</time>
      </trkpt>
      <trkpt lat="44.75764" lon="5.67888">
        <ele>829.9</ele>
        <time>2022-07-14T06:12:48Z</time>
      </trkpt>
      <trkpt lat="44.75766" lon="5.67885">
        <ele>830</ele>
        <time>2022-07-14T06:12:49Z</time>
      </trkpt>
      <trkpt lat="44.75769" lon="5.67877">
        <ele>830.3</ele>
        <time>2022-07-14T06:12:51Z</time>
      </trkpt>
      <trkpt lat="44.75771" lon="5.67872">
        <ele>830.5</ele>
        <time>2022-07-14T06:12:52Z</time>
      </trkpt>
      <trkpt lat="44.75773" lon="5.67868">
        <ele>830.7</ele>
        <time>2022-07-14T06:12:53Z</time>
      </trkpt>
      <trkpt lat="44.75774" lon="5.67863">
        <ele>830.9</ele>
        <time>2022-07-14T06:12:54Z</time>
      </trkpt>
      <trkpt lat="44.75778" lon="5.67858">
        <ele>831.1</ele>
        <time>2022-07-14T06:12:55Z</time>
      </trkpt>
      <trkpt lat="44.75781" lon="5.67853">
        <ele>831.3</ele>
        <time>2022-07-14T06:12:56Z</time>
      </trkpt>
      <trkpt lat="44.75781" lon="5.67848">
        <ele>831.5</ele>
        <time>2022-07-14T06:12:58Z</time>
      </trkpt>
      <trkpt lat="44.75783" lon="5.67843">
        <ele>831.7</ele>
        <time>2022-07-14T06:12:59Z</time>
      </trkpt>
      <trkpt lat="44.75784" lon="5.67839">
        <ele>831.9</ele>
        <time>2022-07-14T06:13:00Z</time>
      </trkpt>
      <trkpt lat="44.75785" lon="5.67834">
        <ele>832.1</ele>
        <time>2022-07-14T06:13:01Z</time>
      </trkpt>
      <trkpt lat="44.75787" lon="5.67832">
        <ele>832.3</ele>
        <time>2022-07-14T06:13:02Z</time>
      </trkpt>
      <trkpt lat="44.75786" lon="5.67828">
        <ele>832.5</ele>
        <time>2022-07-14T06:13:03Z</time>
      </trkpt>
      <trkpt lat="44.75785" lon="5.67818">
        <ele>833</ele>
        <time>2022-07-14T06:13:05Z</time>
      </trkpt>
      <trkpt lat="44.75785" lon="5.67812">
        <ele>833.3</ele>
        <time>2022-07-14T06:13:07Z</time>
      </trkpt>
      <trkpt lat="44.75786" lon="5.67808">
        <ele>833.4</ele>
        <time>2022-07-14T06:13:08Z</time>
      </trkpt>
      <trkpt lat="44.75787" lon="5.67803">
        <ele>833.7</ele>
        <time>2022-07-14T06:13:10Z</time>
      </trkpt>
      <trkpt lat="44.75787" lon="5.67802">
        <ele>833.8</ele>
        <time>2022-07-14T06:13:11Z</time>
      </trkpt>
      <trkpt lat="44.75789" lon="5.67803">
        <ele>833.9</ele>
        <time>2022-07-14T06:13:14Z</time>
      </trkpt>
      <trkpt lat="44.75789" lon="5.67804">
        <ele>834</ele>
        <time>2022-07-14T06:13:15Z</time>
      </trkpt>
      <trkpt lat="44.7579" lon="5.67804">
        <ele>834.1</ele>
        <time>2022-07-14T06:13:17Z</time>
      </trkpt>
      <trkpt lat="44.7579" lon="5.67803">
        <ele>834.1</ele>
        <time>2022-07-14T06:13:18Z</time>
      </trkpt>
      <trkpt lat="44.7579" lon="5.67803">
        <ele>834.1</ele>
        <time>2022-07-14T06:13:21Z</time>
      </trkpt>
      <trkpt lat="44.7579" lon="5.67803">
        <ele>834.1</ele>
        <time>2022-07-14T06:13:22Z</time>
      </trkpt>
      <trkpt lat="44.7579" lon="5.67803">
        <ele>834.1</ele>
        <time>2022-07-14T06:13:23Z</time>
      </trkpt>
      <trkpt lat="44.7579" lon="5.67803">
        <ele>834.1</ele>
        <time>2022-07-14T06:13:24Z</time>
      </trkpt>
      <trkpt lat="44.7579" lon="5.67803">
        <ele>834.1</ele>
        <time>2022-07-14T06:13:25Z</time>
      </trkpt>
      <trkpt lat="44.7579" lon="5.67803">
        <ele>834.2</ele>
        <time>2022-07-14T06:13:26Z</time>
      </trkpt>
      <trkpt lat="44.7579" lon="5.67803">
        <ele>834.2</ele>
        <time>2022-07-14T06:13:27Z</time>
      </trkpt>
      <trkpt lat="44.75787" lon="5.67791">
        <ele>834.8</ele>
        <time>2022-07-14T06:14:58Z</time>
      </trkpt>
      <trkpt lat="44.75787" lon="5.67786">
        <ele>835.1</ele>
        <time>2022-07-14T06:14:59Z</time>
      </trkpt>
      <trkpt lat="44.75786" lon="5.67782">
        <ele>835.3</ele>
        <time>2022-07-14T06:15:00Z</time>
      </trkpt>
      <trkpt lat="44.75787" lon="5.67776">
        <ele>835.6</ele>
        <time>2022-07-14T06:15:02Z</time>
      </trkpt>
      <trkpt lat="44.75789" lon="5.67771">
        <ele>836</ele>
        <time>2022-07-14T06:15:03Z</time>
      </trkpt>
      <trkpt lat="44.7579" lon="5.67767">
        <ele>836.2</ele>
        <time>2022-07-14T06:15:04Z</time>
      </trkpt>
      <trkpt lat="44.75788" lon="5.67758">
        <ele>836.7</ele>
        <time>2022-07-14T06:15:06Z</time>
      </trkpt>
      <trkpt lat="44.7579" lon="5.67752">
        <ele>837</ele>
        <time>2022-07-14T06:15:08Z</time>
      </trkpt>
      <trkpt lat="44.7579" lon="5.67747">
        <ele>837.3</ele>
        <time>2022-07-14T06:15:09Z</time>
      </trkpt>
      <trkpt lat="44.75788" lon="5.67739">
        <ele>837.7</ele>
        <time>2022-07-14T06:15:11Z</time>
      </trkpt>
      <trkpt lat="44.7579" lon="5.67731">
        <ele>838.1</ele>
        <time>2022-07-14T06:15:12Z</time>
      </trkpt>
      <trkpt lat="44.7579" lon="5.67724">
        <ele>838.3</ele>
        <time>2022-07-14T06:15:14Z</time>
      </trkpt>
      <trkpt lat="44.7579" lon="5.67719">
        <ele>838.5</ele>
        <time>2022-07-14T06:15:16Z</time>
      </trkpt>
      <trkpt lat="44.7579" lon="5.67715">
        <ele>838.6</ele>
        <time>2022-07-14T06:15:18Z</time>
      </trkpt>
      <trkpt lat="44.7579" lon="5.67712">
        <ele>838.7</ele>
        <time>2022-07-14T06:15:19Z</time>
      </trkpt>
      <trkpt lat="44.7579" lon="5.67705">
        <ele>838.9</ele>
        <time>2022-07-14T06:15:21Z</time>
      </trkpt>
      <trkpt lat="44.75792" lon="5.67697">
        <ele>839.3</ele>
        <time>2022-07-14T06:15:22Z</time>
      </trkpt>
      <trkpt lat="44.75793" lon="5.67692">
        <ele>839.5</ele>
        <time>2022-07-14T06:15:23Z</time>
      </trkpt>
      <trkpt lat="44.75795" lon="5.67687">
        <ele>839.8</ele>
        <time>2022-07-14T06:15:24Z</time>
      </trkpt>
      <trkpt lat="44.75797" lon="5.67676">
        <ele>840.3</ele>
        <time>2022-07-14T06:15:26Z</time>
      </trkpt>
      <trkpt lat="44.75798" lon="5.67672">
        <ele>840.4</ele>
        <time>2022-07-14T06:15:27Z</time>
      </trkpt>
      <trkpt lat="44.75799" lon="5.67665">
        <ele>840.7</ele>
        <time>2022-07-14T06:15:29Z</time>
      </trkpt>
      <trkpt lat="44.75801" lon="5.67654">
        <ele>841</ele>
        <time>2022-07-14T06:15:31Z</time>
      </trkpt>
      <trkpt lat="44.75804" lon="5.67649">
        <ele>841.2</ele>
        <time>2022-07-14T06:15:33Z</time>
      </trkpt>
      <trkpt lat="44.75805" lon="5.67644">
        <ele>841.4</ele>
        <time>2022-07-14T06:15:34Z</time>
      </trkpt>
      <trkpt lat="44.75806" lon="5.67638">
        <ele>841.8</ele>
        <time>2022-07-14T06:15:36Z</time>
      </trkpt>
      <trkpt lat="44.75808" lon="5.67635">
        <ele>841.8</ele>
        <time>2022-07-14T06:15:37Z</time>
      </trkpt>
      <trkpt lat="44.75811" lon="5.67631">
        <ele>841.8</ele>
        <time>2022-07-14T06:15:39Z</time>
      </trkpt>
      <trkpt lat="44.75814" lon="5.67629">
        <ele>841.7</ele>
        <time>2022-07-14T06:15:40Z</time>
      </trkpt>
      <trkpt lat="44.75821" lon="5.67629">
        <ele>841.7</ele>
        <time>2022-07-14T06:15:42Z</time>
      </trkpt>
      <trkpt lat="44.75829" lon="5.67627">
        <ele>841.5</ele>
        <time>2022-07-14T06:15:44Z</time>
      </trkpt>
      <trkpt lat="44.75833" lon="5.67628">
        <ele>841.5</ele>
        <time>2022-07-14T06:15:45Z</time>
      </trkpt>
      <trkpt lat="44.75837" lon="5.67625">
        <ele>841.4</ele>
        <time>2022-07-14T06:15:46Z</time>
      </trkpt>
      <trkpt lat="44.75842" lon="5.67625">
        <ele>841.3</ele>
        <time>2022-07-14T06:15:47Z</time>
      </trkpt>
      <trkpt lat="44.75845" lon="5.67625">
        <ele>841.2</ele>
        <time>2022-07-14T06:15:48Z</time>
      </trkpt>
      <trkpt lat="44.75847" lon="5.67624">
        <ele>841.2</ele>
        <time>2022-07-14T06:15:49Z</time>
      </trkpt>
      <trkpt lat="44.75854" lon="5.67623">
        <ele>841</ele>
        <time>2022-07-14T06:15:51Z</time>
      </trkpt>
      <trkpt lat="44.75859" lon="5.67623">
        <ele>840.9</ele>
        <time>2022-07-14T06:15:52Z</time>
      </trkpt>
      <trkpt lat="44.75866" lon="5.67622">
        <ele>840.8</ele>
        <time>2022-07-14T06:15:54Z</time>
      </trkpt>
      <trkpt lat="44.75877" lon="5.67619">
        <ele>840.6</ele>
        <time>2022-07-14T06:15:57Z</time>
      </trkpt>
      <trkpt lat="44.75881" lon="5.67618">
        <ele>840.6</ele>
        <time>2022-07-14T06:15:58Z</time>
      </trkpt>
      <trkpt lat="44.75891" lon="5.67614">
        <ele>840.5</ele>
        <time>2022-07-14T06:16:00Z</time>
      </trkpt>
      <trkpt lat="44.75897" lon="5.67614">
        <ele>840.4</ele>
        <time>2022-07-14T06:16:01Z</time>
      </trkpt>
      <trkpt lat="44.75901" lon="5.67613">
        <ele>840.4</ele>
        <time>2022-07-14T06:16:02Z</time>
      </trkpt>
      <trkpt lat="44.75918" lon="5.67604">
        <ele>840.2</ele>
        <time>2022-07-14T06:16:05Z</time>
      </trkpt>
      <trkpt lat="44.75922" lon="5.67599">
        <ele>840.1</ele>
        <time>2022-07-14T06:16:08Z</time>
      </trkpt>
      <trkpt lat="44.75926" lon="5.67596">
        <ele>840.1</ele>
        <time>2022-07-14T06:16:09Z</time>
      </trkpt>
      <trkpt lat="44.75938" lon="5.67588">
        <ele>840</ele>
        <time>2022-07-14T06:16:10Z</time>
      </trkpt>
      <trkpt lat="44.75951" lon="5.67578">
        <ele>840</ele>
        <time>2022-07-14T06:16:13Z</time>
      </trkpt>
      <trkpt lat="44.75953" lon="5.67585">
        <ele>840</ele>
        <time>2022-07-14T06:16:15Z</time>
      </trkpt>
      <trkpt lat="44.75954" lon="5.67572">
        <ele>840</ele>
        <time>2022-07-14T06:16:16Z</time>
      </trkpt>
      <trkpt lat="44.75956" lon="5.67564">
        <ele>840</ele>
        <time>2022-07-14T06:16:17Z</time>
      </trkpt>
      <trkpt lat="44.75957" lon="5.67534">
        <ele>840.2</ele>
        <time>2022-07-14T06:16:20Z</time>
      </trkpt>
      <trkpt lat="44.75955" lon="5.67534">
        <ele>840.2</ele>
        <time>2022-07-14T06:16:22Z</time>
      </trkpt>
      <trkpt lat="44.75954" lon="5.67527">
        <ele>840.2</ele>
        <time>2022-07-14T06:16:23Z</time>
      </trkpt>
      <trkpt lat="44.75953" lon="5.67519">
        <ele>840.2</ele>
        <time>2022-07-14T06:16:24Z</time>
      </trkpt>
      <trkpt lat="44.75949" lon="5.67494">
        <ele>840.6</ele>
        <time>2022-07-14T06:16:27Z</time>
      </trkpt>
      <trkpt lat="44.75949" lon="5.67491">
        <ele>840.6</ele>
        <time>2022-07-14T06:16:29Z</time>
      </trkpt>
      <trkpt lat="44.75948" lon="5.67483">
        <ele>840.8</ele>
        <time>2022-07-14T06:16:30Z</time>
      </trkpt>
      <trkpt lat="44.75946" lon="5.67475">
        <ele>840.9</ele>
        <time>2022-07-14T06:16:31Z</time>
      </trkpt>
      <trkpt lat="44.75943" lon="5.67465">
        <ele>841.1</ele>
        <time>2022-07-14T06:16:33Z</time>
      </trkpt>
      <trkpt lat="44.75942" lon="5.67459">
        <ele>841.2</ele>
        <time>2022-07-14T06:16:34Z</time>
      </trkpt>
      <trkpt lat="44.75942" lon="5.67454">
        <ele>841.4</ele>
        <time>2022-07-14T06:16:35Z</time>
      </trkpt>
      <trkpt lat="44.75941" lon="5.67448">
        <ele>841.5</ele>
        <time>2022-07-14T06:16:36Z</time>
      </trkpt>
      <trkpt lat="44.7594" lon="5.67442">
        <ele>841.6</ele>
        <time>2022-07-14T06:16:37Z</time>
      </trkpt>
      <trkpt lat="44.7594" lon="5.67437">
        <ele>841.7</ele>
        <time>2022-07-14T06:16:38Z</time>
      </trkpt>
      <trkpt lat="44.75939" lon="5.67424">
        <ele>842.1</ele>
        <time>2022-07-14T06:16:40Z</time>
      </trkpt>
      <trkpt lat="44.75938" lon="5.6742">
        <ele>842.2</ele>
        <time>2022-07-14T06:16:41Z</time>
      </trkpt>
      <trkpt lat="44.75937" lon="5.67414">
        <ele>842.3</ele>
        <time>2022-07-14T06:16:42Z</time>
      </trkpt>
      <trkpt lat="44.75938" lon="5.67409">
        <ele>842.4</ele>
        <time>2022-07-14T06:16:43Z</time>
      </trkpt>
      <trkpt lat="44.75937" lon="5.67396">
        <ele>842.7</ele>
        <time>2022-07-14T06:16:45Z</time>
      </trkpt>
      <trkpt lat="44.75936" lon="5.6739">
        <ele>842.9</ele>
        <time>2022-07-14T06:16:46Z</time>
      </trkpt>
      <trkpt lat="44.75936" lon="5.67384">
        <ele>843</ele>
        <time>2022-07-14T06:16:47Z</time>
      </trkpt>
      <trkpt lat="44.75937" lon="5.67377">
        <ele>843.2</ele>
        <time>2022-07-14T06:16:48Z</time>
      </trkpt>
      <trkpt lat="44.75937" lon="5.67374">
        <ele>843.3</ele>
        <time>2022-07-14T06:16:49Z</time>
      </trkpt>
      <trkpt lat="44.75937" lon="5.67368">
        <ele>843.5</ele>
        <time>2022-07-14T06:16:50Z</time>
      </trkpt>
      <trkpt lat="44.75938" lon="5.67363">
        <ele>843.6</ele>
        <time>2022-07-14T06:16:51Z</time>
      </trkpt>
      <trkpt lat="44.75939" lon="5.67355">
        <ele>843.9</ele>
        <time>2022-07-14T06:16:53Z</time>
      </trkpt>
      <trkpt lat="44.75939" lon="5.67348">
        <ele>844.1</ele>
        <time>2022-07-14T06:16:54Z</time>
      </trkpt>
      <trkpt lat="44.7594" lon="5.67342">
        <ele>844.3</ele>
        <time>2022-07-14T06:16:55Z</time>
      </trkpt>
      <trkpt lat="44.75941" lon="5.67334">
        <ele>844.5</ele>
        <time>2022-07-14T06:16:57Z</time>
      </trkpt>
      <trkpt lat="44.75941" lon="5.67329">
        <ele>844.7</ele>
        <time>2022-07-14T06:16:58Z</time>
      </trkpt>
      <trkpt lat="44.75942" lon="5.6732">
        <ele>845</ele>
        <time>2022-07-14T06:17:00Z</time>
      </trkpt>
      <trkpt lat="44.75942" lon="5.67314">
        <ele>845.1</ele>
        <time>2022-07-14T06:17:01Z</time>
      </trkpt>
      <trkpt lat="44.75943" lon="5.67307">
        <ele>845.3</ele>
        <time>2022-07-14T06:17:02Z</time>
      </trkpt>
      <trkpt lat="44.75944" lon="5.67301">
        <ele>845.6</ele>
        <time>2022-07-14T06:17:03Z</time>
      </trkpt>
      <trkpt lat="44.75946" lon="5.67291">
        <ele>845.9</ele>
        <time>2022-07-14T06:17:05Z</time>
      </trkpt>
      <trkpt lat="44.75948" lon="5.67282">
        <ele>846.2</ele>
        <time>2022-07-14T06:17:07Z</time>
      </trkpt>
      <trkpt lat="44.75949" lon="5.67277">
        <ele>846.3</ele>
        <time>2022-07-14T06:17:08Z</time>
      </trkpt>
      <trkpt lat="44.75949" lon="5.67272">
        <ele>846.4</ele>
        <time>2022-07-14T06:17:09Z</time>
      </trkpt>
      <trkpt lat="44.75949" lon="5.67261">
        <ele>846.6</ele>
        <time>2022-07-14T06:17:11Z</time>
      </trkpt>
      <trkpt lat="44.75949" lon="5.67247">
        <ele>846.8</ele>
        <time>2022-07-14T06:17:14Z</time>
      </trkpt>
      <trkpt lat="44.75949" lon="5.6724">
        <ele>847</ele>
        <time>2022-07-14T06:17:15Z</time>
      </trkpt>
      <trkpt lat="44.75948" lon="5.67228">
        <ele>847.1</ele>
        <time>2022-07-14T06:17:17Z</time>
      </trkpt>
      <trkpt lat="44.75948" lon="5.67223">
        <ele>847.2</ele>
        <time>2022-07-14T06:17:18Z</time>
      </trkpt>
      <trkpt lat="44.75948" lon="5.67211">
        <ele>847.4</ele>
        <time>2022-07-14T06:17:20Z</time>
      </trkpt>
      <trkpt lat="44.75949" lon="5.67196">
        <ele>847.6</ele>
        <time>2022-07-14T06:17:22Z</time>
      </trkpt>
      <trkpt lat="44.75949" lon="5.6719">
        <ele>847.7</ele>
        <time>2022-07-14T06:17:24Z</time>
      </trkpt>
      <trkpt lat="44.7595" lon="5.67182">
        <ele>847.9</ele>
        <time>2022-07-14T06:17:25Z</time>
      </trkpt>
      <trkpt lat="44.7595" lon="5.67173">
        <ele>848</ele>
        <time>2022-07-14T06:17:26Z</time>
      </trkpt>
      <trkpt lat="44.75949" lon="5.67167">
        <ele>848.2</ele>
        <time>2022-07-14T06:17:27Z</time>
      </trkpt>
      <trkpt lat="44.75948" lon="5.67159">
        <ele>848.3</ele>
        <time>2022-07-14T06:17:29Z</time>
      </trkpt>
      <trkpt lat="44.75948" lon="5.67149">
        <ele>848.5</ele>
        <time>2022-07-14T06:17:31Z</time>
      </trkpt>
      <trkpt lat="44.75948" lon="5.67144">
        <ele>848.6</ele>
        <time>2022-07-14T06:17:32Z</time>
      </trkpt>
      <trkpt lat="44.75948" lon="5.67137">
        <ele>848.7</ele>
        <time>2022-07-14T06:17:33Z</time>
      </trkpt>
      <trkpt lat="44.75949" lon="5.67129">
        <ele>848.9</ele>
        <time>2022-07-14T06:17:35Z</time>
      </trkpt>
      <trkpt lat="44.75949" lon="5.67122">
        <ele>849</ele>
        <time>2022-07-14T06:17:36Z</time>
      </trkpt>
      <trkpt lat="44.75951" lon="5.67118">
        <ele>849.1</ele>
        <time>2022-07-14T06:17:37Z</time>
      </trkpt>
      <trkpt lat="44.75951" lon="5.67111">
        <ele>849.3</ele>
        <time>2022-07-14T06:17:38Z</time>
      </trkpt>
      <trkpt lat="44.75952" lon="5.67103">
        <ele>849.4</ele>
        <time>2022-07-14T06:17:40Z</time>
      </trkpt>
      <trkpt lat="44.75953" lon="5.67096">
        <ele>849.6</ele>
        <time>2022-07-14T06:17:41Z</time>
      </trkpt>
      <trkpt lat="44.75956" lon="5.67087">
        <ele>849.8</ele>
        <time>2022-07-14T06:17:43Z</time>
      </trkpt>
      <trkpt lat="44.75957" lon="5.6708">
        <ele>849.9</ele>
        <time>2022-07-14T06:17:44Z</time>
      </trkpt>
      <trkpt lat="44.75957" lon="5.67073">
        <ele>850.1</ele>
        <time>2022-07-14T06:17:45Z</time>
      </trkpt>
      <trkpt lat="44.75958" lon="5.67068">
        <ele>850.2</ele>
        <time>2022-07-14T06:17:46Z</time>
      </trkpt>
      <trkpt lat="44.7596" lon="5.67059">
        <ele>850.4</ele>
        <time>2022-07-14T06:17:48Z</time>
      </trkpt>
      <trkpt lat="44.7596" lon="5.67053">
        <ele>850.5</ele>
        <time>2022-07-14T06:17:49Z</time>
      </trkpt>
      <trkpt lat="44.7596" lon="5.67046">
        <ele>850.6</ele>
        <time>2022-07-14T06:17:50Z</time>
      </trkpt>
      <trkpt lat="44.75961" lon="5.67042">
        <ele>850.7</ele>
        <time>2022-07-14T06:17:51Z</time>
      </trkpt>
      <trkpt lat="44.75962" lon="5.67035">
        <ele>850.9</ele>
        <time>2022-07-14T06:17:52Z</time>
      </trkpt>
      <trkpt lat="44.75965" lon="5.67025">
        <ele>851.1</ele>
        <time>2022-07-14T06:17:54Z</time>
      </trkpt>
      <trkpt lat="44.75966" lon="5.67018">
        <ele>851.3</ele>
        <time>2022-07-14T06:17:55Z</time>
      </trkpt>
      <trkpt lat="44.75967" lon="5.67009">
        <ele>851.5</ele>
        <time>2022-07-14T06:17:57Z</time>
      </trkpt>
      <trkpt lat="44.7597" lon="5.66999">
        <ele>851.7</ele>
        <time>2022-07-14T06:17:59Z</time>
      </trkpt>
      <trkpt lat="44.75972" lon="5.66993">
        <ele>851.8</ele>
        <time>2022-07-14T06:18:00Z</time>
      </trkpt>
      <trkpt lat="44.75976" lon="5.66985">
        <ele>851.9</ele>
        <time>2022-07-14T06:18:02Z</time>
      </trkpt>
      <trkpt lat="44.75982" lon="5.66976">
        <ele>851.9</ele>
        <time>2022-07-14T06:18:04Z</time>
      </trkpt>
      <trkpt lat="44.75986" lon="5.66973">
        <ele>852.1</ele>
        <time>2022-07-14T06:18:05Z</time>
      </trkpt>
      <trkpt lat="44.75994" lon="5.66971">
        <ele>852.3</ele>
        <time>2022-07-14T06:18:07Z</time>
      </trkpt>
      <trkpt lat="44.76" lon="5.6697">
        <ele>852.5</ele>
        <time>2022-07-14T06:18:09Z</time>
      </trkpt>
      <trkpt lat="44.76005" lon="5.66968">
        <ele>852.7</ele>
        <time>2022-07-14T06:18:10Z</time>
      </trkpt>
      <trkpt lat="44.76009" lon="5.66966">
        <ele>852.8</ele>
        <time>2022-07-14T06:18:11Z</time>
      </trkpt>
      <trkpt lat="44.76015" lon="5.66966">
        <ele>853</ele>
        <time>2022-07-14T06:18:13Z</time>
      </trkpt>
      <trkpt lat="44.76019" lon="5.66965">
        <ele>853.2</ele>
        <time>2022-07-14T06:18:14Z</time>
      </trkpt>
      <trkpt lat="44.76025" lon="5.66964">
        <ele>853.4</ele>
        <time>2022-07-14T06:18:16Z</time>
      </trkpt>
      <trkpt lat="44.76033" lon="5.66965">
        <ele>853.8</ele>
        <time>2022-07-14T06:18:18Z</time>
      </trkpt>
      <trkpt lat="44.76038" lon="5.66967">
        <ele>854</ele>
        <time>2022-07-14T06:18:19Z</time>
      </trkpt>
      <trkpt lat="44.76043" lon="5.66968">
        <ele>854.2</ele>
        <time>2022-07-14T06:18:20Z</time>
      </trkpt>
      <trkpt lat="44.76047" lon="5.66969">
        <ele>854.4</ele>
        <time>2022-07-14T06:18:21Z</time>
      </trkpt>
      <trkpt lat="44.76048" lon="5.66969">
        <ele>854.5</ele>
        <time>2022-07-14T06:18:22Z</time>
      </trkpt>
      <trkpt lat="44.76053" lon="5.66969">
        <ele>854.7</ele>
        <time>2022-07-14T06:18:23Z</time>
      </trkpt>
      <trkpt lat="44.76059" lon="5.6697">
        <ele>855</ele>
        <time>2022-07-14T06:18:25Z</time>
      </trkpt>
      <trkpt lat="44.76063" lon="5.66971">
        <ele>855.1</ele>
        <time>2022-07-14T06:18:26Z</time>
      </trkpt>
      <trkpt lat="44.76072" lon="5.66974">
        <ele>855.6</ele>
        <time>2022-07-14T06:18:29Z</time>
      </trkpt>
      <trkpt lat="44.76075" lon="5.66975">
        <ele>855.7</ele>
        <time>2022-07-14T06:18:30Z</time>
      </trkpt>
      <trkpt lat="44.76079" lon="5.66977">
        <ele>855.9</ele>
        <time>2022-07-14T06:18:31Z</time>
      </trkpt>
      <trkpt lat="44.76082" lon="5.66978">
        <ele>856.1</ele>
        <time>2022-07-14T06:18:32Z</time>
      </trkpt>
      <trkpt lat="44.76086" lon="5.6698">
        <ele>856.3</ele>
        <time>2022-07-14T06:18:33Z</time>
      </trkpt>
      <trkpt lat="44.76088" lon="5.66982">
        <ele>856.4</ele>
        <time>2022-07-14T06:18:34Z</time>
      </trkpt>
      <trkpt lat="44.76095" lon="5.66989">
        <ele>856.8</ele>
        <time>2022-07-14T06:18:36Z</time>
      </trkpt>
      <trkpt lat="44.76097" lon="5.66992">
        <ele>856.9</ele>
        <time>2022-07-14T06:18:37Z</time>
      </trkpt>
      <trkpt lat="44.761" lon="5.66995">
        <ele>857</ele>
        <time>2022-07-14T06:18:38Z</time>
      </trkpt>
      <trkpt lat="44.76107" lon="5.67005">
        <ele>857.4</ele>
        <time>2022-07-14T06:18:41Z</time>
      </trkpt>
      <trkpt lat="44.76109" lon="5.6701">
        <ele>857.5</ele>
        <time>2022-07-14T06:18:42Z</time>
      </trkpt>
      <trkpt lat="44.76112" lon="5.67016">
        <ele>857.7</ele>
        <time>2022-07-14T06:18:43Z</time>
      </trkpt>
      <trkpt lat="44.76114" lon="5.67019">
        <ele>857.8</ele>
        <time>2022-07-14T06:18:44Z</time>
      </trkpt>
      <trkpt lat="44.76117" lon="5.67023">
        <ele>857.9</ele>
        <time>2022-07-14T06:18:45Z</time>
      </trkpt>
      <trkpt lat="44.76126" lon="5.67033">
        <ele>858.3</ele>
        <time>2022-07-14T06:18:48Z</time>
      </trkpt>
      <trkpt lat="44.76133" lon="5.67037">
        <ele>858.5</ele>
        <time>2022-07-14T06:18:49Z</time>
      </trkpt>
      <trkpt lat="44.76137" lon="5.67038">
        <ele>858.6</ele>
        <time>2022-07-14T06:18:50Z</time>
      </trkpt>
      <trkpt lat="44.76141" lon="5.6704">
        <ele>858.8</ele>
        <time>2022-07-14T06:18:52Z</time>
      </trkpt>
      <trkpt lat="44.76145" lon="5.67042">
        <ele>858.9</ele>
        <time>2022-07-14T06:18:53Z</time>
      </trkpt>
      <trkpt lat="44.76149" lon="5.67043">
        <ele>859.1</ele>
        <time>2022-07-14T06:18:54Z</time>
      </trkpt>
      <trkpt lat="44.76155" lon="5.67046">
        <ele>859.3</ele>
        <time>2022-07-14T06:18:56Z</time>
      </trkpt>
      <trkpt lat="44.76158" lon="5.67049">
        <ele>859.4</ele>
        <time>2022-07-14T06:18:57Z</time>
      </trkpt>
      <trkpt lat="44.76163" lon="5.6705">
        <ele>859.6</ele>
        <time>2022-07-14T06:18:58Z</time>
      </trkpt>
      <trkpt lat="44.76169" lon="5.67052">
        <ele>859.8</ele>
        <time>2022-07-14T06:19:00Z</time>
      </trkpt>
      <trkpt lat="44.76174" lon="5.67052">
        <ele>860</ele>
        <time>2022-07-14T06:19:01Z</time>
      </trkpt>
      <trkpt lat="44.76178" lon="5.67052">
        <ele>860.1</ele>
        <time>2022-07-14T06:19:02Z</time>
      </trkpt>
      <trkpt lat="44.76184" lon="5.67052">
        <ele>860.2</ele>
        <time>2022-07-14T06:19:04Z</time>
      </trkpt>
      <trkpt lat="44.76187" lon="5.6705">
        <ele>860.2</ele>
        <time>2022-07-14T06:19:05Z</time>
      </trkpt>
      <trkpt lat="44.76192" lon="5.67049">
        <ele>860.3</ele>
        <time>2022-07-14T06:19:06Z</time>
      </trkpt>
      <trkpt lat="44.76199" lon="5.67046">
        <ele>860.2</ele>
        <time>2022-07-14T06:19:08Z</time>
      </trkpt>
      <trkpt lat="44.76203" lon="5.67047">
        <ele>860.1</ele>
        <time>2022-07-14T06:19:09Z</time>
      </trkpt>
      <trkpt lat="44.76212" lon="5.67047">
        <ele>859.9</ele>
        <time>2022-07-14T06:19:11Z</time>
      </trkpt>
      <trkpt lat="44.76223" lon="5.67051">
        <ele>859.5</ele>
        <time>2022-07-14T06:19:14Z</time>
      </trkpt>
      <trkpt lat="44.76229" lon="5.67052">
        <ele>859.2</ele>
        <time>2022-07-14T06:19:15Z</time>
      </trkpt>
      <trkpt lat="44.76235" lon="5.6705">
        <ele>858.9</ele>
        <time>2022-07-14T06:19:16Z</time>
      </trkpt>
      <trkpt lat="44.7624" lon="5.67046">
        <ele>858.6</ele>
        <time>2022-07-14T06:19:17Z</time>
      </trkpt>
      <trkpt lat="44.76245" lon="5.6704">
        <ele>858.4</ele>
        <time>2022-07-14T06:19:18Z</time>
      </trkpt>
      <trkpt lat="44.76247" lon="5.67033">
        <ele>858.1</ele>
        <time>2022-07-14T06:19:19Z</time>
      </trkpt>
      <trkpt lat="44.76248" lon="5.67024">
        <ele>857.7</ele>
        <time>2022-07-14T06:19:20Z</time>
      </trkpt>
      <trkpt lat="44.76247" lon="5.67014">
        <ele>857.3</ele>
        <time>2022-07-14T06:19:21Z</time>
      </trkpt>
      <trkpt lat="44.76246" lon="5.67005">
        <ele>857</ele>
        <time>2022-07-14T06:19:22Z</time>
      </trkpt>
      <trkpt lat="44.76244" lon="5.66995">
        <ele>856.6</ele>
        <time>2022-07-14T06:19:23Z</time>
      </trkpt>
      <trkpt lat="44.76242" lon="5.66986">
        <ele>856.2</ele>
        <time>2022-07-14T06:19:24Z</time>
      </trkpt>
      <trkpt lat="44.7624" lon="5.66977">
        <ele>855.9</ele>
        <time>2022-07-14T06:19:25Z</time>
      </trkpt>
      <trkpt lat="44.76238" lon="5.66967">
        <ele>855.5</ele>
        <time>2022-07-14T06:19:26Z</time>
      </trkpt>
      <trkpt lat="44.76234" lon="5.66958">
        <ele>855.1</ele>
        <time>2022-07-14T06:19:27Z</time>
      </trkpt>
      <trkpt lat="44.76229" lon="5.66949">
        <ele>854.6</ele>
        <time>2022-07-14T06:19:28Z</time>
      </trkpt>
      <trkpt lat="44.76224" lon="5.66941">
        <ele>854.2</ele>
        <time>2022-07-14T06:19:29Z</time>
      </trkpt>
      <trkpt lat="44.76219" lon="5.66932">
        <ele>853.7</ele>
        <time>2022-07-14T06:19:30Z</time>
      </trkpt>
      <trkpt lat="44.76216" lon="5.66923">
        <ele>853.3</ele>
        <time>2022-07-14T06:19:31Z</time>
      </trkpt>
      <trkpt lat="44.76213" lon="5.66913">
        <ele>852.9</ele>
        <time>2022-07-14T06:19:32Z</time>
      </trkpt>
      <trkpt lat="44.76213" lon="5.66903">
        <ele>852.4</ele>
        <time>2022-07-14T06:19:33Z</time>
      </trkpt>
      <trkpt lat="44.76214" lon="5.66892">
        <ele>851.9</ele>
        <time>2022-07-14T06:19:34Z</time>
      </trkpt>
      <trkpt lat="44.76215" lon="5.66881">
        <ele>851.4</ele>
        <time>2022-07-14T06:19:35Z</time>
      </trkpt>
      <trkpt lat="44.76215" lon="5.6687">
        <ele>851</ele>
        <time>2022-07-14T06:19:36Z</time>
      </trkpt>
      <trkpt lat="44.76213" lon="5.66859">
        <ele>850.5</ele>
        <time>2022-07-14T06:19:37Z</time>
      </trkpt>
      <trkpt lat="44.7621" lon="5.66848">
        <ele>850.1</ele>
        <time>2022-07-14T06:19:38Z</time>
      </trkpt>
      <trkpt lat="44.76206" lon="5.66839">
        <ele>849.6</ele>
        <time>2022-07-14T06:19:39Z</time>
      </trkpt>
      <trkpt lat="44.76202" lon="5.66829">
        <ele>849.2</ele>
        <time>2022-07-14T06:19:40Z</time>
      </trkpt>
      <trkpt lat="44.76198" lon="5.66819">
        <ele>848.7</ele>
        <time>2022-07-14T06:19:41Z</time>
      </trkpt>
      <trkpt lat="44.76195" lon="5.66808">
        <ele>848.3</ele>
        <time>2022-07-14T06:19:42Z</time>
      </trkpt>
      <trkpt lat="44.76193" lon="5.66797">
        <ele>847.8</ele>
        <time>2022-07-14T06:19:43Z</time>
      </trkpt>
      <trkpt lat="44.76193" lon="5.66785">
        <ele>847.3</ele>
        <time>2022-07-14T06:19:44Z</time>
      </trkpt>
      <trkpt lat="44.76195" lon="5.66773">
        <ele>846.8</ele>
        <time>2022-07-14T06:19:45Z</time>
      </trkpt>
      <trkpt lat="44.76198" lon="5.66761">
        <ele>846.3</ele>
        <time>2022-07-14T06:19:46Z</time>
      </trkpt>
      <trkpt lat="44.762" lon="5.66751">
        <ele>845.8</ele>
        <time>2022-07-14T06:19:47Z</time>
      </trkpt>
      <trkpt lat="44.76204" lon="5.6674">
        <ele>845.3</ele>
        <time>2022-07-14T06:19:48Z</time>
      </trkpt>
      <trkpt lat="44.76209" lon="5.6673">
        <ele>844.8</ele>
        <time>2022-07-14T06:19:49Z</time>
      </trkpt>
      <trkpt lat="44.76215" lon="5.6672">
        <ele>844.3</ele>
        <time>2022-07-14T06:19:50Z</time>
      </trkpt>
      <trkpt lat="44.7622" lon="5.66711">
        <ele>843.8</ele>
        <time>2022-07-14T06:19:51Z</time>
      </trkpt>
      <trkpt lat="44.76227" lon="5.66702">
        <ele>843.3</ele>
        <time>2022-07-14T06:19:52Z</time>
      </trkpt>
      <trkpt lat="44.76233" lon="5.66693">
        <ele>842.7</ele>
        <time>2022-07-14T06:19:53Z</time>
      </trkpt>
      <trkpt lat="44.76239" lon="5.66684">
        <ele>842.3</ele>
        <time>2022-07-14T06:19:54Z</time>
      </trkpt>
      <trkpt lat="44.76245" lon="5.66675">
        <ele>841.8</ele>
        <time>2022-07-14T06:19:55Z</time>
      </trkpt>
      <trkpt lat="44.76252" lon="5.66666">
        <ele>841.3</ele>
        <time>2022-07-14T06:19:56Z</time>
      </trkpt>
      <trkpt lat="44.76258" lon="5.66656">
        <ele>840.7</ele>
        <time>2022-07-14T06:19:57Z</time>
      </trkpt>
      <trkpt lat="44.76265" lon="5.66647">
        <ele>840.3</ele>
        <time>2022-07-14T06:19:58Z</time>
      </trkpt>
      <trkpt lat="44.76272" lon="5.66639">
        <ele>840</ele>
        <time>2022-07-14T06:19:59Z</time>
      </trkpt>
      <trkpt lat="44.76278" lon="5.66631">
        <ele>839.6</ele>
        <time>2022-07-14T06:20:00Z</time>
      </trkpt>
      <trkpt lat="44.76286" lon="5.66624">
        <ele>839.3</ele>
        <time>2022-07-14T06:20:01Z</time>
      </trkpt>
      <trkpt lat="44.76293" lon="5.66619">
        <ele>839</ele>
        <time>2022-07-14T06:20:02Z</time>
      </trkpt>
      <trkpt lat="44.76301" lon="5.66613">
        <ele>838.8</ele>
        <time>2022-07-14T06:20:03Z</time>
      </trkpt>
      <trkpt lat="44.76309" lon="5.66609">
        <ele>838.6</ele>
        <time>2022-07-14T06:20:04Z</time>
      </trkpt>
      <trkpt lat="44.76316" lon="5.66604">
        <ele>838.5</ele>
        <time>2022-07-14T06:20:05Z</time>
      </trkpt>
      <trkpt lat="44.76323" lon="5.66597">
        <ele>838.5</ele>
        <time>2022-07-14T06:20:06Z</time>
      </trkpt>
      <trkpt lat="44.7633" lon="5.66589">
        <ele>838.5</ele>
        <time>2022-07-14T06:20:07Z</time>
      </trkpt>
      <trkpt lat="44.76336" lon="5.66582">
        <ele>838.7</ele>
        <time>2022-07-14T06:20:08Z</time>
      </trkpt>
      <trkpt lat="44.76341" lon="5.66574">
        <ele>838.6</ele>
        <time>2022-07-14T06:20:09Z</time>
      </trkpt>
      <trkpt lat="44.76345" lon="5.66566">
        <ele>838.5</ele>
        <time>2022-07-14T06:20:10Z</time>
      </trkpt>
      <trkpt lat="44.76349" lon="5.66557">
        <ele>838.4</ele>
        <time>2022-07-14T06:20:11Z</time>
      </trkpt>
      <trkpt lat="44.76353" lon="5.66548">
        <ele>838.4</ele>
        <time>2022-07-14T06:20:12Z</time>
      </trkpt>
      <trkpt lat="44.76357" lon="5.66539">
        <ele>838.4</ele>
        <time>2022-07-14T06:20:13Z</time>
      </trkpt>
      <trkpt lat="44.7636" lon="5.66531">
        <ele>838.5</ele>
        <time>2022-07-14T06:20:14Z</time>
      </trkpt>
      <trkpt lat="44.76365" lon="5.66523">
        <ele>838.5</ele>
        <time>2022-07-14T06:20:15Z</time>
      </trkpt>
      <trkpt lat="44.76368" lon="5.66515">
        <ele>838.6</ele>
        <time>2022-07-14T06:20:16Z</time>
      </trkpt>
      <trkpt lat="44.76372" lon="5.66508">
        <ele>838.7</ele>
        <time>2022-07-14T06:20:17Z</time>
      </trkpt>
      <trkpt lat="44.76375" lon="5.665">
        <ele>838.8</ele>
        <time>2022-07-14T06:20:18Z</time>
      </trkpt>
      <trkpt lat="44.76379" lon="5.66492">
        <ele>838.9</ele>
        <time>2022-07-14T06:20:19Z</time>
      </trkpt>
      <trkpt lat="44.76383" lon="5.66487">
        <ele>839</ele>
        <time>2022-07-14T06:20:20Z</time>
      </trkpt>
      <trkpt lat="44.76388" lon="5.6648">
        <ele>839.1</ele>
        <time>2022-07-14T06:20:21Z</time>
      </trkpt>
      <trkpt lat="44.76393" lon="5.66475">
        <ele>839.3</ele>
        <time>2022-07-14T06:20:22Z</time>
      </trkpt>
      <trkpt lat="44.76397" lon="5.66469">
        <ele>839.4</ele>
        <time>2022-07-14T06:20:23Z</time>
      </trkpt>
      <trkpt lat="44.76401" lon="5.66463">
        <ele>839.4</ele>
        <time>2022-07-14T06:20:24Z</time>
      </trkpt>
      <trkpt lat="44.76405" lon="5.66459">
        <ele>839.5</ele>
        <time>2022-07-14T06:20:25Z</time>
      </trkpt>
      <trkpt lat="44.76409" lon="5.66454">
        <ele>839.5</ele>
        <time>2022-07-14T06:20:26Z</time>
      </trkpt>
      <trkpt lat="44.76412" lon="5.6645">
        <ele>839.4</ele>
        <time>2022-07-14T06:20:27Z</time>
      </trkpt>
      <trkpt lat="44.76416" lon="5.66445">
        <ele>839.3</ele>
        <time>2022-07-14T06:20:28Z</time>
      </trkpt>
      <trkpt lat="44.7642" lon="5.66443">
        <ele>839.3</ele>
        <time>2022-07-14T06:20:29Z</time>
      </trkpt>
      <trkpt lat="44.76425" lon="5.66439">
        <ele>839.2</ele>
        <time>2022-07-14T06:20:30Z</time>
      </trkpt>
      <trkpt lat="44.7643" lon="5.66436">
        <ele>839.1</ele>
        <time>2022-07-14T06:20:31Z</time>
      </trkpt>
      <trkpt lat="44.76434" lon="5.66434">
        <ele>839</ele>
        <time>2022-07-14T06:20:32Z</time>
      </trkpt>
      <trkpt lat="44.76438" lon="5.66431">
        <ele>839</ele>
        <time>2022-07-14T06:20:33Z</time>
      </trkpt>
      <trkpt lat="44.76442" lon="5.66427">
        <ele>839</ele>
        <time>2022-07-14T06:20:34Z</time>
      </trkpt>
      <trkpt lat="44.76446" lon="5.66422">
        <ele>839</ele>
        <time>2022-07-14T06:20:35Z</time>
      </trkpt>
      <trkpt lat="44.76449" lon="5.66415">
        <ele>838.9</ele>
        <time>2022-07-14T06:20:36Z</time>
      </trkpt>
      <trkpt lat="44.76453" lon="5.66408">
        <ele>838.9</ele>
        <time>2022-07-14T06:20:37Z</time>
      </trkpt>
      <trkpt lat="44.76458" lon="5.66402">
        <ele>838.8</ele>
        <time>2022-07-14T06:20:38Z</time>
      </trkpt>
      <trkpt lat="44.76462" lon="5.66396">
        <ele>838.7</ele>
        <time>2022-07-14T06:20:39Z</time>
      </trkpt>
      <trkpt lat="44.76467" lon="5.6639">
        <ele>838.5</ele>
        <time>2022-07-14T06:20:40Z</time>
      </trkpt>
      <trkpt lat="44.76471" lon="5.66384">
        <ele>838.4</ele>
        <time>2022-07-14T06:20:41Z</time>
      </trkpt>
      <trkpt lat="44.76475" lon="5.66378">
        <ele>838.2</ele>
        <time>2022-07-14T06:20:42Z</time>
      </trkpt>
      <trkpt lat="44.7648" lon="5.66371">
        <ele>838.1</ele>
        <time>2022-07-14T06:20:43Z</time>
      </trkpt>
      <trkpt lat="44.76484" lon="5.66366">
        <ele>837.9</ele>
        <time>2022-07-14T06:20:44Z</time>
      </trkpt>
      <trkpt lat="44.76488" lon="5.6636">
        <ele>837.7</ele>
        <time>2022-07-14T06:20:45Z</time>
      </trkpt>
      <trkpt lat="44.76492" lon="5.66353">
        <ele>837.5</ele>
        <time>2022-07-14T06:20:46Z</time>
      </trkpt>
      <trkpt lat="44.76496" lon="5.66344">
        <ele>837.2</ele>
        <time>2022-07-14T06:20:47Z</time>
      </trkpt>
      <trkpt lat="44.76499" lon="5.66335">
        <ele>837</ele>
        <time>2022-07-14T06:20:48Z</time>
      </trkpt>
      <trkpt lat="44.76502" lon="5.66326">
        <ele>836.7</ele>
        <time>2022-07-14T06:20:49Z</time>
      </trkpt>
      <trkpt lat="44.76505" lon="5.66317">
        <ele>836.6</ele>
        <time>2022-07-14T06:20:50Z</time>
      </trkpt>
      <trkpt lat="44.76509" lon="5.66308">
        <ele>836.5</ele>
        <time>2022-07-14T06:20:51Z</time>
      </trkpt>
      <trkpt lat="44.76514" lon="5.66301">
        <ele>836.4</ele>
        <time>2022-07-14T06:20:52Z</time>
      </trkpt>
      <trkpt lat="44.76521" lon="5.66297">
        <ele>836.3</ele>
        <time>2022-07-14T06:20:53Z</time>
      </trkpt>
      <trkpt lat="44.76528" lon="5.66292">
        <ele>836.3</ele>
        <time>2022-07-14T06:20:54Z</time>
      </trkpt>
      <trkpt lat="44.76533" lon="5.66289">
        <ele>836.2</ele>
        <time>2022-07-14T06:20:55Z</time>
      </trkpt>
      <trkpt lat="44.76539" lon="5.66285">
        <ele>836.2</ele>
        <time>2022-07-14T06:20:56Z</time>
      </trkpt>
      <trkpt lat="44.76544" lon="5.66281">
        <ele>836.2</ele>
        <time>2022-07-14T06:20:57Z</time>
      </trkpt>
      <trkpt lat="44.7655" lon="5.66277">
        <ele>836.3</ele>
        <time>2022-07-14T06:20:58Z</time>
      </trkpt>
      <trkpt lat="44.76555" lon="5.66271">
        <ele>836.3</ele>
        <time>2022-07-14T06:20:59Z</time>
      </trkpt>
      <trkpt lat="44.76557" lon="5.66264">
        <ele>836.4</ele>
        <time>2022-07-14T06:21:00Z</time>
      </trkpt>
      <trkpt lat="44.7656" lon="5.66256">
        <ele>836.4</ele>
        <time>2022-07-14T06:21:01Z</time>
      </trkpt>
      <trkpt lat="44.76563" lon="5.66249">
        <ele>836.5</ele>
        <time>2022-07-14T06:21:02Z</time>
      </trkpt>
      <trkpt lat="44.76565" lon="5.66241">
        <ele>836.6</ele>
        <time>2022-07-14T06:21:03Z</time>
      </trkpt>
      <trkpt lat="44.76566" lon="5.66234">
        <ele>836.8</ele>
        <time>2022-07-14T06:21:04Z</time>
      </trkpt>
      <trkpt lat="44.76568" lon="5.66227">
        <ele>836.9</ele>
        <time>2022-07-14T06:21:05Z</time>
      </trkpt>
      <trkpt lat="44.7657" lon="5.6622">
        <ele>837</ele>
        <time>2022-07-14T06:21:06Z</time>
      </trkpt>
      <trkpt lat="44.76572" lon="5.66213">
        <ele>837.1</ele>
        <time>2022-07-14T06:21:07Z</time>
      </trkpt>
      <trkpt lat="44.76574" lon="5.66206">
        <ele>837.3</ele>
        <time>2022-07-14T06:21:08Z</time>
      </trkpt>
      <trkpt lat="44.76576" lon="5.662">
        <ele>837.4</ele>
        <time>2022-07-14T06:21:09Z</time>
      </trkpt>
      <trkpt lat="44.76578" lon="5.66194">
        <ele>837.5</ele>
        <time>2022-07-14T06:21:10Z</time>
      </trkpt>
      <trkpt lat="44.7658" lon="5.66187">
        <ele>837.7</ele>
        <time>2022-07-14T06:21:11Z</time>
      </trkpt>
      <trkpt lat="44.76583" lon="5.66181">
        <ele>837.9</ele>
        <time>2022-07-14T06:21:12Z</time>
      </trkpt>
      <trkpt lat="44.76586" lon="5.66175">
        <ele>838.1</ele>
        <time>2022-07-14T06:21:13Z</time>
      </trkpt>
      <trkpt lat="44.76589" lon="5.66169">
        <ele>838.4</ele>
        <time>2022-07-14T06:21:14Z</time>
      </trkpt>
      <trkpt lat="44.76593" lon="5.66163">
        <ele>838.7</ele>
        <time>2022-07-14T06:21:15Z</time>
      </trkpt>
      <trkpt lat="44.76598" lon="5.66159">
        <ele>838.9</ele>
        <time>2022-07-14T06:21:16Z</time>
      </trkpt>
      <trkpt lat="44.76602" lon="5.66155">
        <ele>839.1</ele>
        <time>2022-07-14T06:21:17Z</time>
      </trkpt>
      <trkpt lat="44.76605" lon="5.66153">
        <ele>839.3</ele>
        <time>2022-07-14T06:21:18Z</time>
      </trkpt>
      <trkpt lat="44.76609" lon="5.66152">
        <ele>839.5</ele>
        <time>2022-07-14T06:21:19Z</time>
      </trkpt>
      <trkpt lat="44.76612" lon="5.66151">
        <ele>839.6</ele>
        <time>2022-07-14T06:21:20Z</time>
      </trkpt>
      <trkpt lat="44.76616" lon="5.66151">
        <ele>839.8</ele>
        <time>2022-07-14T06:21:21Z</time>
      </trkpt>
      <trkpt lat="44.76621" lon="5.66151">
        <ele>840.1</ele>
        <time>2022-07-14T06:21:22Z</time>
      </trkpt>
      <trkpt lat="44.76625" lon="5.66152">
        <ele>840.3</ele>
        <time>2022-07-14T06:21:23Z</time>
      </trkpt>
      <trkpt lat="44.76634" lon="5.66156">
        <ele>840.7</ele>
        <time>2022-07-14T06:21:24Z</time>
      </trkpt>
      <trkpt lat="44.76635" lon="5.66159">
        <ele>840.8</ele>
        <time>2022-07-14T06:21:25Z</time>
      </trkpt>
      <trkpt lat="44.76642" lon="5.6616">
        <ele>841.2</ele>
        <time>2022-07-14T06:21:26Z</time>
      </trkpt>
      <trkpt lat="44.76649" lon="5.66163">
        <ele>841.6</ele>
        <time>2022-07-14T06:21:28Z</time>
      </trkpt>
      <trkpt lat="44.76653" lon="5.66164">
        <ele>841.8</ele>
        <time>2022-07-14T06:21:29Z</time>
      </trkpt>
      <trkpt lat="44.76663" lon="5.66168">
        <ele>842.4</ele>
        <time>2022-07-14T06:21:32Z</time>
      </trkpt>
      <trkpt lat="44.76667" lon="5.6617">
        <ele>842.6</ele>
        <time>2022-07-14T06:21:33Z</time>
      </trkpt>
      <trkpt lat="44.76673" lon="5.66173">
        <ele>843</ele>
        <time>2022-07-14T06:21:34Z</time>
      </trkpt>
      <trkpt lat="44.76677" lon="5.66176">
        <ele>843.2</ele>
        <time>2022-07-14T06:21:35Z</time>
      </trkpt>
      <trkpt lat="44.76683" lon="5.66179">
        <ele>843.6</ele>
        <time>2022-07-14T06:21:37Z</time>
      </trkpt>
      <trkpt lat="44.76686" lon="5.6618">
        <ele>843.8</ele>
        <time>2022-07-14T06:21:38Z</time>
      </trkpt>
      <trkpt lat="44.76691" lon="5.66182">
        <ele>844.1</ele>
        <time>2022-07-14T06:21:39Z</time>
      </trkpt>
      <trkpt lat="44.767" lon="5.66186">
        <ele>844.7</ele>
        <time>2022-07-14T06:21:41Z</time>
      </trkpt>
      <trkpt lat="44.76703" lon="5.66188">
        <ele>844.9</ele>
        <time>2022-07-14T06:21:42Z</time>
      </trkpt>
      <trkpt lat="44.76709" lon="5.6619">
        <ele>845.2</ele>
        <time>2022-07-14T06:21:43Z</time>
      </trkpt>
      <trkpt lat="44.76715" lon="5.66191">
        <ele>845.6</ele>
        <time>2022-07-14T06:21:44Z</time>
      </trkpt>
      <trkpt lat="44.7672" lon="5.66193">
        <ele>845.9</ele>
        <time>2022-07-14T06:21:46Z</time>
      </trkpt>
      <trkpt lat="44.76725" lon="5.66196">
        <ele>846.2</ele>
        <time>2022-07-14T06:21:47Z</time>
      </trkpt>
      <trkpt lat="44.76728" lon="5.66197">
        <ele>846.4</ele>
        <time>2022-07-14T06:21:48Z</time>
      </trkpt>
      <trkpt lat="44.76734" lon="5.66198">
        <ele>846.6</ele>
        <time>2022-07-14T06:21:49Z</time>
      </trkpt>
      <trkpt lat="44.76741" lon="5.66203">
        <ele>847</ele>
        <time>2022-07-14T06:21:51Z</time>
      </trkpt>
      <trkpt lat="44.76746" lon="5.66205">
        <ele>847.3</ele>
        <time>2022-07-14T06:21:52Z</time>
      </trkpt>
      <trkpt lat="44.76751" lon="5.66206">
        <ele>847.4</ele>
        <time>2022-07-14T06:21:53Z</time>
      </trkpt>
      <trkpt lat="44.76753" lon="5.66209">
        <ele>847.6</ele>
        <time>2022-07-14T06:21:54Z</time>
      </trkpt>
      <trkpt lat="44.7676" lon="5.66214">
        <ele>847.9</ele>
        <time>2022-07-14T06:21:56Z</time>
      </trkpt>
      <trkpt lat="44.76765" lon="5.66217">
        <ele>848.1</ele>
        <time>2022-07-14T06:21:57Z</time>
      </trkpt>
      <trkpt lat="44.76773" lon="5.66223">
        <ele>848.4</ele>
        <time>2022-07-14T06:21:59Z</time>
      </trkpt>
      <trkpt lat="44.76775" lon="5.66226">
        <ele>848.5</ele>
        <time>2022-07-14T06:22:00Z</time>
      </trkpt>
      <trkpt lat="44.76783" lon="5.6623">
        <ele>848.9</ele>
        <time>2022-07-14T06:22:02Z</time>
      </trkpt>
      <trkpt lat="44.76789" lon="5.66235">
        <ele>849.1</ele>
        <time>2022-07-14T06:22:04Z</time>
      </trkpt>
      <trkpt lat="44.76794" lon="5.66238">
        <ele>849.4</ele>
        <time>2022-07-14T06:22:05Z</time>
      </trkpt>
      <trkpt lat="44.768" lon="5.66241">
        <ele>849.6</ele>
        <time>2022-07-14T06:22:06Z</time>
      </trkpt>
      <trkpt lat="44.76806" lon="5.66246">
        <ele>849.9</ele>
        <time>2022-07-14T06:22:08Z</time>
      </trkpt>
      <trkpt lat="44.76813" lon="5.66253">
        <ele>850.3</ele>
        <time>2022-07-14T06:22:10Z</time>
      </trkpt>
      <trkpt lat="44.76818" lon="5.6626">
        <ele>850.7</ele>
        <time>2022-07-14T06:22:12Z</time>
      </trkpt>
      <trkpt lat="44.7682" lon="5.66265">
        <ele>850.9</ele>
        <time>2022-07-14T06:22:13Z</time>
      </trkpt>
      <trkpt lat="44.76823" lon="5.66269">
        <ele>851.2</ele>
        <time>2022-07-14T06:22:14Z</time>
      </trkpt>
      <trkpt lat="44.76828" lon="5.66277">
        <ele>851.6</ele>
        <time>2022-07-14T06:22:16Z</time>
      </trkpt>
      <trkpt lat="44.7683" lon="5.66281">
        <ele>851.9</ele>
        <time>2022-07-14T06:22:17Z</time>
      </trkpt>
      <trkpt lat="44.76832" lon="5.66284">
        <ele>852</ele>
        <time>2022-07-14T06:22:18Z</time>
      </trkpt>
      <trkpt lat="44.76838" lon="5.66291">
        <ele>852.4</ele>
        <time>2022-07-14T06:22:20Z</time>
      </trkpt>
      <trkpt lat="44.76843" lon="5.66293">
        <ele>852.7</ele>
        <time>2022-07-14T06:22:21Z</time>
      </trkpt>
      <trkpt lat="44.76847" lon="5.66295">
        <ele>853</ele>
        <time>2022-07-14T06:22:22Z</time>
      </trkpt>
      <trkpt lat="44.76849" lon="5.66296">
        <ele>853.1</ele>
        <time>2022-07-14T06:22:23Z</time>
      </trkpt>
      <trkpt lat="44.76852" lon="5.66297">
        <ele>853.3</ele>
        <time>2022-07-14T06:22:24Z</time>
      </trkpt>
      <trkpt lat="44.76856" lon="5.66297">
        <ele>853.5</ele>
        <time>2022-07-14T06:22:25Z</time>
      </trkpt>
      <trkpt lat="44.76864" lon="5.66298">
        <ele>854</ele>
        <time>2022-07-14T06:22:27Z</time>
      </trkpt>
      <trkpt lat="44.76872" lon="5.66299">
        <ele>854.4</ele>
        <time>2022-07-14T06:22:29Z</time>
      </trkpt>
      <trkpt lat="44.76876" lon="5.663">
        <ele>854.6</ele>
        <time>2022-07-14T06:22:30Z</time>
      </trkpt>
      <trkpt lat="44.76887" lon="5.66303">
        <ele>855.1</ele>
        <time>2022-07-14T06:22:33Z</time>
      </trkpt>
      <trkpt lat="44.7689" lon="5.66303">
        <ele>855.3</ele>
        <time>2022-07-14T06:22:34Z</time>
      </trkpt>
      <trkpt lat="44.76894" lon="5.66304">
        <ele>855.5</ele>
        <time>2022-07-14T06:22:35Z</time>
      </trkpt>
      <trkpt lat="44.76897" lon="5.66304">
        <ele>855.7</ele>
        <time>2022-07-14T06:22:36Z</time>
      </trkpt>
      <trkpt lat="44.769" lon="5.66304">
        <ele>855.8</ele>
        <time>2022-07-14T06:22:37Z</time>
      </trkpt>
      <trkpt lat="44.76908" lon="5.66301">
        <ele>856.2</ele>
        <time>2022-07-14T06:22:38Z</time>
      </trkpt>
      <trkpt lat="44.76912" lon="5.663">
        <ele>856.4</ele>
        <time>2022-07-14T06:22:40Z</time>
      </trkpt>
      <trkpt lat="44.76916" lon="5.663">
        <ele>856.6</ele>
        <time>2022-07-14T06:22:41Z</time>
      </trkpt>
      <trkpt lat="44.76919" lon="5.66298">
        <ele>856.8</ele>
        <time>2022-07-14T06:22:42Z</time>
      </trkpt>
      <trkpt lat="44.76923" lon="5.66297">
        <ele>857</ele>
        <time>2022-07-14T06:22:43Z</time>
      </trkpt>
      <trkpt lat="44.76931" lon="5.66296">
        <ele>857.4</ele>
        <time>2022-07-14T06:22:45Z</time>
      </trkpt>
      <trkpt lat="44.76935" lon="5.66295">
        <ele>857.6</ele>
        <time>2022-07-14T06:22:46Z</time>
      </trkpt>
      <trkpt lat="44.76938" lon="5.66293">
        <ele>857.7</ele>
        <time>2022-07-14T06:22:47Z</time>
      </trkpt>
      <trkpt lat="44.76943" lon="5.66292">
        <ele>857.9</ele>
        <time>2022-07-14T06:22:48Z</time>
      </trkpt>
      <trkpt lat="44.76951" lon="5.66291">
        <ele>858.3</ele>
        <time>2022-07-14T06:22:50Z</time>
      </trkpt>
      <trkpt lat="44.76955" lon="5.6629">
        <ele>858.5</ele>
        <time>2022-07-14T06:22:51Z</time>
      </trkpt>
      <trkpt lat="44.76959" lon="5.6629">
        <ele>858.7</ele>
        <time>2022-07-14T06:22:52Z</time>
      </trkpt>
      <trkpt lat="44.76961" lon="5.66289">
        <ele>858.8</ele>
        <time>2022-07-14T06:22:53Z</time>
      </trkpt>
      <trkpt lat="44.76966" lon="5.66288">
        <ele>859</ele>
        <time>2022-07-14T06:22:54Z</time>
      </trkpt>
      <trkpt lat="44.76971" lon="5.66287">
        <ele>859.3</ele>
        <time>2022-07-14T06:22:55Z</time>
      </trkpt>
      <trkpt lat="44.76978" lon="5.66285">
        <ele>859.6</ele>
        <time>2022-07-14T06:22:57Z</time>
      </trkpt>
      <trkpt lat="44.76983" lon="5.66284">
        <ele>859.9</ele>
        <time>2022-07-14T06:22:58Z</time>
      </trkpt>
      <trkpt lat="44.76987" lon="5.66283">
        <ele>860.1</ele>
        <time>2022-07-14T06:22:59Z</time>
      </trkpt>
      <trkpt lat="44.76992" lon="5.66282">
        <ele>860.3</ele>
        <time>2022-07-14T06:23:00Z</time>
      </trkpt>
      <trkpt lat="44.76995" lon="5.66282">
        <ele>860.5</ele>
        <time>2022-07-14T06:23:01Z</time>
      </trkpt>
      <trkpt lat="44.77003" lon="5.66279">
        <ele>861</ele>
        <time>2022-07-14T06:23:03Z</time>
      </trkpt>
      <trkpt lat="44.77007" lon="5.6628">
        <ele>861.2</ele>
        <time>2022-07-14T06:23:04Z</time>
      </trkpt>
      <trkpt lat="44.77013" lon="5.66279">
        <ele>861.5</ele>
        <time>2022-07-14T06:23:06Z</time>
      </trkpt>
      <trkpt lat="44.77016" lon="5.66278">
        <ele>861.7</ele>
        <time>2022-07-14T06:23:07Z</time>
      </trkpt>
      <trkpt lat="44.77022" lon="5.66277">
        <ele>862</ele>
        <time>2022-07-14T06:23:08Z</time>
      </trkpt>
      <trkpt lat="44.77027" lon="5.66275">
        <ele>862.3</ele>
        <time>2022-07-14T06:23:10Z</time>
      </trkpt>
      <trkpt lat="44.77032" lon="5.66272">
        <ele>862.6</ele>
        <time>2022-07-14T06:23:11Z</time>
      </trkpt>
      <trkpt lat="44.77038" lon="5.6627">
        <ele>862.9</ele>
        <time>2022-07-14T06:23:13Z</time>
      </trkpt>
      <trkpt lat="44.77042" lon="5.66269">
        <ele>863.1</ele>
        <time>2022-07-14T06:23:14Z</time>
      </trkpt>
      <trkpt lat="44.77046" lon="5.66265">
        <ele>863.3</ele>
        <time>2022-07-14T06:23:15Z</time>
      </trkpt>
      <trkpt lat="44.77053" lon="5.66262">
        <ele>863.7</ele>
        <time>2022-07-14T06:23:17Z</time>
      </trkpt>
      <trkpt lat="44.77056" lon="5.66259">
        <ele>863.9</ele>
        <time>2022-07-14T06:23:18Z</time>
      </trkpt>
      <trkpt lat="44.77063" lon="5.66254">
        <ele>864.3</ele>
        <time>2022-07-14T06:23:20Z</time>
      </trkpt>
      <trkpt lat="44.77069" lon="5.66251">
        <ele>864.6</ele>
        <time>2022-07-14T06:23:22Z</time>
      </trkpt>
      <trkpt lat="44.77075" lon="5.66247">
        <ele>864.9</ele>
        <time>2022-07-14T06:23:24Z</time>
      </trkpt>
      <trkpt lat="44.77078" lon="5.66243">
        <ele>865.1</ele>
        <time>2022-07-14T06:23:25Z</time>
      </trkpt>
      <trkpt lat="44.77083" lon="5.66237">
        <ele>865.4</ele>
        <time>2022-07-14T06:23:27Z</time>
      </trkpt>
      <trkpt lat="44.77085" lon="5.66234">
        <ele>865.6</ele>
        <time>2022-07-14T06:23:28Z</time>
      </trkpt>
      <trkpt lat="44.77088" lon="5.66231">
        <ele>865.7</ele>
        <time>2022-07-14T06:23:29Z</time>
      </trkpt>
      <trkpt lat="44.77092" lon="5.66224">
        <ele>866.1</ele>
        <time>2022-07-14T06:23:31Z</time>
      </trkpt>
      <trkpt lat="44.77096" lon="5.6622">
        <ele>866.1</ele>
        <time>2022-07-14T06:23:32Z</time>
      </trkpt>
      <trkpt lat="44.77099" lon="5.66217">
        <ele>866.1</ele>
        <time>2022-07-14T06:23:33Z</time>
      </trkpt>
      <trkpt lat="44.77107" lon="5.66213">
        <ele>866.1</ele>
        <time>2022-07-14T06:23:34Z</time>
      </trkpt>
      <trkpt lat="44.77112" lon="5.66213">
        <ele>866.1</ele>
        <time>2022-07-14T06:23:36Z</time>
      </trkpt>
      <trkpt lat="44.77116" lon="5.66213">
        <ele>866.1</ele>
        <time>2022-07-14T06:23:37Z</time>
      </trkpt>
      <trkpt lat="44.77119" lon="5.66211">
        <ele>866.1</ele>
        <time>2022-07-14T06:23:38Z</time>
      </trkpt>
      <trkpt lat="44.77123" lon="5.66209">
        <ele>866.1</ele>
        <time>2022-07-14T06:23:39Z</time>
      </trkpt>
      <trkpt lat="44.77128" lon="5.66204">
        <ele>866.1</ele>
        <time>2022-07-14T06:23:41Z</time>
      </trkpt>
      <trkpt lat="44.77133" lon="5.66202">
        <ele>866.1</ele>
        <time>2022-07-14T06:23:42Z</time>
      </trkpt>
      <trkpt lat="44.77136" lon="5.66199">
        <ele>866.1</ele>
        <time>2022-07-14T06:23:44Z</time>
      </trkpt>
      <trkpt lat="44.77137" lon="5.66198">
        <ele>866.1</ele>
        <time>2022-07-14T06:23:45Z</time>
      </trkpt>
      <trkpt lat="44.77139" lon="5.66195">
        <ele>866.1</ele>
        <time>2022-07-14T06:23:46Z</time>
      </trkpt>
      <trkpt lat="44.7714" lon="5.66194">
        <ele>866.1</ele>
        <time>2022-07-14T06:23:47Z</time>
      </trkpt>
      <trkpt lat="44.77142" lon="5.6619">
        <ele>866.1</ele>
        <time>2022-07-14T06:23:48Z</time>
      </trkpt>
      <trkpt lat="44.77141" lon="5.66188">
        <ele>866.1</ele>
        <time>2022-07-14T06:23:49Z</time>
      </trkpt>
      <trkpt lat="44.77146" lon="5.6619">
        <ele>866.1</ele>
        <time>2022-07-14T06:23:50Z</time>
      </trkpt>
      <trkpt lat="44.77148" lon="5.66187">
        <ele>866.1</ele>
        <time>2022-07-14T06:23:51Z</time>
      </trkpt>
      <trkpt lat="44.77151" lon="5.66185">
        <ele>866.1</ele>
        <time>2022-07-14T06:23:52Z</time>
      </trkpt>
      <trkpt lat="44.77152" lon="5.66185">
        <ele>866.1</ele>
        <time>2022-07-14T06:23:53Z</time>
      </trkpt>
      <trkpt lat="44.77156" lon="5.66182">
        <ele>866.1</ele>
        <time>2022-07-14T06:23:55Z</time>
      </trkpt>
      <trkpt lat="44.77158" lon="5.66179">
        <ele>866.1</ele>
        <time>2022-07-14T06:23:56Z</time>
      </trkpt>
      <trkpt lat="44.77161" lon="5.6618">
        <ele>866.1</ele>
        <time>2022-07-14T06:23:57Z</time>
      </trkpt>
      <trkpt lat="44.77164" lon="5.66179">
        <ele>866.1</ele>
        <time>2022-07-14T06:23:58Z</time>
      </trkpt>
      <trkpt lat="44.77166" lon="5.66175">
        <ele>866.1</ele>
        <time>2022-07-14T06:24:00Z</time>
      </trkpt>
      <trkpt lat="44.77168" lon="5.66173">
        <ele>866.1</ele>
        <time>2022-07-14T06:24:01Z</time>
      </trkpt>
      <trkpt lat="44.77171" lon="5.66171">
        <ele>866.1</ele>
        <time>2022-07-14T06:24:02Z</time>
      </trkpt>
      <trkpt lat="44.77174" lon="5.66169">
        <ele>866.1</ele>
        <time>2022-07-14T06:24:04Z</time>
      </trkpt>
      <trkpt lat="44.77175" lon="5.66169">
        <ele>866.1</ele>
        <time>2022-07-14T06:24:05Z</time>
      </trkpt>
      <trkpt lat="44.77176" lon="5.66171">
        <ele>866.1</ele>
        <time>2022-07-14T06:24:06Z</time>
      </trkpt>
      <trkpt lat="44.77176" lon="5.66169">
        <ele>866.1</ele>
        <time>2022-07-14T06:24:09Z</time>
      </trkpt>
      <trkpt lat="44.77176" lon="5.66168">
        <ele>866.1</ele>
        <time>2022-07-14T06:24:10Z</time>
      </trkpt>
      <trkpt lat="44.77176" lon="5.66167">
        <ele>866</ele>
        <time>2022-07-14T06:24:11Z</time>
      </trkpt>
      <trkpt lat="44.77177" lon="5.66167">
        <ele>866</ele>
        <time>2022-07-14T06:24:12Z</time>
      </trkpt>
      <trkpt lat="44.77177" lon="5.66166">
        <ele>866</ele>
        <time>2022-07-14T06:24:13Z</time>
      </trkpt>
      <trkpt lat="44.77178" lon="5.66165">
        <ele>866</ele>
        <time>2022-07-14T06:24:14Z</time>
      </trkpt>
      <trkpt lat="44.77178" lon="5.66164">
        <ele>866</ele>
        <time>2022-07-14T06:24:15Z</time>
      </trkpt>
      <trkpt lat="44.77178" lon="5.66163">
        <ele>866</ele>
        <time>2022-07-14T06:24:16Z</time>
      </trkpt>
      <trkpt lat="44.77179" lon="5.66163">
        <ele>866</ele>
        <time>2022-07-14T06:26:55Z</time>
      </trkpt>
      <trkpt lat="44.77179" lon="5.66162">
        <ele>866</ele>
        <time>2022-07-14T06:26:56Z</time>
      </trkpt>
      <trkpt lat="44.7718" lon="5.66161">
        <ele>866</ele>
        <time>2022-07-14T06:26:57Z</time>
      </trkpt>
      <trkpt lat="44.7718" lon="5.6616">
        <ele>866</ele>
        <time>2022-07-14T06:26:58Z</time>
      </trkpt>
      <trkpt lat="44.77184" lon="5.6616">
        <ele>866</ele>
        <time>2022-07-14T06:27:00Z</time>
      </trkpt>
      <trkpt lat="44.77186" lon="5.66158">
        <ele>866</ele>
        <time>2022-07-14T06:27:01Z</time>
      </trkpt>
      <trkpt lat="44.77189" lon="5.66154">
        <ele>866</ele>
        <time>2022-07-14T06:27:02Z</time>
      </trkpt>
      <trkpt lat="44.77194" lon="5.6615">
        <ele>866</ele>
        <time>2022-07-14T06:27:04Z</time>
      </trkpt>
      <trkpt lat="44.77196" lon="5.66148">
        <ele>866</ele>
        <time>2022-07-14T06:27:05Z</time>
      </trkpt>
      <trkpt lat="44.772" lon="5.66144">
        <ele>866</ele>
        <time>2022-07-14T06:27:07Z</time>
      </trkpt>
      <trkpt lat="44.77203" lon="5.6614">
        <ele>866</ele>
        <time>2022-07-14T06:27:08Z</time>
      </trkpt>
      <trkpt lat="44.77204" lon="5.66138">
        <ele>866</ele>
        <time>2022-07-14T06:27:09Z</time>
      </trkpt>
      <trkpt lat="44.77209" lon="5.66133">
        <ele>865.9</ele>
        <time>2022-07-14T06:27:11Z</time>
      </trkpt>
      <trkpt lat="44.77212" lon="5.6613">
        <ele>865.9</ele>
        <time>2022-07-14T06:27:12Z</time>
      </trkpt>
      <trkpt lat="44.77213" lon="5.66128">
        <ele>865.9</ele>
        <time>2022-07-14T06:27:13Z</time>
      </trkpt>
      <trkpt lat="44.77217" lon="5.66124">
        <ele>865.9</ele>
        <time>2022-07-14T06:27:15Z</time>
      </trkpt>
      <trkpt lat="44.77219" lon="5.66122">
        <ele>865.8</ele>
        <time>2022-07-14T06:27:16Z</time>
      </trkpt>
      <trkpt lat="44.77222" lon="5.6612">
        <ele>865.8</ele>
        <time>2022-07-14T06:27:17Z</time>
      </trkpt>
      <trkpt lat="44.77227" lon="5.66115">
        <ele>865.8</ele>
        <time>2022-07-14T06:27:19Z</time>
      </trkpt>
      <trkpt lat="44.77231" lon="5.66111">
        <ele>865.7</ele>
        <time>2022-07-14T06:27:21Z</time>
      </trkpt>
      <trkpt lat="44.77234" lon="5.66109">
        <ele>865.7</ele>
        <time>2022-07-14T06:27:22Z</time>
      </trkpt>
      <trkpt lat="44.77237" lon="5.66105">
        <ele>865.7</ele>
        <time>2022-07-14T06:27:23Z</time>
      </trkpt>
      <trkpt lat="44.77239" lon="5.66103">
        <ele>865.7</ele>
        <time>2022-07-14T06:27:24Z</time>
      </trkpt>
      <trkpt lat="44.77244" lon="5.66097">
        <ele>865.6</ele>
        <time>2022-07-14T06:27:26Z</time>
      </trkpt>
      <trkpt lat="44.77248" lon="5.66092">
        <ele>865.6</ele>
        <time>2022-07-14T06:27:27Z</time>
      </trkpt>
      <trkpt lat="44.7725" lon="5.6609">
        <ele>865.6</ele>
        <time>2022-07-14T06:27:28Z</time>
      </trkpt>
      <trkpt lat="44.77257" lon="5.66084">
        <ele>865.5</ele>
        <time>2022-07-14T06:27:30Z</time>
      </trkpt>
      <trkpt lat="44.77258" lon="5.66081">
        <ele>865.5</ele>
        <time>2022-07-14T06:27:31Z</time>
      </trkpt>
      <trkpt lat="44.77262" lon="5.66077">
        <ele>865.4</ele>
        <time>2022-07-14T06:27:32Z</time>
      </trkpt>
      <trkpt lat="44.77266" lon="5.66072">
        <ele>865.3</ele>
        <time>2022-07-14T06:27:33Z</time>
      </trkpt>
      <trkpt lat="44.77275" lon="5.66061">
        <ele>865.2</ele>
        <time>2022-07-14T06:27:36Z</time>
      </trkpt>
      <trkpt lat="44.77279" lon="5.66056">
        <ele>865.2</ele>
        <time>2022-07-14T06:27:37Z</time>
      </trkpt>
      <trkpt lat="44.77282" lon="5.6605">
        <ele>865.2</ele>
        <time>2022-07-14T06:27:38Z</time>
      </trkpt>
      <trkpt lat="44.77286" lon="5.66045">
        <ele>865.1</ele>
        <time>2022-07-14T06:27:39Z</time>
      </trkpt>
      <trkpt lat="44.77289" lon="5.6604">
        <ele>865.1</ele>
        <time>2022-07-14T06:27:40Z</time>
      </trkpt>
      <trkpt lat="44.77293" lon="5.66034">
        <ele>865.1</ele>
        <time>2022-07-14T06:27:41Z</time>
      </trkpt>
      <trkpt lat="44.77297" lon="5.66028">
        <ele>865</ele>
        <time>2022-07-14T06:27:42Z</time>
      </trkpt>
      <trkpt lat="44.773" lon="5.66022">
        <ele>865</ele>
        <time>2022-07-14T06:27:43Z</time>
      </trkpt>
      <trkpt lat="44.77304" lon="5.66015">
        <ele>865</ele>
        <time>2022-07-14T06:27:44Z</time>
      </trkpt>
      <trkpt lat="44.77308" lon="5.66009">
        <ele>864.9</ele>
        <time>2022-07-14T06:27:45Z</time>
      </trkpt>
      <trkpt lat="44.77313" lon="5.66002">
        <ele>864.8</ele>
        <time>2022-07-14T06:27:46Z</time>
      </trkpt>
      <trkpt lat="44.77317" lon="5.65996">
        <ele>864.8</ele>
        <time>2022-07-14T06:27:47Z</time>
      </trkpt>
      <trkpt lat="44.77322" lon="5.65989">
        <ele>864.7</ele>
        <time>2022-07-14T06:27:48Z</time>
      </trkpt>
      <trkpt lat="44.77327" lon="5.65982">
        <ele>864.6</ele>
        <time>2022-07-14T06:27:49Z</time>
      </trkpt>
      <trkpt lat="44.77332" lon="5.65976">
        <ele>864.5</ele>
        <time>2022-07-14T06:27:50Z</time>
      </trkpt>
      <trkpt lat="44.77338" lon="5.6597">
        <ele>864.4</ele>
        <time>2022-07-14T06:27:51Z</time>
      </trkpt>
      <trkpt lat="44.77344" lon="5.65965">
        <ele>864.3</ele>
        <time>2022-07-14T06:27:52Z</time>
      </trkpt>
      <trkpt lat="44.7735" lon="5.6596">
        <ele>864.2</ele>
        <time>2022-07-14T06:27:53Z</time>
      </trkpt>
      <trkpt lat="44.77357" lon="5.65956">
        <ele>864.1</ele>
        <time>2022-07-14T06:27:54Z</time>
      </trkpt>
      <trkpt lat="44.77363" lon="5.65954">
        <ele>864</ele>
        <time>2022-07-14T06:27:55Z</time>
      </trkpt>
      <trkpt lat="44.7737" lon="5.65952">
        <ele>863.9</ele>
        <time>2022-07-14T06:27:56Z</time>
      </trkpt>
      <trkpt lat="44.77377" lon="5.65951">
        <ele>863.8</ele>
        <time>2022-07-14T06:27:57Z</time>
      </trkpt>
      <trkpt lat="44.77385" lon="5.6595">
        <ele>863.6</ele>
        <time>2022-07-14T06:27:58Z</time>
      </trkpt>
      <trkpt lat="44.77392" lon="5.65951">
        <ele>863.6</ele>
        <time>2022-07-14T06:27:59Z</time>
      </trkpt>
      <trkpt lat="44.774" lon="5.65953">
        <ele>863.5</ele>
        <time>2022-07-14T06:28:00Z</time>
      </trkpt>
      <trkpt lat="44.77407" lon="5.65955">
        <ele>863.4</ele>
        <time>2022-07-14T06:28:01Z</time>
      </trkpt>
      <trkpt lat="44.77414" lon="5.65958">
        <ele>863.3</ele>
        <time>2022-07-14T06:28:02Z</time>
      </trkpt>
      <trkpt lat="44.77421" lon="5.65962">
        <ele>863.2</ele>
        <time>2022-07-14T06:28:03Z</time>
      </trkpt>
      <trkpt lat="44.77428" lon="5.65965">
        <ele>863.1</ele>
        <time>2022-07-14T06:28:04Z</time>
      </trkpt>
      <trkpt lat="44.77434" lon="5.65969">
        <ele>863.1</ele>
        <time>2022-07-14T06:28:05Z</time>
      </trkpt>
      <trkpt lat="44.7744" lon="5.65972">
        <ele>863</ele>
        <time>2022-07-14T06:28:06Z</time>
      </trkpt>
      <trkpt lat="44.77446" lon="5.65976">
        <ele>862.9</ele>
        <time>2022-07-14T06:28:07Z</time>
      </trkpt>
      <trkpt lat="44.77453" lon="5.6598">
        <ele>862.8</ele>
        <time>2022-07-14T06:28:08Z</time>
      </trkpt>
      <trkpt lat="44.7746" lon="5.65984">
        <ele>862.7</ele>
        <time>2022-07-14T06:28:09Z</time>
      </trkpt>
      <trkpt lat="44.77467" lon="5.65988">
        <ele>862.7</ele>
        <time>2022-07-14T06:28:10Z</time>
      </trkpt>
      <trkpt lat="44.77474" lon="5.65992">
        <ele>862.6</ele>
        <time>2022-07-14T06:28:11Z</time>
      </trkpt>
      <trkpt lat="44.77481" lon="5.65996">
        <ele>862.5</ele>
        <time>2022-07-14T06:28:12Z</time>
      </trkpt>
      <trkpt lat="44.77488" lon="5.65999">
        <ele>862.4</ele>
        <time>2022-07-14T06:28:13Z</time>
      </trkpt>
      <trkpt lat="44.77494" lon="5.66003">
        <ele>862.3</ele>
        <time>2022-07-14T06:28:14Z</time>
      </trkpt>
      <trkpt lat="44.77501" lon="5.66007">
        <ele>862.3</ele>
        <time>2022-07-14T06:28:15Z</time>
      </trkpt>
      <trkpt lat="44.77508" lon="5.66011">
        <ele>862.2</ele>
        <time>2022-07-14T06:28:16Z</time>
      </trkpt>
      <trkpt lat="44.77515" lon="5.66016">
        <ele>862.2</ele>
        <time>2022-07-14T06:28:17Z</time>
      </trkpt>
      <trkpt lat="44.77522" lon="5.6602">
        <ele>862.1</ele>
        <time>2022-07-14T06:28:18Z</time>
      </trkpt>
      <trkpt lat="44.77528" lon="5.66024">
        <ele>862.1</ele>
        <time>2022-07-14T06:28:19Z</time>
      </trkpt>
      <trkpt lat="44.77535" lon="5.66028">
        <ele>862</ele>
        <time>2022-07-14T06:28:20Z</time>
      </trkpt>
      <trkpt lat="44.77541" lon="5.66031">
        <ele>861.9</ele>
        <time>2022-07-14T06:28:21Z</time>
      </trkpt>
      <trkpt lat="44.77548" lon="5.66035">
        <ele>861.8</ele>
        <time>2022-07-14T06:28:22Z</time>
      </trkpt>
      <trkpt lat="44.77555" lon="5.66039">
        <ele>861.8</ele>
        <time>2022-07-14T06:28:23Z</time>
      </trkpt>
      <trkpt lat="44.77562" lon="5.66042">
        <ele>861.7</ele>
        <time>2022-07-14T06:28:24Z</time>
      </trkpt>
      <trkpt lat="44.77568" lon="5.66045">
        <ele>861.6</ele>
        <time>2022-07-14T06:28:25Z</time>
      </trkpt>
      <trkpt lat="44.77575" lon="5.66049">
        <ele>861.6</ele>
        <time>2022-07-14T06:28:26Z</time>
      </trkpt>
      <trkpt lat="44.77581" lon="5.66051">
        <ele>861.5</ele>
        <time>2022-07-14T06:28:27Z</time>
      </trkpt>
      <trkpt lat="44.77588" lon="5.66051">
        <ele>861.5</ele>
        <time>2022-07-14T06:28:28Z</time>
      </trkpt>
      <trkpt lat="44.77593" lon="5.66054">
        <ele>861.3</ele>
        <time>2022-07-14T06:28:29Z</time>
      </trkpt>
      <trkpt lat="44.77598" lon="5.66059">
        <ele>861.2</ele>
        <time>2022-07-14T06:28:30Z</time>
      </trkpt>
      <trkpt lat="44.776" lon="5.66068">
        <ele>861</ele>
        <time>2022-07-14T06:28:31Z</time>
      </trkpt>
      <trkpt lat="44.77601" lon="5.66077">
        <ele>860.8</ele>
        <time>2022-07-14T06:28:32Z</time>
      </trkpt>
      <trkpt lat="44.77603" lon="5.66085">
        <ele>860.6</ele>
        <time>2022-07-14T06:28:33Z</time>
      </trkpt>
      <trkpt lat="44.77605" lon="5.66093">
        <ele>860.3</ele>
        <time>2022-07-14T06:28:34Z</time>
      </trkpt>
      <trkpt lat="44.77607" lon="5.661">
        <ele>860</ele>
        <time>2022-07-14T06:28:35Z</time>
      </trkpt>
      <trkpt lat="44.7761" lon="5.66106">
        <ele>859.6</ele>
        <time>2022-07-14T06:28:36Z</time>
      </trkpt>
      <trkpt lat="44.77613" lon="5.66111">
        <ele>859.3</ele>
        <time>2022-07-14T06:28:37Z</time>
      </trkpt>
      <trkpt lat="44.77617" lon="5.66114">
        <ele>859</ele>
        <time>2022-07-14T06:28:38Z</time>
      </trkpt>
      <trkpt lat="44.77621" lon="5.66117">
        <ele>858.7</ele>
        <time>2022-07-14T06:28:39Z</time>
      </trkpt>
      <trkpt lat="44.77626" lon="5.66119">
        <ele>858.3</ele>
        <time>2022-07-14T06:28:40Z</time>
      </trkpt>
      <trkpt lat="44.77631" lon="5.6612">
        <ele>857.9</ele>
        <time>2022-07-14T06:28:41Z</time>
      </trkpt>
      <trkpt lat="44.77637" lon="5.66119">
        <ele>857.5</ele>
        <time>2022-07-14T06:28:42Z</time>
      </trkpt>
      <trkpt lat="44.77642" lon="5.6612">
        <ele>857.1</ele>
        <time>2022-07-14T06:28:43Z</time>
      </trkpt>
      <trkpt lat="44.77648" lon="5.66118">
        <ele>856.7</ele>
        <time>2022-07-14T06:28:44Z</time>
      </trkpt>
      <trkpt lat="44.77654" lon="5.66118">
        <ele>856.3</ele>
        <time>2022-07-14T06:28:45Z</time>
      </trkpt>
      <trkpt lat="44.77659" lon="5.66117">
        <ele>856</ele>
        <time>2022-07-14T06:28:46Z</time>
      </trkpt>
      <trkpt lat="44.77665" lon="5.66117">
        <ele>855.7</ele>
        <time>2022-07-14T06:28:47Z</time>
      </trkpt>
      <trkpt lat="44.77672" lon="5.66117">
        <ele>855.3</ele>
        <time>2022-07-14T06:28:48Z</time>
      </trkpt>
      <trkpt lat="44.77678" lon="5.66117">
        <ele>855</ele>
        <time>2022-07-14T06:28:49Z</time>
      </trkpt>
      <trkpt lat="44.77684" lon="5.66117">
        <ele>854.8</ele>
        <time>2022-07-14T06:28:50Z</time>
      </trkpt>
      <trkpt lat="44.77691" lon="5.66116">
        <ele>854.5</ele>
        <time>2022-07-14T06:28:51Z</time>
      </trkpt>
      <trkpt lat="44.77698" lon="5.66116">
        <ele>854.3</ele>
        <time>2022-07-14T06:28:52Z</time>
      </trkpt>
      <trkpt lat="44.77705" lon="5.66115">
        <ele>854</ele>
        <time>2022-07-14T06:28:53Z</time>
      </trkpt>
      <trkpt lat="44.77712" lon="5.66114">
        <ele>853.8</ele>
        <time>2022-07-14T06:28:54Z</time>
      </trkpt>
      <trkpt lat="44.77718" lon="5.66114">
        <ele>853.6</ele>
        <time>2022-07-14T06:28:55Z</time>
      </trkpt>
      <trkpt lat="44.77725" lon="5.66115">
        <ele>853.4</ele>
        <time>2022-07-14T06:28:56Z</time>
      </trkpt>
      <trkpt lat="44.77731" lon="5.66115">
        <ele>853.3</ele>
        <time>2022-07-14T06:28:57Z</time>
      </trkpt>
      <trkpt lat="44.77738" lon="5.66115">
        <ele>853.1</ele>
        <time>2022-07-14T06:28:58Z</time>
      </trkpt>
      <trkpt lat="44.77745" lon="5.66116">
        <ele>852.9</ele>
        <time>2022-07-14T06:28:59Z</time>
      </trkpt>
      <trkpt lat="44.77752" lon="5.66117">
        <ele>852.6</ele>
        <time>2022-07-14T06:29:00Z</time>
      </trkpt>
      <trkpt lat="44.77758" lon="5.66119">
        <ele>852.3</ele>
        <time>2022-07-14T06:29:01Z</time>
      </trkpt>
      <trkpt lat="44.77765" lon="5.66121">
        <ele>852</ele>
        <time>2022-07-14T06:29:02Z</time>
      </trkpt>
      <trkpt lat="44.77771" lon="5.66123">
        <ele>851.7</ele>
        <time>2022-07-14T06:29:03Z</time>
      </trkpt>
      <trkpt lat="44.77778" lon="5.66126">
        <ele>851.4</ele>
        <time>2022-07-14T06:29:04Z</time>
      </trkpt>
      <trkpt lat="44.77785" lon="5.66129">
        <ele>851</ele>
        <time>2022-07-14T06:29:05Z</time>
      </trkpt>
      <trkpt lat="44.77791" lon="5.66131">
        <ele>850.6</ele>
        <time>2022-07-14T06:29:06Z</time>
      </trkpt>
      <trkpt lat="44.77798" lon="5.66134">
        <ele>850.1</ele>
        <time>2022-07-14T06:29:07Z</time>
      </trkpt>
      <trkpt lat="44.77805" lon="5.66137">
        <ele>849.7</ele>
        <time>2022-07-14T06:29:08Z</time>
      </trkpt>
      <trkpt lat="44.77812" lon="5.6614">
        <ele>849.2</ele>
        <time>2022-07-14T06:29:09Z</time>
      </trkpt>
      <trkpt lat="44.77819" lon="5.66143">
        <ele>848.6</ele>
        <time>2022-07-14T06:29:10Z</time>
      </trkpt>
      <trkpt lat="44.77827" lon="5.66146">
        <ele>848</ele>
        <time>2022-07-14T06:29:11Z</time>
      </trkpt>
      <trkpt lat="44.77834" lon="5.66149">
        <ele>847.4</ele>
        <time>2022-07-14T06:29:12Z</time>
      </trkpt>
      <trkpt lat="44.77843" lon="5.66152">
        <ele>846.7</ele>
        <time>2022-07-14T06:29:13Z</time>
      </trkpt>
      <trkpt lat="44.77851" lon="5.66154">
        <ele>846</ele>
        <time>2022-07-14T06:29:14Z</time>
      </trkpt>
      <trkpt lat="44.7786" lon="5.66155">
        <ele>845.2</ele>
        <time>2022-07-14T06:29:15Z</time>
      </trkpt>
      <trkpt lat="44.77869" lon="5.66157">
        <ele>844.3</ele>
        <time>2022-07-14T06:29:16Z</time>
      </trkpt>
      <trkpt lat="44.77879" lon="5.66157">
        <ele>843.5</ele>
        <time>2022-07-14T06:29:17Z</time>
      </trkpt>
      <trkpt lat="44.77889" lon="5.66158">
        <ele>842.5</ele>
        <time>2022-07-14T06:29:18Z</time>
      </trkpt>
      <trkpt lat="44.779" lon="5.6616">
        <ele>841.6</ele>
        <time>2022-07-14T06:29:19Z</time>
      </trkpt>
      <trkpt lat="44.77909" lon="5.66161">
        <ele>840.7</ele>
        <time>2022-07-14T06:29:20Z</time>
      </trkpt>
      <trkpt lat="44.7792" lon="5.66163">
        <ele>839.8</ele>
        <time>2022-07-14T06:29:21Z</time>
      </trkpt>
      <trkpt lat="44.77932" lon="5.66165">
        <ele>838.7</ele>
        <time>2022-07-14T06:29:22Z</time>
      </trkpt>
      <trkpt lat="44.77943" lon="5.66166">
        <ele>837.7</ele>
        <time>2022-07-14T06:29:23Z</time>
      </trkpt>
      <trkpt lat="44.77954" lon="5.66168">
        <ele>836.7</ele>
        <time>2022-07-14T06:29:24Z</time>
      </trkpt>
      <trkpt lat="44.77965" lon="5.66169">
        <ele>835.8</ele>
        <time>2022-07-14T06:29:25Z</time>
      </trkpt>
      <trkpt lat="44.77977" lon="5.6617">
        <ele>835</ele>
        <time>2022-07-14T06:29:26Z</time>
      </trkpt>
      <trkpt lat="44.77988" lon="5.66172">
        <ele>834.2</ele>
        <time>2022-07-14T06:29:27Z</time>
      </trkpt>
      <trkpt lat="44.78" lon="5.66174">
        <ele>833.5</ele>
        <time>2022-07-14T06:29:28Z</time>
      </trkpt>
      <trkpt lat="44.78011" lon="5.66175">
        <ele>832.8</ele>
        <time>2022-07-14T06:29:29Z</time>
      </trkpt>
      <trkpt lat="44.78022" lon="5.66177">
        <ele>832.3</ele>
        <time>2022-07-14T06:29:30Z</time>
      </trkpt>
      <trkpt lat="44.78033" lon="5.66178">
        <ele>831.9</ele>
        <time>2022-07-14T06:29:31Z</time>
      </trkpt>
      <trkpt lat="44.78043" lon="5.6618">
        <ele>831.5</ele>
        <time>2022-07-14T06:29:32Z</time>
      </trkpt>
      <trkpt lat="44.78054" lon="5.66182">
        <ele>831.1</ele>
        <time>2022-07-14T06:29:33Z</time>
      </trkpt>
      <trkpt lat="44.78064" lon="5.66183">
        <ele>830.6</ele>
        <time>2022-07-14T06:29:34Z</time>
      </trkpt>
      <trkpt lat="44.78074" lon="5.66185">
        <ele>830.2</ele>
        <time>2022-07-14T06:29:35Z</time>
      </trkpt>
      <trkpt lat="44.78085" lon="5.66186">
        <ele>829.7</ele>
        <time>2022-07-14T06:29:36Z</time>
      </trkpt>
      <trkpt lat="44.78096" lon="5.66188">
        <ele>829</ele>
        <time>2022-07-14T06:29:37Z</time>
      </trkpt>
      <trkpt lat="44.78107" lon="5.6619">
        <ele>828.2</ele>
        <time>2022-07-14T06:29:38Z</time>
      </trkpt>
      <trkpt lat="44.78117" lon="5.66192">
        <ele>827.4</ele>
        <time>2022-07-14T06:29:39Z</time>
      </trkpt>
      <trkpt lat="44.78128" lon="5.66196">
        <ele>826.6</ele>
        <time>2022-07-14T06:29:40Z</time>
      </trkpt>
      <trkpt lat="44.78138" lon="5.66199">
        <ele>825.6</ele>
        <time>2022-07-14T06:29:41Z</time>
      </trkpt>
      <trkpt lat="44.78149" lon="5.66202">
        <ele>824.7</ele>
        <time>2022-07-14T06:29:42Z</time>
      </trkpt>
      <trkpt lat="44.7816" lon="5.66206">
        <ele>823.7</ele>
        <time>2022-07-14T06:29:43Z</time>
      </trkpt>
      <trkpt lat="44.78172" lon="5.6621">
        <ele>822.6</ele>
        <time>2022-07-14T06:29:44Z</time>
      </trkpt>
      <trkpt lat="44.78184" lon="5.66215">
        <ele>821.4</ele>
        <time>2022-07-14T06:29:45Z</time>
      </trkpt>
      <trkpt lat="44.78196" lon="5.66219">
        <ele>820.3</ele>
        <time>2022-07-14T06:29:46Z</time>
      </trkpt>
      <trkpt lat="44.78207" lon="5.66225">
        <ele>819.3</ele>
        <time>2022-07-14T06:29:47Z</time>
      </trkpt>
      <trkpt lat="44.78219" lon="5.6623">
        <ele>818.3</ele>
        <time>2022-07-14T06:29:48Z</time>
      </trkpt>
      <trkpt lat="44.78231" lon="5.66235">
        <ele>817.2</ele>
        <time>2022-07-14T06:29:49Z</time>
      </trkpt>
      <trkpt lat="44.78244" lon="5.66239">
        <ele>816.2</ele>
        <time>2022-07-14T06:29:50Z</time>
      </trkpt>
      <trkpt lat="44.78256" lon="5.66245">
        <ele>815.3</ele>
        <time>2022-07-14T06:29:51Z</time>
      </trkpt>
      <trkpt lat="44.78268" lon="5.6625">
        <ele>814.5</ele>
        <time>2022-07-14T06:29:52Z</time>
      </trkpt>
      <trkpt lat="44.7828" lon="5.66255">
        <ele>813.6</ele>
        <time>2022-07-14T06:29:53Z</time>
      </trkpt>
      <trkpt lat="44.78293" lon="5.66261">
        <ele>812.8</ele>
        <time>2022-07-14T06:29:54Z</time>
      </trkpt>
      <trkpt lat="44.78305" lon="5.66266">
        <ele>812.1</ele>
        <time>2022-07-14T06:29:55Z</time>
      </trkpt>
      <trkpt lat="44.78317" lon="5.66271">
        <ele>811.5</ele>
        <time>2022-07-14T06:29:56Z</time>
      </trkpt>
      <trkpt lat="44.78329" lon="5.66277">
        <ele>811</ele>
        <time>2022-07-14T06:29:57Z</time>
      </trkpt>
      <trkpt lat="44.78341" lon="5.66283">
        <ele>810.5</ele>
        <time>2022-07-14T06:29:58Z</time>
      </trkpt>
      <trkpt lat="44.78353" lon="5.66289">
        <ele>810.1</ele>
        <time>2022-07-14T06:29:59Z</time>
      </trkpt>
      <trkpt lat="44.78365" lon="5.66294">
        <ele>809.7</ele>
        <time>2022-07-14T06:30:00Z</time>
      </trkpt>
      <trkpt lat="44.78376" lon="5.663">
        <ele>809.2</ele>
        <time>2022-07-14T06:30:01Z</time>
      </trkpt>
      <trkpt lat="44.78387" lon="5.66304">
        <ele>808.7</ele>
        <time>2022-07-14T06:30:02Z</time>
      </trkpt>
      <trkpt lat="44.78399" lon="5.66308">
        <ele>808.2</ele>
        <time>2022-07-14T06:30:03Z</time>
      </trkpt>
      <trkpt lat="44.7841" lon="5.66312">
        <ele>807.7</ele>
        <time>2022-07-14T06:30:04Z</time>
      </trkpt>
      <trkpt lat="44.78421" lon="5.66315">
        <ele>807.2</ele>
        <time>2022-07-14T06:30:05Z</time>
      </trkpt>
      <trkpt lat="44.78431" lon="5.66318">
        <ele>806.7</ele>
        <time>2022-07-14T06:30:06Z</time>
      </trkpt>
      <trkpt lat="44.78442" lon="5.66321">
        <ele>806.2</ele>
        <time>2022-07-14T06:30:07Z</time>
      </trkpt>
      <trkpt lat="44.78453" lon="5.66325">
        <ele>805.7</ele>
        <time>2022-07-14T06:30:08Z</time>
      </trkpt>
      <trkpt lat="44.78464" lon="5.6633">
        <ele>805.3</ele>
        <time>2022-07-14T06:30:09Z</time>
      </trkpt>
      <trkpt lat="44.78474" lon="5.66335">
        <ele>804.8</ele>
        <time>2022-07-14T06:30:10Z</time>
      </trkpt>
      <trkpt lat="44.78484" lon="5.66341">
        <ele>804.3</ele>
        <time>2022-07-14T06:30:11Z</time>
      </trkpt>
      <trkpt lat="44.78494" lon="5.66348">
        <ele>803.7</ele>
        <time>2022-07-14T06:30:12Z</time>
      </trkpt>
      <trkpt lat="44.78503" lon="5.66354">
        <ele>803.1</ele>
        <time>2022-07-14T06:30:13Z</time>
      </trkpt>
      <trkpt lat="44.78513" lon="5.66359">
        <ele>802.4</ele>
        <time>2022-07-14T06:30:14Z</time>
      </trkpt>
      <trkpt lat="44.78523" lon="5.66365">
        <ele>801.5</ele>
        <time>2022-07-14T06:30:15Z</time>
      </trkpt>
      <trkpt lat="44.78533" lon="5.66371">
        <ele>800.6</ele>
        <time>2022-07-14T06:30:16Z</time>
      </trkpt>
      <trkpt lat="44.78543" lon="5.66377">
        <ele>799.6</ele>
        <time>2022-07-14T06:30:17Z</time>
      </trkpt>
      <trkpt lat="44.78553" lon="5.66383">
        <ele>798.5</ele>
        <time>2022-07-14T06:30:18Z</time>
      </trkpt>
      <trkpt lat="44.78565" lon="5.66386">
        <ele>797.4</ele>
        <time>2022-07-14T06:30:19Z</time>
      </trkpt>
      <trkpt lat="44.78577" lon="5.66384">
        <ele>796.3</ele>
        <time>2022-07-14T06:30:20Z</time>
      </trkpt>
      <trkpt lat="44.78588" lon="5.66379">
        <ele>795.3</ele>
        <time>2022-07-14T06:30:21Z</time>
      </trkpt>
      <trkpt lat="44.78597" lon="5.66373">
        <ele>794.3</ele>
        <time>2022-07-14T06:30:22Z</time>
      </trkpt>
      <trkpt lat="44.78606" lon="5.66366">
        <ele>793.4</ele>
        <time>2022-07-14T06:30:23Z</time>
      </trkpt>
      <trkpt lat="44.78614" lon="5.66361">
        <ele>792.6</ele>
        <time>2022-07-14T06:30:24Z</time>
      </trkpt>
      <trkpt lat="44.78621" lon="5.66356">
        <ele>791.9</ele>
        <time>2022-07-14T06:30:25Z</time>
      </trkpt>
      <trkpt lat="44.78629" lon="5.66352">
        <ele>791.2</ele>
        <time>2022-07-14T06:30:26Z</time>
      </trkpt>
      <trkpt lat="44.78638" lon="5.66348">
        <ele>790.6</ele>
        <time>2022-07-14T06:30:27Z</time>
      </trkpt>
      <trkpt lat="44.78646" lon="5.66344">
        <ele>789.9</ele>
        <time>2022-07-14T06:30:28Z</time>
      </trkpt>
      <trkpt lat="44.78655" lon="5.6634">
        <ele>789.4</ele>
        <time>2022-07-14T06:30:29Z</time>
      </trkpt>
      <trkpt lat="44.78663" lon="5.66334">
        <ele>788.8</ele>
        <time>2022-07-14T06:30:30Z</time>
      </trkpt>
      <trkpt lat="44.78672" lon="5.66329">
        <ele>788.3</ele>
        <time>2022-07-14T06:30:31Z</time>
      </trkpt>
      <trkpt lat="44.78681" lon="5.66325">
        <ele>787.8</ele>
        <time>2022-07-14T06:30:32Z</time>
      </trkpt>
      <trkpt lat="44.78691" lon="5.66323">
        <ele>787.2</ele>
        <time>2022-07-14T06:30:33Z</time>
      </trkpt>
      <trkpt lat="44.78701" lon="5.66323">
        <ele>786.6</ele>
        <time>2022-07-14T06:30:34Z</time>
      </trkpt>
      <trkpt lat="44.78711" lon="5.66324">
        <ele>786</ele>
        <time>2022-07-14T06:30:35Z</time>
      </trkpt>
      <trkpt lat="44.78721" lon="5.66327">
        <ele>785.5</ele>
        <time>2022-07-14T06:30:36Z</time>
      </trkpt>
      <trkpt lat="44.78731" lon="5.66329">
        <ele>785</ele>
        <time>2022-07-14T06:30:37Z</time>
      </trkpt>
      <trkpt lat="44.78741" lon="5.66332">
        <ele>784.6</ele>
        <time>2022-07-14T06:30:38Z</time>
      </trkpt>
      <trkpt lat="44.7875" lon="5.66335">
        <ele>784.2</ele>
        <time>2022-07-14T06:30:39Z</time>
      </trkpt>
      <trkpt lat="44.78759" lon="5.66338">
        <ele>783.8</ele>
        <time>2022-07-14T06:30:40Z</time>
      </trkpt>
      <trkpt lat="44.78769" lon="5.66341">
        <ele>783.4</ele>
        <time>2022-07-14T06:30:41Z</time>
      </trkpt>
      <trkpt lat="44.78778" lon="5.6634">
        <ele>782.9</ele>
        <time>2022-07-14T06:30:42Z</time>
      </trkpt>
      <trkpt lat="44.78787" lon="5.66337">
        <ele>782.2</ele>
        <time>2022-07-14T06:30:43Z</time>
      </trkpt>
      <trkpt lat="44.78795" lon="5.6633">
        <ele>781.5</ele>
        <time>2022-07-14T06:30:44Z</time>
      </trkpt>
      <trkpt lat="44.78802" lon="5.66321">
        <ele>780.8</ele>
        <time>2022-07-14T06:30:45Z</time>
      </trkpt>
      <trkpt lat="44.78807" lon="5.66312">
        <ele>780.2</ele>
        <time>2022-07-14T06:30:46Z</time>
      </trkpt>
      <trkpt lat="44.78812" lon="5.66304">
        <ele>779.6</ele>
        <time>2022-07-14T06:30:47Z</time>
      </trkpt>
      <trkpt lat="44.78816" lon="5.66294">
        <ele>779.1</ele>
        <time>2022-07-14T06:30:48Z</time>
      </trkpt>
      <trkpt lat="44.7882" lon="5.66285">
        <ele>778.5</ele>
        <time>2022-07-14T06:30:49Z</time>
      </trkpt>
      <trkpt lat="44.78824" lon="5.66274">
        <ele>777.9</ele>
        <time>2022-07-14T06:30:50Z</time>
      </trkpt>
      <trkpt lat="44.78827" lon="5.66263">
        <ele>777.2</ele>
        <time>2022-07-14T06:30:51Z</time>
      </trkpt>
      <trkpt lat="44.78829" lon="5.66253">
        <ele>776.6</ele>
        <time>2022-07-14T06:30:52Z</time>
      </trkpt>
      <trkpt lat="44.78831" lon="5.66241">
        <ele>776</ele>
        <time>2022-07-14T06:30:53Z</time>
      </trkpt>
      <trkpt lat="44.78832" lon="5.66229">
        <ele>775.4</ele>
        <time>2022-07-14T06:30:54Z</time>
      </trkpt>
      <trkpt lat="44.78834" lon="5.66216">
        <ele>774.7</ele>
        <time>2022-07-14T06:30:55Z</time>
      </trkpt>
      <trkpt lat="44.78834" lon="5.66204">
        <ele>774</ele>
        <time>2022-07-14T06:30:56Z</time>
      </trkpt>
      <trkpt lat="44.78835" lon="5.66191">
        <ele>773.2</ele>
        <time>2022-07-14T06:30:57Z</time>
      </trkpt>
      <trkpt lat="44.78835" lon="5.66177">
        <ele>772.4</ele>
        <time>2022-07-14T06:30:58Z</time>
      </trkpt>
      <trkpt lat="44.78832" lon="5.66163">
        <ele>771.5</ele>
        <time>2022-07-14T06:30:59Z</time>
      </trkpt>
      <trkpt lat="44.78827" lon="5.6615">
        <ele>770.5</ele>
        <time>2022-07-14T06:31:00Z</time>
      </trkpt>
      <trkpt lat="44.78819" lon="5.66138">
        <ele>769.5</ele>
        <time>2022-07-14T06:31:01Z</time>
      </trkpt>
      <trkpt lat="44.7881" lon="5.66129">
        <ele>768.4</ele>
        <time>2022-07-14T06:31:02Z</time>
      </trkpt>
      <trkpt lat="44.788" lon="5.66119">
        <ele>767.3</ele>
        <time>2022-07-14T06:31:03Z</time>
      </trkpt>
      <trkpt lat="44.7879" lon="5.66109">
        <ele>766.3</ele>
        <time>2022-07-14T06:31:04Z</time>
      </trkpt>
      <trkpt lat="44.7878" lon="5.66099">
        <ele>765.4</ele>
        <time>2022-07-14T06:31:05Z</time>
      </trkpt>
      <trkpt lat="44.78771" lon="5.66087">
        <ele>764.6</ele>
        <time>2022-07-14T06:31:06Z</time>
      </trkpt>
      <trkpt lat="44.78763" lon="5.66073">
        <ele>763.9</ele>
        <time>2022-07-14T06:31:07Z</time>
      </trkpt>
      <trkpt lat="44.78759" lon="5.66058">
        <ele>763.3</ele>
        <time>2022-07-14T06:31:08Z</time>
      </trkpt>
      <trkpt lat="44.7876" lon="5.6604">
        <ele>762.7</ele>
        <time>2022-07-14T06:31:09Z</time>
      </trkpt>
      <trkpt lat="44.78763" lon="5.66023">
        <ele>762.2</ele>
        <time>2022-07-14T06:31:10Z</time>
      </trkpt>
      <trkpt lat="44.78768" lon="5.66007">
        <ele>761.9</ele>
        <time>2022-07-14T06:31:11Z</time>
      </trkpt>
      <trkpt lat="44.78773" lon="5.65993">
        <ele>761.6</ele>
        <time>2022-07-14T06:31:12Z</time>
      </trkpt>
      <trkpt lat="44.78778" lon="5.65979">
        <ele>761.4</ele>
        <time>2022-07-14T06:31:13Z</time>
      </trkpt>
      <trkpt lat="44.78783" lon="5.65965">
        <ele>761.2</ele>
        <time>2022-07-14T06:31:14Z</time>
      </trkpt>
      <trkpt lat="44.7879" lon="5.65952">
        <ele>761</ele>
        <time>2022-07-14T06:31:15Z</time>
      </trkpt>
      <trkpt lat="44.78798" lon="5.65941">
        <ele>760.8</ele>
        <time>2022-07-14T06:31:16Z</time>
      </trkpt>
      <trkpt lat="44.78807" lon="5.65934">
        <ele>760.6</ele>
        <time>2022-07-14T06:31:17Z</time>
      </trkpt>
      <trkpt lat="44.78816" lon="5.65928">
        <ele>760.2</ele>
        <time>2022-07-14T06:31:18Z</time>
      </trkpt>
      <trkpt lat="44.78825" lon="5.65923">
        <ele>759.8</ele>
        <time>2022-07-14T06:31:19Z</time>
      </trkpt>
      <trkpt lat="44.78835" lon="5.65919">
        <ele>759.4</ele>
        <time>2022-07-14T06:31:20Z</time>
      </trkpt>
      <trkpt lat="44.78845" lon="5.65917">
        <ele>759</ele>
        <time>2022-07-14T06:31:21Z</time>
      </trkpt>
      <trkpt lat="44.78855" lon="5.65917">
        <ele>758.5</ele>
        <time>2022-07-14T06:31:22Z</time>
      </trkpt>
      <trkpt lat="44.78865" lon="5.65915">
        <ele>757.9</ele>
        <time>2022-07-14T06:31:23Z</time>
      </trkpt>
      <trkpt lat="44.78875" lon="5.65915">
        <ele>757.3</ele>
        <time>2022-07-14T06:31:24Z</time>
      </trkpt>
      <trkpt lat="44.78884" lon="5.65914">
        <ele>756.7</ele>
        <time>2022-07-14T06:31:25Z</time>
      </trkpt>
      <trkpt lat="44.78894" lon="5.65913">
        <ele>756</ele>
        <time>2022-07-14T06:31:26Z</time>
      </trkpt>
      <trkpt lat="44.78904" lon="5.65909">
        <ele>755.2</ele>
        <time>2022-07-14T06:31:27Z</time>
      </trkpt>
      <trkpt lat="44.78913" lon="5.65902">
        <ele>754.3</ele>
        <time>2022-07-14T06:31:28Z</time>
      </trkpt>
      <trkpt lat="44.78919" lon="5.65891">
        <ele>753.6</ele>
        <time>2022-07-14T06:31:29Z</time>
      </trkpt>
      <trkpt lat="44.78922" lon="5.65878">
        <ele>752.8</ele>
        <time>2022-07-14T06:31:30Z</time>
      </trkpt>
      <trkpt lat="44.78922" lon="5.65864">
        <ele>752</ele>
        <time>2022-07-14T06:31:31Z</time>
      </trkpt>
      <trkpt lat="44.7892" lon="5.65853">
        <ele>751.4</ele>
        <time>2022-07-14T06:31:32Z</time>
      </trkpt>
      <trkpt lat="44.78918" lon="5.65843">
        <ele>751</ele>
        <time>2022-07-14T06:31:33Z</time>
      </trkpt>
      <trkpt lat="44.78916" lon="5.65834">
        <ele>750.6</ele>
        <time>2022-07-14T06:31:34Z</time>
      </trkpt>
      <trkpt lat="44.78916" lon="5.65826">
        <ele>750.4</ele>
        <time>2022-07-14T06:31:35Z</time>
      </trkpt>
      <trkpt lat="44.78916" lon="5.6582">
        <ele>750.2</ele>
        <time>2022-07-14T06:31:36Z</time>
      </trkpt>
      <trkpt lat="44.78918" lon="5.65817">
        <ele>750.1</ele>
        <time>2022-07-14T06:31:37Z</time>
      </trkpt>
      <trkpt lat="44.78919" lon="5.65815">
        <ele>750.1</ele>
        <time>2022-07-14T06:31:38Z</time>
      </trkpt>
      <trkpt lat="44.78921" lon="5.65814">
        <ele>750</ele>
        <time>2022-07-14T06:31:39Z</time>
      </trkpt>
      <trkpt lat="44.78923" lon="5.65814">
        <ele>749.8</ele>
        <time>2022-07-14T06:31:40Z</time>
      </trkpt>
      <trkpt lat="44.78924" lon="5.65814">
        <ele>749.7</ele>
        <time>2022-07-14T06:31:41Z</time>
      </trkpt>
      <trkpt lat="44.78925" lon="5.65815">
        <ele>749.6</ele>
        <time>2022-07-14T06:31:42Z</time>
      </trkpt>
      <trkpt lat="44.78925" lon="5.65813">
        <ele>749.6</ele>
        <time>2022-07-14T06:31:43Z</time>
      </trkpt>
      <trkpt lat="44.78924" lon="5.65818">
        <ele>749.4</ele>
        <time>2022-07-14T06:31:46Z</time>
      </trkpt>
      <trkpt lat="44.78924" lon="5.65818">
        <ele>749.4</ele>
        <time>2022-07-14T06:31:47Z</time>
      </trkpt>
      <trkpt lat="44.78924" lon="5.65818">
        <ele>749.4</ele>
        <time>2022-07-14T06:31:48Z</time>
      </trkpt>
      <trkpt lat="44.78924" lon="5.65818">
        <ele>749.4</ele>
        <time>2022-07-14T06:31:49Z</time>
      </trkpt>
      <trkpt lat="44.78924" lon="5.65818">
        <ele>749.4</ele>
        <time>2022-07-14T06:31:50Z</time>
      </trkpt>
      <trkpt lat="44.78926" lon="5.65819">
        <ele>749.3</ele>
        <time>2022-07-14T06:31:52Z</time>
      </trkpt>
      <trkpt lat="44.7893" lon="5.65828">
        <ele>748.9</ele>
        <time>2022-07-14T06:31:54Z</time>
      </trkpt>
      <trkpt lat="44.78934" lon="5.65831">
        <ele>748.6</ele>
        <time>2022-07-14T06:31:55Z</time>
      </trkpt>
      <trkpt lat="44.78939" lon="5.65838">
        <ele>748.2</ele>
        <time>2022-07-14T06:31:57Z</time>
      </trkpt>
      <trkpt lat="44.78946" lon="5.65856">
        <ele>747.5</ele>
        <time>2022-07-14T06:32:00Z</time>
      </trkpt>
      <trkpt lat="44.78949" lon="5.65862">
        <ele>747.2</ele>
        <time>2022-07-14T06:32:01Z</time>
      </trkpt>
      <trkpt lat="44.78952" lon="5.65867">
        <ele>747</ele>
        <time>2022-07-14T06:32:02Z</time>
      </trkpt>
      <trkpt lat="44.78955" lon="5.65885">
        <ele>746.5</ele>
        <time>2022-07-14T06:32:05Z</time>
      </trkpt>
      <trkpt lat="44.78958" lon="5.65891">
        <ele>746.3</ele>
        <time>2022-07-14T06:32:06Z</time>
      </trkpt>
      <trkpt lat="44.78959" lon="5.65897">
        <ele>746.1</ele>
        <time>2022-07-14T06:32:07Z</time>
      </trkpt>
      <trkpt lat="44.78961" lon="5.65904">
        <ele>745.9</ele>
        <time>2022-07-14T06:32:08Z</time>
      </trkpt>
      <trkpt lat="44.78963" lon="5.6591">
        <ele>745.7</ele>
        <time>2022-07-14T06:32:09Z</time>
      </trkpt>
      <trkpt lat="44.78965" lon="5.65916">
        <ele>745.5</ele>
        <time>2022-07-14T06:32:10Z</time>
      </trkpt>
      <trkpt lat="44.78967" lon="5.65921">
        <ele>745.4</ele>
        <time>2022-07-14T06:32:11Z</time>
      </trkpt>
      <trkpt lat="44.78969" lon="5.65928">
        <ele>745.2</ele>
        <time>2022-07-14T06:32:12Z</time>
      </trkpt>
      <trkpt lat="44.78971" lon="5.65935">
        <ele>745</ele>
        <time>2022-07-14T06:32:13Z</time>
      </trkpt>
      <trkpt lat="44.78973" lon="5.65942">
        <ele>744.8</ele>
        <time>2022-07-14T06:32:14Z</time>
      </trkpt>
      <trkpt lat="44.78976" lon="5.65949">
        <ele>744.6</ele>
        <time>2022-07-14T06:32:15Z</time>
      </trkpt>
      <trkpt lat="44.78977" lon="5.65957">
        <ele>744.4</ele>
        <time>2022-07-14T06:32:16Z</time>
      </trkpt>
      <trkpt lat="44.78979" lon="5.65964">
        <ele>744.2</ele>
        <time>2022-07-14T06:32:17Z</time>
      </trkpt>
      <trkpt lat="44.7898" lon="5.65971">
        <ele>744</ele>
        <time>2022-07-14T06:32:18Z</time>
      </trkpt>
      <trkpt lat="44.78981" lon="5.65979">
        <ele>743.8</ele>
        <time>2022-07-14T06:32:19Z</time>
      </trkpt>
      <trkpt lat="44.78982" lon="5.65986">
        <ele>743.7</ele>
        <time>2022-07-14T06:32:20Z</time>
      </trkpt>
      <trkpt lat="44.78983" lon="5.65994">
        <ele>743.5</ele>
        <time>2022-07-14T06:32:21Z</time>
      </trkpt>
      <trkpt lat="44.78984" lon="5.66001">
        <ele>743.3</ele>
        <time>2022-07-14T06:32:22Z</time>
      </trkpt>
      <trkpt lat="44.78986" lon="5.66009">
        <ele>743.2</ele>
        <time>2022-07-14T06:32:23Z</time>
      </trkpt>
      <trkpt lat="44.78987" lon="5.66016">
        <ele>743.1</ele>
        <time>2022-07-14T06:32:24Z</time>
      </trkpt>
      <trkpt lat="44.78988" lon="5.66024">
        <ele>742.9</ele>
        <time>2022-07-14T06:32:25Z</time>
      </trkpt>
      <trkpt lat="44.78989" lon="5.66032">
        <ele>742.8</ele>
        <time>2022-07-14T06:32:26Z</time>
      </trkpt>
      <trkpt lat="44.78991" lon="5.66039">
        <ele>742.6</ele>
        <time>2022-07-14T06:32:27Z</time>
      </trkpt>
      <trkpt lat="44.78992" lon="5.66046">
        <ele>742.5</ele>
        <time>2022-07-14T06:32:28Z</time>
      </trkpt>
      <trkpt lat="44.78994" lon="5.66053">
        <ele>742.4</ele>
        <time>2022-07-14T06:32:29Z</time>
      </trkpt>
      <trkpt lat="44.78995" lon="5.66061">
        <ele>742.3</ele>
        <time>2022-07-14T06:32:30Z</time>
      </trkpt>
      <trkpt lat="44.78996" lon="5.66069">
        <ele>742.1</ele>
        <time>2022-07-14T06:32:31Z</time>
      </trkpt>
      <trkpt lat="44.78997" lon="5.66077">
        <ele>742</ele>
        <time>2022-07-14T06:32:32Z</time>
      </trkpt>
      <trkpt lat="44.78998" lon="5.66084">
        <ele>741.9</ele>
        <time>2022-07-14T06:32:33Z</time>
      </trkpt>
      <trkpt lat="44.78999" lon="5.66092">
        <ele>741.8</ele>
        <time>2022-07-14T06:32:34Z</time>
      </trkpt>
      <trkpt lat="44.79001" lon="5.661">
        <ele>741.7</ele>
        <time>2022-07-14T06:32:35Z</time>
      </trkpt>
      <trkpt lat="44.79002" lon="5.66108">
        <ele>741.6</ele>
        <time>2022-07-14T06:32:36Z</time>
      </trkpt>
      <trkpt lat="44.79004" lon="5.66116">
        <ele>741.4</ele>
        <time>2022-07-14T06:32:37Z</time>
      </trkpt>
      <trkpt lat="44.79006" lon="5.66123">
        <ele>741.3</ele>
        <time>2022-07-14T06:32:38Z</time>
      </trkpt>
      <trkpt lat="44.79007" lon="5.6613">
        <ele>741.2</ele>
        <time>2022-07-14T06:32:39Z</time>
      </trkpt>
      <trkpt lat="44.79008" lon="5.66137">
        <ele>741.1</ele>
        <time>2022-07-14T06:32:40Z</time>
      </trkpt>
      <trkpt lat="44.79009" lon="5.66144">
        <ele>740.9</ele>
        <time>2022-07-14T06:32:41Z</time>
      </trkpt>
      <trkpt lat="44.79011" lon="5.66152">
        <ele>740.8</ele>
        <time>2022-07-14T06:32:42Z</time>
      </trkpt>
      <trkpt lat="44.79013" lon="5.66159">
        <ele>740.7</ele>
        <time>2022-07-14T06:32:43Z</time>
      </trkpt>
      <trkpt lat="44.79013" lon="5.66167">
        <ele>740.6</ele>
        <time>2022-07-14T06:32:44Z</time>
      </trkpt>
      <trkpt lat="44.79014" lon="5.66175">
        <ele>740.5</ele>
        <time>2022-07-14T06:32:45Z</time>
      </trkpt>
      <trkpt lat="44.79015" lon="5.66183">
        <ele>740.4</ele>
        <time>2022-07-14T06:32:46Z</time>
      </trkpt>
      <trkpt lat="44.79016" lon="5.66191">
        <ele>740.3</ele>
        <time>2022-07-14T06:32:47Z</time>
      </trkpt>
      <trkpt lat="44.79018" lon="5.66197">
        <ele>740.2</ele>
        <time>2022-07-14T06:32:48Z</time>
      </trkpt>
      <trkpt lat="44.79019" lon="5.66204">
        <ele>740.1</ele>
        <time>2022-07-14T06:32:49Z</time>
      </trkpt>
      <trkpt lat="44.7902" lon="5.66211">
        <ele>740</ele>
        <time>2022-07-14T06:32:50Z</time>
      </trkpt>
      <trkpt lat="44.79022" lon="5.66218">
        <ele>739.9</ele>
        <time>2022-07-14T06:32:51Z</time>
      </trkpt>
      <trkpt lat="44.79023" lon="5.66225">
        <ele>739.8</ele>
        <time>2022-07-14T06:32:52Z</time>
      </trkpt>
      <trkpt lat="44.79026" lon="5.66232">
        <ele>739.7</ele>
        <time>2022-07-14T06:32:53Z</time>
      </trkpt>
      <trkpt lat="44.79028" lon="5.66239">
        <ele>739.6</ele>
        <time>2022-07-14T06:32:54Z</time>
      </trkpt>
      <trkpt lat="44.7903" lon="5.66247">
        <ele>739.5</ele>
        <time>2022-07-14T06:32:55Z</time>
      </trkpt>
      <trkpt lat="44.79033" lon="5.66254">
        <ele>739.4</ele>
        <time>2022-07-14T06:32:56Z</time>
      </trkpt>
      <trkpt lat="44.79036" lon="5.66261">
        <ele>739.3</ele>
        <time>2022-07-14T06:32:57Z</time>
      </trkpt>
      <trkpt lat="44.79039" lon="5.66268">
        <ele>739.2</ele>
        <time>2022-07-14T06:32:58Z</time>
      </trkpt>
      <trkpt lat="44.79042" lon="5.66274">
        <ele>739.2</ele>
        <time>2022-07-14T06:32:59Z</time>
      </trkpt>
      <trkpt lat="44.79045" lon="5.66279">
        <ele>739.1</ele>
        <time>2022-07-14T06:33:00Z</time>
      </trkpt>
      <trkpt lat="44.79048" lon="5.66285">
        <ele>739.1</ele>
        <time>2022-07-14T06:33:01Z</time>
      </trkpt>
      <trkpt lat="44.79051" lon="5.6629">
        <ele>739.1</ele>
        <time>2022-07-14T06:33:02Z</time>
      </trkpt>
      <trkpt lat="44.79054" lon="5.66295">
        <ele>739.1</ele>
        <time>2022-07-14T06:33:03Z</time>
      </trkpt>
      <trkpt lat="44.79058" lon="5.663">
        <ele>739.1</ele>
        <time>2022-07-14T06:33:04Z</time>
      </trkpt>
      <trkpt lat="44.79062" lon="5.66304">
        <ele>739.1</ele>
        <time>2022-07-14T06:33:05Z</time>
      </trkpt>
      <trkpt lat="44.79065" lon="5.66308">
        <ele>739.1</ele>
        <time>2022-07-14T06:33:06Z</time>
      </trkpt>
      <trkpt lat="44.79068" lon="5.66313">
        <ele>739.2</ele>
        <time>2022-07-14T06:33:07Z</time>
      </trkpt>
      <trkpt lat="44.7907" lon="5.66316">
        <ele>739.3</ele>
        <time>2022-07-14T06:33:08Z</time>
      </trkpt>
      <trkpt lat="44.79073" lon="5.66321">
        <ele>739.3</ele>
        <time>2022-07-14T06:33:09Z</time>
      </trkpt>
      <trkpt lat="44.79075" lon="5.66324">
        <ele>739.4</ele>
        <time>2022-07-14T06:33:10Z</time>
      </trkpt>
      <trkpt lat="44.79079" lon="5.66328">
        <ele>739.5</ele>
        <time>2022-07-14T06:33:11Z</time>
      </trkpt>
      <trkpt lat="44.79082" lon="5.66333">
        <ele>739.7</ele>
        <time>2022-07-14T06:33:12Z</time>
      </trkpt>
      <trkpt lat="44.79085" lon="5.66338">
        <ele>739.8</ele>
        <time>2022-07-14T06:33:13Z</time>
      </trkpt>
      <trkpt lat="44.79087" lon="5.66349">
        <ele>740.1</ele>
        <time>2022-07-14T06:33:14Z</time>
      </trkpt>
      <trkpt lat="44.79086" lon="5.66353">
        <ele>740.2</ele>
        <time>2022-07-14T06:33:15Z</time>
      </trkpt>
      <trkpt lat="44.7909" lon="5.66354">
        <ele>740.3</ele>
        <time>2022-07-14T06:33:16Z</time>
      </trkpt>
      <trkpt lat="44.79095" lon="5.66358">
        <ele>740.5</ele>
        <time>2022-07-14T06:33:17Z</time>
      </trkpt>
      <trkpt lat="44.79101" lon="5.66368">
        <ele>740.8</ele>
        <time>2022-07-14T06:33:19Z</time>
      </trkpt>
      <trkpt lat="44.79105" lon="5.6637">
        <ele>740.9</ele>
        <time>2022-07-14T06:33:20Z</time>
      </trkpt>
      <trkpt lat="44.79109" lon="5.66375">
        <ele>741</ele>
        <time>2022-07-14T06:33:21Z</time>
      </trkpt>
      <trkpt lat="44.79111" lon="5.66385">
        <ele>741.2</ele>
        <time>2022-07-14T06:33:23Z</time>
      </trkpt>
      <trkpt lat="44.79114" lon="5.66391">
        <ele>741.4</ele>
        <time>2022-07-14T06:33:24Z</time>
      </trkpt>
      <trkpt lat="44.79117" lon="5.66396">
        <ele>741.5</ele>
        <time>2022-07-14T06:33:25Z</time>
      </trkpt>
      <trkpt lat="44.7912" lon="5.66401">
        <ele>741.6</ele>
        <time>2022-07-14T06:33:26Z</time>
      </trkpt>
      <trkpt lat="44.79124" lon="5.66412">
        <ele>741.9</ele>
        <time>2022-07-14T06:33:28Z</time>
      </trkpt>
      <trkpt lat="44.79127" lon="5.66418">
        <ele>742</ele>
        <time>2022-07-14T06:33:29Z</time>
      </trkpt>
      <trkpt lat="44.7913" lon="5.66423">
        <ele>742.1</ele>
        <time>2022-07-14T06:33:30Z</time>
      </trkpt>
      <trkpt lat="44.79129" lon="5.66428">
        <ele>742.2</ele>
        <time>2022-07-14T06:33:31Z</time>
      </trkpt>
      <trkpt lat="44.7913" lon="5.66439">
        <ele>742.4</ele>
        <time>2022-07-14T06:33:32Z</time>
      </trkpt>
      <trkpt lat="44.79134" lon="5.66445">
        <ele>742.5</ele>
        <time>2022-07-14T06:33:33Z</time>
      </trkpt>
      <trkpt lat="44.79132" lon="5.66453">
        <ele>742.7</ele>
        <time>2022-07-14T06:33:35Z</time>
      </trkpt>
      <trkpt lat="44.79135" lon="5.66462">
        <ele>742.8</ele>
        <time>2022-07-14T06:33:36Z</time>
      </trkpt>
      <trkpt lat="44.79142" lon="5.6648">
        <ele>743</ele>
        <time>2022-07-14T06:33:39Z</time>
      </trkpt>
      <trkpt lat="44.79146" lon="5.66484">
        <ele>743.1</ele>
        <time>2022-07-14T06:33:40Z</time>
      </trkpt>
      <trkpt lat="44.79149" lon="5.6649">
        <ele>743.2</ele>
        <time>2022-07-14T06:33:42Z</time>
      </trkpt>
      <trkpt lat="44.79151" lon="5.66493">
        <ele>743.2</ele>
        <time>2022-07-14T06:33:43Z</time>
      </trkpt>
      <trkpt lat="44.79157" lon="5.66502">
        <ele>743.4</ele>
        <time>2022-07-14T06:33:45Z</time>
      </trkpt>
      <trkpt lat="44.7916" lon="5.66512">
        <ele>743.5</ele>
        <time>2022-07-14T06:33:47Z</time>
      </trkpt>
      <trkpt lat="44.79163" lon="5.66518">
        <ele>743.6</ele>
        <time>2022-07-14T06:33:48Z</time>
      </trkpt>
      <trkpt lat="44.79166" lon="5.66523">
        <ele>743.7</ele>
        <time>2022-07-14T06:33:49Z</time>
      </trkpt>
      <trkpt lat="44.79168" lon="5.66529">
        <ele>743.7</ele>
        <time>2022-07-14T06:33:50Z</time>
      </trkpt>
      <trkpt lat="44.79169" lon="5.66532">
        <ele>743.8</ele>
        <time>2022-07-14T06:33:51Z</time>
      </trkpt>
      <trkpt lat="44.79171" lon="5.66539">
        <ele>743.9</ele>
        <time>2022-07-14T06:33:52Z</time>
      </trkpt>
      <trkpt lat="44.79174" lon="5.66552">
        <ele>744</ele>
        <time>2022-07-14T06:33:54Z</time>
      </trkpt>
      <trkpt lat="44.79175" lon="5.66556">
        <ele>744</ele>
        <time>2022-07-14T06:33:55Z</time>
      </trkpt>
      <trkpt lat="44.79177" lon="5.66561">
        <ele>744</ele>
        <time>2022-07-14T06:33:56Z</time>
      </trkpt>
      <trkpt lat="44.79178" lon="5.66566">
        <ele>744.1</ele>
        <time>2022-07-14T06:33:57Z</time>
      </trkpt>
      <trkpt lat="44.79178" lon="5.66568">
        <ele>744.1</ele>
        <time>2022-07-14T06:33:58Z</time>
      </trkpt>
      <trkpt lat="44.79183" lon="5.66568">
        <ele>744.1</ele>
        <time>2022-07-14T06:34:00Z</time>
      </trkpt>
      <trkpt lat="44.79186" lon="5.66571">
        <ele>744.1</ele>
        <time>2022-07-14T06:34:02Z</time>
      </trkpt>
      <trkpt lat="44.79189" lon="5.66576">
        <ele>744.1</ele>
        <time>2022-07-14T06:34:04Z</time>
      </trkpt>
      <trkpt lat="44.79191" lon="5.66581">
        <ele>744.1</ele>
        <time>2022-07-14T06:34:05Z</time>
      </trkpt>
      <trkpt lat="44.79193" lon="5.66584">
        <ele>744.1</ele>
        <time>2022-07-14T06:34:06Z</time>
      </trkpt>
      <trkpt lat="44.79197" lon="5.66589">
        <ele>744.1</ele>
        <time>2022-07-14T06:34:08Z</time>
      </trkpt>
      <trkpt lat="44.79201" lon="5.66594">
        <ele>744.1</ele>
        <time>2022-07-14T06:34:09Z</time>
      </trkpt>
      <trkpt lat="44.79203" lon="5.66602">
        <ele>744.1</ele>
        <time>2022-07-14T06:34:11Z</time>
      </trkpt>
      <trkpt lat="44.79203" lon="5.66608">
        <ele>744</ele>
        <time>2022-07-14T06:34:13Z</time>
      </trkpt>
      <trkpt lat="44.79204" lon="5.66611">
        <ele>744</ele>
        <time>2022-07-14T06:34:15Z</time>
      </trkpt>
      <trkpt lat="44.79207" lon="5.66616">
        <ele>743.9</ele>
        <time>2022-07-14T06:34:17Z</time>
      </trkpt>
      <trkpt lat="44.79209" lon="5.6662">
        <ele>743.8</ele>
        <time>2022-07-14T06:34:18Z</time>
      </trkpt>
      <trkpt lat="44.7921" lon="5.66622">
        <ele>743.8</ele>
        <time>2022-07-14T06:34:19Z</time>
      </trkpt>
      <trkpt lat="44.79211" lon="5.66626">
        <ele>743.7</ele>
        <time>2022-07-14T06:34:20Z</time>
      </trkpt>
      <trkpt lat="44.79213" lon="5.66632">
        <ele>743.5</ele>
        <time>2022-07-14T06:34:22Z</time>
      </trkpt>
      <trkpt lat="44.79213" lon="5.66637">
        <ele>743.3</ele>
        <time>2022-07-14T06:34:23Z</time>
      </trkpt>
      <trkpt lat="44.79214" lon="5.66644">
        <ele>742.9</ele>
        <time>2022-07-14T06:34:25Z</time>
      </trkpt>
      <trkpt lat="44.79214" lon="5.66654">
        <ele>742.4</ele>
        <time>2022-07-14T06:34:27Z</time>
      </trkpt>
      <trkpt lat="44.79214" lon="5.66661">
        <ele>741.9</ele>
        <time>2022-07-14T06:34:28Z</time>
      </trkpt>
      <trkpt lat="44.79213" lon="5.66684">
        <ele>740.5</ele>
        <time>2022-07-14T06:34:31Z</time>
      </trkpt>
      <trkpt lat="44.79214" lon="5.66693">
        <ele>739.9</ele>
        <time>2022-07-14T06:34:32Z</time>
      </trkpt>
      <trkpt lat="44.79215" lon="5.66702">
        <ele>739.3</ele>
        <time>2022-07-14T06:34:33Z</time>
      </trkpt>
      <trkpt lat="44.79216" lon="5.6671">
        <ele>738.6</ele>
        <time>2022-07-14T06:34:34Z</time>
      </trkpt>
      <trkpt lat="44.79216" lon="5.66719">
        <ele>738</ele>
        <time>2022-07-14T06:34:35Z</time>
      </trkpt>
      <trkpt lat="44.79216" lon="5.66728">
        <ele>737.4</ele>
        <time>2022-07-14T06:34:36Z</time>
      </trkpt>
      <trkpt lat="44.79216" lon="5.66736">
        <ele>736.8</ele>
        <time>2022-07-14T06:34:37Z</time>
      </trkpt>
      <trkpt lat="44.79216" lon="5.66746">
        <ele>736.2</ele>
        <time>2022-07-14T06:34:38Z</time>
      </trkpt>
      <trkpt lat="44.79216" lon="5.66757">
        <ele>735.5</ele>
        <time>2022-07-14T06:34:39Z</time>
      </trkpt>
      <trkpt lat="44.79215" lon="5.66769">
        <ele>734.9</ele>
        <time>2022-07-14T06:34:40Z</time>
      </trkpt>
      <trkpt lat="44.79215" lon="5.66781">
        <ele>734.4</ele>
        <time>2022-07-14T06:34:41Z</time>
      </trkpt>
      <trkpt lat="44.79214" lon="5.66793">
        <ele>734</ele>
        <time>2022-07-14T06:34:42Z</time>
      </trkpt>
      <trkpt lat="44.79215" lon="5.66803">
        <ele>733.7</ele>
        <time>2022-07-14T06:34:43Z</time>
      </trkpt>
      <trkpt lat="44.79215" lon="5.66814">
        <ele>733.4</ele>
        <time>2022-07-14T06:34:44Z</time>
      </trkpt>
      <trkpt lat="44.79216" lon="5.66825">
        <ele>733.1</ele>
        <time>2022-07-14T06:34:45Z</time>
      </trkpt>
      <trkpt lat="44.79217" lon="5.66836">
        <ele>732.9</ele>
        <time>2022-07-14T06:34:46Z</time>
      </trkpt>
      <trkpt lat="44.7922" lon="5.66846">
        <ele>732.9</ele>
        <time>2022-07-14T06:34:47Z</time>
      </trkpt>
      <trkpt lat="44.79223" lon="5.66856">
        <ele>732.8</ele>
        <time>2022-07-14T06:34:48Z</time>
      </trkpt>
      <trkpt lat="44.79226" lon="5.66865">
        <ele>732.8</ele>
        <time>2022-07-14T06:34:49Z</time>
      </trkpt>
      <trkpt lat="44.79228" lon="5.66874">
        <ele>732.8</ele>
        <time>2022-07-14T06:34:50Z</time>
      </trkpt>
      <trkpt lat="44.7923" lon="5.66884">
        <ele>732.8</ele>
        <time>2022-07-14T06:34:51Z</time>
      </trkpt>
      <trkpt lat="44.79232" lon="5.66895">
        <ele>732.8</ele>
        <time>2022-07-14T06:34:52Z</time>
      </trkpt>
      <trkpt lat="44.79232" lon="5.66905">
        <ele>732.9</ele>
        <time>2022-07-14T06:34:53Z</time>
      </trkpt>
      <trkpt lat="44.79231" lon="5.66914">
        <ele>732.9</ele>
        <time>2022-07-14T06:34:54Z</time>
      </trkpt>
      <trkpt lat="44.79231" lon="5.66923">
        <ele>732.8</ele>
        <time>2022-07-14T06:34:55Z</time>
      </trkpt>
      <trkpt lat="44.79231" lon="5.66931">
        <ele>732.8</ele>
        <time>2022-07-14T06:34:56Z</time>
      </trkpt>
      <trkpt lat="44.79231" lon="5.66939">
        <ele>732.7</ele>
        <time>2022-07-14T06:34:57Z</time>
      </trkpt>
      <trkpt lat="44.79231" lon="5.66948">
        <ele>732.6</ele>
        <time>2022-07-14T06:34:58Z</time>
      </trkpt>
      <trkpt lat="44.79231" lon="5.66956">
        <ele>732.5</ele>
        <time>2022-07-14T06:34:59Z</time>
      </trkpt>
      <trkpt lat="44.79231" lon="5.66963">
        <ele>732.4</ele>
        <time>2022-07-14T06:35:00Z</time>
      </trkpt>
      <trkpt lat="44.7923" lon="5.66969">
        <ele>732.4</ele>
        <time>2022-07-14T06:35:01Z</time>
      </trkpt>
      <trkpt lat="44.7923" lon="5.66977">
        <ele>732.3</ele>
        <time>2022-07-14T06:35:02Z</time>
      </trkpt>
      <trkpt lat="44.7923" lon="5.66985">
        <ele>732.1</ele>
        <time>2022-07-14T06:35:03Z</time>
      </trkpt>
      <trkpt lat="44.7923" lon="5.66993">
        <ele>732</ele>
        <time>2022-07-14T06:35:04Z</time>
      </trkpt>
      <trkpt lat="44.79229" lon="5.67002">
        <ele>731.9</ele>
        <time>2022-07-14T06:35:05Z</time>
      </trkpt>
      <trkpt lat="44.79229" lon="5.6701">
        <ele>731.8</ele>
        <time>2022-07-14T06:35:06Z</time>
      </trkpt>
      <trkpt lat="44.79228" lon="5.67019">
        <ele>731.6</ele>
        <time>2022-07-14T06:35:07Z</time>
      </trkpt>
      <trkpt lat="44.79227" lon="5.67027">
        <ele>731.5</ele>
        <time>2022-07-14T06:35:08Z</time>
      </trkpt>
      <trkpt lat="44.79227" lon="5.67036">
        <ele>731.4</ele>
        <time>2022-07-14T06:35:09Z</time>
      </trkpt>
      <trkpt lat="44.79226" lon="5.67045">
        <ele>731.2</ele>
        <time>2022-07-14T06:35:10Z</time>
      </trkpt>
      <trkpt lat="44.79225" lon="5.67053">
        <ele>731.2</ele>
        <time>2022-07-14T06:35:11Z</time>
      </trkpt>
      <trkpt lat="44.79225" lon="5.67061">
        <ele>731.1</ele>
        <time>2022-07-14T06:35:12Z</time>
      </trkpt>
      <trkpt lat="44.79223" lon="5.67069">
        <ele>730.9</ele>
        <time>2022-07-14T06:35:13Z</time>
      </trkpt>
      <trkpt lat="44.79221" lon="5.67076">
        <ele>730.6</ele>
        <time>2022-07-14T06:35:14Z</time>
      </trkpt>
      <trkpt lat="44.79218" lon="5.67085">
        <ele>730.4</ele>
        <time>2022-07-14T06:35:15Z</time>
      </trkpt>
      <trkpt lat="44.79216" lon="5.67093">
        <ele>730.2</ele>
        <time>2022-07-14T06:35:16Z</time>
      </trkpt>
      <trkpt lat="44.79213" lon="5.67102">
        <ele>729.9</ele>
        <time>2022-07-14T06:35:17Z</time>
      </trkpt>
      <trkpt lat="44.79209" lon="5.6711">
        <ele>729.7</ele>
        <time>2022-07-14T06:35:18Z</time>
      </trkpt>
      <trkpt lat="44.79206" lon="5.67118">
        <ele>729.5</ele>
        <time>2022-07-14T06:35:19Z</time>
      </trkpt>
      <trkpt lat="44.79204" lon="5.67127">
        <ele>729.4</ele>
        <time>2022-07-14T06:35:20Z</time>
      </trkpt>
      <trkpt lat="44.79201" lon="5.67137">
        <ele>729.3</ele>
        <time>2022-07-14T06:35:21Z</time>
      </trkpt>
      <trkpt lat="44.79199" lon="5.67147">
        <ele>729.2</ele>
        <time>2022-07-14T06:35:22Z</time>
      </trkpt>
      <trkpt lat="44.79197" lon="5.67157">
        <ele>729.3</ele>
        <time>2022-07-14T06:35:23Z</time>
      </trkpt>
      <trkpt lat="44.79196" lon="5.67167">
        <ele>729.4</ele>
        <time>2022-07-14T06:35:24Z</time>
      </trkpt>
      <trkpt lat="44.79198" lon="5.67176">
        <ele>729.5</ele>
        <time>2022-07-14T06:35:25Z</time>
      </trkpt>
      <trkpt lat="44.792" lon="5.67184">
        <ele>729.7</ele>
        <time>2022-07-14T06:35:26Z</time>
      </trkpt>
      <trkpt lat="44.79202" lon="5.67193">
        <ele>729.9</ele>
        <time>2022-07-14T06:35:27Z</time>
      </trkpt>
      <trkpt lat="44.79203" lon="5.67202">
        <ele>730.1</ele>
        <time>2022-07-14T06:35:28Z</time>
      </trkpt>
      <trkpt lat="44.79204" lon="5.67209">
        <ele>730.2</ele>
        <time>2022-07-14T06:35:29Z</time>
      </trkpt>
      <trkpt lat="44.79206" lon="5.67216">
        <ele>730.4</ele>
        <time>2022-07-14T06:35:30Z</time>
      </trkpt>
      <trkpt lat="44.79209" lon="5.67223">
        <ele>730.6</ele>
        <time>2022-07-14T06:35:31Z</time>
      </trkpt>
      <trkpt lat="44.79211" lon="5.67228">
        <ele>730.6</ele>
        <time>2022-07-14T06:35:32Z</time>
      </trkpt>
      <trkpt lat="44.79213" lon="5.67235">
        <ele>730.8</ele>
        <time>2022-07-14T06:35:33Z</time>
      </trkpt>
      <trkpt lat="44.79214" lon="5.67242">
        <ele>730.8</ele>
        <time>2022-07-14T06:35:34Z</time>
      </trkpt>
      <trkpt lat="44.79216" lon="5.67248">
        <ele>730.9</ele>
        <time>2022-07-14T06:35:35Z</time>
      </trkpt>
      <trkpt lat="44.79218" lon="5.67255">
        <ele>730.9</ele>
        <time>2022-07-14T06:35:36Z</time>
      </trkpt>
      <trkpt lat="44.79219" lon="5.67262">
        <ele>731</ele>
        <time>2022-07-14T06:35:37Z</time>
      </trkpt>
      <trkpt lat="44.79219" lon="5.67271">
        <ele>731</ele>
        <time>2022-07-14T06:35:38Z</time>
      </trkpt>
      <trkpt lat="44.7922" lon="5.67279">
        <ele>731</ele>
        <time>2022-07-14T06:35:39Z</time>
      </trkpt>
      <trkpt lat="44.79219" lon="5.67287">
        <ele>731</ele>
        <time>2022-07-14T06:35:40Z</time>
      </trkpt>
      <trkpt lat="44.79219" lon="5.67295">
        <ele>731</ele>
        <time>2022-07-14T06:35:41Z</time>
      </trkpt>
      <trkpt lat="44.79219" lon="5.67303">
        <ele>731</ele>
        <time>2022-07-14T06:35:42Z</time>
      </trkpt>
      <trkpt lat="44.79218" lon="5.6731">
        <ele>731</ele>
        <time>2022-07-14T06:35:43Z</time>
      </trkpt>
      <trkpt lat="44.79217" lon="5.67318">
        <ele>731</ele>
        <time>2022-07-14T06:35:44Z</time>
      </trkpt>
      <trkpt lat="44.79216" lon="5.67325">
        <ele>731</ele>
        <time>2022-07-14T06:35:45Z</time>
      </trkpt>
      <trkpt lat="44.79214" lon="5.67332">
        <ele>731</ele>
        <time>2022-07-14T06:35:46Z</time>
      </trkpt>
      <trkpt lat="44.79212" lon="5.6734">
        <ele>731</ele>
        <time>2022-07-14T06:35:47Z</time>
      </trkpt>
      <trkpt lat="44.79209" lon="5.67346">
        <ele>731</ele>
        <time>2022-07-14T06:35:48Z</time>
      </trkpt>
      <trkpt lat="44.79206" lon="5.67353">
        <ele>731</ele>
        <time>2022-07-14T06:35:49Z</time>
      </trkpt>
      <trkpt lat="44.79203" lon="5.67359">
        <ele>731.1</ele>
        <time>2022-07-14T06:35:50Z</time>
      </trkpt>
      <trkpt lat="44.79199" lon="5.67366">
        <ele>731.1</ele>
        <time>2022-07-14T06:35:51Z</time>
      </trkpt>
      <trkpt lat="44.79196" lon="5.6737">
        <ele>731.1</ele>
        <time>2022-07-14T06:35:52Z</time>
      </trkpt>
      <trkpt lat="44.79192" lon="5.67375">
        <ele>731.1</ele>
        <time>2022-07-14T06:35:53Z</time>
      </trkpt>
      <trkpt lat="44.79189" lon="5.67381">
        <ele>731.1</ele>
        <time>2022-07-14T06:35:54Z</time>
      </trkpt>
      <trkpt lat="44.79185" lon="5.67387">
        <ele>731.1</ele>
        <time>2022-07-14T06:35:55Z</time>
      </trkpt>
      <trkpt lat="44.79181" lon="5.67393">
        <ele>731.1</ele>
        <time>2022-07-14T06:35:56Z</time>
      </trkpt>
      <trkpt lat="44.79178" lon="5.67399">
        <ele>731.1</ele>
        <time>2022-07-14T06:35:57Z</time>
      </trkpt>
      <trkpt lat="44.79174" lon="5.67404">
        <ele>731.1</ele>
        <time>2022-07-14T06:35:58Z</time>
      </trkpt>
      <trkpt lat="44.7917" lon="5.67409">
        <ele>731.1</ele>
        <time>2022-07-14T06:35:59Z</time>
      </trkpt>
      <trkpt lat="44.79166" lon="5.67415">
        <ele>731.1</ele>
        <time>2022-07-14T06:36:00Z</time>
      </trkpt>
      <trkpt lat="44.79162" lon="5.6742">
        <ele>731</ele>
        <time>2022-07-14T06:36:01Z</time>
      </trkpt>
      <trkpt lat="44.79158" lon="5.67427">
        <ele>731</ele>
        <time>2022-07-14T06:36:02Z</time>
      </trkpt>
      <trkpt lat="44.79154" lon="5.67433">
        <ele>731</ele>
        <time>2022-07-14T06:36:03Z</time>
      </trkpt>
      <trkpt lat="44.79151" lon="5.67438">
        <ele>731</ele>
        <time>2022-07-14T06:36:04Z</time>
      </trkpt>
      <trkpt lat="44.79147" lon="5.67445">
        <ele>731</ele>
        <time>2022-07-14T06:36:05Z</time>
      </trkpt>
      <trkpt lat="44.79143" lon="5.6745">
        <ele>731</ele>
        <time>2022-07-14T06:36:06Z</time>
      </trkpt>
      <trkpt lat="44.79139" lon="5.67456">
        <ele>731</ele>
        <time>2022-07-14T06:36:07Z</time>
      </trkpt>
      <trkpt lat="44.79134" lon="5.67462">
        <ele>731.1</ele>
        <time>2022-07-14T06:36:08Z</time>
      </trkpt>
      <trkpt lat="44.7913" lon="5.67469">
        <ele>731.1</ele>
        <time>2022-07-14T06:36:09Z</time>
      </trkpt>
      <trkpt lat="44.79127" lon="5.67474">
        <ele>731.1</ele>
        <time>2022-07-14T06:36:10Z</time>
      </trkpt>
      <trkpt lat="44.79123" lon="5.6748">
        <ele>731.1</ele>
        <time>2022-07-14T06:36:11Z</time>
      </trkpt>
      <trkpt lat="44.79119" lon="5.67486">
        <ele>731.1</ele>
        <time>2022-07-14T06:36:12Z</time>
      </trkpt>
      <trkpt lat="44.79115" lon="5.67492">
        <ele>731.1</ele>
        <time>2022-07-14T06:36:13Z</time>
      </trkpt>
      <trkpt lat="44.79111" lon="5.67498">
        <ele>731.1</ele>
        <time>2022-07-14T06:36:14Z</time>
      </trkpt>
      <trkpt lat="44.79107" lon="5.67504">
        <ele>731.1</ele>
        <time>2022-07-14T06:36:15Z</time>
      </trkpt>
      <trkpt lat="44.79103" lon="5.6751">
        <ele>731.1</ele>
        <time>2022-07-14T06:36:16Z</time>
      </trkpt>
      <trkpt lat="44.79099" lon="5.67516">
        <ele>731.1</ele>
        <time>2022-07-14T06:36:17Z</time>
      </trkpt>
      <trkpt lat="44.79095" lon="5.67522">
        <ele>731</ele>
        <time>2022-07-14T06:36:18Z</time>
      </trkpt>
      <trkpt lat="44.79091" lon="5.67528">
        <ele>731</ele>
        <time>2022-07-14T06:36:19Z</time>
      </trkpt>
      <trkpt lat="44.79086" lon="5.67534">
        <ele>731</ele>
        <time>2022-07-14T06:36:20Z</time>
      </trkpt>
      <trkpt lat="44.79083" lon="5.6754">
        <ele>731</ele>
        <time>2022-07-14T06:36:21Z</time>
      </trkpt>
      <trkpt lat="44.79079" lon="5.67546">
        <ele>731</ele>
        <time>2022-07-14T06:36:22Z</time>
      </trkpt>
      <trkpt lat="44.79074" lon="5.67552">
        <ele>730.9</ele>
        <time>2022-07-14T06:36:23Z</time>
      </trkpt>
      <trkpt lat="44.7907" lon="5.67558">
        <ele>730.9</ele>
        <time>2022-07-14T06:36:24Z</time>
      </trkpt>
      <trkpt lat="44.79066" lon="5.67564">
        <ele>730.9</ele>
        <time>2022-07-14T06:36:25Z</time>
      </trkpt>
      <trkpt lat="44.79062" lon="5.6757">
        <ele>730.9</ele>
        <time>2022-07-14T06:36:26Z</time>
      </trkpt>
      <trkpt lat="44.79058" lon="5.67576">
        <ele>730.9</ele>
        <time>2022-07-14T06:36:27Z</time>
      </trkpt>
      <trkpt lat="44.79055" lon="5.67582">
        <ele>730.9</ele>
        <time>2022-07-14T06:36:28Z</time>
      </trkpt>
      <trkpt lat="44.79051" lon="5.67588">
        <ele>730.9</ele>
        <time>2022-07-14T06:36:29Z</time>
      </trkpt>
      <trkpt lat="44.79047" lon="5.67594">
        <ele>731</ele>
        <time>2022-07-14T06:36:30Z</time>
      </trkpt>
      <trkpt lat="44.79043" lon="5.676">
        <ele>731</ele>
        <time>2022-07-14T06:36:31Z</time>
      </trkpt>
      <trkpt lat="44.79039" lon="5.67605">
        <ele>731.1</ele>
        <time>2022-07-14T06:36:32Z</time>
      </trkpt>
      <trkpt lat="44.79034" lon="5.6761">
        <ele>731.1</ele>
        <time>2022-07-14T06:36:33Z</time>
      </trkpt>
      <trkpt lat="44.7903" lon="5.67614">
        <ele>731.2</ele>
        <time>2022-07-14T06:36:34Z</time>
      </trkpt>
      <trkpt lat="44.79025" lon="5.67619">
        <ele>731.2</ele>
        <time>2022-07-14T06:36:35Z</time>
      </trkpt>
      <trkpt lat="44.7902" lon="5.67623">
        <ele>731.3</ele>
        <time>2022-07-14T06:36:36Z</time>
      </trkpt>
      <trkpt lat="44.79015" lon="5.67626">
        <ele>731.3</ele>
        <time>2022-07-14T06:36:37Z</time>
      </trkpt>
      <trkpt lat="44.7901" lon="5.6763">
        <ele>731.4</ele>
        <time>2022-07-14T06:36:38Z</time>
      </trkpt>
      <trkpt lat="44.79005" lon="5.67632">
        <ele>731.4</ele>
        <time>2022-07-14T06:36:39Z</time>
      </trkpt>
      <trkpt lat="44.79" lon="5.67635">
        <ele>731.5</ele>
        <time>2022-07-14T06:36:40Z</time>
      </trkpt>
      <trkpt lat="44.78994" lon="5.67637">
        <ele>731.5</ele>
        <time>2022-07-14T06:36:41Z</time>
      </trkpt>
      <trkpt lat="44.78988" lon="5.67639">
        <ele>731.6</ele>
        <time>2022-07-14T06:36:42Z</time>
      </trkpt>
      <trkpt lat="44.78983" lon="5.67641">
        <ele>731.6</ele>
        <time>2022-07-14T06:36:43Z</time>
      </trkpt>
      <trkpt lat="44.78978" lon="5.67642">
        <ele>731.7</ele>
        <time>2022-07-14T06:36:44Z</time>
      </trkpt>
      <trkpt lat="44.78972" lon="5.67643">
        <ele>731.7</ele>
        <time>2022-07-14T06:36:45Z</time>
      </trkpt>
      <trkpt lat="44.78967" lon="5.67643">
        <ele>731.8</ele>
        <time>2022-07-14T06:36:46Z</time>
      </trkpt>
      <trkpt lat="44.78961" lon="5.67644">
        <ele>731.8</ele>
        <time>2022-07-14T06:36:47Z</time>
      </trkpt>
      <trkpt lat="44.78955" lon="5.67644">
        <ele>731.9</ele>
        <time>2022-07-14T06:36:48Z</time>
      </trkpt>
      <trkpt lat="44.7895" lon="5.67644">
        <ele>731.9</ele>
        <time>2022-07-14T06:36:49Z</time>
      </trkpt>
      <trkpt lat="44.78945" lon="5.67643">
        <ele>732</ele>
        <time>2022-07-14T06:36:50Z</time>
      </trkpt>
      <trkpt lat="44.78939" lon="5.67642">
        <ele>732</ele>
        <time>2022-07-14T06:36:51Z</time>
      </trkpt>
      <trkpt lat="44.78934" lon="5.6764">
        <ele>732</ele>
        <time>2022-07-14T06:36:52Z</time>
      </trkpt>
      <trkpt lat="44.78928" lon="5.67639">
        <ele>732.1</ele>
        <time>2022-07-14T06:36:53Z</time>
      </trkpt>
      <trkpt lat="44.78922" lon="5.67638">
        <ele>732.1</ele>
        <time>2022-07-14T06:36:54Z</time>
      </trkpt>
      <trkpt lat="44.78916" lon="5.67637">
        <ele>732.1</ele>
        <time>2022-07-14T06:36:55Z</time>
      </trkpt>
      <trkpt lat="44.78911" lon="5.67636">
        <ele>732.1</ele>
        <time>2022-07-14T06:36:56Z</time>
      </trkpt>
      <trkpt lat="44.78905" lon="5.67634">
        <ele>732.1</ele>
        <time>2022-07-14T06:36:57Z</time>
      </trkpt>
      <trkpt lat="44.78899" lon="5.67633">
        <ele>732.1</ele>
        <time>2022-07-14T06:36:58Z</time>
      </trkpt>
      <trkpt lat="44.78893" lon="5.67631">
        <ele>732.1</ele>
        <time>2022-07-14T06:36:59Z</time>
      </trkpt>
      <trkpt lat="44.78888" lon="5.6763">
        <ele>732.1</ele>
        <time>2022-07-14T06:37:00Z</time>
      </trkpt>
      <trkpt lat="44.78882" lon="5.67628">
        <ele>732</ele>
        <time>2022-07-14T06:37:01Z</time>
      </trkpt>
      <trkpt lat="44.78877" lon="5.67626">
        <ele>732</ele>
        <time>2022-07-14T06:37:02Z</time>
      </trkpt>
      <trkpt lat="44.78872" lon="5.67624">
        <ele>731.9</ele>
        <time>2022-07-14T06:37:03Z</time>
      </trkpt>
      <trkpt lat="44.78867" lon="5.67621">
        <ele>731.8</ele>
        <time>2022-07-14T06:37:04Z</time>
      </trkpt>
      <trkpt lat="44.78862" lon="5.67617">
        <ele>731.8</ele>
        <time>2022-07-14T06:37:05Z</time>
      </trkpt>
      <trkpt lat="44.78857" lon="5.67613">
        <ele>731.7</ele>
        <time>2022-07-14T06:37:06Z</time>
      </trkpt>
      <trkpt lat="44.78852" lon="5.67608">
        <ele>731.5</ele>
        <time>2022-07-14T06:37:07Z</time>
      </trkpt>
      <trkpt lat="44.78848" lon="5.67604">
        <ele>731.4</ele>
        <time>2022-07-14T06:37:08Z</time>
      </trkpt>
      <trkpt lat="44.78844" lon="5.67598">
        <ele>731.3</ele>
        <time>2022-07-14T06:37:09Z</time>
      </trkpt>
      <trkpt lat="44.78841" lon="5.67591">
        <ele>731.2</ele>
        <time>2022-07-14T06:37:10Z</time>
      </trkpt>
      <trkpt lat="44.78839" lon="5.67583">
        <ele>731</ele>
        <time>2022-07-14T06:37:11Z</time>
      </trkpt>
      <trkpt lat="44.78837" lon="5.67574">
        <ele>730.9</ele>
        <time>2022-07-14T06:37:12Z</time>
      </trkpt>
      <trkpt lat="44.78836" lon="5.67567">
        <ele>730.7</ele>
        <time>2022-07-14T06:37:13Z</time>
      </trkpt>
      <trkpt lat="44.78836" lon="5.67561">
        <ele>730.6</ele>
        <time>2022-07-14T06:37:14Z</time>
      </trkpt>
      <trkpt lat="44.78834" lon="5.67554">
        <ele>730.5</ele>
        <time>2022-07-14T06:37:15Z</time>
      </trkpt>
      <trkpt lat="44.78833" lon="5.67546">
        <ele>730.3</ele>
        <time>2022-07-14T06:37:16Z</time>
      </trkpt>
      <trkpt lat="44.78831" lon="5.67538">
        <ele>730.2</ele>
        <time>2022-07-14T06:37:17Z</time>
      </trkpt>
      <trkpt lat="44.78828" lon="5.67529">
        <ele>730</ele>
        <time>2022-07-14T06:37:18Z</time>
      </trkpt>
      <trkpt lat="44.78825" lon="5.6752">
        <ele>729.9</ele>
        <time>2022-07-14T06:37:19Z</time>
      </trkpt>
      <trkpt lat="44.78822" lon="5.67514">
        <ele>729.8</ele>
        <time>2022-07-14T06:37:20Z</time>
      </trkpt>
      <trkpt lat="44.78819" lon="5.67507">
        <ele>729.8</ele>
        <time>2022-07-14T06:37:21Z</time>
      </trkpt>
      <trkpt lat="44.78814" lon="5.675">
        <ele>729.7</ele>
        <time>2022-07-14T06:37:22Z</time>
      </trkpt>
      <trkpt lat="44.78809" lon="5.67493">
        <ele>729.6</ele>
        <time>2022-07-14T06:37:23Z</time>
      </trkpt>
      <trkpt lat="44.78805" lon="5.67488">
        <ele>729.6</ele>
        <time>2022-07-14T06:37:24Z</time>
      </trkpt>
      <trkpt lat="44.78801" lon="5.67481">
        <ele>729.5</ele>
        <time>2022-07-14T06:37:25Z</time>
      </trkpt>
      <trkpt lat="44.78796" lon="5.67475">
        <ele>729.4</ele>
        <time>2022-07-14T06:37:26Z</time>
      </trkpt>
      <trkpt lat="44.78791" lon="5.67469">
        <ele>729.2</ele>
        <time>2022-07-14T06:37:27Z</time>
      </trkpt>
      <trkpt lat="44.78787" lon="5.67462">
        <ele>729.1</ele>
        <time>2022-07-14T06:37:28Z</time>
      </trkpt>
      <trkpt lat="44.78782" lon="5.67456">
        <ele>729</ele>
        <time>2022-07-14T06:37:29Z</time>
      </trkpt>
      <trkpt lat="44.78777" lon="5.6745">
        <ele>728.9</ele>
        <time>2022-07-14T06:37:30Z</time>
      </trkpt>
      <trkpt lat="44.78772" lon="5.67443">
        <ele>728.9</ele>
        <time>2022-07-14T06:37:31Z</time>
      </trkpt>
      <trkpt lat="44.78767" lon="5.67437">
        <ele>728.8</ele>
        <time>2022-07-14T06:37:32Z</time>
      </trkpt>
      <trkpt lat="44.78763" lon="5.67431">
        <ele>728.8</ele>
        <time>2022-07-14T06:37:33Z</time>
      </trkpt>
      <trkpt lat="44.78759" lon="5.67425">
        <ele>728.7</ele>
        <time>2022-07-14T06:37:34Z</time>
      </trkpt>
      <trkpt lat="44.78755" lon="5.6742">
        <ele>728.7</ele>
        <time>2022-07-14T06:37:35Z</time>
      </trkpt>
      <trkpt lat="44.7875" lon="5.67414">
        <ele>728.5</ele>
        <time>2022-07-14T06:37:36Z</time>
      </trkpt>
      <trkpt lat="44.78744" lon="5.67408">
        <ele>728.4</ele>
        <time>2022-07-14T06:37:37Z</time>
      </trkpt>
      <trkpt lat="44.78739" lon="5.67403">
        <ele>728.3</ele>
        <time>2022-07-14T06:37:38Z</time>
      </trkpt>
      <trkpt lat="44.78733" lon="5.67399">
        <ele>727.9</ele>
        <time>2022-07-14T06:37:39Z</time>
      </trkpt>
      <trkpt lat="44.78726" lon="5.67397">
        <ele>727.5</ele>
        <time>2022-07-14T06:37:40Z</time>
      </trkpt>
      <trkpt lat="44.78719" lon="5.67396">
        <ele>727</ele>
        <time>2022-07-14T06:37:41Z</time>
      </trkpt>
      <trkpt lat="44.78712" lon="5.67398">
        <ele>726.4</ele>
        <time>2022-07-14T06:37:42Z</time>
      </trkpt>
      <trkpt lat="44.78705" lon="5.67403">
        <ele>725.7</ele>
        <time>2022-07-14T06:37:43Z</time>
      </trkpt>
      <trkpt lat="44.78697" lon="5.6741">
        <ele>724.9</ele>
        <time>2022-07-14T06:37:44Z</time>
      </trkpt>
      <trkpt lat="44.78692" lon="5.6742">
        <ele>723.9</ele>
        <time>2022-07-14T06:37:45Z</time>
      </trkpt>
      <trkpt lat="44.78689" lon="5.67432">
        <ele>722.9</ele>
        <time>2022-07-14T06:37:46Z</time>
      </trkpt>
      <trkpt lat="44.78689" lon="5.67445">
        <ele>721.8</ele>
        <time>2022-07-14T06:37:47Z</time>
      </trkpt>
      <trkpt lat="44.78691" lon="5.6746">
        <ele>720.6</ele>
        <time>2022-07-14T06:37:48Z</time>
      </trkpt>
      <trkpt lat="44.78693" lon="5.67473">
        <ele>719.6</ele>
        <time>2022-07-14T06:37:49Z</time>
      </trkpt>
      <trkpt lat="44.78698" lon="5.67487">
        <ele>718.5</ele>
        <time>2022-07-14T06:37:50Z</time>
      </trkpt>
      <trkpt lat="44.78703" lon="5.67501">
        <ele>717.4</ele>
        <time>2022-07-14T06:37:51Z</time>
      </trkpt>
      <trkpt lat="44.78708" lon="5.67516">
        <ele>716.2</ele>
        <time>2022-07-14T06:37:52Z</time>
      </trkpt>
      <trkpt lat="44.78712" lon="5.67532">
        <ele>715.1</ele>
        <time>2022-07-14T06:37:53Z</time>
      </trkpt>
      <trkpt lat="44.78716" lon="5.67546">
        <ele>714.1</ele>
        <time>2022-07-14T06:37:54Z</time>
      </trkpt>
      <trkpt lat="44.78718" lon="5.67563">
        <ele>712.9</ele>
        <time>2022-07-14T06:37:55Z</time>
      </trkpt>
      <trkpt lat="44.78719" lon="5.67579">
        <ele>711.9</ele>
        <time>2022-07-14T06:37:56Z</time>
      </trkpt>
      <trkpt lat="44.78721" lon="5.67596">
        <ele>710.8</ele>
        <time>2022-07-14T06:37:57Z</time>
      </trkpt>
      <trkpt lat="44.78723" lon="5.67613">
        <ele>709.9</ele>
        <time>2022-07-14T06:37:58Z</time>
      </trkpt>
      <trkpt lat="44.78722" lon="5.6763">
        <ele>709.1</ele>
        <time>2022-07-14T06:37:59Z</time>
      </trkpt>
      <trkpt lat="44.78718" lon="5.67647">
        <ele>708.5</ele>
        <time>2022-07-14T06:38:00Z</time>
      </trkpt>
      <trkpt lat="44.78713" lon="5.67661">
        <ele>708.1</ele>
        <time>2022-07-14T06:38:01Z</time>
      </trkpt>
      <trkpt lat="44.78709" lon="5.67676">
        <ele>707.8</ele>
        <time>2022-07-14T06:38:02Z</time>
      </trkpt>
      <trkpt lat="44.78709" lon="5.67693">
        <ele>707.6</ele>
        <time>2022-07-14T06:38:03Z</time>
      </trkpt>
      <trkpt lat="44.78714" lon="5.67708">
        <ele>707.5</ele>
        <time>2022-07-14T06:38:04Z</time>
      </trkpt>
      <trkpt lat="44.78722" lon="5.6772">
        <ele>707.5</ele>
        <time>2022-07-14T06:38:05Z</time>
      </trkpt>
      <trkpt lat="44.78729" lon="5.67731">
        <ele>707.7</ele>
        <time>2022-07-14T06:38:06Z</time>
      </trkpt>
      <trkpt lat="44.78734" lon="5.67743">
        <ele>707.9</ele>
        <time>2022-07-14T06:38:07Z</time>
      </trkpt>
      <trkpt lat="44.78738" lon="5.67756">
        <ele>708.1</ele>
        <time>2022-07-14T06:38:08Z</time>
      </trkpt>
      <trkpt lat="44.7874" lon="5.67769">
        <ele>708.3</ele>
        <time>2022-07-14T06:38:09Z</time>
      </trkpt>
      <trkpt lat="44.78736" lon="5.6778">
        <ele>708.4</ele>
        <time>2022-07-14T06:38:10Z</time>
      </trkpt>
      <trkpt lat="44.7873" lon="5.67789">
        <ele>708.4</ele>
        <time>2022-07-14T06:38:11Z</time>
      </trkpt>
      <trkpt lat="44.78725" lon="5.67799">
        <ele>708.4</ele>
        <time>2022-07-14T06:38:12Z</time>
      </trkpt>
      <trkpt lat="44.78721" lon="5.67808">
        <ele>708.5</ele>
        <time>2022-07-14T06:38:13Z</time>
      </trkpt>
      <trkpt lat="44.78716" lon="5.67817">
        <ele>708.5</ele>
        <time>2022-07-14T06:38:14Z</time>
      </trkpt>
      <trkpt lat="44.78712" lon="5.67826">
        <ele>708.5</ele>
        <time>2022-07-14T06:38:15Z</time>
      </trkpt>
      <trkpt lat="44.78708" lon="5.67836">
        <ele>708.5</ele>
        <time>2022-07-14T06:38:16Z</time>
      </trkpt>
      <trkpt lat="44.78705" lon="5.67845">
        <ele>708.6</ele>
        <time>2022-07-14T06:38:17Z</time>
      </trkpt>
      <trkpt lat="44.78703" lon="5.67855">
        <ele>708.7</ele>
        <time>2022-07-14T06:38:18Z</time>
      </trkpt>
      <trkpt lat="44.78701" lon="5.67865">
        <ele>708.8</ele>
        <time>2022-07-14T06:38:19Z</time>
      </trkpt>
      <trkpt lat="44.78701" lon="5.67875">
        <ele>708.9</ele>
        <time>2022-07-14T06:38:20Z</time>
      </trkpt>
      <trkpt lat="44.78701" lon="5.67884">
        <ele>709</ele>
        <time>2022-07-14T06:38:21Z</time>
      </trkpt>
      <trkpt lat="44.787" lon="5.67893">
        <ele>709.2</ele>
        <time>2022-07-14T06:38:22Z</time>
      </trkpt>
      <trkpt lat="44.78699" lon="5.67901">
        <ele>709.4</ele>
        <time>2022-07-14T06:38:23Z</time>
      </trkpt>
      <trkpt lat="44.78697" lon="5.6791">
        <ele>709.5</ele>
        <time>2022-07-14T06:38:24Z</time>
      </trkpt>
      <trkpt lat="44.78695" lon="5.67918">
        <ele>709.6</ele>
        <time>2022-07-14T06:38:25Z</time>
      </trkpt>
      <trkpt lat="44.78693" lon="5.67926">
        <ele>709.8</ele>
        <time>2022-07-14T06:38:26Z</time>
      </trkpt>
      <trkpt lat="44.78689" lon="5.67934">
        <ele>709.9</ele>
        <time>2022-07-14T06:38:27Z</time>
      </trkpt>
      <trkpt lat="44.78685" lon="5.67941">
        <ele>710.1</ele>
        <time>2022-07-14T06:38:28Z</time>
      </trkpt>
      <trkpt lat="44.7868" lon="5.67947">
        <ele>710.1</ele>
        <time>2022-07-14T06:38:29Z</time>
      </trkpt>
      <trkpt lat="44.78676" lon="5.67953">
        <ele>710.2</ele>
        <time>2022-07-14T06:38:30Z</time>
      </trkpt>
      <trkpt lat="44.7867" lon="5.67958">
        <ele>710.3</ele>
        <time>2022-07-14T06:38:31Z</time>
      </trkpt>
      <trkpt lat="44.78665" lon="5.67963">
        <ele>710.4</ele>
        <time>2022-07-14T06:38:32Z</time>
      </trkpt>
      <trkpt lat="44.78659" lon="5.67968">
        <ele>710.4</ele>
        <time>2022-07-14T06:38:33Z</time>
      </trkpt>
      <trkpt lat="44.78654" lon="5.67972">
        <ele>710.5</ele>
        <time>2022-07-14T06:38:34Z</time>
      </trkpt>
      <trkpt lat="44.78649" lon="5.67976">
        <ele>710.5</ele>
        <time>2022-07-14T06:38:35Z</time>
      </trkpt>
      <trkpt lat="44.78643" lon="5.67979">
        <ele>710.6</ele>
        <time>2022-07-14T06:38:36Z</time>
      </trkpt>
      <trkpt lat="44.78638" lon="5.67982">
        <ele>710.7</ele>
        <time>2022-07-14T06:38:37Z</time>
      </trkpt>
      <trkpt lat="44.78633" lon="5.67986">
        <ele>710.8</ele>
        <time>2022-07-14T06:38:38Z</time>
      </trkpt>
      <trkpt lat="44.78628" lon="5.6799">
        <ele>710.9</ele>
        <time>2022-07-14T06:38:39Z</time>
      </trkpt>
      <trkpt lat="44.78623" lon="5.67994">
        <ele>710.9</ele>
        <time>2022-07-14T06:38:40Z</time>
      </trkpt>
      <trkpt lat="44.78618" lon="5.67996">
        <ele>711</ele>
        <time>2022-07-14T06:38:41Z</time>
      </trkpt>
      <trkpt lat="44.78613" lon="5.67999">
        <ele>711.1</ele>
        <time>2022-07-14T06:38:42Z</time>
      </trkpt>
      <trkpt lat="44.78608" lon="5.68003">
        <ele>711.2</ele>
        <time>2022-07-14T06:38:43Z</time>
      </trkpt>
      <trkpt lat="44.78603" lon="5.68006">
        <ele>711.3</ele>
        <time>2022-07-14T06:38:44Z</time>
      </trkpt>
      <trkpt lat="44.78598" lon="5.68009">
        <ele>711.4</ele>
        <time>2022-07-14T06:38:45Z</time>
      </trkpt>
      <trkpt lat="44.78593" lon="5.68012">
        <ele>711.5</ele>
        <time>2022-07-14T06:38:46Z</time>
      </trkpt>
      <trkpt lat="44.78588" lon="5.68015">
        <ele>711.6</ele>
        <time>2022-07-14T06:38:47Z</time>
      </trkpt>
      <trkpt lat="44.78583" lon="5.68018">
        <ele>711.7</ele>
        <time>2022-07-14T06:38:48Z</time>
      </trkpt>
      <trkpt lat="44.78578" lon="5.68021">
        <ele>711.8</ele>
        <time>2022-07-14T06:38:49Z</time>
      </trkpt>
      <trkpt lat="44.78574" lon="5.68024">
        <ele>711.9</ele>
        <time>2022-07-14T06:38:50Z</time>
      </trkpt>
      <trkpt lat="44.78569" lon="5.68026">
        <ele>712</ele>
        <time>2022-07-14T06:38:51Z</time>
      </trkpt>
      <trkpt lat="44.78565" lon="5.6803">
        <ele>712</ele>
        <time>2022-07-14T06:38:52Z</time>
      </trkpt>
      <trkpt lat="44.78561" lon="5.68033">
        <ele>712.1</ele>
        <time>2022-07-14T06:38:53Z</time>
      </trkpt>
      <trkpt lat="44.78557" lon="5.68036">
        <ele>712.1</ele>
        <time>2022-07-14T06:38:54Z</time>
      </trkpt>
      <trkpt lat="44.78552" lon="5.6804">
        <ele>712.1</ele>
        <time>2022-07-14T06:38:55Z</time>
      </trkpt>
      <trkpt lat="44.78547" lon="5.68042">
        <ele>712</ele>
        <time>2022-07-14T06:38:56Z</time>
      </trkpt>
      <trkpt lat="44.78542" lon="5.68044">
        <ele>711.8</ele>
        <time>2022-07-14T06:38:57Z</time>
      </trkpt>
      <trkpt lat="44.78536" lon="5.68045">
        <ele>711.5</ele>
        <time>2022-07-14T06:38:58Z</time>
      </trkpt>
      <trkpt lat="44.7853" lon="5.68044">
        <ele>711.1</ele>
        <time>2022-07-14T06:38:59Z</time>
      </trkpt>
      <trkpt lat="44.78524" lon="5.68041">
        <ele>710.7</ele>
        <time>2022-07-14T06:39:00Z</time>
      </trkpt>
      <trkpt lat="44.78518" lon="5.68036">
        <ele>710.4</ele>
        <time>2022-07-14T06:39:01Z</time>
      </trkpt>
      <trkpt lat="44.78513" lon="5.68031">
        <ele>710</ele>
        <time>2022-07-14T06:39:02Z</time>
      </trkpt>
      <trkpt lat="44.78508" lon="5.68025">
        <ele>709.6</ele>
        <time>2022-07-14T06:39:03Z</time>
      </trkpt>
      <trkpt lat="44.78502" lon="5.68021">
        <ele>709.3</ele>
        <time>2022-07-14T06:39:04Z</time>
      </trkpt>
      <trkpt lat="44.78496" lon="5.68019">
        <ele>708.9</ele>
        <time>2022-07-14T06:39:05Z</time>
      </trkpt>
      <trkpt lat="44.78488" lon="5.68019">
        <ele>708.5</ele>
        <time>2022-07-14T06:39:06Z</time>
      </trkpt>
      <trkpt lat="44.78481" lon="5.68021">
        <ele>708.2</ele>
        <time>2022-07-14T06:39:07Z</time>
      </trkpt>
      <trkpt lat="44.78473" lon="5.68024">
        <ele>707.9</ele>
        <time>2022-07-14T06:39:08Z</time>
      </trkpt>
      <trkpt lat="44.78465" lon="5.68026">
        <ele>707.6</ele>
        <time>2022-07-14T06:39:09Z</time>
      </trkpt>
      <trkpt lat="44.78457" lon="5.68028">
        <ele>707.1</ele>
        <time>2022-07-14T06:39:10Z</time>
      </trkpt>
      <trkpt lat="44.78449" lon="5.68031">
        <ele>706.5</ele>
        <time>2022-07-14T06:39:11Z</time>
      </trkpt>
      <trkpt lat="44.78441" lon="5.68033">
        <ele>706</ele>
        <time>2022-07-14T06:39:12Z</time>
      </trkpt>
      <trkpt lat="44.78434" lon="5.68036">
        <ele>705.5</ele>
        <time>2022-07-14T06:39:13Z</time>
      </trkpt>
      <trkpt lat="44.78427" lon="5.6804">
        <ele>705</ele>
        <time>2022-07-14T06:39:14Z</time>
      </trkpt>
      <trkpt lat="44.78419" lon="5.68043">
        <ele>704.5</ele>
        <time>2022-07-14T06:39:15Z</time>
      </trkpt>
      <trkpt lat="44.78412" lon="5.68048">
        <ele>704</ele>
        <time>2022-07-14T06:39:16Z</time>
      </trkpt>
      <trkpt lat="44.78406" lon="5.68056">
        <ele>703.4</ele>
        <time>2022-07-14T06:39:17Z</time>
      </trkpt>
      <trkpt lat="44.78402" lon="5.68065">
        <ele>702.8</ele>
        <time>2022-07-14T06:39:18Z</time>
      </trkpt>
      <trkpt lat="44.78401" lon="5.68076">
        <ele>702.1</ele>
        <time>2022-07-14T06:39:19Z</time>
      </trkpt>
      <trkpt lat="44.78402" lon="5.68086">
        <ele>701.4</ele>
        <time>2022-07-14T06:39:20Z</time>
      </trkpt>
      <trkpt lat="44.78406" lon="5.68094">
        <ele>700.7</ele>
        <time>2022-07-14T06:39:21Z</time>
      </trkpt>
      <trkpt lat="44.78413" lon="5.68101">
        <ele>699.8</ele>
        <time>2022-07-14T06:39:22Z</time>
      </trkpt>
      <trkpt lat="44.78421" lon="5.68105">
        <ele>699</ele>
        <time>2022-07-14T06:39:23Z</time>
      </trkpt>
      <trkpt lat="44.7843" lon="5.68108">
        <ele>698.3</ele>
        <time>2022-07-14T06:39:24Z</time>
      </trkpt>
      <trkpt lat="44.78438" lon="5.6811">
        <ele>697.7</ele>
        <time>2022-07-14T06:39:25Z</time>
      </trkpt>
      <trkpt lat="44.78446" lon="5.6811">
        <ele>697.1</ele>
        <time>2022-07-14T06:39:26Z</time>
      </trkpt>
      <trkpt lat="44.78454" lon="5.6811">
        <ele>696.6</ele>
        <time>2022-07-14T06:39:27Z</time>
      </trkpt>
      <trkpt lat="44.78462" lon="5.68108">
        <ele>696.2</ele>
        <time>2022-07-14T06:39:28Z</time>
      </trkpt>
      <trkpt lat="44.78468" lon="5.68102">
        <ele>695.8</ele>
        <time>2022-07-14T06:39:29Z</time>
      </trkpt>
      <trkpt lat="44.78473" lon="5.68095">
        <ele>695.5</ele>
        <time>2022-07-14T06:39:30Z</time>
      </trkpt>
      <trkpt lat="44.78478" lon="5.68089">
        <ele>695.1</ele>
        <time>2022-07-14T06:39:31Z</time>
      </trkpt>
      <trkpt lat="44.78485" lon="5.68085">
        <ele>694.9</ele>
        <time>2022-07-14T06:39:32Z</time>
      </trkpt>
      <trkpt lat="44.78492" lon="5.68084">
        <ele>694.7</ele>
        <time>2022-07-14T06:39:33Z</time>
      </trkpt>
      <trkpt lat="44.78499" lon="5.68089">
        <ele>694.4</ele>
        <time>2022-07-14T06:39:34Z</time>
      </trkpt>
      <trkpt lat="44.78502" lon="5.68096">
        <ele>694.2</ele>
        <time>2022-07-14T06:39:35Z</time>
      </trkpt>
      <trkpt lat="44.78503" lon="5.68104">
        <ele>693.9</ele>
        <time>2022-07-14T06:39:36Z</time>
      </trkpt>
      <trkpt lat="44.785" lon="5.68112">
        <ele>693.3</ele>
        <time>2022-07-14T06:39:37Z</time>
      </trkpt>
      <trkpt lat="44.78495" lon="5.68118">
        <ele>692.7</ele>
        <time>2022-07-14T06:39:38Z</time>
      </trkpt>
      <trkpt lat="44.78489" lon="5.68123">
        <ele>692.2</ele>
        <time>2022-07-14T06:39:39Z</time>
      </trkpt>
      <trkpt lat="44.78483" lon="5.68127">
        <ele>691.6</ele>
        <time>2022-07-14T06:39:40Z</time>
      </trkpt>
      <trkpt lat="44.78477" lon="5.68131">
        <ele>691.2</ele>
        <time>2022-07-14T06:39:41Z</time>
      </trkpt>
      <trkpt lat="44.78472" lon="5.68135">
        <ele>690.7</ele>
        <time>2022-07-14T06:39:42Z</time>
      </trkpt>
      <trkpt lat="44.78466" lon="5.6814">
        <ele>690.4</ele>
        <time>2022-07-14T06:39:43Z</time>
      </trkpt>
      <trkpt lat="44.78461" lon="5.68143">
        <ele>690.1</ele>
        <time>2022-07-14T06:39:44Z</time>
      </trkpt>
      <trkpt lat="44.78455" lon="5.68147">
        <ele>689.8</ele>
        <time>2022-07-14T06:39:45Z</time>
      </trkpt>
      <trkpt lat="44.78449" lon="5.68151">
        <ele>689.6</ele>
        <time>2022-07-14T06:39:46Z</time>
      </trkpt>
      <trkpt lat="44.78443" lon="5.68152">
        <ele>689.3</ele>
        <time>2022-07-14T06:39:47Z</time>
      </trkpt>
      <trkpt lat="44.78438" lon="5.68156">
        <ele>689.1</ele>
        <time>2022-07-14T06:39:48Z</time>
      </trkpt>
      <trkpt lat="44.78433" lon="5.68162">
        <ele>688.8</ele>
        <time>2022-07-14T06:39:49Z</time>
      </trkpt>
      <trkpt lat="44.7843" lon="5.68172">
        <ele>688.3</ele>
        <time>2022-07-14T06:39:50Z</time>
      </trkpt>
      <trkpt lat="44.78432" lon="5.68181">
        <ele>687.8</ele>
        <time>2022-07-14T06:39:51Z</time>
      </trkpt>
      <trkpt lat="44.78438" lon="5.68188">
        <ele>687.2</ele>
        <time>2022-07-14T06:39:52Z</time>
      </trkpt>
      <trkpt lat="44.78445" lon="5.68191">
        <ele>686.6</ele>
        <time>2022-07-14T06:39:53Z</time>
      </trkpt>
      <trkpt lat="44.78451" lon="5.68189">
        <ele>686.1</ele>
        <time>2022-07-14T06:39:54Z</time>
      </trkpt>
      <trkpt lat="44.78457" lon="5.68188">
        <ele>685.7</ele>
        <time>2022-07-14T06:39:55Z</time>
      </trkpt>
      <trkpt lat="44.78463" lon="5.68185">
        <ele>685.3</ele>
        <time>2022-07-14T06:39:56Z</time>
      </trkpt>
      <trkpt lat="44.78468" lon="5.68181">
        <ele>685</ele>
        <time>2022-07-14T06:39:57Z</time>
      </trkpt>
      <trkpt lat="44.78474" lon="5.68178">
        <ele>684.8</ele>
        <time>2022-07-14T06:39:58Z</time>
      </trkpt>
      <trkpt lat="44.7848" lon="5.68175">
        <ele>684.5</ele>
        <time>2022-07-14T06:39:59Z</time>
      </trkpt>
      <trkpt lat="44.78485" lon="5.68172">
        <ele>684.3</ele>
        <time>2022-07-14T06:40:00Z</time>
      </trkpt>
      <trkpt lat="44.7849" lon="5.6817">
        <ele>684.1</ele>
        <time>2022-07-14T06:40:01Z</time>
      </trkpt>
      <trkpt lat="44.78496" lon="5.68168">
        <ele>684</ele>
        <time>2022-07-14T06:40:02Z</time>
      </trkpt>
      <trkpt lat="44.78501" lon="5.68167">
        <ele>684</ele>
        <time>2022-07-14T06:40:03Z</time>
      </trkpt>
      <trkpt lat="44.78506" lon="5.68168">
        <ele>684</ele>
        <time>2022-07-14T06:40:04Z</time>
      </trkpt>
      <trkpt lat="44.78511" lon="5.68169">
        <ele>684</ele>
        <time>2022-07-14T06:40:05Z</time>
      </trkpt>
      <trkpt lat="44.78516" lon="5.68171">
        <ele>683.9</ele>
        <time>2022-07-14T06:40:06Z</time>
      </trkpt>
      <trkpt lat="44.78521" lon="5.68172">
        <ele>683.8</ele>
        <time>2022-07-14T06:40:07Z</time>
      </trkpt>
      <trkpt lat="44.78525" lon="5.68173">
        <ele>683.8</ele>
        <time>2022-07-14T06:40:08Z</time>
      </trkpt>
      <trkpt lat="44.7853" lon="5.68174">
        <ele>683.8</ele>
        <time>2022-07-14T06:40:09Z</time>
      </trkpt>
      <trkpt lat="44.78532" lon="5.68175">
        <ele>683.8</ele>
        <time>2022-07-14T06:40:10Z</time>
      </trkpt>
      <trkpt lat="44.78536" lon="5.68176">
        <ele>683.8</ele>
        <time>2022-07-14T06:40:11Z</time>
      </trkpt>
      <trkpt lat="44.7854" lon="5.68177">
        <ele>683.8</ele>
        <time>2022-07-14T06:40:12Z</time>
      </trkpt>
      <trkpt lat="44.78544" lon="5.68178">
        <ele>683.8</ele>
        <time>2022-07-14T06:40:13Z</time>
      </trkpt>
      <trkpt lat="44.78552" lon="5.68178">
        <ele>683.8</ele>
        <time>2022-07-14T06:40:14Z</time>
      </trkpt>
      <trkpt lat="44.78554" lon="5.68177">
        <ele>683.8</ele>
        <time>2022-07-14T06:40:15Z</time>
      </trkpt>
      <trkpt lat="44.7856" lon="5.68179">
        <ele>683.8</ele>
        <time>2022-07-14T06:40:17Z</time>
      </trkpt>
      <trkpt lat="44.78566" lon="5.68181">
        <ele>683.8</ele>
        <time>2022-07-14T06:40:19Z</time>
      </trkpt>
      <trkpt lat="44.7857" lon="5.68181">
        <ele>683.8</ele>
        <time>2022-07-14T06:40:20Z</time>
      </trkpt>
      <trkpt lat="44.78572" lon="5.68183">
        <ele>683.8</ele>
        <time>2022-07-14T06:40:22Z</time>
      </trkpt>
      <trkpt lat="44.78577" lon="5.68183">
        <ele>683.9</ele>
        <time>2022-07-14T06:40:25Z</time>
      </trkpt>
      <trkpt lat="44.78582" lon="5.68182">
        <ele>683.9</ele>
        <time>2022-07-14T06:40:26Z</time>
      </trkpt>
      <trkpt lat="44.78583" lon="5.68182">
        <ele>683.9</ele>
        <time>2022-07-14T06:40:27Z</time>
      </trkpt>
      <trkpt lat="44.78583" lon="5.68183">
        <ele>684</ele>
        <time>2022-07-14T06:40:28Z</time>
      </trkpt>
      <trkpt lat="44.7859" lon="5.68185">
        <ele>684.1</ele>
        <time>2022-07-14T06:40:30Z</time>
      </trkpt>
      <trkpt lat="44.78593" lon="5.68188">
        <ele>684.1</ele>
        <time>2022-07-14T06:40:31Z</time>
      </trkpt>
      <trkpt lat="44.78594" lon="5.68189">
        <ele>684.1</ele>
        <time>2022-07-14T06:40:32Z</time>
      </trkpt>
      <trkpt lat="44.78598" lon="5.6819">
        <ele>684.2</ele>
        <time>2022-07-14T06:40:33Z</time>
      </trkpt>
      <trkpt lat="44.78602" lon="5.68198">
        <ele>684.5</ele>
        <time>2022-07-14T06:40:35Z</time>
      </trkpt>
      <trkpt lat="44.78605" lon="5.68208">
        <ele>684.9</ele>
        <time>2022-07-14T06:40:37Z</time>
      </trkpt>
      <trkpt lat="44.78607" lon="5.68212">
        <ele>685.1</ele>
        <time>2022-07-14T06:40:38Z</time>
      </trkpt>
      <trkpt lat="44.78606" lon="5.68218">
        <ele>685.4</ele>
        <time>2022-07-14T06:40:40Z</time>
      </trkpt>
      <trkpt lat="44.78606" lon="5.68224">
        <ele>685.8</ele>
        <time>2022-07-14T06:40:41Z</time>
      </trkpt>
      <trkpt lat="44.78605" lon="5.6823">
        <ele>686.2</ele>
        <time>2022-07-14T06:40:43Z</time>
      </trkpt>
      <trkpt lat="44.78602" lon="5.68234">
        <ele>686.6</ele>
        <time>2022-07-14T06:40:44Z</time>
      </trkpt>
      <trkpt lat="44.78601" lon="5.68235">
        <ele>686.7</ele>
        <time>2022-07-14T06:40:45Z</time>
      </trkpt>
      <trkpt lat="44.78599" lon="5.6824">
        <ele>687.1</ele>
        <time>2022-07-14T06:40:47Z</time>
      </trkpt>
      <trkpt lat="44.78598" lon="5.68244">
        <ele>687.5</ele>
        <time>2022-07-14T06:40:48Z</time>
      </trkpt>
      <trkpt lat="44.78597" lon="5.68248">
        <ele>687.8</ele>
        <time>2022-07-14T06:40:49Z</time>
      </trkpt>
      <trkpt lat="44.78596" lon="5.68251">
        <ele>688.1</ele>
        <time>2022-07-14T06:40:50Z</time>
      </trkpt>
      <trkpt lat="44.78594" lon="5.68257">
        <ele>688.6</ele>
        <time>2022-07-14T06:40:52Z</time>
      </trkpt>
      <trkpt lat="44.78594" lon="5.6826">
        <ele>688.9</ele>
        <time>2022-07-14T06:40:53Z</time>
      </trkpt>
      <trkpt lat="44.78593" lon="5.68262">
        <ele>689.1</ele>
        <time>2022-07-14T06:40:55Z</time>
      </trkpt>
      <trkpt lat="44.78594" lon="5.68266">
        <ele>689.5</ele>
        <time>2022-07-14T06:40:56Z</time>
      </trkpt>
      <trkpt lat="44.78594" lon="5.68272">
        <ele>690</ele>
        <time>2022-07-14T06:40:57Z</time>
      </trkpt>
      <trkpt lat="44.78596" lon="5.68276">
        <ele>690.5</ele>
        <time>2022-07-14T06:40:59Z</time>
      </trkpt>
      <trkpt lat="44.78599" lon="5.68281">
        <ele>691</ele>
        <time>2022-07-14T06:41:00Z</time>
      </trkpt>
      <trkpt lat="44.78602" lon="5.68283">
        <ele>691.4</ele>
        <time>2022-07-14T06:41:01Z</time>
      </trkpt>
      <trkpt lat="44.78603" lon="5.68283">
        <ele>691.6</ele>
        <time>2022-07-14T06:41:02Z</time>
      </trkpt>
      <trkpt lat="44.78606" lon="5.68282">
        <ele>691.9</ele>
        <time>2022-07-14T06:41:03Z</time>
      </trkpt>
      <trkpt lat="44.78611" lon="5.68279">
        <ele>692.4</ele>
        <time>2022-07-14T06:41:05Z</time>
      </trkpt>
      <trkpt lat="44.78615" lon="5.68277">
        <ele>692.8</ele>
        <time>2022-07-14T06:41:07Z</time>
      </trkpt>
      <trkpt lat="44.78618" lon="5.68273">
        <ele>693.1</ele>
        <time>2022-07-14T06:41:08Z</time>
      </trkpt>
      <trkpt lat="44.78618" lon="5.68272">
        <ele>693.2</ele>
        <time>2022-07-14T06:41:09Z</time>
      </trkpt>
      <trkpt lat="44.78622" lon="5.68268">
        <ele>693.6</ele>
        <time>2022-07-14T06:41:11Z</time>
      </trkpt>
      <trkpt lat="44.78625" lon="5.68268">
        <ele>693.8</ele>
        <time>2022-07-14T06:41:12Z</time>
      </trkpt>
      <trkpt lat="44.78628" lon="5.68268">
        <ele>694</ele>
        <time>2022-07-14T06:41:13Z</time>
      </trkpt>
      <trkpt lat="44.78632" lon="5.68269">
        <ele>694.5</ele>
        <time>2022-07-14T06:41:15Z</time>
      </trkpt>
      <trkpt lat="44.78635" lon="5.68272">
        <ele>694.7</ele>
        <time>2022-07-14T06:41:16Z</time>
      </trkpt>
      <trkpt lat="44.78637" lon="5.68276">
        <ele>695</ele>
        <time>2022-07-14T06:41:17Z</time>
      </trkpt>
      <trkpt lat="44.78638" lon="5.68277">
        <ele>695.1</ele>
        <time>2022-07-14T06:41:18Z</time>
      </trkpt>
      <trkpt lat="44.7864" lon="5.6828">
        <ele>695.5</ele>
        <time>2022-07-14T06:41:19Z</time>
      </trkpt>
      <trkpt lat="44.78641" lon="5.68281">
        <ele>695.5</ele>
        <time>2022-07-14T06:41:20Z</time>
      </trkpt>
      <trkpt lat="44.78642" lon="5.68284">
        <ele>695.7</ele>
        <time>2022-07-14T06:41:21Z</time>
      </trkpt>
      <trkpt lat="44.78644" lon="5.68289">
        <ele>696.1</ele>
        <time>2022-07-14T06:41:23Z</time>
      </trkpt>
      <trkpt lat="44.78645" lon="5.68291">
        <ele>696.3</ele>
        <time>2022-07-14T06:41:24Z</time>
      </trkpt>
      <trkpt lat="44.78646" lon="5.68296">
        <ele>696.7</ele>
        <time>2022-07-14T06:41:26Z</time>
      </trkpt>
      <trkpt lat="44.78647" lon="5.68298">
        <ele>696.9</ele>
        <time>2022-07-14T06:41:27Z</time>
      </trkpt>
      <trkpt lat="44.7865" lon="5.68302">
        <ele>697.3</ele>
        <time>2022-07-14T06:41:29Z</time>
      </trkpt>
      <trkpt lat="44.78649" lon="5.68307">
        <ele>697.7</ele>
        <time>2022-07-14T06:41:31Z</time>
      </trkpt>
      <trkpt lat="44.78649" lon="5.68311">
        <ele>698</ele>
        <time>2022-07-14T06:41:32Z</time>
      </trkpt>
      <trkpt lat="44.78652" lon="5.68314">
        <ele>698.4</ele>
        <time>2022-07-14T06:41:34Z</time>
      </trkpt>
      <trkpt lat="44.78653" lon="5.68319">
        <ele>699</ele>
        <time>2022-07-14T06:41:36Z</time>
      </trkpt>
      <trkpt lat="44.78652" lon="5.6832">
        <ele>699.1</ele>
        <time>2022-07-14T06:41:37Z</time>
      </trkpt>
      <trkpt lat="44.78653" lon="5.68324">
        <ele>699.4</ele>
        <time>2022-07-14T06:41:39Z</time>
      </trkpt>
      <trkpt lat="44.78653" lon="5.68326">
        <ele>699.5</ele>
        <time>2022-07-14T06:41:40Z</time>
      </trkpt>
      <trkpt lat="44.78653" lon="5.68332">
        <ele>700.1</ele>
        <time>2022-07-14T06:41:42Z</time>
      </trkpt>
      <trkpt lat="44.78652" lon="5.68336">
        <ele>700.4</ele>
        <time>2022-07-14T06:41:44Z</time>
      </trkpt>
      <trkpt lat="44.78652" lon="5.68341">
        <ele>700.7</ele>
        <time>2022-07-14T06:41:45Z</time>
      </trkpt>
      <trkpt lat="44.78651" lon="5.68346">
        <ele>701</ele>
        <time>2022-07-14T06:41:46Z</time>
      </trkpt>
      <trkpt lat="44.78649" lon="5.68351">
        <ele>701.4</ele>
        <time>2022-07-14T06:41:48Z</time>
      </trkpt>
      <trkpt lat="44.78648" lon="5.68354">
        <ele>701.6</ele>
        <time>2022-07-14T06:41:49Z</time>
      </trkpt>
      <trkpt lat="44.78647" lon="5.68356">
        <ele>701.7</ele>
        <time>2022-07-14T06:41:50Z</time>
      </trkpt>
      <trkpt lat="44.78646" lon="5.68357">
        <ele>701.8</ele>
        <time>2022-07-14T06:41:51Z</time>
      </trkpt>
      <trkpt lat="44.78644" lon="5.68364">
        <ele>702.1</ele>
        <time>2022-07-14T06:41:52Z</time>
      </trkpt>
      <trkpt lat="44.78644" lon="5.68369">
        <ele>702.4</ele>
        <time>2022-07-14T06:41:54Z</time>
      </trkpt>
      <trkpt lat="44.78643" lon="5.68373">
        <ele>702.5</ele>
        <time>2022-07-14T06:41:55Z</time>
      </trkpt>
      <trkpt lat="44.78642" lon="5.68377">
        <ele>702.7</ele>
        <time>2022-07-14T06:41:56Z</time>
      </trkpt>
      <trkpt lat="44.7864" lon="5.68386">
        <ele>703</ele>
        <time>2022-07-14T06:41:58Z</time>
      </trkpt>
      <trkpt lat="44.78639" lon="5.6839">
        <ele>703.2</ele>
        <time>2022-07-14T06:41:59Z</time>
      </trkpt>
      <trkpt lat="44.78639" lon="5.68392">
        <ele>703.2</ele>
        <time>2022-07-14T06:42:00Z</time>
      </trkpt>
      <trkpt lat="44.78638" lon="5.68398">
        <ele>703.4</ele>
        <time>2022-07-14T06:42:01Z</time>
      </trkpt>
      <trkpt lat="44.78635" lon="5.68409">
        <ele>703.6</ele>
        <time>2022-07-14T06:42:03Z</time>
      </trkpt>
      <trkpt lat="44.78633" lon="5.68415">
        <ele>703.8</ele>
        <time>2022-07-14T06:42:04Z</time>
      </trkpt>
      <trkpt lat="44.7863" lon="5.68424">
        <ele>704</ele>
        <time>2022-07-14T06:42:06Z</time>
      </trkpt>
      <trkpt lat="44.78629" lon="5.6843">
        <ele>704.2</ele>
        <time>2022-07-14T06:42:07Z</time>
      </trkpt>
      <trkpt lat="44.78627" lon="5.68436">
        <ele>704.3</ele>
        <time>2022-07-14T06:42:08Z</time>
      </trkpt>
      <trkpt lat="44.78626" lon="5.68442">
        <ele>704.5</ele>
        <time>2022-07-14T06:42:09Z</time>
      </trkpt>
      <trkpt lat="44.78623" lon="5.6845">
        <ele>704.8</ele>
        <time>2022-07-14T06:42:11Z</time>
      </trkpt>
      <trkpt lat="44.78621" lon="5.68455">
        <ele>705</ele>
        <time>2022-07-14T06:42:12Z</time>
      </trkpt>
      <trkpt lat="44.7862" lon="5.68461">
        <ele>705.3</ele>
        <time>2022-07-14T06:42:13Z</time>
      </trkpt>
      <trkpt lat="44.78618" lon="5.68468">
        <ele>705.7</ele>
        <time>2022-07-14T06:42:15Z</time>
      </trkpt>
      <trkpt lat="44.78616" lon="5.68475">
        <ele>706.1</ele>
        <time>2022-07-14T06:42:17Z</time>
      </trkpt>
      <trkpt lat="44.78616" lon="5.68478">
        <ele>706.3</ele>
        <time>2022-07-14T06:42:18Z</time>
      </trkpt>
      <trkpt lat="44.78614" lon="5.68486">
        <ele>706.9</ele>
        <time>2022-07-14T06:42:20Z</time>
      </trkpt>
      <trkpt lat="44.78613" lon="5.68489">
        <ele>707.1</ele>
        <time>2022-07-14T06:42:21Z</time>
      </trkpt>
      <trkpt lat="44.78612" lon="5.68495">
        <ele>707.5</ele>
        <time>2022-07-14T06:42:23Z</time>
      </trkpt>
      <trkpt lat="44.7861" lon="5.685">
        <ele>707.9</ele>
        <time>2022-07-14T06:42:24Z</time>
      </trkpt>
      <trkpt lat="44.78609" lon="5.68503">
        <ele>708.1</ele>
        <time>2022-07-14T06:42:25Z</time>
      </trkpt>
      <trkpt lat="44.78606" lon="5.68511">
        <ele>708.7</ele>
        <time>2022-07-14T06:42:26Z</time>
      </trkpt>
      <trkpt lat="44.78605" lon="5.68516">
        <ele>709</ele>
        <time>2022-07-14T06:42:28Z</time>
      </trkpt>
      <trkpt lat="44.78604" lon="5.68521">
        <ele>709.2</ele>
        <time>2022-07-14T06:42:29Z</time>
      </trkpt>
      <trkpt lat="44.78602" lon="5.68525">
        <ele>709.5</ele>
        <time>2022-07-14T06:42:30Z</time>
      </trkpt>
      <trkpt lat="44.786" lon="5.68534">
        <ele>709.9</ele>
        <time>2022-07-14T06:42:32Z</time>
      </trkpt>
      <trkpt lat="44.78598" lon="5.68539">
        <ele>710.1</ele>
        <time>2022-07-14T06:42:33Z</time>
      </trkpt>
      <trkpt lat="44.78594" lon="5.68547">
        <ele>710.5</ele>
        <time>2022-07-14T06:42:35Z</time>
      </trkpt>
      <trkpt lat="44.78589" lon="5.68555">
        <ele>710.9</ele>
        <time>2022-07-14T06:42:37Z</time>
      </trkpt>
      <trkpt lat="44.78585" lon="5.68564">
        <ele>711.4</ele>
        <time>2022-07-14T06:42:39Z</time>
      </trkpt>
      <trkpt lat="44.78582" lon="5.68574">
        <ele>712</ele>
        <time>2022-07-14T06:42:42Z</time>
      </trkpt>
      <trkpt lat="44.7858" lon="5.68578">
        <ele>712.3</ele>
        <time>2022-07-14T06:42:43Z</time>
      </trkpt>
      <trkpt lat="44.78575" lon="5.68588">
        <ele>713.1</ele>
        <time>2022-07-14T06:42:46Z</time>
      </trkpt>
      <trkpt lat="44.78573" lon="5.68591">
        <ele>713.4</ele>
        <time>2022-07-14T06:42:47Z</time>
      </trkpt>
      <trkpt lat="44.78571" lon="5.68593">
        <ele>713.6</ele>
        <time>2022-07-14T06:42:48Z</time>
      </trkpt>
      <trkpt lat="44.78567" lon="5.68599">
        <ele>714.2</ele>
        <time>2022-07-14T06:42:50Z</time>
      </trkpt>
      <trkpt lat="44.78562" lon="5.68606">
        <ele>714.8</ele>
        <time>2022-07-14T06:42:53Z</time>
      </trkpt>
      <trkpt lat="44.78559" lon="5.68609">
        <ele>715.1</ele>
        <time>2022-07-14T06:42:54Z</time>
      </trkpt>
      <trkpt lat="44.78555" lon="5.68614">
        <ele>715.5</ele>
        <time>2022-07-14T06:42:56Z</time>
      </trkpt>
      <trkpt lat="44.78551" lon="5.68619">
        <ele>715.9</ele>
        <time>2022-07-14T06:42:57Z</time>
      </trkpt>
      <trkpt lat="44.78549" lon="5.68622">
        <ele>716.2</ele>
        <time>2022-07-14T06:42:58Z</time>
      </trkpt>
      <trkpt lat="44.78547" lon="5.68626">
        <ele>716.4</ele>
        <time>2022-07-14T06:42:59Z</time>
      </trkpt>
      <trkpt lat="44.78544" lon="5.68629">
        <ele>716.7</ele>
        <time>2022-07-14T06:43:00Z</time>
      </trkpt>
      <trkpt lat="44.7854" lon="5.68636">
        <ele>717.2</ele>
        <time>2022-07-14T06:43:02Z</time>
      </trkpt>
      <trkpt lat="44.78538" lon="5.68645">
        <ele>717.6</ele>
        <time>2022-07-14T06:43:03Z</time>
      </trkpt>
      <trkpt lat="44.78537" lon="5.68649">
        <ele>717.9</ele>
        <time>2022-07-14T06:43:05Z</time>
      </trkpt>
      <trkpt lat="44.78537" lon="5.68654">
        <ele>718.2</ele>
        <time>2022-07-14T06:43:06Z</time>
      </trkpt>
      <trkpt lat="44.78538" lon="5.68661">
        <ele>718.5</ele>
        <time>2022-07-14T06:43:08Z</time>
      </trkpt>
      <trkpt lat="44.78538" lon="5.68663">
        <ele>718.7</ele>
        <time>2022-07-14T06:43:09Z</time>
      </trkpt>
      <trkpt lat="44.78539" lon="5.68664">
        <ele>718.8</ele>
        <time>2022-07-14T06:43:10Z</time>
      </trkpt>
      <trkpt lat="44.7854" lon="5.6867">
        <ele>719.1</ele>
        <time>2022-07-14T06:43:12Z</time>
      </trkpt>
      <trkpt lat="44.78543" lon="5.68673">
        <ele>719.4</ele>
        <time>2022-07-14T06:43:13Z</time>
      </trkpt>
      <trkpt lat="44.78545" lon="5.68675">
        <ele>719.6</ele>
        <time>2022-07-14T06:43:14Z</time>
      </trkpt>
      <trkpt lat="44.78551" lon="5.68678">
        <ele>720.1</ele>
        <time>2022-07-14T06:43:16Z</time>
      </trkpt>
      <trkpt lat="44.78554" lon="5.68677">
        <ele>720.3</ele>
        <time>2022-07-14T06:43:17Z</time>
      </trkpt>
      <trkpt lat="44.78558" lon="5.68679">
        <ele>720.6</ele>
        <time>2022-07-14T06:43:19Z</time>
      </trkpt>
      <trkpt lat="44.78563" lon="5.6868">
        <ele>720.9</ele>
        <time>2022-07-14T06:43:21Z</time>
      </trkpt>
      <trkpt lat="44.78565" lon="5.68679">
        <ele>721.1</ele>
        <time>2022-07-14T06:43:22Z</time>
      </trkpt>
      <trkpt lat="44.78568" lon="5.68678">
        <ele>721.3</ele>
        <time>2022-07-14T06:43:23Z</time>
      </trkpt>
      <trkpt lat="44.78576" lon="5.68674">
        <ele>721.8</ele>
        <time>2022-07-14T06:43:26Z</time>
      </trkpt>
      <trkpt lat="44.7858" lon="5.68673">
        <ele>722</ele>
        <time>2022-07-14T06:43:27Z</time>
      </trkpt>
      <trkpt lat="44.78585" lon="5.68672">
        <ele>722.4</ele>
        <time>2022-07-14T06:43:29Z</time>
      </trkpt>
      <trkpt lat="44.78588" lon="5.68671">
        <ele>722.6</ele>
        <time>2022-07-14T06:43:30Z</time>
      </trkpt>
      <trkpt lat="44.78592" lon="5.6867">
        <ele>722.9</ele>
        <time>2022-07-14T06:43:31Z</time>
      </trkpt>
      <trkpt lat="44.78594" lon="5.68669">
        <ele>723</ele>
        <time>2022-07-14T06:43:32Z</time>
      </trkpt>
      <trkpt lat="44.78597" lon="5.6867">
        <ele>723.2</ele>
        <time>2022-07-14T06:43:34Z</time>
      </trkpt>
      <trkpt lat="44.78598" lon="5.68671">
        <ele>723.4</ele>
        <time>2022-07-14T06:43:35Z</time>
      </trkpt>
      <trkpt lat="44.78603" lon="5.6867">
        <ele>723.7</ele>
        <time>2022-07-14T06:43:37Z</time>
      </trkpt>
      <trkpt lat="44.78606" lon="5.6867">
        <ele>723.9</ele>
        <time>2022-07-14T06:43:38Z</time>
      </trkpt>
      <trkpt lat="44.78611" lon="5.68669">
        <ele>724.4</ele>
        <time>2022-07-14T06:43:40Z</time>
      </trkpt>
      <trkpt lat="44.78615" lon="5.68668">
        <ele>724.7</ele>
        <time>2022-07-14T06:43:41Z</time>
      </trkpt>
      <trkpt lat="44.78617" lon="5.68668">
        <ele>724.8</ele>
        <time>2022-07-14T06:43:42Z</time>
      </trkpt>
      <trkpt lat="44.78623" lon="5.68668">
        <ele>725.2</ele>
        <time>2022-07-14T06:43:44Z</time>
      </trkpt>
      <trkpt lat="44.78625" lon="5.68667">
        <ele>725.5</ele>
        <time>2022-07-14T06:43:45Z</time>
      </trkpt>
      <trkpt lat="44.78626" lon="5.68666">
        <ele>725.5</ele>
        <time>2022-07-14T06:43:46Z</time>
      </trkpt>
      <trkpt lat="44.78632" lon="5.68666">
        <ele>726</ele>
        <time>2022-07-14T06:43:48Z</time>
      </trkpt>
      <trkpt lat="44.78635" lon="5.68666">
        <ele>726.3</ele>
        <time>2022-07-14T06:43:49Z</time>
      </trkpt>
      <trkpt lat="44.78639" lon="5.68667">
        <ele>726.6</ele>
        <time>2022-07-14T06:43:51Z</time>
      </trkpt>
      <trkpt lat="44.7864" lon="5.68667">
        <ele>726.7</ele>
        <time>2022-07-14T06:43:52Z</time>
      </trkpt>
      <trkpt lat="44.78643" lon="5.68668">
        <ele>726.9</ele>
        <time>2022-07-14T06:43:53Z</time>
      </trkpt>
      <trkpt lat="44.78645" lon="5.68668">
        <ele>727.1</ele>
        <time>2022-07-14T06:43:54Z</time>
      </trkpt>
      <trkpt lat="44.78652" lon="5.68667">
        <ele>727.5</ele>
        <time>2022-07-14T06:43:56Z</time>
      </trkpt>
      <trkpt lat="44.78654" lon="5.68667">
        <ele>727.7</ele>
        <time>2022-07-14T06:43:57Z</time>
      </trkpt>
      <trkpt lat="44.78658" lon="5.68667">
        <ele>728</ele>
        <time>2022-07-14T06:43:58Z</time>
      </trkpt>
      <trkpt lat="44.78661" lon="5.68667">
        <ele>728.3</ele>
        <time>2022-07-14T06:43:59Z</time>
      </trkpt>
      <trkpt lat="44.78663" lon="5.68667">
        <ele>728.4</ele>
        <time>2022-07-14T06:44:00Z</time>
      </trkpt>
      <trkpt lat="44.78667" lon="5.68665">
        <ele>728.7</ele>
        <time>2022-07-14T06:44:02Z</time>
      </trkpt>
      <trkpt lat="44.78671" lon="5.68665">
        <ele>729</ele>
        <time>2022-07-14T06:44:03Z</time>
      </trkpt>
      <trkpt lat="44.78673" lon="5.68663">
        <ele>729.2</ele>
        <time>2022-07-14T06:44:04Z</time>
      </trkpt>
      <trkpt lat="44.78676" lon="5.68661">
        <ele>729.4</ele>
        <time>2022-07-14T06:44:05Z</time>
      </trkpt>
      <trkpt lat="44.78679" lon="5.6866">
        <ele>729.7</ele>
        <time>2022-07-14T06:44:06Z</time>
      </trkpt>
      <trkpt lat="44.78681" lon="5.68659">
        <ele>729.8</ele>
        <time>2022-07-14T06:44:07Z</time>
      </trkpt>
      <trkpt lat="44.78684" lon="5.68654">
        <ele>730.2</ele>
        <time>2022-07-14T06:44:09Z</time>
      </trkpt>
      <trkpt lat="44.78687" lon="5.68653">
        <ele>730.5</ele>
        <time>2022-07-14T06:44:10Z</time>
      </trkpt>
      <trkpt lat="44.7869" lon="5.6865">
        <ele>730.8</ele>
        <time>2022-07-14T06:44:11Z</time>
      </trkpt>
      <trkpt lat="44.78694" lon="5.68647">
        <ele>731.2</ele>
        <time>2022-07-14T06:44:13Z</time>
      </trkpt>
      <trkpt lat="44.78696" lon="5.68644">
        <ele>731.4</ele>
        <time>2022-07-14T06:44:14Z</time>
      </trkpt>
      <trkpt lat="44.78699" lon="5.68641">
        <ele>731.7</ele>
        <time>2022-07-14T06:44:15Z</time>
      </trkpt>
      <trkpt lat="44.78703" lon="5.68638">
        <ele>732.1</ele>
        <time>2022-07-14T06:44:17Z</time>
      </trkpt>
      <trkpt lat="44.78706" lon="5.68635">
        <ele>732.4</ele>
        <time>2022-07-14T06:44:18Z</time>
      </trkpt>
      <trkpt lat="44.78708" lon="5.68634">
        <ele>732.6</ele>
        <time>2022-07-14T06:44:19Z</time>
      </trkpt>
      <trkpt lat="44.7871" lon="5.68631">
        <ele>732.9</ele>
        <time>2022-07-14T06:44:20Z</time>
      </trkpt>
      <trkpt lat="44.78712" lon="5.68628">
        <ele>733.1</ele>
        <time>2022-07-14T06:44:21Z</time>
      </trkpt>
      <trkpt lat="44.78715" lon="5.68626">
        <ele>733.4</ele>
        <time>2022-07-14T06:44:22Z</time>
      </trkpt>
      <trkpt lat="44.7872" lon="5.68623">
        <ele>733.9</ele>
        <time>2022-07-14T06:44:24Z</time>
      </trkpt>
      <trkpt lat="44.78723" lon="5.68618">
        <ele>734.3</ele>
        <time>2022-07-14T06:44:26Z</time>
      </trkpt>
      <trkpt lat="44.78727" lon="5.68615">
        <ele>734.7</ele>
        <time>2022-07-14T06:44:27Z</time>
      </trkpt>
      <trkpt lat="44.78728" lon="5.68613">
        <ele>734.8</ele>
        <time>2022-07-14T06:44:28Z</time>
      </trkpt>
      <trkpt lat="44.78731" lon="5.68609">
        <ele>735.2</ele>
        <time>2022-07-14T06:44:30Z</time>
      </trkpt>
      <trkpt lat="44.78732" lon="5.68609">
        <ele>735.3</ele>
        <time>2022-07-14T06:44:31Z</time>
      </trkpt>
      <trkpt lat="44.78734" lon="5.68606">
        <ele>735.5</ele>
        <time>2022-07-14T06:44:32Z</time>
      </trkpt>
      <trkpt lat="44.78739" lon="5.68599">
        <ele>736.2</ele>
        <time>2022-07-14T06:44:35Z</time>
      </trkpt>
      <trkpt lat="44.78742" lon="5.68594">
        <ele>736.7</ele>
        <time>2022-07-14T06:44:37Z</time>
      </trkpt>
      <trkpt lat="44.78745" lon="5.68591">
        <ele>737</ele>
        <time>2022-07-14T06:44:38Z</time>
      </trkpt>
      <trkpt lat="44.78747" lon="5.68587">
        <ele>737.3</ele>
        <time>2022-07-14T06:44:39Z</time>
      </trkpt>
      <trkpt lat="44.78749" lon="5.68582">
        <ele>737.6</ele>
        <time>2022-07-14T06:44:41Z</time>
      </trkpt>
      <trkpt lat="44.78751" lon="5.68577">
        <ele>737.9</ele>
        <time>2022-07-14T06:44:42Z</time>
      </trkpt>
      <trkpt lat="44.78751" lon="5.68576">
        <ele>738</ele>
        <time>2022-07-14T06:44:43Z</time>
      </trkpt>
      <trkpt lat="44.78756" lon="5.6857">
        <ele>738.5</ele>
        <time>2022-07-14T06:44:45Z</time>
      </trkpt>
      <trkpt lat="44.7876" lon="5.68566">
        <ele>738.8</ele>
        <time>2022-07-14T06:44:47Z</time>
      </trkpt>
      <trkpt lat="44.78764" lon="5.68564">
        <ele>739.1</ele>
        <time>2022-07-14T06:44:48Z</time>
      </trkpt>
      <trkpt lat="44.78766" lon="5.68564">
        <ele>739.2</ele>
        <time>2022-07-14T06:44:49Z</time>
      </trkpt>
      <trkpt lat="44.78771" lon="5.68562">
        <ele>739.5</ele>
        <time>2022-07-14T06:44:50Z</time>
      </trkpt>
      <trkpt lat="44.78774" lon="5.68563">
        <ele>739.7</ele>
        <time>2022-07-14T06:44:52Z</time>
      </trkpt>
      <trkpt lat="44.78778" lon="5.68565">
        <ele>739.8</ele>
        <time>2022-07-14T06:44:53Z</time>
      </trkpt>
      <trkpt lat="44.78781" lon="5.6857">
        <ele>740</ele>
        <time>2022-07-14T06:44:54Z</time>
      </trkpt>
      <trkpt lat="44.78785" lon="5.68579">
        <ele>740.2</ele>
        <time>2022-07-14T06:44:56Z</time>
      </trkpt>
      <trkpt lat="44.78786" lon="5.68585">
        <ele>740.3</ele>
        <time>2022-07-14T06:44:57Z</time>
      </trkpt>
      <trkpt lat="44.78788" lon="5.68592">
        <ele>740.5</ele>
        <time>2022-07-14T06:44:58Z</time>
      </trkpt>
      <trkpt lat="44.78788" lon="5.68597">
        <ele>740.5</ele>
        <time>2022-07-14T06:44:59Z</time>
      </trkpt>
      <trkpt lat="44.7879" lon="5.68606">
        <ele>740.6</ele>
        <time>2022-07-14T06:45:01Z</time>
      </trkpt>
      <trkpt lat="44.78792" lon="5.6861">
        <ele>740.7</ele>
        <time>2022-07-14T06:45:02Z</time>
      </trkpt>
      <trkpt lat="44.78793" lon="5.68618">
        <ele>740.8</ele>
        <time>2022-07-14T06:45:03Z</time>
      </trkpt>
      <trkpt lat="44.78798" lon="5.68634">
        <ele>740.9</ele>
        <time>2022-07-14T06:45:06Z</time>
      </trkpt>
      <trkpt lat="44.78798" lon="5.68641">
        <ele>740.9</ele>
        <time>2022-07-14T06:45:07Z</time>
      </trkpt>
      <trkpt lat="44.788" lon="5.68648">
        <ele>741</ele>
        <time>2022-07-14T06:45:08Z</time>
      </trkpt>
      <trkpt lat="44.78801" lon="5.68655">
        <ele>741</ele>
        <time>2022-07-14T06:45:09Z</time>
      </trkpt>
      <trkpt lat="44.78803" lon="5.68662">
        <ele>741.1</ele>
        <time>2022-07-14T06:45:10Z</time>
      </trkpt>
      <trkpt lat="44.78805" lon="5.68668">
        <ele>741.1</ele>
        <time>2022-07-14T06:45:11Z</time>
      </trkpt>
      <trkpt lat="44.78807" lon="5.68674">
        <ele>741.2</ele>
        <time>2022-07-14T06:45:12Z</time>
      </trkpt>
      <trkpt lat="44.78808" lon="5.68681">
        <ele>741.2</ele>
        <time>2022-07-14T06:45:13Z</time>
      </trkpt>
      <trkpt lat="44.7881" lon="5.68687">
        <ele>741.3</ele>
        <time>2022-07-14T06:45:14Z</time>
      </trkpt>
      <trkpt lat="44.78811" lon="5.68694">
        <ele>741.4</ele>
        <time>2022-07-14T06:45:15Z</time>
      </trkpt>
      <trkpt lat="44.78813" lon="5.68701">
        <ele>741.4</ele>
        <time>2022-07-14T06:45:16Z</time>
      </trkpt>
      <trkpt lat="44.78815" lon="5.68709">
        <ele>741.5</ele>
        <time>2022-07-14T06:45:17Z</time>
      </trkpt>
      <trkpt lat="44.78817" lon="5.68717">
        <ele>741.5</ele>
        <time>2022-07-14T06:45:18Z</time>
      </trkpt>
      <trkpt lat="44.78818" lon="5.68725">
        <ele>741.6</ele>
        <time>2022-07-14T06:45:19Z</time>
      </trkpt>
      <trkpt lat="44.7882" lon="5.68733">
        <ele>741.6</ele>
        <time>2022-07-14T06:45:20Z</time>
      </trkpt>
      <trkpt lat="44.78821" lon="5.68741">
        <ele>741.6</ele>
        <time>2022-07-14T06:45:21Z</time>
      </trkpt>
      <trkpt lat="44.78824" lon="5.68749">
        <ele>741.6</ele>
        <time>2022-07-14T06:45:22Z</time>
      </trkpt>
      <trkpt lat="44.78826" lon="5.68756">
        <ele>741.6</ele>
        <time>2022-07-14T06:45:23Z</time>
      </trkpt>
      <trkpt lat="44.78827" lon="5.68764">
        <ele>741.7</ele>
        <time>2022-07-14T06:45:24Z</time>
      </trkpt>
      <trkpt lat="44.78829" lon="5.68772">
        <ele>741.7</ele>
        <time>2022-07-14T06:45:25Z</time>
      </trkpt>
      <trkpt lat="44.78831" lon="5.6878">
        <ele>741.7</ele>
        <time>2022-07-14T06:45:26Z</time>
      </trkpt>
      <trkpt lat="44.78833" lon="5.68788">
        <ele>741.8</ele>
        <time>2022-07-14T06:45:27Z</time>
      </trkpt>
      <trkpt lat="44.78835" lon="5.68796">
        <ele>741.8</ele>
        <time>2022-07-14T06:45:28Z</time>
      </trkpt>
      <trkpt lat="44.78837" lon="5.68805">
        <ele>741.8</ele>
        <time>2022-07-14T06:45:29Z</time>
      </trkpt>
      <trkpt lat="44.78839" lon="5.68813">
        <ele>741.9</ele>
        <time>2022-07-14T06:45:30Z</time>
      </trkpt>
      <trkpt lat="44.78841" lon="5.68821">
        <ele>741.9</ele>
        <time>2022-07-14T06:45:31Z</time>
      </trkpt>
      <trkpt lat="44.78843" lon="5.68829">
        <ele>741.9</ele>
        <time>2022-07-14T06:45:32Z</time>
      </trkpt>
      <trkpt lat="44.78844" lon="5.68836">
        <ele>741.9</ele>
        <time>2022-07-14T06:45:33Z</time>
      </trkpt>
      <trkpt lat="44.78846" lon="5.68844">
        <ele>741.9</ele>
        <time>2022-07-14T06:45:34Z</time>
      </trkpt>
      <trkpt lat="44.78848" lon="5.68852">
        <ele>742</ele>
        <time>2022-07-14T06:45:35Z</time>
      </trkpt>
      <trkpt lat="44.78849" lon="5.6886">
        <ele>742</ele>
        <time>2022-07-14T06:45:36Z</time>
      </trkpt>
      <trkpt lat="44.78851" lon="5.68868">
        <ele>742</ele>
        <time>2022-07-14T06:45:37Z</time>
      </trkpt>
      <trkpt lat="44.78852" lon="5.68876">
        <ele>742</ele>
        <time>2022-07-14T06:45:38Z</time>
      </trkpt>
      <trkpt lat="44.78854" lon="5.68884">
        <ele>742</ele>
        <time>2022-07-14T06:45:39Z</time>
      </trkpt>
      <trkpt lat="44.78856" lon="5.68892">
        <ele>742.1</ele>
        <time>2022-07-14T06:45:40Z</time>
      </trkpt>
      <trkpt lat="44.78858" lon="5.68899">
        <ele>742.1</ele>
        <time>2022-07-14T06:45:41Z</time>
      </trkpt>
      <trkpt lat="44.7886" lon="5.68908">
        <ele>742.1</ele>
        <time>2022-07-14T06:45:42Z</time>
      </trkpt>
      <trkpt lat="44.78862" lon="5.68917">
        <ele>742.1</ele>
        <time>2022-07-14T06:45:43Z</time>
      </trkpt>
      <trkpt lat="44.78863" lon="5.68925">
        <ele>742.1</ele>
        <time>2022-07-14T06:45:44Z</time>
      </trkpt>
      <trkpt lat="44.78865" lon="5.68933">
        <ele>742.2</ele>
        <time>2022-07-14T06:45:45Z</time>
      </trkpt>
      <trkpt lat="44.78867" lon="5.68941">
        <ele>742.2</ele>
        <time>2022-07-14T06:45:46Z</time>
      </trkpt>
      <trkpt lat="44.78869" lon="5.68949">
        <ele>742.2</ele>
        <time>2022-07-14T06:45:47Z</time>
      </trkpt>
      <trkpt lat="44.7887" lon="5.68957">
        <ele>742.3</ele>
        <time>2022-07-14T06:45:48Z</time>
      </trkpt>
      <trkpt lat="44.78873" lon="5.68965">
        <ele>742.3</ele>
        <time>2022-07-14T06:45:49Z</time>
      </trkpt>
      <trkpt lat="44.78875" lon="5.68972">
        <ele>742.3</ele>
        <time>2022-07-14T06:45:50Z</time>
      </trkpt>
      <trkpt lat="44.78877" lon="5.68981">
        <ele>742.4</ele>
        <time>2022-07-14T06:45:51Z</time>
      </trkpt>
      <trkpt lat="44.78879" lon="5.68989">
        <ele>742.4</ele>
        <time>2022-07-14T06:45:52Z</time>
      </trkpt>
      <trkpt lat="44.78881" lon="5.68997">
        <ele>742.4</ele>
        <time>2022-07-14T06:45:53Z</time>
      </trkpt>
      <trkpt lat="44.78882" lon="5.69006">
        <ele>742.4</ele>
        <time>2022-07-14T06:45:54Z</time>
      </trkpt>
      <trkpt lat="44.78884" lon="5.69013">
        <ele>742.5</ele>
        <time>2022-07-14T06:45:55Z</time>
      </trkpt>
      <trkpt lat="44.78886" lon="5.69022">
        <ele>742.5</ele>
        <time>2022-07-14T06:45:56Z</time>
      </trkpt>
      <trkpt lat="44.78888" lon="5.6903">
        <ele>742.5</ele>
        <time>2022-07-14T06:45:57Z</time>
      </trkpt>
      <trkpt lat="44.78889" lon="5.69038">
        <ele>742.6</ele>
        <time>2022-07-14T06:45:58Z</time>
      </trkpt>
      <trkpt lat="44.78891" lon="5.69047">
        <ele>742.7</ele>
        <time>2022-07-14T06:45:59Z</time>
      </trkpt>
      <trkpt lat="44.78893" lon="5.69055">
        <ele>742.7</ele>
        <time>2022-07-14T06:46:00Z</time>
      </trkpt>
      <trkpt lat="44.78895" lon="5.69062">
        <ele>742.8</ele>
        <time>2022-07-14T06:46:01Z</time>
      </trkpt>
      <trkpt lat="44.78897" lon="5.6907">
        <ele>742.9</ele>
        <time>2022-07-14T06:46:02Z</time>
      </trkpt>
      <trkpt lat="44.78899" lon="5.69078">
        <ele>742.9</ele>
        <time>2022-07-14T06:46:03Z</time>
      </trkpt>
      <trkpt lat="44.78901" lon="5.69086">
        <ele>743</ele>
        <time>2022-07-14T06:46:04Z</time>
      </trkpt>
      <trkpt lat="44.78902" lon="5.69093">
        <ele>743</ele>
        <time>2022-07-14T06:46:05Z</time>
      </trkpt>
      <trkpt lat="44.78904" lon="5.69101">
        <ele>743.1</ele>
        <time>2022-07-14T06:46:06Z</time>
      </trkpt>
      <trkpt lat="44.78905" lon="5.69108">
        <ele>743.1</ele>
        <time>2022-07-14T06:46:07Z</time>
      </trkpt>
      <trkpt lat="44.78907" lon="5.69115">
        <ele>743.2</ele>
        <time>2022-07-14T06:46:08Z</time>
      </trkpt>
      <trkpt lat="44.78908" lon="5.69123">
        <ele>743.2</ele>
        <time>2022-07-14T06:46:09Z</time>
      </trkpt>
      <trkpt lat="44.7891" lon="5.69131">
        <ele>743.3</ele>
        <time>2022-07-14T06:46:10Z</time>
      </trkpt>
      <trkpt lat="44.78911" lon="5.69138">
        <ele>743.4</ele>
        <time>2022-07-14T06:46:11Z</time>
      </trkpt>
      <trkpt lat="44.78912" lon="5.69146">
        <ele>743.5</ele>
        <time>2022-07-14T06:46:12Z</time>
      </trkpt>
      <trkpt lat="44.78914" lon="5.69154">
        <ele>743.6</ele>
        <time>2022-07-14T06:46:13Z</time>
      </trkpt>
      <trkpt lat="44.78915" lon="5.69162">
        <ele>743.8</ele>
        <time>2022-07-14T06:46:14Z</time>
      </trkpt>
      <trkpt lat="44.78915" lon="5.69169">
        <ele>743.9</ele>
        <time>2022-07-14T06:46:15Z</time>
      </trkpt>
      <trkpt lat="44.78916" lon="5.69177">
        <ele>744</ele>
        <time>2022-07-14T06:46:16Z</time>
      </trkpt>
      <trkpt lat="44.78918" lon="5.69184">
        <ele>744</ele>
        <time>2022-07-14T06:46:17Z</time>
      </trkpt>
      <trkpt lat="44.78919" lon="5.6919">
        <ele>744.1</ele>
        <time>2022-07-14T06:46:18Z</time>
      </trkpt>
      <trkpt lat="44.7892" lon="5.69197">
        <ele>744.2</ele>
        <time>2022-07-14T06:46:19Z</time>
      </trkpt>
      <trkpt lat="44.78922" lon="5.69204">
        <ele>744.2</ele>
        <time>2022-07-14T06:46:20Z</time>
      </trkpt>
      <trkpt lat="44.78923" lon="5.69211">
        <ele>744.3</ele>
        <time>2022-07-14T06:46:21Z</time>
      </trkpt>
      <trkpt lat="44.78923" lon="5.69219">
        <ele>744.4</ele>
        <time>2022-07-14T06:46:22Z</time>
      </trkpt>
      <trkpt lat="44.78924" lon="5.69227">
        <ele>744.5</ele>
        <time>2022-07-14T06:46:23Z</time>
      </trkpt>
      <trkpt lat="44.78925" lon="5.69234">
        <ele>744.5</ele>
        <time>2022-07-14T06:46:24Z</time>
      </trkpt>
      <trkpt lat="44.78927" lon="5.6924">
        <ele>744.6</ele>
        <time>2022-07-14T06:46:25Z</time>
      </trkpt>
      <trkpt lat="44.78928" lon="5.69248">
        <ele>744.7</ele>
        <time>2022-07-14T06:46:26Z</time>
      </trkpt>
      <trkpt lat="44.78929" lon="5.69256">
        <ele>744.8</ele>
        <time>2022-07-14T06:46:27Z</time>
      </trkpt>
      <trkpt lat="44.78931" lon="5.69263">
        <ele>744.9</ele>
        <time>2022-07-14T06:46:28Z</time>
      </trkpt>
      <trkpt lat="44.78932" lon="5.69271">
        <ele>745</ele>
        <time>2022-07-14T06:46:29Z</time>
      </trkpt>
      <trkpt lat="44.78933" lon="5.69277">
        <ele>745.1</ele>
        <time>2022-07-14T06:46:30Z</time>
      </trkpt>
      <trkpt lat="44.78935" lon="5.69285">
        <ele>745.1</ele>
        <time>2022-07-14T06:46:31Z</time>
      </trkpt>
      <trkpt lat="44.78937" lon="5.69292">
        <ele>745.2</ele>
        <time>2022-07-14T06:46:32Z</time>
      </trkpt>
      <trkpt lat="44.78939" lon="5.69298">
        <ele>745.3</ele>
        <time>2022-07-14T06:46:33Z</time>
      </trkpt>
      <trkpt lat="44.78941" lon="5.69305">
        <ele>745.4</ele>
        <time>2022-07-14T06:46:34Z</time>
      </trkpt>
      <trkpt lat="44.78943" lon="5.69312">
        <ele>745.5</ele>
        <time>2022-07-14T06:46:35Z</time>
      </trkpt>
      <trkpt lat="44.78945" lon="5.69319">
        <ele>745.6</ele>
        <time>2022-07-14T06:46:36Z</time>
      </trkpt>
      <trkpt lat="44.78948" lon="5.69325">
        <ele>745.8</ele>
        <time>2022-07-14T06:46:37Z</time>
      </trkpt>
      <trkpt lat="44.78951" lon="5.69331">
        <ele>745.9</ele>
        <time>2022-07-14T06:46:38Z</time>
      </trkpt>
      <trkpt lat="44.78954" lon="5.69337">
        <ele>746.1</ele>
        <time>2022-07-14T06:46:39Z</time>
      </trkpt>
      <trkpt lat="44.78957" lon="5.69342">
        <ele>746.2</ele>
        <time>2022-07-14T06:46:40Z</time>
      </trkpt>
      <trkpt lat="44.78961" lon="5.69346">
        <ele>746.4</ele>
        <time>2022-07-14T06:46:41Z</time>
      </trkpt>
      <trkpt lat="44.78965" lon="5.6935">
        <ele>746.6</ele>
        <time>2022-07-14T06:46:42Z</time>
      </trkpt>
      <trkpt lat="44.78969" lon="5.69354">
        <ele>746.8</ele>
        <time>2022-07-14T06:46:43Z</time>
      </trkpt>
      <trkpt lat="44.7897" lon="5.69356">
        <ele>746.9</ele>
        <time>2022-07-14T06:46:44Z</time>
      </trkpt>
      <trkpt lat="44.78973" lon="5.69361">
        <ele>747.1</ele>
        <time>2022-07-14T06:46:45Z</time>
      </trkpt>
      <trkpt lat="44.78976" lon="5.69367">
        <ele>747.3</ele>
        <time>2022-07-14T06:46:46Z</time>
      </trkpt>
      <trkpt lat="44.78978" lon="5.69371">
        <ele>747.5</ele>
        <time>2022-07-14T06:46:47Z</time>
      </trkpt>
      <trkpt lat="44.78983" lon="5.6938">
        <ele>748</ele>
        <time>2022-07-14T06:46:48Z</time>
      </trkpt>
      <trkpt lat="44.78983" lon="5.69384">
        <ele>748.1</ele>
        <time>2022-07-14T06:46:49Z</time>
      </trkpt>
      <trkpt lat="44.7899" lon="5.69381">
        <ele>748.5</ele>
        <time>2022-07-14T06:46:50Z</time>
      </trkpt>
      <trkpt lat="44.78994" lon="5.69382">
        <ele>748.8</ele>
        <time>2022-07-14T06:46:51Z</time>
      </trkpt>
      <trkpt lat="44.78998" lon="5.69385">
        <ele>749.1</ele>
        <time>2022-07-14T06:46:52Z</time>
      </trkpt>
      <trkpt lat="44.79006" lon="5.69388">
        <ele>749.6</ele>
        <time>2022-07-14T06:46:54Z</time>
      </trkpt>
      <trkpt lat="44.7901" lon="5.69391">
        <ele>750</ele>
        <time>2022-07-14T06:46:55Z</time>
      </trkpt>
      <trkpt lat="44.79013" lon="5.69392">
        <ele>750.2</ele>
        <time>2022-07-14T06:46:56Z</time>
      </trkpt>
      <trkpt lat="44.79017" lon="5.69394">
        <ele>750.5</ele>
        <time>2022-07-14T06:46:57Z</time>
      </trkpt>
      <trkpt lat="44.79022" lon="5.69395">
        <ele>750.9</ele>
        <time>2022-07-14T06:46:59Z</time>
      </trkpt>
      <trkpt lat="44.79023" lon="5.69397">
        <ele>751</ele>
        <time>2022-07-14T06:47:00Z</time>
      </trkpt>
      <trkpt lat="44.79027" lon="5.69397">
        <ele>751.3</ele>
        <time>2022-07-14T06:47:02Z</time>
      </trkpt>
      <trkpt lat="44.79031" lon="5.69399">
        <ele>751.6</ele>
        <time>2022-07-14T06:47:04Z</time>
      </trkpt>
      <trkpt lat="44.79034" lon="5.69399">
        <ele>751.8</ele>
        <time>2022-07-14T06:47:05Z</time>
      </trkpt>
      <trkpt lat="44.79037" lon="5.69403">
        <ele>752.1</ele>
        <time>2022-07-14T06:47:07Z</time>
      </trkpt>
      <trkpt lat="44.79041" lon="5.69405">
        <ele>752.4</ele>
        <time>2022-07-14T06:47:09Z</time>
      </trkpt>
      <trkpt lat="44.79044" lon="5.69406">
        <ele>752.7</ele>
        <time>2022-07-14T06:47:10Z</time>
      </trkpt>
      <trkpt lat="44.79048" lon="5.69408">
        <ele>753.1</ele>
        <time>2022-07-14T06:47:11Z</time>
      </trkpt>
      <trkpt lat="44.79051" lon="5.6941">
        <ele>753.3</ele>
        <time>2022-07-14T06:47:12Z</time>
      </trkpt>
      <trkpt lat="44.79055" lon="5.69412">
        <ele>753.6</ele>
        <time>2022-07-14T06:47:14Z</time>
      </trkpt>
      <trkpt lat="44.79058" lon="5.69415">
        <ele>753.9</ele>
        <time>2022-07-14T06:47:15Z</time>
      </trkpt>
      <trkpt lat="44.79062" lon="5.69417">
        <ele>754.3</ele>
        <time>2022-07-14T06:47:16Z</time>
      </trkpt>
      <trkpt lat="44.79064" lon="5.69419">
        <ele>754.4</ele>
        <time>2022-07-14T06:47:17Z</time>
      </trkpt>
      <trkpt lat="44.79065" lon="5.69422">
        <ele>754.7</ele>
        <time>2022-07-14T06:47:18Z</time>
      </trkpt>
      <trkpt lat="44.79067" lon="5.69423">
        <ele>754.9</ele>
        <time>2022-07-14T06:47:19Z</time>
      </trkpt>
      <trkpt lat="44.79068" lon="5.69425">
        <ele>755.1</ele>
        <time>2022-07-14T06:47:20Z</time>
      </trkpt>
      <trkpt lat="44.79071" lon="5.69432">
        <ele>755.7</ele>
        <time>2022-07-14T06:47:22Z</time>
      </trkpt>
      <trkpt lat="44.79072" lon="5.69436">
        <ele>756.1</ele>
        <time>2022-07-14T06:47:23Z</time>
      </trkpt>
      <trkpt lat="44.79072" lon="5.69439">
        <ele>756.4</ele>
        <time>2022-07-14T06:47:24Z</time>
      </trkpt>
      <trkpt lat="44.79071" lon="5.69445">
        <ele>757.2</ele>
        <time>2022-07-14T06:47:26Z</time>
      </trkpt>
      <trkpt lat="44.79068" lon="5.69451">
        <ele>757.3</ele>
        <time>2022-07-14T06:47:28Z</time>
      </trkpt>
      <trkpt lat="44.79068" lon="5.69453">
        <ele>757.4</ele>
        <time>2022-07-14T06:47:30Z</time>
      </trkpt>
      <trkpt lat="44.79068" lon="5.69452">
        <ele>757.4</ele>
        <time>2022-07-14T06:47:31Z</time>
      </trkpt>
      <trkpt lat="44.79065" lon="5.69452">
        <ele>757.5</ele>
        <time>2022-07-14T06:47:32Z</time>
      </trkpt>
      <trkpt lat="44.79064" lon="5.69453">
        <ele>757.6</ele>
        <time>2022-07-14T06:47:33Z</time>
      </trkpt>
      <trkpt lat="44.7906" lon="5.69461">
        <ele>757.8</ele>
        <time>2022-07-14T06:47:35Z</time>
      </trkpt>
      <trkpt lat="44.79055" lon="5.69464">
        <ele>758</ele>
        <time>2022-07-14T06:47:37Z</time>
      </trkpt>
      <trkpt lat="44.79051" lon="5.6947">
        <ele>758.2</ele>
        <time>2022-07-14T06:47:39Z</time>
      </trkpt>
      <trkpt lat="44.79044" lon="5.69476">
        <ele>758.6</ele>
        <time>2022-07-14T06:47:42Z</time>
      </trkpt>
      <trkpt lat="44.7904" lon="5.6948">
        <ele>758.8</ele>
        <time>2022-07-14T06:47:44Z</time>
      </trkpt>
      <trkpt lat="44.79035" lon="5.69482">
        <ele>759.1</ele>
        <time>2022-07-14T06:47:45Z</time>
      </trkpt>
      <trkpt lat="44.79032" lon="5.69484">
        <ele>759.2</ele>
        <time>2022-07-14T06:47:46Z</time>
      </trkpt>
      <trkpt lat="44.79025" lon="5.69484">
        <ele>759.5</ele>
        <time>2022-07-14T06:47:48Z</time>
      </trkpt>
      <trkpt lat="44.79019" lon="5.69487">
        <ele>759.8</ele>
        <time>2022-07-14T06:47:50Z</time>
      </trkpt>
      <trkpt lat="44.79015" lon="5.69489">
        <ele>760</ele>
        <time>2022-07-14T06:47:51Z</time>
      </trkpt>
      <trkpt lat="44.79011" lon="5.69491">
        <ele>760.2</ele>
        <time>2022-07-14T06:47:52Z</time>
      </trkpt>
      <trkpt lat="44.79009" lon="5.69491">
        <ele>760.3</ele>
        <time>2022-07-14T06:47:53Z</time>
      </trkpt>
      <trkpt lat="44.79002" lon="5.69493">
        <ele>760.6</ele>
        <time>2022-07-14T06:47:55Z</time>
      </trkpt>
      <trkpt lat="44.78997" lon="5.69493">
        <ele>760.8</ele>
        <time>2022-07-14T06:47:56Z</time>
      </trkpt>
      <trkpt lat="44.78995" lon="5.69493">
        <ele>760.9</ele>
        <time>2022-07-14T06:47:57Z</time>
      </trkpt>
      <trkpt lat="44.78991" lon="5.69494">
        <ele>761.1</ele>
        <time>2022-07-14T06:47:58Z</time>
      </trkpt>
      <trkpt lat="44.78985" lon="5.69495">
        <ele>761.3</ele>
        <time>2022-07-14T06:48:00Z</time>
      </trkpt>
      <trkpt lat="44.78982" lon="5.69496">
        <ele>761.5</ele>
        <time>2022-07-14T06:48:01Z</time>
      </trkpt>
      <trkpt lat="44.78975" lon="5.69497">
        <ele>761.8</ele>
        <time>2022-07-14T06:48:02Z</time>
      </trkpt>
      <trkpt lat="44.78971" lon="5.69498">
        <ele>762</ele>
        <time>2022-07-14T06:48:04Z</time>
      </trkpt>
      <trkpt lat="44.78968" lon="5.69499">
        <ele>762.2</ele>
        <time>2022-07-14T06:48:05Z</time>
      </trkpt>
      <trkpt lat="44.78965" lon="5.69499">
        <ele>762.4</ele>
        <time>2022-07-14T06:48:06Z</time>
      </trkpt>
      <trkpt lat="44.78962" lon="5.69497">
        <ele>762.6</ele>
        <time>2022-07-14T06:48:07Z</time>
      </trkpt>
      <trkpt lat="44.7896" lon="5.69496">
        <ele>762.7</ele>
        <time>2022-07-14T06:48:08Z</time>
      </trkpt>
      <trkpt lat="44.78955" lon="5.69495">
        <ele>763</ele>
        <time>2022-07-14T06:48:10Z</time>
      </trkpt>
      <trkpt lat="44.78952" lon="5.69495">
        <ele>763.1</ele>
        <time>2022-07-14T06:48:11Z</time>
      </trkpt>
      <trkpt lat="44.78945" lon="5.69495">
        <ele>763.4</ele>
        <time>2022-07-14T06:48:13Z</time>
      </trkpt>
      <trkpt lat="44.78939" lon="5.69498">
        <ele>763.8</ele>
        <time>2022-07-14T06:48:15Z</time>
      </trkpt>
      <trkpt lat="44.78933" lon="5.69498">
        <ele>764.3</ele>
        <time>2022-07-14T06:48:16Z</time>
      </trkpt>
      <trkpt lat="44.78928" lon="5.695">
        <ele>764.6</ele>
        <time>2022-07-14T06:48:17Z</time>
      </trkpt>
      <trkpt lat="44.78926" lon="5.69501">
        <ele>764.7</ele>
        <time>2022-07-14T06:48:18Z</time>
      </trkpt>
      <trkpt lat="44.78923" lon="5.69504">
        <ele>765</ele>
        <time>2022-07-14T06:48:19Z</time>
      </trkpt>
      <trkpt lat="44.78918" lon="5.6951">
        <ele>765.4</ele>
        <time>2022-07-14T06:48:21Z</time>
      </trkpt>
      <trkpt lat="44.78914" lon="5.6951">
        <ele>765.7</ele>
        <time>2022-07-14T06:48:22Z</time>
      </trkpt>
      <trkpt lat="44.78911" lon="5.6951">
        <ele>765.9</ele>
        <time>2022-07-14T06:48:23Z</time>
      </trkpt>
      <trkpt lat="44.78907" lon="5.69509">
        <ele>766.1</ele>
        <time>2022-07-14T06:48:24Z</time>
      </trkpt>
      <trkpt lat="44.78902" lon="5.69507">
        <ele>766.4</ele>
        <time>2022-07-14T06:48:26Z</time>
      </trkpt>
      <trkpt lat="44.78899" lon="5.69504">
        <ele>766.5</ele>
        <time>2022-07-14T06:48:27Z</time>
      </trkpt>
      <trkpt lat="44.78895" lon="5.69502">
        <ele>766.6</ele>
        <time>2022-07-14T06:48:28Z</time>
      </trkpt>
      <trkpt lat="44.78892" lon="5.69501">
        <ele>766.6</ele>
        <time>2022-07-14T06:48:30Z</time>
      </trkpt>
      <trkpt lat="44.78888" lon="5.69502">
        <ele>766.7</ele>
        <time>2022-07-14T06:48:31Z</time>
      </trkpt>
      <trkpt lat="44.78884" lon="5.69502">
        <ele>766.8</ele>
        <time>2022-07-14T06:48:32Z</time>
      </trkpt>
      <trkpt lat="44.78881" lon="5.69503">
        <ele>766.9</ele>
        <time>2022-07-14T06:48:33Z</time>
      </trkpt>
      <trkpt lat="44.78878" lon="5.69504">
        <ele>767</ele>
        <time>2022-07-14T06:48:34Z</time>
      </trkpt>
      <trkpt lat="44.78874" lon="5.69505">
        <ele>767.1</ele>
        <time>2022-07-14T06:48:35Z</time>
      </trkpt>
      <trkpt lat="44.78868" lon="5.69511">
        <ele>767.4</ele>
        <time>2022-07-14T06:48:37Z</time>
      </trkpt>
      <trkpt lat="44.7886" lon="5.69515">
        <ele>767.6</ele>
        <time>2022-07-14T06:48:39Z</time>
      </trkpt>
      <trkpt lat="44.78856" lon="5.69521">
        <ele>767.7</ele>
        <time>2022-07-14T06:48:40Z</time>
      </trkpt>
      <trkpt lat="44.78854" lon="5.69525">
        <ele>767.8</ele>
        <time>2022-07-14T06:48:41Z</time>
      </trkpt>
      <trkpt lat="44.78851" lon="5.6953">
        <ele>768</ele>
        <time>2022-07-14T06:48:42Z</time>
      </trkpt>
      <trkpt lat="44.78846" lon="5.69538">
        <ele>768.2</ele>
        <time>2022-07-14T06:48:44Z</time>
      </trkpt>
      <trkpt lat="44.78842" lon="5.69543">
        <ele>768.3</ele>
        <time>2022-07-14T06:48:45Z</time>
      </trkpt>
      <trkpt lat="44.78839" lon="5.69545">
        <ele>768.4</ele>
        <time>2022-07-14T06:48:46Z</time>
      </trkpt>
      <trkpt lat="44.78835" lon="5.69547">
        <ele>768.4</ele>
        <time>2022-07-14T06:48:47Z</time>
      </trkpt>
      <trkpt lat="44.78828" lon="5.6955">
        <ele>768.6</ele>
        <time>2022-07-14T06:48:48Z</time>
      </trkpt>
      <trkpt lat="44.78824" lon="5.69551">
        <ele>768.7</ele>
        <time>2022-07-14T06:48:50Z</time>
      </trkpt>
      <trkpt lat="44.78818" lon="5.69553">
        <ele>768.8</ele>
        <time>2022-07-14T06:48:51Z</time>
      </trkpt>
      <trkpt lat="44.78813" lon="5.69553">
        <ele>768.9</ele>
        <time>2022-07-14T06:48:52Z</time>
      </trkpt>
      <trkpt lat="44.78809" lon="5.69554">
        <ele>769</ele>
        <time>2022-07-14T06:48:53Z</time>
      </trkpt>
      <trkpt lat="44.78806" lon="5.69555">
        <ele>769.1</ele>
        <time>2022-07-14T06:48:54Z</time>
      </trkpt>
      <trkpt lat="44.78797" lon="5.69557">
        <ele>769.4</ele>
        <time>2022-07-14T06:48:56Z</time>
      </trkpt>
      <trkpt lat="44.78791" lon="5.6956">
        <ele>769.5</ele>
        <time>2022-07-14T06:48:58Z</time>
      </trkpt>
      <trkpt lat="44.78785" lon="5.69563">
        <ele>769.6</ele>
        <time>2022-07-14T06:49:00Z</time>
      </trkpt>
      <trkpt lat="44.78779" lon="5.69563">
        <ele>769.7</ele>
        <time>2022-07-14T06:49:01Z</time>
      </trkpt>
      <trkpt lat="44.7877" lon="5.69564">
        <ele>769.8</ele>
        <time>2022-07-14T06:49:02Z</time>
      </trkpt>
      <trkpt lat="44.78766" lon="5.6957">
        <ele>769.9</ele>
        <time>2022-07-14T06:49:04Z</time>
      </trkpt>
      <trkpt lat="44.78762" lon="5.69567">
        <ele>770</ele>
        <time>2022-07-14T06:49:05Z</time>
      </trkpt>
      <trkpt lat="44.78756" lon="5.69566">
        <ele>770.1</ele>
        <time>2022-07-14T06:49:06Z</time>
      </trkpt>
      <trkpt lat="44.78747" lon="5.69569">
        <ele>770.4</ele>
        <time>2022-07-14T06:49:07Z</time>
      </trkpt>
      <trkpt lat="44.78744" lon="5.69579">
        <ele>770.6</ele>
        <time>2022-07-14T06:49:09Z</time>
      </trkpt>
      <trkpt lat="44.78739" lon="5.69573">
        <ele>770.8</ele>
        <time>2022-07-14T06:49:10Z</time>
      </trkpt>
      <trkpt lat="44.78734" lon="5.69573">
        <ele>771</ele>
        <time>2022-07-14T06:49:11Z</time>
      </trkpt>
      <trkpt lat="44.78726" lon="5.69576">
        <ele>771.2</ele>
        <time>2022-07-14T06:49:12Z</time>
      </trkpt>
      <trkpt lat="44.78722" lon="5.69576">
        <ele>771.3</ele>
        <time>2022-07-14T06:49:14Z</time>
      </trkpt>
      <trkpt lat="44.78718" lon="5.69576">
        <ele>771.5</ele>
        <time>2022-07-14T06:49:15Z</time>
      </trkpt>
      <trkpt lat="44.78707" lon="5.6958">
        <ele>771.8</ele>
        <time>2022-07-14T06:49:17Z</time>
      </trkpt>
      <trkpt lat="44.78701" lon="5.6958">
        <ele>772</ele>
        <time>2022-07-14T06:49:18Z</time>
      </trkpt>
      <trkpt lat="44.78698" lon="5.69582">
        <ele>772.1</ele>
        <time>2022-07-14T06:49:19Z</time>
      </trkpt>
      <trkpt lat="44.78696" lon="5.69583">
        <ele>772.1</ele>
        <time>2022-07-14T06:49:20Z</time>
      </trkpt>
      <trkpt lat="44.7868" lon="5.69582">
        <ele>772.7</ele>
        <time>2022-07-14T06:49:22Z</time>
      </trkpt>
      <trkpt lat="44.78678" lon="5.69587">
        <ele>772.8</ele>
        <time>2022-07-14T06:49:24Z</time>
      </trkpt>
      <trkpt lat="44.78675" lon="5.69588">
        <ele>772.9</ele>
        <time>2022-07-14T06:49:25Z</time>
      </trkpt>
      <trkpt lat="44.78673" lon="5.69594">
        <ele>773</ele>
        <time>2022-07-14T06:49:26Z</time>
      </trkpt>
      <trkpt lat="44.78657" lon="5.69584">
        <ele>773.6</ele>
        <time>2022-07-14T06:49:28Z</time>
      </trkpt>
      <trkpt lat="44.78662" lon="5.69583">
        <ele>773.8</ele>
        <time>2022-07-14T06:49:30Z</time>
      </trkpt>
      <trkpt lat="44.78652" lon="5.69583">
        <ele>774.1</ele>
        <time>2022-07-14T06:49:31Z</time>
      </trkpt>
      <trkpt lat="44.78641" lon="5.69582">
        <ele>774.4</ele>
        <time>2022-07-14T06:49:33Z</time>
      </trkpt>
      <trkpt lat="44.78635" lon="5.69583">
        <ele>774.6</ele>
        <time>2022-07-14T06:49:34Z</time>
      </trkpt>
      <trkpt lat="44.78627" lon="5.69583">
        <ele>774.7</ele>
        <time>2022-07-14T06:49:36Z</time>
      </trkpt>
      <trkpt lat="44.78623" lon="5.69583">
        <ele>774.8</ele>
        <time>2022-07-14T06:49:37Z</time>
      </trkpt>
      <trkpt lat="44.78618" lon="5.69585">
        <ele>774.8</ele>
        <time>2022-07-14T06:49:38Z</time>
      </trkpt>
      <trkpt lat="44.78614" lon="5.69585">
        <ele>774.9</ele>
        <time>2022-07-14T06:49:39Z</time>
      </trkpt>
      <trkpt lat="44.78609" lon="5.69585">
        <ele>774.9</ele>
        <time>2022-07-14T06:49:40Z</time>
      </trkpt>
      <trkpt lat="44.78605" lon="5.69586">
        <ele>774.9</ele>
        <time>2022-07-14T06:49:41Z</time>
      </trkpt>
      <trkpt lat="44.78594" lon="5.69587">
        <ele>774.9</ele>
        <time>2022-07-14T06:49:43Z</time>
      </trkpt>
      <trkpt lat="44.78583" lon="5.69593">
        <ele>775</ele>
        <time>2022-07-14T06:49:46Z</time>
      </trkpt>
      <trkpt lat="44.78578" lon="5.69594">
        <ele>775</ele>
        <time>2022-07-14T06:49:47Z</time>
      </trkpt>
      <trkpt lat="44.78573" lon="5.69593">
        <ele>775</ele>
        <time>2022-07-14T06:49:48Z</time>
      </trkpt>
      <trkpt lat="44.78567" lon="5.69593">
        <ele>775</ele>
        <time>2022-07-14T06:49:49Z</time>
      </trkpt>
      <trkpt lat="44.78553" lon="5.69594">
        <ele>775.1</ele>
        <time>2022-07-14T06:49:50Z</time>
      </trkpt>
      <trkpt lat="44.78544" lon="5.69595">
        <ele>775.2</ele>
        <time>2022-07-14T06:49:53Z</time>
      </trkpt>
      <trkpt lat="44.78539" lon="5.69597">
        <ele>775.2</ele>
        <time>2022-07-14T06:49:54Z</time>
      </trkpt>
      <trkpt lat="44.78534" lon="5.69598">
        <ele>775.2</ele>
        <time>2022-07-14T06:49:55Z</time>
      </trkpt>
      <trkpt lat="44.78529" lon="5.69599">
        <ele>775.3</ele>
        <time>2022-07-14T06:49:56Z</time>
      </trkpt>
      <trkpt lat="44.78525" lon="5.69601">
        <ele>775.3</ele>
        <time>2022-07-14T06:49:57Z</time>
      </trkpt>
      <trkpt lat="44.7852" lon="5.69603">
        <ele>775.2</ele>
        <time>2022-07-14T06:49:58Z</time>
      </trkpt>
      <trkpt lat="44.78516" lon="5.69607">
        <ele>775.2</ele>
        <time>2022-07-14T06:49:59Z</time>
      </trkpt>
      <trkpt lat="44.78512" lon="5.69611">
        <ele>775.1</ele>
        <time>2022-07-14T06:50:00Z</time>
      </trkpt>
      <trkpt lat="44.78508" lon="5.69615">
        <ele>775.1</ele>
        <time>2022-07-14T06:50:01Z</time>
      </trkpt>
      <trkpt lat="44.78504" lon="5.69619">
        <ele>775</ele>
        <time>2022-07-14T06:50:02Z</time>
      </trkpt>
      <trkpt lat="44.78501" lon="5.69624">
        <ele>774.9</ele>
        <time>2022-07-14T06:50:03Z</time>
      </trkpt>
      <trkpt lat="44.78497" lon="5.69628">
        <ele>774.9</ele>
        <time>2022-07-14T06:50:04Z</time>
      </trkpt>
      <trkpt lat="44.78493" lon="5.69633">
        <ele>774.8</ele>
        <time>2022-07-14T06:50:05Z</time>
      </trkpt>
      <trkpt lat="44.78488" lon="5.69637">
        <ele>774.7</ele>
        <time>2022-07-14T06:50:06Z</time>
      </trkpt>
      <trkpt lat="44.78484" lon="5.69642">
        <ele>774.6</ele>
        <time>2022-07-14T06:50:07Z</time>
      </trkpt>
      <trkpt lat="44.78479" lon="5.69647">
        <ele>774.6</ele>
        <time>2022-07-14T06:50:08Z</time>
      </trkpt>
      <trkpt lat="44.78474" lon="5.69653">
        <ele>774.5</ele>
        <time>2022-07-14T06:50:09Z</time>
      </trkpt>
      <trkpt lat="44.7847" lon="5.69658">
        <ele>774.4</ele>
        <time>2022-07-14T06:50:10Z</time>
      </trkpt>
      <trkpt lat="44.78465" lon="5.69664">
        <ele>774.4</ele>
        <time>2022-07-14T06:50:11Z</time>
      </trkpt>
      <trkpt lat="44.7846" lon="5.69669">
        <ele>774.4</ele>
        <time>2022-07-14T06:50:12Z</time>
      </trkpt>
      <trkpt lat="44.78455" lon="5.69675">
        <ele>774.4</ele>
        <time>2022-07-14T06:50:13Z</time>
      </trkpt>
      <trkpt lat="44.7845" lon="5.6968">
        <ele>774.4</ele>
        <time>2022-07-14T06:50:14Z</time>
      </trkpt>
      <trkpt lat="44.78445" lon="5.69685">
        <ele>774.4</ele>
        <time>2022-07-14T06:50:15Z</time>
      </trkpt>
      <trkpt lat="44.7844" lon="5.6969">
        <ele>774.4</ele>
        <time>2022-07-14T06:50:16Z</time>
      </trkpt>
      <trkpt lat="44.78436" lon="5.69696">
        <ele>774.5</ele>
        <time>2022-07-14T06:50:17Z</time>
      </trkpt>
      <trkpt lat="44.78431" lon="5.69701">
        <ele>774.5</ele>
        <time>2022-07-14T06:50:18Z</time>
      </trkpt>
      <trkpt lat="44.78426" lon="5.69706">
        <ele>774.6</ele>
        <time>2022-07-14T06:50:19Z</time>
      </trkpt>
      <trkpt lat="44.78421" lon="5.69711">
        <ele>774.7</ele>
        <time>2022-07-14T06:50:20Z</time>
      </trkpt>
      <trkpt lat="44.78417" lon="5.69715">
        <ele>774.8</ele>
        <time>2022-07-14T06:50:21Z</time>
      </trkpt>
      <trkpt lat="44.78413" lon="5.69721">
        <ele>774.9</ele>
        <time>2022-07-14T06:50:22Z</time>
      </trkpt>
      <trkpt lat="44.78408" lon="5.69727">
        <ele>775</ele>
        <time>2022-07-14T06:50:23Z</time>
      </trkpt>
      <trkpt lat="44.78405" lon="5.69732">
        <ele>775.1</ele>
        <time>2022-07-14T06:50:24Z</time>
      </trkpt>
      <trkpt lat="44.78401" lon="5.69738">
        <ele>775.2</ele>
        <time>2022-07-14T06:50:25Z</time>
      </trkpt>
      <trkpt lat="44.78398" lon="5.69743">
        <ele>775.3</ele>
        <time>2022-07-14T06:50:26Z</time>
      </trkpt>
      <trkpt lat="44.78394" lon="5.6975">
        <ele>775.4</ele>
        <time>2022-07-14T06:50:27Z</time>
      </trkpt>
      <trkpt lat="44.78391" lon="5.69756">
        <ele>775.4</ele>
        <time>2022-07-14T06:50:28Z</time>
      </trkpt>
      <trkpt lat="44.78389" lon="5.69763">
        <ele>775.5</ele>
        <time>2022-07-14T06:50:29Z</time>
      </trkpt>
      <trkpt lat="44.78387" lon="5.6977">
        <ele>775.7</ele>
        <time>2022-07-14T06:50:30Z</time>
      </trkpt>
      <trkpt lat="44.78384" lon="5.69777">
        <ele>775.8</ele>
        <time>2022-07-14T06:50:31Z</time>
      </trkpt>
      <trkpt lat="44.78382" lon="5.69783">
        <ele>775.9</ele>
        <time>2022-07-14T06:50:32Z</time>
      </trkpt>
      <trkpt lat="44.78379" lon="5.69791">
        <ele>776.1</ele>
        <time>2022-07-14T06:50:33Z</time>
      </trkpt>
      <trkpt lat="44.78376" lon="5.69797">
        <ele>776.2</ele>
        <time>2022-07-14T06:50:34Z</time>
      </trkpt>
      <trkpt lat="44.78374" lon="5.69803">
        <ele>776.4</ele>
        <time>2022-07-14T06:50:35Z</time>
      </trkpt>
      <trkpt lat="44.78371" lon="5.6981">
        <ele>776.5</ele>
        <time>2022-07-14T06:50:36Z</time>
      </trkpt>
      <trkpt lat="44.78369" lon="5.69816">
        <ele>776.7</ele>
        <time>2022-07-14T06:50:37Z</time>
      </trkpt>
      <trkpt lat="44.78367" lon="5.69823">
        <ele>776.9</ele>
        <time>2022-07-14T06:50:38Z</time>
      </trkpt>
      <trkpt lat="44.78365" lon="5.69829">
        <ele>777.1</ele>
        <time>2022-07-14T06:50:39Z</time>
      </trkpt>
      <trkpt lat="44.78363" lon="5.69835">
        <ele>777.3</ele>
        <time>2022-07-14T06:50:40Z</time>
      </trkpt>
      <trkpt lat="44.7836" lon="5.69841">
        <ele>777.4</ele>
        <time>2022-07-14T06:50:41Z</time>
      </trkpt>
      <trkpt lat="44.78358" lon="5.69847">
        <ele>777.5</ele>
        <time>2022-07-14T06:50:42Z</time>
      </trkpt>
      <trkpt lat="44.78356" lon="5.69854">
        <ele>777.7</ele>
        <time>2022-07-14T06:50:43Z</time>
      </trkpt>
      <trkpt lat="44.78354" lon="5.69859">
        <ele>777.8</ele>
        <time>2022-07-14T06:50:44Z</time>
      </trkpt>
      <trkpt lat="44.78352" lon="5.69865">
        <ele>778</ele>
        <time>2022-07-14T06:50:45Z</time>
      </trkpt>
      <trkpt lat="44.78351" lon="5.69868">
        <ele>778.1</ele>
        <time>2022-07-14T06:50:46Z</time>
      </trkpt>
      <trkpt lat="44.78349" lon="5.69874">
        <ele>778.3</ele>
        <time>2022-07-14T06:50:47Z</time>
      </trkpt>
      <trkpt lat="44.78348" lon="5.69878">
        <ele>778.4</ele>
        <time>2022-07-14T06:50:48Z</time>
      </trkpt>
      <trkpt lat="44.78345" lon="5.69885">
        <ele>778.6</ele>
        <time>2022-07-14T06:50:49Z</time>
      </trkpt>
      <trkpt lat="44.78343" lon="5.6989">
        <ele>778.8</ele>
        <time>2022-07-14T06:50:50Z</time>
      </trkpt>
      <trkpt lat="44.78343" lon="5.69892">
        <ele>778.9</ele>
        <time>2022-07-14T06:50:51Z</time>
      </trkpt>
      <trkpt lat="44.78337" lon="5.69901">
        <ele>779.2</ele>
        <time>2022-07-14T06:50:52Z</time>
      </trkpt>
      <trkpt lat="44.78334" lon="5.69902">
        <ele>779.3</ele>
        <time>2022-07-14T06:50:53Z</time>
      </trkpt>
      <trkpt lat="44.78334" lon="5.69909">
        <ele>779.5</ele>
        <time>2022-07-14T06:50:55Z</time>
      </trkpt>
      <trkpt lat="44.78331" lon="5.69917">
        <ele>779.8</ele>
        <time>2022-07-14T06:50:56Z</time>
      </trkpt>
      <trkpt lat="44.78326" lon="5.69935">
        <ele>780.3</ele>
        <time>2022-07-14T06:50:58Z</time>
      </trkpt>
      <trkpt lat="44.78322" lon="5.69947">
        <ele>780.6</ele>
        <time>2022-07-14T06:51:00Z</time>
      </trkpt>
      <trkpt lat="44.78323" lon="5.69951">
        <ele>780.7</ele>
        <time>2022-07-14T06:51:01Z</time>
      </trkpt>
      <trkpt lat="44.78321" lon="5.69959">
        <ele>780.9</ele>
        <time>2022-07-14T06:51:02Z</time>
      </trkpt>
      <trkpt lat="44.7832" lon="5.69965">
        <ele>781</ele>
        <time>2022-07-14T06:51:03Z</time>
      </trkpt>
      <trkpt lat="44.78319" lon="5.69976">
        <ele>781.3</ele>
        <time>2022-07-14T06:51:05Z</time>
      </trkpt>
      <trkpt lat="44.78317" lon="5.69984">
        <ele>781.5</ele>
        <time>2022-07-14T06:51:06Z</time>
      </trkpt>
      <trkpt lat="44.78315" lon="5.69995">
        <ele>781.8</ele>
        <time>2022-07-14T06:51:08Z</time>
      </trkpt>
      <trkpt lat="44.78314" lon="5.70002">
        <ele>782</ele>
        <time>2022-07-14T06:51:09Z</time>
      </trkpt>
      <trkpt lat="44.78313" lon="5.70012">
        <ele>782.3</ele>
        <time>2022-07-14T06:51:11Z</time>
      </trkpt>
      <trkpt lat="44.78312" lon="5.7002">
        <ele>782.6</ele>
        <time>2022-07-14T06:51:12Z</time>
      </trkpt>
      <trkpt lat="44.78311" lon="5.70031">
        <ele>782.9</ele>
        <time>2022-07-14T06:51:14Z</time>
      </trkpt>
      <trkpt lat="44.78309" lon="5.70037">
        <ele>783.1</ele>
        <time>2022-07-14T06:51:15Z</time>
      </trkpt>
      <trkpt lat="44.78307" lon="5.70043">
        <ele>783.3</ele>
        <time>2022-07-14T06:51:16Z</time>
      </trkpt>
      <trkpt lat="44.78308" lon="5.7005">
        <ele>783.6</ele>
        <time>2022-07-14T06:51:17Z</time>
      </trkpt>
      <trkpt lat="44.78307" lon="5.70062">
        <ele>784</ele>
        <time>2022-07-14T06:51:19Z</time>
      </trkpt>
      <trkpt lat="44.78306" lon="5.70078">
        <ele>784.6</ele>
        <time>2022-07-14T06:51:21Z</time>
      </trkpt>
      <trkpt lat="44.78305" lon="5.70086">
        <ele>784.9</ele>
        <time>2022-07-14T06:51:23Z</time>
      </trkpt>
      <trkpt lat="44.78303" lon="5.70096">
        <ele>785.2</ele>
        <time>2022-07-14T06:51:25Z</time>
      </trkpt>
      <trkpt lat="44.78303" lon="5.70103">
        <ele>785.5</ele>
        <time>2022-07-14T06:51:26Z</time>
      </trkpt>
      <trkpt lat="44.78302" lon="5.70107">
        <ele>785.6</ele>
        <time>2022-07-14T06:51:27Z</time>
      </trkpt>
      <trkpt lat="44.78302" lon="5.70113">
        <ele>785.8</ele>
        <time>2022-07-14T06:51:28Z</time>
      </trkpt>
      <trkpt lat="44.78301" lon="5.70125">
        <ele>786.2</ele>
        <time>2022-07-14T06:51:30Z</time>
      </trkpt>
      <trkpt lat="44.78302" lon="5.70136">
        <ele>786.6</ele>
        <time>2022-07-14T06:51:32Z</time>
      </trkpt>
      <trkpt lat="44.78302" lon="5.70144">
        <ele>786.8</ele>
        <time>2022-07-14T06:51:33Z</time>
      </trkpt>
      <trkpt lat="44.78303" lon="5.70154">
        <ele>787.2</ele>
        <time>2022-07-14T06:51:34Z</time>
      </trkpt>
      <trkpt lat="44.78304" lon="5.70175">
        <ele>787.9</ele>
        <time>2022-07-14T06:51:37Z</time>
      </trkpt>
      <trkpt lat="44.78308" lon="5.7018">
        <ele>788.1</ele>
        <time>2022-07-14T06:51:39Z</time>
      </trkpt>
      <trkpt lat="44.78311" lon="5.70187">
        <ele>788.4</ele>
        <time>2022-07-14T06:51:41Z</time>
      </trkpt>
      <trkpt lat="44.78308" lon="5.70197">
        <ele>788.7</ele>
        <time>2022-07-14T06:51:42Z</time>
      </trkpt>
      <trkpt lat="44.78308" lon="5.70205">
        <ele>788.9</ele>
        <time>2022-07-14T06:51:43Z</time>
      </trkpt>
      <trkpt lat="44.78307" lon="5.70209">
        <ele>789</ele>
        <time>2022-07-14T06:51:44Z</time>
      </trkpt>
      <trkpt lat="44.78308" lon="5.70215">
        <ele>789.2</ele>
        <time>2022-07-14T06:51:45Z</time>
      </trkpt>
      <trkpt lat="44.78309" lon="5.70221">
        <ele>789.4</ele>
        <time>2022-07-14T06:51:46Z</time>
      </trkpt>
      <trkpt lat="44.7831" lon="5.70231">
        <ele>789.8</ele>
        <time>2022-07-14T06:51:48Z</time>
      </trkpt>
      <trkpt lat="44.78311" lon="5.70236">
        <ele>790</ele>
        <time>2022-07-14T06:51:49Z</time>
      </trkpt>
      <trkpt lat="44.78312" lon="5.70243">
        <ele>790.2</ele>
        <time>2022-07-14T06:51:50Z</time>
      </trkpt>
      <trkpt lat="44.78314" lon="5.70257">
        <ele>790.7</ele>
        <time>2022-07-14T06:51:53Z</time>
      </trkpt>
      <trkpt lat="44.78313" lon="5.70262">
        <ele>790.9</ele>
        <time>2022-07-14T06:51:54Z</time>
      </trkpt>
      <trkpt lat="44.78313" lon="5.70269">
        <ele>791.1</ele>
        <time>2022-07-14T06:51:55Z</time>
      </trkpt>
      <trkpt lat="44.78312" lon="5.70282">
        <ele>791.6</ele>
        <time>2022-07-14T06:51:57Z</time>
      </trkpt>
      <trkpt lat="44.78309" lon="5.7029">
        <ele>791.9</ele>
        <time>2022-07-14T06:51:59Z</time>
      </trkpt>
      <trkpt lat="44.78307" lon="5.70295">
        <ele>792.2</ele>
        <time>2022-07-14T06:52:00Z</time>
      </trkpt>
      <trkpt lat="44.78305" lon="5.703">
        <ele>792.4</ele>
        <time>2022-07-14T06:52:01Z</time>
      </trkpt>
      <trkpt lat="44.783" lon="5.70309">
        <ele>792.8</ele>
        <time>2022-07-14T06:52:03Z</time>
      </trkpt>
      <trkpt lat="44.78297" lon="5.70317">
        <ele>793.2</ele>
        <time>2022-07-14T06:52:05Z</time>
      </trkpt>
      <trkpt lat="44.78294" lon="5.70321">
        <ele>793.4</ele>
        <time>2022-07-14T06:52:06Z</time>
      </trkpt>
      <trkpt lat="44.78291" lon="5.70325">
        <ele>793.7</ele>
        <time>2022-07-14T06:52:07Z</time>
      </trkpt>
      <trkpt lat="44.78288" lon="5.70329">
        <ele>793.9</ele>
        <time>2022-07-14T06:52:08Z</time>
      </trkpt>
      <trkpt lat="44.78284" lon="5.70335">
        <ele>794.3</ele>
        <time>2022-07-14T06:52:09Z</time>
      </trkpt>
      <trkpt lat="44.78282" lon="5.70339">
        <ele>794.5</ele>
        <time>2022-07-14T06:52:10Z</time>
      </trkpt>
      <trkpt lat="44.78279" lon="5.70342">
        <ele>794.7</ele>
        <time>2022-07-14T06:52:12Z</time>
      </trkpt>
      <trkpt lat="44.78274" lon="5.7035">
        <ele>795.1</ele>
        <time>2022-07-14T06:52:14Z</time>
      </trkpt>
      <trkpt lat="44.78271" lon="5.70354">
        <ele>795.4</ele>
        <time>2022-07-14T06:52:15Z</time>
      </trkpt>
      <trkpt lat="44.78269" lon="5.70357">
        <ele>795.6</ele>
        <time>2022-07-14T06:52:16Z</time>
      </trkpt>
      <trkpt lat="44.78266" lon="5.70365">
        <ele>795.9</ele>
        <time>2022-07-14T06:52:18Z</time>
      </trkpt>
      <trkpt lat="44.78265" lon="5.70368">
        <ele>796</ele>
        <time>2022-07-14T06:52:19Z</time>
      </trkpt>
      <trkpt lat="44.78261" lon="5.70377">
        <ele>796.4</ele>
        <time>2022-07-14T06:52:21Z</time>
      </trkpt>
      <trkpt lat="44.78259" lon="5.70385">
        <ele>796.7</ele>
        <time>2022-07-14T06:52:23Z</time>
      </trkpt>
      <trkpt lat="44.78256" lon="5.70396">
        <ele>797.1</ele>
        <time>2022-07-14T06:52:25Z</time>
      </trkpt>
      <trkpt lat="44.78252" lon="5.70406">
        <ele>797.3</ele>
        <time>2022-07-14T06:52:27Z</time>
      </trkpt>
      <trkpt lat="44.78251" lon="5.7041">
        <ele>797.4</ele>
        <time>2022-07-14T06:52:28Z</time>
      </trkpt>
      <trkpt lat="44.78249" lon="5.70418">
        <ele>797.6</ele>
        <time>2022-07-14T06:52:30Z</time>
      </trkpt>
      <trkpt lat="44.78246" lon="5.70425">
        <ele>797.8</ele>
        <time>2022-07-14T06:52:31Z</time>
      </trkpt>
      <trkpt lat="44.78242" lon="5.70436">
        <ele>798</ele>
        <time>2022-07-14T06:52:33Z</time>
      </trkpt>
      <trkpt lat="44.78239" lon="5.70444">
        <ele>798.2</ele>
        <time>2022-07-14T06:52:35Z</time>
      </trkpt>
      <trkpt lat="44.78237" lon="5.7045">
        <ele>798.3</ele>
        <time>2022-07-14T06:52:36Z</time>
      </trkpt>
      <trkpt lat="44.78232" lon="5.7047">
        <ele>798.6</ele>
        <time>2022-07-14T06:52:38Z</time>
      </trkpt>
      <trkpt lat="44.78233" lon="5.70476">
        <ele>798.7</ele>
        <time>2022-07-14T06:52:39Z</time>
      </trkpt>
      <trkpt lat="44.78227" lon="5.70487">
        <ele>799</ele>
        <time>2022-07-14T06:52:41Z</time>
      </trkpt>
      <trkpt lat="44.7822" lon="5.70489">
        <ele>799.1</ele>
        <time>2022-07-14T06:52:43Z</time>
      </trkpt>
      <trkpt lat="44.7822" lon="5.70503">
        <ele>799.3</ele>
        <time>2022-07-14T06:52:44Z</time>
      </trkpt>
      <trkpt lat="44.78221" lon="5.70512">
        <ele>799.3</ele>
        <time>2022-07-14T06:52:46Z</time>
      </trkpt>
      <trkpt lat="44.78211" lon="5.7053">
        <ele>799.6</ele>
        <time>2022-07-14T06:52:48Z</time>
      </trkpt>
      <trkpt lat="44.78204" lon="5.70547">
        <ele>800</ele>
        <time>2022-07-14T06:52:51Z</time>
      </trkpt>
      <trkpt lat="44.78207" lon="5.70552">
        <ele>800.1</ele>
        <time>2022-07-14T06:52:53Z</time>
      </trkpt>
      <trkpt lat="44.78203" lon="5.70555">
        <ele>800.3</ele>
        <time>2022-07-14T06:52:54Z</time>
      </trkpt>
      <trkpt lat="44.78199" lon="5.70566">
        <ele>800.5</ele>
        <time>2022-07-14T06:52:56Z</time>
      </trkpt>
      <trkpt lat="44.78197" lon="5.70576">
        <ele>800.7</ele>
        <time>2022-07-14T06:52:57Z</time>
      </trkpt>
      <trkpt lat="44.78195" lon="5.70581">
        <ele>800.8</ele>
        <time>2022-07-14T06:52:58Z</time>
      </trkpt>
      <trkpt lat="44.78191" lon="5.70594">
        <ele>801.1</ele>
        <time>2022-07-14T06:53:00Z</time>
      </trkpt>
      <trkpt lat="44.7819" lon="5.70598">
        <ele>801.2</ele>
        <time>2022-07-14T06:53:01Z</time>
      </trkpt>
      <trkpt lat="44.78189" lon="5.70603">
        <ele>801.3</ele>
        <time>2022-07-14T06:53:02Z</time>
      </trkpt>
      <trkpt lat="44.78189" lon="5.7061">
        <ele>801.5</ele>
        <time>2022-07-14T06:53:03Z</time>
      </trkpt>
      <trkpt lat="44.78188" lon="5.70623">
        <ele>801.8</ele>
        <time>2022-07-14T06:53:05Z</time>
      </trkpt>
      <trkpt lat="44.78187" lon="5.70633">
        <ele>802</ele>
        <time>2022-07-14T06:53:06Z</time>
      </trkpt>
      <trkpt lat="44.78189" lon="5.7064">
        <ele>802.2</ele>
        <time>2022-07-14T06:53:08Z</time>
      </trkpt>
      <trkpt lat="44.7819" lon="5.70645">
        <ele>802.3</ele>
        <time>2022-07-14T06:53:09Z</time>
      </trkpt>
      <trkpt lat="44.78191" lon="5.70652">
        <ele>802.5</ele>
        <time>2022-07-14T06:53:10Z</time>
      </trkpt>
      <trkpt lat="44.78192" lon="5.70659">
        <ele>802.7</ele>
        <time>2022-07-14T06:53:11Z</time>
      </trkpt>
      <trkpt lat="44.78194" lon="5.70666">
        <ele>803</ele>
        <time>2022-07-14T06:53:12Z</time>
      </trkpt>
      <trkpt lat="44.78196" lon="5.70675">
        <ele>803.2</ele>
        <time>2022-07-14T06:53:14Z</time>
      </trkpt>
      <trkpt lat="44.78199" lon="5.70679">
        <ele>803.4</ele>
        <time>2022-07-14T06:53:15Z</time>
      </trkpt>
      <trkpt lat="44.782" lon="5.70684">
        <ele>803.5</ele>
        <time>2022-07-14T06:53:16Z</time>
      </trkpt>
      <trkpt lat="44.78202" lon="5.70691">
        <ele>803.8</ele>
        <time>2022-07-14T06:53:17Z</time>
      </trkpt>
      <trkpt lat="44.78204" lon="5.70697">
        <ele>804</ele>
        <time>2022-07-14T06:53:18Z</time>
      </trkpt>
      <trkpt lat="44.78206" lon="5.7071">
        <ele>804.4</ele>
        <time>2022-07-14T06:53:21Z</time>
      </trkpt>
      <trkpt lat="44.78209" lon="5.70723">
        <ele>804.8</ele>
        <time>2022-07-14T06:53:23Z</time>
      </trkpt>
      <trkpt lat="44.78211" lon="5.70726">
        <ele>804.9</ele>
        <time>2022-07-14T06:53:24Z</time>
      </trkpt>
      <trkpt lat="44.78215" lon="5.70734">
        <ele>805.2</ele>
        <time>2022-07-14T06:53:26Z</time>
      </trkpt>
      <trkpt lat="44.78217" lon="5.7074">
        <ele>805.3</ele>
        <time>2022-07-14T06:53:27Z</time>
      </trkpt>
      <trkpt lat="44.78223" lon="5.70752">
        <ele>805.7</ele>
        <time>2022-07-14T06:53:29Z</time>
      </trkpt>
      <trkpt lat="44.78224" lon="5.70756">
        <ele>805.8</ele>
        <time>2022-07-14T06:53:30Z</time>
      </trkpt>
      <trkpt lat="44.78227" lon="5.70761">
        <ele>806</ele>
        <time>2022-07-14T06:53:31Z</time>
      </trkpt>
      <trkpt lat="44.78233" lon="5.70776">
        <ele>806.5</ele>
        <time>2022-07-14T06:53:33Z</time>
      </trkpt>
      <trkpt lat="44.78236" lon="5.70783">
        <ele>806.7</ele>
        <time>2022-07-14T06:53:34Z</time>
      </trkpt>
      <trkpt lat="44.78239" lon="5.70786">
        <ele>806.9</ele>
        <time>2022-07-14T06:53:36Z</time>
      </trkpt>
      <trkpt lat="44.78243" lon="5.70794">
        <ele>807.1</ele>
        <time>2022-07-14T06:53:37Z</time>
      </trkpt>
      <trkpt lat="44.78245" lon="5.70799">
        <ele>807.3</ele>
        <time>2022-07-14T06:53:38Z</time>
      </trkpt>
      <trkpt lat="44.78248" lon="5.70809">
        <ele>807.6</ele>
        <time>2022-07-14T06:53:40Z</time>
      </trkpt>
      <trkpt lat="44.78253" lon="5.70818">
        <ele>808</ele>
        <time>2022-07-14T06:53:42Z</time>
      </trkpt>
      <trkpt lat="44.78258" lon="5.70828">
        <ele>808.3</ele>
        <time>2022-07-14T06:53:44Z</time>
      </trkpt>
      <trkpt lat="44.7826" lon="5.70835">
        <ele>808.6</ele>
        <time>2022-07-14T06:53:45Z</time>
      </trkpt>
      <trkpt lat="44.78263" lon="5.7084">
        <ele>808.8</ele>
        <time>2022-07-14T06:53:46Z</time>
      </trkpt>
      <trkpt lat="44.78266" lon="5.70845">
        <ele>808.9</ele>
        <time>2022-07-14T06:53:47Z</time>
      </trkpt>
      <trkpt lat="44.78268" lon="5.70849">
        <ele>809.1</ele>
        <time>2022-07-14T06:53:48Z</time>
      </trkpt>
      <trkpt lat="44.78271" lon="5.70853">
        <ele>809.3</ele>
        <time>2022-07-14T06:53:49Z</time>
      </trkpt>
      <trkpt lat="44.78274" lon="5.70862">
        <ele>809.6</ele>
        <time>2022-07-14T06:53:51Z</time>
      </trkpt>
      <trkpt lat="44.78277" lon="5.7087">
        <ele>809.9</ele>
        <time>2022-07-14T06:53:53Z</time>
      </trkpt>
      <trkpt lat="44.78279" lon="5.70875">
        <ele>810</ele>
        <time>2022-07-14T06:53:54Z</time>
      </trkpt>
      <trkpt lat="44.78282" lon="5.70883">
        <ele>810.3</ele>
        <time>2022-07-14T06:53:56Z</time>
      </trkpt>
      <trkpt lat="44.78285" lon="5.70888">
        <ele>810.5</ele>
        <time>2022-07-14T06:53:57Z</time>
      </trkpt>
      <trkpt lat="44.7829" lon="5.70898">
        <ele>810.8</ele>
        <time>2022-07-14T06:53:59Z</time>
      </trkpt>
      <trkpt lat="44.78293" lon="5.70905">
        <ele>811.1</ele>
        <time>2022-07-14T06:54:01Z</time>
      </trkpt>
      <trkpt lat="44.78301" lon="5.7092">
        <ele>811.7</ele>
        <time>2022-07-14T06:54:04Z</time>
      </trkpt>
      <trkpt lat="44.78303" lon="5.70925">
        <ele>811.9</ele>
        <time>2022-07-14T06:54:05Z</time>
      </trkpt>
      <trkpt lat="44.78305" lon="5.70929">
        <ele>812.1</ele>
        <time>2022-07-14T06:54:06Z</time>
      </trkpt>
      <trkpt lat="44.7831" lon="5.70941">
        <ele>812.6</ele>
        <time>2022-07-14T06:54:08Z</time>
      </trkpt>
      <trkpt lat="44.7831" lon="5.70945">
        <ele>812.7</ele>
        <time>2022-07-14T06:54:09Z</time>
      </trkpt>
      <trkpt lat="44.78311" lon="5.70951">
        <ele>812.9</ele>
        <time>2022-07-14T06:54:10Z</time>
      </trkpt>
      <trkpt lat="44.78314" lon="5.70962">
        <ele>813.3</ele>
        <time>2022-07-14T06:54:12Z</time>
      </trkpt>
      <trkpt lat="44.78316" lon="5.70974">
        <ele>813.6</ele>
        <time>2022-07-14T06:54:13Z</time>
      </trkpt>
      <trkpt lat="44.78316" lon="5.70982">
        <ele>813.8</ele>
        <time>2022-07-14T06:54:15Z</time>
      </trkpt>
      <trkpt lat="44.78316" lon="5.70987">
        <ele>814</ele>
        <time>2022-07-14T06:54:16Z</time>
      </trkpt>
      <trkpt lat="44.78316" lon="5.70994">
        <ele>814.2</ele>
        <time>2022-07-14T06:54:17Z</time>
      </trkpt>
      <trkpt lat="44.78315" lon="5.71008">
        <ele>814.5</ele>
        <time>2022-07-14T06:54:19Z</time>
      </trkpt>
      <trkpt lat="44.78315" lon="5.71014">
        <ele>814.6</ele>
        <time>2022-07-14T06:54:20Z</time>
      </trkpt>
      <trkpt lat="44.78312" lon="5.71026">
        <ele>814.9</ele>
        <time>2022-07-14T06:54:22Z</time>
      </trkpt>
      <trkpt lat="44.78311" lon="5.71032">
        <ele>815</ele>
        <time>2022-07-14T06:54:23Z</time>
      </trkpt>
      <trkpt lat="44.78309" lon="5.71039">
        <ele>815.1</ele>
        <time>2022-07-14T06:54:24Z</time>
      </trkpt>
      <trkpt lat="44.78306" lon="5.71047">
        <ele>815.3</ele>
        <time>2022-07-14T06:54:25Z</time>
      </trkpt>
      <trkpt lat="44.78305" lon="5.71052">
        <ele>815.4</ele>
        <time>2022-07-14T06:54:26Z</time>
      </trkpt>
      <trkpt lat="44.78304" lon="5.71057">
        <ele>815.5</ele>
        <time>2022-07-14T06:54:27Z</time>
      </trkpt>
      <trkpt lat="44.78302" lon="5.71063">
        <ele>815.6</ele>
        <time>2022-07-14T06:54:28Z</time>
      </trkpt>
      <trkpt lat="44.783" lon="5.71072">
        <ele>815.8</ele>
        <time>2022-07-14T06:54:30Z</time>
      </trkpt>
      <trkpt lat="44.78294" lon="5.71087">
        <ele>816.2</ele>
        <time>2022-07-14T06:54:33Z</time>
      </trkpt>
      <trkpt lat="44.78291" lon="5.71094">
        <ele>816.4</ele>
        <time>2022-07-14T06:54:34Z</time>
      </trkpt>
      <trkpt lat="44.78289" lon="5.71101">
        <ele>816.6</ele>
        <time>2022-07-14T06:54:35Z</time>
      </trkpt>
      <trkpt lat="44.78287" lon="5.71111">
        <ele>816.8</ele>
        <time>2022-07-14T06:54:37Z</time>
      </trkpt>
      <trkpt lat="44.78283" lon="5.71122">
        <ele>817.2</ele>
        <time>2022-07-14T06:54:39Z</time>
      </trkpt>
      <trkpt lat="44.7828" lon="5.71129">
        <ele>817.4</ele>
        <time>2022-07-14T06:54:40Z</time>
      </trkpt>
      <trkpt lat="44.78277" lon="5.7114">
        <ele>817.8</ele>
        <time>2022-07-14T06:54:42Z</time>
      </trkpt>
      <trkpt lat="44.78275" lon="5.71146">
        <ele>818</ele>
        <time>2022-07-14T06:54:43Z</time>
      </trkpt>
      <trkpt lat="44.78272" lon="5.71156">
        <ele>818.4</ele>
        <time>2022-07-14T06:54:45Z</time>
      </trkpt>
      <trkpt lat="44.78269" lon="5.71161">
        <ele>818.6</ele>
        <time>2022-07-14T06:54:46Z</time>
      </trkpt>
      <trkpt lat="44.78266" lon="5.7117">
        <ele>818.9</ele>
        <time>2022-07-14T06:54:48Z</time>
      </trkpt>
      <trkpt lat="44.78263" lon="5.7118">
        <ele>819.3</ele>
        <time>2022-07-14T06:54:50Z</time>
      </trkpt>
      <trkpt lat="44.7826" lon="5.71185">
        <ele>819.5</ele>
        <time>2022-07-14T06:54:51Z</time>
      </trkpt>
      <trkpt lat="44.78258" lon="5.71193">
        <ele>819.8</ele>
        <time>2022-07-14T06:54:53Z</time>
      </trkpt>
      <trkpt lat="44.78255" lon="5.71202">
        <ele>820.1</ele>
        <time>2022-07-14T06:54:54Z</time>
      </trkpt>
      <trkpt lat="44.78252" lon="5.71212">
        <ele>820.5</ele>
        <time>2022-07-14T06:54:55Z</time>
      </trkpt>
      <trkpt lat="44.78251" lon="5.71217">
        <ele>820.7</ele>
        <time>2022-07-14T06:54:57Z</time>
      </trkpt>
      <trkpt lat="44.78248" lon="5.71226">
        <ele>821</ele>
        <time>2022-07-14T06:54:59Z</time>
      </trkpt>
      <trkpt lat="44.78245" lon="5.71232">
        <ele>821.3</ele>
        <time>2022-07-14T06:55:00Z</time>
      </trkpt>
      <trkpt lat="44.78242" lon="5.71237">
        <ele>821.5</ele>
        <time>2022-07-14T06:55:01Z</time>
      </trkpt>
      <trkpt lat="44.78239" lon="5.71245">
        <ele>821.9</ele>
        <time>2022-07-14T06:55:03Z</time>
      </trkpt>
      <trkpt lat="44.78237" lon="5.71251">
        <ele>822.1</ele>
        <time>2022-07-14T06:55:04Z</time>
      </trkpt>
      <trkpt lat="44.78232" lon="5.71261">
        <ele>822.6</ele>
        <time>2022-07-14T06:55:06Z</time>
      </trkpt>
      <trkpt lat="44.78227" lon="5.71278">
        <ele>823.2</ele>
        <time>2022-07-14T06:55:09Z</time>
      </trkpt>
      <trkpt lat="44.78227" lon="5.71285">
        <ele>823.5</ele>
        <time>2022-07-14T06:55:10Z</time>
      </trkpt>
      <trkpt lat="44.78228" lon="5.71297">
        <ele>823.8</ele>
        <time>2022-07-14T06:55:12Z</time>
      </trkpt>
      <trkpt lat="44.78228" lon="5.71307">
        <ele>824.1</ele>
        <time>2022-07-14T06:55:14Z</time>
      </trkpt>
      <trkpt lat="44.78231" lon="5.71316">
        <ele>824.4</ele>
        <time>2022-07-14T06:55:16Z</time>
      </trkpt>
      <trkpt lat="44.78231" lon="5.71322">
        <ele>824.6</ele>
        <time>2022-07-14T06:55:17Z</time>
      </trkpt>
      <trkpt lat="44.78232" lon="5.71329">
        <ele>824.8</ele>
        <time>2022-07-14T06:55:18Z</time>
      </trkpt>
      <trkpt lat="44.78232" lon="5.71338">
        <ele>825.1</ele>
        <time>2022-07-14T06:55:20Z</time>
      </trkpt>
      <trkpt lat="44.78233" lon="5.71345">
        <ele>825.4</ele>
        <time>2022-07-14T06:55:21Z</time>
      </trkpt>
      <trkpt lat="44.78234" lon="5.71355">
        <ele>825.7</ele>
        <time>2022-07-14T06:55:22Z</time>
      </trkpt>
      <trkpt lat="44.78235" lon="5.71368">
        <ele>826.2</ele>
        <time>2022-07-14T06:55:24Z</time>
      </trkpt>
      <trkpt lat="44.78234" lon="5.71371">
        <ele>826.3</ele>
        <time>2022-07-14T06:55:25Z</time>
      </trkpt>
      <trkpt lat="44.78234" lon="5.71379">
        <ele>826.6</ele>
        <time>2022-07-14T06:55:27Z</time>
      </trkpt>
      <trkpt lat="44.78234" lon="5.71384">
        <ele>826.7</ele>
        <time>2022-07-14T06:55:28Z</time>
      </trkpt>
      <trkpt lat="44.78235" lon="5.71396">
        <ele>827.2</ele>
        <time>2022-07-14T06:55:30Z</time>
      </trkpt>
      <trkpt lat="44.78235" lon="5.714">
        <ele>827.3</ele>
        <time>2022-07-14T06:55:31Z</time>
      </trkpt>
      <trkpt lat="44.78237" lon="5.71406">
        <ele>827.5</ele>
        <time>2022-07-14T06:55:32Z</time>
      </trkpt>
      <trkpt lat="44.78238" lon="5.71409">
        <ele>827.6</ele>
        <time>2022-07-14T06:55:33Z</time>
      </trkpt>
      <trkpt lat="44.78239" lon="5.71417">
        <ele>827.9</ele>
        <time>2022-07-14T06:55:35Z</time>
      </trkpt>
      <trkpt lat="44.78239" lon="5.71423">
        <ele>828.1</ele>
        <time>2022-07-14T06:55:36Z</time>
      </trkpt>
      <trkpt lat="44.78239" lon="5.71426">
        <ele>828.2</ele>
        <time>2022-07-14T06:55:37Z</time>
      </trkpt>
      <trkpt lat="44.78239" lon="5.71439">
        <ele>828.6</ele>
        <time>2022-07-14T06:55:39Z</time>
      </trkpt>
      <trkpt lat="44.7824" lon="5.71443">
        <ele>828.8</ele>
        <time>2022-07-14T06:55:40Z</time>
      </trkpt>
      <trkpt lat="44.7824" lon="5.71449">
        <ele>829</ele>
        <time>2022-07-14T06:55:41Z</time>
      </trkpt>
      <trkpt lat="44.78241" lon="5.71458">
        <ele>829.3</ele>
        <time>2022-07-14T06:55:43Z</time>
      </trkpt>
      <trkpt lat="44.78241" lon="5.71465">
        <ele>829.5</ele>
        <time>2022-07-14T06:55:44Z</time>
      </trkpt>
      <trkpt lat="44.78242" lon="5.71478">
        <ele>829.9</ele>
        <time>2022-07-14T06:55:46Z</time>
      </trkpt>
      <trkpt lat="44.78242" lon="5.71485">
        <ele>830.2</ele>
        <time>2022-07-14T06:55:47Z</time>
      </trkpt>
      <trkpt lat="44.78241" lon="5.71492">
        <ele>830.4</ele>
        <time>2022-07-14T06:55:48Z</time>
      </trkpt>
      <trkpt lat="44.78241" lon="5.715">
        <ele>830.6</ele>
        <time>2022-07-14T06:55:49Z</time>
      </trkpt>
      <trkpt lat="44.78242" lon="5.71515">
        <ele>831.1</ele>
        <time>2022-07-14T06:55:51Z</time>
      </trkpt>
      <trkpt lat="44.78241" lon="5.7152">
        <ele>831.3</ele>
        <time>2022-07-14T06:55:53Z</time>
      </trkpt>
      <trkpt lat="44.78241" lon="5.71524">
        <ele>831.4</ele>
        <time>2022-07-14T06:55:54Z</time>
      </trkpt>
      <trkpt lat="44.78242" lon="5.71529">
        <ele>831.5</ele>
        <time>2022-07-14T06:55:55Z</time>
      </trkpt>
      <trkpt lat="44.78242" lon="5.71535">
        <ele>831.7</ele>
        <time>2022-07-14T06:55:56Z</time>
      </trkpt>
      <trkpt lat="44.78242" lon="5.71541">
        <ele>831.9</ele>
        <time>2022-07-14T06:55:57Z</time>
      </trkpt>
      <trkpt lat="44.78241" lon="5.71554">
        <ele>832.2</ele>
        <time>2022-07-14T06:55:59Z</time>
      </trkpt>
      <trkpt lat="44.7824" lon="5.7156">
        <ele>832.4</ele>
        <time>2022-07-14T06:56:00Z</time>
      </trkpt>
      <trkpt lat="44.78238" lon="5.71573">
        <ele>832.8</ele>
        <time>2022-07-14T06:56:02Z</time>
      </trkpt>
      <trkpt lat="44.78237" lon="5.71581">
        <ele>832.9</ele>
        <time>2022-07-14T06:56:03Z</time>
      </trkpt>
      <trkpt lat="44.78237" lon="5.71586">
        <ele>833</ele>
        <time>2022-07-14T06:56:04Z</time>
      </trkpt>
      <trkpt lat="44.78238" lon="5.71593">
        <ele>833.2</ele>
        <time>2022-07-14T06:56:05Z</time>
      </trkpt>
      <trkpt lat="44.78235" lon="5.7161">
        <ele>833.6</ele>
        <time>2022-07-14T06:56:08Z</time>
      </trkpt>
      <trkpt lat="44.78235" lon="5.71624">
        <ele>833.9</ele>
        <time>2022-07-14T06:56:10Z</time>
      </trkpt>
      <trkpt lat="44.78232" lon="5.71635">
        <ele>834.1</ele>
        <time>2022-07-14T06:56:11Z</time>
      </trkpt>
      <trkpt lat="44.78232" lon="5.71644">
        <ele>834.2</ele>
        <time>2022-07-14T06:56:13Z</time>
      </trkpt>
      <trkpt lat="44.78231" lon="5.7165">
        <ele>834.3</ele>
        <time>2022-07-14T06:56:14Z</time>
      </trkpt>
      <trkpt lat="44.7823" lon="5.71659">
        <ele>834.4</ele>
        <time>2022-07-14T06:56:16Z</time>
      </trkpt>
      <trkpt lat="44.78228" lon="5.71672">
        <ele>834.5</ele>
        <time>2022-07-14T06:56:18Z</time>
      </trkpt>
      <trkpt lat="44.78223" lon="5.71684">
        <ele>834.6</ele>
        <time>2022-07-14T06:56:21Z</time>
      </trkpt>
      <trkpt lat="44.7822" lon="5.71691">
        <ele>834.6</ele>
        <time>2022-07-14T06:56:22Z</time>
      </trkpt>
      <trkpt lat="44.78218" lon="5.71698">
        <ele>834.5</ele>
        <time>2022-07-14T06:56:23Z</time>
      </trkpt>
      <trkpt lat="44.78215" lon="5.71706">
        <ele>834.4</ele>
        <time>2022-07-14T06:56:24Z</time>
      </trkpt>
      <trkpt lat="44.78212" lon="5.71713">
        <ele>834.3</ele>
        <time>2022-07-14T06:56:25Z</time>
      </trkpt>
      <trkpt lat="44.78209" lon="5.7172">
        <ele>834.1</ele>
        <time>2022-07-14T06:56:26Z</time>
      </trkpt>
      <trkpt lat="44.78206" lon="5.71728">
        <ele>833.9</ele>
        <time>2022-07-14T06:56:27Z</time>
      </trkpt>
      <trkpt lat="44.78203" lon="5.71736">
        <ele>833.7</ele>
        <time>2022-07-14T06:56:28Z</time>
      </trkpt>
      <trkpt lat="44.782" lon="5.71744">
        <ele>833.4</ele>
        <time>2022-07-14T06:56:29Z</time>
      </trkpt>
      <trkpt lat="44.78197" lon="5.71751">
        <ele>833.2</ele>
        <time>2022-07-14T06:56:30Z</time>
      </trkpt>
      <trkpt lat="44.78194" lon="5.71759">
        <ele>833</ele>
        <time>2022-07-14T06:56:31Z</time>
      </trkpt>
      <trkpt lat="44.78192" lon="5.71768">
        <ele>832.8</ele>
        <time>2022-07-14T06:56:32Z</time>
      </trkpt>
      <trkpt lat="44.78189" lon="5.71777">
        <ele>832.5</ele>
        <time>2022-07-14T06:56:33Z</time>
      </trkpt>
      <trkpt lat="44.78186" lon="5.71786">
        <ele>832.3</ele>
        <time>2022-07-14T06:56:34Z</time>
      </trkpt>
      <trkpt lat="44.78182" lon="5.71794">
        <ele>832.1</ele>
        <time>2022-07-14T06:56:35Z</time>
      </trkpt>
      <trkpt lat="44.78179" lon="5.71803">
        <ele>831.9</ele>
        <time>2022-07-14T06:56:36Z</time>
      </trkpt>
      <trkpt lat="44.78176" lon="5.71813">
        <ele>831.6</ele>
        <time>2022-07-14T06:56:37Z</time>
      </trkpt>
      <trkpt lat="44.78172" lon="5.71822">
        <ele>831.3</ele>
        <time>2022-07-14T06:56:38Z</time>
      </trkpt>
      <trkpt lat="44.78169" lon="5.71831">
        <ele>831</ele>
        <time>2022-07-14T06:56:39Z</time>
      </trkpt>
      <trkpt lat="44.78166" lon="5.71839">
        <ele>830.7</ele>
        <time>2022-07-14T06:56:40Z</time>
      </trkpt>
      <trkpt lat="44.78163" lon="5.71847">
        <ele>830.5</ele>
        <time>2022-07-14T06:56:41Z</time>
      </trkpt>
      <trkpt lat="44.78159" lon="5.71857">
        <ele>830.2</ele>
        <time>2022-07-14T06:56:42Z</time>
      </trkpt>
      <trkpt lat="44.78155" lon="5.71866">
        <ele>829.9</ele>
        <time>2022-07-14T06:56:43Z</time>
      </trkpt>
      <trkpt lat="44.78151" lon="5.71875">
        <ele>829.7</ele>
        <time>2022-07-14T06:56:44Z</time>
      </trkpt>
      <trkpt lat="44.78147" lon="5.71883">
        <ele>829.4</ele>
        <time>2022-07-14T06:56:45Z</time>
      </trkpt>
      <trkpt lat="44.78142" lon="5.71891">
        <ele>829.1</ele>
        <time>2022-07-14T06:56:46Z</time>
      </trkpt>
      <trkpt lat="44.78138" lon="5.719">
        <ele>828.8</ele>
        <time>2022-07-14T06:56:47Z</time>
      </trkpt>
      <trkpt lat="44.78133" lon="5.71908">
        <ele>828.6</ele>
        <time>2022-07-14T06:56:48Z</time>
      </trkpt>
      <trkpt lat="44.78128" lon="5.71917">
        <ele>828.3</ele>
        <time>2022-07-14T06:56:49Z</time>
      </trkpt>
      <trkpt lat="44.78124" lon="5.71925">
        <ele>828</ele>
        <time>2022-07-14T06:56:50Z</time>
      </trkpt>
      <trkpt lat="44.7812" lon="5.71934">
        <ele>827.8</ele>
        <time>2022-07-14T06:56:51Z</time>
      </trkpt>
      <trkpt lat="44.78115" lon="5.71943">
        <ele>827.5</ele>
        <time>2022-07-14T06:56:52Z</time>
      </trkpt>
      <trkpt lat="44.7811" lon="5.71952">
        <ele>827.2</ele>
        <time>2022-07-14T06:56:53Z</time>
      </trkpt>
      <trkpt lat="44.78106" lon="5.71961">
        <ele>826.9</ele>
        <time>2022-07-14T06:56:54Z</time>
      </trkpt>
      <trkpt lat="44.78101" lon="5.71969">
        <ele>826.6</ele>
        <time>2022-07-14T06:56:55Z</time>
      </trkpt>
      <trkpt lat="44.78095" lon="5.71976">
        <ele>826.2</ele>
        <time>2022-07-14T06:56:56Z</time>
      </trkpt>
      <trkpt lat="44.78088" lon="5.71983">
        <ele>825.8</ele>
        <time>2022-07-14T06:56:57Z</time>
      </trkpt>
      <trkpt lat="44.7808" lon="5.7199">
        <ele>825.4</ele>
        <time>2022-07-14T06:56:58Z</time>
      </trkpt>
      <trkpt lat="44.78072" lon="5.71996">
        <ele>825</ele>
        <time>2022-07-14T06:56:59Z</time>
      </trkpt>
      <trkpt lat="44.78064" lon="5.72001">
        <ele>824.6</ele>
        <time>2022-07-14T06:57:00Z</time>
      </trkpt>
      <trkpt lat="44.78056" lon="5.72007">
        <ele>824.2</ele>
        <time>2022-07-14T06:57:01Z</time>
      </trkpt>
      <trkpt lat="44.78049" lon="5.72014">
        <ele>823.9</ele>
        <time>2022-07-14T06:57:02Z</time>
      </trkpt>
      <trkpt lat="44.78041" lon="5.72021">
        <ele>823.5</ele>
        <time>2022-07-14T06:57:03Z</time>
      </trkpt>
      <trkpt lat="44.78033" lon="5.72028">
        <ele>823.2</ele>
        <time>2022-07-14T06:57:04Z</time>
      </trkpt>
      <trkpt lat="44.78025" lon="5.72035">
        <ele>822.8</ele>
        <time>2022-07-14T06:57:05Z</time>
      </trkpt>
      <trkpt lat="44.78018" lon="5.72042">
        <ele>822.5</ele>
        <time>2022-07-14T06:57:06Z</time>
      </trkpt>
      <trkpt lat="44.78009" lon="5.72049">
        <ele>822.2</ele>
        <time>2022-07-14T06:57:07Z</time>
      </trkpt>
      <trkpt lat="44.78002" lon="5.72056">
        <ele>821.8</ele>
        <time>2022-07-14T06:57:08Z</time>
      </trkpt>
      <trkpt lat="44.77994" lon="5.72064">
        <ele>821.4</ele>
        <time>2022-07-14T06:57:09Z</time>
      </trkpt>
      <trkpt lat="44.77987" lon="5.72072">
        <ele>821.1</ele>
        <time>2022-07-14T06:57:10Z</time>
      </trkpt>
      <trkpt lat="44.77981" lon="5.72083">
        <ele>820.7</ele>
        <time>2022-07-14T06:57:11Z</time>
      </trkpt>
      <trkpt lat="44.77978" lon="5.72094">
        <ele>820.4</ele>
        <time>2022-07-14T06:57:12Z</time>
      </trkpt>
      <trkpt lat="44.77976" lon="5.72106">
        <ele>820.2</ele>
        <time>2022-07-14T06:57:13Z</time>
      </trkpt>
      <trkpt lat="44.77974" lon="5.72118">
        <ele>819.9</ele>
        <time>2022-07-14T06:57:14Z</time>
      </trkpt>
      <trkpt lat="44.77974" lon="5.72131">
        <ele>819.7</ele>
        <time>2022-07-14T06:57:15Z</time>
      </trkpt>
      <trkpt lat="44.77974" lon="5.72144">
        <ele>819.4</ele>
        <time>2022-07-14T06:57:16Z</time>
      </trkpt>
      <trkpt lat="44.77977" lon="5.72156">
        <ele>819</ele>
        <time>2022-07-14T06:57:17Z</time>
      </trkpt>
      <trkpt lat="44.77981" lon="5.72167">
        <ele>818.6</ele>
        <time>2022-07-14T06:57:18Z</time>
      </trkpt>
      <trkpt lat="44.77987" lon="5.72177">
        <ele>818.2</ele>
        <time>2022-07-14T06:57:19Z</time>
      </trkpt>
      <trkpt lat="44.77992" lon="5.72188">
        <ele>817.9</ele>
        <time>2022-07-14T06:57:20Z</time>
      </trkpt>
      <trkpt lat="44.77997" lon="5.72198">
        <ele>817.5</ele>
        <time>2022-07-14T06:57:21Z</time>
      </trkpt>
      <trkpt lat="44.78003" lon="5.72208">
        <ele>817.2</ele>
        <time>2022-07-14T06:57:22Z</time>
      </trkpt>
      <trkpt lat="44.78009" lon="5.72218">
        <ele>816.9</ele>
        <time>2022-07-14T06:57:23Z</time>
      </trkpt>
      <trkpt lat="44.78016" lon="5.72227">
        <ele>816.6</ele>
        <time>2022-07-14T06:57:24Z</time>
      </trkpt>
      <trkpt lat="44.78025" lon="5.72233">
        <ele>816.3</ele>
        <time>2022-07-14T06:57:25Z</time>
      </trkpt>
      <trkpt lat="44.78033" lon="5.72238">
        <ele>816.1</ele>
        <time>2022-07-14T06:57:26Z</time>
      </trkpt>
      <trkpt lat="44.78042" lon="5.72242">
        <ele>815.8</ele>
        <time>2022-07-14T06:57:27Z</time>
      </trkpt>
      <trkpt lat="44.78051" lon="5.72246">
        <ele>815.4</ele>
        <time>2022-07-14T06:57:28Z</time>
      </trkpt>
      <trkpt lat="44.78058" lon="5.72251">
        <ele>815</ele>
        <time>2022-07-14T06:57:29Z</time>
      </trkpt>
      <trkpt lat="44.78066" lon="5.72259">
        <ele>814.6</ele>
        <time>2022-07-14T06:57:30Z</time>
      </trkpt>
      <trkpt lat="44.78072" lon="5.72269">
        <ele>814.3</ele>
        <time>2022-07-14T06:57:31Z</time>
      </trkpt>
      <trkpt lat="44.78077" lon="5.72279">
        <ele>813.9</ele>
        <time>2022-07-14T06:57:32Z</time>
      </trkpt>
      <trkpt lat="44.78081" lon="5.72292">
        <ele>813.5</ele>
        <time>2022-07-14T06:57:33Z</time>
      </trkpt>
      <trkpt lat="44.78084" lon="5.72305">
        <ele>813</ele>
        <time>2022-07-14T06:57:34Z</time>
      </trkpt>
      <trkpt lat="44.78087" lon="5.72318">
        <ele>812.5</ele>
        <time>2022-07-14T06:57:35Z</time>
      </trkpt>
      <trkpt lat="44.78089" lon="5.72331">
        <ele>812.2</ele>
        <time>2022-07-14T06:57:36Z</time>
      </trkpt>
      <trkpt lat="44.78092" lon="5.72344">
        <ele>811.9</ele>
        <time>2022-07-14T06:57:37Z</time>
      </trkpt>
      <trkpt lat="44.78096" lon="5.72356">
        <ele>811.5</ele>
        <time>2022-07-14T06:57:38Z</time>
      </trkpt>
      <trkpt lat="44.781" lon="5.72367">
        <ele>811.2</ele>
        <time>2022-07-14T06:57:39Z</time>
      </trkpt>
      <trkpt lat="44.78105" lon="5.72379">
        <ele>810.9</ele>
        <time>2022-07-14T06:57:40Z</time>
      </trkpt>
      <trkpt lat="44.78109" lon="5.72389">
        <ele>810.6</ele>
        <time>2022-07-14T06:57:41Z</time>
      </trkpt>
      <trkpt lat="44.78114" lon="5.724">
        <ele>810.3</ele>
        <time>2022-07-14T06:57:42Z</time>
      </trkpt>
      <trkpt lat="44.78118" lon="5.72411">
        <ele>810</ele>
        <time>2022-07-14T06:57:43Z</time>
      </trkpt>
      <trkpt lat="44.7812" lon="5.72423">
        <ele>809.8</ele>
        <time>2022-07-14T06:57:44Z</time>
      </trkpt>
      <trkpt lat="44.78122" lon="5.72435">
        <ele>809.6</ele>
        <time>2022-07-14T06:57:45Z</time>
      </trkpt>
      <trkpt lat="44.78122" lon="5.72447">
        <ele>809.4</ele>
        <time>2022-07-14T06:57:46Z</time>
      </trkpt>
      <trkpt lat="44.78121" lon="5.72459">
        <ele>809.1</ele>
        <time>2022-07-14T06:57:47Z</time>
      </trkpt>
      <trkpt lat="44.78122" lon="5.72471">
        <ele>808.7</ele>
        <time>2022-07-14T06:57:48Z</time>
      </trkpt>
      <trkpt lat="44.78126" lon="5.72483">
        <ele>808.3</ele>
        <time>2022-07-14T06:57:49Z</time>
      </trkpt>
      <trkpt lat="44.78131" lon="5.72494">
        <ele>807.9</ele>
        <time>2022-07-14T06:57:50Z</time>
      </trkpt>
      <trkpt lat="44.78137" lon="5.72504">
        <ele>807.6</ele>
        <time>2022-07-14T06:57:51Z</time>
      </trkpt>
      <trkpt lat="44.78144" lon="5.72512">
        <ele>807.3</ele>
        <time>2022-07-14T06:57:52Z</time>
      </trkpt>
      <trkpt lat="44.78151" lon="5.7252">
        <ele>807</ele>
        <time>2022-07-14T06:57:53Z</time>
      </trkpt>
      <trkpt lat="44.78157" lon="5.72528">
        <ele>806.7</ele>
        <time>2022-07-14T06:57:54Z</time>
      </trkpt>
      <trkpt lat="44.78163" lon="5.72537">
        <ele>806.4</ele>
        <time>2022-07-14T06:57:55Z</time>
      </trkpt>
      <trkpt lat="44.7817" lon="5.72545">
        <ele>806.2</ele>
        <time>2022-07-14T06:57:56Z</time>
      </trkpt>
      <trkpt lat="44.78176" lon="5.72554">
        <ele>805.9</ele>
        <time>2022-07-14T06:57:57Z</time>
      </trkpt>
      <trkpt lat="44.78183" lon="5.72562">
        <ele>805.6</ele>
        <time>2022-07-14T06:57:58Z</time>
      </trkpt>
      <trkpt lat="44.78188" lon="5.72571">
        <ele>805.3</ele>
        <time>2022-07-14T06:57:59Z</time>
      </trkpt>
      <trkpt lat="44.78195" lon="5.72579">
        <ele>805</ele>
        <time>2022-07-14T06:58:00Z</time>
      </trkpt>
      <trkpt lat="44.782" lon="5.72587">
        <ele>804.7</ele>
        <time>2022-07-14T06:58:01Z</time>
      </trkpt>
      <trkpt lat="44.78206" lon="5.72596">
        <ele>804.5</ele>
        <time>2022-07-14T06:58:02Z</time>
      </trkpt>
      <trkpt lat="44.7821" lon="5.72606">
        <ele>804.3</ele>
        <time>2022-07-14T06:58:03Z</time>
      </trkpt>
      <trkpt lat="44.78212" lon="5.72617">
        <ele>804</ele>
        <time>2022-07-14T06:58:04Z</time>
      </trkpt>
      <trkpt lat="44.78212" lon="5.72629">
        <ele>803.5</ele>
        <time>2022-07-14T06:58:05Z</time>
      </trkpt>
      <trkpt lat="44.7821" lon="5.72641">
        <ele>802.9</ele>
        <time>2022-07-14T06:58:06Z</time>
      </trkpt>
      <trkpt lat="44.78208" lon="5.72653">
        <ele>802.3</ele>
        <time>2022-07-14T06:58:07Z</time>
      </trkpt>
      <trkpt lat="44.78204" lon="5.72664">
        <ele>801.7</ele>
        <time>2022-07-14T06:58:08Z</time>
      </trkpt>
      <trkpt lat="44.78199" lon="5.72675">
        <ele>801.1</ele>
        <time>2022-07-14T06:58:09Z</time>
      </trkpt>
      <trkpt lat="44.78194" lon="5.72686">
        <ele>800.4</ele>
        <time>2022-07-14T06:58:10Z</time>
      </trkpt>
      <trkpt lat="44.78189" lon="5.72697">
        <ele>799.7</ele>
        <time>2022-07-14T06:58:11Z</time>
      </trkpt>
      <trkpt lat="44.78182" lon="5.72707">
        <ele>799.1</ele>
        <time>2022-07-14T06:58:12Z</time>
      </trkpt>
      <trkpt lat="44.78175" lon="5.72715">
        <ele>798.4</ele>
        <time>2022-07-14T06:58:13Z</time>
      </trkpt>
      <trkpt lat="44.78166" lon="5.72723">
        <ele>797.6</ele>
        <time>2022-07-14T06:58:14Z</time>
      </trkpt>
      <trkpt lat="44.78158" lon="5.72731">
        <ele>796.8</ele>
        <time>2022-07-14T06:58:15Z</time>
      </trkpt>
      <trkpt lat="44.7815" lon="5.72739">
        <ele>795.9</ele>
        <time>2022-07-14T06:58:16Z</time>
      </trkpt>
      <trkpt lat="44.78141" lon="5.72749">
        <ele>795</ele>
        <time>2022-07-14T06:58:17Z</time>
      </trkpt>
      <trkpt lat="44.78133" lon="5.72759">
        <ele>794.1</ele>
        <time>2022-07-14T06:58:18Z</time>
      </trkpt>
      <trkpt lat="44.78125" lon="5.72771">
        <ele>793.1</ele>
        <time>2022-07-14T06:58:19Z</time>
      </trkpt>
      <trkpt lat="44.78119" lon="5.72783">
        <ele>792.2</ele>
        <time>2022-07-14T06:58:20Z</time>
      </trkpt>
      <trkpt lat="44.78113" lon="5.72795">
        <ele>791.4</ele>
        <time>2022-07-14T06:58:21Z</time>
      </trkpt>
      <trkpt lat="44.78107" lon="5.72809">
        <ele>790.6</ele>
        <time>2022-07-14T06:58:22Z</time>
      </trkpt>
      <trkpt lat="44.78102" lon="5.72823">
        <ele>789.8</ele>
        <time>2022-07-14T06:58:23Z</time>
      </trkpt>
      <trkpt lat="44.78096" lon="5.72838">
        <ele>789</ele>
        <time>2022-07-14T06:58:24Z</time>
      </trkpt>
      <trkpt lat="44.78091" lon="5.72852">
        <ele>788.5</ele>
        <time>2022-07-14T06:58:25Z</time>
      </trkpt>
      <trkpt lat="44.78086" lon="5.72867">
        <ele>788.1</ele>
        <time>2022-07-14T06:58:26Z</time>
      </trkpt>
      <trkpt lat="44.78081" lon="5.72881">
        <ele>787.9</ele>
        <time>2022-07-14T06:58:27Z</time>
      </trkpt>
      <trkpt lat="44.78076" lon="5.72895">
        <ele>788</ele>
        <time>2022-07-14T06:58:28Z</time>
      </trkpt>
      <trkpt lat="44.78072" lon="5.72908">
        <ele>788.1</ele>
        <time>2022-07-14T06:58:29Z</time>
      </trkpt>
      <trkpt lat="44.78068" lon="5.72922">
        <ele>788.4</ele>
        <time>2022-07-14T06:58:30Z</time>
      </trkpt>
      <trkpt lat="44.78065" lon="5.72934">
        <ele>788.8</ele>
        <time>2022-07-14T06:58:31Z</time>
      </trkpt>
      <trkpt lat="44.78063" lon="5.72946">
        <ele>789.2</ele>
        <time>2022-07-14T06:58:32Z</time>
      </trkpt>
      <trkpt lat="44.78062" lon="5.72957">
        <ele>789.6</ele>
        <time>2022-07-14T06:58:33Z</time>
      </trkpt>
      <trkpt lat="44.78061" lon="5.72968">
        <ele>789.9</ele>
        <time>2022-07-14T06:58:34Z</time>
      </trkpt>
      <trkpt lat="44.7806" lon="5.72978">
        <ele>790.2</ele>
        <time>2022-07-14T06:58:35Z</time>
      </trkpt>
      <trkpt lat="44.78059" lon="5.72987">
        <ele>790.5</ele>
        <time>2022-07-14T06:58:36Z</time>
      </trkpt>
      <trkpt lat="44.78059" lon="5.72996">
        <ele>790.8</ele>
        <time>2022-07-14T06:58:37Z</time>
      </trkpt>
      <trkpt lat="44.78059" lon="5.73005">
        <ele>791</ele>
        <time>2022-07-14T06:58:38Z</time>
      </trkpt>
      <trkpt lat="44.7806" lon="5.73013">
        <ele>791.1</ele>
        <time>2022-07-14T06:58:39Z</time>
      </trkpt>
      <trkpt lat="44.78061" lon="5.73022">
        <ele>791.1</ele>
        <time>2022-07-14T06:58:40Z</time>
      </trkpt>
      <trkpt lat="44.78063" lon="5.73031">
        <ele>791.1</ele>
        <time>2022-07-14T06:58:41Z</time>
      </trkpt>
      <trkpt lat="44.78064" lon="5.7304">
        <ele>791.1</ele>
        <time>2022-07-14T06:58:42Z</time>
      </trkpt>
      <trkpt lat="44.78067" lon="5.73048">
        <ele>791.1</ele>
        <time>2022-07-14T06:58:43Z</time>
      </trkpt>
      <trkpt lat="44.78069" lon="5.73056">
        <ele>791.1</ele>
        <time>2022-07-14T06:58:44Z</time>
      </trkpt>
      <trkpt lat="44.78071" lon="5.73065">
        <ele>791.1</ele>
        <time>2022-07-14T06:58:45Z</time>
      </trkpt>
      <trkpt lat="44.78073" lon="5.73074">
        <ele>791.1</ele>
        <time>2022-07-14T06:58:46Z</time>
      </trkpt>
      <trkpt lat="44.78075" lon="5.73083">
        <ele>791.2</ele>
        <time>2022-07-14T06:58:47Z</time>
      </trkpt>
      <trkpt lat="44.78077" lon="5.73091">
        <ele>791.3</ele>
        <time>2022-07-14T06:58:48Z</time>
      </trkpt>
      <trkpt lat="44.7808" lon="5.73099">
        <ele>791.4</ele>
        <time>2022-07-14T06:58:49Z</time>
      </trkpt>
      <trkpt lat="44.78082" lon="5.73107">
        <ele>791.5</ele>
        <time>2022-07-14T06:58:50Z</time>
      </trkpt>
      <trkpt lat="44.78084" lon="5.73116">
        <ele>791.6</ele>
        <time>2022-07-14T06:58:51Z</time>
      </trkpt>
      <trkpt lat="44.78086" lon="5.73124">
        <ele>791.7</ele>
        <time>2022-07-14T06:58:52Z</time>
      </trkpt>
      <trkpt lat="44.78088" lon="5.73131">
        <ele>791.8</ele>
        <time>2022-07-14T06:58:53Z</time>
      </trkpt>
      <trkpt lat="44.7809" lon="5.73138">
        <ele>791.9</ele>
        <time>2022-07-14T06:58:54Z</time>
      </trkpt>
      <trkpt lat="44.78093" lon="5.73145">
        <ele>792.1</ele>
        <time>2022-07-14T06:58:55Z</time>
      </trkpt>
      <trkpt lat="44.78095" lon="5.73151">
        <ele>792.2</ele>
        <time>2022-07-14T06:58:56Z</time>
      </trkpt>
      <trkpt lat="44.78097" lon="5.73156">
        <ele>792.4</ele>
        <time>2022-07-14T06:58:57Z</time>
      </trkpt>
      <trkpt lat="44.78099" lon="5.73163">
        <ele>792.5</ele>
        <time>2022-07-14T06:58:58Z</time>
      </trkpt>
      <trkpt lat="44.78101" lon="5.7317">
        <ele>792.7</ele>
        <time>2022-07-14T06:58:59Z</time>
      </trkpt>
      <trkpt lat="44.78102" lon="5.73177">
        <ele>792.8</ele>
        <time>2022-07-14T06:59:00Z</time>
      </trkpt>
      <trkpt lat="44.78104" lon="5.73182">
        <ele>793</ele>
        <time>2022-07-14T06:59:01Z</time>
      </trkpt>
      <trkpt lat="44.78106" lon="5.73187">
        <ele>793.1</ele>
        <time>2022-07-14T06:59:02Z</time>
      </trkpt>
      <trkpt lat="44.78107" lon="5.73194">
        <ele>793.2</ele>
        <time>2022-07-14T06:59:03Z</time>
      </trkpt>
      <trkpt lat="44.78107" lon="5.73197">
        <ele>793.3</ele>
        <time>2022-07-14T06:59:04Z</time>
      </trkpt>
      <trkpt lat="44.78107" lon="5.73202">
        <ele>793.5</ele>
        <time>2022-07-14T06:59:05Z</time>
      </trkpt>
      <trkpt lat="44.78107" lon="5.73208">
        <ele>793.6</ele>
        <time>2022-07-14T06:59:06Z</time>
      </trkpt>
      <trkpt lat="44.78106" lon="5.73214">
        <ele>793.8</ele>
        <time>2022-07-14T06:59:07Z</time>
      </trkpt>
      <trkpt lat="44.78104" lon="5.7323">
        <ele>794.2</ele>
        <time>2022-07-14T06:59:08Z</time>
      </trkpt>
      <trkpt lat="44.78102" lon="5.73222">
        <ele>794.4</ele>
        <time>2022-07-14T06:59:09Z</time>
      </trkpt>
      <trkpt lat="44.78101" lon="5.73241">
        <ele>795</ele>
        <time>2022-07-14T06:59:11Z</time>
      </trkpt>
      <trkpt lat="44.78101" lon="5.73248">
        <ele>795.3</ele>
        <time>2022-07-14T06:59:12Z</time>
      </trkpt>
      <trkpt lat="44.78099" lon="5.73255">
        <ele>795.6</ele>
        <time>2022-07-14T06:59:13Z</time>
      </trkpt>
      <trkpt lat="44.78098" lon="5.73266">
        <ele>796</ele>
        <time>2022-07-14T06:59:15Z</time>
      </trkpt>
      <trkpt lat="44.78095" lon="5.73275">
        <ele>796.4</ele>
        <time>2022-07-14T06:59:17Z</time>
      </trkpt>
      <trkpt lat="44.78097" lon="5.73274">
        <ele>796.5</ele>
        <time>2022-07-14T06:59:18Z</time>
      </trkpt>
      <trkpt lat="44.78101" lon="5.73279">
        <ele>797.3</ele>
        <time>2022-07-14T06:59:20Z</time>
      </trkpt>
      <trkpt lat="44.78108" lon="5.73283">
        <ele>797.4</ele>
        <time>2022-07-14T06:59:22Z</time>
      </trkpt>
      <trkpt lat="44.78115" lon="5.7328">
        <ele>797.6</ele>
        <time>2022-07-14T06:59:24Z</time>
      </trkpt>
      <trkpt lat="44.78117" lon="5.73282">
        <ele>797.6</ele>
        <time>2022-07-14T06:59:25Z</time>
      </trkpt>
      <trkpt lat="44.78125" lon="5.73278">
        <ele>797.8</ele>
        <time>2022-07-14T06:59:27Z</time>
      </trkpt>
      <trkpt lat="44.78128" lon="5.73276">
        <ele>797.9</ele>
        <time>2022-07-14T06:59:28Z</time>
      </trkpt>
      <trkpt lat="44.78132" lon="5.73274">
        <ele>798</ele>
        <time>2022-07-14T06:59:30Z</time>
      </trkpt>
      <trkpt lat="44.78137" lon="5.73275">
        <ele>798.1</ele>
        <time>2022-07-14T06:59:31Z</time>
      </trkpt>
      <trkpt lat="44.78139" lon="5.73275">
        <ele>798.1</ele>
        <time>2022-07-14T06:59:32Z</time>
      </trkpt>
      <trkpt lat="44.78142" lon="5.73275">
        <ele>798.2</ele>
        <time>2022-07-14T06:59:33Z</time>
      </trkpt>
      <trkpt lat="44.78145" lon="5.73274">
        <ele>798.2</ele>
        <time>2022-07-14T06:59:34Z</time>
      </trkpt>
      <trkpt lat="44.78144" lon="5.73273">
        <ele>798.2</ele>
        <time>2022-07-14T06:59:35Z</time>
      </trkpt>
      <trkpt lat="44.78145" lon="5.73272">
        <ele>798.2</ele>
        <time>2022-07-14T06:59:36Z</time>
      </trkpt>
      <trkpt lat="44.78148" lon="5.73272">
        <ele>798.3</ele>
        <time>2022-07-14T06:59:37Z</time>
      </trkpt>
      <trkpt lat="44.78151" lon="5.73272">
        <ele>798.3</ele>
        <time>2022-07-14T06:59:39Z</time>
      </trkpt>
      <trkpt lat="44.78152" lon="5.73272">
        <ele>798.3</ele>
        <time>2022-07-14T06:59:40Z</time>
      </trkpt>
      <trkpt lat="44.78154" lon="5.73272">
        <ele>798.3</ele>
        <time>2022-07-14T06:59:41Z</time>
      </trkpt>
      <trkpt lat="44.78158" lon="5.73274">
        <ele>798.3</ele>
        <time>2022-07-14T06:59:44Z</time>
      </trkpt>
      <trkpt lat="44.78159" lon="5.73274">
        <ele>798.3</ele>
        <time>2022-07-14T06:59:45Z</time>
      </trkpt>
      <trkpt lat="44.78161" lon="5.73271">
        <ele>798.3</ele>
        <time>2022-07-14T06:59:47Z</time>
      </trkpt>
      <trkpt lat="44.78161" lon="5.7327">
        <ele>798.3</ele>
        <time>2022-07-14T06:59:48Z</time>
      </trkpt>
      <trkpt lat="44.7816" lon="5.73275">
        <ele>798.3</ele>
        <time>2022-07-14T06:59:51Z</time>
      </trkpt>
      <trkpt lat="44.7816" lon="5.73275">
        <ele>798.3</ele>
        <time>2022-07-14T06:59:52Z</time>
      </trkpt>
      <trkpt lat="44.7816" lon="5.73275">
        <ele>798.3</ele>
        <time>2022-07-14T06:59:53Z</time>
      </trkpt>
      <trkpt lat="44.7816" lon="5.73275">
        <ele>798.3</ele>
        <time>2022-07-14T06:59:54Z</time>
      </trkpt>
      <trkpt lat="44.7816" lon="5.73275">
        <ele>798.3</ele>
        <time>2022-07-14T06:59:55Z</time>
      </trkpt>
      <trkpt lat="44.78161" lon="5.73275">
        <ele>798.3</ele>
        <time>2022-07-14T06:59:56Z</time>
      </trkpt>
      <trkpt lat="44.78161" lon="5.73275">
        <ele>798.3</ele>
        <time>2022-07-14T06:59:57Z</time>
      </trkpt>
      <trkpt lat="44.78161" lon="5.73275">
        <ele>798.3</ele>
        <time>2022-07-14T06:59:58Z</time>
      </trkpt>
      <trkpt lat="44.78164" lon="5.73276">
        <ele>798.1</ele>
        <time>2022-07-14T07:00:22Z</time>
      </trkpt>
      <trkpt lat="44.78169" lon="5.73271">
        <ele>797.4</ele>
        <time>2022-07-14T07:00:24Z</time>
      </trkpt>
      <trkpt lat="44.78177" lon="5.73275">
        <ele>796.6</ele>
        <time>2022-07-14T07:00:25Z</time>
      </trkpt>
      <trkpt lat="44.78204" lon="5.73286">
        <ele>793.4</ele>
        <time>2022-07-14T07:00:28Z</time>
      </trkpt>
      <trkpt lat="44.78212" lon="5.7329">
        <ele>792.4</ele>
        <time>2022-07-14T07:00:29Z</time>
      </trkpt>
      <trkpt lat="44.7822" lon="5.73294">
        <ele>791.5</ele>
        <time>2022-07-14T07:00:30Z</time>
      </trkpt>
      <trkpt lat="44.7823" lon="5.73298">
        <ele>790.7</ele>
        <time>2022-07-14T07:00:31Z</time>
      </trkpt>
      <trkpt lat="44.7824" lon="5.73302">
        <ele>790.1</ele>
        <time>2022-07-14T07:00:32Z</time>
      </trkpt>
      <trkpt lat="44.78251" lon="5.73306">
        <ele>789.6</ele>
        <time>2022-07-14T07:00:33Z</time>
      </trkpt>
      <trkpt lat="44.78261" lon="5.73312">
        <ele>789.5</ele>
        <time>2022-07-14T07:00:34Z</time>
      </trkpt>
      <trkpt lat="44.78268" lon="5.73319">
        <ele>789.2</ele>
        <time>2022-07-14T07:00:35Z</time>
      </trkpt>
      <trkpt lat="44.78274" lon="5.73328">
        <ele>789</ele>
        <time>2022-07-14T07:00:36Z</time>
      </trkpt>
      <trkpt lat="44.78281" lon="5.73338">
        <ele>789</ele>
        <time>2022-07-14T07:00:37Z</time>
      </trkpt>
      <trkpt lat="44.78288" lon="5.73346">
        <ele>789.1</ele>
        <time>2022-07-14T07:00:38Z</time>
      </trkpt>
      <trkpt lat="44.78295" lon="5.73354">
        <ele>789.3</ele>
        <time>2022-07-14T07:00:39Z</time>
      </trkpt>
      <trkpt lat="44.78302" lon="5.73358">
        <ele>789.7</ele>
        <time>2022-07-14T07:00:40Z</time>
      </trkpt>
      <trkpt lat="44.78309" lon="5.73361">
        <ele>790.1</ele>
        <time>2022-07-14T07:00:41Z</time>
      </trkpt>
      <trkpt lat="44.78316" lon="5.73362">
        <ele>790.5</ele>
        <time>2022-07-14T07:00:42Z</time>
      </trkpt>
      <trkpt lat="44.78322" lon="5.7336">
        <ele>790.9</ele>
        <time>2022-07-14T07:00:43Z</time>
      </trkpt>
      <trkpt lat="44.78328" lon="5.73359">
        <ele>791.2</ele>
        <time>2022-07-14T07:00:44Z</time>
      </trkpt>
      <trkpt lat="44.78335" lon="5.73358">
        <ele>791.6</ele>
        <time>2022-07-14T07:00:45Z</time>
      </trkpt>
      <trkpt lat="44.7834" lon="5.73357">
        <ele>791.9</ele>
        <time>2022-07-14T07:00:46Z</time>
      </trkpt>
      <trkpt lat="44.78345" lon="5.73357">
        <ele>792.1</ele>
        <time>2022-07-14T07:00:47Z</time>
      </trkpt>
      <trkpt lat="44.7835" lon="5.73357">
        <ele>792.4</ele>
        <time>2022-07-14T07:00:48Z</time>
      </trkpt>
      <trkpt lat="44.78355" lon="5.73356">
        <ele>792.6</ele>
        <time>2022-07-14T07:00:49Z</time>
      </trkpt>
      <trkpt lat="44.7836" lon="5.73355">
        <ele>792.9</ele>
        <time>2022-07-14T07:00:50Z</time>
      </trkpt>
      <trkpt lat="44.78363" lon="5.73355">
        <ele>793</ele>
        <time>2022-07-14T07:00:51Z</time>
      </trkpt>
      <trkpt lat="44.78367" lon="5.73356">
        <ele>793.2</ele>
        <time>2022-07-14T07:00:52Z</time>
      </trkpt>
      <trkpt lat="44.78371" lon="5.73357">
        <ele>793.3</ele>
        <time>2022-07-14T07:00:53Z</time>
      </trkpt>
      <trkpt lat="44.78375" lon="5.73358">
        <ele>793.4</ele>
        <time>2022-07-14T07:00:54Z</time>
      </trkpt>
      <trkpt lat="44.78379" lon="5.73359">
        <ele>793.5</ele>
        <time>2022-07-14T07:00:55Z</time>
      </trkpt>
      <trkpt lat="44.78387" lon="5.73359">
        <ele>793.6</ele>
        <time>2022-07-14T07:00:56Z</time>
      </trkpt>
      <trkpt lat="44.78399" lon="5.73361">
        <ele>793.6</ele>
        <time>2022-07-14T07:00:59Z</time>
      </trkpt>
      <trkpt lat="44.78404" lon="5.73362">
        <ele>793.5</ele>
        <time>2022-07-14T07:01:00Z</time>
      </trkpt>
      <trkpt lat="44.78409" lon="5.73363">
        <ele>793.4</ele>
        <time>2022-07-14T07:01:01Z</time>
      </trkpt>
      <trkpt lat="44.78412" lon="5.73365">
        <ele>793.3</ele>
        <time>2022-07-14T07:01:02Z</time>
      </trkpt>
      <trkpt lat="44.78417" lon="5.73367">
        <ele>793.1</ele>
        <time>2022-07-14T07:01:03Z</time>
      </trkpt>
      <trkpt lat="44.78423" lon="5.73368">
        <ele>792.9</ele>
        <time>2022-07-14T07:01:04Z</time>
      </trkpt>
      <trkpt lat="44.78429" lon="5.7337">
        <ele>792.6</ele>
        <time>2022-07-14T07:01:05Z</time>
      </trkpt>
      <trkpt lat="44.78436" lon="5.73372">
        <ele>792.2</ele>
        <time>2022-07-14T07:01:06Z</time>
      </trkpt>
      <trkpt lat="44.78443" lon="5.73374">
        <ele>791.8</ele>
        <time>2022-07-14T07:01:07Z</time>
      </trkpt>
      <trkpt lat="44.7845" lon="5.73376">
        <ele>791.4</ele>
        <time>2022-07-14T07:01:08Z</time>
      </trkpt>
      <trkpt lat="44.78457" lon="5.73378">
        <ele>790.9</ele>
        <time>2022-07-14T07:01:09Z</time>
      </trkpt>
      <trkpt lat="44.78464" lon="5.73381">
        <ele>790.4</ele>
        <time>2022-07-14T07:01:10Z</time>
      </trkpt>
      <trkpt lat="44.78471" lon="5.73384">
        <ele>789.9</ele>
        <time>2022-07-14T07:01:11Z</time>
      </trkpt>
      <trkpt lat="44.78479" lon="5.73388">
        <ele>789.3</ele>
        <time>2022-07-14T07:01:12Z</time>
      </trkpt>
      <trkpt lat="44.78486" lon="5.73392">
        <ele>788.9</ele>
        <time>2022-07-14T07:01:13Z</time>
      </trkpt>
      <trkpt lat="44.78494" lon="5.73396">
        <ele>788.4</ele>
        <time>2022-07-14T07:01:14Z</time>
      </trkpt>
      <trkpt lat="44.78502" lon="5.73401">
        <ele>787.8</ele>
        <time>2022-07-14T07:01:15Z</time>
      </trkpt>
      <trkpt lat="44.7851" lon="5.73406">
        <ele>787.3</ele>
        <time>2022-07-14T07:01:16Z</time>
      </trkpt>
      <trkpt lat="44.78518" lon="5.73411">
        <ele>786.7</ele>
        <time>2022-07-14T07:01:17Z</time>
      </trkpt>
      <trkpt lat="44.78525" lon="5.73417">
        <ele>786.2</ele>
        <time>2022-07-14T07:01:18Z</time>
      </trkpt>
      <trkpt lat="44.78531" lon="5.73423">
        <ele>785.7</ele>
        <time>2022-07-14T07:01:19Z</time>
      </trkpt>
      <trkpt lat="44.78537" lon="5.73428">
        <ele>785.3</ele>
        <time>2022-07-14T07:01:20Z</time>
      </trkpt>
      <trkpt lat="44.78544" lon="5.73432">
        <ele>784.8</ele>
        <time>2022-07-14T07:01:21Z</time>
      </trkpt>
      <trkpt lat="44.78552" lon="5.73435">
        <ele>784.3</ele>
        <time>2022-07-14T07:01:22Z</time>
      </trkpt>
      <trkpt lat="44.78559" lon="5.73438">
        <ele>783.8</ele>
        <time>2022-07-14T07:01:23Z</time>
      </trkpt>
      <trkpt lat="44.78568" lon="5.73439">
        <ele>783</ele>
        <time>2022-07-14T07:01:24Z</time>
      </trkpt>
      <trkpt lat="44.78577" lon="5.73439">
        <ele>782.3</ele>
        <time>2022-07-14T07:01:25Z</time>
      </trkpt>
      <trkpt lat="44.78587" lon="5.7344">
        <ele>781.5</ele>
        <time>2022-07-14T07:01:26Z</time>
      </trkpt>
      <trkpt lat="44.78596" lon="5.7344">
        <ele>780.8</ele>
        <time>2022-07-14T07:01:27Z</time>
      </trkpt>
      <trkpt lat="44.78606" lon="5.73439">
        <ele>780</ele>
        <time>2022-07-14T07:01:28Z</time>
      </trkpt>
      <trkpt lat="44.78615" lon="5.73436">
        <ele>779.4</ele>
        <time>2022-07-14T07:01:29Z</time>
      </trkpt>
      <trkpt lat="44.78625" lon="5.73431">
        <ele>778.7</ele>
        <time>2022-07-14T07:01:30Z</time>
      </trkpt>
      <trkpt lat="44.78634" lon="5.73424">
        <ele>778.1</ele>
        <time>2022-07-14T07:01:31Z</time>
      </trkpt>
      <trkpt lat="44.78642" lon="5.73415">
        <ele>777.5</ele>
        <time>2022-07-14T07:01:32Z</time>
      </trkpt>
      <trkpt lat="44.78649" lon="5.73405">
        <ele>777</ele>
        <time>2022-07-14T07:01:33Z</time>
      </trkpt>
      <trkpt lat="44.78655" lon="5.73394">
        <ele>776.5</ele>
        <time>2022-07-14T07:01:34Z</time>
      </trkpt>
      <trkpt lat="44.78661" lon="5.73382">
        <ele>776</ele>
        <time>2022-07-14T07:01:35Z</time>
      </trkpt>
      <trkpt lat="44.78666" lon="5.7337">
        <ele>775.4</ele>
        <time>2022-07-14T07:01:36Z</time>
      </trkpt>
      <trkpt lat="44.78672" lon="5.73359">
        <ele>774.9</ele>
        <time>2022-07-14T07:01:37Z</time>
      </trkpt>
      <trkpt lat="44.78678" lon="5.73347">
        <ele>774.4</ele>
        <time>2022-07-14T07:01:38Z</time>
      </trkpt>
      <trkpt lat="44.78685" lon="5.73337">
        <ele>774.1</ele>
        <time>2022-07-14T07:01:39Z</time>
      </trkpt>
      <trkpt lat="44.78692" lon="5.73328">
        <ele>773.9</ele>
        <time>2022-07-14T07:01:40Z</time>
      </trkpt>
      <trkpt lat="44.78699" lon="5.73318">
        <ele>773.7</ele>
        <time>2022-07-14T07:01:41Z</time>
      </trkpt>
      <trkpt lat="44.78704" lon="5.73307">
        <ele>773.5</ele>
        <time>2022-07-14T07:01:42Z</time>
      </trkpt>
      <trkpt lat="44.78708" lon="5.73296">
        <ele>773.2</ele>
        <time>2022-07-14T07:01:43Z</time>
      </trkpt>
      <trkpt lat="44.78713" lon="5.73285">
        <ele>772.9</ele>
        <time>2022-07-14T07:01:44Z</time>
      </trkpt>
      <trkpt lat="44.78718" lon="5.73274">
        <ele>772.5</ele>
        <time>2022-07-14T07:01:45Z</time>
      </trkpt>
      <trkpt lat="44.78724" lon="5.73264">
        <ele>772</ele>
        <time>2022-07-14T07:01:46Z</time>
      </trkpt>
      <trkpt lat="44.78732" lon="5.73257">
        <ele>771</ele>
        <time>2022-07-14T07:01:47Z</time>
      </trkpt>
      <trkpt lat="44.78742" lon="5.73255">
        <ele>769.9</ele>
        <time>2022-07-14T07:01:48Z</time>
      </trkpt>
      <trkpt lat="44.78753" lon="5.73256">
        <ele>768.7</ele>
        <time>2022-07-14T07:01:49Z</time>
      </trkpt>
      <trkpt lat="44.78764" lon="5.73256">
        <ele>767.4</ele>
        <time>2022-07-14T07:01:50Z</time>
      </trkpt>
      <trkpt lat="44.78776" lon="5.73255">
        <ele>766.2</ele>
        <time>2022-07-14T07:01:51Z</time>
      </trkpt>
      <trkpt lat="44.78788" lon="5.73254">
        <ele>765</ele>
        <time>2022-07-14T07:01:52Z</time>
      </trkpt>
      <trkpt lat="44.788" lon="5.73253">
        <ele>764.1</ele>
        <time>2022-07-14T07:01:53Z</time>
      </trkpt>
      <trkpt lat="44.78812" lon="5.73253">
        <ele>763.3</ele>
        <time>2022-07-14T07:01:54Z</time>
      </trkpt>
      <trkpt lat="44.78823" lon="5.73252">
        <ele>762.8</ele>
        <time>2022-07-14T07:01:55Z</time>
      </trkpt>
      <trkpt lat="44.78835" lon="5.73252">
        <ele>762.4</ele>
        <time>2022-07-14T07:01:56Z</time>
      </trkpt>
      <trkpt lat="44.78845" lon="5.73252">
        <ele>762</ele>
        <time>2022-07-14T07:01:57Z</time>
      </trkpt>
      <trkpt lat="44.78855" lon="5.73251">
        <ele>761.7</ele>
        <time>2022-07-14T07:01:58Z</time>
      </trkpt>
      <trkpt lat="44.78866" lon="5.7325">
        <ele>761.5</ele>
        <time>2022-07-14T07:01:59Z</time>
      </trkpt>
      <trkpt lat="44.78876" lon="5.7325">
        <ele>761.3</ele>
        <time>2022-07-14T07:02:00Z</time>
      </trkpt>
      <trkpt lat="44.78886" lon="5.73251">
        <ele>761.2</ele>
        <time>2022-07-14T07:02:01Z</time>
      </trkpt>
      <trkpt lat="44.78896" lon="5.73252">
        <ele>761.1</ele>
        <time>2022-07-14T07:02:02Z</time>
      </trkpt>
      <trkpt lat="44.78906" lon="5.73254">
        <ele>761.1</ele>
        <time>2022-07-14T07:02:03Z</time>
      </trkpt>
      <trkpt lat="44.78916" lon="5.73256">
        <ele>761.1</ele>
        <time>2022-07-14T07:02:04Z</time>
      </trkpt>
      <trkpt lat="44.78924" lon="5.73256">
        <ele>761.1</ele>
        <time>2022-07-14T07:02:05Z</time>
      </trkpt>
      <trkpt lat="44.78932" lon="5.73253">
        <ele>761.2</ele>
        <time>2022-07-14T07:02:06Z</time>
      </trkpt>
      <trkpt lat="44.78936" lon="5.73248">
        <ele>761.3</ele>
        <time>2022-07-14T07:02:07Z</time>
      </trkpt>
      <trkpt lat="44.78939" lon="5.73241">
        <ele>761.4</ele>
        <time>2022-07-14T07:02:08Z</time>
      </trkpt>
      <trkpt lat="44.7894" lon="5.73235">
        <ele>761.4</ele>
        <time>2022-07-14T07:02:09Z</time>
      </trkpt>
      <trkpt lat="44.78941" lon="5.73229">
        <ele>761.5</ele>
        <time>2022-07-14T07:02:10Z</time>
      </trkpt>
      <trkpt lat="44.78941" lon="5.73223">
        <ele>761.5</ele>
        <time>2022-07-14T07:02:11Z</time>
      </trkpt>
      <trkpt lat="44.78942" lon="5.7322">
        <ele>761.4</ele>
        <time>2022-07-14T07:02:12Z</time>
      </trkpt>
      <trkpt lat="44.78942" lon="5.73213">
        <ele>761.1</ele>
        <time>2022-07-14T07:02:13Z</time>
      </trkpt>
      <trkpt lat="44.78943" lon="5.73205">
        <ele>760.8</ele>
        <time>2022-07-14T07:02:14Z</time>
      </trkpt>
      <trkpt lat="44.78944" lon="5.73196">
        <ele>760.5</ele>
        <time>2022-07-14T07:02:15Z</time>
      </trkpt>
      <trkpt lat="44.78944" lon="5.73188">
        <ele>760.1</ele>
        <time>2022-07-14T07:02:16Z</time>
      </trkpt>
      <trkpt lat="44.78945" lon="5.7318">
        <ele>759.8</ele>
        <time>2022-07-14T07:02:17Z</time>
      </trkpt>
      <trkpt lat="44.78946" lon="5.73171">
        <ele>759.4</ele>
        <time>2022-07-14T07:02:18Z</time>
      </trkpt>
      <trkpt lat="44.78947" lon="5.73162">
        <ele>759</ele>
        <time>2022-07-14T07:02:19Z</time>
      </trkpt>
      <trkpt lat="44.78948" lon="5.73153">
        <ele>758.6</ele>
        <time>2022-07-14T07:02:20Z</time>
      </trkpt>
      <trkpt lat="44.78948" lon="5.73143">
        <ele>758.2</ele>
        <time>2022-07-14T07:02:21Z</time>
      </trkpt>
      <trkpt lat="44.78949" lon="5.73134">
        <ele>757.7</ele>
        <time>2022-07-14T07:02:22Z</time>
      </trkpt>
      <trkpt lat="44.78949" lon="5.73125">
        <ele>757.3</ele>
        <time>2022-07-14T07:02:23Z</time>
      </trkpt>
      <trkpt lat="44.7895" lon="5.73116">
        <ele>756.9</ele>
        <time>2022-07-14T07:02:24Z</time>
      </trkpt>
      <trkpt lat="44.7895" lon="5.73108">
        <ele>756.5</ele>
        <time>2022-07-14T07:02:25Z</time>
      </trkpt>
      <trkpt lat="44.78952" lon="5.731">
        <ele>756.1</ele>
        <time>2022-07-14T07:02:26Z</time>
      </trkpt>
      <trkpt lat="44.78954" lon="5.73092">
        <ele>755.6</ele>
        <time>2022-07-14T07:02:27Z</time>
      </trkpt>
      <trkpt lat="44.78955" lon="5.73083">
        <ele>755.2</ele>
        <time>2022-07-14T07:02:28Z</time>
      </trkpt>
      <trkpt lat="44.78957" lon="5.73074">
        <ele>754.7</ele>
        <time>2022-07-14T07:02:29Z</time>
      </trkpt>
      <trkpt lat="44.7896" lon="5.73065">
        <ele>754.2</ele>
        <time>2022-07-14T07:02:30Z</time>
      </trkpt>
      <trkpt lat="44.78964" lon="5.73055">
        <ele>753.6</ele>
        <time>2022-07-14T07:02:31Z</time>
      </trkpt>
      <trkpt lat="44.78968" lon="5.73046">
        <ele>753</ele>
        <time>2022-07-14T07:02:32Z</time>
      </trkpt>
      <trkpt lat="44.78973" lon="5.73037">
        <ele>752.3</ele>
        <time>2022-07-14T07:02:33Z</time>
      </trkpt>
      <trkpt lat="44.7898" lon="5.73028">
        <ele>751.5</ele>
        <time>2022-07-14T07:02:34Z</time>
      </trkpt>
      <trkpt lat="44.78987" lon="5.73019">
        <ele>750.7</ele>
        <time>2022-07-14T07:02:35Z</time>
      </trkpt>
      <trkpt lat="44.78994" lon="5.73011">
        <ele>749.9</ele>
        <time>2022-07-14T07:02:36Z</time>
      </trkpt>
      <trkpt lat="44.79002" lon="5.73002">
        <ele>749.2</ele>
        <time>2022-07-14T07:02:37Z</time>
      </trkpt>
      <trkpt lat="44.79011" lon="5.72994">
        <ele>748.4</ele>
        <time>2022-07-14T07:02:38Z</time>
      </trkpt>
      <trkpt lat="44.7902" lon="5.72988">
        <ele>747.8</ele>
        <time>2022-07-14T07:02:39Z</time>
      </trkpt>
      <trkpt lat="44.7903" lon="5.72981">
        <ele>747.2</ele>
        <time>2022-07-14T07:02:40Z</time>
      </trkpt>
      <trkpt lat="44.79039" lon="5.72976">
        <ele>746.7</ele>
        <time>2022-07-14T07:02:41Z</time>
      </trkpt>
      <trkpt lat="44.79048" lon="5.7297">
        <ele>746.1</ele>
        <time>2022-07-14T07:02:42Z</time>
      </trkpt>
      <trkpt lat="44.79056" lon="5.72967">
        <ele>745.5</ele>
        <time>2022-07-14T07:02:43Z</time>
      </trkpt>
      <trkpt lat="44.79065" lon="5.72967">
        <ele>744.9</ele>
        <time>2022-07-14T07:02:44Z</time>
      </trkpt>
      <trkpt lat="44.79074" lon="5.72969">
        <ele>744</ele>
        <time>2022-07-14T07:02:45Z</time>
      </trkpt>
      <trkpt lat="44.79084" lon="5.72973">
        <ele>742.8</ele>
        <time>2022-07-14T07:02:46Z</time>
      </trkpt>
      <trkpt lat="44.79089" lon="5.72978">
        <ele>742.1</ele>
        <time>2022-07-14T07:02:47Z</time>
      </trkpt>
      <trkpt lat="44.79098" lon="5.72982">
        <ele>741.2</ele>
        <time>2022-07-14T07:02:48Z</time>
      </trkpt>
      <trkpt lat="44.79106" lon="5.72986">
        <ele>740.5</ele>
        <time>2022-07-14T07:02:49Z</time>
      </trkpt>
      <trkpt lat="44.79115" lon="5.72988">
        <ele>739.9</ele>
        <time>2022-07-14T07:02:50Z</time>
      </trkpt>
      <trkpt lat="44.79124" lon="5.7299">
        <ele>739.4</ele>
        <time>2022-07-14T07:02:51Z</time>
      </trkpt>
      <trkpt lat="44.79132" lon="5.72993">
        <ele>739</ele>
        <time>2022-07-14T07:02:52Z</time>
      </trkpt>
      <trkpt lat="44.79139" lon="5.72998">
        <ele>738.7</ele>
        <time>2022-07-14T07:02:53Z</time>
      </trkpt>
      <trkpt lat="44.79145" lon="5.73004">
        <ele>738.6</ele>
        <time>2022-07-14T07:02:54Z</time>
      </trkpt>
      <trkpt lat="44.79151" lon="5.73011">
        <ele>738.5</ele>
        <time>2022-07-14T07:02:55Z</time>
      </trkpt>
      <trkpt lat="44.79154" lon="5.73019">
        <ele>738.5</ele>
        <time>2022-07-14T07:02:56Z</time>
      </trkpt>
      <trkpt lat="44.79158" lon="5.73025">
        <ele>738.5</ele>
        <time>2022-07-14T07:02:57Z</time>
      </trkpt>
      <trkpt lat="44.79162" lon="5.73033">
        <ele>738.5</ele>
        <time>2022-07-14T07:02:58Z</time>
      </trkpt>
      <trkpt lat="44.79167" lon="5.73039">
        <ele>738.5</ele>
        <time>2022-07-14T07:02:59Z</time>
      </trkpt>
      <trkpt lat="44.79171" lon="5.73045">
        <ele>738.4</ele>
        <time>2022-07-14T07:03:00Z</time>
      </trkpt>
      <trkpt lat="44.79176" lon="5.7305">
        <ele>738.3</ele>
        <time>2022-07-14T07:03:01Z</time>
      </trkpt>
      <trkpt lat="44.79181" lon="5.73053">
        <ele>738.3</ele>
        <time>2022-07-14T07:03:02Z</time>
      </trkpt>
      <trkpt lat="44.79186" lon="5.73056">
        <ele>738.4</ele>
        <time>2022-07-14T07:03:03Z</time>
      </trkpt>
      <trkpt lat="44.79191" lon="5.73058">
        <ele>738.5</ele>
        <time>2022-07-14T07:03:04Z</time>
      </trkpt>
      <trkpt lat="44.79196" lon="5.73059">
        <ele>738.6</ele>
        <time>2022-07-14T07:03:05Z</time>
      </trkpt>
      <trkpt lat="44.79202" lon="5.73059">
        <ele>738.9</ele>
        <time>2022-07-14T07:03:06Z</time>
      </trkpt>
      <trkpt lat="44.79207" lon="5.73058">
        <ele>739.1</ele>
        <time>2022-07-14T07:03:07Z</time>
      </trkpt>
      <trkpt lat="44.79212" lon="5.73056">
        <ele>739.3</ele>
        <time>2022-07-14T07:03:08Z</time>
      </trkpt>
      <trkpt lat="44.79217" lon="5.73054">
        <ele>739.6</ele>
        <time>2022-07-14T07:03:09Z</time>
      </trkpt>
      <trkpt lat="44.79221" lon="5.7305">
        <ele>739.8</ele>
        <time>2022-07-14T07:03:10Z</time>
      </trkpt>
      <trkpt lat="44.79225" lon="5.73046">
        <ele>740.1</ele>
        <time>2022-07-14T07:03:11Z</time>
      </trkpt>
      <trkpt lat="44.79229" lon="5.73042">
        <ele>740.3</ele>
        <time>2022-07-14T07:03:12Z</time>
      </trkpt>
      <trkpt lat="44.79231" lon="5.73038">
        <ele>740.6</ele>
        <time>2022-07-14T07:03:13Z</time>
      </trkpt>
      <trkpt lat="44.79233" lon="5.73036">
        <ele>740.7</ele>
        <time>2022-07-14T07:03:14Z</time>
      </trkpt>
      <trkpt lat="44.79236" lon="5.73032">
        <ele>740.9</ele>
        <time>2022-07-14T07:03:15Z</time>
      </trkpt>
      <trkpt lat="44.79239" lon="5.73029">
        <ele>741.1</ele>
        <time>2022-07-14T07:03:16Z</time>
      </trkpt>
      <trkpt lat="44.79242" lon="5.73025">
        <ele>741.3</ele>
        <time>2022-07-14T07:03:17Z</time>
      </trkpt>
      <trkpt lat="44.79245" lon="5.73021">
        <ele>741.5</ele>
        <time>2022-07-14T07:03:18Z</time>
      </trkpt>
      <trkpt lat="44.79248" lon="5.73013">
        <ele>742</ele>
        <time>2022-07-14T07:03:19Z</time>
      </trkpt>
      <trkpt lat="44.79253" lon="5.73009">
        <ele>742.3</ele>
        <time>2022-07-14T07:03:20Z</time>
      </trkpt>
      <trkpt lat="44.79259" lon="5.73002">
        <ele>742.9</ele>
        <time>2022-07-14T07:03:22Z</time>
      </trkpt>
      <trkpt lat="44.79261" lon="5.72997">
        <ele>743.1</ele>
        <time>2022-07-14T07:03:23Z</time>
      </trkpt>
      <trkpt lat="44.79262" lon="5.72994">
        <ele>743.3</ele>
        <time>2022-07-14T07:03:24Z</time>
      </trkpt>
      <trkpt lat="44.79266" lon="5.7299">
        <ele>743.6</ele>
        <time>2022-07-14T07:03:25Z</time>
      </trkpt>
      <trkpt lat="44.79269" lon="5.72987">
        <ele>743.9</ele>
        <time>2022-07-14T07:03:26Z</time>
      </trkpt>
      <trkpt lat="44.79277" lon="5.7298">
        <ele>744.6</ele>
        <time>2022-07-14T07:03:29Z</time>
      </trkpt>
      <trkpt lat="44.7928" lon="5.72977">
        <ele>744.8</ele>
        <time>2022-07-14T07:03:30Z</time>
      </trkpt>
      <trkpt lat="44.79286" lon="5.72972">
        <ele>745.4</ele>
        <time>2022-07-14T07:03:32Z</time>
      </trkpt>
      <trkpt lat="44.79291" lon="5.72966">
        <ele>745.9</ele>
        <time>2022-07-14T07:03:34Z</time>
      </trkpt>
      <trkpt lat="44.79298" lon="5.72956">
        <ele>746.7</ele>
        <time>2022-07-14T07:03:37Z</time>
      </trkpt>
      <trkpt lat="44.793" lon="5.72952">
        <ele>747</ele>
        <time>2022-07-14T07:03:38Z</time>
      </trkpt>
      <trkpt lat="44.79303" lon="5.72945">
        <ele>747.5</ele>
        <time>2022-07-14T07:03:40Z</time>
      </trkpt>
      <trkpt lat="44.79306" lon="5.72938">
        <ele>747.9</ele>
        <time>2022-07-14T07:03:42Z</time>
      </trkpt>
      <trkpt lat="44.79309" lon="5.72931">
        <ele>748.4</ele>
        <time>2022-07-14T07:03:43Z</time>
      </trkpt>
      <trkpt lat="44.79312" lon="5.72927">
        <ele>748.7</ele>
        <time>2022-07-14T07:03:45Z</time>
      </trkpt>
      <trkpt lat="44.79314" lon="5.72923">
        <ele>748.9</ele>
        <time>2022-07-14T07:03:46Z</time>
      </trkpt>
      <trkpt lat="44.79316" lon="5.72918">
        <ele>749.2</ele>
        <time>2022-07-14T07:03:47Z</time>
      </trkpt>
      <trkpt lat="44.79319" lon="5.72911">
        <ele>749.6</ele>
        <time>2022-07-14T07:03:49Z</time>
      </trkpt>
      <trkpt lat="44.7932" lon="5.72907">
        <ele>749.8</ele>
        <time>2022-07-14T07:03:50Z</time>
      </trkpt>
      <trkpt lat="44.79322" lon="5.72902">
        <ele>750.1</ele>
        <time>2022-07-14T07:03:51Z</time>
      </trkpt>
      <trkpt lat="44.79326" lon="5.72896">
        <ele>750.5</ele>
        <time>2022-07-14T07:03:53Z</time>
      </trkpt>
      <trkpt lat="44.79326" lon="5.72894">
        <ele>750.6</ele>
        <time>2022-07-14T07:03:54Z</time>
      </trkpt>
      <trkpt lat="44.79327" lon="5.72892">
        <ele>750.7</ele>
        <time>2022-07-14T07:03:55Z</time>
      </trkpt>
      <trkpt lat="44.79331" lon="5.72886">
        <ele>751.2</ele>
        <time>2022-07-14T07:03:57Z</time>
      </trkpt>
      <trkpt lat="44.79333" lon="5.72882">
        <ele>751.4</ele>
        <time>2022-07-14T07:03:58Z</time>
      </trkpt>
      <trkpt lat="44.79336" lon="5.72877">
        <ele>751.7</ele>
        <time>2022-07-14T07:04:00Z</time>
      </trkpt>
      <trkpt lat="44.7934" lon="5.7287">
        <ele>752.1</ele>
        <time>2022-07-14T07:04:02Z</time>
      </trkpt>
      <trkpt lat="44.79342" lon="5.72866">
        <ele>752.3</ele>
        <time>2022-07-14T07:04:03Z</time>
      </trkpt>
      <trkpt lat="44.79345" lon="5.72863">
        <ele>752.6</ele>
        <time>2022-07-14T07:04:04Z</time>
      </trkpt>
      <trkpt lat="44.79346" lon="5.72862">
        <ele>752.7</ele>
        <time>2022-07-14T07:04:05Z</time>
      </trkpt>
      <trkpt lat="44.79349" lon="5.72859">
        <ele>752.9</ele>
        <time>2022-07-14T07:04:06Z</time>
      </trkpt>
      <trkpt lat="44.79354" lon="5.72852">
        <ele>753.4</ele>
        <time>2022-07-14T07:04:08Z</time>
      </trkpt>
      <trkpt lat="44.79357" lon="5.72846">
        <ele>753.8</ele>
        <time>2022-07-14T07:04:10Z</time>
      </trkpt>
      <trkpt lat="44.7936" lon="5.72842">
        <ele>754</ele>
        <time>2022-07-14T07:04:11Z</time>
      </trkpt>
      <trkpt lat="44.79363" lon="5.7284">
        <ele>754.3</ele>
        <time>2022-07-14T07:04:12Z</time>
      </trkpt>
      <trkpt lat="44.79364" lon="5.72839">
        <ele>754.4</ele>
        <time>2022-07-14T07:04:13Z</time>
      </trkpt>
      <trkpt lat="44.79368" lon="5.72836">
        <ele>754.6</ele>
        <time>2022-07-14T07:04:14Z</time>
      </trkpt>
      <trkpt lat="44.79369" lon="5.72835">
        <ele>754.7</ele>
        <time>2022-07-14T07:04:15Z</time>
      </trkpt>
      <trkpt lat="44.79376" lon="5.72833">
        <ele>755.2</ele>
        <time>2022-07-14T07:04:17Z</time>
      </trkpt>
      <trkpt lat="44.79382" lon="5.72832">
        <ele>755.6</ele>
        <time>2022-07-14T07:04:19Z</time>
      </trkpt>
      <trkpt lat="44.79386" lon="5.72831">
        <ele>755.8</ele>
        <time>2022-07-14T07:04:20Z</time>
      </trkpt>
      <trkpt lat="44.79391" lon="5.72832">
        <ele>756</ele>
        <time>2022-07-14T07:04:22Z</time>
      </trkpt>
      <trkpt lat="44.79397" lon="5.72832">
        <ele>756.2</ele>
        <time>2022-07-14T07:04:23Z</time>
      </trkpt>
      <trkpt lat="44.79401" lon="5.72829">
        <ele>756.3</ele>
        <time>2022-07-14T07:04:24Z</time>
      </trkpt>
      <trkpt lat="44.79404" lon="5.72828">
        <ele>756.4</ele>
        <time>2022-07-14T07:04:25Z</time>
      </trkpt>
      <trkpt lat="44.79408" lon="5.72826">
        <ele>756.4</ele>
        <time>2022-07-14T07:04:26Z</time>
      </trkpt>
      <trkpt lat="44.79414" lon="5.72821">
        <ele>756.5</ele>
        <time>2022-07-14T07:04:28Z</time>
      </trkpt>
      <trkpt lat="44.7942" lon="5.7282">
        <ele>756.4</ele>
        <time>2022-07-14T07:04:29Z</time>
      </trkpt>
      <trkpt lat="44.79424" lon="5.72818">
        <ele>756.4</ele>
        <time>2022-07-14T07:04:30Z</time>
      </trkpt>
      <trkpt lat="44.79434" lon="5.72813">
        <ele>756.2</ele>
        <time>2022-07-14T07:04:33Z</time>
      </trkpt>
      <trkpt lat="44.79439" lon="5.7281">
        <ele>756.1</ele>
        <time>2022-07-14T07:04:34Z</time>
      </trkpt>
      <trkpt lat="44.79444" lon="5.72807">
        <ele>755.9</ele>
        <time>2022-07-14T07:04:35Z</time>
      </trkpt>
      <trkpt lat="44.7945" lon="5.72804">
        <ele>755.8</ele>
        <time>2022-07-14T07:04:36Z</time>
      </trkpt>
      <trkpt lat="44.79455" lon="5.72802">
        <ele>755.6</ele>
        <time>2022-07-14T07:04:37Z</time>
      </trkpt>
      <trkpt lat="44.79461" lon="5.72799">
        <ele>755.4</ele>
        <time>2022-07-14T07:04:38Z</time>
      </trkpt>
      <trkpt lat="44.79467" lon="5.72797">
        <ele>755.2</ele>
        <time>2022-07-14T07:04:39Z</time>
      </trkpt>
      <trkpt lat="44.79473" lon="5.72795">
        <ele>755.1</ele>
        <time>2022-07-14T07:04:40Z</time>
      </trkpt>
      <trkpt lat="44.7948" lon="5.72795">
        <ele>754.9</ele>
        <time>2022-07-14T07:04:41Z</time>
      </trkpt>
      <trkpt lat="44.79487" lon="5.72795">
        <ele>754.7</ele>
        <time>2022-07-14T07:04:42Z</time>
      </trkpt>
      <trkpt lat="44.79494" lon="5.72797">
        <ele>754.4</ele>
        <time>2022-07-14T07:04:43Z</time>
      </trkpt>
      <trkpt lat="44.79501" lon="5.728">
        <ele>754.1</ele>
        <time>2022-07-14T07:04:44Z</time>
      </trkpt>
      <trkpt lat="44.79508" lon="5.72805">
        <ele>753.8</ele>
        <time>2022-07-14T07:04:45Z</time>
      </trkpt>
      <trkpt lat="44.79514" lon="5.72812">
        <ele>753.5</ele>
        <time>2022-07-14T07:04:46Z</time>
      </trkpt>
      <trkpt lat="44.79518" lon="5.7282">
        <ele>753.3</ele>
        <time>2022-07-14T07:04:47Z</time>
      </trkpt>
      <trkpt lat="44.79522" lon="5.72829">
        <ele>753</ele>
        <time>2022-07-14T07:04:48Z</time>
      </trkpt>
      <trkpt lat="44.79526" lon="5.72837">
        <ele>752.7</ele>
        <time>2022-07-14T07:04:49Z</time>
      </trkpt>
      <trkpt lat="44.79531" lon="5.72846">
        <ele>752.4</ele>
        <time>2022-07-14T07:04:50Z</time>
      </trkpt>
      <trkpt lat="44.79535" lon="5.72854">
        <ele>752.2</ele>
        <time>2022-07-14T07:04:51Z</time>
      </trkpt>
      <trkpt lat="44.7954" lon="5.72863">
        <ele>752</ele>
        <time>2022-07-14T07:04:52Z</time>
      </trkpt>
      <trkpt lat="44.79546" lon="5.72871">
        <ele>751.8</ele>
        <time>2022-07-14T07:04:53Z</time>
      </trkpt>
      <trkpt lat="44.79551" lon="5.72879">
        <ele>751.7</ele>
        <time>2022-07-14T07:04:54Z</time>
      </trkpt>
      <trkpt lat="44.79556" lon="5.72886">
        <ele>751.7</ele>
        <time>2022-07-14T07:04:55Z</time>
      </trkpt>
      <trkpt lat="44.79561" lon="5.72894">
        <ele>751.7</ele>
        <time>2022-07-14T07:04:56Z</time>
      </trkpt>
      <trkpt lat="44.79566" lon="5.72902">
        <ele>751.7</ele>
        <time>2022-07-14T07:04:57Z</time>
      </trkpt>
      <trkpt lat="44.79572" lon="5.72908">
        <ele>751.7</ele>
        <time>2022-07-14T07:04:58Z</time>
      </trkpt>
      <trkpt lat="44.79577" lon="5.72915">
        <ele>751.8</ele>
        <time>2022-07-14T07:04:59Z</time>
      </trkpt>
      <trkpt lat="44.79582" lon="5.72922">
        <ele>751.9</ele>
        <time>2022-07-14T07:05:00Z</time>
      </trkpt>
      <trkpt lat="44.79586" lon="5.72928">
        <ele>752</ele>
        <time>2022-07-14T07:05:01Z</time>
      </trkpt>
      <trkpt lat="44.79589" lon="5.72936">
        <ele>752.1</ele>
        <time>2022-07-14T07:05:02Z</time>
      </trkpt>
      <trkpt lat="44.79592" lon="5.72944">
        <ele>752.2</ele>
        <time>2022-07-14T07:05:03Z</time>
      </trkpt>
      <trkpt lat="44.79595" lon="5.72951">
        <ele>752.3</ele>
        <time>2022-07-14T07:05:04Z</time>
      </trkpt>
      <trkpt lat="44.79598" lon="5.72957">
        <ele>752.4</ele>
        <time>2022-07-14T07:05:05Z</time>
      </trkpt>
      <trkpt lat="44.79603" lon="5.72963">
        <ele>752.4</ele>
        <time>2022-07-14T07:05:06Z</time>
      </trkpt>
      <trkpt lat="44.79607" lon="5.72968">
        <ele>752.5</ele>
        <time>2022-07-14T07:05:07Z</time>
      </trkpt>
      <trkpt lat="44.79612" lon="5.72972">
        <ele>752.6</ele>
        <time>2022-07-14T07:05:08Z</time>
      </trkpt>
      <trkpt lat="44.79616" lon="5.72976">
        <ele>752.7</ele>
        <time>2022-07-14T07:05:09Z</time>
      </trkpt>
      <trkpt lat="44.7962" lon="5.7298">
        <ele>752.8</ele>
        <time>2022-07-14T07:05:10Z</time>
      </trkpt>
      <trkpt lat="44.79625" lon="5.72984">
        <ele>752.8</ele>
        <time>2022-07-14T07:05:11Z</time>
      </trkpt>
      <trkpt lat="44.7963" lon="5.72988">
        <ele>752.9</ele>
        <time>2022-07-14T07:05:12Z</time>
      </trkpt>
      <trkpt lat="44.79635" lon="5.72992">
        <ele>753</ele>
        <time>2022-07-14T07:05:13Z</time>
      </trkpt>
      <trkpt lat="44.7964" lon="5.72996">
        <ele>753.1</ele>
        <time>2022-07-14T07:05:14Z</time>
      </trkpt>
      <trkpt lat="44.79644" lon="5.73001">
        <ele>753.2</ele>
        <time>2022-07-14T07:05:15Z</time>
      </trkpt>
      <trkpt lat="44.79648" lon="5.73005">
        <ele>753.4</ele>
        <time>2022-07-14T07:05:16Z</time>
      </trkpt>
      <trkpt lat="44.79653" lon="5.7301">
        <ele>753.6</ele>
        <time>2022-07-14T07:05:17Z</time>
      </trkpt>
      <trkpt lat="44.79657" lon="5.73014">
        <ele>753.8</ele>
        <time>2022-07-14T07:05:18Z</time>
      </trkpt>
      <trkpt lat="44.79661" lon="5.73018">
        <ele>754</ele>
        <time>2022-07-14T07:05:19Z</time>
      </trkpt>
      <trkpt lat="44.79665" lon="5.73022">
        <ele>754.3</ele>
        <time>2022-07-14T07:05:20Z</time>
      </trkpt>
      <trkpt lat="44.79669" lon="5.73026">
        <ele>754.5</ele>
        <time>2022-07-14T07:05:21Z</time>
      </trkpt>
      <trkpt lat="44.79673" lon="5.73028">
        <ele>754.7</ele>
        <time>2022-07-14T07:05:22Z</time>
      </trkpt>
      <trkpt lat="44.79676" lon="5.73031">
        <ele>754.9</ele>
        <time>2022-07-14T07:05:23Z</time>
      </trkpt>
      <trkpt lat="44.79681" lon="5.73035">
        <ele>755.2</ele>
        <time>2022-07-14T07:05:24Z</time>
      </trkpt>
      <trkpt lat="44.79684" lon="5.73038">
        <ele>755.4</ele>
        <time>2022-07-14T07:05:25Z</time>
      </trkpt>
      <trkpt lat="44.79686" lon="5.73041">
        <ele>755.5</ele>
        <time>2022-07-14T07:05:26Z</time>
      </trkpt>
      <trkpt lat="44.79689" lon="5.73045">
        <ele>755.7</ele>
        <time>2022-07-14T07:05:27Z</time>
      </trkpt>
      <trkpt lat="44.79692" lon="5.73047">
        <ele>755.9</ele>
        <time>2022-07-14T07:05:28Z</time>
      </trkpt>
      <trkpt lat="44.79695" lon="5.7305">
        <ele>756.1</ele>
        <time>2022-07-14T07:05:29Z</time>
      </trkpt>
      <trkpt lat="44.79699" lon="5.73052">
        <ele>756.3</ele>
        <time>2022-07-14T07:05:30Z</time>
      </trkpt>
      <trkpt lat="44.79706" lon="5.73059">
        <ele>756.8</ele>
        <time>2022-07-14T07:05:31Z</time>
      </trkpt>
      <trkpt lat="44.79708" lon="5.73061">
        <ele>757</ele>
        <time>2022-07-14T07:05:32Z</time>
      </trkpt>
      <trkpt lat="44.79711" lon="5.73062">
        <ele>757.2</ele>
        <time>2022-07-14T07:05:33Z</time>
      </trkpt>
      <trkpt lat="44.79715" lon="5.73064">
        <ele>757.4</ele>
        <time>2022-07-14T07:05:34Z</time>
      </trkpt>
      <trkpt lat="44.79719" lon="5.73067">
        <ele>757.7</ele>
        <time>2022-07-14T07:05:35Z</time>
      </trkpt>
      <trkpt lat="44.79722" lon="5.73069">
        <ele>757.9</ele>
        <time>2022-07-14T07:05:36Z</time>
      </trkpt>
      <trkpt lat="44.79726" lon="5.73074">
        <ele>758.2</ele>
        <time>2022-07-14T07:05:38Z</time>
      </trkpt>
      <trkpt lat="44.79728" lon="5.73078">
        <ele>758.5</ele>
        <time>2022-07-14T07:05:39Z</time>
      </trkpt>
      <trkpt lat="44.79731" lon="5.73082">
        <ele>758.7</ele>
        <time>2022-07-14T07:05:40Z</time>
      </trkpt>
      <trkpt lat="44.79734" lon="5.73088">
        <ele>759.2</ele>
        <time>2022-07-14T07:05:42Z</time>
      </trkpt>
      <trkpt lat="44.79736" lon="5.73096">
        <ele>759.7</ele>
        <time>2022-07-14T07:05:44Z</time>
      </trkpt>
      <trkpt lat="44.79737" lon="5.73104">
        <ele>760.2</ele>
        <time>2022-07-14T07:05:46Z</time>
      </trkpt>
      <trkpt lat="44.79737" lon="5.73108">
        <ele>760.4</ele>
        <time>2022-07-14T07:05:47Z</time>
      </trkpt>
      <trkpt lat="44.79737" lon="5.7311">
        <ele>760.6</ele>
        <time>2022-07-14T07:05:48Z</time>
      </trkpt>
      <trkpt lat="44.79737" lon="5.7312">
        <ele>761.3</ele>
        <time>2022-07-14T07:05:50Z</time>
      </trkpt>
      <trkpt lat="44.79735" lon="5.73129">
        <ele>761.9</ele>
        <time>2022-07-14T07:05:52Z</time>
      </trkpt>
      <trkpt lat="44.79734" lon="5.73133">
        <ele>762.2</ele>
        <time>2022-07-14T07:05:53Z</time>
      </trkpt>
      <trkpt lat="44.79732" lon="5.7314">
        <ele>762.7</ele>
        <time>2022-07-14T07:05:54Z</time>
      </trkpt>
      <trkpt lat="44.79731" lon="5.73143">
        <ele>763</ele>
        <time>2022-07-14T07:05:55Z</time>
      </trkpt>
      <trkpt lat="44.79731" lon="5.73148">
        <ele>763.4</ele>
        <time>2022-07-14T07:05:57Z</time>
      </trkpt>
      <trkpt lat="44.7973" lon="5.73151">
        <ele>763.5</ele>
        <time>2022-07-14T07:05:58Z</time>
      </trkpt>
      <trkpt lat="44.79729" lon="5.73157">
        <ele>764</ele>
        <time>2022-07-14T07:05:59Z</time>
      </trkpt>
      <trkpt lat="44.79728" lon="5.73163">
        <ele>764.4</ele>
        <time>2022-07-14T07:06:00Z</time>
      </trkpt>
      <trkpt lat="44.79727" lon="5.73169">
        <ele>764.8</ele>
        <time>2022-07-14T07:06:01Z</time>
      </trkpt>
      <trkpt lat="44.79727" lon="5.73174">
        <ele>765.2</ele>
        <time>2022-07-14T07:06:03Z</time>
      </trkpt>
      <trkpt lat="44.79727" lon="5.7318">
        <ele>765.6</ele>
        <time>2022-07-14T07:06:04Z</time>
      </trkpt>
      <trkpt lat="44.79727" lon="5.73185">
        <ele>765.8</ele>
        <time>2022-07-14T07:06:05Z</time>
      </trkpt>
      <trkpt lat="44.79727" lon="5.73186">
        <ele>766</ele>
        <time>2022-07-14T07:06:06Z</time>
      </trkpt>
      <trkpt lat="44.79726" lon="5.73192">
        <ele>766.3</ele>
        <time>2022-07-14T07:06:08Z</time>
      </trkpt>
      <trkpt lat="44.79726" lon="5.73196">
        <ele>766.6</ele>
        <time>2022-07-14T07:06:09Z</time>
      </trkpt>
      <trkpt lat="44.79724" lon="5.73201">
        <ele>766.9</ele>
        <time>2022-07-14T07:06:10Z</time>
      </trkpt>
      <trkpt lat="44.79725" lon="5.73206">
        <ele>767.2</ele>
        <time>2022-07-14T07:06:11Z</time>
      </trkpt>
      <trkpt lat="44.79726" lon="5.7321">
        <ele>767.5</ele>
        <time>2022-07-14T07:06:12Z</time>
      </trkpt>
      <trkpt lat="44.79726" lon="5.73216">
        <ele>767.9</ele>
        <time>2022-07-14T07:06:14Z</time>
      </trkpt>
      <trkpt lat="44.79727" lon="5.73224">
        <ele>768.4</ele>
        <time>2022-07-14T07:06:16Z</time>
      </trkpt>
      <trkpt lat="44.79727" lon="5.73228">
        <ele>768.6</ele>
        <time>2022-07-14T07:06:17Z</time>
      </trkpt>
      <trkpt lat="44.79728" lon="5.73234">
        <ele>769</ele>
        <time>2022-07-14T07:06:19Z</time>
      </trkpt>
      <trkpt lat="44.79729" lon="5.7324">
        <ele>769.3</ele>
        <time>2022-07-14T07:06:20Z</time>
      </trkpt>
      <trkpt lat="44.7973" lon="5.73243">
        <ele>769.5</ele>
        <time>2022-07-14T07:06:21Z</time>
      </trkpt>
      <trkpt lat="44.79731" lon="5.73247">
        <ele>769.7</ele>
        <time>2022-07-14T07:06:22Z</time>
      </trkpt>
      <trkpt lat="44.79733" lon="5.73255">
        <ele>770.2</ele>
        <time>2022-07-14T07:06:24Z</time>
      </trkpt>
      <trkpt lat="44.79735" lon="5.7326">
        <ele>770.5</ele>
        <time>2022-07-14T07:06:25Z</time>
      </trkpt>
      <trkpt lat="44.79736" lon="5.73264">
        <ele>770.8</ele>
        <time>2022-07-14T07:06:26Z</time>
      </trkpt>
      <trkpt lat="44.79737" lon="5.73267">
        <ele>771</ele>
        <time>2022-07-14T07:06:27Z</time>
      </trkpt>
      <trkpt lat="44.79738" lon="5.73274">
        <ele>771.4</ele>
        <time>2022-07-14T07:06:29Z</time>
      </trkpt>
      <trkpt lat="44.7974" lon="5.73278">
        <ele>771.6</ele>
        <time>2022-07-14T07:06:30Z</time>
      </trkpt>
      <trkpt lat="44.79742" lon="5.73284">
        <ele>772.1</ele>
        <time>2022-07-14T07:06:32Z</time>
      </trkpt>
      <trkpt lat="44.79743" lon="5.73289">
        <ele>772.4</ele>
        <time>2022-07-14T07:06:33Z</time>
      </trkpt>
      <trkpt lat="44.79746" lon="5.73296">
        <ele>773</ele>
        <time>2022-07-14T07:06:35Z</time>
      </trkpt>
      <trkpt lat="44.79747" lon="5.733">
        <ele>773.3</ele>
        <time>2022-07-14T07:06:36Z</time>
      </trkpt>
      <trkpt lat="44.79747" lon="5.73301">
        <ele>773.4</ele>
        <time>2022-07-14T07:06:37Z</time>
      </trkpt>
      <trkpt lat="44.79748" lon="5.73304">
        <ele>773.6</ele>
        <time>2022-07-14T07:06:38Z</time>
      </trkpt>
      <trkpt lat="44.79748" lon="5.73309">
        <ele>773.9</ele>
        <time>2022-07-14T07:06:39Z</time>
      </trkpt>
      <trkpt lat="44.79748" lon="5.7331">
        <ele>774</ele>
        <time>2022-07-14T07:06:40Z</time>
      </trkpt>
      <trkpt lat="44.7975" lon="5.73316">
        <ele>774.5</ele>
        <time>2022-07-14T07:06:42Z</time>
      </trkpt>
      <trkpt lat="44.79751" lon="5.73319">
        <ele>774.7</ele>
        <time>2022-07-14T07:06:43Z</time>
      </trkpt>
      <trkpt lat="44.79753" lon="5.73327">
        <ele>775.3</ele>
        <time>2022-07-14T07:06:46Z</time>
      </trkpt>
      <trkpt lat="44.79756" lon="5.73332">
        <ele>775.8</ele>
        <time>2022-07-14T07:06:48Z</time>
      </trkpt>
      <trkpt lat="44.79757" lon="5.73337">
        <ele>776.1</ele>
        <time>2022-07-14T07:06:49Z</time>
      </trkpt>
      <trkpt lat="44.79758" lon="5.73342">
        <ele>776.5</ele>
        <time>2022-07-14T07:06:50Z</time>
      </trkpt>
      <trkpt lat="44.79759" lon="5.73346">
        <ele>776.8</ele>
        <time>2022-07-14T07:06:52Z</time>
      </trkpt>
      <trkpt lat="44.79759" lon="5.73348">
        <ele>777</ele>
        <time>2022-07-14T07:06:53Z</time>
      </trkpt>
      <trkpt lat="44.7976" lon="5.73352">
        <ele>777.2</ele>
        <time>2022-07-14T07:06:54Z</time>
      </trkpt>
      <trkpt lat="44.7976" lon="5.73353">
        <ele>777.3</ele>
        <time>2022-07-14T07:06:55Z</time>
      </trkpt>
      <trkpt lat="44.79763" lon="5.73359">
        <ele>777.7</ele>
        <time>2022-07-14T07:06:57Z</time>
      </trkpt>
      <trkpt lat="44.79764" lon="5.73365">
        <ele>778.1</ele>
        <time>2022-07-14T07:06:58Z</time>
      </trkpt>
      <trkpt lat="44.79765" lon="5.73371">
        <ele>778.5</ele>
        <time>2022-07-14T07:07:00Z</time>
      </trkpt>
      <trkpt lat="44.79766" lon="5.73375">
        <ele>778.8</ele>
        <time>2022-07-14T07:07:01Z</time>
      </trkpt>
      <trkpt lat="44.79766" lon="5.73376">
        <ele>778.9</ele>
        <time>2022-07-14T07:07:02Z</time>
      </trkpt>
      <trkpt lat="44.79766" lon="5.73379">
        <ele>779.1</ele>
        <time>2022-07-14T07:07:03Z</time>
      </trkpt>
      <trkpt lat="44.79767" lon="5.73385">
        <ele>779.5</ele>
        <time>2022-07-14T07:07:05Z</time>
      </trkpt>
      <trkpt lat="44.79768" lon="5.73391">
        <ele>779.9</ele>
        <time>2022-07-14T07:07:07Z</time>
      </trkpt>
      <trkpt lat="44.79769" lon="5.73395">
        <ele>780.2</ele>
        <time>2022-07-14T07:07:08Z</time>
      </trkpt>
      <trkpt lat="44.7977" lon="5.734">
        <ele>780.5</ele>
        <time>2022-07-14T07:07:10Z</time>
      </trkpt>
      <trkpt lat="44.7977" lon="5.73402">
        <ele>780.7</ele>
        <time>2022-07-14T07:07:11Z</time>
      </trkpt>
      <trkpt lat="44.7977" lon="5.73405">
        <ele>780.9</ele>
        <time>2022-07-14T07:07:12Z</time>
      </trkpt>
      <trkpt lat="44.79772" lon="5.7341">
        <ele>781.3</ele>
        <time>2022-07-14T07:07:14Z</time>
      </trkpt>
      <trkpt lat="44.79772" lon="5.73412">
        <ele>781.4</ele>
        <time>2022-07-14T07:07:15Z</time>
      </trkpt>
      <trkpt lat="44.79773" lon="5.73419">
        <ele>781.9</ele>
        <time>2022-07-14T07:07:17Z</time>
      </trkpt>
      <trkpt lat="44.79775" lon="5.73423">
        <ele>782.2</ele>
        <time>2022-07-14T07:07:18Z</time>
      </trkpt>
      <trkpt lat="44.79775" lon="5.73425">
        <ele>782.3</ele>
        <time>2022-07-14T07:07:19Z</time>
      </trkpt>
      <trkpt lat="44.79775" lon="5.73432">
        <ele>782.8</ele>
        <time>2022-07-14T07:07:21Z</time>
      </trkpt>
      <trkpt lat="44.79776" lon="5.73438">
        <ele>783.2</ele>
        <time>2022-07-14T07:07:23Z</time>
      </trkpt>
      <trkpt lat="44.79776" lon="5.73443">
        <ele>783.5</ele>
        <time>2022-07-14T07:07:24Z</time>
      </trkpt>
      <trkpt lat="44.79776" lon="5.73445">
        <ele>783.6</ele>
        <time>2022-07-14T07:07:25Z</time>
      </trkpt>
      <trkpt lat="44.79777" lon="5.7345">
        <ele>784</ele>
        <time>2022-07-14T07:07:27Z</time>
      </trkpt>
      <trkpt lat="44.79777" lon="5.73457">
        <ele>784.4</ele>
        <time>2022-07-14T07:07:29Z</time>
      </trkpt>
      <trkpt lat="44.79778" lon="5.73461">
        <ele>784.7</ele>
        <time>2022-07-14T07:07:30Z</time>
      </trkpt>
      <trkpt lat="44.79778" lon="5.73469">
        <ele>785.2</ele>
        <time>2022-07-14T07:07:32Z</time>
      </trkpt>
      <trkpt lat="44.79779" lon="5.73473">
        <ele>785.5</ele>
        <time>2022-07-14T07:07:33Z</time>
      </trkpt>
      <trkpt lat="44.7978" lon="5.73477">
        <ele>785.7</ele>
        <time>2022-07-14T07:07:34Z</time>
      </trkpt>
      <trkpt lat="44.79781" lon="5.73483">
        <ele>786.1</ele>
        <time>2022-07-14T07:07:36Z</time>
      </trkpt>
      <trkpt lat="44.79783" lon="5.73486">
        <ele>786.3</ele>
        <time>2022-07-14T07:07:37Z</time>
      </trkpt>
      <trkpt lat="44.79785" lon="5.73492">
        <ele>786.7</ele>
        <time>2022-07-14T07:07:39Z</time>
      </trkpt>
      <trkpt lat="44.79788" lon="5.73496">
        <ele>787</ele>
        <time>2022-07-14T07:07:40Z</time>
      </trkpt>
      <trkpt lat="44.79789" lon="5.73497">
        <ele>787.1</ele>
        <time>2022-07-14T07:07:41Z</time>
      </trkpt>
      <trkpt lat="44.79796" lon="5.73498">
        <ele>787.6</ele>
        <time>2022-07-14T07:07:43Z</time>
      </trkpt>
      <trkpt lat="44.79799" lon="5.73497">
        <ele>787.7</ele>
        <time>2022-07-14T07:07:44Z</time>
      </trkpt>
      <trkpt lat="44.79806" lon="5.73493">
        <ele>788.3</ele>
        <time>2022-07-14T07:07:47Z</time>
      </trkpt>
      <trkpt lat="44.7981" lon="5.73488">
        <ele>788.7</ele>
        <time>2022-07-14T07:07:49Z</time>
      </trkpt>
      <trkpt lat="44.79812" lon="5.73485">
        <ele>788.9</ele>
        <time>2022-07-14T07:07:50Z</time>
      </trkpt>
      <trkpt lat="44.79816" lon="5.73486">
        <ele>789.2</ele>
        <time>2022-07-14T07:07:51Z</time>
      </trkpt>
      <trkpt lat="44.79817" lon="5.73486">
        <ele>789.3</ele>
        <time>2022-07-14T07:07:52Z</time>
      </trkpt>
      <trkpt lat="44.79819" lon="5.73483">
        <ele>789.6</ele>
        <time>2022-07-14T07:07:53Z</time>
      </trkpt>
      <trkpt lat="44.79821" lon="5.73479">
        <ele>790</ele>
        <time>2022-07-14T07:07:55Z</time>
      </trkpt>
      <trkpt lat="44.79823" lon="5.73476">
        <ele>790.2</ele>
        <time>2022-07-14T07:07:56Z</time>
      </trkpt>
      <trkpt lat="44.79825" lon="5.73474">
        <ele>790.5</ele>
        <time>2022-07-14T07:07:57Z</time>
      </trkpt>
      <trkpt lat="44.79828" lon="5.73472">
        <ele>790.8</ele>
        <time>2022-07-14T07:07:58Z</time>
      </trkpt>
      <trkpt lat="44.79831" lon="5.73469">
        <ele>791.1</ele>
        <time>2022-07-14T07:08:00Z</time>
      </trkpt>
      <trkpt lat="44.79835" lon="5.73467">
        <ele>791.5</ele>
        <time>2022-07-14T07:08:01Z</time>
      </trkpt>
      <trkpt lat="44.79836" lon="5.73466">
        <ele>791.6</ele>
        <time>2022-07-14T07:08:02Z</time>
      </trkpt>
      <trkpt lat="44.7984" lon="5.73465">
        <ele>792</ele>
        <time>2022-07-14T07:08:03Z</time>
      </trkpt>
      <trkpt lat="44.79841" lon="5.73464">
        <ele>792.1</ele>
        <time>2022-07-14T07:08:04Z</time>
      </trkpt>
      <trkpt lat="44.79846" lon="5.73462">
        <ele>792.5</ele>
        <time>2022-07-14T07:08:05Z</time>
      </trkpt>
      <trkpt lat="44.7985" lon="5.73459">
        <ele>792.8</ele>
        <time>2022-07-14T07:08:07Z</time>
      </trkpt>
      <trkpt lat="44.79851" lon="5.73458">
        <ele>793</ele>
        <time>2022-07-14T07:08:08Z</time>
      </trkpt>
      <trkpt lat="44.79852" lon="5.73457">
        <ele>793.1</ele>
        <time>2022-07-14T07:08:09Z</time>
      </trkpt>
      <trkpt lat="44.79855" lon="5.73456">
        <ele>793.4</ele>
        <time>2022-07-14T07:08:10Z</time>
      </trkpt>
      <trkpt lat="44.7986" lon="5.73453">
        <ele>793.8</ele>
        <time>2022-07-14T07:08:12Z</time>
      </trkpt>
      <trkpt lat="44.79864" lon="5.73452">
        <ele>794.1</ele>
        <time>2022-07-14T07:08:14Z</time>
      </trkpt>
      <trkpt lat="44.79866" lon="5.7345">
        <ele>794.3</ele>
        <time>2022-07-14T07:08:15Z</time>
      </trkpt>
      <trkpt lat="44.7987" lon="5.73448">
        <ele>794.7</ele>
        <time>2022-07-14T07:08:17Z</time>
      </trkpt>
      <trkpt lat="44.79872" lon="5.73448">
        <ele>794.8</ele>
        <time>2022-07-14T07:08:18Z</time>
      </trkpt>
      <trkpt lat="44.79877" lon="5.73447">
        <ele>795.2</ele>
        <time>2022-07-14T07:08:20Z</time>
      </trkpt>
      <trkpt lat="44.79882" lon="5.73446">
        <ele>795.6</ele>
        <time>2022-07-14T07:08:22Z</time>
      </trkpt>
      <trkpt lat="44.79886" lon="5.73446">
        <ele>796</ele>
        <time>2022-07-14T07:08:23Z</time>
      </trkpt>
      <trkpt lat="44.79888" lon="5.73445">
        <ele>796.1</ele>
        <time>2022-07-14T07:08:24Z</time>
      </trkpt>
      <trkpt lat="44.79891" lon="5.73445">
        <ele>796.4</ele>
        <time>2022-07-14T07:08:25Z</time>
      </trkpt>
      <trkpt lat="44.79896" lon="5.73446">
        <ele>796.8</ele>
        <time>2022-07-14T07:08:27Z</time>
      </trkpt>
      <trkpt lat="44.79899" lon="5.73444">
        <ele>797.1</ele>
        <time>2022-07-14T07:08:28Z</time>
      </trkpt>
      <trkpt lat="44.79905" lon="5.73443">
        <ele>797.6</ele>
        <time>2022-07-14T07:08:30Z</time>
      </trkpt>
      <trkpt lat="44.79907" lon="5.73442">
        <ele>797.8</ele>
        <time>2022-07-14T07:08:31Z</time>
      </trkpt>
      <trkpt lat="44.79909" lon="5.73442">
        <ele>797.9</ele>
        <time>2022-07-14T07:08:32Z</time>
      </trkpt>
      <trkpt lat="44.79912" lon="5.73441">
        <ele>798.3</ele>
        <time>2022-07-14T07:08:33Z</time>
      </trkpt>
      <trkpt lat="44.79917" lon="5.73441">
        <ele>798.7</ele>
        <time>2022-07-14T07:08:35Z</time>
      </trkpt>
      <trkpt lat="44.7992" lon="5.7344">
        <ele>798.9</ele>
        <time>2022-07-14T07:08:36Z</time>
      </trkpt>
      <trkpt lat="44.79923" lon="5.73441">
        <ele>799.3</ele>
        <time>2022-07-14T07:08:37Z</time>
      </trkpt>
      <trkpt lat="44.79925" lon="5.73441">
        <ele>799.4</ele>
        <time>2022-07-14T07:08:38Z</time>
      </trkpt>
      <trkpt lat="44.79929" lon="5.7344">
        <ele>799.8</ele>
        <time>2022-07-14T07:08:40Z</time>
      </trkpt>
      <trkpt lat="44.79931" lon="5.7344">
        <ele>799.9</ele>
        <time>2022-07-14T07:08:41Z</time>
      </trkpt>
      <trkpt lat="44.79936" lon="5.73437">
        <ele>800.3</ele>
        <time>2022-07-14T07:08:43Z</time>
      </trkpt>
      <trkpt lat="44.79939" lon="5.73436">
        <ele>800.5</ele>
        <time>2022-07-14T07:08:44Z</time>
      </trkpt>
      <trkpt lat="44.79945" lon="5.73435">
        <ele>800.9</ele>
        <time>2022-07-14T07:08:46Z</time>
      </trkpt>
      <trkpt lat="44.7995" lon="5.73433">
        <ele>801</ele>
        <time>2022-07-14T07:08:48Z</time>
      </trkpt>
      <trkpt lat="44.79953" lon="5.73431">
        <ele>801.1</ele>
        <time>2022-07-14T07:08:49Z</time>
      </trkpt>
      <trkpt lat="44.79959" lon="5.73428">
        <ele>801.3</ele>
        <time>2022-07-14T07:08:51Z</time>
      </trkpt>
      <trkpt lat="44.79962" lon="5.73427">
        <ele>801.5</ele>
        <time>2022-07-14T07:08:52Z</time>
      </trkpt>
      <trkpt lat="44.79962" lon="5.73426">
        <ele>801.5</ele>
        <time>2022-07-14T07:08:53Z</time>
      </trkpt>
      <trkpt lat="44.79965" lon="5.73425">
        <ele>801.7</ele>
        <time>2022-07-14T07:08:54Z</time>
      </trkpt>
      <trkpt lat="44.79968" lon="5.73423">
        <ele>801.9</ele>
        <time>2022-07-14T07:08:55Z</time>
      </trkpt>
      <trkpt lat="44.79974" lon="5.73418">
        <ele>802.3</ele>
        <time>2022-07-14T07:08:57Z</time>
      </trkpt>
      <trkpt lat="44.79978" lon="5.73418">
        <ele>802.5</ele>
        <time>2022-07-14T07:08:58Z</time>
      </trkpt>
      <trkpt lat="44.7998" lon="5.73417">
        <ele>802.6</ele>
        <time>2022-07-14T07:08:59Z</time>
      </trkpt>
      <trkpt lat="44.79986" lon="5.73413">
        <ele>802.9</ele>
        <time>2022-07-14T07:09:01Z</time>
      </trkpt>
      <trkpt lat="44.7999" lon="5.7341">
        <ele>803.1</ele>
        <time>2022-07-14T07:09:02Z</time>
      </trkpt>
      <trkpt lat="44.79997" lon="5.73407">
        <ele>803.3</ele>
        <time>2022-07-14T07:09:03Z</time>
      </trkpt>
      <trkpt lat="44.8" lon="5.73406">
        <ele>803.5</ele>
        <time>2022-07-14T07:09:04Z</time>
      </trkpt>
      <trkpt lat="44.80003" lon="5.73404">
        <ele>803.6</ele>
        <time>2022-07-14T07:09:05Z</time>
      </trkpt>
      <trkpt lat="44.8001" lon="5.734">
        <ele>803.8</ele>
        <time>2022-07-14T07:09:07Z</time>
      </trkpt>
      <trkpt lat="44.80015" lon="5.73398">
        <ele>803.9</ele>
        <time>2022-07-14T07:09:08Z</time>
      </trkpt>
      <trkpt lat="44.80017" lon="5.73397">
        <ele>803.9</ele>
        <time>2022-07-14T07:09:09Z</time>
      </trkpt>
      <trkpt lat="44.80021" lon="5.73394">
        <ele>804</ele>
        <time>2022-07-14T07:09:10Z</time>
      </trkpt>
      <trkpt lat="44.80023" lon="5.73394">
        <ele>804</ele>
        <time>2022-07-14T07:09:11Z</time>
      </trkpt>
      <trkpt lat="44.80027" lon="5.73392">
        <ele>804.1</ele>
        <time>2022-07-14T07:09:12Z</time>
      </trkpt>
      <trkpt lat="44.80031" lon="5.73391">
        <ele>804.2</ele>
        <time>2022-07-14T07:09:13Z</time>
      </trkpt>
      <trkpt lat="44.80043" lon="5.73392">
        <ele>804.4</ele>
        <time>2022-07-14T07:09:16Z</time>
      </trkpt>
      <trkpt lat="44.80049" lon="5.73393">
        <ele>804.5</ele>
        <time>2022-07-14T07:09:17Z</time>
      </trkpt>
      <trkpt lat="44.80055" lon="5.73397">
        <ele>804.7</ele>
        <time>2022-07-14T07:09:19Z</time>
      </trkpt>
      <trkpt lat="44.80058" lon="5.73398">
        <ele>804.7</ele>
        <time>2022-07-14T07:09:20Z</time>
      </trkpt>
      <trkpt lat="44.80061" lon="5.734">
        <ele>804.8</ele>
        <time>2022-07-14T07:09:21Z</time>
      </trkpt>
      <trkpt lat="44.80069" lon="5.73404">
        <ele>805.1</ele>
        <time>2022-07-14T07:09:22Z</time>
      </trkpt>
      <trkpt lat="44.80069" lon="5.73406">
        <ele>805.1</ele>
        <time>2022-07-14T07:09:24Z</time>
      </trkpt>
      <trkpt lat="44.80077" lon="5.73409">
        <ele>805.4</ele>
        <time>2022-07-14T07:09:27Z</time>
      </trkpt>
      <trkpt lat="44.801" lon="5.73417">
        <ele>806.1</ele>
        <time>2022-07-14T07:09:29Z</time>
      </trkpt>
      <trkpt lat="44.80103" lon="5.73412">
        <ele>806.2</ele>
        <time>2022-07-14T07:09:31Z</time>
      </trkpt>
      <trkpt lat="44.80109" lon="5.73422">
        <ele>806.5</ele>
        <time>2022-07-14T07:09:32Z</time>
      </trkpt>
      <trkpt lat="44.80112" lon="5.73426">
        <ele>806.6</ele>
        <time>2022-07-14T07:09:33Z</time>
      </trkpt>
      <trkpt lat="44.8012" lon="5.73429">
        <ele>806.9</ele>
        <time>2022-07-14T07:09:34Z</time>
      </trkpt>
      <trkpt lat="44.8013" lon="5.73432">
        <ele>807.1</ele>
        <time>2022-07-14T07:09:36Z</time>
      </trkpt>
      <trkpt lat="44.80135" lon="5.7344">
        <ele>807.4</ele>
        <time>2022-07-14T07:09:38Z</time>
      </trkpt>
      <trkpt lat="44.8014" lon="5.73439">
        <ele>807.5</ele>
        <time>2022-07-14T07:09:39Z</time>
      </trkpt>
      <trkpt lat="44.80149" lon="5.73442">
        <ele>807.8</ele>
        <time>2022-07-14T07:09:41Z</time>
      </trkpt>
      <trkpt lat="44.80156" lon="5.73446">
        <ele>807.9</ele>
        <time>2022-07-14T07:09:43Z</time>
      </trkpt>
      <trkpt lat="44.8016" lon="5.73449">
        <ele>808</ele>
        <time>2022-07-14T07:09:44Z</time>
      </trkpt>
      <trkpt lat="44.80162" lon="5.73448">
        <ele>808</ele>
        <time>2022-07-14T07:09:46Z</time>
      </trkpt>
      <trkpt lat="44.80154" lon="5.73444">
        <ele>808.1</ele>
        <time>2022-07-14T07:09:49Z</time>
      </trkpt>
      <trkpt lat="44.80155" lon="5.73444">
        <ele>808.1</ele>
        <time>2022-07-14T07:09:50Z</time>
      </trkpt>
      <trkpt lat="44.80155" lon="5.73444">
        <ele>808.1</ele>
        <time>2022-07-14T07:09:51Z</time>
      </trkpt>
      <trkpt lat="44.80155" lon="5.73444">
        <ele>808.1</ele>
        <time>2022-07-14T07:09:52Z</time>
      </trkpt>
      <trkpt lat="44.80155" lon="5.73445">
        <ele>808.1</ele>
        <time>2022-07-14T07:09:53Z</time>
      </trkpt>
      <trkpt lat="44.80155" lon="5.73445">
        <ele>808.1</ele>
        <time>2022-07-14T07:09:54Z</time>
      </trkpt>
      <trkpt lat="44.80155" lon="5.73446">
        <ele>808.1</ele>
        <time>2022-07-14T07:09:55Z</time>
      </trkpt>
      <trkpt lat="44.80155" lon="5.73446">
        <ele>808.1</ele>
        <time>2022-07-14T07:09:56Z</time>
      </trkpt>
      <trkpt lat="44.80157" lon="5.73452">
        <ele>808.2</ele>
        <time>2022-07-14T07:12:09Z</time>
      </trkpt>
      <trkpt lat="44.80158" lon="5.73453">
        <ele>808.2</ele>
        <time>2022-07-14T07:12:10Z</time>
      </trkpt>
      <trkpt lat="44.80159" lon="5.73456">
        <ele>808.2</ele>
        <time>2022-07-14T07:12:11Z</time>
      </trkpt>
      <trkpt lat="44.80162" lon="5.73459">
        <ele>808.2</ele>
        <time>2022-07-14T07:12:13Z</time>
      </trkpt>
      <trkpt lat="44.80164" lon="5.73465">
        <ele>808.1</ele>
        <time>2022-07-14T07:12:14Z</time>
      </trkpt>
      <trkpt lat="44.80179" lon="5.73467">
        <ele>807.8</ele>
        <time>2022-07-14T07:12:16Z</time>
      </trkpt>
      <trkpt lat="44.80199" lon="5.73474">
        <ele>807.2</ele>
        <time>2022-07-14T07:12:19Z</time>
      </trkpt>
      <trkpt lat="44.80204" lon="5.73477">
        <ele>807</ele>
        <time>2022-07-14T07:12:20Z</time>
      </trkpt>
      <trkpt lat="44.80209" lon="5.7348">
        <ele>806.8</ele>
        <time>2022-07-14T07:12:21Z</time>
      </trkpt>
      <trkpt lat="44.80214" lon="5.73484">
        <ele>806.6</ele>
        <time>2022-07-14T07:12:22Z</time>
      </trkpt>
      <trkpt lat="44.80218" lon="5.73487">
        <ele>806.4</ele>
        <time>2022-07-14T07:12:23Z</time>
      </trkpt>
      <trkpt lat="44.80223" lon="5.7349">
        <ele>806.1</ele>
        <time>2022-07-14T07:12:24Z</time>
      </trkpt>
      <trkpt lat="44.80229" lon="5.73494">
        <ele>805.8</ele>
        <time>2022-07-14T07:12:25Z</time>
      </trkpt>
      <trkpt lat="44.80234" lon="5.73497">
        <ele>805.6</ele>
        <time>2022-07-14T07:12:26Z</time>
      </trkpt>
      <trkpt lat="44.8024" lon="5.735">
        <ele>805.3</ele>
        <time>2022-07-14T07:12:27Z</time>
      </trkpt>
      <trkpt lat="44.80246" lon="5.73504">
        <ele>805</ele>
        <time>2022-07-14T07:12:28Z</time>
      </trkpt>
      <trkpt lat="44.80251" lon="5.73508">
        <ele>804.7</ele>
        <time>2022-07-14T07:12:29Z</time>
      </trkpt>
      <trkpt lat="44.80257" lon="5.7351">
        <ele>804.5</ele>
        <time>2022-07-14T07:12:30Z</time>
      </trkpt>
      <trkpt lat="44.80262" lon="5.73514">
        <ele>804.2</ele>
        <time>2022-07-14T07:12:31Z</time>
      </trkpt>
      <trkpt lat="44.80268" lon="5.73516">
        <ele>804</ele>
        <time>2022-07-14T07:12:32Z</time>
      </trkpt>
      <trkpt lat="44.80275" lon="5.73519">
        <ele>803.7</ele>
        <time>2022-07-14T07:12:33Z</time>
      </trkpt>
      <trkpt lat="44.80285" lon="5.73523">
        <ele>803.3</ele>
        <time>2022-07-14T07:12:34Z</time>
      </trkpt>
      <trkpt lat="44.8029" lon="5.73526">
        <ele>803.1</ele>
        <time>2022-07-14T07:12:35Z</time>
      </trkpt>
      <trkpt lat="44.80295" lon="5.73529">
        <ele>802.8</ele>
        <time>2022-07-14T07:12:36Z</time>
      </trkpt>
      <trkpt lat="44.80303" lon="5.7353">
        <ele>802.5</ele>
        <time>2022-07-14T07:12:37Z</time>
      </trkpt>
      <trkpt lat="44.8031" lon="5.7353">
        <ele>802.1</ele>
        <time>2022-07-14T07:12:38Z</time>
      </trkpt>
      <trkpt lat="44.80319" lon="5.73528">
        <ele>801.6</ele>
        <time>2022-07-14T07:12:39Z</time>
      </trkpt>
      <trkpt lat="44.80326" lon="5.73525">
        <ele>801.2</ele>
        <time>2022-07-14T07:12:40Z</time>
      </trkpt>
      <trkpt lat="44.80333" lon="5.7352">
        <ele>800.9</ele>
        <time>2022-07-14T07:12:41Z</time>
      </trkpt>
      <trkpt lat="44.8034" lon="5.73515">
        <ele>800.5</ele>
        <time>2022-07-14T07:12:42Z</time>
      </trkpt>
      <trkpt lat="44.80346" lon="5.7351">
        <ele>800.1</ele>
        <time>2022-07-14T07:12:43Z</time>
      </trkpt>
      <trkpt lat="44.80353" lon="5.73505">
        <ele>799.7</ele>
        <time>2022-07-14T07:12:44Z</time>
      </trkpt>
      <trkpt lat="44.8036" lon="5.73499">
        <ele>799.3</ele>
        <time>2022-07-14T07:12:45Z</time>
      </trkpt>
      <trkpt lat="44.80367" lon="5.73492">
        <ele>798.8</ele>
        <time>2022-07-14T07:12:46Z</time>
      </trkpt>
      <trkpt lat="44.80373" lon="5.73486">
        <ele>798.3</ele>
        <time>2022-07-14T07:12:47Z</time>
      </trkpt>
      <trkpt lat="44.8038" lon="5.7348">
        <ele>797.7</ele>
        <time>2022-07-14T07:12:48Z</time>
      </trkpt>
      <trkpt lat="44.80387" lon="5.73473">
        <ele>797.2</ele>
        <time>2022-07-14T07:12:49Z</time>
      </trkpt>
      <trkpt lat="44.80394" lon="5.73467">
        <ele>796.8</ele>
        <time>2022-07-14T07:12:50Z</time>
      </trkpt>
      <trkpt lat="44.80401" lon="5.73461">
        <ele>796.3</ele>
        <time>2022-07-14T07:12:51Z</time>
      </trkpt>
      <trkpt lat="44.80408" lon="5.73454">
        <ele>795.9</ele>
        <time>2022-07-14T07:12:52Z</time>
      </trkpt>
      <trkpt lat="44.80416" lon="5.73448">
        <ele>795.4</ele>
        <time>2022-07-14T07:12:53Z</time>
      </trkpt>
      <trkpt lat="44.80424" lon="5.73442">
        <ele>794.9</ele>
        <time>2022-07-14T07:12:54Z</time>
      </trkpt>
      <trkpt lat="44.80432" lon="5.73436">
        <ele>794.3</ele>
        <time>2022-07-14T07:12:55Z</time>
      </trkpt>
      <trkpt lat="44.8044" lon="5.73431">
        <ele>793.6</ele>
        <time>2022-07-14T07:12:56Z</time>
      </trkpt>
      <trkpt lat="44.80449" lon="5.73425">
        <ele>792.8</ele>
        <time>2022-07-14T07:12:57Z</time>
      </trkpt>
      <trkpt lat="44.80457" lon="5.73419">
        <ele>792.1</ele>
        <time>2022-07-14T07:12:58Z</time>
      </trkpt>
      <trkpt lat="44.80464" lon="5.73413">
        <ele>791.5</ele>
        <time>2022-07-14T07:12:59Z</time>
      </trkpt>
      <trkpt lat="44.8047" lon="5.73408">
        <ele>790.9</ele>
        <time>2022-07-14T07:13:00Z</time>
      </trkpt>
      <trkpt lat="44.80476" lon="5.73402">
        <ele>790.4</ele>
        <time>2022-07-14T07:13:01Z</time>
      </trkpt>
      <trkpt lat="44.8048" lon="5.73395">
        <ele>789.9</ele>
        <time>2022-07-14T07:13:02Z</time>
      </trkpt>
      <trkpt lat="44.80484" lon="5.73388">
        <ele>789.5</ele>
        <time>2022-07-14T07:13:03Z</time>
      </trkpt>
      <trkpt lat="44.80481" lon="5.73382">
        <ele>789.2</ele>
        <time>2022-07-14T07:13:04Z</time>
      </trkpt>
      <trkpt lat="44.80483" lon="5.73376">
        <ele>788.9</ele>
        <time>2022-07-14T07:13:05Z</time>
      </trkpt>
      <trkpt lat="44.80485" lon="5.73371">
        <ele>788.7</ele>
        <time>2022-07-14T07:13:06Z</time>
      </trkpt>
      <trkpt lat="44.80488" lon="5.73368">
        <ele>788.5</ele>
        <time>2022-07-14T07:13:07Z</time>
      </trkpt>
      <trkpt lat="44.80489" lon="5.73367">
        <ele>788.4</ele>
        <time>2022-07-14T07:13:08Z</time>
      </trkpt>
      <trkpt lat="44.80492" lon="5.73369">
        <ele>788.2</ele>
        <time>2022-07-14T07:13:09Z</time>
      </trkpt>
      <trkpt lat="44.80495" lon="5.73374">
        <ele>785.4</ele>
        <time>2022-07-14T07:13:10Z</time>
      </trkpt>
      <trkpt lat="44.80494" lon="5.73381">
        <ele>784.9</ele>
        <time>2022-07-14T07:13:11Z</time>
      </trkpt>
      <trkpt lat="44.80493" lon="5.73388">
        <ele>784.4</ele>
        <time>2022-07-14T07:13:12Z</time>
      </trkpt>
      <trkpt lat="44.80491" lon="5.73397">
        <ele>783.9</ele>
        <time>2022-07-14T07:13:13Z</time>
      </trkpt>
      <trkpt lat="44.80487" lon="5.73407">
        <ele>783.4</ele>
        <time>2022-07-14T07:13:15Z</time>
      </trkpt>
      <trkpt lat="44.80485" lon="5.73415">
        <ele>783.2</ele>
        <time>2022-07-14T07:13:16Z</time>
      </trkpt>
      <trkpt lat="44.80483" lon="5.73423">
        <ele>783.1</ele>
        <time>2022-07-14T07:13:17Z</time>
      </trkpt>
      <trkpt lat="44.80479" lon="5.73434">
        <ele>782.8</ele>
        <time>2022-07-14T07:13:20Z</time>
      </trkpt>
      <trkpt lat="44.80477" lon="5.73442">
        <ele>782.7</ele>
        <time>2022-07-14T07:13:21Z</time>
      </trkpt>
      <trkpt lat="44.80473" lon="5.73459">
        <ele>782.4</ele>
        <time>2022-07-14T07:13:22Z</time>
      </trkpt>
      <trkpt lat="44.80469" lon="5.73477">
        <ele>782.3</ele>
        <time>2022-07-14T07:13:25Z</time>
      </trkpt>
      <trkpt lat="44.80472" lon="5.73483">
        <ele>782.3</ele>
        <time>2022-07-14T07:13:27Z</time>
      </trkpt>
      <trkpt lat="44.80468" lon="5.73489">
        <ele>782.2</ele>
        <time>2022-07-14T07:13:28Z</time>
      </trkpt>
      <trkpt lat="44.80465" lon="5.73496">
        <ele>782.2</ele>
        <time>2022-07-14T07:13:29Z</time>
      </trkpt>
      <trkpt lat="44.80461" lon="5.73507">
        <ele>782</ele>
        <time>2022-07-14T07:13:32Z</time>
      </trkpt>
      <trkpt lat="44.8046" lon="5.73513">
        <ele>781.9</ele>
        <time>2022-07-14T07:13:33Z</time>
      </trkpt>
      <trkpt lat="44.80458" lon="5.7352">
        <ele>781.8</ele>
        <time>2022-07-14T07:13:34Z</time>
      </trkpt>
      <trkpt lat="44.80456" lon="5.73527">
        <ele>781.7</ele>
        <time>2022-07-14T07:13:35Z</time>
      </trkpt>
      <trkpt lat="44.80454" lon="5.73533">
        <ele>781.6</ele>
        <time>2022-07-14T07:13:36Z</time>
      </trkpt>
      <trkpt lat="44.8045" lon="5.73551">
        <ele>781.4</ele>
        <time>2022-07-14T07:13:37Z</time>
      </trkpt>
      <trkpt lat="44.80457" lon="5.73557">
        <ele>781.2</ele>
        <time>2022-07-14T07:13:39Z</time>
      </trkpt>
      <trkpt lat="44.80443" lon="5.73575">
        <ele>780.7</ele>
        <time>2022-07-14T07:13:42Z</time>
      </trkpt>
      <trkpt lat="44.80441" lon="5.73582">
        <ele>780.6</ele>
        <time>2022-07-14T07:13:43Z</time>
      </trkpt>
      <trkpt lat="44.80438" lon="5.7359">
        <ele>780.5</ele>
        <time>2022-07-14T07:13:44Z</time>
      </trkpt>
      <trkpt lat="44.80436" lon="5.73597">
        <ele>780.3</ele>
        <time>2022-07-14T07:13:45Z</time>
      </trkpt>
      <trkpt lat="44.80433" lon="5.73606">
        <ele>780.2</ele>
        <time>2022-07-14T07:13:46Z</time>
      </trkpt>
      <trkpt lat="44.80431" lon="5.73615">
        <ele>780.1</ele>
        <time>2022-07-14T07:13:47Z</time>
      </trkpt>
      <trkpt lat="44.80428" lon="5.73622">
        <ele>779.9</ele>
        <time>2022-07-14T07:13:48Z</time>
      </trkpt>
      <trkpt lat="44.80424" lon="5.7363">
        <ele>779.8</ele>
        <time>2022-07-14T07:13:49Z</time>
      </trkpt>
      <trkpt lat="44.8042" lon="5.73637">
        <ele>779.5</ele>
        <time>2022-07-14T07:13:50Z</time>
      </trkpt>
      <trkpt lat="44.80417" lon="5.73645">
        <ele>779.3</ele>
        <time>2022-07-14T07:13:51Z</time>
      </trkpt>
      <trkpt lat="44.80414" lon="5.73653">
        <ele>779.1</ele>
        <time>2022-07-14T07:13:52Z</time>
      </trkpt>
      <trkpt lat="44.80412" lon="5.73661">
        <ele>778.9</ele>
        <time>2022-07-14T07:13:53Z</time>
      </trkpt>
      <trkpt lat="44.80409" lon="5.73671">
        <ele>778.6</ele>
        <time>2022-07-14T07:13:54Z</time>
      </trkpt>
      <trkpt lat="44.80407" lon="5.7368">
        <ele>778.4</ele>
        <time>2022-07-14T07:13:55Z</time>
      </trkpt>
      <trkpt lat="44.80405" lon="5.73688">
        <ele>778.2</ele>
        <time>2022-07-14T07:13:56Z</time>
      </trkpt>
      <trkpt lat="44.80403" lon="5.73697">
        <ele>777.9</ele>
        <time>2022-07-14T07:13:57Z</time>
      </trkpt>
      <trkpt lat="44.804" lon="5.73707">
        <ele>777.6</ele>
        <time>2022-07-14T07:13:58Z</time>
      </trkpt>
      <trkpt lat="44.80397" lon="5.73718">
        <ele>777.3</ele>
        <time>2022-07-14T07:13:59Z</time>
      </trkpt>
      <trkpt lat="44.80393" lon="5.73728">
        <ele>777</ele>
        <time>2022-07-14T07:14:00Z</time>
      </trkpt>
      <trkpt lat="44.8039" lon="5.73737">
        <ele>776.8</ele>
        <time>2022-07-14T07:14:01Z</time>
      </trkpt>
      <trkpt lat="44.80386" lon="5.73746">
        <ele>776.5</ele>
        <time>2022-07-14T07:14:02Z</time>
      </trkpt>
      <trkpt lat="44.80383" lon="5.73755">
        <ele>776.3</ele>
        <time>2022-07-14T07:14:03Z</time>
      </trkpt>
      <trkpt lat="44.8038" lon="5.73764">
        <ele>775.9</ele>
        <time>2022-07-14T07:14:04Z</time>
      </trkpt>
      <trkpt lat="44.80378" lon="5.73773">
        <ele>775.6</ele>
        <time>2022-07-14T07:14:05Z</time>
      </trkpt>
      <trkpt lat="44.80374" lon="5.73782">
        <ele>775.3</ele>
        <time>2022-07-14T07:14:06Z</time>
      </trkpt>
      <trkpt lat="44.80371" lon="5.7379">
        <ele>775</ele>
        <time>2022-07-14T07:14:07Z</time>
      </trkpt>
      <trkpt lat="44.80366" lon="5.73797">
        <ele>774.8</ele>
        <time>2022-07-14T07:14:08Z</time>
      </trkpt>
      <trkpt lat="44.80361" lon="5.73806">
        <ele>774.5</ele>
        <time>2022-07-14T07:14:09Z</time>
      </trkpt>
      <trkpt lat="44.80356" lon="5.73815">
        <ele>774.1</ele>
        <time>2022-07-14T07:14:10Z</time>
      </trkpt>
      <trkpt lat="44.80351" lon="5.73824">
        <ele>773.6</ele>
        <time>2022-07-14T07:14:11Z</time>
      </trkpt>
      <trkpt lat="44.80345" lon="5.73833">
        <ele>773.3</ele>
        <time>2022-07-14T07:14:12Z</time>
      </trkpt>
      <trkpt lat="44.8034" lon="5.73843">
        <ele>773</ele>
        <time>2022-07-14T07:14:13Z</time>
      </trkpt>
      <trkpt lat="44.80334" lon="5.73853">
        <ele>772.8</ele>
        <time>2022-07-14T07:14:14Z</time>
      </trkpt>
      <trkpt lat="44.80329" lon="5.73864">
        <ele>772.6</ele>
        <time>2022-07-14T07:14:15Z</time>
      </trkpt>
      <trkpt lat="44.80324" lon="5.73873">
        <ele>772.4</ele>
        <time>2022-07-14T07:14:16Z</time>
      </trkpt>
      <trkpt lat="44.80321" lon="5.7388">
        <ele>772.2</ele>
        <time>2022-07-14T07:14:17Z</time>
      </trkpt>
      <trkpt lat="44.8032" lon="5.73888">
        <ele>772</ele>
        <time>2022-07-14T07:14:18Z</time>
      </trkpt>
      <trkpt lat="44.80322" lon="5.73896">
        <ele>771.7</ele>
        <time>2022-07-14T07:14:19Z</time>
      </trkpt>
      <trkpt lat="44.80325" lon="5.73903">
        <ele>771.3</ele>
        <time>2022-07-14T07:14:20Z</time>
      </trkpt>
      <trkpt lat="44.80331" lon="5.73908">
        <ele>770.6</ele>
        <time>2022-07-14T07:14:21Z</time>
      </trkpt>
      <trkpt lat="44.80337" lon="5.73911">
        <ele>770</ele>
        <time>2022-07-14T07:14:22Z</time>
      </trkpt>
      <trkpt lat="44.80344" lon="5.73909">
        <ele>769.4</ele>
        <time>2022-07-14T07:14:23Z</time>
      </trkpt>
      <trkpt lat="44.80352" lon="5.73907">
        <ele>768.7</ele>
        <time>2022-07-14T07:14:24Z</time>
      </trkpt>
      <trkpt lat="44.8036" lon="5.73903">
        <ele>768</ele>
        <time>2022-07-14T07:14:25Z</time>
      </trkpt>
      <trkpt lat="44.80368" lon="5.73899">
        <ele>767.4</ele>
        <time>2022-07-14T07:14:26Z</time>
      </trkpt>
      <trkpt lat="44.80376" lon="5.73895">
        <ele>766.8</ele>
        <time>2022-07-14T07:14:27Z</time>
      </trkpt>
      <trkpt lat="44.80383" lon="5.73892">
        <ele>766.3</ele>
        <time>2022-07-14T07:14:28Z</time>
      </trkpt>
      <trkpt lat="44.80392" lon="5.73888">
        <ele>765.8</ele>
        <time>2022-07-14T07:14:29Z</time>
      </trkpt>
      <trkpt lat="44.804" lon="5.73883">
        <ele>765.3</ele>
        <time>2022-07-14T07:14:30Z</time>
      </trkpt>
      <trkpt lat="44.80409" lon="5.73878">
        <ele>764.8</ele>
        <time>2022-07-14T07:14:31Z</time>
      </trkpt>
      <trkpt lat="44.80418" lon="5.73873">
        <ele>764.3</ele>
        <time>2022-07-14T07:14:32Z</time>
      </trkpt>
      <trkpt lat="44.80427" lon="5.73871">
        <ele>763.9</ele>
        <time>2022-07-14T07:14:33Z</time>
      </trkpt>
      <trkpt lat="44.80435" lon="5.73872">
        <ele>763.5</ele>
        <time>2022-07-14T07:14:34Z</time>
      </trkpt>
      <trkpt lat="44.80441" lon="5.73878">
        <ele>763</ele>
        <time>2022-07-14T07:14:35Z</time>
      </trkpt>
      <trkpt lat="44.80444" lon="5.73886">
        <ele>762.4</ele>
        <time>2022-07-14T07:14:36Z</time>
      </trkpt>
      <trkpt lat="44.80443" lon="5.73895">
        <ele>761.8</ele>
        <time>2022-07-14T07:14:37Z</time>
      </trkpt>
      <trkpt lat="44.80439" lon="5.73902">
        <ele>761.1</ele>
        <time>2022-07-14T07:14:38Z</time>
      </trkpt>
      <trkpt lat="44.80433" lon="5.73906">
        <ele>760.3</ele>
        <time>2022-07-14T07:14:39Z</time>
      </trkpt>
      <trkpt lat="44.80426" lon="5.73909">
        <ele>759.7</ele>
        <time>2022-07-14T07:14:40Z</time>
      </trkpt>
      <trkpt lat="44.8042" lon="5.73912">
        <ele>759.2</ele>
        <time>2022-07-14T07:14:41Z</time>
      </trkpt>
      <trkpt lat="44.80413" lon="5.73915">
        <ele>758.8</ele>
        <time>2022-07-14T07:14:42Z</time>
      </trkpt>
      <trkpt lat="44.80407" lon="5.73918">
        <ele>758.3</ele>
        <time>2022-07-14T07:14:43Z</time>
      </trkpt>
      <trkpt lat="44.804" lon="5.73924">
        <ele>757.9</ele>
        <time>2022-07-14T07:14:44Z</time>
      </trkpt>
      <trkpt lat="44.80395" lon="5.7393">
        <ele>757.5</ele>
        <time>2022-07-14T07:14:45Z</time>
      </trkpt>
      <trkpt lat="44.8039" lon="5.73938">
        <ele>757.1</ele>
        <time>2022-07-14T07:14:46Z</time>
      </trkpt>
      <trkpt lat="44.80385" lon="5.73947">
        <ele>756.7</ele>
        <time>2022-07-14T07:14:47Z</time>
      </trkpt>
      <trkpt lat="44.8038" lon="5.73955">
        <ele>756.1</ele>
        <time>2022-07-14T07:14:48Z</time>
      </trkpt>
      <trkpt lat="44.80375" lon="5.73963">
        <ele>755.5</ele>
        <time>2022-07-14T07:14:49Z</time>
      </trkpt>
      <trkpt lat="44.8037" lon="5.73972">
        <ele>754.9</ele>
        <time>2022-07-14T07:14:50Z</time>
      </trkpt>
      <trkpt lat="44.80366" lon="5.7398">
        <ele>754.3</ele>
        <time>2022-07-14T07:14:51Z</time>
      </trkpt>
      <trkpt lat="44.80363" lon="5.73989">
        <ele>753.8</ele>
        <time>2022-07-14T07:14:52Z</time>
      </trkpt>
      <trkpt lat="44.80362" lon="5.74">
        <ele>753.2</ele>
        <time>2022-07-14T07:14:53Z</time>
      </trkpt>
      <trkpt lat="44.80363" lon="5.74011">
        <ele>752.6</ele>
        <time>2022-07-14T07:14:54Z</time>
      </trkpt>
      <trkpt lat="44.80365" lon="5.74023">
        <ele>752.1</ele>
        <time>2022-07-14T07:14:55Z</time>
      </trkpt>
      <trkpt lat="44.80368" lon="5.74035">
        <ele>751.5</ele>
        <time>2022-07-14T07:14:56Z</time>
      </trkpt>
      <trkpt lat="44.80372" lon="5.74046">
        <ele>751</ele>
        <time>2022-07-14T07:14:57Z</time>
      </trkpt>
      <trkpt lat="44.80378" lon="5.74056">
        <ele>750.5</ele>
        <time>2022-07-14T07:14:58Z</time>
      </trkpt>
      <trkpt lat="44.80385" lon="5.74064">
        <ele>750.1</ele>
        <time>2022-07-14T07:14:59Z</time>
      </trkpt>
      <trkpt lat="44.80393" lon="5.7407">
        <ele>749.6</ele>
        <time>2022-07-14T07:15:00Z</time>
      </trkpt>
      <trkpt lat="44.80401" lon="5.74074">
        <ele>749.1</ele>
        <time>2022-07-14T07:15:01Z</time>
      </trkpt>
      <trkpt lat="44.8041" lon="5.74076">
        <ele>748.6</ele>
        <time>2022-07-14T07:15:02Z</time>
      </trkpt>
      <trkpt lat="44.80419" lon="5.74075">
        <ele>747.9</ele>
        <time>2022-07-14T07:15:03Z</time>
      </trkpt>
      <trkpt lat="44.80428" lon="5.74073">
        <ele>747.3</ele>
        <time>2022-07-14T07:15:04Z</time>
      </trkpt>
      <trkpt lat="44.80437" lon="5.74068">
        <ele>746.7</ele>
        <time>2022-07-14T07:15:05Z</time>
      </trkpt>
      <trkpt lat="44.80445" lon="5.74061">
        <ele>746.1</ele>
        <time>2022-07-14T07:15:06Z</time>
      </trkpt>
      <trkpt lat="44.80453" lon="5.74053">
        <ele>745.6</ele>
        <time>2022-07-14T07:15:07Z</time>
      </trkpt>
      <trkpt lat="44.8046" lon="5.74045">
        <ele>745.1</ele>
        <time>2022-07-14T07:15:08Z</time>
      </trkpt>
      <trkpt lat="44.80468" lon="5.74036">
        <ele>744.6</ele>
        <time>2022-07-14T07:15:09Z</time>
      </trkpt>
      <trkpt lat="44.80475" lon="5.74027">
        <ele>744.3</ele>
        <time>2022-07-14T07:15:10Z</time>
      </trkpt>
      <trkpt lat="44.80482" lon="5.74017">
        <ele>743.9</ele>
        <time>2022-07-14T07:15:11Z</time>
      </trkpt>
      <trkpt lat="44.80489" lon="5.74007">
        <ele>743.7</ele>
        <time>2022-07-14T07:15:12Z</time>
      </trkpt>
      <trkpt lat="44.80496" lon="5.73997">
        <ele>743.5</ele>
        <time>2022-07-14T07:15:13Z</time>
      </trkpt>
      <trkpt lat="44.80504" lon="5.73988">
        <ele>743.3</ele>
        <time>2022-07-14T07:15:14Z</time>
      </trkpt>
      <trkpt lat="44.8051" lon="5.73981">
        <ele>743</ele>
        <time>2022-07-14T07:15:15Z</time>
      </trkpt>
      <trkpt lat="44.80517" lon="5.73978">
        <ele>742.8</ele>
        <time>2022-07-14T07:15:16Z</time>
      </trkpt>
      <trkpt lat="44.80525" lon="5.7398">
        <ele>741.9</ele>
        <time>2022-07-14T07:15:17Z</time>
      </trkpt>
      <trkpt lat="44.80531" lon="5.73986">
        <ele>741.3</ele>
        <time>2022-07-14T07:15:18Z</time>
      </trkpt>
      <trkpt lat="44.80535" lon="5.73994">
        <ele>740.6</ele>
        <time>2022-07-14T07:15:19Z</time>
      </trkpt>
      <trkpt lat="44.80533" lon="5.74003">
        <ele>740.1</ele>
        <time>2022-07-14T07:15:20Z</time>
      </trkpt>
      <trkpt lat="44.80526" lon="5.74011">
        <ele>739.2</ele>
        <time>2022-07-14T07:15:21Z</time>
      </trkpt>
      <trkpt lat="44.80517" lon="5.74018">
        <ele>738.4</ele>
        <time>2022-07-14T07:15:22Z</time>
      </trkpt>
      <trkpt lat="44.8051" lon="5.74027">
        <ele>737.8</ele>
        <time>2022-07-14T07:15:23Z</time>
      </trkpt>
      <trkpt lat="44.80503" lon="5.74035">
        <ele>737.3</ele>
        <time>2022-07-14T07:15:24Z</time>
      </trkpt>
      <trkpt lat="44.80497" lon="5.74045">
        <ele>737</ele>
        <time>2022-07-14T07:15:25Z</time>
      </trkpt>
      <trkpt lat="44.8049" lon="5.74053">
        <ele>736.7</ele>
        <time>2022-07-14T07:15:26Z</time>
      </trkpt>
      <trkpt lat="44.80484" lon="5.74061">
        <ele>736.5</ele>
        <time>2022-07-14T07:15:27Z</time>
      </trkpt>
      <trkpt lat="44.80479" lon="5.7407">
        <ele>736.2</ele>
        <time>2022-07-14T07:15:28Z</time>
      </trkpt>
      <trkpt lat="44.80478" lon="5.7408">
        <ele>735.8</ele>
        <time>2022-07-14T07:15:29Z</time>
      </trkpt>
      <trkpt lat="44.80478" lon="5.74089">
        <ele>735.4</ele>
        <time>2022-07-14T07:15:30Z</time>
      </trkpt>
      <trkpt lat="44.80482" lon="5.74098">
        <ele>734.9</ele>
        <time>2022-07-14T07:15:31Z</time>
      </trkpt>
      <trkpt lat="44.80488" lon="5.74105">
        <ele>734.3</ele>
        <time>2022-07-14T07:15:32Z</time>
      </trkpt>
      <trkpt lat="44.80495" lon="5.74108">
        <ele>733.6</ele>
        <time>2022-07-14T07:15:33Z</time>
      </trkpt>
      <trkpt lat="44.80503" lon="5.7411">
        <ele>733</ele>
        <time>2022-07-14T07:15:34Z</time>
      </trkpt>
      <trkpt lat="44.80512" lon="5.74112">
        <ele>732.3</ele>
        <time>2022-07-14T07:15:35Z</time>
      </trkpt>
      <trkpt lat="44.80521" lon="5.74114">
        <ele>731.8</ele>
        <time>2022-07-14T07:15:36Z</time>
      </trkpt>
      <trkpt lat="44.80529" lon="5.74115">
        <ele>731.3</ele>
        <time>2022-07-14T07:15:37Z</time>
      </trkpt>
      <trkpt lat="44.80538" lon="5.74117">
        <ele>730.8</ele>
        <time>2022-07-14T07:15:38Z</time>
      </trkpt>
      <trkpt lat="44.80547" lon="5.74119">
        <ele>730.4</ele>
        <time>2022-07-14T07:15:39Z</time>
      </trkpt>
      <trkpt lat="44.80557" lon="5.74121">
        <ele>729.9</ele>
        <time>2022-07-14T07:15:40Z</time>
      </trkpt>
      <trkpt lat="44.80566" lon="5.74123">
        <ele>729.5</ele>
        <time>2022-07-14T07:15:41Z</time>
      </trkpt>
      <trkpt lat="44.80575" lon="5.74125">
        <ele>729.2</ele>
        <time>2022-07-14T07:15:42Z</time>
      </trkpt>
      <trkpt lat="44.80583" lon="5.74127">
        <ele>729.1</ele>
        <time>2022-07-14T07:15:43Z</time>
      </trkpt>
      <trkpt lat="44.8059" lon="5.74128">
        <ele>728.9</ele>
        <time>2022-07-14T07:15:44Z</time>
      </trkpt>
      <trkpt lat="44.80597" lon="5.74129">
        <ele>729</ele>
        <time>2022-07-14T07:15:45Z</time>
      </trkpt>
      <trkpt lat="44.80604" lon="5.74127">
        <ele>729.2</ele>
        <time>2022-07-14T07:15:46Z</time>
      </trkpt>
      <trkpt lat="44.8061" lon="5.74121">
        <ele>729.4</ele>
        <time>2022-07-14T07:15:47Z</time>
      </trkpt>
      <trkpt lat="44.80613" lon="5.74115">
        <ele>729.6</ele>
        <time>2022-07-14T07:15:48Z</time>
      </trkpt>
      <trkpt lat="44.80615" lon="5.74108">
        <ele>729.9</ele>
        <time>2022-07-14T07:15:49Z</time>
      </trkpt>
      <trkpt lat="44.80617" lon="5.74102">
        <ele>730.1</ele>
        <time>2022-07-14T07:15:50Z</time>
      </trkpt>
      <trkpt lat="44.8062" lon="5.74096">
        <ele>730.4</ele>
        <time>2022-07-14T07:15:51Z</time>
      </trkpt>
      <trkpt lat="44.80623" lon="5.74091">
        <ele>730.7</ele>
        <time>2022-07-14T07:15:52Z</time>
      </trkpt>
      <trkpt lat="44.80626" lon="5.74087">
        <ele>731</ele>
        <time>2022-07-14T07:15:53Z</time>
      </trkpt>
      <trkpt lat="44.80629" lon="5.74085">
        <ele>731.2</ele>
        <time>2022-07-14T07:15:54Z</time>
      </trkpt>
      <trkpt lat="44.80632" lon="5.74081">
        <ele>731.6</ele>
        <time>2022-07-14T07:15:55Z</time>
      </trkpt>
      <trkpt lat="44.80636" lon="5.74078">
        <ele>731.9</ele>
        <time>2022-07-14T07:15:56Z</time>
      </trkpt>
      <trkpt lat="44.80639" lon="5.74076">
        <ele>732.2</ele>
        <time>2022-07-14T07:15:57Z</time>
      </trkpt>
      <trkpt lat="44.80643" lon="5.74074">
        <ele>732.5</ele>
        <time>2022-07-14T07:15:58Z</time>
      </trkpt>
      <trkpt lat="44.80652" lon="5.74067">
        <ele>733.3</ele>
        <time>2022-07-14T07:15:59Z</time>
      </trkpt>
      <trkpt lat="44.80654" lon="5.74066">
        <ele>733.4</ele>
        <time>2022-07-14T07:16:00Z</time>
      </trkpt>
      <trkpt lat="44.80661" lon="5.74061">
        <ele>733.9</ele>
        <time>2022-07-14T07:16:01Z</time>
      </trkpt>
      <trkpt lat="44.80666" lon="5.74057">
        <ele>734.3</ele>
        <time>2022-07-14T07:16:02Z</time>
      </trkpt>
      <trkpt lat="44.80675" lon="5.7405">
        <ele>734.8</ele>
        <time>2022-07-14T07:16:04Z</time>
      </trkpt>
      <trkpt lat="44.80681" lon="5.74047">
        <ele>735.1</ele>
        <time>2022-07-14T07:16:05Z</time>
      </trkpt>
      <trkpt lat="44.80683" lon="5.74041">
        <ele>735.3</ele>
        <time>2022-07-14T07:16:06Z</time>
      </trkpt>
      <trkpt lat="44.80684" lon="5.74039">
        <ele>735.5</ele>
        <time>2022-07-14T07:16:07Z</time>
      </trkpt>
      <trkpt lat="44.80688" lon="5.74036">
        <ele>735.7</ele>
        <time>2022-07-14T07:16:09Z</time>
      </trkpt>
      <trkpt lat="44.80692" lon="5.74034">
        <ele>735.9</ele>
        <time>2022-07-14T07:16:10Z</time>
      </trkpt>
      <trkpt lat="44.807" lon="5.7403">
        <ele>736.3</ele>
        <time>2022-07-14T07:16:12Z</time>
      </trkpt>
      <trkpt lat="44.80703" lon="5.74028">
        <ele>736.5</ele>
        <time>2022-07-14T07:16:13Z</time>
      </trkpt>
      <trkpt lat="44.8071" lon="5.74022">
        <ele>736.9</ele>
        <time>2022-07-14T07:16:15Z</time>
      </trkpt>
      <trkpt lat="44.80716" lon="5.74014">
        <ele>737.2</ele>
        <time>2022-07-14T07:16:17Z</time>
      </trkpt>
      <trkpt lat="44.8072" lon="5.74011">
        <ele>737.4</ele>
        <time>2022-07-14T07:16:18Z</time>
      </trkpt>
      <trkpt lat="44.80727" lon="5.74007">
        <ele>737.8</ele>
        <time>2022-07-14T07:16:20Z</time>
      </trkpt>
      <trkpt lat="44.8073" lon="5.74006">
        <ele>738</ele>
        <time>2022-07-14T07:16:21Z</time>
      </trkpt>
      <trkpt lat="44.80734" lon="5.74002">
        <ele>738.2</ele>
        <time>2022-07-14T07:16:22Z</time>
      </trkpt>
      <trkpt lat="44.8074" lon="5.74">
        <ele>738.4</ele>
        <time>2022-07-14T07:16:24Z</time>
      </trkpt>
      <trkpt lat="44.80745" lon="5.73998">
        <ele>738.5</ele>
        <time>2022-07-14T07:16:25Z</time>
      </trkpt>
      <trkpt lat="44.80752" lon="5.73992">
        <ele>738.6</ele>
        <time>2022-07-14T07:16:27Z</time>
      </trkpt>
      <trkpt lat="44.80757" lon="5.7399">
        <ele>738.7</ele>
        <time>2022-07-14T07:16:28Z</time>
      </trkpt>
      <trkpt lat="44.8077" lon="5.73991">
        <ele>738.7</ele>
        <time>2022-07-14T07:16:31Z</time>
      </trkpt>
      <trkpt lat="44.80775" lon="5.73989">
        <ele>738.7</ele>
        <time>2022-07-14T07:16:32Z</time>
      </trkpt>
      <trkpt lat="44.8078" lon="5.73988">
        <ele>738.7</ele>
        <time>2022-07-14T07:16:33Z</time>
      </trkpt>
      <trkpt lat="44.80786" lon="5.73988">
        <ele>738.8</ele>
        <time>2022-07-14T07:16:34Z</time>
      </trkpt>
      <trkpt lat="44.80799" lon="5.73989">
        <ele>739.4</ele>
        <time>2022-07-14T07:16:35Z</time>
      </trkpt>
      <trkpt lat="44.80801" lon="5.73997">
        <ele>739.8</ele>
        <time>2022-07-14T07:16:37Z</time>
      </trkpt>
      <trkpt lat="44.80806" lon="5.73993">
        <ele>740.3</ele>
        <time>2022-07-14T07:16:38Z</time>
      </trkpt>
      <trkpt lat="44.80809" lon="5.73992">
        <ele>740.5</ele>
        <time>2022-07-14T07:16:39Z</time>
      </trkpt>
      <trkpt lat="44.80812" lon="5.73992">
        <ele>740.8</ele>
        <time>2022-07-14T07:16:40Z</time>
      </trkpt>
      <trkpt lat="44.80815" lon="5.73992">
        <ele>741</ele>
        <time>2022-07-14T07:16:41Z</time>
      </trkpt>
      <trkpt lat="44.80815" lon="5.73991">
        <ele>741.1</ele>
        <time>2022-07-14T07:16:42Z</time>
      </trkpt>
      <trkpt lat="44.80819" lon="5.73992">
        <ele>741.4</ele>
        <time>2022-07-14T07:16:44Z</time>
      </trkpt>
      <trkpt lat="44.80821" lon="5.73993">
        <ele>741.6</ele>
        <time>2022-07-14T07:16:45Z</time>
      </trkpt>
      <trkpt lat="44.80826" lon="5.73995">
        <ele>742.1</ele>
        <time>2022-07-14T07:16:47Z</time>
      </trkpt>
      <trkpt lat="44.8083" lon="5.73995">
        <ele>742.4</ele>
        <time>2022-07-14T07:16:48Z</time>
      </trkpt>
      <trkpt lat="44.80834" lon="5.73996">
        <ele>742.7</ele>
        <time>2022-07-14T07:16:49Z</time>
      </trkpt>
      <trkpt lat="44.80839" lon="5.73997">
        <ele>743.1</ele>
        <time>2022-07-14T07:16:50Z</time>
      </trkpt>
      <trkpt lat="44.80841" lon="5.73997">
        <ele>743.3</ele>
        <time>2022-07-14T07:16:51Z</time>
      </trkpt>
      <trkpt lat="44.80848" lon="5.73998">
        <ele>743.8</ele>
        <time>2022-07-14T07:16:53Z</time>
      </trkpt>
      <trkpt lat="44.80854" lon="5.73998">
        <ele>744.3</ele>
        <time>2022-07-14T07:16:55Z</time>
      </trkpt>
      <trkpt lat="44.80858" lon="5.74">
        <ele>744.5</ele>
        <time>2022-07-14T07:16:56Z</time>
      </trkpt>
      <trkpt lat="44.80859" lon="5.74">
        <ele>744.6</ele>
        <time>2022-07-14T07:16:57Z</time>
      </trkpt>
      <trkpt lat="44.80866" lon="5.74001">
        <ele>744.9</ele>
        <time>2022-07-14T07:16:59Z</time>
      </trkpt>
      <trkpt lat="44.8087" lon="5.74003">
        <ele>745.1</ele>
        <time>2022-07-14T07:17:01Z</time>
      </trkpt>
      <trkpt lat="44.80875" lon="5.74003">
        <ele>745.4</ele>
        <time>2022-07-14T07:17:02Z</time>
      </trkpt>
      <trkpt lat="44.80878" lon="5.74003">
        <ele>745.5</ele>
        <time>2022-07-14T07:17:03Z</time>
      </trkpt>
      <trkpt lat="44.80884" lon="5.74004">
        <ele>745.7</ele>
        <time>2022-07-14T07:17:05Z</time>
      </trkpt>
      <trkpt lat="44.80893" lon="5.74006">
        <ele>746</ele>
        <time>2022-07-14T07:17:07Z</time>
      </trkpt>
      <trkpt lat="44.80899" lon="5.74006">
        <ele>746.2</ele>
        <time>2022-07-14T07:17:09Z</time>
      </trkpt>
      <trkpt lat="44.80903" lon="5.74006">
        <ele>746.4</ele>
        <time>2022-07-14T07:17:10Z</time>
      </trkpt>
      <trkpt lat="44.80907" lon="5.74006">
        <ele>746.6</ele>
        <time>2022-07-14T07:17:11Z</time>
      </trkpt>
      <trkpt lat="44.80912" lon="5.74006">
        <ele>746.7</ele>
        <time>2022-07-14T07:17:12Z</time>
      </trkpt>
      <trkpt lat="44.80918" lon="5.74007">
        <ele>747</ele>
        <time>2022-07-14T07:17:14Z</time>
      </trkpt>
      <trkpt lat="44.80922" lon="5.74006">
        <ele>747.1</ele>
        <time>2022-07-14T07:17:15Z</time>
      </trkpt>
      <trkpt lat="44.80926" lon="5.74007">
        <ele>747.3</ele>
        <time>2022-07-14T07:17:17Z</time>
      </trkpt>
      <trkpt lat="44.80929" lon="5.74008">
        <ele>747.4</ele>
        <time>2022-07-14T07:17:18Z</time>
      </trkpt>
      <trkpt lat="44.80933" lon="5.74007">
        <ele>747.6</ele>
        <time>2022-07-14T07:17:19Z</time>
      </trkpt>
      <trkpt lat="44.80936" lon="5.74007">
        <ele>747.7</ele>
        <time>2022-07-14T07:17:20Z</time>
      </trkpt>
      <trkpt lat="44.8094" lon="5.74003">
        <ele>747.8</ele>
        <time>2022-07-14T07:17:22Z</time>
      </trkpt>
      <trkpt lat="44.80942" lon="5.74001">
        <ele>747.9</ele>
        <time>2022-07-14T07:17:23Z</time>
      </trkpt>
      <trkpt lat="44.80946" lon="5.73997">
        <ele>748.1</ele>
        <time>2022-07-14T07:17:24Z</time>
      </trkpt>
      <trkpt lat="44.80948" lon="5.73992">
        <ele>748.2</ele>
        <time>2022-07-14T07:17:25Z</time>
      </trkpt>
      <trkpt lat="44.8095" lon="5.73987">
        <ele>748.4</ele>
        <time>2022-07-14T07:17:26Z</time>
      </trkpt>
      <trkpt lat="44.80953" lon="5.73981">
        <ele>748.5</ele>
        <time>2022-07-14T07:17:27Z</time>
      </trkpt>
      <trkpt lat="44.80953" lon="5.73977">
        <ele>748.6</ele>
        <time>2022-07-14T07:17:28Z</time>
      </trkpt>
      <trkpt lat="44.80955" lon="5.7397">
        <ele>748.7</ele>
        <time>2022-07-14T07:17:29Z</time>
      </trkpt>
      <trkpt lat="44.80955" lon="5.73961">
        <ele>748.9</ele>
        <time>2022-07-14T07:17:30Z</time>
      </trkpt>
      <trkpt lat="44.80956" lon="5.73948">
        <ele>749.1</ele>
        <time>2022-07-14T07:17:32Z</time>
      </trkpt>
      <trkpt lat="44.80956" lon="5.73941">
        <ele>749.3</ele>
        <time>2022-07-14T07:17:33Z</time>
      </trkpt>
      <trkpt lat="44.80956" lon="5.73937">
        <ele>749.3</ele>
        <time>2022-07-14T07:17:34Z</time>
      </trkpt>
      <trkpt lat="44.80957" lon="5.73932">
        <ele>749.4</ele>
        <time>2022-07-14T07:17:35Z</time>
      </trkpt>
      <trkpt lat="44.80957" lon="5.73926">
        <ele>749.6</ele>
        <time>2022-07-14T07:17:36Z</time>
      </trkpt>
      <trkpt lat="44.80957" lon="5.7392">
        <ele>749.7</ele>
        <time>2022-07-14T07:17:37Z</time>
      </trkpt>
      <trkpt lat="44.80958" lon="5.73912">
        <ele>749.8</ele>
        <time>2022-07-14T07:17:38Z</time>
      </trkpt>
      <trkpt lat="44.8096" lon="5.73903">
        <ele>749.9</ele>
        <time>2022-07-14T07:17:40Z</time>
      </trkpt>
      <trkpt lat="44.80964" lon="5.7389">
        <ele>750.1</ele>
        <time>2022-07-14T07:17:41Z</time>
      </trkpt>
      <trkpt lat="44.80982" lon="5.73885">
        <ele>750.6</ele>
        <time>2022-07-14T07:17:44Z</time>
      </trkpt>
      <trkpt lat="44.80984" lon="5.7388">
        <ele>750.8</ele>
        <time>2022-07-14T07:17:46Z</time>
      </trkpt>
      <trkpt lat="44.80989" lon="5.7389">
        <ele>751.3</ele>
        <time>2022-07-14T07:17:47Z</time>
      </trkpt>
      <trkpt lat="44.80993" lon="5.73897">
        <ele>751.7</ele>
        <time>2022-07-14T07:17:48Z</time>
      </trkpt>
      <trkpt lat="44.80995" lon="5.73902">
        <ele>752</ele>
        <time>2022-07-14T07:17:49Z</time>
      </trkpt>
      <trkpt lat="44.80996" lon="5.73911">
        <ele>752.4</ele>
        <time>2022-07-14T07:17:51Z</time>
      </trkpt>
      <trkpt lat="44.80996" lon="5.73917">
        <ele>752.7</ele>
        <time>2022-07-14T07:17:52Z</time>
      </trkpt>
      <trkpt lat="44.80997" lon="5.73919">
        <ele>752.8</ele>
        <time>2022-07-14T07:17:53Z</time>
      </trkpt>
      <trkpt lat="44.80996" lon="5.73924">
        <ele>753.1</ele>
        <time>2022-07-14T07:17:55Z</time>
      </trkpt>
      <trkpt lat="44.80996" lon="5.7393">
        <ele>753.4</ele>
        <time>2022-07-14T07:17:56Z</time>
      </trkpt>
      <trkpt lat="44.80996" lon="5.73932">
        <ele>753.5</ele>
        <time>2022-07-14T07:17:57Z</time>
      </trkpt>
      <trkpt lat="44.80997" lon="5.73939">
        <ele>753.9</ele>
        <time>2022-07-14T07:17:59Z</time>
      </trkpt>
      <trkpt lat="44.80997" lon="5.73944">
        <ele>754.2</ele>
        <time>2022-07-14T07:18:00Z</time>
      </trkpt>
      <trkpt lat="44.80997" lon="5.73946">
        <ele>754.3</ele>
        <time>2022-07-14T07:18:01Z</time>
      </trkpt>
      <trkpt lat="44.80997" lon="5.73953">
        <ele>754.8</ele>
        <time>2022-07-14T07:18:03Z</time>
      </trkpt>
      <trkpt lat="44.80997" lon="5.73962">
        <ele>755.2</ele>
        <time>2022-07-14T07:18:05Z</time>
      </trkpt>
      <trkpt lat="44.80998" lon="5.73966">
        <ele>755.5</ele>
        <time>2022-07-14T07:18:06Z</time>
      </trkpt>
      <trkpt lat="44.80998" lon="5.7397">
        <ele>755.7</ele>
        <time>2022-07-14T07:18:07Z</time>
      </trkpt>
      <trkpt lat="44.80999" lon="5.73978">
        <ele>756.2</ele>
        <time>2022-07-14T07:18:09Z</time>
      </trkpt>
      <trkpt lat="44.80999" lon="5.73983">
        <ele>756.5</ele>
        <time>2022-07-14T07:18:11Z</time>
      </trkpt>
      <trkpt lat="44.81" lon="5.73989">
        <ele>756.8</ele>
        <time>2022-07-14T07:18:12Z</time>
      </trkpt>
      <trkpt lat="44.81" lon="5.73997">
        <ele>757.3</ele>
        <time>2022-07-14T07:18:15Z</time>
      </trkpt>
      <trkpt lat="44.81" lon="5.74001">
        <ele>757.5</ele>
        <time>2022-07-14T07:18:16Z</time>
      </trkpt>
      <trkpt lat="44.81" lon="5.74005">
        <ele>757.7</ele>
        <time>2022-07-14T07:18:17Z</time>
      </trkpt>
      <trkpt lat="44.80999" lon="5.74012">
        <ele>758.1</ele>
        <time>2022-07-14T07:18:19Z</time>
      </trkpt>
      <trkpt lat="44.80999" lon="5.74016">
        <ele>758.3</ele>
        <time>2022-07-14T07:18:20Z</time>
      </trkpt>
      <trkpt lat="44.80999" lon="5.74021">
        <ele>758.6</ele>
        <time>2022-07-14T07:18:21Z</time>
      </trkpt>
      <trkpt lat="44.80997" lon="5.74024">
        <ele>758.9</ele>
        <time>2022-07-14T07:18:23Z</time>
      </trkpt>
      <trkpt lat="44.80997" lon="5.74029">
        <ele>759.1</ele>
        <time>2022-07-14T07:18:24Z</time>
      </trkpt>
      <trkpt lat="44.80994" lon="5.74039">
        <ele>759.7</ele>
        <time>2022-07-14T07:18:26Z</time>
      </trkpt>
      <trkpt lat="44.80992" lon="5.74044">
        <ele>760</ele>
        <time>2022-07-14T07:18:28Z</time>
      </trkpt>
      <trkpt lat="44.80991" lon="5.74045">
        <ele>760.1</ele>
        <time>2022-07-14T07:18:29Z</time>
      </trkpt>
      <trkpt lat="44.8099" lon="5.74047">
        <ele>760.3</ele>
        <time>2022-07-14T07:18:30Z</time>
      </trkpt>
      <trkpt lat="44.80987" lon="5.74053">
        <ele>760.7</ele>
        <time>2022-07-14T07:18:32Z</time>
      </trkpt>
      <trkpt lat="44.80986" lon="5.74056">
        <ele>760.9</ele>
        <time>2022-07-14T07:18:33Z</time>
      </trkpt>
      <trkpt lat="44.80984" lon="5.7406">
        <ele>761.2</ele>
        <time>2022-07-14T07:18:34Z</time>
      </trkpt>
      <trkpt lat="44.80983" lon="5.74067">
        <ele>761.6</ele>
        <time>2022-07-14T07:18:36Z</time>
      </trkpt>
      <trkpt lat="44.80982" lon="5.74073">
        <ele>762</ele>
        <time>2022-07-14T07:18:37Z</time>
      </trkpt>
      <trkpt lat="44.80982" lon="5.74079">
        <ele>762.3</ele>
        <time>2022-07-14T07:18:38Z</time>
      </trkpt>
      <trkpt lat="44.80982" lon="5.74083">
        <ele>762.5</ele>
        <time>2022-07-14T07:18:39Z</time>
      </trkpt>
      <trkpt lat="44.80983" lon="5.74087">
        <ele>762.8</ele>
        <time>2022-07-14T07:18:41Z</time>
      </trkpt>
      <trkpt lat="44.80984" lon="5.74091">
        <ele>763</ele>
        <time>2022-07-14T07:18:42Z</time>
      </trkpt>
      <trkpt lat="44.80986" lon="5.74095">
        <ele>763.3</ele>
        <time>2022-07-14T07:18:43Z</time>
      </trkpt>
      <trkpt lat="44.80991" lon="5.741">
        <ele>763.8</ele>
        <time>2022-07-14T07:18:45Z</time>
      </trkpt>
      <trkpt lat="44.80994" lon="5.74101">
        <ele>764</ele>
        <time>2022-07-14T07:18:46Z</time>
      </trkpt>
      <trkpt lat="44.80996" lon="5.74102">
        <ele>764.1</ele>
        <time>2022-07-14T07:18:47Z</time>
      </trkpt>
      <trkpt lat="44.80999" lon="5.74104">
        <ele>764.4</ele>
        <time>2022-07-14T07:18:48Z</time>
      </trkpt>
      <trkpt lat="44.81001" lon="5.74106">
        <ele>764.6</ele>
        <time>2022-07-14T07:18:49Z</time>
      </trkpt>
      <trkpt lat="44.81006" lon="5.74107">
        <ele>764.9</ele>
        <time>2022-07-14T07:18:51Z</time>
      </trkpt>
      <trkpt lat="44.81011" lon="5.74108">
        <ele>765</ele>
        <time>2022-07-14T07:18:52Z</time>
      </trkpt>
      <trkpt lat="44.81014" lon="5.74107">
        <ele>765.1</ele>
        <time>2022-07-14T07:18:53Z</time>
      </trkpt>
      <trkpt lat="44.81019" lon="5.74108">
        <ele>765.2</ele>
        <time>2022-07-14T07:18:54Z</time>
      </trkpt>
      <trkpt lat="44.81022" lon="5.74108">
        <ele>765.3</ele>
        <time>2022-07-14T07:18:55Z</time>
      </trkpt>
      <trkpt lat="44.8103" lon="5.7411">
        <ele>765.4</ele>
        <time>2022-07-14T07:18:57Z</time>
      </trkpt>
      <trkpt lat="44.81037" lon="5.74114">
        <ele>765.3</ele>
        <time>2022-07-14T07:18:59Z</time>
      </trkpt>
      <trkpt lat="44.8105" lon="5.7412">
        <ele>765</ele>
        <time>2022-07-14T07:19:02Z</time>
      </trkpt>
      <trkpt lat="44.81054" lon="5.74123">
        <ele>764.9</ele>
        <time>2022-07-14T07:19:03Z</time>
      </trkpt>
      <trkpt lat="44.81058" lon="5.74125">
        <ele>764.7</ele>
        <time>2022-07-14T07:19:04Z</time>
      </trkpt>
      <trkpt lat="44.81063" lon="5.74127">
        <ele>764.6</ele>
        <time>2022-07-14T07:19:05Z</time>
      </trkpt>
      <trkpt lat="44.81069" lon="5.7413">
        <ele>764.4</ele>
        <time>2022-07-14T07:19:06Z</time>
      </trkpt>
      <trkpt lat="44.81076" lon="5.74133">
        <ele>764.1</ele>
        <time>2022-07-14T07:19:07Z</time>
      </trkpt>
      <trkpt lat="44.81083" lon="5.74136">
        <ele>763.8</ele>
        <time>2022-07-14T07:19:08Z</time>
      </trkpt>
      <trkpt lat="44.8109" lon="5.7414">
        <ele>763.5</ele>
        <time>2022-07-14T07:19:09Z</time>
      </trkpt>
      <trkpt lat="44.81096" lon="5.74146">
        <ele>763.2</ele>
        <time>2022-07-14T07:19:10Z</time>
      </trkpt>
      <trkpt lat="44.81102" lon="5.74154">
        <ele>762.7</ele>
        <time>2022-07-14T07:19:11Z</time>
      </trkpt>
      <trkpt lat="44.81108" lon="5.74164">
        <ele>762.2</ele>
        <time>2022-07-14T07:19:12Z</time>
      </trkpt>
      <trkpt lat="44.81113" lon="5.74175">
        <ele>761.7</ele>
        <time>2022-07-14T07:19:13Z</time>
      </trkpt>
      <trkpt lat="44.81117" lon="5.74186">
        <ele>761.2</ele>
        <time>2022-07-14T07:19:14Z</time>
      </trkpt>
      <trkpt lat="44.8112" lon="5.74198">
        <ele>760.7</ele>
        <time>2022-07-14T07:19:15Z</time>
      </trkpt>
      <trkpt lat="44.81123" lon="5.74209">
        <ele>760.2</ele>
        <time>2022-07-14T07:19:16Z</time>
      </trkpt>
      <trkpt lat="44.81126" lon="5.7422">
        <ele>759.7</ele>
        <time>2022-07-14T07:19:17Z</time>
      </trkpt>
      <trkpt lat="44.81129" lon="5.74232">
        <ele>759.3</ele>
        <time>2022-07-14T07:19:18Z</time>
      </trkpt>
      <trkpt lat="44.81131" lon="5.74244">
        <ele>758.8</ele>
        <time>2022-07-14T07:19:19Z</time>
      </trkpt>
      <trkpt lat="44.81134" lon="5.74255">
        <ele>758.4</ele>
        <time>2022-07-14T07:19:20Z</time>
      </trkpt>
      <trkpt lat="44.81139" lon="5.74264">
        <ele>758.1</ele>
        <time>2022-07-14T07:19:21Z</time>
      </trkpt>
      <trkpt lat="44.81144" lon="5.74268">
        <ele>757.7</ele>
        <time>2022-07-14T07:19:22Z</time>
      </trkpt>
      <trkpt lat="44.81152" lon="5.74267">
        <ele>757.3</ele>
        <time>2022-07-14T07:19:23Z</time>
      </trkpt>
      <trkpt lat="44.81159" lon="5.74261">
        <ele>756.7</ele>
        <time>2022-07-14T07:19:24Z</time>
      </trkpt>
      <trkpt lat="44.81165" lon="5.74252">
        <ele>756.3</ele>
        <time>2022-07-14T07:19:25Z</time>
      </trkpt>
      <trkpt lat="44.81168" lon="5.74241">
        <ele>755.7</ele>
        <time>2022-07-14T07:19:26Z</time>
      </trkpt>
      <trkpt lat="44.81171" lon="5.7423">
        <ele>755.1</ele>
        <time>2022-07-14T07:19:27Z</time>
      </trkpt>
      <trkpt lat="44.81173" lon="5.74219">
        <ele>754.6</ele>
        <time>2022-07-14T07:19:28Z</time>
      </trkpt>
      <trkpt lat="44.81176" lon="5.74208">
        <ele>754</ele>
        <time>2022-07-14T07:19:29Z</time>
      </trkpt>
      <trkpt lat="44.81179" lon="5.74198">
        <ele>753.6</ele>
        <time>2022-07-14T07:19:30Z</time>
      </trkpt>
      <trkpt lat="44.81182" lon="5.74186">
        <ele>753.1</ele>
        <time>2022-07-14T07:19:31Z</time>
      </trkpt>
      <trkpt lat="44.81185" lon="5.74174">
        <ele>752.7</ele>
        <time>2022-07-14T07:19:32Z</time>
      </trkpt>
      <trkpt lat="44.81188" lon="5.74164">
        <ele>752.3</ele>
        <time>2022-07-14T07:19:33Z</time>
      </trkpt>
      <trkpt lat="44.81192" lon="5.74155">
        <ele>752</ele>
        <time>2022-07-14T07:19:34Z</time>
      </trkpt>
      <trkpt lat="44.81199" lon="5.74147">
        <ele>751.9</ele>
        <time>2022-07-14T07:19:35Z</time>
      </trkpt>
      <trkpt lat="44.81207" lon="5.74142">
        <ele>751.1</ele>
        <time>2022-07-14T07:19:36Z</time>
      </trkpt>
      <trkpt lat="44.81216" lon="5.7414">
        <ele>750.2</ele>
        <time>2022-07-14T07:19:37Z</time>
      </trkpt>
      <trkpt lat="44.81225" lon="5.7414">
        <ele>749.4</ele>
        <time>2022-07-14T07:19:38Z</time>
      </trkpt>
      <trkpt lat="44.81233" lon="5.74142">
        <ele>748.6</ele>
        <time>2022-07-14T07:19:39Z</time>
      </trkpt>
      <trkpt lat="44.81241" lon="5.74145">
        <ele>747.9</ele>
        <time>2022-07-14T07:19:40Z</time>
      </trkpt>
      <trkpt lat="44.81245" lon="5.7415">
        <ele>747.4</ele>
        <time>2022-07-14T07:19:41Z</time>
      </trkpt>
      <trkpt lat="44.81248" lon="5.74157">
        <ele>747</ele>
        <time>2022-07-14T07:19:42Z</time>
      </trkpt>
      <trkpt lat="44.81251" lon="5.74164">
        <ele>746.5</ele>
        <time>2022-07-14T07:19:43Z</time>
      </trkpt>
      <trkpt lat="44.81255" lon="5.74172">
        <ele>746</ele>
        <time>2022-07-14T07:19:44Z</time>
      </trkpt>
      <trkpt lat="44.81259" lon="5.74181">
        <ele>745.6</ele>
        <time>2022-07-14T07:19:45Z</time>
      </trkpt>
      <trkpt lat="44.81262" lon="5.74192">
        <ele>745.1</ele>
        <time>2022-07-14T07:19:46Z</time>
      </trkpt>
      <trkpt lat="44.81265" lon="5.74203">
        <ele>744.7</ele>
        <time>2022-07-14T07:19:47Z</time>
      </trkpt>
      <trkpt lat="44.81268" lon="5.74213">
        <ele>744.4</ele>
        <time>2022-07-14T07:19:48Z</time>
      </trkpt>
      <trkpt lat="44.81272" lon="5.74223">
        <ele>744.2</ele>
        <time>2022-07-14T07:19:49Z</time>
      </trkpt>
      <trkpt lat="44.81276" lon="5.74234">
        <ele>744</ele>
        <time>2022-07-14T07:19:50Z</time>
      </trkpt>
      <trkpt lat="44.81282" lon="5.74244">
        <ele>743.9</ele>
        <time>2022-07-14T07:19:51Z</time>
      </trkpt>
      <trkpt lat="44.81288" lon="5.74251">
        <ele>743.8</ele>
        <time>2022-07-14T07:19:52Z</time>
      </trkpt>
      <trkpt lat="44.81294" lon="5.74259">
        <ele>744.1</ele>
        <time>2022-07-14T07:19:53Z</time>
      </trkpt>
      <trkpt lat="44.813" lon="5.74266">
        <ele>744.5</ele>
        <time>2022-07-14T07:19:54Z</time>
      </trkpt>
      <trkpt lat="44.81305" lon="5.74272">
        <ele>744.8</ele>
        <time>2022-07-14T07:19:55Z</time>
      </trkpt>
      <trkpt lat="44.81311" lon="5.74277">
        <ele>745.2</ele>
        <time>2022-07-14T07:19:56Z</time>
      </trkpt>
      <trkpt lat="44.81317" lon="5.74281">
        <ele>745.5</ele>
        <time>2022-07-14T07:19:57Z</time>
      </trkpt>
      <trkpt lat="44.81322" lon="5.74286">
        <ele>745.8</ele>
        <time>2022-07-14T07:19:58Z</time>
      </trkpt>
      <trkpt lat="44.81327" lon="5.7429">
        <ele>746</ele>
        <time>2022-07-14T07:19:59Z</time>
      </trkpt>
      <trkpt lat="44.81332" lon="5.74294">
        <ele>746.3</ele>
        <time>2022-07-14T07:20:00Z</time>
      </trkpt>
      <trkpt lat="44.81336" lon="5.74298">
        <ele>746.5</ele>
        <time>2022-07-14T07:20:01Z</time>
      </trkpt>
      <trkpt lat="44.81342" lon="5.74301">
        <ele>746.8</ele>
        <time>2022-07-14T07:20:02Z</time>
      </trkpt>
      <trkpt lat="44.81346" lon="5.74304">
        <ele>747</ele>
        <time>2022-07-14T07:20:03Z</time>
      </trkpt>
      <trkpt lat="44.81351" lon="5.74306">
        <ele>747.2</ele>
        <time>2022-07-14T07:20:04Z</time>
      </trkpt>
      <trkpt lat="44.81355" lon="5.74309">
        <ele>747.5</ele>
        <time>2022-07-14T07:20:05Z</time>
      </trkpt>
      <trkpt lat="44.81359" lon="5.74312">
        <ele>747.7</ele>
        <time>2022-07-14T07:20:06Z</time>
      </trkpt>
      <trkpt lat="44.81363" lon="5.74316">
        <ele>747.9</ele>
        <time>2022-07-14T07:20:07Z</time>
      </trkpt>
      <trkpt lat="44.81366" lon="5.74318">
        <ele>748.1</ele>
        <time>2022-07-14T07:20:08Z</time>
      </trkpt>
      <trkpt lat="44.81369" lon="5.74321">
        <ele>748.3</ele>
        <time>2022-07-14T07:20:09Z</time>
      </trkpt>
      <trkpt lat="44.81374" lon="5.74323">
        <ele>748.5</ele>
        <time>2022-07-14T07:20:10Z</time>
      </trkpt>
      <trkpt lat="44.81378" lon="5.74325">
        <ele>748.7</ele>
        <time>2022-07-14T07:20:11Z</time>
      </trkpt>
      <trkpt lat="44.81383" lon="5.74328">
        <ele>748.9</ele>
        <time>2022-07-14T07:20:12Z</time>
      </trkpt>
      <trkpt lat="44.81388" lon="5.7433">
        <ele>749</ele>
        <time>2022-07-14T07:20:13Z</time>
      </trkpt>
      <trkpt lat="44.81393" lon="5.74332">
        <ele>749.1</ele>
        <time>2022-07-14T07:20:14Z</time>
      </trkpt>
      <trkpt lat="44.81395" lon="5.74333">
        <ele>749.2</ele>
        <time>2022-07-14T07:20:15Z</time>
      </trkpt>
      <trkpt lat="44.814" lon="5.74335">
        <ele>749.3</ele>
        <time>2022-07-14T07:20:16Z</time>
      </trkpt>
      <trkpt lat="44.81405" lon="5.74338">
        <ele>749.5</ele>
        <time>2022-07-14T07:20:17Z</time>
      </trkpt>
      <trkpt lat="44.81408" lon="5.74341">
        <ele>749.7</ele>
        <time>2022-07-14T07:20:18Z</time>
      </trkpt>
      <trkpt lat="44.81412" lon="5.74343">
        <ele>749.9</ele>
        <time>2022-07-14T07:20:19Z</time>
      </trkpt>
      <trkpt lat="44.81415" lon="5.74345">
        <ele>750</ele>
        <time>2022-07-14T07:20:20Z</time>
      </trkpt>
      <trkpt lat="44.81421" lon="5.74349">
        <ele>750.3</ele>
        <time>2022-07-14T07:20:21Z</time>
      </trkpt>
      <trkpt lat="44.81426" lon="5.74352">
        <ele>750.6</ele>
        <time>2022-07-14T07:20:22Z</time>
      </trkpt>
      <trkpt lat="44.8143" lon="5.74356">
        <ele>750.8</ele>
        <time>2022-07-14T07:20:23Z</time>
      </trkpt>
      <trkpt lat="44.81434" lon="5.74358">
        <ele>751</ele>
        <time>2022-07-14T07:20:24Z</time>
      </trkpt>
      <trkpt lat="44.81438" lon="5.74361">
        <ele>751.2</ele>
        <time>2022-07-14T07:20:25Z</time>
      </trkpt>
      <trkpt lat="44.81448" lon="5.74366">
        <ele>751.7</ele>
        <time>2022-07-14T07:20:26Z</time>
      </trkpt>
      <trkpt lat="44.81456" lon="5.74372">
        <ele>752.1</ele>
        <time>2022-07-14T07:20:29Z</time>
      </trkpt>
      <trkpt lat="44.8146" lon="5.74375">
        <ele>752.3</ele>
        <time>2022-07-14T07:20:30Z</time>
      </trkpt>
      <trkpt lat="44.81464" lon="5.74379">
        <ele>752.5</ele>
        <time>2022-07-14T07:20:31Z</time>
      </trkpt>
      <trkpt lat="44.81469" lon="5.74382">
        <ele>752.8</ele>
        <time>2022-07-14T07:20:32Z</time>
      </trkpt>
      <trkpt lat="44.81473" lon="5.74384">
        <ele>753</ele>
        <time>2022-07-14T07:20:33Z</time>
      </trkpt>
      <trkpt lat="44.81478" lon="5.74387">
        <ele>753.2</ele>
        <time>2022-07-14T07:20:34Z</time>
      </trkpt>
      <trkpt lat="44.81482" lon="5.7439">
        <ele>753.4</ele>
        <time>2022-07-14T07:20:35Z</time>
      </trkpt>
      <trkpt lat="44.81487" lon="5.74392">
        <ele>753.6</ele>
        <time>2022-07-14T07:20:36Z</time>
      </trkpt>
      <trkpt lat="44.81492" lon="5.74395">
        <ele>753.6</ele>
        <time>2022-07-14T07:20:37Z</time>
      </trkpt>
      <trkpt lat="44.81496" lon="5.74397">
        <ele>753.7</ele>
        <time>2022-07-14T07:20:38Z</time>
      </trkpt>
      <trkpt lat="44.81499" lon="5.74398">
        <ele>753.9</ele>
        <time>2022-07-14T07:20:39Z</time>
      </trkpt>
      <trkpt lat="44.81503" lon="5.744">
        <ele>754</ele>
        <time>2022-07-14T07:20:40Z</time>
      </trkpt>
      <trkpt lat="44.81506" lon="5.74403">
        <ele>754.2</ele>
        <time>2022-07-14T07:20:41Z</time>
      </trkpt>
      <trkpt lat="44.8151" lon="5.74405">
        <ele>754.3</ele>
        <time>2022-07-14T07:20:42Z</time>
      </trkpt>
      <trkpt lat="44.81519" lon="5.74405">
        <ele>754.7</ele>
        <time>2022-07-14T07:20:43Z</time>
      </trkpt>
      <trkpt lat="44.8152" lon="5.74401">
        <ele>754.8</ele>
        <time>2022-07-14T07:20:44Z</time>
      </trkpt>
      <trkpt lat="44.81531" lon="5.74414">
        <ele>755.4</ele>
        <time>2022-07-14T07:20:45Z</time>
      </trkpt>
      <trkpt lat="44.81534" lon="5.7441">
        <ele>755.6</ele>
        <time>2022-07-14T07:20:47Z</time>
      </trkpt>
      <trkpt lat="44.81537" lon="5.74417">
        <ele>755.8</ele>
        <time>2022-07-14T07:20:48Z</time>
      </trkpt>
      <trkpt lat="44.81542" lon="5.7442">
        <ele>756</ele>
        <time>2022-07-14T07:20:49Z</time>
      </trkpt>
      <trkpt lat="44.81547" lon="5.74424">
        <ele>756.2</ele>
        <time>2022-07-14T07:20:50Z</time>
      </trkpt>
      <trkpt lat="44.81552" lon="5.74428">
        <ele>756.5</ele>
        <time>2022-07-14T07:20:52Z</time>
      </trkpt>
      <trkpt lat="44.81557" lon="5.74432">
        <ele>756.7</ele>
        <time>2022-07-14T07:20:54Z</time>
      </trkpt>
      <trkpt lat="44.81566" lon="5.74437">
        <ele>757.1</ele>
        <time>2022-07-14T07:20:56Z</time>
      </trkpt>
      <trkpt lat="44.81571" lon="5.7444">
        <ele>757.3</ele>
        <time>2022-07-14T07:20:57Z</time>
      </trkpt>
      <trkpt lat="44.81576" lon="5.74441">
        <ele>757.5</ele>
        <time>2022-07-14T07:20:58Z</time>
      </trkpt>
      <trkpt lat="44.81579" lon="5.74443">
        <ele>757.7</ele>
        <time>2022-07-14T07:20:59Z</time>
      </trkpt>
      <trkpt lat="44.81581" lon="5.74443">
        <ele>757.8</ele>
        <time>2022-07-14T07:21:00Z</time>
      </trkpt>
      <trkpt lat="44.81585" lon="5.74446">
        <ele>758</ele>
        <time>2022-07-14T07:21:01Z</time>
      </trkpt>
      <trkpt lat="44.81589" lon="5.7445">
        <ele>758.2</ele>
        <time>2022-07-14T07:21:02Z</time>
      </trkpt>
      <trkpt lat="44.81593" lon="5.74453">
        <ele>758.4</ele>
        <time>2022-07-14T07:21:03Z</time>
      </trkpt>
      <trkpt lat="44.81601" lon="5.74457">
        <ele>758.8</ele>
        <time>2022-07-14T07:21:05Z</time>
      </trkpt>
      <trkpt lat="44.81604" lon="5.74458">
        <ele>758.9</ele>
        <time>2022-07-14T07:21:06Z</time>
      </trkpt>
      <trkpt lat="44.81607" lon="5.74461">
        <ele>759.1</ele>
        <time>2022-07-14T07:21:07Z</time>
      </trkpt>
      <trkpt lat="44.81609" lon="5.74464">
        <ele>759.2</ele>
        <time>2022-07-14T07:21:08Z</time>
      </trkpt>
      <trkpt lat="44.81614" lon="5.74472">
        <ele>759.7</ele>
        <time>2022-07-14T07:21:10Z</time>
      </trkpt>
      <trkpt lat="44.81617" lon="5.7448">
        <ele>760</ele>
        <time>2022-07-14T07:21:12Z</time>
      </trkpt>
      <trkpt lat="44.81619" lon="5.74484">
        <ele>760.2</ele>
        <time>2022-07-14T07:21:13Z</time>
      </trkpt>
      <trkpt lat="44.8162" lon="5.74489">
        <ele>760.5</ele>
        <time>2022-07-14T07:21:14Z</time>
      </trkpt>
      <trkpt lat="44.81622" lon="5.745">
        <ele>760.9</ele>
        <time>2022-07-14T07:21:16Z</time>
      </trkpt>
      <trkpt lat="44.81624" lon="5.74506">
        <ele>761.2</ele>
        <time>2022-07-14T07:21:17Z</time>
      </trkpt>
      <trkpt lat="44.81626" lon="5.74519">
        <ele>761.7</ele>
        <time>2022-07-14T07:21:19Z</time>
      </trkpt>
      <trkpt lat="44.81629" lon="5.7453">
        <ele>762.1</ele>
        <time>2022-07-14T07:21:22Z</time>
      </trkpt>
      <trkpt lat="44.81629" lon="5.74539">
        <ele>762.4</ele>
        <time>2022-07-14T07:21:23Z</time>
      </trkpt>
      <trkpt lat="44.8163" lon="5.74546">
        <ele>762.5</ele>
        <time>2022-07-14T07:21:24Z</time>
      </trkpt>
      <trkpt lat="44.81633" lon="5.74552">
        <ele>762.7</ele>
        <time>2022-07-14T07:21:26Z</time>
      </trkpt>
      <trkpt lat="44.81634" lon="5.74557">
        <ele>762.9</ele>
        <time>2022-07-14T07:21:27Z</time>
      </trkpt>
      <trkpt lat="44.81634" lon="5.74561">
        <ele>763</ele>
        <time>2022-07-14T07:21:28Z</time>
      </trkpt>
      <trkpt lat="44.81635" lon="5.74566">
        <ele>763.1</ele>
        <time>2022-07-14T07:21:29Z</time>
      </trkpt>
      <trkpt lat="44.81637" lon="5.74575">
        <ele>763.4</ele>
        <time>2022-07-14T07:21:30Z</time>
      </trkpt>
      <trkpt lat="44.81638" lon="5.74581">
        <ele>763.6</ele>
        <time>2022-07-14T07:21:32Z</time>
      </trkpt>
      <trkpt lat="44.81639" lon="5.74585">
        <ele>763.7</ele>
        <time>2022-07-14T07:21:33Z</time>
      </trkpt>
      <trkpt lat="44.8164" lon="5.74592">
        <ele>763.9</ele>
        <time>2022-07-14T07:21:34Z</time>
      </trkpt>
      <trkpt lat="44.81641" lon="5.74598">
        <ele>764.1</ele>
        <time>2022-07-14T07:21:35Z</time>
      </trkpt>
      <trkpt lat="44.81642" lon="5.74602">
        <ele>764.2</ele>
        <time>2022-07-14T07:21:36Z</time>
      </trkpt>
      <trkpt lat="44.81644" lon="5.74608">
        <ele>764.5</ele>
        <time>2022-07-14T07:21:37Z</time>
      </trkpt>
      <trkpt lat="44.81645" lon="5.74616">
        <ele>764.7</ele>
        <time>2022-07-14T07:21:39Z</time>
      </trkpt>
      <trkpt lat="44.81645" lon="5.74622">
        <ele>764.9</ele>
        <time>2022-07-14T07:21:40Z</time>
      </trkpt>
      <trkpt lat="44.81646" lon="5.74629">
        <ele>765.1</ele>
        <time>2022-07-14T07:21:41Z</time>
      </trkpt>
      <trkpt lat="44.81646" lon="5.74632">
        <ele>765.2</ele>
        <time>2022-07-14T07:21:42Z</time>
      </trkpt>
      <trkpt lat="44.81648" lon="5.74643">
        <ele>765.6</ele>
        <time>2022-07-14T07:21:44Z</time>
      </trkpt>
      <trkpt lat="44.81649" lon="5.7465">
        <ele>765.8</ele>
        <time>2022-07-14T07:21:45Z</time>
      </trkpt>
      <trkpt lat="44.81649" lon="5.74654">
        <ele>766</ele>
        <time>2022-07-14T07:21:46Z</time>
      </trkpt>
      <trkpt lat="44.81649" lon="5.74666">
        <ele>766.4</ele>
        <time>2022-07-14T07:21:48Z</time>
      </trkpt>
      <trkpt lat="44.8165" lon="5.74671">
        <ele>766.6</ele>
        <time>2022-07-14T07:21:49Z</time>
      </trkpt>
      <trkpt lat="44.81651" lon="5.74676">
        <ele>766.8</ele>
        <time>2022-07-14T07:21:50Z</time>
      </trkpt>
      <trkpt lat="44.81652" lon="5.74684">
        <ele>767.1</ele>
        <time>2022-07-14T07:21:52Z</time>
      </trkpt>
      <trkpt lat="44.81652" lon="5.7469">
        <ele>767.3</ele>
        <time>2022-07-14T07:21:53Z</time>
      </trkpt>
      <trkpt lat="44.81653" lon="5.74699">
        <ele>767.7</ele>
        <time>2022-07-14T07:21:55Z</time>
      </trkpt>
      <trkpt lat="44.81654" lon="5.74706">
        <ele>768</ele>
        <time>2022-07-14T07:21:56Z</time>
      </trkpt>
      <trkpt lat="44.81654" lon="5.74712">
        <ele>768.2</ele>
        <time>2022-07-14T07:21:57Z</time>
      </trkpt>
      <trkpt lat="44.81655" lon="5.7472">
        <ele>768.5</ele>
        <time>2022-07-14T07:21:59Z</time>
      </trkpt>
      <trkpt lat="44.81655" lon="5.74726">
        <ele>768.7</ele>
        <time>2022-07-14T07:22:00Z</time>
      </trkpt>
      <trkpt lat="44.81656" lon="5.74733">
        <ele>769</ele>
        <time>2022-07-14T07:22:01Z</time>
      </trkpt>
      <trkpt lat="44.81657" lon="5.74738">
        <ele>769.2</ele>
        <time>2022-07-14T07:22:02Z</time>
      </trkpt>
      <trkpt lat="44.81658" lon="5.74744">
        <ele>769.4</ele>
        <time>2022-07-14T07:22:03Z</time>
      </trkpt>
      <trkpt lat="44.8166" lon="5.74757">
        <ele>769.8</ele>
        <time>2022-07-14T07:22:05Z</time>
      </trkpt>
      <trkpt lat="44.81663" lon="5.74762">
        <ele>770</ele>
        <time>2022-07-14T07:22:06Z</time>
      </trkpt>
      <trkpt lat="44.81664" lon="5.74765">
        <ele>770.1</ele>
        <time>2022-07-14T07:22:07Z</time>
      </trkpt>
      <trkpt lat="44.81667" lon="5.7477">
        <ele>770.3</ele>
        <time>2022-07-14T07:22:08Z</time>
      </trkpt>
      <trkpt lat="44.81669" lon="5.74777">
        <ele>770.5</ele>
        <time>2022-07-14T07:22:09Z</time>
      </trkpt>
      <trkpt lat="44.8167" lon="5.74782">
        <ele>770.7</ele>
        <time>2022-07-14T07:22:10Z</time>
      </trkpt>
      <trkpt lat="44.81671" lon="5.74793">
        <ele>771</ele>
        <time>2022-07-14T07:22:12Z</time>
      </trkpt>
      <trkpt lat="44.8167" lon="5.74799">
        <ele>771.2</ele>
        <time>2022-07-14T07:22:13Z</time>
      </trkpt>
      <trkpt lat="44.81669" lon="5.7481">
        <ele>771.3</ele>
        <time>2022-07-14T07:22:15Z</time>
      </trkpt>
      <trkpt lat="44.8167" lon="5.74817">
        <ele>771.4</ele>
        <time>2022-07-14T07:22:16Z</time>
      </trkpt>
      <trkpt lat="44.81669" lon="5.74829">
        <ele>771.5</ele>
        <time>2022-07-14T07:22:18Z</time>
      </trkpt>
      <trkpt lat="44.81669" lon="5.74835">
        <ele>771.6</ele>
        <time>2022-07-14T07:22:19Z</time>
      </trkpt>
      <trkpt lat="44.81669" lon="5.74845">
        <ele>771.7</ele>
        <time>2022-07-14T07:22:20Z</time>
      </trkpt>
      <trkpt lat="44.81663" lon="5.74856">
        <ele>771.9</ele>
        <time>2022-07-14T07:22:22Z</time>
      </trkpt>
      <trkpt lat="44.81671" lon="5.74863">
        <ele>772.1</ele>
        <time>2022-07-14T07:22:24Z</time>
      </trkpt>
      <trkpt lat="44.8167" lon="5.74871">
        <ele>772.2</ele>
        <time>2022-07-14T07:22:25Z</time>
      </trkpt>
      <trkpt lat="44.81669" lon="5.74878">
        <ele>772.3</ele>
        <time>2022-07-14T07:22:26Z</time>
      </trkpt>
      <trkpt lat="44.81669" lon="5.74884">
        <ele>772.4</ele>
        <time>2022-07-14T07:22:27Z</time>
      </trkpt>
      <trkpt lat="44.81669" lon="5.74889">
        <ele>772.4</ele>
        <time>2022-07-14T07:22:28Z</time>
      </trkpt>
      <trkpt lat="44.81669" lon="5.74897">
        <ele>772.6</ele>
        <time>2022-07-14T07:22:29Z</time>
      </trkpt>
      <trkpt lat="44.8167" lon="5.74903">
        <ele>772.7</ele>
        <time>2022-07-14T07:22:30Z</time>
      </trkpt>
      <trkpt lat="44.8167" lon="5.74909">
        <ele>772.7</ele>
        <time>2022-07-14T07:22:31Z</time>
      </trkpt>
      <trkpt lat="44.8167" lon="5.74913">
        <ele>772.8</ele>
        <time>2022-07-14T07:22:32Z</time>
      </trkpt>
      <trkpt lat="44.81671" lon="5.74924">
        <ele>773</ele>
        <time>2022-07-14T07:22:34Z</time>
      </trkpt>
      <trkpt lat="44.81672" lon="5.74929">
        <ele>773</ele>
        <time>2022-07-14T07:22:35Z</time>
      </trkpt>
      <trkpt lat="44.81673" lon="5.74934">
        <ele>773.1</ele>
        <time>2022-07-14T07:22:36Z</time>
      </trkpt>
      <trkpt lat="44.81676" lon="5.74953">
        <ele>773.6</ele>
        <time>2022-07-14T07:22:38Z</time>
      </trkpt>
      <trkpt lat="44.8167" lon="5.74961">
        <ele>773.9</ele>
        <time>2022-07-14T07:22:40Z</time>
      </trkpt>
      <trkpt lat="44.81672" lon="5.74969">
        <ele>774.1</ele>
        <time>2022-07-14T07:22:42Z</time>
      </trkpt>
      <trkpt lat="44.81675" lon="5.74974">
        <ele>774.3</ele>
        <time>2022-07-14T07:22:43Z</time>
      </trkpt>
      <trkpt lat="44.81679" lon="5.74979">
        <ele>774.5</ele>
        <time>2022-07-14T07:22:44Z</time>
      </trkpt>
      <trkpt lat="44.81681" lon="5.74989">
        <ele>774.8</ele>
        <time>2022-07-14T07:22:45Z</time>
      </trkpt>
      <trkpt lat="44.81686" lon="5.75003">
        <ele>775.3</ele>
        <time>2022-07-14T07:22:47Z</time>
      </trkpt>
      <trkpt lat="44.81687" lon="5.75014">
        <ele>775.7</ele>
        <time>2022-07-14T07:22:48Z</time>
      </trkpt>
      <trkpt lat="44.81686" lon="5.7502">
        <ele>775.9</ele>
        <time>2022-07-14T07:22:50Z</time>
      </trkpt>
      <trkpt lat="44.81686" lon="5.75025">
        <ele>776.1</ele>
        <time>2022-07-14T07:22:51Z</time>
      </trkpt>
      <trkpt lat="44.81687" lon="5.75037">
        <ele>776.6</ele>
        <time>2022-07-14T07:22:53Z</time>
      </trkpt>
      <trkpt lat="44.81687" lon="5.75045">
        <ele>776.9</ele>
        <time>2022-07-14T07:22:54Z</time>
      </trkpt>
      <trkpt lat="44.81688" lon="5.75053">
        <ele>777.3</ele>
        <time>2022-07-14T07:22:56Z</time>
      </trkpt>
      <trkpt lat="44.81688" lon="5.75058">
        <ele>777.2</ele>
        <time>2022-07-14T07:22:57Z</time>
      </trkpt>
      <trkpt lat="44.81688" lon="5.75059">
        <ele>777.2</ele>
        <time>2022-07-14T07:22:58Z</time>
      </trkpt>
      <trkpt lat="44.81688" lon="5.7506">
        <ele>777.2</ele>
        <time>2022-07-14T07:22:59Z</time>
      </trkpt>
      <trkpt lat="44.81681" lon="5.75054">
        <ele>777.1</ele>
        <time>2022-07-14T07:23:01Z</time>
      </trkpt>
      <trkpt lat="44.81677" lon="5.75054">
        <ele>777</ele>
        <time>2022-07-14T07:23:02Z</time>
      </trkpt>
      <trkpt lat="44.81675" lon="5.75055">
        <ele>777</ele>
        <time>2022-07-14T07:23:03Z</time>
      </trkpt>
      <trkpt lat="44.81668" lon="5.75057">
        <ele>776.9</ele>
        <time>2022-07-14T07:23:05Z</time>
      </trkpt>
      <trkpt lat="44.81666" lon="5.75056">
        <ele>776.9</ele>
        <time>2022-07-14T07:23:06Z</time>
      </trkpt>
      <trkpt lat="44.8166" lon="5.75058">
        <ele>776.8</ele>
        <time>2022-07-14T07:23:07Z</time>
      </trkpt>
      <trkpt lat="44.8165" lon="5.75063">
        <ele>776.7</ele>
        <time>2022-07-14T07:23:09Z</time>
      </trkpt>
      <trkpt lat="44.81642" lon="5.75066">
        <ele>776.6</ele>
        <time>2022-07-14T07:23:11Z</time>
      </trkpt>
      <trkpt lat="44.81637" lon="5.75068">
        <ele>776.6</ele>
        <time>2022-07-14T07:23:12Z</time>
      </trkpt>
      <trkpt lat="44.81628" lon="5.75072">
        <ele>776.5</ele>
        <time>2022-07-14T07:23:14Z</time>
      </trkpt>
      <trkpt lat="44.81614" lon="5.75075">
        <ele>776.3</ele>
        <time>2022-07-14T07:23:17Z</time>
      </trkpt>
      <trkpt lat="44.81609" lon="5.75075">
        <ele>776.2</ele>
        <time>2022-07-14T07:23:18Z</time>
      </trkpt>
      <trkpt lat="44.81604" lon="5.75077">
        <ele>776.2</ele>
        <time>2022-07-14T07:23:19Z</time>
      </trkpt>
      <trkpt lat="44.81591" lon="5.75079">
        <ele>776</ele>
        <time>2022-07-14T07:23:20Z</time>
      </trkpt>
      <trkpt lat="44.81588" lon="5.75075">
        <ele>776</ele>
        <time>2022-07-14T07:23:22Z</time>
      </trkpt>
      <trkpt lat="44.81587" lon="5.75077">
        <ele>776</ele>
        <time>2022-07-14T07:23:23Z</time>
      </trkpt>
      <trkpt lat="44.81586" lon="5.75078">
        <ele>775.9</ele>
        <time>2022-07-14T07:23:24Z</time>
      </trkpt>
      <trkpt lat="44.8159" lon="5.75077">
        <ele>775.9</ele>
        <time>2022-07-14T07:23:27Z</time>
      </trkpt>
      <trkpt lat="44.8159" lon="5.75077">
        <ele>775.9</ele>
        <time>2022-07-14T07:23:28Z</time>
      </trkpt>
      <trkpt lat="44.8159" lon="5.75077">
        <ele>775.9</ele>
        <time>2022-07-14T07:23:29Z</time>
      </trkpt>
      <trkpt lat="44.81589" lon="5.75077">
        <ele>775.9</ele>
        <time>2022-07-14T07:23:32Z</time>
      </trkpt>
      <trkpt lat="44.81588" lon="5.75077">
        <ele>775.9</ele>
        <time>2022-07-14T07:23:33Z</time>
      </trkpt>
      <trkpt lat="44.81588" lon="5.75077">
        <ele>775.9</ele>
        <time>2022-07-14T07:23:34Z</time>
      </trkpt>
      <trkpt lat="44.81585" lon="5.75079">
        <ele>775.8</ele>
        <time>2022-07-14T07:23:40Z</time>
      </trkpt>
      <trkpt lat="44.81584" lon="5.75081">
        <ele>775.8</ele>
        <time>2022-07-14T07:23:41Z</time>
      </trkpt>
      <trkpt lat="44.81583" lon="5.75084">
        <ele>775.8</ele>
        <time>2022-07-14T07:23:43Z</time>
      </trkpt>
      <trkpt lat="44.81584" lon="5.75086">
        <ele>775.8</ele>
        <time>2022-07-14T07:23:46Z</time>
      </trkpt>
      <trkpt lat="44.81585" lon="5.75084">
        <ele>775.7</ele>
        <time>2022-07-14T07:23:49Z</time>
      </trkpt>
      <trkpt lat="44.81585" lon="5.75083">
        <ele>775.7</ele>
        <time>2022-07-14T07:23:50Z</time>
      </trkpt>
      <trkpt lat="44.81585" lon="5.75083">
        <ele>775.7</ele>
        <time>2022-07-14T07:23:51Z</time>
      </trkpt>
      <trkpt lat="44.81586" lon="5.75083">
        <ele>775.7</ele>
        <time>2022-07-14T07:23:52Z</time>
      </trkpt>
      <trkpt lat="44.81586" lon="5.75082">
        <ele>775.7</ele>
        <time>2022-07-14T07:23:53Z</time>
      </trkpt>
      <trkpt lat="44.81586" lon="5.75082">
        <ele>775.7</ele>
        <time>2022-07-14T07:23:54Z</time>
      </trkpt>
      <trkpt lat="44.81586" lon="5.75082">
        <ele>775.7</ele>
        <time>2022-07-14T07:23:55Z</time>
      </trkpt>
      <trkpt lat="44.81586" lon="5.75083">
        <ele>775.7</ele>
        <time>2022-07-14T07:23:58Z</time>
      </trkpt>
      <trkpt lat="44.81586" lon="5.75083">
        <ele>775.7</ele>
        <time>2022-07-14T07:23:59Z</time>
      </trkpt>
      <trkpt lat="44.81585" lon="5.75084">
        <ele>775.7</ele>
        <time>2022-07-14T07:24:00Z</time>
      </trkpt>
      <trkpt lat="44.81586" lon="5.75085">
        <ele>775.7</ele>
        <time>2022-07-14T07:24:03Z</time>
      </trkpt>
      <trkpt lat="44.81586" lon="5.75085">
        <ele>775.7</ele>
        <time>2022-07-14T07:24:06Z</time>
      </trkpt>
      <trkpt lat="44.81587" lon="5.75085">
        <ele>775.7</ele>
        <time>2022-07-14T07:24:07Z</time>
      </trkpt>
      <trkpt lat="44.81587" lon="5.75085">
        <ele>775.7</ele>
        <time>2022-07-14T07:24:08Z</time>
      </trkpt>
      <trkpt lat="44.81587" lon="5.75085">
        <ele>775.7</ele>
        <time>2022-07-14T07:24:09Z</time>
      </trkpt>
      <trkpt lat="44.81587" lon="5.75085">
        <ele>775.7</ele>
        <time>2022-07-14T07:24:10Z</time>
      </trkpt>
      <trkpt lat="44.81587" lon="5.75077">
        <ele>775.6</ele>
        <time>2022-07-14T07:25:43Z</time>
      </trkpt>
      <trkpt lat="44.81586" lon="5.75076">
        <ele>775.6</ele>
        <time>2022-07-14T07:25:44Z</time>
      </trkpt>
      <trkpt lat="44.81586" lon="5.75076">
        <ele>775.6</ele>
        <time>2022-07-14T07:25:45Z</time>
      </trkpt>
      <trkpt lat="44.81586" lon="5.75077">
        <ele>775.6</ele>
        <time>2022-07-14T07:25:46Z</time>
      </trkpt>
      <trkpt lat="44.81586" lon="5.75076">
        <ele>775.6</ele>
        <time>2022-07-14T07:25:49Z</time>
      </trkpt>
      <trkpt lat="44.81586" lon="5.75075">
        <ele>775.6</ele>
        <time>2022-07-14T07:25:50Z</time>
      </trkpt>
      <trkpt lat="44.81587" lon="5.75075">
        <ele>775.6</ele>
        <time>2022-07-14T07:25:51Z</time>
      </trkpt>
      <trkpt lat="44.81587" lon="5.75075">
        <ele>775.6</ele>
        <time>2022-07-14T07:25:52Z</time>
      </trkpt>
      <trkpt lat="44.81587" lon="5.75074">
        <ele>775.6</ele>
        <time>2022-07-14T07:25:53Z</time>
      </trkpt>
      <trkpt lat="44.81587" lon="5.75074">
        <ele>775.6</ele>
        <time>2022-07-14T07:25:54Z</time>
      </trkpt>
      <trkpt lat="44.81587" lon="5.75074">
        <ele>775.6</ele>
        <time>2022-07-14T07:25:55Z</time>
      </trkpt>
      <trkpt lat="44.81586" lon="5.75073">
        <ele>775.6</ele>
        <time>2022-07-14T07:25:57Z</time>
      </trkpt>
      <trkpt lat="44.81583" lon="5.75075">
        <ele>775.5</ele>
        <time>2022-07-14T07:25:59Z</time>
      </trkpt>
      <trkpt lat="44.81579" lon="5.75084">
        <ele>775.5</ele>
        <time>2022-07-14T07:26:01Z</time>
      </trkpt>
      <trkpt lat="44.81565" lon="5.75081">
        <ele>775.3</ele>
        <time>2022-07-14T07:26:03Z</time>
      </trkpt>
      <trkpt lat="44.81555" lon="5.75081">
        <ele>775.3</ele>
        <time>2022-07-14T07:26:05Z</time>
      </trkpt>
      <trkpt lat="44.81537" lon="5.75084">
        <ele>775.2</ele>
        <time>2022-07-14T07:26:08Z</time>
      </trkpt>
      <trkpt lat="44.81531" lon="5.75085">
        <ele>775.2</ele>
        <time>2022-07-14T07:26:09Z</time>
      </trkpt>
      <trkpt lat="44.81526" lon="5.75087">
        <ele>775.1</ele>
        <time>2022-07-14T07:26:10Z</time>
      </trkpt>
      <trkpt lat="44.81514" lon="5.75091">
        <ele>775.1</ele>
        <time>2022-07-14T07:26:11Z</time>
      </trkpt>
      <trkpt lat="44.81507" lon="5.75094">
        <ele>775.1</ele>
        <time>2022-07-14T07:26:14Z</time>
      </trkpt>
      <trkpt lat="44.81501" lon="5.75094">
        <ele>775.1</ele>
        <time>2022-07-14T07:26:15Z</time>
      </trkpt>
      <trkpt lat="44.81496" lon="5.75095">
        <ele>775.1</ele>
        <time>2022-07-14T07:26:16Z</time>
      </trkpt>
      <trkpt lat="44.81483" lon="5.75098">
        <ele>775.1</ele>
        <time>2022-07-14T07:26:17Z</time>
      </trkpt>
      <trkpt lat="44.81478" lon="5.75101">
        <ele>775.1</ele>
        <time>2022-07-14T07:26:19Z</time>
      </trkpt>
      <trkpt lat="44.81476" lon="5.75098">
        <ele>775.1</ele>
        <time>2022-07-14T07:26:20Z</time>
      </trkpt>
      <trkpt lat="44.81467" lon="5.75099">
        <ele>775</ele>
        <time>2022-07-14T07:26:22Z</time>
      </trkpt>
      <trkpt lat="44.81459" lon="5.75102">
        <ele>775</ele>
        <time>2022-07-14T07:26:24Z</time>
      </trkpt>
      <trkpt lat="44.81455" lon="5.75101">
        <ele>775</ele>
        <time>2022-07-14T07:26:25Z</time>
      </trkpt>
      <trkpt lat="44.81454" lon="5.75101">
        <ele>775</ele>
        <time>2022-07-14T07:26:26Z</time>
      </trkpt>
      <trkpt lat="44.81446" lon="5.75103">
        <ele>775.1</ele>
        <time>2022-07-14T07:26:28Z</time>
      </trkpt>
      <trkpt lat="44.81442" lon="5.75104">
        <ele>775.1</ele>
        <time>2022-07-14T07:26:29Z</time>
      </trkpt>
      <trkpt lat="44.81439" lon="5.75104">
        <ele>775.2</ele>
        <time>2022-07-14T07:26:30Z</time>
      </trkpt>
      <trkpt lat="44.81433" lon="5.75104">
        <ele>775.3</ele>
        <time>2022-07-14T07:26:31Z</time>
      </trkpt>
      <trkpt lat="44.81429" lon="5.75106">
        <ele>775.4</ele>
        <time>2022-07-14T07:26:32Z</time>
      </trkpt>
      <trkpt lat="44.81422" lon="5.75106">
        <ele>775.6</ele>
        <time>2022-07-14T07:26:34Z</time>
      </trkpt>
      <trkpt lat="44.81413" lon="5.75107">
        <ele>775.9</ele>
        <time>2022-07-14T07:26:36Z</time>
      </trkpt>
      <trkpt lat="44.8141" lon="5.75106">
        <ele>776.1</ele>
        <time>2022-07-14T07:26:37Z</time>
      </trkpt>
      <trkpt lat="44.81406" lon="5.75106">
        <ele>776.3</ele>
        <time>2022-07-14T07:26:38Z</time>
      </trkpt>
      <trkpt lat="44.81401" lon="5.75106">
        <ele>776.5</ele>
        <time>2022-07-14T07:26:39Z</time>
      </trkpt>
      <trkpt lat="44.81397" lon="5.75104">
        <ele>776.8</ele>
        <time>2022-07-14T07:26:40Z</time>
      </trkpt>
      <trkpt lat="44.81395" lon="5.75103">
        <ele>776.9</ele>
        <time>2022-07-14T07:26:41Z</time>
      </trkpt>
      <trkpt lat="44.81389" lon="5.75101">
        <ele>777.3</ele>
        <time>2022-07-14T07:26:43Z</time>
      </trkpt>
      <trkpt lat="44.81385" lon="5.75098">
        <ele>777.5</ele>
        <time>2022-07-14T07:26:44Z</time>
      </trkpt>
      <trkpt lat="44.81382" lon="5.75094">
        <ele>777.8</ele>
        <time>2022-07-14T07:26:47Z</time>
      </trkpt>
      <trkpt lat="44.81378" lon="5.75091">
        <ele>778</ele>
        <time>2022-07-14T07:26:48Z</time>
      </trkpt>
      <trkpt lat="44.81375" lon="5.75089">
        <ele>778.3</ele>
        <time>2022-07-14T07:26:49Z</time>
      </trkpt>
      <trkpt lat="44.81371" lon="5.75082">
        <ele>778.7</ele>
        <time>2022-07-14T07:26:51Z</time>
      </trkpt>
      <trkpt lat="44.81369" lon="5.75074">
        <ele>779</ele>
        <time>2022-07-14T07:26:53Z</time>
      </trkpt>
      <trkpt lat="44.81366" lon="5.75067">
        <ele>779.3</ele>
        <time>2022-07-14T07:26:55Z</time>
      </trkpt>
      <trkpt lat="44.81363" lon="5.75058">
        <ele>779.7</ele>
        <time>2022-07-14T07:26:57Z</time>
      </trkpt>
      <trkpt lat="44.81361" lon="5.75053">
        <ele>779.9</ele>
        <time>2022-07-14T07:26:58Z</time>
      </trkpt>
      <trkpt lat="44.81359" lon="5.75051">
        <ele>780</ele>
        <time>2022-07-14T07:26:59Z</time>
      </trkpt>
      <trkpt lat="44.81359" lon="5.75042">
        <ele>780.3</ele>
        <time>2022-07-14T07:27:01Z</time>
      </trkpt>
      <trkpt lat="44.81358" lon="5.75037">
        <ele>780.5</ele>
        <time>2022-07-14T07:27:02Z</time>
      </trkpt>
      <trkpt lat="44.81354" lon="5.7503">
        <ele>780.8</ele>
        <time>2022-07-14T07:27:04Z</time>
      </trkpt>
      <trkpt lat="44.8135" lon="5.75022">
        <ele>781.1</ele>
        <time>2022-07-14T07:27:07Z</time>
      </trkpt>
      <trkpt lat="44.81349" lon="5.75018">
        <ele>781.3</ele>
        <time>2022-07-14T07:27:08Z</time>
      </trkpt>
      <trkpt lat="44.81347" lon="5.75011">
        <ele>781.5</ele>
        <time>2022-07-14T07:27:09Z</time>
      </trkpt>
      <trkpt lat="44.81347" lon="5.75007">
        <ele>781.6</ele>
        <time>2022-07-14T07:27:10Z</time>
      </trkpt>
      <trkpt lat="44.81343" lon="5.75">
        <ele>781.9</ele>
        <time>2022-07-14T07:27:13Z</time>
      </trkpt>
      <trkpt lat="44.81342" lon="5.74996">
        <ele>782.1</ele>
        <time>2022-07-14T07:27:14Z</time>
      </trkpt>
      <trkpt lat="44.8134" lon="5.74992">
        <ele>782.2</ele>
        <time>2022-07-14T07:27:15Z</time>
      </trkpt>
      <trkpt lat="44.81335" lon="5.74978">
        <ele>782.7</ele>
        <time>2022-07-14T07:27:18Z</time>
      </trkpt>
      <trkpt lat="44.81334" lon="5.74975">
        <ele>782.9</ele>
        <time>2022-07-14T07:27:19Z</time>
      </trkpt>
      <trkpt lat="44.8133" lon="5.74966">
        <ele>783.2</ele>
        <time>2022-07-14T07:27:21Z</time>
      </trkpt>
      <trkpt lat="44.81328" lon="5.74956">
        <ele>783.5</ele>
        <time>2022-07-14T07:27:23Z</time>
      </trkpt>
      <trkpt lat="44.81326" lon="5.74948">
        <ele>783.8</ele>
        <time>2022-07-14T07:27:25Z</time>
      </trkpt>
      <trkpt lat="44.81324" lon="5.74941">
        <ele>784</ele>
        <time>2022-07-14T07:27:26Z</time>
      </trkpt>
      <trkpt lat="44.81321" lon="5.74932">
        <ele>784.4</ele>
        <time>2022-07-14T07:27:29Z</time>
      </trkpt>
      <trkpt lat="44.81319" lon="5.74927">
        <ele>784.5</ele>
        <time>2022-07-14T07:27:30Z</time>
      </trkpt>
      <trkpt lat="44.81317" lon="5.74917">
        <ele>784.9</ele>
        <time>2022-07-14T07:27:32Z</time>
      </trkpt>
      <trkpt lat="44.81313" lon="5.74906">
        <ele>785.3</ele>
        <time>2022-07-14T07:27:35Z</time>
      </trkpt>
      <trkpt lat="44.8131" lon="5.74898">
        <ele>785.6</ele>
        <time>2022-07-14T07:27:37Z</time>
      </trkpt>
      <trkpt lat="44.81308" lon="5.74894">
        <ele>785.8</ele>
        <time>2022-07-14T07:27:38Z</time>
      </trkpt>
      <trkpt lat="44.81306" lon="5.74886">
        <ele>786.1</ele>
        <time>2022-07-14T07:27:40Z</time>
      </trkpt>
      <trkpt lat="44.81302" lon="5.74879">
        <ele>786.4</ele>
        <time>2022-07-14T07:27:42Z</time>
      </trkpt>
      <trkpt lat="44.81299" lon="5.74873">
        <ele>786.7</ele>
        <time>2022-07-14T07:27:43Z</time>
      </trkpt>
      <trkpt lat="44.81296" lon="5.74868">
        <ele>786.9</ele>
        <time>2022-07-14T07:27:45Z</time>
      </trkpt>
      <trkpt lat="44.81291" lon="5.74857">
        <ele>787.4</ele>
        <time>2022-07-14T07:27:48Z</time>
      </trkpt>
      <trkpt lat="44.81286" lon="5.7485">
        <ele>787.7</ele>
        <time>2022-07-14T07:27:49Z</time>
      </trkpt>
      <trkpt lat="44.81284" lon="5.74848">
        <ele>787.8</ele>
        <time>2022-07-14T07:27:50Z</time>
      </trkpt>
      <trkpt lat="44.8128" lon="5.74841">
        <ele>788.2</ele>
        <time>2022-07-14T07:27:52Z</time>
      </trkpt>
      <trkpt lat="44.81277" lon="5.74836">
        <ele>788.4</ele>
        <time>2022-07-14T07:27:53Z</time>
      </trkpt>
      <trkpt lat="44.81274" lon="5.74833">
        <ele>788.6</ele>
        <time>2022-07-14T07:27:54Z</time>
      </trkpt>
      <trkpt lat="44.81268" lon="5.74825">
        <ele>789</ele>
        <time>2022-07-14T07:27:57Z</time>
      </trkpt>
      <trkpt lat="44.81265" lon="5.74821">
        <ele>789.2</ele>
        <time>2022-07-14T07:27:58Z</time>
      </trkpt>
      <trkpt lat="44.81257" lon="5.74817">
        <ele>789.6</ele>
        <time>2022-07-14T07:28:01Z</time>
      </trkpt>
      <trkpt lat="44.81254" lon="5.74817">
        <ele>789.7</ele>
        <time>2022-07-14T07:28:02Z</time>
      </trkpt>
      <trkpt lat="44.8125" lon="5.74818">
        <ele>789.9</ele>
        <time>2022-07-14T07:28:03Z</time>
      </trkpt>
      <trkpt lat="44.81246" lon="5.74819">
        <ele>790</ele>
        <time>2022-07-14T07:28:04Z</time>
      </trkpt>
      <trkpt lat="44.81243" lon="5.74821">
        <ele>790.2</ele>
        <time>2022-07-14T07:28:05Z</time>
      </trkpt>
      <trkpt lat="44.81239" lon="5.74822">
        <ele>790.3</ele>
        <time>2022-07-14T07:28:06Z</time>
      </trkpt>
      <trkpt lat="44.81236" lon="5.74824">
        <ele>790.5</ele>
        <time>2022-07-14T07:28:07Z</time>
      </trkpt>
      <trkpt lat="44.81233" lon="5.74826">
        <ele>790.6</ele>
        <time>2022-07-14T07:28:08Z</time>
      </trkpt>
      <trkpt lat="44.81229" lon="5.74828">
        <ele>790.8</ele>
        <time>2022-07-14T07:28:09Z</time>
      </trkpt>
      <trkpt lat="44.81219" lon="5.74832">
        <ele>791.2</ele>
        <time>2022-07-14T07:28:12Z</time>
      </trkpt>
      <trkpt lat="44.81214" lon="5.74834">
        <ele>791.4</ele>
        <time>2022-07-14T07:28:13Z</time>
      </trkpt>
      <trkpt lat="44.8121" lon="5.74837">
        <ele>791.6</ele>
        <time>2022-07-14T07:28:14Z</time>
      </trkpt>
      <trkpt lat="44.81203" lon="5.7484">
        <ele>791.8</ele>
        <time>2022-07-14T07:28:16Z</time>
      </trkpt>
      <trkpt lat="44.812" lon="5.74841">
        <ele>792</ele>
        <time>2022-07-14T07:28:17Z</time>
      </trkpt>
      <trkpt lat="44.81196" lon="5.74843">
        <ele>792.2</ele>
        <time>2022-07-14T07:28:18Z</time>
      </trkpt>
      <trkpt lat="44.81192" lon="5.74845">
        <ele>792.3</ele>
        <time>2022-07-14T07:28:20Z</time>
      </trkpt>
      <trkpt lat="44.81189" lon="5.74847">
        <ele>792.5</ele>
        <time>2022-07-14T07:28:21Z</time>
      </trkpt>
      <trkpt lat="44.81185" lon="5.74849">
        <ele>792.7</ele>
        <time>2022-07-14T07:28:22Z</time>
      </trkpt>
      <trkpt lat="44.81181" lon="5.7485">
        <ele>792.9</ele>
        <time>2022-07-14T07:28:23Z</time>
      </trkpt>
      <trkpt lat="44.81175" lon="5.74854">
        <ele>793.2</ele>
        <time>2022-07-14T07:28:25Z</time>
      </trkpt>
      <trkpt lat="44.81171" lon="5.74855">
        <ele>793.4</ele>
        <time>2022-07-14T07:28:26Z</time>
      </trkpt>
      <trkpt lat="44.81166" lon="5.74857">
        <ele>793.7</ele>
        <time>2022-07-14T07:28:27Z</time>
      </trkpt>
      <trkpt lat="44.81163" lon="5.74859">
        <ele>793.8</ele>
        <time>2022-07-14T07:28:28Z</time>
      </trkpt>
      <trkpt lat="44.81155" lon="5.74861">
        <ele>794.2</ele>
        <time>2022-07-14T07:28:31Z</time>
      </trkpt>
      <trkpt lat="44.8115" lon="5.74864">
        <ele>794.5</ele>
        <time>2022-07-14T07:28:32Z</time>
      </trkpt>
      <trkpt lat="44.81145" lon="5.74867">
        <ele>794.8</ele>
        <time>2022-07-14T07:28:34Z</time>
      </trkpt>
      <trkpt lat="44.81141" lon="5.74868">
        <ele>795</ele>
        <time>2022-07-14T07:28:35Z</time>
      </trkpt>
      <trkpt lat="44.81134" lon="5.7487">
        <ele>795.4</ele>
        <time>2022-07-14T07:28:37Z</time>
      </trkpt>
      <trkpt lat="44.81128" lon="5.74873">
        <ele>795.7</ele>
        <time>2022-07-14T07:28:39Z</time>
      </trkpt>
      <trkpt lat="44.81125" lon="5.74875">
        <ele>795.9</ele>
        <time>2022-07-14T07:28:40Z</time>
      </trkpt>
      <trkpt lat="44.81122" lon="5.74877">
        <ele>796.1</ele>
        <time>2022-07-14T07:28:41Z</time>
      </trkpt>
      <trkpt lat="44.81116" lon="5.74881">
        <ele>796.5</ele>
        <time>2022-07-14T07:28:43Z</time>
      </trkpt>
      <trkpt lat="44.81112" lon="5.74882">
        <ele>796.7</ele>
        <time>2022-07-14T07:28:44Z</time>
      </trkpt>
      <trkpt lat="44.81108" lon="5.74886">
        <ele>796.9</ele>
        <time>2022-07-14T07:28:45Z</time>
      </trkpt>
      <trkpt lat="44.81104" lon="5.74891">
        <ele>797.2</ele>
        <time>2022-07-14T07:28:47Z</time>
      </trkpt>
      <trkpt lat="44.81101" lon="5.74893">
        <ele>797.4</ele>
        <time>2022-07-14T07:28:48Z</time>
      </trkpt>
      <trkpt lat="44.81096" lon="5.749">
        <ele>797.7</ele>
        <time>2022-07-14T07:28:50Z</time>
      </trkpt>
      <trkpt lat="44.8109" lon="5.74904">
        <ele>798</ele>
        <time>2022-07-14T07:28:52Z</time>
      </trkpt>
      <trkpt lat="44.8108" lon="5.74909">
        <ele>798.5</ele>
        <time>2022-07-14T07:28:55Z</time>
      </trkpt>
      <trkpt lat="44.81076" lon="5.74911">
        <ele>798.7</ele>
        <time>2022-07-14T07:28:56Z</time>
      </trkpt>
      <trkpt lat="44.81074" lon="5.74911">
        <ele>798.7</ele>
        <time>2022-07-14T07:28:57Z</time>
      </trkpt>
      <trkpt lat="44.81069" lon="5.74913">
        <ele>799</ele>
        <time>2022-07-14T07:28:58Z</time>
      </trkpt>
      <trkpt lat="44.81062" lon="5.74912">
        <ele>799.3</ele>
        <time>2022-07-14T07:29:00Z</time>
      </trkpt>
      <trkpt lat="44.81059" lon="5.7491">
        <ele>799.5</ele>
        <time>2022-07-14T07:29:01Z</time>
      </trkpt>
      <trkpt lat="44.8105" lon="5.74905">
        <ele>799.9</ele>
        <time>2022-07-14T07:29:04Z</time>
      </trkpt>
      <trkpt lat="44.81044" lon="5.74901">
        <ele>800.2</ele>
        <time>2022-07-14T07:29:06Z</time>
      </trkpt>
      <trkpt lat="44.81039" lon="5.74896">
        <ele>800.5</ele>
        <time>2022-07-14T07:29:07Z</time>
      </trkpt>
      <trkpt lat="44.81036" lon="5.74894">
        <ele>800.7</ele>
        <time>2022-07-14T07:29:08Z</time>
      </trkpt>
      <trkpt lat="44.81034" lon="5.74891">
        <ele>800.8</ele>
        <time>2022-07-14T07:29:09Z</time>
      </trkpt>
      <trkpt lat="44.81026" lon="5.74887">
        <ele>801.2</ele>
        <time>2022-07-14T07:29:11Z</time>
      </trkpt>
      <trkpt lat="44.8102" lon="5.74882">
        <ele>801.5</ele>
        <time>2022-07-14T07:29:13Z</time>
      </trkpt>
      <trkpt lat="44.81016" lon="5.74878">
        <ele>801.7</ele>
        <time>2022-07-14T07:29:15Z</time>
      </trkpt>
      <trkpt lat="44.81008" lon="5.74874">
        <ele>802.1</ele>
        <time>2022-07-14T07:29:17Z</time>
      </trkpt>
      <trkpt lat="44.81002" lon="5.7487">
        <ele>802.4</ele>
        <time>2022-07-14T07:29:19Z</time>
      </trkpt>
      <trkpt lat="44.80999" lon="5.74868">
        <ele>802.6</ele>
        <time>2022-07-14T07:29:20Z</time>
      </trkpt>
      <trkpt lat="44.80994" lon="5.74863">
        <ele>802.9</ele>
        <time>2022-07-14T07:29:22Z</time>
      </trkpt>
      <trkpt lat="44.80992" lon="5.74861">
        <ele>803</ele>
        <time>2022-07-14T07:29:23Z</time>
      </trkpt>
      <trkpt lat="44.80985" lon="5.74857">
        <ele>803.4</ele>
        <time>2022-07-14T07:29:25Z</time>
      </trkpt>
      <trkpt lat="44.80982" lon="5.74856">
        <ele>803.5</ele>
        <time>2022-07-14T07:29:26Z</time>
      </trkpt>
      <trkpt lat="44.80974" lon="5.74851">
        <ele>804</ele>
        <time>2022-07-14T07:29:28Z</time>
      </trkpt>
      <trkpt lat="44.80971" lon="5.74848">
        <ele>804.2</ele>
        <time>2022-07-14T07:29:29Z</time>
      </trkpt>
      <trkpt lat="44.80966" lon="5.74844">
        <ele>804.5</ele>
        <time>2022-07-14T07:29:31Z</time>
      </trkpt>
      <trkpt lat="44.8096" lon="5.74839">
        <ele>804.8</ele>
        <time>2022-07-14T07:29:33Z</time>
      </trkpt>
      <trkpt lat="44.80953" lon="5.74835">
        <ele>805.3</ele>
        <time>2022-07-14T07:29:36Z</time>
      </trkpt>
      <trkpt lat="44.80949" lon="5.74832">
        <ele>805.5</ele>
        <time>2022-07-14T07:29:37Z</time>
      </trkpt>
      <trkpt lat="44.80942" lon="5.74827">
        <ele>805.9</ele>
        <time>2022-07-14T07:29:39Z</time>
      </trkpt>
      <trkpt lat="44.80938" lon="5.74825">
        <ele>806.2</ele>
        <time>2022-07-14T07:29:40Z</time>
      </trkpt>
      <trkpt lat="44.80932" lon="5.74821">
        <ele>806.6</ele>
        <time>2022-07-14T07:29:42Z</time>
      </trkpt>
      <trkpt lat="44.80926" lon="5.74819">
        <ele>806.9</ele>
        <time>2022-07-14T07:29:44Z</time>
      </trkpt>
      <trkpt lat="44.80922" lon="5.74817">
        <ele>807.1</ele>
        <time>2022-07-14T07:29:45Z</time>
      </trkpt>
      <trkpt lat="44.80919" lon="5.74816">
        <ele>807.3</ele>
        <time>2022-07-14T07:29:46Z</time>
      </trkpt>
      <trkpt lat="44.80914" lon="5.74812">
        <ele>807.6</ele>
        <time>2022-07-14T07:29:48Z</time>
      </trkpt>
      <trkpt lat="44.80904" lon="5.74811">
        <ele>808.1</ele>
        <time>2022-07-14T07:29:51Z</time>
      </trkpt>
      <trkpt lat="44.80901" lon="5.74811">
        <ele>808.3</ele>
        <time>2022-07-14T07:29:52Z</time>
      </trkpt>
      <trkpt lat="44.80892" lon="5.7481">
        <ele>808.8</ele>
        <time>2022-07-14T07:29:55Z</time>
      </trkpt>
      <trkpt lat="44.80888" lon="5.74809">
        <ele>809</ele>
        <time>2022-07-14T07:29:56Z</time>
      </trkpt>
      <trkpt lat="44.8088" lon="5.7481">
        <ele>809.4</ele>
        <time>2022-07-14T07:29:58Z</time>
      </trkpt>
      <trkpt lat="44.80876" lon="5.74811">
        <ele>809.5</ele>
        <time>2022-07-14T07:29:59Z</time>
      </trkpt>
      <trkpt lat="44.80872" lon="5.74811">
        <ele>809.7</ele>
        <time>2022-07-14T07:30:00Z</time>
      </trkpt>
      <trkpt lat="44.80866" lon="5.74812">
        <ele>810</ele>
        <time>2022-07-14T07:30:02Z</time>
      </trkpt>
      <trkpt lat="44.80862" lon="5.74813">
        <ele>810.2</ele>
        <time>2022-07-14T07:30:03Z</time>
      </trkpt>
      <trkpt lat="44.80856" lon="5.74813">
        <ele>810.4</ele>
        <time>2022-07-14T07:30:05Z</time>
      </trkpt>
      <trkpt lat="44.80853" lon="5.74814">
        <ele>810.6</ele>
        <time>2022-07-14T07:30:06Z</time>
      </trkpt>
      <trkpt lat="44.80846" lon="5.74815">
        <ele>810.9</ele>
        <time>2022-07-14T07:30:08Z</time>
      </trkpt>
      <trkpt lat="44.80842" lon="5.74816">
        <ele>811.1</ele>
        <time>2022-07-14T07:30:09Z</time>
      </trkpt>
      <trkpt lat="44.80836" lon="5.74817">
        <ele>811.3</ele>
        <time>2022-07-14T07:30:11Z</time>
      </trkpt>
      <trkpt lat="44.80833" lon="5.74818">
        <ele>811.5</ele>
        <time>2022-07-14T07:30:12Z</time>
      </trkpt>
      <trkpt lat="44.8083" lon="5.74819">
        <ele>811.7</ele>
        <time>2022-07-14T07:30:13Z</time>
      </trkpt>
      <trkpt lat="44.80825" lon="5.74819">
        <ele>811.9</ele>
        <time>2022-07-14T07:30:14Z</time>
      </trkpt>
      <trkpt lat="44.8082" lon="5.7482">
        <ele>812.1</ele>
        <time>2022-07-14T07:30:16Z</time>
      </trkpt>
      <trkpt lat="44.80812" lon="5.74821">
        <ele>812.5</ele>
        <time>2022-07-14T07:30:18Z</time>
      </trkpt>
      <trkpt lat="44.80808" lon="5.74822">
        <ele>812.7</ele>
        <time>2022-07-14T07:30:19Z</time>
      </trkpt>
      <trkpt lat="44.80805" lon="5.74825">
        <ele>812.9</ele>
        <time>2022-07-14T07:30:20Z</time>
      </trkpt>
      <trkpt lat="44.808" lon="5.74825">
        <ele>813.1</ele>
        <time>2022-07-14T07:30:22Z</time>
      </trkpt>
      <trkpt lat="44.80794" lon="5.74827">
        <ele>813.4</ele>
        <time>2022-07-14T07:30:24Z</time>
      </trkpt>
      <trkpt lat="44.8079" lon="5.7483">
        <ele>813.6</ele>
        <time>2022-07-14T07:30:25Z</time>
      </trkpt>
      <trkpt lat="44.80785" lon="5.74831">
        <ele>813.8</ele>
        <time>2022-07-14T07:30:27Z</time>
      </trkpt>
      <trkpt lat="44.8078" lon="5.74833">
        <ele>814</ele>
        <time>2022-07-14T07:30:28Z</time>
      </trkpt>
      <trkpt lat="44.80775" lon="5.74838">
        <ele>814.3</ele>
        <time>2022-07-14T07:30:30Z</time>
      </trkpt>
      <trkpt lat="44.80771" lon="5.7484">
        <ele>814.5</ele>
        <time>2022-07-14T07:30:31Z</time>
      </trkpt>
      <trkpt lat="44.80768" lon="5.7484">
        <ele>814.6</ele>
        <time>2022-07-14T07:30:32Z</time>
      </trkpt>
      <trkpt lat="44.8076" lon="5.74844">
        <ele>815.1</ele>
        <time>2022-07-14T07:30:35Z</time>
      </trkpt>
      <trkpt lat="44.8075" lon="5.7485">
        <ele>815.5</ele>
        <time>2022-07-14T07:30:38Z</time>
      </trkpt>
      <trkpt lat="44.80745" lon="5.74855">
        <ele>815.8</ele>
        <time>2022-07-14T07:30:40Z</time>
      </trkpt>
      <trkpt lat="44.80737" lon="5.74861">
        <ele>816.2</ele>
        <time>2022-07-14T07:30:43Z</time>
      </trkpt>
      <trkpt lat="44.80727" lon="5.74868">
        <ele>816.7</ele>
        <time>2022-07-14T07:30:46Z</time>
      </trkpt>
      <trkpt lat="44.80725" lon="5.74871">
        <ele>816.9</ele>
        <time>2022-07-14T07:30:47Z</time>
      </trkpt>
      <trkpt lat="44.8072" lon="5.74874">
        <ele>817.1</ele>
        <time>2022-07-14T07:30:48Z</time>
      </trkpt>
      <trkpt lat="44.80718" lon="5.74874">
        <ele>817.2</ele>
        <time>2022-07-14T07:30:49Z</time>
      </trkpt>
      <trkpt lat="44.8071" lon="5.74881">
        <ele>817.6</ele>
        <time>2022-07-14T07:30:52Z</time>
      </trkpt>
      <trkpt lat="44.80707" lon="5.74882">
        <ele>817.7</ele>
        <time>2022-07-14T07:30:53Z</time>
      </trkpt>
      <trkpt lat="44.80704" lon="5.74885">
        <ele>817.9</ele>
        <time>2022-07-14T07:30:54Z</time>
      </trkpt>
      <trkpt lat="44.807" lon="5.74887">
        <ele>818</ele>
        <time>2022-07-14T07:30:55Z</time>
      </trkpt>
      <trkpt lat="44.80697" lon="5.7489">
        <ele>818.2</ele>
        <time>2022-07-14T07:30:56Z</time>
      </trkpt>
      <trkpt lat="44.8069" lon="5.74893">
        <ele>818.4</ele>
        <time>2022-07-14T07:30:57Z</time>
      </trkpt>
      <trkpt lat="44.80685" lon="5.74895">
        <ele>818.6</ele>
        <time>2022-07-14T07:30:59Z</time>
      </trkpt>
      <trkpt lat="44.80682" lon="5.74903">
        <ele>818.7</ele>
        <time>2022-07-14T07:31:00Z</time>
      </trkpt>
      <trkpt lat="44.80677" lon="5.74909">
        <ele>818.9</ele>
        <time>2022-07-14T07:31:02Z</time>
      </trkpt>
      <trkpt lat="44.80675" lon="5.74914">
        <ele>819</ele>
        <time>2022-07-14T07:31:03Z</time>
      </trkpt>
      <trkpt lat="44.80671" lon="5.74917">
        <ele>819.1</ele>
        <time>2022-07-14T07:31:05Z</time>
      </trkpt>
      <trkpt lat="44.80668" lon="5.7492">
        <ele>819.2</ele>
        <time>2022-07-14T07:31:06Z</time>
      </trkpt>
      <trkpt lat="44.80665" lon="5.74921">
        <ele>819.3</ele>
        <time>2022-07-14T07:31:07Z</time>
      </trkpt>
      <trkpt lat="44.80659" lon="5.74927">
        <ele>819.5</ele>
        <time>2022-07-14T07:31:09Z</time>
      </trkpt>
      <trkpt lat="44.80655" lon="5.74931">
        <ele>819.5</ele>
        <time>2022-07-14T07:31:10Z</time>
      </trkpt>
      <trkpt lat="44.8065" lon="5.74937">
        <ele>819.6</ele>
        <time>2022-07-14T07:31:12Z</time>
      </trkpt>
      <trkpt lat="44.80647" lon="5.74943">
        <ele>819.7</ele>
        <time>2022-07-14T07:31:13Z</time>
      </trkpt>
      <trkpt lat="44.80644" lon="5.74949">
        <ele>819.7</ele>
        <time>2022-07-14T07:31:15Z</time>
      </trkpt>
      <trkpt lat="44.80639" lon="5.74954">
        <ele>819.7</ele>
        <time>2022-07-14T07:31:16Z</time>
      </trkpt>
      <trkpt lat="44.80637" lon="5.74956">
        <ele>819.7</ele>
        <time>2022-07-14T07:31:17Z</time>
      </trkpt>
      <trkpt lat="44.80633" lon="5.74959">
        <ele>819.7</ele>
        <time>2022-07-14T07:31:18Z</time>
      </trkpt>
      <trkpt lat="44.80627" lon="5.74966">
        <ele>819.7</ele>
        <time>2022-07-14T07:31:20Z</time>
      </trkpt>
      <trkpt lat="44.80624" lon="5.74968">
        <ele>819.7</ele>
        <time>2022-07-14T07:31:21Z</time>
      </trkpt>
      <trkpt lat="44.80622" lon="5.74972">
        <ele>819.7</ele>
        <time>2022-07-14T07:31:22Z</time>
      </trkpt>
      <trkpt lat="44.80617" lon="5.74976">
        <ele>819.7</ele>
        <time>2022-07-14T07:31:23Z</time>
      </trkpt>
      <trkpt lat="44.80605" lon="5.74984">
        <ele>819.6</ele>
        <time>2022-07-14T07:31:26Z</time>
      </trkpt>
      <trkpt lat="44.80601" lon="5.74986">
        <ele>819.6</ele>
        <time>2022-07-14T07:31:27Z</time>
      </trkpt>
      <trkpt lat="44.80595" lon="5.74988">
        <ele>819.6</ele>
        <time>2022-07-14T07:31:28Z</time>
      </trkpt>
      <trkpt lat="44.8059" lon="5.74989">
        <ele>819.7</ele>
        <time>2022-07-14T07:31:29Z</time>
      </trkpt>
      <trkpt lat="44.80586" lon="5.74989">
        <ele>819.7</ele>
        <time>2022-07-14T07:31:30Z</time>
      </trkpt>
      <trkpt lat="44.80581" lon="5.74987">
        <ele>819.7</ele>
        <time>2022-07-14T07:31:31Z</time>
      </trkpt>
      <trkpt lat="44.80577" lon="5.74985">
        <ele>819.8</ele>
        <time>2022-07-14T07:31:32Z</time>
      </trkpt>
      <trkpt lat="44.80564" lon="5.74979">
        <ele>820</ele>
        <time>2022-07-14T07:31:33Z</time>
      </trkpt>
      <trkpt lat="44.8056" lon="5.74984">
        <ele>820</ele>
        <time>2022-07-14T07:31:35Z</time>
      </trkpt>
      <trkpt lat="44.8056" lon="5.74978">
        <ele>820</ele>
        <time>2022-07-14T07:31:36Z</time>
      </trkpt>
      <trkpt lat="44.80555" lon="5.74975">
        <ele>820.1</ele>
        <time>2022-07-14T07:31:37Z</time>
      </trkpt>
      <trkpt lat="44.80547" lon="5.74973">
        <ele>820</ele>
        <time>2022-07-14T07:31:39Z</time>
      </trkpt>
      <trkpt lat="44.80542" lon="5.74972">
        <ele>820</ele>
        <time>2022-07-14T07:31:40Z</time>
      </trkpt>
      <trkpt lat="44.80538" lon="5.74971">
        <ele>820</ele>
        <time>2022-07-14T07:31:41Z</time>
      </trkpt>
      <trkpt lat="44.80526" lon="5.74968">
        <ele>819.7</ele>
        <time>2022-07-14T07:31:44Z</time>
      </trkpt>
      <trkpt lat="44.8052" lon="5.74968">
        <ele>819.6</ele>
        <time>2022-07-14T07:31:45Z</time>
      </trkpt>
      <trkpt lat="44.80515" lon="5.74969">
        <ele>819.5</ele>
        <time>2022-07-14T07:31:46Z</time>
      </trkpt>
      <trkpt lat="44.80509" lon="5.7497">
        <ele>819.3</ele>
        <time>2022-07-14T07:31:47Z</time>
      </trkpt>
      <trkpt lat="44.80503" lon="5.74972">
        <ele>819.1</ele>
        <time>2022-07-14T07:31:48Z</time>
      </trkpt>
      <trkpt lat="44.80498" lon="5.74976">
        <ele>818.9</ele>
        <time>2022-07-14T07:31:49Z</time>
      </trkpt>
      <trkpt lat="44.80492" lon="5.74979">
        <ele>818.6</ele>
        <time>2022-07-14T07:31:50Z</time>
      </trkpt>
      <trkpt lat="44.80487" lon="5.74982">
        <ele>818.4</ele>
        <time>2022-07-14T07:31:51Z</time>
      </trkpt>
      <trkpt lat="44.80482" lon="5.74986">
        <ele>818.1</ele>
        <time>2022-07-14T07:31:52Z</time>
      </trkpt>
      <trkpt lat="44.80476" lon="5.7499">
        <ele>817.8</ele>
        <time>2022-07-14T07:31:53Z</time>
      </trkpt>
      <trkpt lat="44.80471" lon="5.74994">
        <ele>817.5</ele>
        <time>2022-07-14T07:31:54Z</time>
      </trkpt>
      <trkpt lat="44.80465" lon="5.74999">
        <ele>817.2</ele>
        <time>2022-07-14T07:31:55Z</time>
      </trkpt>
      <trkpt lat="44.80459" lon="5.75005">
        <ele>816.9</ele>
        <time>2022-07-14T07:31:56Z</time>
      </trkpt>
      <trkpt lat="44.80454" lon="5.75011">
        <ele>816.6</ele>
        <time>2022-07-14T07:31:57Z</time>
      </trkpt>
      <trkpt lat="44.80448" lon="5.75017">
        <ele>816.2</ele>
        <time>2022-07-14T07:31:58Z</time>
      </trkpt>
      <trkpt lat="44.80443" lon="5.75025">
        <ele>815.9</ele>
        <time>2022-07-14T07:31:59Z</time>
      </trkpt>
      <trkpt lat="44.80438" lon="5.75032">
        <ele>815.5</ele>
        <time>2022-07-14T07:32:00Z</time>
      </trkpt>
      <trkpt lat="44.80433" lon="5.75041">
        <ele>815.1</ele>
        <time>2022-07-14T07:32:01Z</time>
      </trkpt>
      <trkpt lat="44.80429" lon="5.7505">
        <ele>814.7</ele>
        <time>2022-07-14T07:32:02Z</time>
      </trkpt>
      <trkpt lat="44.80425" lon="5.75059">
        <ele>814.2</ele>
        <time>2022-07-14T07:32:03Z</time>
      </trkpt>
      <trkpt lat="44.80421" lon="5.7507">
        <ele>813.7</ele>
        <time>2022-07-14T07:32:04Z</time>
      </trkpt>
      <trkpt lat="44.80416" lon="5.75081">
        <ele>813.2</ele>
        <time>2022-07-14T07:32:05Z</time>
      </trkpt>
      <trkpt lat="44.80411" lon="5.75091">
        <ele>812.7</ele>
        <time>2022-07-14T07:32:06Z</time>
      </trkpt>
      <trkpt lat="44.80407" lon="5.75102">
        <ele>812.2</ele>
        <time>2022-07-14T07:32:07Z</time>
      </trkpt>
      <trkpt lat="44.80401" lon="5.75111">
        <ele>811.8</ele>
        <time>2022-07-14T07:32:08Z</time>
      </trkpt>
      <trkpt lat="44.80395" lon="5.7512">
        <ele>811.3</ele>
        <time>2022-07-14T07:32:09Z</time>
      </trkpt>
      <trkpt lat="44.80388" lon="5.75128">
        <ele>810.8</ele>
        <time>2022-07-14T07:32:10Z</time>
      </trkpt>
      <trkpt lat="44.80381" lon="5.75136">
        <ele>810.4</ele>
        <time>2022-07-14T07:32:11Z</time>
      </trkpt>
      <trkpt lat="44.80374" lon="5.75143">
        <ele>809.9</ele>
        <time>2022-07-14T07:32:12Z</time>
      </trkpt>
      <trkpt lat="44.80367" lon="5.75151">
        <ele>809.4</ele>
        <time>2022-07-14T07:32:13Z</time>
      </trkpt>
      <trkpt lat="44.80361" lon="5.75161">
        <ele>808.9</ele>
        <time>2022-07-14T07:32:14Z</time>
      </trkpt>
      <trkpt lat="44.80354" lon="5.75171">
        <ele>808.3</ele>
        <time>2022-07-14T07:32:15Z</time>
      </trkpt>
      <trkpt lat="44.80349" lon="5.75182">
        <ele>807.7</ele>
        <time>2022-07-14T07:32:16Z</time>
      </trkpt>
      <trkpt lat="44.80344" lon="5.75193">
        <ele>807</ele>
        <time>2022-07-14T07:32:17Z</time>
      </trkpt>
      <trkpt lat="44.80338" lon="5.75206">
        <ele>806.2</ele>
        <time>2022-07-14T07:32:18Z</time>
      </trkpt>
      <trkpt lat="44.80334" lon="5.75219">
        <ele>805.3</ele>
        <time>2022-07-14T07:32:19Z</time>
      </trkpt>
      <trkpt lat="44.80329" lon="5.75233">
        <ele>804.5</ele>
        <time>2022-07-14T07:32:20Z</time>
      </trkpt>
      <trkpt lat="44.80323" lon="5.75246">
        <ele>803.6</ele>
        <time>2022-07-14T07:32:21Z</time>
      </trkpt>
      <trkpt lat="44.80318" lon="5.75259">
        <ele>802.7</ele>
        <time>2022-07-14T07:32:22Z</time>
      </trkpt>
      <trkpt lat="44.80312" lon="5.75272">
        <ele>801.8</ele>
        <time>2022-07-14T07:32:23Z</time>
      </trkpt>
      <trkpt lat="44.80307" lon="5.75285">
        <ele>801</ele>
        <time>2022-07-14T07:32:24Z</time>
      </trkpt>
      <trkpt lat="44.80301" lon="5.75297">
        <ele>800.2</ele>
        <time>2022-07-14T07:32:25Z</time>
      </trkpt>
      <trkpt lat="44.80296" lon="5.7531">
        <ele>799.4</ele>
        <time>2022-07-14T07:32:26Z</time>
      </trkpt>
      <trkpt lat="44.8029" lon="5.75322">
        <ele>798.5</ele>
        <time>2022-07-14T07:32:27Z</time>
      </trkpt>
      <trkpt lat="44.80283" lon="5.75336">
        <ele>797.6</ele>
        <time>2022-07-14T07:32:28Z</time>
      </trkpt>
      <trkpt lat="44.80276" lon="5.75349">
        <ele>796.6</ele>
        <time>2022-07-14T07:32:29Z</time>
      </trkpt>
      <trkpt lat="44.80269" lon="5.75362">
        <ele>796</ele>
        <time>2022-07-14T07:32:30Z</time>
      </trkpt>
      <trkpt lat="44.80261" lon="5.75374">
        <ele>795.7</ele>
        <time>2022-07-14T07:32:31Z</time>
      </trkpt>
      <trkpt lat="44.80251" lon="5.75385">
        <ele>795.2</ele>
        <time>2022-07-14T07:32:32Z</time>
      </trkpt>
      <trkpt lat="44.80242" lon="5.75394">
        <ele>794.6</ele>
        <time>2022-07-14T07:32:33Z</time>
      </trkpt>
      <trkpt lat="44.80233" lon="5.75404">
        <ele>794</ele>
        <time>2022-07-14T07:32:34Z</time>
      </trkpt>
      <trkpt lat="44.80223" lon="5.75414">
        <ele>793.4</ele>
        <time>2022-07-14T07:32:35Z</time>
      </trkpt>
      <trkpt lat="44.80213" lon="5.75424">
        <ele>792.9</ele>
        <time>2022-07-14T07:32:36Z</time>
      </trkpt>
      <trkpt lat="44.80202" lon="5.75433">
        <ele>792.5</ele>
        <time>2022-07-14T07:32:37Z</time>
      </trkpt>
      <trkpt lat="44.80191" lon="5.75441">
        <ele>792.2</ele>
        <time>2022-07-14T07:32:38Z</time>
      </trkpt>
      <trkpt lat="44.8018" lon="5.75447">
        <ele>791.9</ele>
        <time>2022-07-14T07:32:39Z</time>
      </trkpt>
      <trkpt lat="44.80169" lon="5.75451">
        <ele>791.9</ele>
        <time>2022-07-14T07:32:40Z</time>
      </trkpt>
      <trkpt lat="44.80158" lon="5.75454">
        <ele>792.3</ele>
        <time>2022-07-14T07:32:41Z</time>
      </trkpt>
      <trkpt lat="44.80148" lon="5.75457">
        <ele>792.7</ele>
        <time>2022-07-14T07:32:42Z</time>
      </trkpt>
      <trkpt lat="44.80138" lon="5.75458">
        <ele>793.2</ele>
        <time>2022-07-14T07:32:43Z</time>
      </trkpt>
      <trkpt lat="44.80129" lon="5.75459">
        <ele>793.7</ele>
        <time>2022-07-14T07:32:44Z</time>
      </trkpt>
      <trkpt lat="44.80121" lon="5.7546">
        <ele>794.1</ele>
        <time>2022-07-14T07:32:45Z</time>
      </trkpt>
      <trkpt lat="44.80113" lon="5.75461">
        <ele>794.6</ele>
        <time>2022-07-14T07:32:46Z</time>
      </trkpt>
      <trkpt lat="44.80106" lon="5.75461">
        <ele>795.1</ele>
        <time>2022-07-14T07:32:47Z</time>
      </trkpt>
      <trkpt lat="44.801" lon="5.75461">
        <ele>795.7</ele>
        <time>2022-07-14T07:32:48Z</time>
      </trkpt>
      <trkpt lat="44.80093" lon="5.7546">
        <ele>796.2</ele>
        <time>2022-07-14T07:32:49Z</time>
      </trkpt>
      <trkpt lat="44.80086" lon="5.75459">
        <ele>796.8</ele>
        <time>2022-07-14T07:32:50Z</time>
      </trkpt>
      <trkpt lat="44.8008" lon="5.75458">
        <ele>797.4</ele>
        <time>2022-07-14T07:32:51Z</time>
      </trkpt>
      <trkpt lat="44.80073" lon="5.75457">
        <ele>798</ele>
        <time>2022-07-14T07:32:52Z</time>
      </trkpt>
      <trkpt lat="44.80067" lon="5.75455">
        <ele>798.6</ele>
        <time>2022-07-14T07:32:53Z</time>
      </trkpt>
      <trkpt lat="44.80062" lon="5.75454">
        <ele>799.1</ele>
        <time>2022-07-14T07:32:54Z</time>
      </trkpt>
      <trkpt lat="44.80056" lon="5.75454">
        <ele>799.5</ele>
        <time>2022-07-14T07:32:55Z</time>
      </trkpt>
      <trkpt lat="44.80052" lon="5.75453">
        <ele>799.9</ele>
        <time>2022-07-14T07:32:56Z</time>
      </trkpt>
      <trkpt lat="44.80047" lon="5.75453">
        <ele>800.3</ele>
        <time>2022-07-14T07:32:57Z</time>
      </trkpt>
      <trkpt lat="44.80042" lon="5.75453">
        <ele>800.7</ele>
        <time>2022-07-14T07:32:58Z</time>
      </trkpt>
      <trkpt lat="44.80037" lon="5.75453">
        <ele>801.1</ele>
        <time>2022-07-14T07:32:59Z</time>
      </trkpt>
      <trkpt lat="44.80033" lon="5.75452">
        <ele>801.4</ele>
        <time>2022-07-14T07:33:00Z</time>
      </trkpt>
      <trkpt lat="44.80028" lon="5.75453">
        <ele>801.8</ele>
        <time>2022-07-14T07:33:01Z</time>
      </trkpt>
      <trkpt lat="44.80026" lon="5.75453">
        <ele>801.9</ele>
        <time>2022-07-14T07:33:02Z</time>
      </trkpt>
      <trkpt lat="44.80022" lon="5.75454">
        <ele>802.2</ele>
        <time>2022-07-14T07:33:03Z</time>
      </trkpt>
      <trkpt lat="44.80018" lon="5.75455">
        <ele>802.5</ele>
        <time>2022-07-14T07:33:04Z</time>
      </trkpt>
      <trkpt lat="44.80014" lon="5.75456">
        <ele>802.9</ele>
        <time>2022-07-14T07:33:05Z</time>
      </trkpt>
      <trkpt lat="44.80008" lon="5.75458">
        <ele>803.3</ele>
        <time>2022-07-14T07:33:06Z</time>
      </trkpt>
      <trkpt lat="44.80003" lon="5.75459">
        <ele>803.7</ele>
        <time>2022-07-14T07:33:07Z</time>
      </trkpt>
      <trkpt lat="44.79998" lon="5.7546">
        <ele>804</ele>
        <time>2022-07-14T07:33:08Z</time>
      </trkpt>
      <trkpt lat="44.79993" lon="5.75461">
        <ele>804.3</ele>
        <time>2022-07-14T07:33:09Z</time>
      </trkpt>
      <trkpt lat="44.79988" lon="5.75462">
        <ele>804.6</ele>
        <time>2022-07-14T07:33:10Z</time>
      </trkpt>
      <trkpt lat="44.79983" lon="5.75464">
        <ele>804.9</ele>
        <time>2022-07-14T07:33:11Z</time>
      </trkpt>
      <trkpt lat="44.79977" lon="5.75466">
        <ele>805.2</ele>
        <time>2022-07-14T07:33:12Z</time>
      </trkpt>
      <trkpt lat="44.79973" lon="5.75466">
        <ele>805.5</ele>
        <time>2022-07-14T07:33:13Z</time>
      </trkpt>
      <trkpt lat="44.79968" lon="5.75467">
        <ele>805.7</ele>
        <time>2022-07-14T07:33:14Z</time>
      </trkpt>
      <trkpt lat="44.79964" lon="5.75468">
        <ele>805.9</ele>
        <time>2022-07-14T07:33:15Z</time>
      </trkpt>
      <trkpt lat="44.79959" lon="5.7547">
        <ele>806.2</ele>
        <time>2022-07-14T07:33:16Z</time>
      </trkpt>
      <trkpt lat="44.79954" lon="5.7547">
        <ele>806.4</ele>
        <time>2022-07-14T07:33:17Z</time>
      </trkpt>
      <trkpt lat="44.7995" lon="5.75471">
        <ele>806.7</ele>
        <time>2022-07-14T07:33:18Z</time>
      </trkpt>
      <trkpt lat="44.79947" lon="5.75472">
        <ele>806.8</ele>
        <time>2022-07-14T07:33:19Z</time>
      </trkpt>
      <trkpt lat="44.79942" lon="5.75472">
        <ele>807.1</ele>
        <time>2022-07-14T07:33:20Z</time>
      </trkpt>
      <trkpt lat="44.79938" lon="5.75472">
        <ele>807.3</ele>
        <time>2022-07-14T07:33:21Z</time>
      </trkpt>
      <trkpt lat="44.79934" lon="5.75473">
        <ele>807.5</ele>
        <time>2022-07-14T07:33:22Z</time>
      </trkpt>
      <trkpt lat="44.79929" lon="5.7547">
        <ele>807.7</ele>
        <time>2022-07-14T07:33:23Z</time>
      </trkpt>
      <trkpt lat="44.79931" lon="5.75467">
        <ele>807.9</ele>
        <time>2022-07-14T07:33:24Z</time>
      </trkpt>
      <trkpt lat="44.7992" lon="5.75472">
        <ele>808.4</ele>
        <time>2022-07-14T07:33:25Z</time>
      </trkpt>
      <trkpt lat="44.79912" lon="5.75474">
        <ele>808.7</ele>
        <time>2022-07-14T07:33:26Z</time>
      </trkpt>
      <trkpt lat="44.79905" lon="5.75474">
        <ele>809</ele>
        <time>2022-07-14T07:33:28Z</time>
      </trkpt>
      <trkpt lat="44.79894" lon="5.75477">
        <ele>809.4</ele>
        <time>2022-07-14T07:33:30Z</time>
      </trkpt>
      <trkpt lat="44.79889" lon="5.75479">
        <ele>809.6</ele>
        <time>2022-07-14T07:33:31Z</time>
      </trkpt>
      <trkpt lat="44.79885" lon="5.7548">
        <ele>809.7</ele>
        <time>2022-07-14T07:33:32Z</time>
      </trkpt>
      <trkpt lat="44.79877" lon="5.7548">
        <ele>810</ele>
        <time>2022-07-14T07:33:34Z</time>
      </trkpt>
      <trkpt lat="44.79869" lon="5.75481">
        <ele>810.3</ele>
        <time>2022-07-14T07:33:36Z</time>
      </trkpt>
      <trkpt lat="44.79855" lon="5.75482">
        <ele>810.7</ele>
        <time>2022-07-14T07:33:38Z</time>
      </trkpt>
      <trkpt lat="44.79854" lon="5.75474">
        <ele>810.8</ele>
        <time>2022-07-14T07:33:40Z</time>
      </trkpt>
      <trkpt lat="44.79847" lon="5.75482">
        <ele>811.1</ele>
        <time>2022-07-14T07:33:41Z</time>
      </trkpt>
      <trkpt lat="44.79842" lon="5.75484">
        <ele>811.3</ele>
        <time>2022-07-14T07:33:42Z</time>
      </trkpt>
      <trkpt lat="44.79837" lon="5.75486">
        <ele>811.4</ele>
        <time>2022-07-14T07:33:43Z</time>
      </trkpt>
      <trkpt lat="44.79828" lon="5.75486">
        <ele>811.7</ele>
        <time>2022-07-14T07:33:45Z</time>
      </trkpt>
      <trkpt lat="44.79823" lon="5.75486">
        <ele>811.9</ele>
        <time>2022-07-14T07:33:46Z</time>
      </trkpt>
      <trkpt lat="44.79815" lon="5.75488">
        <ele>812.1</ele>
        <time>2022-07-14T07:33:48Z</time>
      </trkpt>
      <trkpt lat="44.79808" lon="5.75489">
        <ele>812.2</ele>
        <time>2022-07-14T07:33:50Z</time>
      </trkpt>
      <trkpt lat="44.79803" lon="5.7549">
        <ele>812.3</ele>
        <time>2022-07-14T07:33:51Z</time>
      </trkpt>
      <trkpt lat="44.79798" lon="5.7549">
        <ele>812.4</ele>
        <time>2022-07-14T07:33:52Z</time>
      </trkpt>
      <trkpt lat="44.79786" lon="5.75494">
        <ele>812.6</ele>
        <time>2022-07-14T07:33:55Z</time>
      </trkpt>
      <trkpt lat="44.79782" lon="5.75496">
        <ele>812.6</ele>
        <time>2022-07-14T07:33:56Z</time>
      </trkpt>
      <trkpt lat="44.79778" lon="5.75498">
        <ele>812.6</ele>
        <time>2022-07-14T07:33:57Z</time>
      </trkpt>
      <trkpt lat="44.79773" lon="5.755">
        <ele>812.7</ele>
        <time>2022-07-14T07:33:58Z</time>
      </trkpt>
      <trkpt lat="44.79769" lon="5.75502">
        <ele>812.7</ele>
        <time>2022-07-14T07:33:59Z</time>
      </trkpt>
      <trkpt lat="44.79764" lon="5.75506">
        <ele>812.7</ele>
        <time>2022-07-14T07:34:00Z</time>
      </trkpt>
      <trkpt lat="44.79759" lon="5.7551">
        <ele>812.7</ele>
        <time>2022-07-14T07:34:01Z</time>
      </trkpt>
      <trkpt lat="44.79755" lon="5.75514">
        <ele>812.7</ele>
        <time>2022-07-14T07:34:02Z</time>
      </trkpt>
      <trkpt lat="44.7975" lon="5.75518">
        <ele>812.8</ele>
        <time>2022-07-14T07:34:03Z</time>
      </trkpt>
      <trkpt lat="44.79746" lon="5.75521">
        <ele>812.8</ele>
        <time>2022-07-14T07:34:04Z</time>
      </trkpt>
      <trkpt lat="44.7974" lon="5.75525">
        <ele>812.8</ele>
        <time>2022-07-14T07:34:05Z</time>
      </trkpt>
      <trkpt lat="44.79735" lon="5.75529">
        <ele>812.9</ele>
        <time>2022-07-14T07:34:06Z</time>
      </trkpt>
      <trkpt lat="44.7973" lon="5.75533">
        <ele>813</ele>
        <time>2022-07-14T07:34:07Z</time>
      </trkpt>
      <trkpt lat="44.79725" lon="5.75536">
        <ele>812.9</ele>
        <time>2022-07-14T07:34:08Z</time>
      </trkpt>
      <trkpt lat="44.7972" lon="5.75539">
        <ele>812.9</ele>
        <time>2022-07-14T07:34:09Z</time>
      </trkpt>
      <trkpt lat="44.79715" lon="5.75543">
        <ele>813</ele>
        <time>2022-07-14T07:34:10Z</time>
      </trkpt>
      <trkpt lat="44.79711" lon="5.75546">
        <ele>813.1</ele>
        <time>2022-07-14T07:34:11Z</time>
      </trkpt>
      <trkpt lat="44.79706" lon="5.7555">
        <ele>813.2</ele>
        <time>2022-07-14T07:34:12Z</time>
      </trkpt>
      <trkpt lat="44.797" lon="5.75554">
        <ele>813.3</ele>
        <time>2022-07-14T07:34:13Z</time>
      </trkpt>
      <trkpt lat="44.79696" lon="5.75559">
        <ele>813.3</ele>
        <time>2022-07-14T07:34:14Z</time>
      </trkpt>
      <trkpt lat="44.79692" lon="5.75562">
        <ele>813.3</ele>
        <time>2022-07-14T07:34:15Z</time>
      </trkpt>
      <trkpt lat="44.79686" lon="5.75564">
        <ele>813.3</ele>
        <time>2022-07-14T07:34:16Z</time>
      </trkpt>
      <trkpt lat="44.79682" lon="5.75568">
        <ele>813.3</ele>
        <time>2022-07-14T07:34:17Z</time>
      </trkpt>
      <trkpt lat="44.79677" lon="5.75571">
        <ele>813.3</ele>
        <time>2022-07-14T07:34:18Z</time>
      </trkpt>
      <trkpt lat="44.79672" lon="5.75574">
        <ele>813.3</ele>
        <time>2022-07-14T07:34:19Z</time>
      </trkpt>
      <trkpt lat="44.79665" lon="5.75579">
        <ele>813.2</ele>
        <time>2022-07-14T07:34:20Z</time>
      </trkpt>
      <trkpt lat="44.7966" lon="5.75584">
        <ele>813.2</ele>
        <time>2022-07-14T07:34:21Z</time>
      </trkpt>
      <trkpt lat="44.79654" lon="5.7559">
        <ele>813.1</ele>
        <time>2022-07-14T07:34:22Z</time>
      </trkpt>
      <trkpt lat="44.79649" lon="5.75596">
        <ele>813</ele>
        <time>2022-07-14T07:34:23Z</time>
      </trkpt>
      <trkpt lat="44.79645" lon="5.75603">
        <ele>812.8</ele>
        <time>2022-07-14T07:34:24Z</time>
      </trkpt>
      <trkpt lat="44.79642" lon="5.7561">
        <ele>812.7</ele>
        <time>2022-07-14T07:34:25Z</time>
      </trkpt>
      <trkpt lat="44.79638" lon="5.75617">
        <ele>812.5</ele>
        <time>2022-07-14T07:34:26Z</time>
      </trkpt>
      <trkpt lat="44.79634" lon="5.75624">
        <ele>812.3</ele>
        <time>2022-07-14T07:34:27Z</time>
      </trkpt>
      <trkpt lat="44.79629" lon="5.75632">
        <ele>812.1</ele>
        <time>2022-07-14T07:34:28Z</time>
      </trkpt>
      <trkpt lat="44.79623" lon="5.75639">
        <ele>811.9</ele>
        <time>2022-07-14T07:34:29Z</time>
      </trkpt>
      <trkpt lat="44.79616" lon="5.75646">
        <ele>811.7</ele>
        <time>2022-07-14T07:34:30Z</time>
      </trkpt>
      <trkpt lat="44.7961" lon="5.75652">
        <ele>811.5</ele>
        <time>2022-07-14T07:34:31Z</time>
      </trkpt>
      <trkpt lat="44.79603" lon="5.75657">
        <ele>811.4</ele>
        <time>2022-07-14T07:34:32Z</time>
      </trkpt>
      <trkpt lat="44.79595" lon="5.75661">
        <ele>811.3</ele>
        <time>2022-07-14T07:34:33Z</time>
      </trkpt>
      <trkpt lat="44.79589" lon="5.75665">
        <ele>811.2</ele>
        <time>2022-07-14T07:34:34Z</time>
      </trkpt>
      <trkpt lat="44.79582" lon="5.75669">
        <ele>811.2</ele>
        <time>2022-07-14T07:34:35Z</time>
      </trkpt>
      <trkpt lat="44.79576" lon="5.75671">
        <ele>811.3</ele>
        <time>2022-07-14T07:34:36Z</time>
      </trkpt>
      <trkpt lat="44.7957" lon="5.75674">
        <ele>811.4</ele>
        <time>2022-07-14T07:34:37Z</time>
      </trkpt>
      <trkpt lat="44.79564" lon="5.75676">
        <ele>811.5</ele>
        <time>2022-07-14T07:34:38Z</time>
      </trkpt>
      <trkpt lat="44.79559" lon="5.75679">
        <ele>811.6</ele>
        <time>2022-07-14T07:34:39Z</time>
      </trkpt>
      <trkpt lat="44.79553" lon="5.75682">
        <ele>811.8</ele>
        <time>2022-07-14T07:34:40Z</time>
      </trkpt>
      <trkpt lat="44.79548" lon="5.75685">
        <ele>811.9</ele>
        <time>2022-07-14T07:34:41Z</time>
      </trkpt>
      <trkpt lat="44.79544" lon="5.75688">
        <ele>812</ele>
        <time>2022-07-14T07:34:42Z</time>
      </trkpt>
      <trkpt lat="44.79539" lon="5.75691">
        <ele>812.2</ele>
        <time>2022-07-14T07:34:43Z</time>
      </trkpt>
      <trkpt lat="44.79535" lon="5.75694">
        <ele>812.2</ele>
        <time>2022-07-14T07:34:44Z</time>
      </trkpt>
      <trkpt lat="44.79531" lon="5.75697">
        <ele>812.3</ele>
        <time>2022-07-14T07:34:45Z</time>
      </trkpt>
      <trkpt lat="44.79526" lon="5.75701">
        <ele>812.3</ele>
        <time>2022-07-14T07:34:46Z</time>
      </trkpt>
      <trkpt lat="44.79522" lon="5.75705">
        <ele>812.3</ele>
        <time>2022-07-14T07:34:47Z</time>
      </trkpt>
      <trkpt lat="44.79517" lon="5.75711">
        <ele>812.3</ele>
        <time>2022-07-14T07:34:48Z</time>
      </trkpt>
      <trkpt lat="44.79512" lon="5.75715">
        <ele>812.3</ele>
        <time>2022-07-14T07:34:49Z</time>
      </trkpt>
      <trkpt lat="44.79507" lon="5.7572">
        <ele>812.3</ele>
        <time>2022-07-14T07:34:50Z</time>
      </trkpt>
      <trkpt lat="44.79503" lon="5.75726">
        <ele>812.2</ele>
        <time>2022-07-14T07:34:51Z</time>
      </trkpt>
      <trkpt lat="44.79499" lon="5.75731">
        <ele>812.2</ele>
        <time>2022-07-14T07:34:52Z</time>
      </trkpt>
      <trkpt lat="44.79494" lon="5.75736">
        <ele>812.2</ele>
        <time>2022-07-14T07:34:53Z</time>
      </trkpt>
      <trkpt lat="44.7949" lon="5.75741">
        <ele>812.1</ele>
        <time>2022-07-14T07:34:54Z</time>
      </trkpt>
      <trkpt lat="44.79485" lon="5.75747">
        <ele>812.1</ele>
        <time>2022-07-14T07:34:55Z</time>
      </trkpt>
      <trkpt lat="44.79481" lon="5.75753">
        <ele>812</ele>
        <time>2022-07-14T07:34:56Z</time>
      </trkpt>
      <trkpt lat="44.79476" lon="5.75758">
        <ele>812</ele>
        <time>2022-07-14T07:34:57Z</time>
      </trkpt>
      <trkpt lat="44.79471" lon="5.75764">
        <ele>811.9</ele>
        <time>2022-07-14T07:34:58Z</time>
      </trkpt>
      <trkpt lat="44.79467" lon="5.7577">
        <ele>811.8</ele>
        <time>2022-07-14T07:34:59Z</time>
      </trkpt>
      <trkpt lat="44.79463" lon="5.75776">
        <ele>811.8</ele>
        <time>2022-07-14T07:35:00Z</time>
      </trkpt>
      <trkpt lat="44.79458" lon="5.75782">
        <ele>811.7</ele>
        <time>2022-07-14T07:35:01Z</time>
      </trkpt>
      <trkpt lat="44.79452" lon="5.75788">
        <ele>811.7</ele>
        <time>2022-07-14T07:35:02Z</time>
      </trkpt>
      <trkpt lat="44.79449" lon="5.75794">
        <ele>811.6</ele>
        <time>2022-07-14T07:35:03Z</time>
      </trkpt>
      <trkpt lat="44.79445" lon="5.75801">
        <ele>811.6</ele>
        <time>2022-07-14T07:35:04Z</time>
      </trkpt>
      <trkpt lat="44.79441" lon="5.75807">
        <ele>811.6</ele>
        <time>2022-07-14T07:35:05Z</time>
      </trkpt>
      <trkpt lat="44.79437" lon="5.75813">
        <ele>811.6</ele>
        <time>2022-07-14T07:35:06Z</time>
      </trkpt>
      <trkpt lat="44.79433" lon="5.75819">
        <ele>811.6</ele>
        <time>2022-07-14T07:35:07Z</time>
      </trkpt>
      <trkpt lat="44.7943" lon="5.75824">
        <ele>811.6</ele>
        <time>2022-07-14T07:35:08Z</time>
      </trkpt>
      <trkpt lat="44.79425" lon="5.7583">
        <ele>811.6</ele>
        <time>2022-07-14T07:35:09Z</time>
      </trkpt>
      <trkpt lat="44.79421" lon="5.75837">
        <ele>811.7</ele>
        <time>2022-07-14T07:35:10Z</time>
      </trkpt>
      <trkpt lat="44.79416" lon="5.75843">
        <ele>811.7</ele>
        <time>2022-07-14T07:35:11Z</time>
      </trkpt>
      <trkpt lat="44.79412" lon="5.75848">
        <ele>811.8</ele>
        <time>2022-07-14T07:35:12Z</time>
      </trkpt>
      <trkpt lat="44.79407" lon="5.75854">
        <ele>811.8</ele>
        <time>2022-07-14T07:35:13Z</time>
      </trkpt>
      <trkpt lat="44.79402" lon="5.7586">
        <ele>811.9</ele>
        <time>2022-07-14T07:35:14Z</time>
      </trkpt>
      <trkpt lat="44.79397" lon="5.75867">
        <ele>812</ele>
        <time>2022-07-14T07:35:15Z</time>
      </trkpt>
      <trkpt lat="44.79393" lon="5.75872">
        <ele>812.1</ele>
        <time>2022-07-14T07:35:16Z</time>
      </trkpt>
      <trkpt lat="44.79388" lon="5.75877">
        <ele>812.2</ele>
        <time>2022-07-14T07:35:17Z</time>
      </trkpt>
      <trkpt lat="44.79383" lon="5.75881">
        <ele>812.3</ele>
        <time>2022-07-14T07:35:18Z</time>
      </trkpt>
      <trkpt lat="44.79379" lon="5.75885">
        <ele>812.4</ele>
        <time>2022-07-14T07:35:19Z</time>
      </trkpt>
      <trkpt lat="44.79374" lon="5.75889">
        <ele>812.6</ele>
        <time>2022-07-14T07:35:20Z</time>
      </trkpt>
      <trkpt lat="44.79371" lon="5.75893">
        <ele>812.7</ele>
        <time>2022-07-14T07:35:21Z</time>
      </trkpt>
      <trkpt lat="44.79366" lon="5.75898">
        <ele>812.8</ele>
        <time>2022-07-14T07:35:22Z</time>
      </trkpt>
      <trkpt lat="44.79361" lon="5.75901">
        <ele>812.9</ele>
        <time>2022-07-14T07:35:23Z</time>
      </trkpt>
      <trkpt lat="44.79357" lon="5.75903">
        <ele>813</ele>
        <time>2022-07-14T07:35:24Z</time>
      </trkpt>
      <trkpt lat="44.79355" lon="5.75905">
        <ele>813.1</ele>
        <time>2022-07-14T07:35:25Z</time>
      </trkpt>
      <trkpt lat="44.7935" lon="5.7591">
        <ele>813.2</ele>
        <time>2022-07-14T07:35:26Z</time>
      </trkpt>
      <trkpt lat="44.79345" lon="5.75914">
        <ele>813.3</ele>
        <time>2022-07-14T07:35:27Z</time>
      </trkpt>
      <trkpt lat="44.7934" lon="5.75918">
        <ele>813.3</ele>
        <time>2022-07-14T07:35:28Z</time>
      </trkpt>
      <trkpt lat="44.79335" lon="5.75922">
        <ele>813.4</ele>
        <time>2022-07-14T07:35:29Z</time>
      </trkpt>
      <trkpt lat="44.79331" lon="5.75926">
        <ele>813.5</ele>
        <time>2022-07-14T07:35:30Z</time>
      </trkpt>
      <trkpt lat="44.79326" lon="5.75929">
        <ele>813.6</ele>
        <time>2022-07-14T07:35:31Z</time>
      </trkpt>
      <trkpt lat="44.79321" lon="5.75933">
        <ele>813.7</ele>
        <time>2022-07-14T07:35:32Z</time>
      </trkpt>
      <trkpt lat="44.79316" lon="5.75936">
        <ele>813.7</ele>
        <time>2022-07-14T07:35:33Z</time>
      </trkpt>
      <trkpt lat="44.7931" lon="5.75939">
        <ele>813.8</ele>
        <time>2022-07-14T07:35:34Z</time>
      </trkpt>
      <trkpt lat="44.79305" lon="5.75943">
        <ele>813.9</ele>
        <time>2022-07-14T07:35:35Z</time>
      </trkpt>
      <trkpt lat="44.79299" lon="5.75947">
        <ele>813.9</ele>
        <time>2022-07-14T07:35:36Z</time>
      </trkpt>
      <trkpt lat="44.79294" lon="5.7595">
        <ele>813.8</ele>
        <time>2022-07-14T07:35:37Z</time>
      </trkpt>
      <trkpt lat="44.79289" lon="5.75951">
        <ele>813.8</ele>
        <time>2022-07-14T07:35:38Z</time>
      </trkpt>
      <trkpt lat="44.79284" lon="5.75952">
        <ele>813.7</ele>
        <time>2022-07-14T07:35:39Z</time>
      </trkpt>
      <trkpt lat="44.79279" lon="5.75954">
        <ele>813.6</ele>
        <time>2022-07-14T07:35:40Z</time>
      </trkpt>
      <trkpt lat="44.79274" lon="5.75957">
        <ele>813.4</ele>
        <time>2022-07-14T07:35:41Z</time>
      </trkpt>
      <trkpt lat="44.79267" lon="5.7596">
        <ele>813.1</ele>
        <time>2022-07-14T07:35:42Z</time>
      </trkpt>
      <trkpt lat="44.79261" lon="5.75963">
        <ele>812.9</ele>
        <time>2022-07-14T07:35:43Z</time>
      </trkpt>
      <trkpt lat="44.79254" lon="5.75965">
        <ele>812.6</ele>
        <time>2022-07-14T07:35:44Z</time>
      </trkpt>
      <trkpt lat="44.79249" lon="5.75966">
        <ele>812.5</ele>
        <time>2022-07-14T07:35:45Z</time>
      </trkpt>
      <trkpt lat="44.79242" lon="5.75967">
        <ele>812.3</ele>
        <time>2022-07-14T07:35:46Z</time>
      </trkpt>
      <trkpt lat="44.79235" lon="5.75969">
        <ele>812.1</ele>
        <time>2022-07-14T07:35:47Z</time>
      </trkpt>
      <trkpt lat="44.79229" lon="5.7597">
        <ele>811.9</ele>
        <time>2022-07-14T07:35:48Z</time>
      </trkpt>
      <trkpt lat="44.79222" lon="5.75974">
        <ele>811.8</ele>
        <time>2022-07-14T07:35:49Z</time>
      </trkpt>
      <trkpt lat="44.79218" lon="5.75981">
        <ele>812.1</ele>
        <time>2022-07-14T07:35:50Z</time>
      </trkpt>
      <trkpt lat="44.79215" lon="5.7599">
        <ele>812.3</ele>
        <time>2022-07-14T07:35:51Z</time>
      </trkpt>
      <trkpt lat="44.79214" lon="5.75998">
        <ele>812.6</ele>
        <time>2022-07-14T07:35:52Z</time>
      </trkpt>
      <trkpt lat="44.79213" lon="5.76005">
        <ele>812.8</ele>
        <time>2022-07-14T07:35:53Z</time>
      </trkpt>
      <trkpt lat="44.79212" lon="5.76011">
        <ele>813.1</ele>
        <time>2022-07-14T07:35:54Z</time>
      </trkpt>
      <trkpt lat="44.79212" lon="5.76016">
        <ele>813.4</ele>
        <time>2022-07-14T07:35:55Z</time>
      </trkpt>
      <trkpt lat="44.79212" lon="5.76019">
        <ele>813.5</ele>
        <time>2022-07-14T07:35:56Z</time>
      </trkpt>
      <trkpt lat="44.7921" lon="5.76022">
        <ele>813.8</ele>
        <time>2022-07-14T07:35:57Z</time>
      </trkpt>
      <trkpt lat="44.79209" lon="5.76022">
        <ele>813.9</ele>
        <time>2022-07-14T07:35:58Z</time>
      </trkpt>
      <trkpt lat="44.79205" lon="5.76024">
        <ele>814.2</ele>
        <time>2022-07-14T07:35:59Z</time>
      </trkpt>
      <trkpt lat="44.79204" lon="5.76024">
        <ele>814.3</ele>
        <time>2022-07-14T07:36:00Z</time>
      </trkpt>
      <trkpt lat="44.79202" lon="5.76025">
        <ele>814.4</ele>
        <time>2022-07-14T07:36:01Z</time>
      </trkpt>
      <trkpt lat="44.792" lon="5.76032">
        <ele>815</ele>
        <time>2022-07-14T07:36:02Z</time>
      </trkpt>
      <trkpt lat="44.79198" lon="5.7604">
        <ele>815.5</ele>
        <time>2022-07-14T07:36:04Z</time>
      </trkpt>
      <trkpt lat="44.79195" lon="5.76043">
        <ele>815.9</ele>
        <time>2022-07-14T07:36:06Z</time>
      </trkpt>
      <trkpt lat="44.79193" lon="5.76052">
        <ele>816.5</ele>
        <time>2022-07-14T07:36:08Z</time>
      </trkpt>
      <trkpt lat="44.79189" lon="5.76061">
        <ele>817.1</ele>
        <time>2022-07-14T07:36:10Z</time>
      </trkpt>
      <trkpt lat="44.79188" lon="5.76068">
        <ele>817.5</ele>
        <time>2022-07-14T07:36:11Z</time>
      </trkpt>
      <trkpt lat="44.79187" lon="5.7607">
        <ele>817.7</ele>
        <time>2022-07-14T07:36:12Z</time>
      </trkpt>
      <trkpt lat="44.79185" lon="5.7608">
        <ele>818.3</ele>
        <time>2022-07-14T07:36:14Z</time>
      </trkpt>
      <trkpt lat="44.79182" lon="5.76085">
        <ele>818.7</ele>
        <time>2022-07-14T07:36:15Z</time>
      </trkpt>
      <trkpt lat="44.79181" lon="5.76089">
        <ele>818.9</ele>
        <time>2022-07-14T07:36:16Z</time>
      </trkpt>
      <trkpt lat="44.79181" lon="5.76091">
        <ele>819</ele>
        <time>2022-07-14T07:36:17Z</time>
      </trkpt>
      <trkpt lat="44.79179" lon="5.76094">
        <ele>819.3</ele>
        <time>2022-07-14T07:36:19Z</time>
      </trkpt>
      <trkpt lat="44.79175" lon="5.76095">
        <ele>819.6</ele>
        <time>2022-07-14T07:36:20Z</time>
      </trkpt>
      <trkpt lat="44.79171" lon="5.76096">
        <ele>819.8</ele>
        <time>2022-07-14T07:36:21Z</time>
      </trkpt>
      <trkpt lat="44.79166" lon="5.761">
        <ele>820.3</ele>
        <time>2022-07-14T07:36:23Z</time>
      </trkpt>
      <trkpt lat="44.79165" lon="5.76106">
        <ele>820.6</ele>
        <time>2022-07-14T07:36:24Z</time>
      </trkpt>
      <trkpt lat="44.79163" lon="5.76108">
        <ele>820.8</ele>
        <time>2022-07-14T07:36:25Z</time>
      </trkpt>
      <trkpt lat="44.7916" lon="5.76114">
        <ele>821.1</ele>
        <time>2022-07-14T07:36:27Z</time>
      </trkpt>
      <trkpt lat="44.79158" lon="5.76119">
        <ele>821.4</ele>
        <time>2022-07-14T07:36:28Z</time>
      </trkpt>
      <trkpt lat="44.79157" lon="5.76122">
        <ele>821.5</ele>
        <time>2022-07-14T07:36:29Z</time>
      </trkpt>
      <trkpt lat="44.79156" lon="5.76125">
        <ele>821.7</ele>
        <time>2022-07-14T07:36:30Z</time>
      </trkpt>
      <trkpt lat="44.79153" lon="5.76131">
        <ele>822</ele>
        <time>2022-07-14T07:36:32Z</time>
      </trkpt>
      <trkpt lat="44.79151" lon="5.76134">
        <ele>822.2</ele>
        <time>2022-07-14T07:36:33Z</time>
      </trkpt>
      <trkpt lat="44.79145" lon="5.76136">
        <ele>822.5</ele>
        <time>2022-07-14T07:36:35Z</time>
      </trkpt>
      <trkpt lat="44.79142" lon="5.76142">
        <ele>822.8</ele>
        <time>2022-07-14T07:36:36Z</time>
      </trkpt>
      <trkpt lat="44.79138" lon="5.76147">
        <ele>823.1</ele>
        <time>2022-07-14T07:36:38Z</time>
      </trkpt>
      <trkpt lat="44.79134" lon="5.7615">
        <ele>823.4</ele>
        <time>2022-07-14T07:36:39Z</time>
      </trkpt>
      <trkpt lat="44.79132" lon="5.76152">
        <ele>823.5</ele>
        <time>2022-07-14T07:36:40Z</time>
      </trkpt>
      <trkpt lat="44.79127" lon="5.76156">
        <ele>823.8</ele>
        <time>2022-07-14T07:36:42Z</time>
      </trkpt>
      <trkpt lat="44.79131" lon="5.76152">
        <ele>824</ele>
        <time>2022-07-14T07:36:45Z</time>
      </trkpt>
      <trkpt lat="44.79132" lon="5.76151">
        <ele>824.1</ele>
        <time>2022-07-14T07:36:46Z</time>
      </trkpt>
      <trkpt lat="44.79132" lon="5.76151">
        <ele>824.1</ele>
        <time>2022-07-14T07:36:47Z</time>
      </trkpt>
      <trkpt lat="44.79132" lon="5.76151">
        <ele>824.1</ele>
        <time>2022-07-14T07:36:50Z</time>
      </trkpt>
      <trkpt lat="44.79132" lon="5.76151">
        <ele>824.1</ele>
        <time>2022-07-14T07:36:51Z</time>
      </trkpt>
      <trkpt lat="44.79129" lon="5.76155">
        <ele>824.3</ele>
        <time>2022-07-14T07:38:07Z</time>
      </trkpt>
      <trkpt lat="44.79128" lon="5.76155">
        <ele>824.4</ele>
        <time>2022-07-14T07:38:08Z</time>
      </trkpt>
      <trkpt lat="44.79121" lon="5.76165">
        <ele>824.8</ele>
        <time>2022-07-14T07:38:11Z</time>
      </trkpt>
      <trkpt lat="44.79116" lon="5.76167">
        <ele>825</ele>
        <time>2022-07-14T07:38:12Z</time>
      </trkpt>
      <trkpt lat="44.79111" lon="5.76171">
        <ele>825.3</ele>
        <time>2022-07-14T07:38:14Z</time>
      </trkpt>
      <trkpt lat="44.79108" lon="5.76173">
        <ele>825.4</ele>
        <time>2022-07-14T07:38:15Z</time>
      </trkpt>
      <trkpt lat="44.79103" lon="5.76179">
        <ele>825.7</ele>
        <time>2022-07-14T07:38:17Z</time>
      </trkpt>
      <trkpt lat="44.791" lon="5.76183">
        <ele>825.9</ele>
        <time>2022-07-14T07:38:18Z</time>
      </trkpt>
      <trkpt lat="44.79095" lon="5.76189">
        <ele>826.2</ele>
        <time>2022-07-14T07:38:20Z</time>
      </trkpt>
      <trkpt lat="44.7909" lon="5.76196">
        <ele>826.5</ele>
        <time>2022-07-14T07:38:22Z</time>
      </trkpt>
      <trkpt lat="44.79088" lon="5.76199">
        <ele>826.6</ele>
        <time>2022-07-14T07:38:23Z</time>
      </trkpt>
      <trkpt lat="44.79085" lon="5.76202">
        <ele>826.8</ele>
        <time>2022-07-14T07:38:24Z</time>
      </trkpt>
      <trkpt lat="44.79079" lon="5.76207">
        <ele>827.1</ele>
        <time>2022-07-14T07:38:26Z</time>
      </trkpt>
      <trkpt lat="44.79073" lon="5.76213">
        <ele>827.4</ele>
        <time>2022-07-14T07:38:28Z</time>
      </trkpt>
      <trkpt lat="44.79069" lon="5.76215">
        <ele>827.6</ele>
        <time>2022-07-14T07:38:29Z</time>
      </trkpt>
      <trkpt lat="44.79064" lon="5.76224">
        <ele>827.9</ele>
        <time>2022-07-14T07:38:31Z</time>
      </trkpt>
      <trkpt lat="44.7906" lon="5.76228">
        <ele>828.1</ele>
        <time>2022-07-14T07:38:32Z</time>
      </trkpt>
      <trkpt lat="44.79054" lon="5.76234">
        <ele>828.5</ele>
        <time>2022-07-14T07:38:34Z</time>
      </trkpt>
      <trkpt lat="44.79049" lon="5.76241">
        <ele>828.8</ele>
        <time>2022-07-14T07:38:36Z</time>
      </trkpt>
      <trkpt lat="44.79046" lon="5.76245">
        <ele>829</ele>
        <time>2022-07-14T07:38:37Z</time>
      </trkpt>
      <trkpt lat="44.79043" lon="5.76249">
        <ele>829.2</ele>
        <time>2022-07-14T07:38:38Z</time>
      </trkpt>
      <trkpt lat="44.7904" lon="5.76253">
        <ele>829.4</ele>
        <time>2022-07-14T07:38:39Z</time>
      </trkpt>
      <trkpt lat="44.79038" lon="5.76257">
        <ele>829.6</ele>
        <time>2022-07-14T07:38:40Z</time>
      </trkpt>
      <trkpt lat="44.79034" lon="5.76264">
        <ele>829.9</ele>
        <time>2022-07-14T07:38:42Z</time>
      </trkpt>
      <trkpt lat="44.79032" lon="5.76269">
        <ele>830</ele>
        <time>2022-07-14T07:38:43Z</time>
      </trkpt>
      <trkpt lat="44.7903" lon="5.76272">
        <ele>830.1</ele>
        <time>2022-07-14T07:38:44Z</time>
      </trkpt>
      <trkpt lat="44.79027" lon="5.76277">
        <ele>830.3</ele>
        <time>2022-07-14T07:38:45Z</time>
      </trkpt>
      <trkpt lat="44.79025" lon="5.76281">
        <ele>830.5</ele>
        <time>2022-07-14T07:38:46Z</time>
      </trkpt>
      <trkpt lat="44.79019" lon="5.76288">
        <ele>830.8</ele>
        <time>2022-07-14T07:38:47Z</time>
      </trkpt>
      <trkpt lat="44.79017" lon="5.76293">
        <ele>831</ele>
        <time>2022-07-14T07:38:49Z</time>
      </trkpt>
      <trkpt lat="44.79015" lon="5.76297">
        <ele>831.1</ele>
        <time>2022-07-14T07:38:50Z</time>
      </trkpt>
      <trkpt lat="44.79013" lon="5.76301">
        <ele>831.3</ele>
        <time>2022-07-14T07:38:51Z</time>
      </trkpt>
      <trkpt lat="44.79009" lon="5.76308">
        <ele>831.6</ele>
        <time>2022-07-14T07:38:53Z</time>
      </trkpt>
      <trkpt lat="44.79005" lon="5.76314">
        <ele>831.8</ele>
        <time>2022-07-14T07:38:54Z</time>
      </trkpt>
      <trkpt lat="44.79002" lon="5.76318">
        <ele>832</ele>
        <time>2022-07-14T07:38:55Z</time>
      </trkpt>
      <trkpt lat="44.79" lon="5.76323">
        <ele>832.2</ele>
        <time>2022-07-14T07:38:56Z</time>
      </trkpt>
      <trkpt lat="44.78995" lon="5.76331">
        <ele>832.5</ele>
        <time>2022-07-14T07:38:58Z</time>
      </trkpt>
      <trkpt lat="44.78993" lon="5.76335">
        <ele>832.7</ele>
        <time>2022-07-14T07:38:59Z</time>
      </trkpt>
      <trkpt lat="44.78991" lon="5.76338">
        <ele>832.8</ele>
        <time>2022-07-14T07:39:00Z</time>
      </trkpt>
      <trkpt lat="44.78986" lon="5.76345">
        <ele>833.1</ele>
        <time>2022-07-14T07:39:02Z</time>
      </trkpt>
      <trkpt lat="44.78982" lon="5.7635">
        <ele>833.4</ele>
        <time>2022-07-14T07:39:03Z</time>
      </trkpt>
      <trkpt lat="44.78979" lon="5.76354">
        <ele>833.6</ele>
        <time>2022-07-14T07:39:04Z</time>
      </trkpt>
      <trkpt lat="44.78975" lon="5.76361">
        <ele>833.8</ele>
        <time>2022-07-14T07:39:06Z</time>
      </trkpt>
      <trkpt lat="44.7897" lon="5.76368">
        <ele>834.2</ele>
        <time>2022-07-14T07:39:08Z</time>
      </trkpt>
      <trkpt lat="44.78968" lon="5.76372">
        <ele>834.3</ele>
        <time>2022-07-14T07:39:09Z</time>
      </trkpt>
      <trkpt lat="44.78966" lon="5.76376">
        <ele>834.5</ele>
        <time>2022-07-14T07:39:10Z</time>
      </trkpt>
      <trkpt lat="44.78963" lon="5.76382">
        <ele>834.7</ele>
        <time>2022-07-14T07:39:11Z</time>
      </trkpt>
      <trkpt lat="44.78959" lon="5.76388">
        <ele>835</ele>
        <time>2022-07-14T07:39:13Z</time>
      </trkpt>
      <trkpt lat="44.78956" lon="5.76392">
        <ele>835.1</ele>
        <time>2022-07-14T07:39:14Z</time>
      </trkpt>
      <trkpt lat="44.78951" lon="5.764">
        <ele>835.5</ele>
        <time>2022-07-14T07:39:16Z</time>
      </trkpt>
      <trkpt lat="44.78949" lon="5.76406">
        <ele>835.7</ele>
        <time>2022-07-14T07:39:17Z</time>
      </trkpt>
      <trkpt lat="44.78945" lon="5.76412">
        <ele>835.9</ele>
        <time>2022-07-14T07:39:19Z</time>
      </trkpt>
      <trkpt lat="44.78943" lon="5.76416">
        <ele>836.1</ele>
        <time>2022-07-14T07:39:20Z</time>
      </trkpt>
      <trkpt lat="44.78942" lon="5.76418">
        <ele>836.1</ele>
        <time>2022-07-14T07:39:21Z</time>
      </trkpt>
      <trkpt lat="44.78941" lon="5.76424">
        <ele>836.3</ele>
        <time>2022-07-14T07:39:22Z</time>
      </trkpt>
      <trkpt lat="44.78941" lon="5.76426">
        <ele>836.3</ele>
        <time>2022-07-14T07:39:23Z</time>
      </trkpt>
      <trkpt lat="44.78942" lon="5.76431">
        <ele>836.5</ele>
        <time>2022-07-14T07:39:25Z</time>
      </trkpt>
      <trkpt lat="44.78942" lon="5.76432">
        <ele>836.5</ele>
        <time>2022-07-14T07:39:26Z</time>
      </trkpt>
      <trkpt lat="44.78941" lon="5.76426">
        <ele>836.7</ele>
        <time>2022-07-14T07:39:29Z</time>
      </trkpt>
      <trkpt lat="44.78941" lon="5.76426">
        <ele>836.7</ele>
        <time>2022-07-14T07:39:30Z</time>
      </trkpt>
      <trkpt lat="44.78941" lon="5.76427">
        <ele>836.7</ele>
        <time>2022-07-14T07:39:31Z</time>
      </trkpt>
      <trkpt lat="44.78941" lon="5.76427">
        <ele>836.7</ele>
        <time>2022-07-14T07:39:32Z</time>
      </trkpt>
      <trkpt lat="44.78941" lon="5.76427">
        <ele>836.7</ele>
        <time>2022-07-14T07:39:33Z</time>
      </trkpt>
      <trkpt lat="44.78941" lon="5.76427">
        <ele>836.7</ele>
        <time>2022-07-14T07:39:34Z</time>
      </trkpt>
      <trkpt lat="44.78941" lon="5.76427">
        <ele>836.7</ele>
        <time>2022-07-14T07:39:35Z</time>
      </trkpt>
      <trkpt lat="44.78941" lon="5.76427">
        <ele>836.7</ele>
        <time>2022-07-14T07:39:36Z</time>
      </trkpt>
      <trkpt lat="44.78938" lon="5.76431">
        <ele>836.9</ele>
        <time>2022-07-14T07:40:09Z</time>
      </trkpt>
      <trkpt lat="44.78932" lon="5.76434">
        <ele>837.1</ele>
        <time>2022-07-14T07:40:11Z</time>
      </trkpt>
      <trkpt lat="44.78929" lon="5.76435">
        <ele>837.2</ele>
        <time>2022-07-14T07:40:12Z</time>
      </trkpt>
      <trkpt lat="44.78926" lon="5.76437">
        <ele>837.3</ele>
        <time>2022-07-14T07:40:13Z</time>
      </trkpt>
      <trkpt lat="44.78923" lon="5.7644">
        <ele>837.4</ele>
        <time>2022-07-14T07:40:14Z</time>
      </trkpt>
      <trkpt lat="44.7892" lon="5.76441">
        <ele>837.5</ele>
        <time>2022-07-14T07:40:15Z</time>
      </trkpt>
      <trkpt lat="44.78917" lon="5.76444">
        <ele>837.7</ele>
        <time>2022-07-14T07:40:17Z</time>
      </trkpt>
      <trkpt lat="44.78915" lon="5.76447">
        <ele>837.8</ele>
        <time>2022-07-14T07:40:18Z</time>
      </trkpt>
      <trkpt lat="44.7891" lon="5.76451">
        <ele>838</ele>
        <time>2022-07-14T07:40:20Z</time>
      </trkpt>
      <trkpt lat="44.78907" lon="5.76456">
        <ele>838.1</ele>
        <time>2022-07-14T07:40:21Z</time>
      </trkpt>
      <trkpt lat="44.78903" lon="5.76461">
        <ele>838.2</ele>
        <time>2022-07-14T07:40:22Z</time>
      </trkpt>
      <trkpt lat="44.78902" lon="5.76463">
        <ele>838.3</ele>
        <time>2022-07-14T07:40:23Z</time>
      </trkpt>
      <trkpt lat="44.78898" lon="5.76467">
        <ele>838.4</ele>
        <time>2022-07-14T07:40:24Z</time>
      </trkpt>
      <trkpt lat="44.78896" lon="5.7647">
        <ele>838.5</ele>
        <time>2022-07-14T07:40:25Z</time>
      </trkpt>
      <trkpt lat="44.78891" lon="5.76476">
        <ele>838.7</ele>
        <time>2022-07-14T07:40:27Z</time>
      </trkpt>
      <trkpt lat="44.78889" lon="5.76481">
        <ele>838.8</ele>
        <time>2022-07-14T07:40:28Z</time>
      </trkpt>
      <trkpt lat="44.78883" lon="5.76488">
        <ele>839</ele>
        <time>2022-07-14T07:40:30Z</time>
      </trkpt>
      <trkpt lat="44.78881" lon="5.76491">
        <ele>839.1</ele>
        <time>2022-07-14T07:40:31Z</time>
      </trkpt>
      <trkpt lat="44.78878" lon="5.76495">
        <ele>839.2</ele>
        <time>2022-07-14T07:40:32Z</time>
      </trkpt>
      <trkpt lat="44.78874" lon="5.76502">
        <ele>839.4</ele>
        <time>2022-07-14T07:40:34Z</time>
      </trkpt>
      <trkpt lat="44.78872" lon="5.76506">
        <ele>839.5</ele>
        <time>2022-07-14T07:40:35Z</time>
      </trkpt>
      <trkpt lat="44.78869" lon="5.76512">
        <ele>839.6</ele>
        <time>2022-07-14T07:40:36Z</time>
      </trkpt>
      <trkpt lat="44.78865" lon="5.7652">
        <ele>839.8</ele>
        <time>2022-07-14T07:40:38Z</time>
      </trkpt>
      <trkpt lat="44.78863" lon="5.76527">
        <ele>840</ele>
        <time>2022-07-14T07:40:39Z</time>
      </trkpt>
      <trkpt lat="44.78861" lon="5.76533">
        <ele>840.1</ele>
        <time>2022-07-14T07:40:40Z</time>
      </trkpt>
      <trkpt lat="44.78859" lon="5.76536">
        <ele>840.2</ele>
        <time>2022-07-14T07:40:41Z</time>
      </trkpt>
      <trkpt lat="44.78857" lon="5.7654">
        <ele>840.3</ele>
        <time>2022-07-14T07:40:42Z</time>
      </trkpt>
      <trkpt lat="44.78853" lon="5.76548">
        <ele>840.5</ele>
        <time>2022-07-14T07:40:44Z</time>
      </trkpt>
      <trkpt lat="44.7885" lon="5.76554">
        <ele>840.7</ele>
        <time>2022-07-14T07:40:45Z</time>
      </trkpt>
      <trkpt lat="44.78848" lon="5.76558">
        <ele>840.8</ele>
        <time>2022-07-14T07:40:46Z</time>
      </trkpt>
      <trkpt lat="44.78846" lon="5.76567">
        <ele>841</ele>
        <time>2022-07-14T07:40:48Z</time>
      </trkpt>
      <trkpt lat="44.78842" lon="5.76575">
        <ele>841.2</ele>
        <time>2022-07-14T07:40:50Z</time>
      </trkpt>
      <trkpt lat="44.7884" lon="5.7658">
        <ele>841.3</ele>
        <time>2022-07-14T07:40:51Z</time>
      </trkpt>
      <trkpt lat="44.78836" lon="5.7659">
        <ele>841.6</ele>
        <time>2022-07-14T07:40:53Z</time>
      </trkpt>
      <trkpt lat="44.78834" lon="5.76596">
        <ele>841.7</ele>
        <time>2022-07-14T07:40:54Z</time>
      </trkpt>
      <trkpt lat="44.78833" lon="5.76602">
        <ele>841.8</ele>
        <time>2022-07-14T07:40:55Z</time>
      </trkpt>
      <trkpt lat="44.78831" lon="5.76605">
        <ele>841.9</ele>
        <time>2022-07-14T07:40:56Z</time>
      </trkpt>
      <trkpt lat="44.78829" lon="5.76614">
        <ele>842.1</ele>
        <time>2022-07-14T07:40:58Z</time>
      </trkpt>
      <trkpt lat="44.78828" lon="5.76619">
        <ele>842.2</ele>
        <time>2022-07-14T07:40:59Z</time>
      </trkpt>
      <trkpt lat="44.78826" lon="5.76625">
        <ele>842.4</ele>
        <time>2022-07-14T07:41:00Z</time>
      </trkpt>
      <trkpt lat="44.78825" lon="5.76632">
        <ele>842.5</ele>
        <time>2022-07-14T07:41:01Z</time>
      </trkpt>
      <trkpt lat="44.78824" lon="5.76643">
        <ele>842.8</ele>
        <time>2022-07-14T07:41:03Z</time>
      </trkpt>
      <trkpt lat="44.78822" lon="5.76649">
        <ele>842.9</ele>
        <time>2022-07-14T07:41:04Z</time>
      </trkpt>
      <trkpt lat="44.78818" lon="5.76658">
        <ele>843.1</ele>
        <time>2022-07-14T07:41:06Z</time>
      </trkpt>
      <trkpt lat="44.78812" lon="5.76671">
        <ele>843.4</ele>
        <time>2022-07-14T07:41:09Z</time>
      </trkpt>
      <trkpt lat="44.78809" lon="5.76675">
        <ele>843.5</ele>
        <time>2022-07-14T07:41:10Z</time>
      </trkpt>
      <trkpt lat="44.78806" lon="5.7668">
        <ele>843.5</ele>
        <time>2022-07-14T07:41:11Z</time>
      </trkpt>
      <trkpt lat="44.78804" lon="5.76686">
        <ele>843.6</ele>
        <time>2022-07-14T07:41:12Z</time>
      </trkpt>
      <trkpt lat="44.788" lon="5.76688">
        <ele>843.6</ele>
        <time>2022-07-14T07:41:13Z</time>
      </trkpt>
      <trkpt lat="44.78797" lon="5.76691">
        <ele>843.6</ele>
        <time>2022-07-14T07:41:14Z</time>
      </trkpt>
      <trkpt lat="44.78793" lon="5.76694">
        <ele>843.7</ele>
        <time>2022-07-14T07:41:15Z</time>
      </trkpt>
      <trkpt lat="44.78782" lon="5.76697">
        <ele>843.8</ele>
        <time>2022-07-14T07:41:18Z</time>
      </trkpt>
      <trkpt lat="44.78777" lon="5.767">
        <ele>843.8</ele>
        <time>2022-07-14T07:41:19Z</time>
      </trkpt>
      <trkpt lat="44.78772" lon="5.76702">
        <ele>843.8</ele>
        <time>2022-07-14T07:41:20Z</time>
      </trkpt>
      <trkpt lat="44.78768" lon="5.76704">
        <ele>843.9</ele>
        <time>2022-07-14T07:41:21Z</time>
      </trkpt>
      <trkpt lat="44.78764" lon="5.76707">
        <ele>843.9</ele>
        <time>2022-07-14T07:41:22Z</time>
      </trkpt>
      <trkpt lat="44.7876" lon="5.76708">
        <ele>843.9</ele>
        <time>2022-07-14T07:41:23Z</time>
      </trkpt>
      <trkpt lat="44.78755" lon="5.7671">
        <ele>843.9</ele>
        <time>2022-07-14T07:41:24Z</time>
      </trkpt>
      <trkpt lat="44.78751" lon="5.76713">
        <ele>844</ele>
        <time>2022-07-14T07:41:25Z</time>
      </trkpt>
      <trkpt lat="44.78747" lon="5.76714">
        <ele>844</ele>
        <time>2022-07-14T07:41:26Z</time>
      </trkpt>
      <trkpt lat="44.78743" lon="5.76716">
        <ele>844</ele>
        <time>2022-07-14T07:41:27Z</time>
      </trkpt>
      <trkpt lat="44.78738" lon="5.76717">
        <ele>844</ele>
        <time>2022-07-14T07:41:28Z</time>
      </trkpt>
      <trkpt lat="44.78733" lon="5.76718">
        <ele>844.1</ele>
        <time>2022-07-14T07:41:29Z</time>
      </trkpt>
      <trkpt lat="44.78729" lon="5.7672">
        <ele>844.1</ele>
        <time>2022-07-14T07:41:30Z</time>
      </trkpt>
      <trkpt lat="44.78724" lon="5.76721">
        <ele>844.1</ele>
        <time>2022-07-14T07:41:31Z</time>
      </trkpt>
      <trkpt lat="44.78719" lon="5.76722">
        <ele>844.2</ele>
        <time>2022-07-14T07:41:32Z</time>
      </trkpt>
      <trkpt lat="44.78714" lon="5.76724">
        <ele>844.2</ele>
        <time>2022-07-14T07:41:33Z</time>
      </trkpt>
      <trkpt lat="44.78709" lon="5.76726">
        <ele>844.3</ele>
        <time>2022-07-14T07:41:34Z</time>
      </trkpt>
      <trkpt lat="44.78705" lon="5.76728">
        <ele>844.3</ele>
        <time>2022-07-14T07:41:35Z</time>
      </trkpt>
      <trkpt lat="44.787" lon="5.76731">
        <ele>844.4</ele>
        <time>2022-07-14T07:41:36Z</time>
      </trkpt>
      <trkpt lat="44.78695" lon="5.76732">
        <ele>844.4</ele>
        <time>2022-07-14T07:41:37Z</time>
      </trkpt>
      <trkpt lat="44.78691" lon="5.76734">
        <ele>844.5</ele>
        <time>2022-07-14T07:41:38Z</time>
      </trkpt>
      <trkpt lat="44.78686" lon="5.76735">
        <ele>844.5</ele>
        <time>2022-07-14T07:41:39Z</time>
      </trkpt>
      <trkpt lat="44.78681" lon="5.76736">
        <ele>844.5</ele>
        <time>2022-07-14T07:41:40Z</time>
      </trkpt>
      <trkpt lat="44.78676" lon="5.76737">
        <ele>844.6</ele>
        <time>2022-07-14T07:41:41Z</time>
      </trkpt>
      <trkpt lat="44.78671" lon="5.76738">
        <ele>844.6</ele>
        <time>2022-07-14T07:41:42Z</time>
      </trkpt>
      <trkpt lat="44.78666" lon="5.7674">
        <ele>844.7</ele>
        <time>2022-07-14T07:41:43Z</time>
      </trkpt>
      <trkpt lat="44.7866" lon="5.76741">
        <ele>844.7</ele>
        <time>2022-07-14T07:41:44Z</time>
      </trkpt>
      <trkpt lat="44.78655" lon="5.76742">
        <ele>844.8</ele>
        <time>2022-07-14T07:41:45Z</time>
      </trkpt>
      <trkpt lat="44.7865" lon="5.76743">
        <ele>844.9</ele>
        <time>2022-07-14T07:41:46Z</time>
      </trkpt>
      <trkpt lat="44.78645" lon="5.76745">
        <ele>844.9</ele>
        <time>2022-07-14T07:41:47Z</time>
      </trkpt>
      <trkpt lat="44.7864" lon="5.76746">
        <ele>845</ele>
        <time>2022-07-14T07:41:48Z</time>
      </trkpt>
      <trkpt lat="44.78635" lon="5.76748">
        <ele>845.1</ele>
        <time>2022-07-14T07:41:49Z</time>
      </trkpt>
      <trkpt lat="44.78631" lon="5.7675">
        <ele>845.1</ele>
        <time>2022-07-14T07:41:50Z</time>
      </trkpt>
      <trkpt lat="44.78626" lon="5.76752">
        <ele>845.2</ele>
        <time>2022-07-14T07:41:51Z</time>
      </trkpt>
      <trkpt lat="44.78621" lon="5.76753">
        <ele>845.2</ele>
        <time>2022-07-14T07:41:52Z</time>
      </trkpt>
      <trkpt lat="44.78616" lon="5.76755">
        <ele>845.3</ele>
        <time>2022-07-14T07:41:53Z</time>
      </trkpt>
      <trkpt lat="44.78612" lon="5.76756">
        <ele>845.3</ele>
        <time>2022-07-14T07:41:54Z</time>
      </trkpt>
      <trkpt lat="44.78607" lon="5.76758">
        <ele>845.4</ele>
        <time>2022-07-14T07:41:55Z</time>
      </trkpt>
      <trkpt lat="44.78602" lon="5.7676">
        <ele>845.4</ele>
        <time>2022-07-14T07:41:56Z</time>
      </trkpt>
      <trkpt lat="44.78597" lon="5.76762">
        <ele>845.5</ele>
        <time>2022-07-14T07:41:57Z</time>
      </trkpt>
      <trkpt lat="44.78593" lon="5.76764">
        <ele>845.6</ele>
        <time>2022-07-14T07:41:58Z</time>
      </trkpt>
      <trkpt lat="44.78588" lon="5.76767">
        <ele>845.6</ele>
        <time>2022-07-14T07:41:59Z</time>
      </trkpt>
      <trkpt lat="44.78583" lon="5.76769">
        <ele>845.7</ele>
        <time>2022-07-14T07:42:00Z</time>
      </trkpt>
      <trkpt lat="44.78578" lon="5.76771">
        <ele>845.8</ele>
        <time>2022-07-14T07:42:01Z</time>
      </trkpt>
      <trkpt lat="44.78574" lon="5.76773">
        <ele>845.8</ele>
        <time>2022-07-14T07:42:02Z</time>
      </trkpt>
      <trkpt lat="44.78569" lon="5.76775">
        <ele>845.9</ele>
        <time>2022-07-14T07:42:03Z</time>
      </trkpt>
      <trkpt lat="44.78564" lon="5.76777">
        <ele>846</ele>
        <time>2022-07-14T07:42:04Z</time>
      </trkpt>
      <trkpt lat="44.7856" lon="5.7678">
        <ele>846.1</ele>
        <time>2022-07-14T07:42:05Z</time>
      </trkpt>
      <trkpt lat="44.78556" lon="5.76783">
        <ele>846.2</ele>
        <time>2022-07-14T07:42:06Z</time>
      </trkpt>
      <trkpt lat="44.78552" lon="5.76786">
        <ele>846.3</ele>
        <time>2022-07-14T07:42:07Z</time>
      </trkpt>
      <trkpt lat="44.78547" lon="5.76789">
        <ele>846.4</ele>
        <time>2022-07-14T07:42:08Z</time>
      </trkpt>
      <trkpt lat="44.78543" lon="5.76792">
        <ele>846.5</ele>
        <time>2022-07-14T07:42:09Z</time>
      </trkpt>
      <trkpt lat="44.78538" lon="5.76794">
        <ele>846.6</ele>
        <time>2022-07-14T07:42:10Z</time>
      </trkpt>
      <trkpt lat="44.78536" lon="5.76795">
        <ele>846.7</ele>
        <time>2022-07-14T07:42:11Z</time>
      </trkpt>
      <trkpt lat="44.7853" lon="5.76798">
        <ele>846.8</ele>
        <time>2022-07-14T07:42:12Z</time>
      </trkpt>
      <trkpt lat="44.78526" lon="5.76802">
        <ele>846.9</ele>
        <time>2022-07-14T07:42:13Z</time>
      </trkpt>
      <trkpt lat="44.78521" lon="5.76805">
        <ele>847</ele>
        <time>2022-07-14T07:42:14Z</time>
      </trkpt>
      <trkpt lat="44.78512" lon="5.76812">
        <ele>847.3</ele>
        <time>2022-07-14T07:42:15Z</time>
      </trkpt>
      <trkpt lat="44.78515" lon="5.76802">
        <ele>847.5</ele>
        <time>2022-07-14T07:42:17Z</time>
      </trkpt>
      <trkpt lat="44.78505" lon="5.76812">
        <ele>847.8</ele>
        <time>2022-07-14T07:42:18Z</time>
      </trkpt>
      <trkpt lat="44.78497" lon="5.76823">
        <ele>848.1</ele>
        <time>2022-07-14T07:42:19Z</time>
      </trkpt>
      <trkpt lat="44.78495" lon="5.76814">
        <ele>848.2</ele>
        <time>2022-07-14T07:42:21Z</time>
      </trkpt>
      <trkpt lat="44.78489" lon="5.76825">
        <ele>848.4</ele>
        <time>2022-07-14T07:42:22Z</time>
      </trkpt>
      <trkpt lat="44.78469" lon="5.76839">
        <ele>848.8</ele>
        <time>2022-07-14T07:42:25Z</time>
      </trkpt>
      <trkpt lat="44.78465" lon="5.76843">
        <ele>848.8</ele>
        <time>2022-07-14T07:42:28Z</time>
      </trkpt>
      <trkpt lat="44.78462" lon="5.76848">
        <ele>848.9</ele>
        <time>2022-07-14T07:42:29Z</time>
      </trkpt>
      <trkpt lat="44.78458" lon="5.76853">
        <ele>849</ele>
        <time>2022-07-14T07:42:30Z</time>
      </trkpt>
      <trkpt lat="44.78455" lon="5.76857">
        <ele>849</ele>
        <time>2022-07-14T07:42:31Z</time>
      </trkpt>
      <trkpt lat="44.78451" lon="5.76861">
        <ele>849.1</ele>
        <time>2022-07-14T07:42:32Z</time>
      </trkpt>
      <trkpt lat="44.78448" lon="5.76866">
        <ele>849.2</ele>
        <time>2022-07-14T07:42:33Z</time>
      </trkpt>
      <trkpt lat="44.78444" lon="5.7687">
        <ele>849.2</ele>
        <time>2022-07-14T07:42:34Z</time>
      </trkpt>
      <trkpt lat="44.7844" lon="5.76874">
        <ele>849.3</ele>
        <time>2022-07-14T07:42:35Z</time>
      </trkpt>
      <trkpt lat="44.7843" lon="5.76887">
        <ele>849.5</ele>
        <time>2022-07-14T07:42:36Z</time>
      </trkpt>
      <trkpt lat="44.78426" lon="5.7689">
        <ele>849.6</ele>
        <time>2022-07-14T07:42:39Z</time>
      </trkpt>
      <trkpt lat="44.78421" lon="5.76893">
        <ele>849.6</ele>
        <time>2022-07-14T07:42:40Z</time>
      </trkpt>
      <trkpt lat="44.78417" lon="5.76897">
        <ele>849.7</ele>
        <time>2022-07-14T07:42:41Z</time>
      </trkpt>
      <trkpt lat="44.78413" lon="5.769">
        <ele>849.7</ele>
        <time>2022-07-14T07:42:42Z</time>
      </trkpt>
      <trkpt lat="44.78409" lon="5.76904">
        <ele>849.8</ele>
        <time>2022-07-14T07:42:43Z</time>
      </trkpt>
      <trkpt lat="44.78404" lon="5.76908">
        <ele>849.8</ele>
        <time>2022-07-14T07:42:44Z</time>
      </trkpt>
      <trkpt lat="44.784" lon="5.76912">
        <ele>849.9</ele>
        <time>2022-07-14T07:42:45Z</time>
      </trkpt>
      <trkpt lat="44.78395" lon="5.76916">
        <ele>849.9</ele>
        <time>2022-07-14T07:42:46Z</time>
      </trkpt>
      <trkpt lat="44.7839" lon="5.7692">
        <ele>850</ele>
        <time>2022-07-14T07:42:47Z</time>
      </trkpt>
      <trkpt lat="44.78385" lon="5.76923">
        <ele>850</ele>
        <time>2022-07-14T07:42:48Z</time>
      </trkpt>
      <trkpt lat="44.7838" lon="5.76926">
        <ele>850.1</ele>
        <time>2022-07-14T07:42:49Z</time>
      </trkpt>
      <trkpt lat="44.78375" lon="5.76929">
        <ele>850.2</ele>
        <time>2022-07-14T07:42:50Z</time>
      </trkpt>
      <trkpt lat="44.78371" lon="5.76932">
        <ele>850.2</ele>
        <time>2022-07-14T07:42:51Z</time>
      </trkpt>
      <trkpt lat="44.78366" lon="5.76934">
        <ele>850.3</ele>
        <time>2022-07-14T07:42:52Z</time>
      </trkpt>
      <trkpt lat="44.78362" lon="5.76935">
        <ele>850.3</ele>
        <time>2022-07-14T07:42:53Z</time>
      </trkpt>
      <trkpt lat="44.78357" lon="5.76935">
        <ele>850.4</ele>
        <time>2022-07-14T07:42:54Z</time>
      </trkpt>
      <trkpt lat="44.78352" lon="5.76936">
        <ele>850.4</ele>
        <time>2022-07-14T07:42:55Z</time>
      </trkpt>
      <trkpt lat="44.78347" lon="5.76938">
        <ele>850.5</ele>
        <time>2022-07-14T07:42:56Z</time>
      </trkpt>
      <trkpt lat="44.78342" lon="5.7694">
        <ele>850.5</ele>
        <time>2022-07-14T07:42:57Z</time>
      </trkpt>
      <trkpt lat="44.78337" lon="5.76942">
        <ele>850.5</ele>
        <time>2022-07-14T07:42:58Z</time>
      </trkpt>
      <trkpt lat="44.78333" lon="5.76945">
        <ele>850.6</ele>
        <time>2022-07-14T07:42:59Z</time>
      </trkpt>
      <trkpt lat="44.78328" lon="5.76948">
        <ele>850.6</ele>
        <time>2022-07-14T07:43:00Z</time>
      </trkpt>
      <trkpt lat="44.78324" lon="5.7695">
        <ele>850.6</ele>
        <time>2022-07-14T07:43:01Z</time>
      </trkpt>
      <trkpt lat="44.7832" lon="5.76955">
        <ele>850.7</ele>
        <time>2022-07-14T07:43:02Z</time>
      </trkpt>
      <trkpt lat="44.78317" lon="5.7696">
        <ele>850.7</ele>
        <time>2022-07-14T07:43:03Z</time>
      </trkpt>
      <trkpt lat="44.78313" lon="5.76965">
        <ele>850.7</ele>
        <time>2022-07-14T07:43:04Z</time>
      </trkpt>
      <trkpt lat="44.78309" lon="5.7697">
        <ele>850.8</ele>
        <time>2022-07-14T07:43:05Z</time>
      </trkpt>
      <trkpt lat="44.78305" lon="5.76975">
        <ele>850.8</ele>
        <time>2022-07-14T07:43:06Z</time>
      </trkpt>
      <trkpt lat="44.78301" lon="5.7698">
        <ele>850.9</ele>
        <time>2022-07-14T07:43:07Z</time>
      </trkpt>
      <trkpt lat="44.78298" lon="5.76985">
        <ele>850.9</ele>
        <time>2022-07-14T07:43:08Z</time>
      </trkpt>
      <trkpt lat="44.78294" lon="5.7699">
        <ele>851</ele>
        <time>2022-07-14T07:43:09Z</time>
      </trkpt>
      <trkpt lat="44.7829" lon="5.76995">
        <ele>851</ele>
        <time>2022-07-14T07:43:10Z</time>
      </trkpt>
      <trkpt lat="44.78286" lon="5.77">
        <ele>851</ele>
        <time>2022-07-14T07:43:11Z</time>
      </trkpt>
      <trkpt lat="44.78283" lon="5.77005">
        <ele>851.1</ele>
        <time>2022-07-14T07:43:12Z</time>
      </trkpt>
      <trkpt lat="44.78279" lon="5.77009">
        <ele>851.1</ele>
        <time>2022-07-14T07:43:13Z</time>
      </trkpt>
      <trkpt lat="44.78277" lon="5.77014">
        <ele>851.1</ele>
        <time>2022-07-14T07:43:14Z</time>
      </trkpt>
      <trkpt lat="44.78273" lon="5.77019">
        <ele>851.2</ele>
        <time>2022-07-14T07:43:15Z</time>
      </trkpt>
      <trkpt lat="44.7827" lon="5.77023">
        <ele>851.2</ele>
        <time>2022-07-14T07:43:16Z</time>
      </trkpt>
      <trkpt lat="44.78266" lon="5.77028">
        <ele>851.2</ele>
        <time>2022-07-14T07:43:17Z</time>
      </trkpt>
      <trkpt lat="44.78263" lon="5.77033">
        <ele>851.2</ele>
        <time>2022-07-14T07:43:18Z</time>
      </trkpt>
      <trkpt lat="44.78261" lon="5.77039">
        <ele>851.2</ele>
        <time>2022-07-14T07:43:19Z</time>
      </trkpt>
      <trkpt lat="44.78258" lon="5.77044">
        <ele>851.2</ele>
        <time>2022-07-14T07:43:20Z</time>
      </trkpt>
      <trkpt lat="44.78255" lon="5.7705">
        <ele>851.3</ele>
        <time>2022-07-14T07:43:21Z</time>
      </trkpt>
      <trkpt lat="44.78252" lon="5.77057">
        <ele>851.3</ele>
        <time>2022-07-14T07:43:22Z</time>
      </trkpt>
      <trkpt lat="44.78249" lon="5.77063">
        <ele>851.3</ele>
        <time>2022-07-14T07:43:23Z</time>
      </trkpt>
      <trkpt lat="44.78247" lon="5.77069">
        <ele>851.3</ele>
        <time>2022-07-14T07:43:24Z</time>
      </trkpt>
      <trkpt lat="44.78245" lon="5.77076">
        <ele>851.3</ele>
        <time>2022-07-14T07:43:25Z</time>
      </trkpt>
      <trkpt lat="44.78242" lon="5.77083">
        <ele>851.3</ele>
        <time>2022-07-14T07:43:26Z</time>
      </trkpt>
      <trkpt lat="44.7824" lon="5.77089">
        <ele>851.3</ele>
        <time>2022-07-14T07:43:27Z</time>
      </trkpt>
      <trkpt lat="44.78238" lon="5.77096">
        <ele>851.4</ele>
        <time>2022-07-14T07:43:28Z</time>
      </trkpt>
      <trkpt lat="44.78235" lon="5.77103">
        <ele>851.4</ele>
        <time>2022-07-14T07:43:29Z</time>
      </trkpt>
      <trkpt lat="44.78232" lon="5.77108">
        <ele>851.5</ele>
        <time>2022-07-14T07:43:30Z</time>
      </trkpt>
      <trkpt lat="44.78228" lon="5.77113">
        <ele>851.6</ele>
        <time>2022-07-14T07:43:31Z</time>
      </trkpt>
      <trkpt lat="44.78224" lon="5.77117">
        <ele>851.7</ele>
        <time>2022-07-14T07:43:32Z</time>
      </trkpt>
      <trkpt lat="44.7822" lon="5.77121">
        <ele>851.8</ele>
        <time>2022-07-14T07:43:33Z</time>
      </trkpt>
      <trkpt lat="44.78216" lon="5.77124">
        <ele>852</ele>
        <time>2022-07-14T07:43:34Z</time>
      </trkpt>
      <trkpt lat="44.78212" lon="5.77126">
        <ele>852.2</ele>
        <time>2022-07-14T07:43:35Z</time>
      </trkpt>
      <trkpt lat="44.78207" lon="5.77129">
        <ele>852.4</ele>
        <time>2022-07-14T07:43:36Z</time>
      </trkpt>
      <trkpt lat="44.78204" lon="5.77133">
        <ele>852.7</ele>
        <time>2022-07-14T07:43:37Z</time>
      </trkpt>
      <trkpt lat="44.782" lon="5.77137">
        <ele>852.9</ele>
        <time>2022-07-14T07:43:38Z</time>
      </trkpt>
      <trkpt lat="44.78199" lon="5.77139">
        <ele>853</ele>
        <time>2022-07-14T07:43:39Z</time>
      </trkpt>
      <trkpt lat="44.78196" lon="5.77143">
        <ele>853.3</ele>
        <time>2022-07-14T07:43:40Z</time>
      </trkpt>
      <trkpt lat="44.78193" lon="5.77147">
        <ele>853.5</ele>
        <time>2022-07-14T07:43:41Z</time>
      </trkpt>
      <trkpt lat="44.7819" lon="5.7715">
        <ele>853.7</ele>
        <time>2022-07-14T07:43:42Z</time>
      </trkpt>
      <trkpt lat="44.78188" lon="5.77154">
        <ele>854</ele>
        <time>2022-07-14T07:43:43Z</time>
      </trkpt>
      <trkpt lat="44.78191" lon="5.77157">
        <ele>854.2</ele>
        <time>2022-07-14T07:43:44Z</time>
      </trkpt>
      <trkpt lat="44.78184" lon="5.77163">
        <ele>854.7</ele>
        <time>2022-07-14T07:43:45Z</time>
      </trkpt>
      <trkpt lat="44.7818" lon="5.77168">
        <ele>855.1</ele>
        <time>2022-07-14T07:43:46Z</time>
      </trkpt>
      <trkpt lat="44.78175" lon="5.77176">
        <ele>855.5</ele>
        <time>2022-07-14T07:43:48Z</time>
      </trkpt>
      <trkpt lat="44.78173" lon="5.77183">
        <ele>855.9</ele>
        <time>2022-07-14T07:43:49Z</time>
      </trkpt>
      <trkpt lat="44.78171" lon="5.77192">
        <ele>856.2</ele>
        <time>2022-07-14T07:43:51Z</time>
      </trkpt>
      <trkpt lat="44.78165" lon="5.772">
        <ele>856.7</ele>
        <time>2022-07-14T07:43:53Z</time>
      </trkpt>
      <trkpt lat="44.78162" lon="5.7721">
        <ele>857.1</ele>
        <time>2022-07-14T07:43:55Z</time>
      </trkpt>
      <trkpt lat="44.78159" lon="5.7722">
        <ele>857.6</ele>
        <time>2022-07-14T07:43:57Z</time>
      </trkpt>
      <trkpt lat="44.78156" lon="5.77228">
        <ele>858</ele>
        <time>2022-07-14T07:43:59Z</time>
      </trkpt>
      <trkpt lat="44.78155" lon="5.77233">
        <ele>858.2</ele>
        <time>2022-07-14T07:44:00Z</time>
      </trkpt>
      <trkpt lat="44.78152" lon="5.77237">
        <ele>858.4</ele>
        <time>2022-07-14T07:44:01Z</time>
      </trkpt>
      <trkpt lat="44.7815" lon="5.77242">
        <ele>858.6</ele>
        <time>2022-07-14T07:44:02Z</time>
      </trkpt>
      <trkpt lat="44.78149" lon="5.77246">
        <ele>858.8</ele>
        <time>2022-07-14T07:44:03Z</time>
      </trkpt>
      <trkpt lat="44.78147" lon="5.77252">
        <ele>859</ele>
        <time>2022-07-14T07:44:04Z</time>
      </trkpt>
      <trkpt lat="44.78144" lon="5.7726">
        <ele>859.3</ele>
        <time>2022-07-14T07:44:06Z</time>
      </trkpt>
      <trkpt lat="44.78143" lon="5.77264">
        <ele>859.5</ele>
        <time>2022-07-14T07:44:07Z</time>
      </trkpt>
      <trkpt lat="44.7814" lon="5.77269">
        <ele>859.7</ele>
        <time>2022-07-14T07:44:08Z</time>
      </trkpt>
      <trkpt lat="44.78137" lon="5.77274">
        <ele>859.9</ele>
        <time>2022-07-14T07:44:09Z</time>
      </trkpt>
      <trkpt lat="44.78132" lon="5.77281">
        <ele>860.2</ele>
        <time>2022-07-14T07:44:11Z</time>
      </trkpt>
      <trkpt lat="44.78128" lon="5.77286">
        <ele>860.4</ele>
        <time>2022-07-14T07:44:12Z</time>
      </trkpt>
      <trkpt lat="44.78125" lon="5.7729">
        <ele>860.5</ele>
        <time>2022-07-14T07:44:13Z</time>
      </trkpt>
      <trkpt lat="44.78116" lon="5.77301">
        <ele>860.9</ele>
        <time>2022-07-14T07:44:16Z</time>
      </trkpt>
      <trkpt lat="44.78107" lon="5.77311">
        <ele>861.3</ele>
        <time>2022-07-14T07:44:19Z</time>
      </trkpt>
      <trkpt lat="44.78103" lon="5.77315">
        <ele>861.5</ele>
        <time>2022-07-14T07:44:20Z</time>
      </trkpt>
      <trkpt lat="44.78097" lon="5.77323">
        <ele>861.8</ele>
        <time>2022-07-14T07:44:22Z</time>
      </trkpt>
      <trkpt lat="44.78094" lon="5.77327">
        <ele>861.9</ele>
        <time>2022-07-14T07:44:23Z</time>
      </trkpt>
      <trkpt lat="44.78092" lon="5.77333">
        <ele>862.1</ele>
        <time>2022-07-14T07:44:24Z</time>
      </trkpt>
      <trkpt lat="44.78087" lon="5.77342">
        <ele>862.4</ele>
        <time>2022-07-14T07:44:25Z</time>
      </trkpt>
      <trkpt lat="44.78085" lon="5.77348">
        <ele>862.6</ele>
        <time>2022-07-14T07:44:27Z</time>
      </trkpt>
      <trkpt lat="44.78082" lon="5.77354">
        <ele>862.8</ele>
        <time>2022-07-14T07:44:28Z</time>
      </trkpt>
      <trkpt lat="44.7808" lon="5.77357">
        <ele>862.9</ele>
        <time>2022-07-14T07:44:29Z</time>
      </trkpt>
      <trkpt lat="44.78078" lon="5.77368">
        <ele>863.2</ele>
        <time>2022-07-14T07:44:31Z</time>
      </trkpt>
      <trkpt lat="44.78078" lon="5.77372">
        <ele>863.3</ele>
        <time>2022-07-14T07:44:32Z</time>
      </trkpt>
      <trkpt lat="44.78076" lon="5.77379">
        <ele>863.5</ele>
        <time>2022-07-14T07:44:33Z</time>
      </trkpt>
      <trkpt lat="44.78073" lon="5.7739">
        <ele>863.8</ele>
        <time>2022-07-14T07:44:35Z</time>
      </trkpt>
      <trkpt lat="44.78073" lon="5.77396">
        <ele>864</ele>
        <time>2022-07-14T07:44:36Z</time>
      </trkpt>
      <trkpt lat="44.78073" lon="5.774">
        <ele>864.2</ele>
        <time>2022-07-14T07:44:37Z</time>
      </trkpt>
      <trkpt lat="44.78072" lon="5.7741">
        <ele>864.5</ele>
        <time>2022-07-14T07:44:39Z</time>
      </trkpt>
      <trkpt lat="44.78071" lon="5.77416">
        <ele>864.7</ele>
        <time>2022-07-14T07:44:40Z</time>
      </trkpt>
      <trkpt lat="44.78069" lon="5.77423">
        <ele>865</ele>
        <time>2022-07-14T07:44:41Z</time>
      </trkpt>
      <trkpt lat="44.78069" lon="5.77433">
        <ele>865.4</ele>
        <time>2022-07-14T07:44:43Z</time>
      </trkpt>
      <trkpt lat="44.78068" lon="5.77437">
        <ele>865.5</ele>
        <time>2022-07-14T07:44:44Z</time>
      </trkpt>
      <trkpt lat="44.78067" lon="5.77447">
        <ele>865.8</ele>
        <time>2022-07-14T07:44:46Z</time>
      </trkpt>
      <trkpt lat="44.78067" lon="5.77453">
        <ele>866.1</ele>
        <time>2022-07-14T07:44:47Z</time>
      </trkpt>
      <trkpt lat="44.78068" lon="5.77463">
        <ele>866.4</ele>
        <time>2022-07-14T07:44:49Z</time>
      </trkpt>
      <trkpt lat="44.78068" lon="5.77468">
        <ele>866.6</ele>
        <time>2022-07-14T07:44:50Z</time>
      </trkpt>
      <trkpt lat="44.78068" lon="5.77479">
        <ele>867</ele>
        <time>2022-07-14T07:44:51Z</time>
      </trkpt>
      <trkpt lat="44.78069" lon="5.77485">
        <ele>867.2</ele>
        <time>2022-07-14T07:44:53Z</time>
      </trkpt>
      <trkpt lat="44.7807" lon="5.77491">
        <ele>867.4</ele>
        <time>2022-07-14T07:44:54Z</time>
      </trkpt>
      <trkpt lat="44.7807" lon="5.77503">
        <ele>867.7</ele>
        <time>2022-07-14T07:44:56Z</time>
      </trkpt>
      <trkpt lat="44.78071" lon="5.77508">
        <ele>867.9</ele>
        <time>2022-07-14T07:44:57Z</time>
      </trkpt>
      <trkpt lat="44.78071" lon="5.77512">
        <ele>868</ele>
        <time>2022-07-14T07:44:58Z</time>
      </trkpt>
      <trkpt lat="44.78072" lon="5.77523">
        <ele>868.3</ele>
        <time>2022-07-14T07:45:00Z</time>
      </trkpt>
      <trkpt lat="44.78073" lon="5.77529">
        <ele>868.5</ele>
        <time>2022-07-14T07:45:01Z</time>
      </trkpt>
      <trkpt lat="44.78073" lon="5.77534">
        <ele>868.6</ele>
        <time>2022-07-14T07:45:02Z</time>
      </trkpt>
      <trkpt lat="44.78073" lon="5.7754">
        <ele>868.8</ele>
        <time>2022-07-14T07:45:03Z</time>
      </trkpt>
      <trkpt lat="44.78074" lon="5.77551">
        <ele>869.1</ele>
        <time>2022-07-14T07:45:04Z</time>
      </trkpt>
      <trkpt lat="44.78074" lon="5.77557">
        <ele>869.3</ele>
        <time>2022-07-14T07:45:06Z</time>
      </trkpt>
      <trkpt lat="44.78075" lon="5.77563">
        <ele>869.5</ele>
        <time>2022-07-14T07:45:07Z</time>
      </trkpt>
      <trkpt lat="44.78075" lon="5.77567">
        <ele>869.6</ele>
        <time>2022-07-14T07:45:08Z</time>
      </trkpt>
      <trkpt lat="44.78076" lon="5.77574">
        <ele>869.8</ele>
        <time>2022-07-14T07:45:09Z</time>
      </trkpt>
      <trkpt lat="44.78077" lon="5.77584">
        <ele>870.1</ele>
        <time>2022-07-14T07:45:11Z</time>
      </trkpt>
      <trkpt lat="44.78077" lon="5.7759">
        <ele>870.3</ele>
        <time>2022-07-14T07:45:12Z</time>
      </trkpt>
      <trkpt lat="44.78078" lon="5.77596">
        <ele>870.5</ele>
        <time>2022-07-14T07:45:13Z</time>
      </trkpt>
      <trkpt lat="44.78078" lon="5.77606">
        <ele>870.8</ele>
        <time>2022-07-14T07:45:15Z</time>
      </trkpt>
      <trkpt lat="44.78078" lon="5.77613">
        <ele>871</ele>
        <time>2022-07-14T07:45:16Z</time>
      </trkpt>
      <trkpt lat="44.78078" lon="5.77617">
        <ele>871.2</ele>
        <time>2022-07-14T07:45:17Z</time>
      </trkpt>
      <trkpt lat="44.78078" lon="5.77622">
        <ele>871.3</ele>
        <time>2022-07-14T07:45:18Z</time>
      </trkpt>
      <trkpt lat="44.78078" lon="5.77631">
        <ele>871.6</ele>
        <time>2022-07-14T07:45:20Z</time>
      </trkpt>
      <trkpt lat="44.78079" lon="5.77639">
        <ele>871.9</ele>
        <time>2022-07-14T07:45:21Z</time>
      </trkpt>
      <trkpt lat="44.78079" lon="5.77645">
        <ele>872.1</ele>
        <time>2022-07-14T07:45:22Z</time>
      </trkpt>
      <trkpt lat="44.78079" lon="5.7765">
        <ele>872.3</ele>
        <time>2022-07-14T07:45:23Z</time>
      </trkpt>
      <trkpt lat="44.78079" lon="5.77659">
        <ele>872.6</ele>
        <time>2022-07-14T07:45:25Z</time>
      </trkpt>
      <trkpt lat="44.78078" lon="5.77665">
        <ele>872.8</ele>
        <time>2022-07-14T07:45:26Z</time>
      </trkpt>
      <trkpt lat="44.78078" lon="5.77671">
        <ele>873.1</ele>
        <time>2022-07-14T07:45:27Z</time>
      </trkpt>
      <trkpt lat="44.78077" lon="5.77678">
        <ele>873.4</ele>
        <time>2022-07-14T07:45:28Z</time>
      </trkpt>
      <trkpt lat="44.78076" lon="5.77687">
        <ele>873.7</ele>
        <time>2022-07-14T07:45:30Z</time>
      </trkpt>
      <trkpt lat="44.78075" lon="5.77695">
        <ele>874</ele>
        <time>2022-07-14T07:45:31Z</time>
      </trkpt>
      <trkpt lat="44.78075" lon="5.77699">
        <ele>874.1</ele>
        <time>2022-07-14T07:45:32Z</time>
      </trkpt>
      <trkpt lat="44.78074" lon="5.77707">
        <ele>874.4</ele>
        <time>2022-07-14T07:45:34Z</time>
      </trkpt>
      <trkpt lat="44.78073" lon="5.77714">
        <ele>874.7</ele>
        <time>2022-07-14T07:45:35Z</time>
      </trkpt>
      <trkpt lat="44.78072" lon="5.77718">
        <ele>874.8</ele>
        <time>2022-07-14T07:45:36Z</time>
      </trkpt>
      <trkpt lat="44.78072" lon="5.77723">
        <ele>875</ele>
        <time>2022-07-14T07:45:37Z</time>
      </trkpt>
      <trkpt lat="44.78072" lon="5.7773">
        <ele>875.2</ele>
        <time>2022-07-14T07:45:38Z</time>
      </trkpt>
      <trkpt lat="44.78072" lon="5.77737">
        <ele>875.4</ele>
        <time>2022-07-14T07:45:39Z</time>
      </trkpt>
      <trkpt lat="44.78073" lon="5.77746">
        <ele>875.7</ele>
        <time>2022-07-14T07:45:41Z</time>
      </trkpt>
      <trkpt lat="44.78074" lon="5.77755">
        <ele>876</ele>
        <time>2022-07-14T07:45:43Z</time>
      </trkpt>
      <trkpt lat="44.78076" lon="5.77765">
        <ele>876.3</ele>
        <time>2022-07-14T07:45:45Z</time>
      </trkpt>
      <trkpt lat="44.78076" lon="5.77772">
        <ele>876.6</ele>
        <time>2022-07-14T07:45:46Z</time>
      </trkpt>
      <trkpt lat="44.78078" lon="5.7778">
        <ele>876.8</ele>
        <time>2022-07-14T07:45:48Z</time>
      </trkpt>
      <trkpt lat="44.78078" lon="5.77784">
        <ele>877</ele>
        <time>2022-07-14T07:45:49Z</time>
      </trkpt>
      <trkpt lat="44.78079" lon="5.77794">
        <ele>877.2</ele>
        <time>2022-07-14T07:45:51Z</time>
      </trkpt>
      <trkpt lat="44.78079" lon="5.77799">
        <ele>877.4</ele>
        <time>2022-07-14T07:45:52Z</time>
      </trkpt>
      <trkpt lat="44.78079" lon="5.77804">
        <ele>877.5</ele>
        <time>2022-07-14T07:45:53Z</time>
      </trkpt>
      <trkpt lat="44.78078" lon="5.7781">
        <ele>877.7</ele>
        <time>2022-07-14T07:45:54Z</time>
      </trkpt>
      <trkpt lat="44.78077" lon="5.77821">
        <ele>878</ele>
        <time>2022-07-14T07:45:55Z</time>
      </trkpt>
      <trkpt lat="44.78077" lon="5.77826">
        <ele>878.1</ele>
        <time>2022-07-14T07:45:57Z</time>
      </trkpt>
      <trkpt lat="44.78078" lon="5.77833">
        <ele>878.2</ele>
        <time>2022-07-14T07:45:58Z</time>
      </trkpt>
      <trkpt lat="44.78078" lon="5.7784">
        <ele>878.3</ele>
        <time>2022-07-14T07:45:59Z</time>
      </trkpt>
      <trkpt lat="44.78079" lon="5.77846">
        <ele>878.4</ele>
        <time>2022-07-14T07:46:00Z</time>
      </trkpt>
      <trkpt lat="44.78079" lon="5.77854">
        <ele>878.5</ele>
        <time>2022-07-14T07:46:01Z</time>
      </trkpt>
      <trkpt lat="44.78078" lon="5.77863">
        <ele>878.6</ele>
        <time>2022-07-14T07:46:02Z</time>
      </trkpt>
      <trkpt lat="44.78079" lon="5.77871">
        <ele>878.6</ele>
        <time>2022-07-14T07:46:04Z</time>
      </trkpt>
      <trkpt lat="44.7808" lon="5.77882">
        <ele>878.7</ele>
        <time>2022-07-14T07:46:06Z</time>
      </trkpt>
      <trkpt lat="44.78082" lon="5.77889">
        <ele>878.7</ele>
        <time>2022-07-14T07:46:07Z</time>
      </trkpt>
      <trkpt lat="44.78084" lon="5.77897">
        <ele>878.6</ele>
        <time>2022-07-14T07:46:08Z</time>
      </trkpt>
      <trkpt lat="44.78082" lon="5.77911">
        <ele>878.5</ele>
        <time>2022-07-14T07:46:11Z</time>
      </trkpt>
      <trkpt lat="44.78083" lon="5.77918">
        <ele>878.4</ele>
        <time>2022-07-14T07:46:12Z</time>
      </trkpt>
      <trkpt lat="44.78083" lon="5.77925">
        <ele>878.4</ele>
        <time>2022-07-14T07:46:13Z</time>
      </trkpt>
      <trkpt lat="44.78082" lon="5.77932">
        <ele>878.3</ele>
        <time>2022-07-14T07:46:14Z</time>
      </trkpt>
      <trkpt lat="44.78083" lon="5.77939">
        <ele>878.3</ele>
        <time>2022-07-14T07:46:15Z</time>
      </trkpt>
      <trkpt lat="44.78083" lon="5.77945">
        <ele>878.3</ele>
        <time>2022-07-14T07:46:16Z</time>
      </trkpt>
      <trkpt lat="44.78083" lon="5.77952">
        <ele>878.2</ele>
        <time>2022-07-14T07:46:17Z</time>
      </trkpt>
      <trkpt lat="44.78083" lon="5.77959">
        <ele>878.2</ele>
        <time>2022-07-14T07:46:18Z</time>
      </trkpt>
      <trkpt lat="44.78084" lon="5.77967">
        <ele>878.2</ele>
        <time>2022-07-14T07:46:19Z</time>
      </trkpt>
      <trkpt lat="44.78084" lon="5.77975">
        <ele>878.2</ele>
        <time>2022-07-14T07:46:20Z</time>
      </trkpt>
      <trkpt lat="44.78084" lon="5.77983">
        <ele>878.1</ele>
        <time>2022-07-14T07:46:21Z</time>
      </trkpt>
      <trkpt lat="44.78082" lon="5.77991">
        <ele>878.1</ele>
        <time>2022-07-14T07:46:22Z</time>
      </trkpt>
      <trkpt lat="44.78079" lon="5.77997">
        <ele>878</ele>
        <time>2022-07-14T07:46:23Z</time>
      </trkpt>
      <trkpt lat="44.78075" lon="5.78002">
        <ele>878</ele>
        <time>2022-07-14T07:46:24Z</time>
      </trkpt>
      <trkpt lat="44.7807" lon="5.78006">
        <ele>877.9</ele>
        <time>2022-07-14T07:46:25Z</time>
      </trkpt>
      <trkpt lat="44.78064" lon="5.78009">
        <ele>877.9</ele>
        <time>2022-07-14T07:46:26Z</time>
      </trkpt>
      <trkpt lat="44.78058" lon="5.78011">
        <ele>877.9</ele>
        <time>2022-07-14T07:46:27Z</time>
      </trkpt>
      <trkpt lat="44.78053" lon="5.78013">
        <ele>877.9</ele>
        <time>2022-07-14T07:46:28Z</time>
      </trkpt>
      <trkpt lat="44.78047" lon="5.78015">
        <ele>878</ele>
        <time>2022-07-14T07:46:29Z</time>
      </trkpt>
      <trkpt lat="44.78042" lon="5.78017">
        <ele>878.1</ele>
        <time>2022-07-14T07:46:30Z</time>
      </trkpt>
      <trkpt lat="44.78038" lon="5.78019">
        <ele>878.2</ele>
        <time>2022-07-14T07:46:31Z</time>
      </trkpt>
      <trkpt lat="44.78033" lon="5.78022">
        <ele>878.4</ele>
        <time>2022-07-14T07:46:32Z</time>
      </trkpt>
      <trkpt lat="44.78028" lon="5.78024">
        <ele>878.6</ele>
        <time>2022-07-14T07:46:33Z</time>
      </trkpt>
      <trkpt lat="44.78024" lon="5.78027">
        <ele>878.8</ele>
        <time>2022-07-14T07:46:34Z</time>
      </trkpt>
      <trkpt lat="44.78021" lon="5.78029">
        <ele>879</ele>
        <time>2022-07-14T07:46:35Z</time>
      </trkpt>
      <trkpt lat="44.78017" lon="5.78032">
        <ele>879.2</ele>
        <time>2022-07-14T07:46:36Z</time>
      </trkpt>
      <trkpt lat="44.78016" lon="5.78032">
        <ele>879.3</ele>
        <time>2022-07-14T07:46:37Z</time>
      </trkpt>
      <trkpt lat="44.78012" lon="5.78034">
        <ele>879.6</ele>
        <time>2022-07-14T07:46:38Z</time>
      </trkpt>
      <trkpt lat="44.78009" lon="5.78035">
        <ele>879.8</ele>
        <time>2022-07-14T07:46:39Z</time>
      </trkpt>
      <trkpt lat="44.78005" lon="5.78036">
        <ele>880</ele>
        <time>2022-07-14T07:46:40Z</time>
      </trkpt>
      <trkpt lat="44.78001" lon="5.78036">
        <ele>880.4</ele>
        <time>2022-07-14T07:46:41Z</time>
      </trkpt>
      <trkpt lat="44.78002" lon="5.78033">
        <ele>880.6</ele>
        <time>2022-07-14T07:46:42Z</time>
      </trkpt>
      <trkpt lat="44.7799" lon="5.78042">
        <ele>881.6</ele>
        <time>2022-07-14T07:46:44Z</time>
      </trkpt>
      <trkpt lat="44.77986" lon="5.78047">
        <ele>882</ele>
        <time>2022-07-14T07:46:45Z</time>
      </trkpt>
      <trkpt lat="44.77978" lon="5.78053">
        <ele>882.7</ele>
        <time>2022-07-14T07:46:48Z</time>
      </trkpt>
      <trkpt lat="44.77973" lon="5.78056">
        <ele>883.1</ele>
        <time>2022-07-14T07:46:49Z</time>
      </trkpt>
      <trkpt lat="44.77971" lon="5.78059">
        <ele>883.3</ele>
        <time>2022-07-14T07:46:50Z</time>
      </trkpt>
      <trkpt lat="44.77968" lon="5.78063">
        <ele>883.6</ele>
        <time>2022-07-14T07:46:51Z</time>
      </trkpt>
      <trkpt lat="44.77962" lon="5.78071">
        <ele>884.1</ele>
        <time>2022-07-14T07:46:54Z</time>
      </trkpt>
      <trkpt lat="44.7796" lon="5.78074">
        <ele>884.3</ele>
        <time>2022-07-14T07:46:55Z</time>
      </trkpt>
      <trkpt lat="44.77957" lon="5.78077">
        <ele>884.5</ele>
        <time>2022-07-14T07:46:56Z</time>
      </trkpt>
      <trkpt lat="44.77955" lon="5.78082">
        <ele>884.8</ele>
        <time>2022-07-14T07:46:57Z</time>
      </trkpt>
      <trkpt lat="44.77953" lon="5.78087">
        <ele>885</ele>
        <time>2022-07-14T07:46:58Z</time>
      </trkpt>
      <trkpt lat="44.77948" lon="5.78093">
        <ele>885.4</ele>
        <time>2022-07-14T07:47:00Z</time>
      </trkpt>
      <trkpt lat="44.77942" lon="5.78099">
        <ele>885.9</ele>
        <time>2022-07-14T07:47:02Z</time>
      </trkpt>
      <trkpt lat="44.7794" lon="5.78102">
        <ele>886.1</ele>
        <time>2022-07-14T07:47:03Z</time>
      </trkpt>
      <trkpt lat="44.77935" lon="5.78108">
        <ele>886.5</ele>
        <time>2022-07-14T07:47:05Z</time>
      </trkpt>
      <trkpt lat="44.77931" lon="5.7811">
        <ele>886.7</ele>
        <time>2022-07-14T07:47:06Z</time>
      </trkpt>
      <trkpt lat="44.77928" lon="5.78111">
        <ele>886.9</ele>
        <time>2022-07-14T07:47:07Z</time>
      </trkpt>
      <trkpt lat="44.77927" lon="5.78111">
        <ele>887</ele>
        <time>2022-07-14T07:47:08Z</time>
      </trkpt>
      <trkpt lat="44.77922" lon="5.78114">
        <ele>887.3</ele>
        <time>2022-07-14T07:47:10Z</time>
      </trkpt>
      <trkpt lat="44.77917" lon="5.78118">
        <ele>887.6</ele>
        <time>2022-07-14T07:47:12Z</time>
      </trkpt>
      <trkpt lat="44.77913" lon="5.78121">
        <ele>887.8</ele>
        <time>2022-07-14T07:47:13Z</time>
      </trkpt>
      <trkpt lat="44.77909" lon="5.78123">
        <ele>888.1</ele>
        <time>2022-07-14T07:47:14Z</time>
      </trkpt>
      <trkpt lat="44.77904" lon="5.78126">
        <ele>888.3</ele>
        <time>2022-07-14T07:47:15Z</time>
      </trkpt>
      <trkpt lat="44.779" lon="5.78129">
        <ele>888.4</ele>
        <time>2022-07-14T07:47:17Z</time>
      </trkpt>
      <trkpt lat="44.77895" lon="5.78132">
        <ele>888.6</ele>
        <time>2022-07-14T07:47:18Z</time>
      </trkpt>
      <trkpt lat="44.77889" lon="5.78136">
        <ele>888.8</ele>
        <time>2022-07-14T07:47:20Z</time>
      </trkpt>
      <trkpt lat="44.77885" lon="5.78137">
        <ele>888.9</ele>
        <time>2022-07-14T07:47:21Z</time>
      </trkpt>
      <trkpt lat="44.7788" lon="5.7814">
        <ele>888.9</ele>
        <time>2022-07-14T07:47:22Z</time>
      </trkpt>
      <trkpt lat="44.77876" lon="5.78141">
        <ele>889</ele>
        <time>2022-07-14T07:47:23Z</time>
      </trkpt>
      <trkpt lat="44.77871" lon="5.78143">
        <ele>889</ele>
        <time>2022-07-14T07:47:24Z</time>
      </trkpt>
      <trkpt lat="44.7786" lon="5.7815">
        <ele>889.1</ele>
        <time>2022-07-14T07:47:27Z</time>
      </trkpt>
      <trkpt lat="44.77856" lon="5.78152">
        <ele>889.1</ele>
        <time>2022-07-14T07:47:28Z</time>
      </trkpt>
      <trkpt lat="44.77851" lon="5.78155">
        <ele>889.1</ele>
        <time>2022-07-14T07:47:29Z</time>
      </trkpt>
      <trkpt lat="44.77846" lon="5.78158">
        <ele>889.1</ele>
        <time>2022-07-14T07:47:30Z</time>
      </trkpt>
      <trkpt lat="44.77841" lon="5.78161">
        <ele>889.1</ele>
        <time>2022-07-14T07:47:31Z</time>
      </trkpt>
      <trkpt lat="44.77837" lon="5.78163">
        <ele>889.1</ele>
        <time>2022-07-14T07:47:32Z</time>
      </trkpt>
      <trkpt lat="44.77832" lon="5.78166">
        <ele>889.2</ele>
        <time>2022-07-14T07:47:33Z</time>
      </trkpt>
      <trkpt lat="44.77827" lon="5.78169">
        <ele>889.2</ele>
        <time>2022-07-14T07:47:34Z</time>
      </trkpt>
      <trkpt lat="44.77822" lon="5.78171">
        <ele>889.2</ele>
        <time>2022-07-14T07:47:35Z</time>
      </trkpt>
      <trkpt lat="44.77818" lon="5.78174">
        <ele>889.3</ele>
        <time>2022-07-14T07:47:36Z</time>
      </trkpt>
      <trkpt lat="44.77813" lon="5.78176">
        <ele>889.2</ele>
        <time>2022-07-14T07:47:37Z</time>
      </trkpt>
      <trkpt lat="44.77808" lon="5.78178">
        <ele>889.2</ele>
        <time>2022-07-14T07:47:38Z</time>
      </trkpt>
      <trkpt lat="44.77802" lon="5.78179">
        <ele>889.2</ele>
        <time>2022-07-14T07:47:39Z</time>
      </trkpt>
      <trkpt lat="44.77797" lon="5.78181">
        <ele>889.2</ele>
        <time>2022-07-14T07:47:40Z</time>
      </trkpt>
      <trkpt lat="44.77791" lon="5.78182">
        <ele>889.3</ele>
        <time>2022-07-14T07:47:41Z</time>
      </trkpt>
      <trkpt lat="44.77786" lon="5.78184">
        <ele>889.3</ele>
        <time>2022-07-14T07:47:42Z</time>
      </trkpt>
      <trkpt lat="44.77781" lon="5.78185">
        <ele>889.4</ele>
        <time>2022-07-14T07:47:43Z</time>
      </trkpt>
      <trkpt lat="44.77775" lon="5.78186">
        <ele>889.4</ele>
        <time>2022-07-14T07:47:44Z</time>
      </trkpt>
      <trkpt lat="44.7777" lon="5.78188">
        <ele>889.4</ele>
        <time>2022-07-14T07:47:45Z</time>
      </trkpt>
      <trkpt lat="44.77764" lon="5.78188">
        <ele>889.4</ele>
        <time>2022-07-14T07:47:46Z</time>
      </trkpt>
      <trkpt lat="44.77759" lon="5.78189">
        <ele>889.4</ele>
        <time>2022-07-14T07:47:47Z</time>
      </trkpt>
      <trkpt lat="44.77753" lon="5.78189">
        <ele>889.4</ele>
        <time>2022-07-14T07:47:48Z</time>
      </trkpt>
      <trkpt lat="44.77748" lon="5.7819">
        <ele>889.4</ele>
        <time>2022-07-14T07:47:49Z</time>
      </trkpt>
      <trkpt lat="44.77743" lon="5.78191">
        <ele>889.4</ele>
        <time>2022-07-14T07:47:50Z</time>
      </trkpt>
      <trkpt lat="44.77738" lon="5.78192">
        <ele>889.3</ele>
        <time>2022-07-14T07:47:51Z</time>
      </trkpt>
      <trkpt lat="44.77732" lon="5.78193">
        <ele>889.3</ele>
        <time>2022-07-14T07:47:52Z</time>
      </trkpt>
      <trkpt lat="44.77725" lon="5.78195">
        <ele>889.3</ele>
        <time>2022-07-14T07:47:53Z</time>
      </trkpt>
      <trkpt lat="44.77719" lon="5.78196">
        <ele>889.3</ele>
        <time>2022-07-14T07:47:54Z</time>
      </trkpt>
      <trkpt lat="44.77713" lon="5.78196">
        <ele>889.3</ele>
        <time>2022-07-14T07:47:55Z</time>
      </trkpt>
      <trkpt lat="44.77707" lon="5.78195">
        <ele>889.3</ele>
        <time>2022-07-14T07:47:56Z</time>
      </trkpt>
      <trkpt lat="44.77701" lon="5.78193">
        <ele>889.3</ele>
        <time>2022-07-14T07:47:57Z</time>
      </trkpt>
      <trkpt lat="44.77695" lon="5.78191">
        <ele>889.3</ele>
        <time>2022-07-14T07:47:58Z</time>
      </trkpt>
      <trkpt lat="44.77689" lon="5.78187">
        <ele>889.4</ele>
        <time>2022-07-14T07:47:59Z</time>
      </trkpt>
      <trkpt lat="44.77684" lon="5.78183">
        <ele>889.4</ele>
        <time>2022-07-14T07:48:00Z</time>
      </trkpt>
      <trkpt lat="44.77679" lon="5.78179">
        <ele>889.5</ele>
        <time>2022-07-14T07:48:01Z</time>
      </trkpt>
      <trkpt lat="44.77673" lon="5.78176">
        <ele>889.6</ele>
        <time>2022-07-14T07:48:02Z</time>
      </trkpt>
      <trkpt lat="44.77668" lon="5.78173">
        <ele>889.7</ele>
        <time>2022-07-14T07:48:03Z</time>
      </trkpt>
      <trkpt lat="44.77662" lon="5.78171">
        <ele>889.8</ele>
        <time>2022-07-14T07:48:04Z</time>
      </trkpt>
      <trkpt lat="44.77656" lon="5.7817">
        <ele>889.9</ele>
        <time>2022-07-14T07:48:05Z</time>
      </trkpt>
      <trkpt lat="44.77651" lon="5.78171">
        <ele>890</ele>
        <time>2022-07-14T07:48:06Z</time>
      </trkpt>
      <trkpt lat="44.77645" lon="5.78173">
        <ele>890.2</ele>
        <time>2022-07-14T07:48:07Z</time>
      </trkpt>
      <trkpt lat="44.7764" lon="5.78175">
        <ele>890.4</ele>
        <time>2022-07-14T07:48:08Z</time>
      </trkpt>
      <trkpt lat="44.77635" lon="5.78177">
        <ele>890.5</ele>
        <time>2022-07-14T07:48:09Z</time>
      </trkpt>
      <trkpt lat="44.7763" lon="5.78179">
        <ele>890.7</ele>
        <time>2022-07-14T07:48:10Z</time>
      </trkpt>
      <trkpt lat="44.77626" lon="5.78182">
        <ele>890.9</ele>
        <time>2022-07-14T07:48:11Z</time>
      </trkpt>
      <trkpt lat="44.77621" lon="5.78185">
        <ele>891.1</ele>
        <time>2022-07-14T07:48:12Z</time>
      </trkpt>
      <trkpt lat="44.77617" lon="5.78187">
        <ele>891.3</ele>
        <time>2022-07-14T07:48:13Z</time>
      </trkpt>
      <trkpt lat="44.77613" lon="5.7819">
        <ele>891.5</ele>
        <time>2022-07-14T07:48:14Z</time>
      </trkpt>
      <trkpt lat="44.7761" lon="5.78192">
        <ele>891.6</ele>
        <time>2022-07-14T07:48:15Z</time>
      </trkpt>
      <trkpt lat="44.77606" lon="5.78194">
        <ele>891.8</ele>
        <time>2022-07-14T07:48:16Z</time>
      </trkpt>
      <trkpt lat="44.776" lon="5.78196">
        <ele>892.1</ele>
        <time>2022-07-14T07:48:17Z</time>
      </trkpt>
      <trkpt lat="44.77597" lon="5.78197">
        <ele>892.2</ele>
        <time>2022-07-14T07:48:18Z</time>
      </trkpt>
      <trkpt lat="44.77591" lon="5.78199">
        <ele>892.4</ele>
        <time>2022-07-14T07:48:19Z</time>
      </trkpt>
      <trkpt lat="44.77586" lon="5.78201">
        <ele>892.7</ele>
        <time>2022-07-14T07:48:20Z</time>
      </trkpt>
      <trkpt lat="44.77576" lon="5.78203">
        <ele>893.1</ele>
        <time>2022-07-14T07:48:21Z</time>
      </trkpt>
      <trkpt lat="44.77577" lon="5.78209">
        <ele>893.3</ele>
        <time>2022-07-14T07:48:23Z</time>
      </trkpt>
      <trkpt lat="44.77567" lon="5.78209">
        <ele>893.7</ele>
        <time>2022-07-14T07:48:24Z</time>
      </trkpt>
      <trkpt lat="44.77562" lon="5.7821">
        <ele>893.9</ele>
        <time>2022-07-14T07:48:25Z</time>
      </trkpt>
      <trkpt lat="44.77557" lon="5.78209">
        <ele>894.2</ele>
        <time>2022-07-14T07:48:26Z</time>
      </trkpt>
      <trkpt lat="44.77549" lon="5.7821">
        <ele>894.5</ele>
        <time>2022-07-14T07:48:28Z</time>
      </trkpt>
      <trkpt lat="44.77545" lon="5.78212">
        <ele>894.7</ele>
        <time>2022-07-14T07:48:29Z</time>
      </trkpt>
      <trkpt lat="44.77538" lon="5.78211">
        <ele>895</ele>
        <time>2022-07-14T07:48:31Z</time>
      </trkpt>
      <trkpt lat="44.77534" lon="5.78211">
        <ele>895.1</ele>
        <time>2022-07-14T07:48:32Z</time>
      </trkpt>
      <trkpt lat="44.77528" lon="5.78213">
        <ele>895.4</ele>
        <time>2022-07-14T07:48:33Z</time>
      </trkpt>
      <trkpt lat="44.77516" lon="5.78214">
        <ele>895.8</ele>
        <time>2022-07-14T07:48:35Z</time>
      </trkpt>
      <trkpt lat="44.77511" lon="5.78216">
        <ele>895.9</ele>
        <time>2022-07-14T07:48:36Z</time>
      </trkpt>
      <trkpt lat="44.77504" lon="5.78215">
        <ele>896.2</ele>
        <time>2022-07-14T07:48:38Z</time>
      </trkpt>
      <trkpt lat="44.77499" lon="5.78214">
        <ele>896.4</ele>
        <time>2022-07-14T07:48:39Z</time>
      </trkpt>
      <trkpt lat="44.77494" lon="5.78214">
        <ele>896.6</ele>
        <time>2022-07-14T07:48:41Z</time>
      </trkpt>
      <trkpt lat="44.77487" lon="5.78213">
        <ele>896.8</ele>
        <time>2022-07-14T07:48:42Z</time>
      </trkpt>
      <trkpt lat="44.77485" lon="5.78212">
        <ele>896.9</ele>
        <time>2022-07-14T07:48:43Z</time>
      </trkpt>
      <trkpt lat="44.77481" lon="5.78212">
        <ele>897.1</ele>
        <time>2022-07-14T07:48:44Z</time>
      </trkpt>
      <trkpt lat="44.77473" lon="5.78207">
        <ele>897.4</ele>
        <time>2022-07-14T07:48:46Z</time>
      </trkpt>
      <trkpt lat="44.77469" lon="5.78205">
        <ele>897.6</ele>
        <time>2022-07-14T07:48:47Z</time>
      </trkpt>
      <trkpt lat="44.77465" lon="5.78202">
        <ele>897.7</ele>
        <time>2022-07-14T07:48:48Z</time>
      </trkpt>
      <trkpt lat="44.77462" lon="5.782">
        <ele>897.8</ele>
        <time>2022-07-14T07:48:49Z</time>
      </trkpt>
      <trkpt lat="44.77451" lon="5.78191">
        <ele>898.1</ele>
        <time>2022-07-14T07:48:52Z</time>
      </trkpt>
      <trkpt lat="44.77445" lon="5.78188">
        <ele>898.2</ele>
        <time>2022-07-14T07:48:53Z</time>
      </trkpt>
      <trkpt lat="44.77439" lon="5.78184">
        <ele>898.2</ele>
        <time>2022-07-14T07:48:54Z</time>
      </trkpt>
      <trkpt lat="44.77433" lon="5.78181">
        <ele>898.3</ele>
        <time>2022-07-14T07:48:55Z</time>
      </trkpt>
      <trkpt lat="44.77427" lon="5.78177">
        <ele>898.4</ele>
        <time>2022-07-14T07:48:56Z</time>
      </trkpt>
      <trkpt lat="44.7742" lon="5.78173">
        <ele>898.5</ele>
        <time>2022-07-14T07:48:57Z</time>
      </trkpt>
      <trkpt lat="44.77413" lon="5.78171">
        <ele>898.7</ele>
        <time>2022-07-14T07:48:58Z</time>
      </trkpt>
      <trkpt lat="44.77407" lon="5.78171">
        <ele>898.7</ele>
        <time>2022-07-14T07:48:59Z</time>
      </trkpt>
      <trkpt lat="44.77401" lon="5.78171">
        <ele>898.5</ele>
        <time>2022-07-14T07:49:00Z</time>
      </trkpt>
      <trkpt lat="44.77395" lon="5.78172">
        <ele>898.4</ele>
        <time>2022-07-14T07:49:01Z</time>
      </trkpt>
      <trkpt lat="44.77389" lon="5.78173">
        <ele>898.5</ele>
        <time>2022-07-14T07:49:02Z</time>
      </trkpt>
      <trkpt lat="44.77384" lon="5.78174">
        <ele>898.7</ele>
        <time>2022-07-14T07:49:03Z</time>
      </trkpt>
      <trkpt lat="44.77379" lon="5.78175">
        <ele>898.9</ele>
        <time>2022-07-14T07:49:04Z</time>
      </trkpt>
      <trkpt lat="44.77375" lon="5.78176">
        <ele>899.2</ele>
        <time>2022-07-14T07:49:05Z</time>
      </trkpt>
      <trkpt lat="44.77372" lon="5.78176">
        <ele>899.3</ele>
        <time>2022-07-14T07:49:06Z</time>
      </trkpt>
      <trkpt lat="44.77368" lon="5.78176">
        <ele>899.6</ele>
        <time>2022-07-14T07:49:07Z</time>
      </trkpt>
      <trkpt lat="44.77363" lon="5.78176">
        <ele>899.9</ele>
        <time>2022-07-14T07:49:08Z</time>
      </trkpt>
      <trkpt lat="44.77358" lon="5.78176">
        <ele>900.3</ele>
        <time>2022-07-14T07:49:09Z</time>
      </trkpt>
      <trkpt lat="44.77346" lon="5.78176">
        <ele>901.2</ele>
        <time>2022-07-14T07:49:10Z</time>
      </trkpt>
      <trkpt lat="44.77346" lon="5.78176">
        <ele>901.2</ele>
        <time>2022-07-14T07:49:12Z</time>
      </trkpt>
      <trkpt lat="44.7734" lon="5.78175">
        <ele>901.7</ele>
        <time>2022-07-14T07:49:13Z</time>
      </trkpt>
      <trkpt lat="44.77333" lon="5.78175">
        <ele>902.3</ele>
        <time>2022-07-14T07:49:14Z</time>
      </trkpt>
      <trkpt lat="44.77321" lon="5.78173">
        <ele>903.2</ele>
        <time>2022-07-14T07:49:17Z</time>
      </trkpt>
      <trkpt lat="44.77316" lon="5.78174">
        <ele>903.6</ele>
        <time>2022-07-14T07:49:18Z</time>
      </trkpt>
      <trkpt lat="44.7731" lon="5.78172">
        <ele>904.1</ele>
        <time>2022-07-14T07:49:20Z</time>
      </trkpt>
      <trkpt lat="44.77305" lon="5.78172">
        <ele>904.4</ele>
        <time>2022-07-14T07:49:21Z</time>
      </trkpt>
      <trkpt lat="44.77298" lon="5.78172">
        <ele>904.9</ele>
        <time>2022-07-14T07:49:23Z</time>
      </trkpt>
      <trkpt lat="44.77293" lon="5.78171">
        <ele>905.3</ele>
        <time>2022-07-14T07:49:25Z</time>
      </trkpt>
      <trkpt lat="44.7729" lon="5.78171">
        <ele>905.5</ele>
        <time>2022-07-14T07:49:26Z</time>
      </trkpt>
      <trkpt lat="44.77286" lon="5.78171">
        <ele>905.9</ele>
        <time>2022-07-14T07:49:27Z</time>
      </trkpt>
      <trkpt lat="44.77281" lon="5.7817">
        <ele>906.2</ele>
        <time>2022-07-14T07:49:29Z</time>
      </trkpt>
      <trkpt lat="44.77278" lon="5.7817">
        <ele>906.4</ele>
        <time>2022-07-14T07:49:30Z</time>
      </trkpt>
      <trkpt lat="44.77273" lon="5.78172">
        <ele>906.8</ele>
        <time>2022-07-14T07:49:31Z</time>
      </trkpt>
      <trkpt lat="44.77268" lon="5.78174">
        <ele>907.2</ele>
        <time>2022-07-14T07:49:32Z</time>
      </trkpt>
      <trkpt lat="44.77265" lon="5.78176">
        <ele>907.4</ele>
        <time>2022-07-14T07:49:34Z</time>
      </trkpt>
      <trkpt lat="44.77263" lon="5.78176">
        <ele>907.6</ele>
        <time>2022-07-14T07:49:35Z</time>
      </trkpt>
      <trkpt lat="44.77258" lon="5.78178">
        <ele>907.9</ele>
        <time>2022-07-14T07:49:36Z</time>
      </trkpt>
      <trkpt lat="44.77256" lon="5.78179">
        <ele>908</ele>
        <time>2022-07-14T07:49:37Z</time>
      </trkpt>
      <trkpt lat="44.77248" lon="5.78183">
        <ele>908.6</ele>
        <time>2022-07-14T07:49:40Z</time>
      </trkpt>
      <trkpt lat="44.77244" lon="5.78184">
        <ele>908.8</ele>
        <time>2022-07-14T07:49:41Z</time>
      </trkpt>
      <trkpt lat="44.77237" lon="5.78187">
        <ele>909.3</ele>
        <time>2022-07-14T07:49:43Z</time>
      </trkpt>
      <trkpt lat="44.77234" lon="5.78187">
        <ele>909.5</ele>
        <time>2022-07-14T07:49:44Z</time>
      </trkpt>
      <trkpt lat="44.77228" lon="5.7819">
        <ele>909.9</ele>
        <time>2022-07-14T07:49:46Z</time>
      </trkpt>
      <trkpt lat="44.77225" lon="5.78191">
        <ele>910.2</ele>
        <time>2022-07-14T07:49:47Z</time>
      </trkpt>
      <trkpt lat="44.7722" lon="5.78191">
        <ele>910.5</ele>
        <time>2022-07-14T07:49:49Z</time>
      </trkpt>
      <trkpt lat="44.77217" lon="5.78191">
        <ele>910.7</ele>
        <time>2022-07-14T07:49:50Z</time>
      </trkpt>
      <trkpt lat="44.77211" lon="5.78191">
        <ele>911.1</ele>
        <time>2022-07-14T07:49:52Z</time>
      </trkpt>
      <trkpt lat="44.77208" lon="5.78192">
        <ele>911.3</ele>
        <time>2022-07-14T07:49:53Z</time>
      </trkpt>
      <trkpt lat="44.77203" lon="5.78192">
        <ele>911.7</ele>
        <time>2022-07-14T07:49:55Z</time>
      </trkpt>
      <trkpt lat="44.77198" lon="5.7819">
        <ele>912.1</ele>
        <time>2022-07-14T07:49:57Z</time>
      </trkpt>
      <trkpt lat="44.77196" lon="5.78191">
        <ele>912.2</ele>
        <time>2022-07-14T07:49:58Z</time>
      </trkpt>
      <trkpt lat="44.77191" lon="5.7819">
        <ele>912.7</ele>
        <time>2022-07-14T07:50:00Z</time>
      </trkpt>
      <trkpt lat="44.77186" lon="5.7819">
        <ele>913</ele>
        <time>2022-07-14T07:50:02Z</time>
      </trkpt>
      <trkpt lat="44.77182" lon="5.7819">
        <ele>913.4</ele>
        <time>2022-07-14T07:50:03Z</time>
      </trkpt>
      <trkpt lat="44.77179" lon="5.78189">
        <ele>913.5</ele>
        <time>2022-07-14T07:50:04Z</time>
      </trkpt>
      <trkpt lat="44.77176" lon="5.7819">
        <ele>913.8</ele>
        <time>2022-07-14T07:50:06Z</time>
      </trkpt>
      <trkpt lat="44.77174" lon="5.7819">
        <ele>913.9</ele>
        <time>2022-07-14T07:50:07Z</time>
      </trkpt>
      <trkpt lat="44.77169" lon="5.78189">
        <ele>914.4</ele>
        <time>2022-07-14T07:50:09Z</time>
      </trkpt>
      <trkpt lat="44.77166" lon="5.78188">
        <ele>914.6</ele>
        <time>2022-07-14T07:50:10Z</time>
      </trkpt>
      <trkpt lat="44.77164" lon="5.78188">
        <ele>914.8</ele>
        <time>2022-07-14T07:50:11Z</time>
      </trkpt>
      <trkpt lat="44.77159" lon="5.78188">
        <ele>915.1</ele>
        <time>2022-07-14T07:50:13Z</time>
      </trkpt>
      <trkpt lat="44.77156" lon="5.78187">
        <ele>915.4</ele>
        <time>2022-07-14T07:50:14Z</time>
      </trkpt>
      <trkpt lat="44.77151" lon="5.78187">
        <ele>915.8</ele>
        <time>2022-07-14T07:50:16Z</time>
      </trkpt>
      <trkpt lat="44.77148" lon="5.78186">
        <ele>916.1</ele>
        <time>2022-07-14T07:50:17Z</time>
      </trkpt>
      <trkpt lat="44.77147" lon="5.78185">
        <ele>916.2</ele>
        <time>2022-07-14T07:50:18Z</time>
      </trkpt>
      <trkpt lat="44.77144" lon="5.78185">
        <ele>916.4</ele>
        <time>2022-07-14T07:50:19Z</time>
      </trkpt>
      <trkpt lat="44.77143" lon="5.78186">
        <ele>916.5</ele>
        <time>2022-07-14T07:50:20Z</time>
      </trkpt>
      <trkpt lat="44.77138" lon="5.78184">
        <ele>916.9</ele>
        <time>2022-07-14T07:50:22Z</time>
      </trkpt>
      <trkpt lat="44.77135" lon="5.78184">
        <ele>917.1</ele>
        <time>2022-07-14T07:50:23Z</time>
      </trkpt>
      <trkpt lat="44.77133" lon="5.78183">
        <ele>917.3</ele>
        <time>2022-07-14T07:50:24Z</time>
      </trkpt>
      <trkpt lat="44.7713" lon="5.78185">
        <ele>917.6</ele>
        <time>2022-07-14T07:50:25Z</time>
      </trkpt>
      <trkpt lat="44.77128" lon="5.78185">
        <ele>917.8</ele>
        <time>2022-07-14T07:50:26Z</time>
      </trkpt>
      <trkpt lat="44.77125" lon="5.78184">
        <ele>918</ele>
        <time>2022-07-14T07:50:28Z</time>
      </trkpt>
      <trkpt lat="44.77122" lon="5.78185">
        <ele>918.3</ele>
        <time>2022-07-14T07:50:29Z</time>
      </trkpt>
      <trkpt lat="44.7712" lon="5.78185">
        <ele>918.5</ele>
        <time>2022-07-14T07:50:30Z</time>
      </trkpt>
      <trkpt lat="44.77116" lon="5.78185">
        <ele>918.8</ele>
        <time>2022-07-14T07:50:32Z</time>
      </trkpt>
      <trkpt lat="44.77111" lon="5.78185">
        <ele>919.3</ele>
        <time>2022-07-14T07:50:34Z</time>
      </trkpt>
      <trkpt lat="44.77107" lon="5.78185">
        <ele>919.7</ele>
        <time>2022-07-14T07:50:36Z</time>
      </trkpt>
      <trkpt lat="44.77104" lon="5.78186">
        <ele>920</ele>
        <time>2022-07-14T07:50:37Z</time>
      </trkpt>
      <trkpt lat="44.771" lon="5.78186">
        <ele>920.3</ele>
        <time>2022-07-14T07:50:38Z</time>
      </trkpt>
      <trkpt lat="44.77098" lon="5.78186">
        <ele>920.5</ele>
        <time>2022-07-14T07:50:39Z</time>
      </trkpt>
      <trkpt lat="44.77093" lon="5.78186">
        <ele>921</ele>
        <time>2022-07-14T07:50:41Z</time>
      </trkpt>
      <trkpt lat="44.77091" lon="5.78187">
        <ele>921.1</ele>
        <time>2022-07-14T07:50:42Z</time>
      </trkpt>
      <trkpt lat="44.77086" lon="5.78187">
        <ele>921.7</ele>
        <time>2022-07-14T07:50:44Z</time>
      </trkpt>
      <trkpt lat="44.77083" lon="5.78188">
        <ele>921.9</ele>
        <time>2022-07-14T07:50:45Z</time>
      </trkpt>
      <trkpt lat="44.77078" lon="5.78188">
        <ele>922.5</ele>
        <time>2022-07-14T07:50:48Z</time>
      </trkpt>
      <trkpt lat="44.77074" lon="5.78187">
        <ele>922.8</ele>
        <time>2022-07-14T07:50:49Z</time>
      </trkpt>
      <trkpt lat="44.77071" lon="5.78188">
        <ele>923.1</ele>
        <time>2022-07-14T07:50:50Z</time>
      </trkpt>
      <trkpt lat="44.77067" lon="5.78186">
        <ele>923.5</ele>
        <time>2022-07-14T07:50:52Z</time>
      </trkpt>
      <trkpt lat="44.77064" lon="5.78187">
        <ele>923.7</ele>
        <time>2022-07-14T07:50:53Z</time>
      </trkpt>
      <trkpt lat="44.77059" lon="5.78187">
        <ele>924.1</ele>
        <time>2022-07-14T07:50:55Z</time>
      </trkpt>
      <trkpt lat="44.77056" lon="5.78187">
        <ele>924.5</ele>
        <time>2022-07-14T07:50:56Z</time>
      </trkpt>
      <trkpt lat="44.77053" lon="5.78187">
        <ele>924.7</ele>
        <time>2022-07-14T07:50:57Z</time>
      </trkpt>
      <trkpt lat="44.77046" lon="5.78185">
        <ele>925.5</ele>
        <time>2022-07-14T07:51:00Z</time>
      </trkpt>
      <trkpt lat="44.77043" lon="5.78184">
        <ele>925.7</ele>
        <time>2022-07-14T07:51:01Z</time>
      </trkpt>
      <trkpt lat="44.77038" lon="5.78185">
        <ele>926.2</ele>
        <time>2022-07-14T07:51:03Z</time>
      </trkpt>
      <trkpt lat="44.77035" lon="5.78186">
        <ele>926.4</ele>
        <time>2022-07-14T07:51:04Z</time>
      </trkpt>
      <trkpt lat="44.77033" lon="5.78186">
        <ele>926.6</ele>
        <time>2022-07-14T07:51:05Z</time>
      </trkpt>
      <trkpt lat="44.7703" lon="5.78185">
        <ele>926.9</ele>
        <time>2022-07-14T07:51:06Z</time>
      </trkpt>
      <trkpt lat="44.77026" lon="5.78184">
        <ele>927.3</ele>
        <time>2022-07-14T07:51:08Z</time>
      </trkpt>
      <trkpt lat="44.77025" lon="5.78184">
        <ele>927.4</ele>
        <time>2022-07-14T07:51:10Z</time>
      </trkpt>
      <trkpt lat="44.77023" lon="5.78184">
        <ele>927.5</ele>
        <time>2022-07-14T07:51:11Z</time>
      </trkpt>
      <trkpt lat="44.77018" lon="5.78182">
        <ele>928</ele>
        <time>2022-07-14T07:51:13Z</time>
      </trkpt>
      <trkpt lat="44.77015" lon="5.7818">
        <ele>928.3</ele>
        <time>2022-07-14T07:51:14Z</time>
      </trkpt>
      <trkpt lat="44.77011" lon="5.78182">
        <ele>928.7</ele>
        <time>2022-07-14T07:51:16Z</time>
      </trkpt>
      <trkpt lat="44.77007" lon="5.78182">
        <ele>929</ele>
        <time>2022-07-14T07:51:17Z</time>
      </trkpt>
      <trkpt lat="44.77004" lon="5.78181">
        <ele>929.2</ele>
        <time>2022-07-14T07:51:18Z</time>
      </trkpt>
      <trkpt lat="44.77003" lon="5.7818">
        <ele>929.3</ele>
        <time>2022-07-14T07:51:19Z</time>
      </trkpt>
      <trkpt lat="44.76999" lon="5.7818">
        <ele>929.6</ele>
        <time>2022-07-14T07:51:20Z</time>
      </trkpt>
      <trkpt lat="44.76994" lon="5.7818">
        <ele>930</ele>
        <time>2022-07-14T07:51:22Z</time>
      </trkpt>
      <trkpt lat="44.7699" lon="5.7818">
        <ele>930.3</ele>
        <time>2022-07-14T07:51:23Z</time>
      </trkpt>
      <trkpt lat="44.76986" lon="5.78179">
        <ele>930.6</ele>
        <time>2022-07-14T07:51:25Z</time>
      </trkpt>
      <trkpt lat="44.76984" lon="5.78179">
        <ele>930.8</ele>
        <time>2022-07-14T07:51:26Z</time>
      </trkpt>
      <trkpt lat="44.76978" lon="5.78179">
        <ele>931.3</ele>
        <time>2022-07-14T07:51:28Z</time>
      </trkpt>
      <trkpt lat="44.76975" lon="5.78179">
        <ele>931.5</ele>
        <time>2022-07-14T07:51:29Z</time>
      </trkpt>
      <trkpt lat="44.7697" lon="5.78177">
        <ele>931.9</ele>
        <time>2022-07-14T07:51:31Z</time>
      </trkpt>
      <trkpt lat="44.76967" lon="5.78177">
        <ele>932.1</ele>
        <time>2022-07-14T07:51:32Z</time>
      </trkpt>
      <trkpt lat="44.76965" lon="5.78177">
        <ele>932.3</ele>
        <time>2022-07-14T07:51:33Z</time>
      </trkpt>
      <trkpt lat="44.76961" lon="5.78176">
        <ele>932.6</ele>
        <time>2022-07-14T07:51:35Z</time>
      </trkpt>
      <trkpt lat="44.76954" lon="5.78175">
        <ele>933.1</ele>
        <time>2022-07-14T07:51:37Z</time>
      </trkpt>
      <trkpt lat="44.76949" lon="5.78172">
        <ele>933.6</ele>
        <time>2022-07-14T07:51:39Z</time>
      </trkpt>
      <trkpt lat="44.76945" lon="5.78171">
        <ele>933.9</ele>
        <time>2022-07-14T07:51:40Z</time>
      </trkpt>
      <trkpt lat="44.76944" lon="5.78171">
        <ele>934</ele>
        <time>2022-07-14T07:51:41Z</time>
      </trkpt>
      <trkpt lat="44.76941" lon="5.78172">
        <ele>934.3</ele>
        <time>2022-07-14T07:51:42Z</time>
      </trkpt>
      <trkpt lat="44.76937" lon="5.7817">
        <ele>934.7</ele>
        <time>2022-07-14T07:51:43Z</time>
      </trkpt>
      <trkpt lat="44.76929" lon="5.7817">
        <ele>935.3</ele>
        <time>2022-07-14T07:51:45Z</time>
      </trkpt>
      <trkpt lat="44.76925" lon="5.78169">
        <ele>935.6</ele>
        <time>2022-07-14T07:51:47Z</time>
      </trkpt>
      <trkpt lat="44.76922" lon="5.78169">
        <ele>935.8</ele>
        <time>2022-07-14T07:51:49Z</time>
      </trkpt>
      <trkpt lat="44.76916" lon="5.78171">
        <ele>936.3</ele>
        <time>2022-07-14T07:51:51Z</time>
      </trkpt>
      <trkpt lat="44.76912" lon="5.78171">
        <ele>936.5</ele>
        <time>2022-07-14T07:51:52Z</time>
      </trkpt>
      <trkpt lat="44.76911" lon="5.78171">
        <ele>936.6</ele>
        <time>2022-07-14T07:51:53Z</time>
      </trkpt>
      <trkpt lat="44.76907" lon="5.7817">
        <ele>936.9</ele>
        <time>2022-07-14T07:51:54Z</time>
      </trkpt>
      <trkpt lat="44.76905" lon="5.78169">
        <ele>937</ele>
        <time>2022-07-14T07:51:55Z</time>
      </trkpt>
      <trkpt lat="44.76899" lon="5.78169">
        <ele>937.4</ele>
        <time>2022-07-14T07:51:57Z</time>
      </trkpt>
      <trkpt lat="44.76894" lon="5.7817">
        <ele>937.5</ele>
        <time>2022-07-14T07:51:59Z</time>
      </trkpt>
      <trkpt lat="44.7689" lon="5.78169">
        <ele>937.6</ele>
        <time>2022-07-14T07:52:00Z</time>
      </trkpt>
      <trkpt lat="44.76885" lon="5.78171">
        <ele>937.7</ele>
        <time>2022-07-14T07:52:01Z</time>
      </trkpt>
      <trkpt lat="44.76881" lon="5.78172">
        <ele>937.7</ele>
        <time>2022-07-14T07:52:03Z</time>
      </trkpt>
      <trkpt lat="44.76878" lon="5.78173">
        <ele>937.8</ele>
        <time>2022-07-14T07:52:04Z</time>
      </trkpt>
      <trkpt lat="44.76875" lon="5.78173">
        <ele>937.9</ele>
        <time>2022-07-14T07:52:05Z</time>
      </trkpt>
      <trkpt lat="44.76872" lon="5.78173">
        <ele>938</ele>
        <time>2022-07-14T07:52:06Z</time>
      </trkpt>
      <trkpt lat="44.76868" lon="5.78173">
        <ele>938.1</ele>
        <time>2022-07-14T07:52:07Z</time>
      </trkpt>
      <trkpt lat="44.76862" lon="5.78172">
        <ele>938.3</ele>
        <time>2022-07-14T07:52:09Z</time>
      </trkpt>
      <trkpt lat="44.76858" lon="5.78171">
        <ele>938.4</ele>
        <time>2022-07-14T07:52:10Z</time>
      </trkpt>
      <trkpt lat="44.76853" lon="5.78173">
        <ele>938.6</ele>
        <time>2022-07-14T07:52:11Z</time>
      </trkpt>
      <trkpt lat="44.76851" lon="5.78174">
        <ele>938.6</ele>
        <time>2022-07-14T07:52:12Z</time>
      </trkpt>
      <trkpt lat="44.76843" lon="5.78173">
        <ele>938.9</ele>
        <time>2022-07-14T07:52:14Z</time>
      </trkpt>
      <trkpt lat="44.76837" lon="5.78172">
        <ele>939</ele>
        <time>2022-07-14T07:52:16Z</time>
      </trkpt>
      <trkpt lat="44.76832" lon="5.78173">
        <ele>939.2</ele>
        <time>2022-07-14T07:52:17Z</time>
      </trkpt>
      <trkpt lat="44.76825" lon="5.78171">
        <ele>939.4</ele>
        <time>2022-07-14T07:52:19Z</time>
      </trkpt>
      <trkpt lat="44.7682" lon="5.7817">
        <ele>939.6</ele>
        <time>2022-07-14T07:52:20Z</time>
      </trkpt>
      <trkpt lat="44.76816" lon="5.78169">
        <ele>939.7</ele>
        <time>2022-07-14T07:52:21Z</time>
      </trkpt>
      <trkpt lat="44.7681" lon="5.78167">
        <ele>940</ele>
        <time>2022-07-14T07:52:23Z</time>
      </trkpt>
      <trkpt lat="44.76806" lon="5.78165">
        <ele>940.1</ele>
        <time>2022-07-14T07:52:24Z</time>
      </trkpt>
      <trkpt lat="44.76802" lon="5.78163">
        <ele>940.3</ele>
        <time>2022-07-14T07:52:25Z</time>
      </trkpt>
      <trkpt lat="44.76797" lon="5.78161">
        <ele>940.5</ele>
        <time>2022-07-14T07:52:26Z</time>
      </trkpt>
      <trkpt lat="44.76793" lon="5.78159">
        <ele>940.7</ele>
        <time>2022-07-14T07:52:27Z</time>
      </trkpt>
      <trkpt lat="44.76789" lon="5.78157">
        <ele>940.9</ele>
        <time>2022-07-14T07:52:28Z</time>
      </trkpt>
      <trkpt lat="44.76783" lon="5.78153">
        <ele>941.2</ele>
        <time>2022-07-14T07:52:30Z</time>
      </trkpt>
      <trkpt lat="44.76779" lon="5.7815">
        <ele>941.5</ele>
        <time>2022-07-14T07:52:32Z</time>
      </trkpt>
      <trkpt lat="44.76775" lon="5.78148">
        <ele>941.7</ele>
        <time>2022-07-14T07:52:33Z</time>
      </trkpt>
      <trkpt lat="44.76771" lon="5.78146">
        <ele>941.8</ele>
        <time>2022-07-14T07:52:34Z</time>
      </trkpt>
      <trkpt lat="44.76764" lon="5.78142">
        <ele>942.2</ele>
        <time>2022-07-14T07:52:36Z</time>
      </trkpt>
      <trkpt lat="44.76761" lon="5.7814">
        <ele>942.4</ele>
        <time>2022-07-14T07:52:37Z</time>
      </trkpt>
      <trkpt lat="44.76759" lon="5.78139">
        <ele>942.5</ele>
        <time>2022-07-14T07:52:38Z</time>
      </trkpt>
      <trkpt lat="44.76752" lon="5.78134">
        <ele>942.9</ele>
        <time>2022-07-14T07:52:40Z</time>
      </trkpt>
      <trkpt lat="44.76749" lon="5.78133">
        <ele>943.1</ele>
        <time>2022-07-14T07:52:41Z</time>
      </trkpt>
      <trkpt lat="44.76746" lon="5.78133">
        <ele>943.3</ele>
        <time>2022-07-14T07:52:42Z</time>
      </trkpt>
      <trkpt lat="44.76739" lon="5.78129">
        <ele>943.8</ele>
        <time>2022-07-14T07:52:44Z</time>
      </trkpt>
      <trkpt lat="44.76734" lon="5.78128">
        <ele>944.1</ele>
        <time>2022-07-14T07:52:45Z</time>
      </trkpt>
      <trkpt lat="44.76729" lon="5.78125">
        <ele>944.5</ele>
        <time>2022-07-14T07:52:47Z</time>
      </trkpt>
      <trkpt lat="44.76726" lon="5.78123">
        <ele>944.8</ele>
        <time>2022-07-14T07:52:48Z</time>
      </trkpt>
      <trkpt lat="44.76723" lon="5.7812">
        <ele>945.1</ele>
        <time>2022-07-14T07:52:50Z</time>
      </trkpt>
      <trkpt lat="44.76719" lon="5.78119">
        <ele>945.4</ele>
        <time>2022-07-14T07:52:51Z</time>
      </trkpt>
      <trkpt lat="44.76718" lon="5.78118">
        <ele>945.5</ele>
        <time>2022-07-14T07:52:52Z</time>
      </trkpt>
      <trkpt lat="44.76718" lon="5.78117">
        <ele>945.5</ele>
        <time>2022-07-14T07:52:54Z</time>
      </trkpt>
      <trkpt lat="44.76717" lon="5.78117">
        <ele>945.6</ele>
        <time>2022-07-14T07:52:55Z</time>
      </trkpt>
      <trkpt lat="44.76711" lon="5.78115">
        <ele>946.1</ele>
        <time>2022-07-14T07:52:57Z</time>
      </trkpt>
      <trkpt lat="44.76707" lon="5.78113">
        <ele>946.4</ele>
        <time>2022-07-14T07:52:58Z</time>
      </trkpt>
      <trkpt lat="44.76704" lon="5.78108">
        <ele>946.7</ele>
        <time>2022-07-14T07:52:59Z</time>
      </trkpt>
      <trkpt lat="44.76702" lon="5.78106">
        <ele>946.9</ele>
        <time>2022-07-14T07:53:00Z</time>
      </trkpt>
      <trkpt lat="44.76699" lon="5.78103">
        <ele>947.2</ele>
        <time>2022-07-14T07:53:01Z</time>
      </trkpt>
      <trkpt lat="44.76694" lon="5.78098">
        <ele>947.6</ele>
        <time>2022-07-14T07:53:03Z</time>
      </trkpt>
      <trkpt lat="44.76688" lon="5.78093">
        <ele>948</ele>
        <time>2022-07-14T07:53:05Z</time>
      </trkpt>
      <trkpt lat="44.76685" lon="5.7809">
        <ele>948.2</ele>
        <time>2022-07-14T07:53:06Z</time>
      </trkpt>
      <trkpt lat="44.76683" lon="5.78086">
        <ele>948.4</ele>
        <time>2022-07-14T07:53:07Z</time>
      </trkpt>
      <trkpt lat="44.76679" lon="5.7808">
        <ele>948.8</ele>
        <time>2022-07-14T07:53:09Z</time>
      </trkpt>
      <trkpt lat="44.76677" lon="5.78076">
        <ele>949</ele>
        <time>2022-07-14T07:53:10Z</time>
      </trkpt>
      <trkpt lat="44.76672" lon="5.78071">
        <ele>949.4</ele>
        <time>2022-07-14T07:53:12Z</time>
      </trkpt>
      <trkpt lat="44.76669" lon="5.78068">
        <ele>949.7</ele>
        <time>2022-07-14T07:53:13Z</time>
      </trkpt>
      <trkpt lat="44.76667" lon="5.78062">
        <ele>949.9</ele>
        <time>2022-07-14T07:53:14Z</time>
      </trkpt>
      <trkpt lat="44.76667" lon="5.7806">
        <ele>950</ele>
        <time>2022-07-14T07:53:15Z</time>
      </trkpt>
      <trkpt lat="44.76664" lon="5.78057">
        <ele>950.3</ele>
        <time>2022-07-14T07:53:16Z</time>
      </trkpt>
      <trkpt lat="44.76661" lon="5.78054">
        <ele>950.5</ele>
        <time>2022-07-14T07:53:17Z</time>
      </trkpt>
      <trkpt lat="44.76659" lon="5.78052">
        <ele>950.7</ele>
        <time>2022-07-14T07:53:18Z</time>
      </trkpt>
      <trkpt lat="44.76656" lon="5.78049">
        <ele>950.9</ele>
        <time>2022-07-14T07:53:19Z</time>
      </trkpt>
      <trkpt lat="44.7665" lon="5.78042">
        <ele>951.5</ele>
        <time>2022-07-14T07:53:21Z</time>
      </trkpt>
      <trkpt lat="44.76645" lon="5.78035">
        <ele>952</ele>
        <time>2022-07-14T07:53:23Z</time>
      </trkpt>
      <trkpt lat="44.76644" lon="5.7803">
        <ele>952.4</ele>
        <time>2022-07-14T07:53:24Z</time>
      </trkpt>
      <trkpt lat="44.76643" lon="5.78023">
        <ele>952.8</ele>
        <time>2022-07-14T07:53:26Z</time>
      </trkpt>
      <trkpt lat="44.76642" lon="5.78018">
        <ele>953.2</ele>
        <time>2022-07-14T07:53:28Z</time>
      </trkpt>
      <trkpt lat="44.76642" lon="5.78014">
        <ele>953.4</ele>
        <time>2022-07-14T07:53:29Z</time>
      </trkpt>
      <trkpt lat="44.76642" lon="5.78009">
        <ele>953.7</ele>
        <time>2022-07-14T07:53:30Z</time>
      </trkpt>
      <trkpt lat="44.76644" lon="5.78006">
        <ele>953.9</ele>
        <time>2022-07-14T07:53:32Z</time>
      </trkpt>
      <trkpt lat="44.76644" lon="5.78002">
        <ele>954.2</ele>
        <time>2022-07-14T07:53:34Z</time>
      </trkpt>
      <trkpt lat="44.76646" lon="5.77995">
        <ele>954.5</ele>
        <time>2022-07-14T07:53:36Z</time>
      </trkpt>
      <trkpt lat="44.76649" lon="5.7799">
        <ele>954.9</ele>
        <time>2022-07-14T07:53:38Z</time>
      </trkpt>
      <trkpt lat="44.7665" lon="5.77986">
        <ele>955.1</ele>
        <time>2022-07-14T07:53:39Z</time>
      </trkpt>
      <trkpt lat="44.76652" lon="5.7798">
        <ele>955.4</ele>
        <time>2022-07-14T07:53:41Z</time>
      </trkpt>
      <trkpt lat="44.76654" lon="5.77976">
        <ele>955.6</ele>
        <time>2022-07-14T07:53:42Z</time>
      </trkpt>
      <trkpt lat="44.76655" lon="5.77973">
        <ele>955.8</ele>
        <time>2022-07-14T07:53:43Z</time>
      </trkpt>
      <trkpt lat="44.76656" lon="5.77971">
        <ele>955.9</ele>
        <time>2022-07-14T07:53:44Z</time>
      </trkpt>
      <trkpt lat="44.7666" lon="5.77965">
        <ele>956.3</ele>
        <time>2022-07-14T07:53:46Z</time>
      </trkpt>
      <trkpt lat="44.7666" lon="5.77963">
        <ele>956.4</ele>
        <time>2022-07-14T07:53:47Z</time>
      </trkpt>
      <trkpt lat="44.76662" lon="5.77958">
        <ele>956.7</ele>
        <time>2022-07-14T07:53:49Z</time>
      </trkpt>
      <trkpt lat="44.76664" lon="5.77954">
        <ele>956.9</ele>
        <time>2022-07-14T07:53:50Z</time>
      </trkpt>
      <trkpt lat="44.76666" lon="5.77951">
        <ele>957.2</ele>
        <time>2022-07-14T07:53:51Z</time>
      </trkpt>
      <trkpt lat="44.76668" lon="5.77947">
        <ele>957.4</ele>
        <time>2022-07-14T07:53:52Z</time>
      </trkpt>
      <trkpt lat="44.76669" lon="5.77944">
        <ele>957.6</ele>
        <time>2022-07-14T07:53:54Z</time>
      </trkpt>
      <trkpt lat="44.76672" lon="5.7794">
        <ele>957.9</ele>
        <time>2022-07-14T07:53:56Z</time>
      </trkpt>
      <trkpt lat="44.76673" lon="5.77937">
        <ele>958.1</ele>
        <time>2022-07-14T07:53:57Z</time>
      </trkpt>
      <trkpt lat="44.76677" lon="5.77933">
        <ele>958.5</ele>
        <time>2022-07-14T07:53:59Z</time>
      </trkpt>
      <trkpt lat="44.76679" lon="5.77929">
        <ele>958.8</ele>
        <time>2022-07-14T07:54:00Z</time>
      </trkpt>
      <trkpt lat="44.7668" lon="5.77927">
        <ele>959</ele>
        <time>2022-07-14T07:54:01Z</time>
      </trkpt>
      <trkpt lat="44.76682" lon="5.77925">
        <ele>959.2</ele>
        <time>2022-07-14T07:54:02Z</time>
      </trkpt>
      <trkpt lat="44.76685" lon="5.77919">
        <ele>959.7</ele>
        <time>2022-07-14T07:54:04Z</time>
      </trkpt>
      <trkpt lat="44.76687" lon="5.77914">
        <ele>960</ele>
        <time>2022-07-14T07:54:05Z</time>
      </trkpt>
      <trkpt lat="44.7669" lon="5.77912">
        <ele>960.3</ele>
        <time>2022-07-14T07:54:06Z</time>
      </trkpt>
      <trkpt lat="44.76691" lon="5.77909">
        <ele>960.5</ele>
        <time>2022-07-14T07:54:07Z</time>
      </trkpt>
      <trkpt lat="44.76693" lon="5.77903">
        <ele>960.9</ele>
        <time>2022-07-14T07:54:08Z</time>
      </trkpt>
      <trkpt lat="44.76693" lon="5.779">
        <ele>961.1</ele>
        <time>2022-07-14T07:54:09Z</time>
      </trkpt>
      <trkpt lat="44.76693" lon="5.77894">
        <ele>961.4</ele>
        <time>2022-07-14T07:54:11Z</time>
      </trkpt>
      <trkpt lat="44.76693" lon="5.77888">
        <ele>961.8</ele>
        <time>2022-07-14T07:54:12Z</time>
      </trkpt>
      <trkpt lat="44.76693" lon="5.7788">
        <ele>962.2</ele>
        <time>2022-07-14T07:54:14Z</time>
      </trkpt>
      <trkpt lat="44.76693" lon="5.77875">
        <ele>962.4</ele>
        <time>2022-07-14T07:54:15Z</time>
      </trkpt>
      <trkpt lat="44.76693" lon="5.77867">
        <ele>962.8</ele>
        <time>2022-07-14T07:54:17Z</time>
      </trkpt>
      <trkpt lat="44.76691" lon="5.7786">
        <ele>963.2</ele>
        <time>2022-07-14T07:54:19Z</time>
      </trkpt>
      <trkpt lat="44.76688" lon="5.77849">
        <ele>963.6</ele>
        <time>2022-07-14T07:54:21Z</time>
      </trkpt>
      <trkpt lat="44.76687" lon="5.7784">
        <ele>964</ele>
        <time>2022-07-14T07:54:23Z</time>
      </trkpt>
      <trkpt lat="44.76687" lon="5.77836">
        <ele>964.2</ele>
        <time>2022-07-14T07:54:24Z</time>
      </trkpt>
      <trkpt lat="44.76687" lon="5.77834">
        <ele>964.2</ele>
        <time>2022-07-14T07:54:25Z</time>
      </trkpt>
      <trkpt lat="44.76687" lon="5.7783">
        <ele>964.5</ele>
        <time>2022-07-14T07:54:26Z</time>
      </trkpt>
      <trkpt lat="44.76687" lon="5.77828">
        <ele>964.6</ele>
        <time>2022-07-14T07:54:27Z</time>
      </trkpt>
      <trkpt lat="44.76686" lon="5.77826">
        <ele>964.7</ele>
        <time>2022-07-14T07:54:28Z</time>
      </trkpt>
      <trkpt lat="44.76685" lon="5.77819">
        <ele>965</ele>
        <time>2022-07-14T07:54:30Z</time>
      </trkpt>
      <trkpt lat="44.76683" lon="5.77813">
        <ele>965.3</ele>
        <time>2022-07-14T07:54:31Z</time>
      </trkpt>
      <trkpt lat="44.76683" lon="5.77808">
        <ele>965.5</ele>
        <time>2022-07-14T07:54:32Z</time>
      </trkpt>
      <trkpt lat="44.76683" lon="5.77805">
        <ele>965.7</ele>
        <time>2022-07-14T07:54:33Z</time>
      </trkpt>
      <trkpt lat="44.76682" lon="5.77801">
        <ele>965.8</ele>
        <time>2022-07-14T07:54:34Z</time>
      </trkpt>
      <trkpt lat="44.76681" lon="5.77797">
        <ele>966.1</ele>
        <time>2022-07-14T07:54:36Z</time>
      </trkpt>
      <trkpt lat="44.76681" lon="5.7779">
        <ele>966.4</ele>
        <time>2022-07-14T07:54:38Z</time>
      </trkpt>
      <trkpt lat="44.76681" lon="5.77784">
        <ele>966.7</ele>
        <time>2022-07-14T07:54:39Z</time>
      </trkpt>
      <trkpt lat="44.76681" lon="5.77781">
        <ele>966.8</ele>
        <time>2022-07-14T07:54:40Z</time>
      </trkpt>
      <trkpt lat="44.76682" lon="5.77777">
        <ele>967.1</ele>
        <time>2022-07-14T07:54:41Z</time>
      </trkpt>
      <trkpt lat="44.76682" lon="5.77773">
        <ele>967.3</ele>
        <time>2022-07-14T07:54:42Z</time>
      </trkpt>
      <trkpt lat="44.76683" lon="5.77767">
        <ele>967.6</ele>
        <time>2022-07-14T07:54:44Z</time>
      </trkpt>
      <trkpt lat="44.76683" lon="5.77763">
        <ele>967.8</ele>
        <time>2022-07-14T07:54:45Z</time>
      </trkpt>
      <trkpt lat="44.76683" lon="5.77758">
        <ele>968.1</ele>
        <time>2022-07-14T07:54:46Z</time>
      </trkpt>
      <trkpt lat="44.76683" lon="5.77753">
        <ele>968.4</ele>
        <time>2022-07-14T07:54:48Z</time>
      </trkpt>
      <trkpt lat="44.76683" lon="5.77745">
        <ele>968.9</ele>
        <time>2022-07-14T07:54:49Z</time>
      </trkpt>
      <trkpt lat="44.76684" lon="5.77742">
        <ele>969</ele>
        <time>2022-07-14T07:54:50Z</time>
      </trkpt>
      <trkpt lat="44.76685" lon="5.77739">
        <ele>969.2</ele>
        <time>2022-07-14T07:54:52Z</time>
      </trkpt>
      <trkpt lat="44.76687" lon="5.77737">
        <ele>969.4</ele>
        <time>2022-07-14T07:54:53Z</time>
      </trkpt>
      <trkpt lat="44.76688" lon="5.77738">
        <ele>969.5</ele>
        <time>2022-07-14T07:54:54Z</time>
      </trkpt>
      <trkpt lat="44.7669" lon="5.77736">
        <ele>969.6</ele>
        <time>2022-07-14T07:54:55Z</time>
      </trkpt>
      <trkpt lat="44.76692" lon="5.7773">
        <ele>970</ele>
        <time>2022-07-14T07:54:57Z</time>
      </trkpt>
      <trkpt lat="44.76694" lon="5.77726">
        <ele>970.2</ele>
        <time>2022-07-14T07:54:58Z</time>
      </trkpt>
      <trkpt lat="44.76694" lon="5.77724">
        <ele>970.4</ele>
        <time>2022-07-14T07:54:59Z</time>
      </trkpt>
      <trkpt lat="44.76696" lon="5.77719">
        <ele>970.7</ele>
        <time>2022-07-14T07:55:01Z</time>
      </trkpt>
      <trkpt lat="44.76697" lon="5.77718">
        <ele>970.8</ele>
        <time>2022-07-14T07:55:02Z</time>
      </trkpt>
      <trkpt lat="44.76698" lon="5.77713">
        <ele>971</ele>
        <time>2022-07-14T07:55:03Z</time>
      </trkpt>
      <trkpt lat="44.767" lon="5.77708">
        <ele>971.3</ele>
        <time>2022-07-14T07:55:04Z</time>
      </trkpt>
      <trkpt lat="44.76701" lon="5.77706">
        <ele>971.5</ele>
        <time>2022-07-14T07:55:05Z</time>
      </trkpt>
      <trkpt lat="44.76702" lon="5.77703">
        <ele>971.7</ele>
        <time>2022-07-14T07:55:06Z</time>
      </trkpt>
      <trkpt lat="44.76703" lon="5.77701">
        <ele>971.9</ele>
        <time>2022-07-14T07:55:07Z</time>
      </trkpt>
      <trkpt lat="44.76708" lon="5.77693">
        <ele>972.4</ele>
        <time>2022-07-14T07:55:09Z</time>
      </trkpt>
      <trkpt lat="44.76711" lon="5.7769">
        <ele>972.7</ele>
        <time>2022-07-14T07:55:11Z</time>
      </trkpt>
      <trkpt lat="44.76713" lon="5.77686">
        <ele>972.9</ele>
        <time>2022-07-14T07:55:12Z</time>
      </trkpt>
      <trkpt lat="44.76714" lon="5.77684">
        <ele>973</ele>
        <time>2022-07-14T07:55:13Z</time>
      </trkpt>
      <trkpt lat="44.76715" lon="5.7768">
        <ele>973.3</ele>
        <time>2022-07-14T07:55:14Z</time>
      </trkpt>
      <trkpt lat="44.76719" lon="5.77675">
        <ele>973.6</ele>
        <time>2022-07-14T07:55:16Z</time>
      </trkpt>
      <trkpt lat="44.76723" lon="5.7767">
        <ele>974</ele>
        <time>2022-07-14T07:55:18Z</time>
      </trkpt>
      <trkpt lat="44.76725" lon="5.77668">
        <ele>974.2</ele>
        <time>2022-07-14T07:55:19Z</time>
      </trkpt>
      <trkpt lat="44.76728" lon="5.77665">
        <ele>974.4</ele>
        <time>2022-07-14T07:55:20Z</time>
      </trkpt>
      <trkpt lat="44.7673" lon="5.77661">
        <ele>974.7</ele>
        <time>2022-07-14T07:55:22Z</time>
      </trkpt>
      <trkpt lat="44.76732" lon="5.77656">
        <ele>974.9</ele>
        <time>2022-07-14T07:55:24Z</time>
      </trkpt>
      <trkpt lat="44.76736" lon="5.77652">
        <ele>975.3</ele>
        <time>2022-07-14T07:55:26Z</time>
      </trkpt>
      <trkpt lat="44.76738" lon="5.77649">
        <ele>975.5</ele>
        <time>2022-07-14T07:55:27Z</time>
      </trkpt>
      <trkpt lat="44.76742" lon="5.77646">
        <ele>975.8</ele>
        <time>2022-07-14T07:55:29Z</time>
      </trkpt>
      <trkpt lat="44.76747" lon="5.77643">
        <ele>976.2</ele>
        <time>2022-07-14T07:55:31Z</time>
      </trkpt>
      <trkpt lat="44.7675" lon="5.77642">
        <ele>976.5</ele>
        <time>2022-07-14T07:55:32Z</time>
      </trkpt>
      <trkpt lat="44.76756" lon="5.77641">
        <ele>976.9</ele>
        <time>2022-07-14T07:55:34Z</time>
      </trkpt>
      <trkpt lat="44.7676" lon="5.77641">
        <ele>977.2</ele>
        <time>2022-07-14T07:55:35Z</time>
      </trkpt>
      <trkpt lat="44.76764" lon="5.77641">
        <ele>977.6</ele>
        <time>2022-07-14T07:55:36Z</time>
      </trkpt>
      <trkpt lat="44.76766" lon="5.7764">
        <ele>977.7</ele>
        <time>2022-07-14T07:55:37Z</time>
      </trkpt>
      <trkpt lat="44.76772" lon="5.7764">
        <ele>978.1</ele>
        <time>2022-07-14T07:55:39Z</time>
      </trkpt>
      <trkpt lat="44.76775" lon="5.77639">
        <ele>978.4</ele>
        <time>2022-07-14T07:55:40Z</time>
      </trkpt>
      <trkpt lat="44.76781" lon="5.77638">
        <ele>978.9</ele>
        <time>2022-07-14T07:55:42Z</time>
      </trkpt>
      <trkpt lat="44.76784" lon="5.77637">
        <ele>979.1</ele>
        <time>2022-07-14T07:55:43Z</time>
      </trkpt>
      <trkpt lat="44.76787" lon="5.77637">
        <ele>979.4</ele>
        <time>2022-07-14T07:55:44Z</time>
      </trkpt>
      <trkpt lat="44.76793" lon="5.77635">
        <ele>979.8</ele>
        <time>2022-07-14T07:55:46Z</time>
      </trkpt>
      <trkpt lat="44.76796" lon="5.77634">
        <ele>980.1</ele>
        <time>2022-07-14T07:55:47Z</time>
      </trkpt>
      <trkpt lat="44.76802" lon="5.77632">
        <ele>980.5</ele>
        <time>2022-07-14T07:55:48Z</time>
      </trkpt>
      <trkpt lat="44.76805" lon="5.77631">
        <ele>980.7</ele>
        <time>2022-07-14T07:55:49Z</time>
      </trkpt>
      <trkpt lat="44.76807" lon="5.77631">
        <ele>980.8</ele>
        <time>2022-07-14T07:55:50Z</time>
      </trkpt>
      <trkpt lat="44.76811" lon="5.7763">
        <ele>981.2</ele>
        <time>2022-07-14T07:55:52Z</time>
      </trkpt>
      <trkpt lat="44.76813" lon="5.77629">
        <ele>981.3</ele>
        <time>2022-07-14T07:55:53Z</time>
      </trkpt>
      <trkpt lat="44.76815" lon="5.77629">
        <ele>981.5</ele>
        <time>2022-07-14T07:55:54Z</time>
      </trkpt>
      <trkpt lat="44.76818" lon="5.77628">
        <ele>981.7</ele>
        <time>2022-07-14T07:55:55Z</time>
      </trkpt>
      <trkpt lat="44.76823" lon="5.77625">
        <ele>982.1</ele>
        <time>2022-07-14T07:55:57Z</time>
      </trkpt>
      <trkpt lat="44.76828" lon="5.77625">
        <ele>982.5</ele>
        <time>2022-07-14T07:55:58Z</time>
      </trkpt>
      <trkpt lat="44.76832" lon="5.77623">
        <ele>982.8</ele>
        <time>2022-07-14T07:56:00Z</time>
      </trkpt>
      <trkpt lat="44.76836" lon="5.77621">
        <ele>983.1</ele>
        <time>2022-07-14T07:56:01Z</time>
      </trkpt>
      <trkpt lat="44.76837" lon="5.77621">
        <ele>983.2</ele>
        <time>2022-07-14T07:56:02Z</time>
      </trkpt>
      <trkpt lat="44.7684" lon="5.7762">
        <ele>983.4</ele>
        <time>2022-07-14T07:56:03Z</time>
      </trkpt>
      <trkpt lat="44.76845" lon="5.77619">
        <ele>983.8</ele>
        <time>2022-07-14T07:56:05Z</time>
      </trkpt>
      <trkpt lat="44.76848" lon="5.7762">
        <ele>984</ele>
        <time>2022-07-14T07:56:06Z</time>
      </trkpt>
      <trkpt lat="44.76853" lon="5.77621">
        <ele>984.4</ele>
        <time>2022-07-14T07:56:08Z</time>
      </trkpt>
      <trkpt lat="44.76856" lon="5.77622">
        <ele>984.6</ele>
        <time>2022-07-14T07:56:09Z</time>
      </trkpt>
      <trkpt lat="44.76861" lon="5.77624">
        <ele>985</ele>
        <time>2022-07-14T07:56:11Z</time>
      </trkpt>
      <trkpt lat="44.76866" lon="5.77626">
        <ele>985.3</ele>
        <time>2022-07-14T07:56:12Z</time>
      </trkpt>
      <trkpt lat="44.76867" lon="5.77627">
        <ele>985.4</ele>
        <time>2022-07-14T07:56:13Z</time>
      </trkpt>
      <trkpt lat="44.76872" lon="5.7763">
        <ele>985.8</ele>
        <time>2022-07-14T07:56:15Z</time>
      </trkpt>
      <trkpt lat="44.76876" lon="5.7763">
        <ele>986.1</ele>
        <time>2022-07-14T07:56:17Z</time>
      </trkpt>
      <trkpt lat="44.76879" lon="5.77632">
        <ele>986.3</ele>
        <time>2022-07-14T07:56:18Z</time>
      </trkpt>
      <trkpt lat="44.76882" lon="5.77634">
        <ele>986.6</ele>
        <time>2022-07-14T07:56:20Z</time>
      </trkpt>
      <trkpt lat="44.76887" lon="5.77637">
        <ele>987.1</ele>
        <time>2022-07-14T07:56:22Z</time>
      </trkpt>
      <trkpt lat="44.76891" lon="5.77642">
        <ele>987.5</ele>
        <time>2022-07-14T07:56:24Z</time>
      </trkpt>
      <trkpt lat="44.76896" lon="5.77645">
        <ele>987.9</ele>
        <time>2022-07-14T07:56:26Z</time>
      </trkpt>
      <trkpt lat="44.76898" lon="5.77648">
        <ele>988.2</ele>
        <time>2022-07-14T07:56:28Z</time>
      </trkpt>
      <trkpt lat="44.76901" lon="5.7765">
        <ele>988.4</ele>
        <time>2022-07-14T07:56:29Z</time>
      </trkpt>
      <trkpt lat="44.76902" lon="5.77651">
        <ele>988.6</ele>
        <time>2022-07-14T07:56:30Z</time>
      </trkpt>
      <trkpt lat="44.76905" lon="5.77654">
        <ele>988.8</ele>
        <time>2022-07-14T07:56:32Z</time>
      </trkpt>
      <trkpt lat="44.76907" lon="5.77655">
        <ele>989</ele>
        <time>2022-07-14T07:56:33Z</time>
      </trkpt>
      <trkpt lat="44.76908" lon="5.77655">
        <ele>989.1</ele>
        <time>2022-07-14T07:56:34Z</time>
      </trkpt>
      <trkpt lat="44.76911" lon="5.77659">
        <ele>989.4</ele>
        <time>2022-07-14T07:56:36Z</time>
      </trkpt>
      <trkpt lat="44.76912" lon="5.7766">
        <ele>989.5</ele>
        <time>2022-07-14T07:56:37Z</time>
      </trkpt>
      <trkpt lat="44.76913" lon="5.77661">
        <ele>989.6</ele>
        <time>2022-07-14T07:56:38Z</time>
      </trkpt>
      <trkpt lat="44.76917" lon="5.7766">
        <ele>989.9</ele>
        <time>2022-07-14T07:56:39Z</time>
      </trkpt>
      <trkpt lat="44.7692" lon="5.7766">
        <ele>990.1</ele>
        <time>2022-07-14T07:56:40Z</time>
      </trkpt>
      <trkpt lat="44.76922" lon="5.77661">
        <ele>990.2</ele>
        <time>2022-07-14T07:56:41Z</time>
      </trkpt>
      <trkpt lat="44.76925" lon="5.77664">
        <ele>990.5</ele>
        <time>2022-07-14T07:56:43Z</time>
      </trkpt>
      <trkpt lat="44.76928" lon="5.77664">
        <ele>990.7</ele>
        <time>2022-07-14T07:56:44Z</time>
      </trkpt>
      <trkpt lat="44.7693" lon="5.77665">
        <ele>990.9</ele>
        <time>2022-07-14T07:56:45Z</time>
      </trkpt>
      <trkpt lat="44.76932" lon="5.77666">
        <ele>991.1</ele>
        <time>2022-07-14T07:56:46Z</time>
      </trkpt>
      <trkpt lat="44.76938" lon="5.77668">
        <ele>991.5</ele>
        <time>2022-07-14T07:56:48Z</time>
      </trkpt>
      <trkpt lat="44.76939" lon="5.77669">
        <ele>991.6</ele>
        <time>2022-07-14T07:56:49Z</time>
      </trkpt>
      <trkpt lat="44.76943" lon="5.77671">
        <ele>991.9</ele>
        <time>2022-07-14T07:56:51Z</time>
      </trkpt>
      <trkpt lat="44.76947" lon="5.77672">
        <ele>992.1</ele>
        <time>2022-07-14T07:56:53Z</time>
      </trkpt>
      <trkpt lat="44.7695" lon="5.77672">
        <ele>992.2</ele>
        <time>2022-07-14T07:56:54Z</time>
      </trkpt>
      <trkpt lat="44.76951" lon="5.77671">
        <ele>992.3</ele>
        <time>2022-07-14T07:56:55Z</time>
      </trkpt>
      <trkpt lat="44.76956" lon="5.77665">
        <ele>992.7</ele>
        <time>2022-07-14T07:56:58Z</time>
      </trkpt>
      <trkpt lat="44.76958" lon="5.7766">
        <ele>992.9</ele>
        <time>2022-07-14T07:56:59Z</time>
      </trkpt>
      <trkpt lat="44.76958" lon="5.77655">
        <ele>993.1</ele>
        <time>2022-07-14T07:57:00Z</time>
      </trkpt>
      <trkpt lat="44.76958" lon="5.77653">
        <ele>993.2</ele>
        <time>2022-07-14T07:57:01Z</time>
      </trkpt>
      <trkpt lat="44.76958" lon="5.77649">
        <ele>993.4</ele>
        <time>2022-07-14T07:57:02Z</time>
      </trkpt>
      <trkpt lat="44.76954" lon="5.77643">
        <ele>993.6</ele>
        <time>2022-07-14T07:57:04Z</time>
      </trkpt>
      <trkpt lat="44.76949" lon="5.7764">
        <ele>993.9</ele>
        <time>2022-07-14T07:57:06Z</time>
      </trkpt>
      <trkpt lat="44.76946" lon="5.7764">
        <ele>994</ele>
        <time>2022-07-14T07:57:07Z</time>
      </trkpt>
      <trkpt lat="44.76941" lon="5.77639">
        <ele>994.2</ele>
        <time>2022-07-14T07:57:09Z</time>
      </trkpt>
      <trkpt lat="44.76938" lon="5.77637">
        <ele>994.3</ele>
        <time>2022-07-14T07:57:10Z</time>
      </trkpt>
      <trkpt lat="44.76936" lon="5.77636">
        <ele>994.4</ele>
        <time>2022-07-14T07:57:11Z</time>
      </trkpt>
      <trkpt lat="44.76934" lon="5.77635">
        <ele>994.5</ele>
        <time>2022-07-14T07:57:12Z</time>
      </trkpt>
      <trkpt lat="44.7693" lon="5.7763">
        <ele>994.7</ele>
        <time>2022-07-14T07:57:14Z</time>
      </trkpt>
      <trkpt lat="44.76927" lon="5.77626">
        <ele>994.9</ele>
        <time>2022-07-14T07:57:15Z</time>
      </trkpt>
      <trkpt lat="44.76924" lon="5.77624">
        <ele>995</ele>
        <time>2022-07-14T07:57:16Z</time>
      </trkpt>
      <trkpt lat="44.7692" lon="5.77622">
        <ele>995.2</ele>
        <time>2022-07-14T07:57:17Z</time>
      </trkpt>
      <trkpt lat="44.76917" lon="5.7762">
        <ele>995.3</ele>
        <time>2022-07-14T07:57:18Z</time>
      </trkpt>
      <trkpt lat="44.76911" lon="5.77615">
        <ele>995.6</ele>
        <time>2022-07-14T07:57:20Z</time>
      </trkpt>
      <trkpt lat="44.76909" lon="5.77612">
        <ele>995.7</ele>
        <time>2022-07-14T07:57:21Z</time>
      </trkpt>
      <trkpt lat="44.76906" lon="5.77605">
        <ele>996</ele>
        <time>2022-07-14T07:57:23Z</time>
      </trkpt>
      <trkpt lat="44.76902" lon="5.77599">
        <ele>996.3</ele>
        <time>2022-07-14T07:57:24Z</time>
      </trkpt>
      <trkpt lat="44.76901" lon="5.77594">
        <ele>996.5</ele>
        <time>2022-07-14T07:57:25Z</time>
      </trkpt>
      <trkpt lat="44.76899" lon="5.77591">
        <ele>996.7</ele>
        <time>2022-07-14T07:57:26Z</time>
      </trkpt>
      <trkpt lat="44.76895" lon="5.77583">
        <ele>997</ele>
        <time>2022-07-14T07:57:28Z</time>
      </trkpt>
      <trkpt lat="44.76891" lon="5.77577">
        <ele>997.4</ele>
        <time>2022-07-14T07:57:30Z</time>
      </trkpt>
      <trkpt lat="44.76888" lon="5.77573">
        <ele>997.6</ele>
        <time>2022-07-14T07:57:31Z</time>
      </trkpt>
      <trkpt lat="44.76884" lon="5.77568">
        <ele>997.9</ele>
        <time>2022-07-14T07:57:33Z</time>
      </trkpt>
      <trkpt lat="44.76881" lon="5.77566">
        <ele>998.1</ele>
        <time>2022-07-14T07:57:34Z</time>
      </trkpt>
      <trkpt lat="44.76879" lon="5.77562">
        <ele>998.3</ele>
        <time>2022-07-14T07:57:35Z</time>
      </trkpt>
      <trkpt lat="44.76877" lon="5.77558">
        <ele>998.5</ele>
        <time>2022-07-14T07:57:36Z</time>
      </trkpt>
      <trkpt lat="44.76874" lon="5.77552">
        <ele>998.9</ele>
        <time>2022-07-14T07:57:38Z</time>
      </trkpt>
      <trkpt lat="44.76868" lon="5.77542">
        <ele>999.4</ele>
        <time>2022-07-14T07:57:40Z</time>
      </trkpt>
      <trkpt lat="44.76864" lon="5.77536">
        <ele>999.8</ele>
        <time>2022-07-14T07:57:42Z</time>
      </trkpt>
      <trkpt lat="44.76861" lon="5.77532">
        <ele>1000.1</ele>
        <time>2022-07-14T07:57:44Z</time>
      </trkpt>
      <trkpt lat="44.76859" lon="5.77527">
        <ele>1000.3</ele>
        <time>2022-07-14T07:57:45Z</time>
      </trkpt>
      <trkpt lat="44.76856" lon="5.77525">
        <ele>1000.6</ele>
        <time>2022-07-14T07:57:46Z</time>
      </trkpt>
      <trkpt lat="44.76854" lon="5.77523">
        <ele>1000.7</ele>
        <time>2022-07-14T07:57:47Z</time>
      </trkpt>
      <trkpt lat="44.76851" lon="5.77519">
        <ele>1001</ele>
        <time>2022-07-14T07:57:48Z</time>
      </trkpt>
      <trkpt lat="44.7685" lon="5.77517">
        <ele>1001.1</ele>
        <time>2022-07-14T07:57:49Z</time>
      </trkpt>
      <trkpt lat="44.76847" lon="5.77513">
        <ele>1001.4</ele>
        <time>2022-07-14T07:57:50Z</time>
      </trkpt>
      <trkpt lat="44.76844" lon="5.77508">
        <ele>1001.8</ele>
        <time>2022-07-14T07:57:52Z</time>
      </trkpt>
      <trkpt lat="44.76841" lon="5.77505">
        <ele>1002</ele>
        <time>2022-07-14T07:57:53Z</time>
      </trkpt>
      <trkpt lat="44.76837" lon="5.77498">
        <ele>1002.6</ele>
        <time>2022-07-14T07:57:55Z</time>
      </trkpt>
      <trkpt lat="44.76835" lon="5.77495">
        <ele>1002.9</ele>
        <time>2022-07-14T07:57:56Z</time>
      </trkpt>
      <trkpt lat="44.76833" lon="5.77492">
        <ele>1003.2</ele>
        <time>2022-07-14T07:57:57Z</time>
      </trkpt>
      <trkpt lat="44.7683" lon="5.77489">
        <ele>1003.5</ele>
        <time>2022-07-14T07:57:58Z</time>
      </trkpt>
      <trkpt lat="44.76827" lon="5.77485">
        <ele>1003.9</ele>
        <time>2022-07-14T07:57:59Z</time>
      </trkpt>
      <trkpt lat="44.76823" lon="5.77482">
        <ele>1004.3</ele>
        <time>2022-07-14T07:58:01Z</time>
      </trkpt>
      <trkpt lat="44.7682" lon="5.77478">
        <ele>1004.6</ele>
        <time>2022-07-14T07:58:02Z</time>
      </trkpt>
      <trkpt lat="44.76819" lon="5.77476">
        <ele>1004.8</ele>
        <time>2022-07-14T07:58:03Z</time>
      </trkpt>
      <trkpt lat="44.76817" lon="5.77473">
        <ele>1005</ele>
        <time>2022-07-14T07:58:05Z</time>
      </trkpt>
      <trkpt lat="44.76815" lon="5.77472">
        <ele>1005.2</ele>
        <time>2022-07-14T07:58:06Z</time>
      </trkpt>
      <trkpt lat="44.76811" lon="5.77467">
        <ele>1005.7</ele>
        <time>2022-07-14T07:58:08Z</time>
      </trkpt>
      <trkpt lat="44.76807" lon="5.77462">
        <ele>1006.1</ele>
        <time>2022-07-14T07:58:09Z</time>
      </trkpt>
      <trkpt lat="44.76802" lon="5.77455">
        <ele>1006.6</ele>
        <time>2022-07-14T07:58:11Z</time>
      </trkpt>
      <trkpt lat="44.76799" lon="5.77452">
        <ele>1006.9</ele>
        <time>2022-07-14T07:58:13Z</time>
      </trkpt>
      <trkpt lat="44.76797" lon="5.77448">
        <ele>1007.2</ele>
        <time>2022-07-14T07:58:14Z</time>
      </trkpt>
      <trkpt lat="44.76796" lon="5.77444">
        <ele>1007.4</ele>
        <time>2022-07-14T07:58:15Z</time>
      </trkpt>
      <trkpt lat="44.76793" lon="5.77439">
        <ele>1007.7</ele>
        <time>2022-07-14T07:58:17Z</time>
      </trkpt>
      <trkpt lat="44.7679" lon="5.77436">
        <ele>1008</ele>
        <time>2022-07-14T07:58:18Z</time>
      </trkpt>
      <trkpt lat="44.76785" lon="5.77431">
        <ele>1008.4</ele>
        <time>2022-07-14T07:58:20Z</time>
      </trkpt>
      <trkpt lat="44.76781" lon="5.77428">
        <ele>1008.8</ele>
        <time>2022-07-14T07:58:22Z</time>
      </trkpt>
      <trkpt lat="44.76779" lon="5.77426">
        <ele>1009</ele>
        <time>2022-07-14T07:58:23Z</time>
      </trkpt>
      <trkpt lat="44.76776" lon="5.77423">
        <ele>1009.3</ele>
        <time>2022-07-14T07:58:24Z</time>
      </trkpt>
      <trkpt lat="44.76769" lon="5.77418">
        <ele>1009.8</ele>
        <time>2022-07-14T07:58:26Z</time>
      </trkpt>
      <trkpt lat="44.76766" lon="5.77417">
        <ele>1010.1</ele>
        <time>2022-07-14T07:58:27Z</time>
      </trkpt>
      <trkpt lat="44.76764" lon="5.77417">
        <ele>1010.3</ele>
        <time>2022-07-14T07:58:28Z</time>
      </trkpt>
      <trkpt lat="44.76758" lon="5.77417">
        <ele>1010.8</ele>
        <time>2022-07-14T07:58:30Z</time>
      </trkpt>
      <trkpt lat="44.76755" lon="5.77416">
        <ele>1011</ele>
        <time>2022-07-14T07:58:31Z</time>
      </trkpt>
      <trkpt lat="44.76752" lon="5.77415">
        <ele>1011.3</ele>
        <time>2022-07-14T07:58:32Z</time>
      </trkpt>
      <trkpt lat="44.76749" lon="5.77416">
        <ele>1011.5</ele>
        <time>2022-07-14T07:58:33Z</time>
      </trkpt>
      <trkpt lat="44.76743" lon="5.77418">
        <ele>1012</ele>
        <time>2022-07-14T07:58:35Z</time>
      </trkpt>
      <trkpt lat="44.76741" lon="5.77419">
        <ele>1012.2</ele>
        <time>2022-07-14T07:58:36Z</time>
      </trkpt>
      <trkpt lat="44.76736" lon="5.77422">
        <ele>1012.6</ele>
        <time>2022-07-14T07:58:38Z</time>
      </trkpt>
      <trkpt lat="44.76733" lon="5.77427">
        <ele>1013</ele>
        <time>2022-07-14T07:58:40Z</time>
      </trkpt>
      <trkpt lat="44.76731" lon="5.7743">
        <ele>1013.2</ele>
        <time>2022-07-14T07:58:41Z</time>
      </trkpt>
      <trkpt lat="44.76727" lon="5.77433">
        <ele>1013.6</ele>
        <time>2022-07-14T07:58:42Z</time>
      </trkpt>
      <trkpt lat="44.76726" lon="5.77434">
        <ele>1013.7</ele>
        <time>2022-07-14T07:58:43Z</time>
      </trkpt>
      <trkpt lat="44.76721" lon="5.77437">
        <ele>1014.1</ele>
        <time>2022-07-14T07:58:45Z</time>
      </trkpt>
      <trkpt lat="44.76718" lon="5.77439">
        <ele>1014.4</ele>
        <time>2022-07-14T07:58:46Z</time>
      </trkpt>
      <trkpt lat="44.76714" lon="5.77441">
        <ele>1014.8</ele>
        <time>2022-07-14T07:58:48Z</time>
      </trkpt>
      <trkpt lat="44.76711" lon="5.77442">
        <ele>1015</ele>
        <time>2022-07-14T07:58:49Z</time>
      </trkpt>
      <trkpt lat="44.76706" lon="5.77443">
        <ele>1015.5</ele>
        <time>2022-07-14T07:58:50Z</time>
      </trkpt>
      <trkpt lat="44.76703" lon="5.77444">
        <ele>1015.7</ele>
        <time>2022-07-14T07:58:51Z</time>
      </trkpt>
      <trkpt lat="44.767" lon="5.77445">
        <ele>1015.9</ele>
        <time>2022-07-14T07:58:53Z</time>
      </trkpt>
      <trkpt lat="44.76696" lon="5.77444">
        <ele>1016.2</ele>
        <time>2022-07-14T07:58:55Z</time>
      </trkpt>
      <trkpt lat="44.7669" lon="5.77444">
        <ele>1016.7</ele>
        <time>2022-07-14T07:58:57Z</time>
      </trkpt>
      <trkpt lat="44.76688" lon="5.77442">
        <ele>1016.9</ele>
        <time>2022-07-14T07:58:58Z</time>
      </trkpt>
      <trkpt lat="44.76685" lon="5.77441">
        <ele>1017.2</ele>
        <time>2022-07-14T07:59:00Z</time>
      </trkpt>
      <trkpt lat="44.76682" lon="5.7744">
        <ele>1017.4</ele>
        <time>2022-07-14T07:59:01Z</time>
      </trkpt>
      <trkpt lat="44.76678" lon="5.77441">
        <ele>1017.7</ele>
        <time>2022-07-14T07:59:02Z</time>
      </trkpt>
      <trkpt lat="44.76674" lon="5.77443">
        <ele>1018.1</ele>
        <time>2022-07-14T07:59:04Z</time>
      </trkpt>
      <trkpt lat="44.7667" lon="5.77443">
        <ele>1018.3</ele>
        <time>2022-07-14T07:59:05Z</time>
      </trkpt>
      <trkpt lat="44.76669" lon="5.77443">
        <ele>1018.4</ele>
        <time>2022-07-14T07:59:06Z</time>
      </trkpt>
      <trkpt lat="44.76666" lon="5.7744">
        <ele>1018.7</ele>
        <time>2022-07-14T07:59:07Z</time>
      </trkpt>
      <trkpt lat="44.76664" lon="5.77439">
        <ele>1018.8</ele>
        <time>2022-07-14T07:59:08Z</time>
      </trkpt>
      <trkpt lat="44.76662" lon="5.77436">
        <ele>1019.1</ele>
        <time>2022-07-14T07:59:09Z</time>
      </trkpt>
      <trkpt lat="44.76655" lon="5.77433">
        <ele>1019.6</ele>
        <time>2022-07-14T07:59:11Z</time>
      </trkpt>
      <trkpt lat="44.76653" lon="5.77433">
        <ele>1019.8</ele>
        <time>2022-07-14T07:59:12Z</time>
      </trkpt>
      <trkpt lat="44.76648" lon="5.77434">
        <ele>1020.3</ele>
        <time>2022-07-14T07:59:14Z</time>
      </trkpt>
      <trkpt lat="44.76643" lon="5.77433">
        <ele>1020.7</ele>
        <time>2022-07-14T07:59:16Z</time>
      </trkpt>
      <trkpt lat="44.76642" lon="5.77433">
        <ele>1020.8</ele>
        <time>2022-07-14T07:59:17Z</time>
      </trkpt>
      <trkpt lat="44.76635" lon="5.77436">
        <ele>1021.4</ele>
        <time>2022-07-14T07:59:20Z</time>
      </trkpt>
      <trkpt lat="44.76632" lon="5.77437">
        <ele>1021.7</ele>
        <time>2022-07-14T07:59:21Z</time>
      </trkpt>
      <trkpt lat="44.7663" lon="5.77438">
        <ele>1021.9</ele>
        <time>2022-07-14T07:59:22Z</time>
      </trkpt>
      <trkpt lat="44.76625" lon="5.77441">
        <ele>1022.2</ele>
        <time>2022-07-14T07:59:24Z</time>
      </trkpt>
      <trkpt lat="44.76622" lon="5.77444">
        <ele>1022.5</ele>
        <time>2022-07-14T07:59:25Z</time>
      </trkpt>
      <trkpt lat="44.76619" lon="5.77447">
        <ele>1022.8</ele>
        <time>2022-07-14T07:59:27Z</time>
      </trkpt>
      <trkpt lat="44.76617" lon="5.7745">
        <ele>1023</ele>
        <time>2022-07-14T07:59:28Z</time>
      </trkpt>
      <trkpt lat="44.76612" lon="5.77455">
        <ele>1023.4</ele>
        <time>2022-07-14T07:59:30Z</time>
      </trkpt>
      <trkpt lat="44.76608" lon="5.77461">
        <ele>1023.7</ele>
        <time>2022-07-14T07:59:32Z</time>
      </trkpt>
      <trkpt lat="44.76604" lon="5.77465">
        <ele>1024.1</ele>
        <time>2022-07-14T07:59:34Z</time>
      </trkpt>
      <trkpt lat="44.76599" lon="5.77469">
        <ele>1024.4</ele>
        <time>2022-07-14T07:59:36Z</time>
      </trkpt>
      <trkpt lat="44.76595" lon="5.77474">
        <ele>1024.8</ele>
        <time>2022-07-14T07:59:37Z</time>
      </trkpt>
      <trkpt lat="44.76591" lon="5.7748">
        <ele>1025.2</ele>
        <time>2022-07-14T07:59:39Z</time>
      </trkpt>
      <trkpt lat="44.76588" lon="5.77483">
        <ele>1025.6</ele>
        <time>2022-07-14T07:59:40Z</time>
      </trkpt>
      <trkpt lat="44.76587" lon="5.77485">
        <ele>1025.7</ele>
        <time>2022-07-14T07:59:41Z</time>
      </trkpt>
      <trkpt lat="44.76587" lon="5.77485">
        <ele>1025.7</ele>
        <time>2022-07-14T07:59:42Z</time>
      </trkpt>
      <trkpt lat="44.76582" lon="5.77489">
        <ele>1026.1</ele>
        <time>2022-07-14T07:59:44Z</time>
      </trkpt>
      <trkpt lat="44.76579" lon="5.77494">
        <ele>1026.6</ele>
        <time>2022-07-14T07:59:45Z</time>
      </trkpt>
      <trkpt lat="44.76575" lon="5.77497">
        <ele>1027</ele>
        <time>2022-07-14T07:59:47Z</time>
      </trkpt>
      <trkpt lat="44.76572" lon="5.77501">
        <ele>1027.4</ele>
        <time>2022-07-14T07:59:49Z</time>
      </trkpt>
      <trkpt lat="44.76569" lon="5.77505">
        <ele>1027.8</ele>
        <time>2022-07-14T07:59:50Z</time>
      </trkpt>
      <trkpt lat="44.76567" lon="5.77506">
        <ele>1028</ele>
        <time>2022-07-14T07:59:51Z</time>
      </trkpt>
      <trkpt lat="44.76563" lon="5.77509">
        <ele>1028.5</ele>
        <time>2022-07-14T07:59:53Z</time>
      </trkpt>
      <trkpt lat="44.7656" lon="5.77511">
        <ele>1028.8</ele>
        <time>2022-07-14T07:59:54Z</time>
      </trkpt>
      <trkpt lat="44.76559" lon="5.77512">
        <ele>1028.9</ele>
        <time>2022-07-14T07:59:55Z</time>
      </trkpt>
      <trkpt lat="44.76556" lon="5.77515">
        <ele>1029.3</ele>
        <time>2022-07-14T07:59:56Z</time>
      </trkpt>
      <trkpt lat="44.76554" lon="5.77516">
        <ele>1029.5</ele>
        <time>2022-07-14T07:59:57Z</time>
      </trkpt>
      <trkpt lat="44.7655" lon="5.77517">
        <ele>1029.9</ele>
        <time>2022-07-14T07:59:59Z</time>
      </trkpt>
      <trkpt lat="44.76548" lon="5.77518">
        <ele>1030.1</ele>
        <time>2022-07-14T08:00:00Z</time>
      </trkpt>
      <trkpt lat="44.76543" lon="5.7752">
        <ele>1030.6</ele>
        <time>2022-07-14T08:00:02Z</time>
      </trkpt>
      <trkpt lat="44.7654" lon="5.77521">
        <ele>1030.9</ele>
        <time>2022-07-14T08:00:03Z</time>
      </trkpt>
      <trkpt lat="44.7654" lon="5.77521">
        <ele>1031</ele>
        <time>2022-07-14T08:00:04Z</time>
      </trkpt>
      <trkpt lat="44.76535" lon="5.77523">
        <ele>1031.4</ele>
        <time>2022-07-14T08:00:07Z</time>
      </trkpt>
      <trkpt lat="44.76532" lon="5.77526">
        <ele>1031.8</ele>
        <time>2022-07-14T08:00:08Z</time>
      </trkpt>
      <trkpt lat="44.76526" lon="5.7753">
        <ele>1032.4</ele>
        <time>2022-07-14T08:00:11Z</time>
      </trkpt>
      <trkpt lat="44.76524" lon="5.77533">
        <ele>1032.7</ele>
        <time>2022-07-14T08:00:12Z</time>
      </trkpt>
      <trkpt lat="44.76521" lon="5.77535">
        <ele>1033</ele>
        <time>2022-07-14T08:00:13Z</time>
      </trkpt>
      <trkpt lat="44.76517" lon="5.77539">
        <ele>1033.5</ele>
        <time>2022-07-14T08:00:15Z</time>
      </trkpt>
      <trkpt lat="44.76516" lon="5.7754">
        <ele>1033.6</ele>
        <time>2022-07-14T08:00:16Z</time>
      </trkpt>
      <trkpt lat="44.76514" lon="5.77541">
        <ele>1033.7</ele>
        <time>2022-07-14T08:00:17Z</time>
      </trkpt>
      <trkpt lat="44.76513" lon="5.77541">
        <ele>1033.9</ele>
        <time>2022-07-14T08:00:18Z</time>
      </trkpt>
      <trkpt lat="44.7651" lon="5.77544">
        <ele>1034.2</ele>
        <time>2022-07-14T08:00:20Z</time>
      </trkpt>
      <trkpt lat="44.76505" lon="5.77546">
        <ele>1034.7</ele>
        <time>2022-07-14T08:00:22Z</time>
      </trkpt>
      <trkpt lat="44.76502" lon="5.77547">
        <ele>1035</ele>
        <time>2022-07-14T08:00:23Z</time>
      </trkpt>
      <trkpt lat="44.765" lon="5.77547">
        <ele>1035.1</ele>
        <time>2022-07-14T08:00:24Z</time>
      </trkpt>
      <trkpt lat="44.76494" lon="5.77547">
        <ele>1035.7</ele>
        <time>2022-07-14T08:00:27Z</time>
      </trkpt>
      <trkpt lat="44.76492" lon="5.77548">
        <ele>1035.9</ele>
        <time>2022-07-14T08:00:28Z</time>
      </trkpt>
      <trkpt lat="44.76488" lon="5.77548">
        <ele>1036.3</ele>
        <time>2022-07-14T08:00:30Z</time>
      </trkpt>
      <trkpt lat="44.76484" lon="5.77548">
        <ele>1036.7</ele>
        <time>2022-07-14T08:00:32Z</time>
      </trkpt>
      <trkpt lat="44.76479" lon="5.77547">
        <ele>1037.2</ele>
        <time>2022-07-14T08:00:34Z</time>
      </trkpt>
      <trkpt lat="44.76475" lon="5.77549">
        <ele>1037.6</ele>
        <time>2022-07-14T08:00:36Z</time>
      </trkpt>
      <trkpt lat="44.76473" lon="5.7755">
        <ele>1037.8</ele>
        <time>2022-07-14T08:00:37Z</time>
      </trkpt>
      <trkpt lat="44.76472" lon="5.77551">
        <ele>1037.9</ele>
        <time>2022-07-14T08:00:38Z</time>
      </trkpt>
      <trkpt lat="44.76468" lon="5.7755">
        <ele>1038.3</ele>
        <time>2022-07-14T08:00:40Z</time>
      </trkpt>
      <trkpt lat="44.76465" lon="5.77549">
        <ele>1038.6</ele>
        <time>2022-07-14T08:00:41Z</time>
      </trkpt>
      <trkpt lat="44.76461" lon="5.77553">
        <ele>1039.1</ele>
        <time>2022-07-14T08:00:44Z</time>
      </trkpt>
      <trkpt lat="44.76458" lon="5.77555">
        <ele>1039.4</ele>
        <time>2022-07-14T08:00:45Z</time>
      </trkpt>
      <trkpt lat="44.76455" lon="5.77557">
        <ele>1039.6</ele>
        <time>2022-07-14T08:00:46Z</time>
      </trkpt>
      <trkpt lat="44.76454" lon="5.77558">
        <ele>1039.8</ele>
        <time>2022-07-14T08:00:47Z</time>
      </trkpt>
      <trkpt lat="44.76451" lon="5.77562">
        <ele>1040.3</ele>
        <time>2022-07-14T08:00:49Z</time>
      </trkpt>
      <trkpt lat="44.7645" lon="5.77564">
        <ele>1040.6</ele>
        <time>2022-07-14T08:00:50Z</time>
      </trkpt>
      <trkpt lat="44.76447" lon="5.77568">
        <ele>1041</ele>
        <time>2022-07-14T08:00:52Z</time>
      </trkpt>
      <trkpt lat="44.76443" lon="5.77572">
        <ele>1041.6</ele>
        <time>2022-07-14T08:00:54Z</time>
      </trkpt>
      <trkpt lat="44.76439" lon="5.77576">
        <ele>1042.1</ele>
        <time>2022-07-14T08:00:56Z</time>
      </trkpt>
      <trkpt lat="44.76437" lon="5.77578">
        <ele>1042.4</ele>
        <time>2022-07-14T08:00:57Z</time>
      </trkpt>
      <trkpt lat="44.76435" lon="5.77579">
        <ele>1042.6</ele>
        <time>2022-07-14T08:00:58Z</time>
      </trkpt>
      <trkpt lat="44.76433" lon="5.77582">
        <ele>1043</ele>
        <time>2022-07-14T08:01:00Z</time>
      </trkpt>
      <trkpt lat="44.76426" lon="5.77584">
        <ele>1043.8</ele>
        <time>2022-07-14T08:01:03Z</time>
      </trkpt>
      <trkpt lat="44.76422" lon="5.77586">
        <ele>1044.3</ele>
        <time>2022-07-14T08:01:05Z</time>
      </trkpt>
      <trkpt lat="44.76419" lon="5.77586">
        <ele>1044.7</ele>
        <time>2022-07-14T08:01:06Z</time>
      </trkpt>
      <trkpt lat="44.76418" lon="5.77586">
        <ele>1044.7</ele>
        <time>2022-07-14T08:01:07Z</time>
      </trkpt>
      <trkpt lat="44.76416" lon="5.77586">
        <ele>1044.9</ele>
        <time>2022-07-14T08:01:08Z</time>
      </trkpt>
      <trkpt lat="44.76412" lon="5.77589">
        <ele>1045.4</ele>
        <time>2022-07-14T08:01:10Z</time>
      </trkpt>
      <trkpt lat="44.76408" lon="5.77592">
        <ele>1045.8</ele>
        <time>2022-07-14T08:01:12Z</time>
      </trkpt>
      <trkpt lat="44.76406" lon="5.77594">
        <ele>1046</ele>
        <time>2022-07-14T08:01:13Z</time>
      </trkpt>
      <trkpt lat="44.76403" lon="5.77596">
        <ele>1046.3</ele>
        <time>2022-07-14T08:01:15Z</time>
      </trkpt>
      <trkpt lat="44.764" lon="5.77598">
        <ele>1046.6</ele>
        <time>2022-07-14T08:01:17Z</time>
      </trkpt>
      <trkpt lat="44.76398" lon="5.77598">
        <ele>1046.8</ele>
        <time>2022-07-14T08:01:18Z</time>
      </trkpt>
      <trkpt lat="44.76392" lon="5.77601">
        <ele>1047.4</ele>
        <time>2022-07-14T08:01:21Z</time>
      </trkpt>
      <trkpt lat="44.76388" lon="5.77602">
        <ele>1047.8</ele>
        <time>2022-07-14T08:01:23Z</time>
      </trkpt>
      <trkpt lat="44.76381" lon="5.77603">
        <ele>1048.5</ele>
        <time>2022-07-14T08:01:26Z</time>
      </trkpt>
      <trkpt lat="44.76378" lon="5.77604">
        <ele>1048.9</ele>
        <time>2022-07-14T08:01:29Z</time>
      </trkpt>
      <trkpt lat="44.76374" lon="5.77604">
        <ele>1049.2</ele>
        <time>2022-07-14T08:01:30Z</time>
      </trkpt>
      <trkpt lat="44.7637" lon="5.77603">
        <ele>1049.6</ele>
        <time>2022-07-14T08:01:32Z</time>
      </trkpt>
      <trkpt lat="44.76366" lon="5.77603">
        <ele>1050</ele>
        <time>2022-07-14T08:01:34Z</time>
      </trkpt>
      <trkpt lat="44.7636" lon="5.77604">
        <ele>1050.5</ele>
        <time>2022-07-14T08:01:36Z</time>
      </trkpt>
      <trkpt lat="44.76357" lon="5.77603">
        <ele>1050.8</ele>
        <time>2022-07-14T08:01:38Z</time>
      </trkpt>
      <trkpt lat="44.76355" lon="5.77603">
        <ele>1050.9</ele>
        <time>2022-07-14T08:01:39Z</time>
      </trkpt>
      <trkpt lat="44.76351" lon="5.77602">
        <ele>1051.3</ele>
        <time>2022-07-14T08:01:41Z</time>
      </trkpt>
      <trkpt lat="44.76347" lon="5.77604">
        <ele>1051.5</ele>
        <time>2022-07-14T08:01:42Z</time>
      </trkpt>
      <trkpt lat="44.76344" lon="5.77608">
        <ele>1051.8</ele>
        <time>2022-07-14T08:01:44Z</time>
      </trkpt>
      <trkpt lat="44.76343" lon="5.7761">
        <ele>1052</ele>
        <time>2022-07-14T08:01:45Z</time>
      </trkpt>
      <trkpt lat="44.76338" lon="5.77613">
        <ele>1052.3</ele>
        <time>2022-07-14T08:01:48Z</time>
      </trkpt>
      <trkpt lat="44.76334" lon="5.77615">
        <ele>1052.6</ele>
        <time>2022-07-14T08:01:49Z</time>
      </trkpt>
      <trkpt lat="44.7633" lon="5.77619">
        <ele>1053</ele>
        <time>2022-07-14T08:01:51Z</time>
      </trkpt>
      <trkpt lat="44.76325" lon="5.77625">
        <ele>1053.4</ele>
        <time>2022-07-14T08:01:54Z</time>
      </trkpt>
      <trkpt lat="44.76324" lon="5.77626">
        <ele>1053.5</ele>
        <time>2022-07-14T08:01:55Z</time>
      </trkpt>
      <trkpt lat="44.76322" lon="5.77628">
        <ele>1053.7</ele>
        <time>2022-07-14T08:01:56Z</time>
      </trkpt>
      <trkpt lat="44.7632" lon="5.7763">
        <ele>1053.8</ele>
        <time>2022-07-14T08:01:57Z</time>
      </trkpt>
      <trkpt lat="44.76315" lon="5.77636">
        <ele>1054.4</ele>
        <time>2022-07-14T08:02:00Z</time>
      </trkpt>
      <trkpt lat="44.76313" lon="5.77638">
        <ele>1054.6</ele>
        <time>2022-07-14T08:02:01Z</time>
      </trkpt>
      <trkpt lat="44.76308" lon="5.77644">
        <ele>1055</ele>
        <time>2022-07-14T08:02:04Z</time>
      </trkpt>
      <trkpt lat="44.76306" lon="5.77648">
        <ele>1055.3</ele>
        <time>2022-07-14T08:02:05Z</time>
      </trkpt>
      <trkpt lat="44.76303" lon="5.77653">
        <ele>1055.7</ele>
        <time>2022-07-14T08:02:07Z</time>
      </trkpt>
      <trkpt lat="44.76301" lon="5.77661">
        <ele>1056.1</ele>
        <time>2022-07-14T08:02:10Z</time>
      </trkpt>
      <trkpt lat="44.76299" lon="5.77671">
        <ele>1056.7</ele>
        <time>2022-07-14T08:02:13Z</time>
      </trkpt>
      <trkpt lat="44.76299" lon="5.77679">
        <ele>1057.1</ele>
        <time>2022-07-14T08:02:16Z</time>
      </trkpt>
      <trkpt lat="44.76299" lon="5.77684">
        <ele>1057.3</ele>
        <time>2022-07-14T08:02:17Z</time>
      </trkpt>
      <trkpt lat="44.76299" lon="5.77686">
        <ele>1057.4</ele>
        <time>2022-07-14T08:02:18Z</time>
      </trkpt>
      <trkpt lat="44.76299" lon="5.77697">
        <ele>1058</ele>
        <time>2022-07-14T08:02:21Z</time>
      </trkpt>
      <trkpt lat="44.76298" lon="5.77701">
        <ele>1058.3</ele>
        <time>2022-07-14T08:02:22Z</time>
      </trkpt>
      <trkpt lat="44.76298" lon="5.77703">
        <ele>1058.4</ele>
        <time>2022-07-14T08:02:23Z</time>
      </trkpt>
      <trkpt lat="44.76295" lon="5.7771">
        <ele>1058.9</ele>
        <time>2022-07-14T08:02:25Z</time>
      </trkpt>
      <trkpt lat="44.76289" lon="5.77714">
        <ele>1059.4</ele>
        <time>2022-07-14T08:02:27Z</time>
      </trkpt>
      <trkpt lat="44.76284" lon="5.77715">
        <ele>1059.8</ele>
        <time>2022-07-14T08:02:28Z</time>
      </trkpt>
      <trkpt lat="44.76279" lon="5.77713">
        <ele>1060.3</ele>
        <time>2022-07-14T08:02:30Z</time>
      </trkpt>
      <trkpt lat="44.76276" lon="5.77709">
        <ele>1060.6</ele>
        <time>2022-07-14T08:02:31Z</time>
      </trkpt>
      <trkpt lat="44.76271" lon="5.77704">
        <ele>1061</ele>
        <time>2022-07-14T08:02:32Z</time>
      </trkpt>
      <trkpt lat="44.76266" lon="5.77701">
        <ele>1061.3</ele>
        <time>2022-07-14T08:02:34Z</time>
      </trkpt>
      <trkpt lat="44.76263" lon="5.77697">
        <ele>1061.5</ele>
        <time>2022-07-14T08:02:36Z</time>
      </trkpt>
      <trkpt lat="44.7626" lon="5.77697">
        <ele>1061.6</ele>
        <time>2022-07-14T08:02:37Z</time>
      </trkpt>
      <trkpt lat="44.76256" lon="5.77698">
        <ele>1061.8</ele>
        <time>2022-07-14T08:02:38Z</time>
      </trkpt>
      <trkpt lat="44.76253" lon="5.77698">
        <ele>1062</ele>
        <time>2022-07-14T08:02:39Z</time>
      </trkpt>
      <trkpt lat="44.7625" lon="5.777">
        <ele>1062.1</ele>
        <time>2022-07-14T08:02:40Z</time>
      </trkpt>
      <trkpt lat="44.76245" lon="5.77707">
        <ele>1062.4</ele>
        <time>2022-07-14T08:02:42Z</time>
      </trkpt>
      <trkpt lat="44.76245" lon="5.77713">
        <ele>1062.6</ele>
        <time>2022-07-14T08:02:43Z</time>
      </trkpt>
      <trkpt lat="44.76241" lon="5.77722">
        <ele>1063</ele>
        <time>2022-07-14T08:02:45Z</time>
      </trkpt>
      <trkpt lat="44.76238" lon="5.77727">
        <ele>1063.2</ele>
        <time>2022-07-14T08:02:46Z</time>
      </trkpt>
      <trkpt lat="44.76236" lon="5.77732">
        <ele>1063.4</ele>
        <time>2022-07-14T08:02:47Z</time>
      </trkpt>
      <trkpt lat="44.76236" lon="5.77734">
        <ele>1063.5</ele>
        <time>2022-07-14T08:02:48Z</time>
      </trkpt>
      <trkpt lat="44.76234" lon="5.77737">
        <ele>1063.7</ele>
        <time>2022-07-14T08:02:49Z</time>
      </trkpt>
      <trkpt lat="44.76232" lon="5.77741">
        <ele>1063.9</ele>
        <time>2022-07-14T08:02:50Z</time>
      </trkpt>
      <trkpt lat="44.76229" lon="5.77746">
        <ele>1064.2</ele>
        <time>2022-07-14T08:02:51Z</time>
      </trkpt>
      <trkpt lat="44.76225" lon="5.77749">
        <ele>1064.5</ele>
        <time>2022-07-14T08:02:52Z</time>
      </trkpt>
      <trkpt lat="44.76219" lon="5.77751">
        <ele>1065</ele>
        <time>2022-07-14T08:02:54Z</time>
      </trkpt>
      <trkpt lat="44.76212" lon="5.77753">
        <ele>1065.4</ele>
        <time>2022-07-14T08:02:55Z</time>
      </trkpt>
      <trkpt lat="44.76208" lon="5.77752">
        <ele>1065.8</ele>
        <time>2022-07-14T08:02:56Z</time>
      </trkpt>
      <trkpt lat="44.76194" lon="5.77742">
        <ele>1066.8</ele>
        <time>2022-07-14T08:02:59Z</time>
      </trkpt>
      <trkpt lat="44.76191" lon="5.77738">
        <ele>1067</ele>
        <time>2022-07-14T08:03:00Z</time>
      </trkpt>
      <trkpt lat="44.76186" lon="5.77731">
        <ele>1067.3</ele>
        <time>2022-07-14T08:03:02Z</time>
      </trkpt>
      <trkpt lat="44.76183" lon="5.77729">
        <ele>1067.5</ele>
        <time>2022-07-14T08:03:03Z</time>
      </trkpt>
      <trkpt lat="44.76176" lon="5.77731">
        <ele>1067.7</ele>
        <time>2022-07-14T08:03:05Z</time>
      </trkpt>
      <trkpt lat="44.76173" lon="5.77734">
        <ele>1067.9</ele>
        <time>2022-07-14T08:03:06Z</time>
      </trkpt>
      <trkpt lat="44.7616" lon="5.77734">
        <ele>1068.2</ele>
        <time>2022-07-14T08:03:08Z</time>
      </trkpt>
      <trkpt lat="44.76156" lon="5.77733">
        <ele>1068.3</ele>
        <time>2022-07-14T08:03:10Z</time>
      </trkpt>
      <trkpt lat="44.76154" lon="5.77737">
        <ele>1068.5</ele>
        <time>2022-07-14T08:03:11Z</time>
      </trkpt>
      <trkpt lat="44.76152" lon="5.77742">
        <ele>1068.7</ele>
        <time>2022-07-14T08:03:12Z</time>
      </trkpt>
      <trkpt lat="44.76152" lon="5.77744">
        <ele>1068.7</ele>
        <time>2022-07-14T08:03:13Z</time>
      </trkpt>
      <trkpt lat="44.76148" lon="5.77747">
        <ele>1069</ele>
        <time>2022-07-14T08:03:15Z</time>
      </trkpt>
      <trkpt lat="44.76145" lon="5.77749">
        <ele>1069.2</ele>
        <time>2022-07-14T08:03:16Z</time>
      </trkpt>
      <trkpt lat="44.76143" lon="5.7775">
        <ele>1069.4</ele>
        <time>2022-07-14T08:03:17Z</time>
      </trkpt>
      <trkpt lat="44.76138" lon="5.7775">
        <ele>1069.7</ele>
        <time>2022-07-14T08:03:18Z</time>
      </trkpt>
      <trkpt lat="44.76135" lon="5.7775">
        <ele>1069.9</ele>
        <time>2022-07-14T08:03:20Z</time>
      </trkpt>
      <trkpt lat="44.76134" lon="5.77751">
        <ele>1070</ele>
        <time>2022-07-14T08:03:21Z</time>
      </trkpt>
      <trkpt lat="44.76131" lon="5.7775">
        <ele>1070.3</ele>
        <time>2022-07-14T08:03:22Z</time>
      </trkpt>
      <trkpt lat="44.76128" lon="5.77748">
        <ele>1070.5</ele>
        <time>2022-07-14T08:03:23Z</time>
      </trkpt>
      <trkpt lat="44.76124" lon="5.77747">
        <ele>1070.8</ele>
        <time>2022-07-14T08:03:24Z</time>
      </trkpt>
      <trkpt lat="44.76118" lon="5.77743">
        <ele>1071.1</ele>
        <time>2022-07-14T08:03:25Z</time>
      </trkpt>
      <trkpt lat="44.76115" lon="5.7774">
        <ele>1071.4</ele>
        <time>2022-07-14T08:03:27Z</time>
      </trkpt>
      <trkpt lat="44.76112" lon="5.77725">
        <ele>1071.9</ele>
        <time>2022-07-14T08:03:30Z</time>
      </trkpt>
      <trkpt lat="44.76114" lon="5.77719">
        <ele>1072.1</ele>
        <time>2022-07-14T08:03:31Z</time>
      </trkpt>
      <trkpt lat="44.76115" lon="5.77711">
        <ele>1072.3</ele>
        <time>2022-07-14T08:03:32Z</time>
      </trkpt>
      <trkpt lat="44.76117" lon="5.77705">
        <ele>1072.4</ele>
        <time>2022-07-14T08:03:33Z</time>
      </trkpt>
      <trkpt lat="44.76118" lon="5.77691">
        <ele>1072.8</ele>
        <time>2022-07-14T08:03:35Z</time>
      </trkpt>
      <trkpt lat="44.7612" lon="5.77682">
        <ele>1073.1</ele>
        <time>2022-07-14T08:03:37Z</time>
      </trkpt>
      <trkpt lat="44.76122" lon="5.77677">
        <ele>1073.3</ele>
        <time>2022-07-14T08:03:38Z</time>
      </trkpt>
      <trkpt lat="44.76127" lon="5.77666">
        <ele>1074</ele>
        <time>2022-07-14T08:03:39Z</time>
      </trkpt>
      <trkpt lat="44.76131" lon="5.77661">
        <ele>1074.5</ele>
        <time>2022-07-14T08:03:41Z</time>
      </trkpt>
      <trkpt lat="44.76134" lon="5.77654">
        <ele>1075</ele>
        <time>2022-07-14T08:03:42Z</time>
      </trkpt>
      <trkpt lat="44.76135" lon="5.7765">
        <ele>1075.3</ele>
        <time>2022-07-14T08:03:43Z</time>
      </trkpt>
      <trkpt lat="44.76138" lon="5.77643">
        <ele>1075.9</ele>
        <time>2022-07-14T08:03:44Z</time>
      </trkpt>
      <trkpt lat="44.76143" lon="5.77635">
        <ele>1076.7</ele>
        <time>2022-07-14T08:03:46Z</time>
      </trkpt>
      <trkpt lat="44.76144" lon="5.77629">
        <ele>1077.1</ele>
        <time>2022-07-14T08:03:47Z</time>
      </trkpt>
      <trkpt lat="44.76141" lon="5.77618">
        <ele>1077.8</ele>
        <time>2022-07-14T08:03:49Z</time>
      </trkpt>
      <trkpt lat="44.76138" lon="5.7761">
        <ele>1078</ele>
        <time>2022-07-14T08:03:50Z</time>
      </trkpt>
      <trkpt lat="44.76123" lon="5.77609">
        <ele>1078.4</ele>
        <time>2022-07-14T08:03:52Z</time>
      </trkpt>
      <trkpt lat="44.76117" lon="5.77603">
        <ele>1078.5</ele>
        <time>2022-07-14T08:03:54Z</time>
      </trkpt>
      <trkpt lat="44.76111" lon="5.77606">
        <ele>1078.7</ele>
        <time>2022-07-14T08:03:55Z</time>
      </trkpt>
      <trkpt lat="44.76107" lon="5.77604">
        <ele>1078.8</ele>
        <time>2022-07-14T08:03:56Z</time>
      </trkpt>
      <trkpt lat="44.76104" lon="5.77599">
        <ele>1079</ele>
        <time>2022-07-14T08:03:57Z</time>
      </trkpt>
      <trkpt lat="44.76099" lon="5.77592">
        <ele>1079.3</ele>
        <time>2022-07-14T08:03:59Z</time>
      </trkpt>
      <trkpt lat="44.76096" lon="5.77589">
        <ele>1079.5</ele>
        <time>2022-07-14T08:04:00Z</time>
      </trkpt>
      <trkpt lat="44.76095" lon="5.77586">
        <ele>1079.6</ele>
        <time>2022-07-14T08:04:01Z</time>
      </trkpt>
      <trkpt lat="44.76093" lon="5.77582">
        <ele>1079.8</ele>
        <time>2022-07-14T08:04:02Z</time>
      </trkpt>
      <trkpt lat="44.76093" lon="5.77581">
        <ele>1079.8</ele>
        <time>2022-07-14T08:04:03Z</time>
      </trkpt>
      <trkpt lat="44.76091" lon="5.77578">
        <ele>1080</ele>
        <time>2022-07-14T08:04:05Z</time>
      </trkpt>
      <trkpt lat="44.76091" lon="5.77577">
        <ele>1080</ele>
        <time>2022-07-14T08:04:06Z</time>
      </trkpt>
      <trkpt lat="44.76089" lon="5.77574">
        <ele>1080.1</ele>
        <time>2022-07-14T08:04:08Z</time>
      </trkpt>
      <trkpt lat="44.76087" lon="5.77569">
        <ele>1080.4</ele>
        <time>2022-07-14T08:04:09Z</time>
      </trkpt>
      <trkpt lat="44.76084" lon="5.77565">
        <ele>1080.7</ele>
        <time>2022-07-14T08:04:10Z</time>
      </trkpt>
      <trkpt lat="44.76081" lon="5.77562">
        <ele>1080.9</ele>
        <time>2022-07-14T08:04:11Z</time>
      </trkpt>
      <trkpt lat="44.76081" lon="5.7756">
        <ele>1081</ele>
        <time>2022-07-14T08:04:12Z</time>
      </trkpt>
      <trkpt lat="44.76079" lon="5.77557">
        <ele>1081.2</ele>
        <time>2022-07-14T08:04:13Z</time>
      </trkpt>
      <trkpt lat="44.76077" lon="5.77554">
        <ele>1081.5</ele>
        <time>2022-07-14T08:04:14Z</time>
      </trkpt>
      <trkpt lat="44.76074" lon="5.77551">
        <ele>1081.8</ele>
        <time>2022-07-14T08:04:15Z</time>
      </trkpt>
      <trkpt lat="44.76071" lon="5.77548">
        <ele>1082</ele>
        <time>2022-07-14T08:04:16Z</time>
      </trkpt>
      <trkpt lat="44.76066" lon="5.77542">
        <ele>1082.7</ele>
        <time>2022-07-14T08:04:18Z</time>
      </trkpt>
      <trkpt lat="44.76064" lon="5.77539">
        <ele>1083</ele>
        <time>2022-07-14T08:04:19Z</time>
      </trkpt>
      <trkpt lat="44.76064" lon="5.77537">
        <ele>1083.1</ele>
        <time>2022-07-14T08:04:20Z</time>
      </trkpt>
      <trkpt lat="44.76061" lon="5.77533">
        <ele>1083.5</ele>
        <time>2022-07-14T08:04:21Z</time>
      </trkpt>
      <trkpt lat="44.76057" lon="5.77527">
        <ele>1084</ele>
        <time>2022-07-14T08:04:23Z</time>
      </trkpt>
      <trkpt lat="44.76056" lon="5.77524">
        <ele>1084.3</ele>
        <time>2022-07-14T08:04:24Z</time>
      </trkpt>
      <trkpt lat="44.76054" lon="5.77521">
        <ele>1084.5</ele>
        <time>2022-07-14T08:04:25Z</time>
      </trkpt>
      <trkpt lat="44.76052" lon="5.77518">
        <ele>1084.8</ele>
        <time>2022-07-14T08:04:26Z</time>
      </trkpt>
      <trkpt lat="44.7605" lon="5.77509">
        <ele>1085.3</ele>
        <time>2022-07-14T08:04:29Z</time>
      </trkpt>
      <trkpt lat="44.76055" lon="5.77511">
        <ele>1085.7</ele>
        <time>2022-07-14T08:04:30Z</time>
      </trkpt>
      <trkpt lat="44.76057" lon="5.77505">
        <ele>1086</ele>
        <time>2022-07-14T08:04:32Z</time>
      </trkpt>
      <trkpt lat="44.76058" lon="5.77504">
        <ele>1086.2</ele>
        <time>2022-07-14T08:04:33Z</time>
      </trkpt>
      <trkpt lat="44.7606" lon="5.77498">
        <ele>1086.5</ele>
        <time>2022-07-14T08:04:35Z</time>
      </trkpt>
      <trkpt lat="44.76063" lon="5.77492">
        <ele>1086.8</ele>
        <time>2022-07-14T08:04:36Z</time>
      </trkpt>
      <trkpt lat="44.76064" lon="5.77488">
        <ele>1086.9</ele>
        <time>2022-07-14T08:04:37Z</time>
      </trkpt>
      <trkpt lat="44.76064" lon="5.77476">
        <ele>1087.4</ele>
        <time>2022-07-14T08:04:39Z</time>
      </trkpt>
      <trkpt lat="44.76065" lon="5.77471">
        <ele>1087.6</ele>
        <time>2022-07-14T08:04:40Z</time>
      </trkpt>
      <trkpt lat="44.76066" lon="5.77466">
        <ele>1087.8</ele>
        <time>2022-07-14T08:04:41Z</time>
      </trkpt>
      <trkpt lat="44.76067" lon="5.77458">
        <ele>1088.2</ele>
        <time>2022-07-14T08:04:43Z</time>
      </trkpt>
      <trkpt lat="44.76068" lon="5.77454">
        <ele>1088.4</ele>
        <time>2022-07-14T08:04:44Z</time>
      </trkpt>
      <trkpt lat="44.76069" lon="5.7745">
        <ele>1088.5</ele>
        <time>2022-07-14T08:04:45Z</time>
      </trkpt>
      <trkpt lat="44.7607" lon="5.77444">
        <ele>1088.8</ele>
        <time>2022-07-14T08:04:47Z</time>
      </trkpt>
      <trkpt lat="44.76069" lon="5.7744">
        <ele>1088.9</ele>
        <time>2022-07-14T08:04:48Z</time>
      </trkpt>
      <trkpt lat="44.7607" lon="5.77438">
        <ele>1089</ele>
        <time>2022-07-14T08:04:49Z</time>
      </trkpt>
      <trkpt lat="44.7607" lon="5.77435">
        <ele>1089.1</ele>
        <time>2022-07-14T08:04:50Z</time>
      </trkpt>
      <trkpt lat="44.7607" lon="5.77432">
        <ele>1089.2</ele>
        <time>2022-07-14T08:04:51Z</time>
      </trkpt>
      <trkpt lat="44.76071" lon="5.77426">
        <ele>1089.4</ele>
        <time>2022-07-14T08:04:53Z</time>
      </trkpt>
      <trkpt lat="44.76075" lon="5.77414">
        <ele>1090.1</ele>
        <time>2022-07-14T08:04:56Z</time>
      </trkpt>
      <trkpt lat="44.76079" lon="5.77405">
        <ele>1090.7</ele>
        <time>2022-07-14T08:04:59Z</time>
      </trkpt>
      <trkpt lat="44.76081" lon="5.77399">
        <ele>1091.1</ele>
        <time>2022-07-14T08:05:00Z</time>
      </trkpt>
      <trkpt lat="44.76084" lon="5.77395">
        <ele>1091.5</ele>
        <time>2022-07-14T08:05:01Z</time>
      </trkpt>
      <trkpt lat="44.76088" lon="5.77391">
        <ele>1091.8</ele>
        <time>2022-07-14T08:05:04Z</time>
      </trkpt>
      <trkpt lat="44.7609" lon="5.77387">
        <ele>1092.2</ele>
        <time>2022-07-14T08:05:05Z</time>
      </trkpt>
      <trkpt lat="44.76093" lon="5.7738">
        <ele>1092.6</ele>
        <time>2022-07-14T08:05:07Z</time>
      </trkpt>
      <trkpt lat="44.76097" lon="5.77371">
        <ele>1093.2</ele>
        <time>2022-07-14T08:05:09Z</time>
      </trkpt>
      <trkpt lat="44.761" lon="5.77364">
        <ele>1093.8</ele>
        <time>2022-07-14T08:05:11Z</time>
      </trkpt>
      <trkpt lat="44.76102" lon="5.77361">
        <ele>1093.9</ele>
        <time>2022-07-14T08:05:12Z</time>
      </trkpt>
      <trkpt lat="44.76104" lon="5.77353">
        <ele>1094.4</ele>
        <time>2022-07-14T08:05:14Z</time>
      </trkpt>
      <trkpt lat="44.76105" lon="5.77348">
        <ele>1094.7</ele>
        <time>2022-07-14T08:05:15Z</time>
      </trkpt>
      <trkpt lat="44.76109" lon="5.77336">
        <ele>1095.4</ele>
        <time>2022-07-14T08:05:18Z</time>
      </trkpt>
      <trkpt lat="44.7611" lon="5.77324">
        <ele>1096.1</ele>
        <time>2022-07-14T08:05:21Z</time>
      </trkpt>
      <trkpt lat="44.7611" lon="5.77318">
        <ele>1096.5</ele>
        <time>2022-07-14T08:05:22Z</time>
      </trkpt>
      <trkpt lat="44.76107" lon="5.77313">
        <ele>1096.9</ele>
        <time>2022-07-14T08:05:24Z</time>
      </trkpt>
      <trkpt lat="44.76106" lon="5.77308">
        <ele>1097.2</ele>
        <time>2022-07-14T08:05:26Z</time>
      </trkpt>
      <trkpt lat="44.76104" lon="5.77304">
        <ele>1097.5</ele>
        <time>2022-07-14T08:05:27Z</time>
      </trkpt>
      <trkpt lat="44.76099" lon="5.77297">
        <ele>1098</ele>
        <time>2022-07-14T08:05:29Z</time>
      </trkpt>
      <trkpt lat="44.76096" lon="5.77295">
        <ele>1098.3</ele>
        <time>2022-07-14T08:05:31Z</time>
      </trkpt>
      <trkpt lat="44.76094" lon="5.77292">
        <ele>1098.5</ele>
        <time>2022-07-14T08:05:32Z</time>
      </trkpt>
      <trkpt lat="44.76092" lon="5.77284">
        <ele>1098.9</ele>
        <time>2022-07-14T08:05:34Z</time>
      </trkpt>
      <trkpt lat="44.7609" lon="5.77281">
        <ele>1099.1</ele>
        <time>2022-07-14T08:05:35Z</time>
      </trkpt>
      <trkpt lat="44.76087" lon="5.77277">
        <ele>1099.4</ele>
        <time>2022-07-14T08:05:36Z</time>
      </trkpt>
      <trkpt lat="44.76086" lon="5.77275">
        <ele>1099.5</ele>
        <time>2022-07-14T08:05:37Z</time>
      </trkpt>
      <trkpt lat="44.7608" lon="5.77269">
        <ele>1100</ele>
        <time>2022-07-14T08:05:39Z</time>
      </trkpt>
      <trkpt lat="44.76077" lon="5.77265">
        <ele>1100.3</ele>
        <time>2022-07-14T08:05:40Z</time>
      </trkpt>
      <trkpt lat="44.76073" lon="5.77258">
        <ele>1100.7</ele>
        <time>2022-07-14T08:05:42Z</time>
      </trkpt>
      <trkpt lat="44.76072" lon="5.77257">
        <ele>1100.8</ele>
        <time>2022-07-14T08:05:43Z</time>
      </trkpt>
      <trkpt lat="44.76068" lon="5.77253">
        <ele>1101.1</ele>
        <time>2022-07-14T08:05:45Z</time>
      </trkpt>
      <trkpt lat="44.76065" lon="5.7725">
        <ele>1101.3</ele>
        <time>2022-07-14T08:05:46Z</time>
      </trkpt>
      <trkpt lat="44.76063" lon="5.77248">
        <ele>1101.5</ele>
        <time>2022-07-14T08:05:47Z</time>
      </trkpt>
      <trkpt lat="44.7606" lon="5.77242">
        <ele>1101.8</ele>
        <time>2022-07-14T08:05:49Z</time>
      </trkpt>
      <trkpt lat="44.76058" lon="5.77239">
        <ele>1102</ele>
        <time>2022-07-14T08:05:50Z</time>
      </trkpt>
      <trkpt lat="44.76055" lon="5.77235">
        <ele>1102.2</ele>
        <time>2022-07-14T08:05:51Z</time>
      </trkpt>
      <trkpt lat="44.76051" lon="5.77229">
        <ele>1102.6</ele>
        <time>2022-07-14T08:05:53Z</time>
      </trkpt>
      <trkpt lat="44.76049" lon="5.77226">
        <ele>1102.7</ele>
        <time>2022-07-14T08:05:54Z</time>
      </trkpt>
      <trkpt lat="44.76046" lon="5.7722">
        <ele>1103.1</ele>
        <time>2022-07-14T08:05:56Z</time>
      </trkpt>
      <trkpt lat="44.76044" lon="5.77217">
        <ele>1103.2</ele>
        <time>2022-07-14T08:05:57Z</time>
      </trkpt>
      <trkpt lat="44.76045" lon="5.77213">
        <ele>1103.4</ele>
        <time>2022-07-14T08:05:58Z</time>
      </trkpt>
      <trkpt lat="44.76045" lon="5.77209">
        <ele>1103.5</ele>
        <time>2022-07-14T08:05:59Z</time>
      </trkpt>
      <trkpt lat="44.76044" lon="5.77203">
        <ele>1103.7</ele>
        <time>2022-07-14T08:06:00Z</time>
      </trkpt>
      <trkpt lat="44.76043" lon="5.772">
        <ele>1103.8</ele>
        <time>2022-07-14T08:06:01Z</time>
      </trkpt>
      <trkpt lat="44.76042" lon="5.77192">
        <ele>1104.1</ele>
        <time>2022-07-14T08:06:03Z</time>
      </trkpt>
      <trkpt lat="44.76041" lon="5.77187">
        <ele>1104.2</ele>
        <time>2022-07-14T08:06:04Z</time>
      </trkpt>
      <trkpt lat="44.76041" lon="5.77184">
        <ele>1104.2</ele>
        <time>2022-07-14T08:06:05Z</time>
      </trkpt>
      <trkpt lat="44.76039" lon="5.77179">
        <ele>1104.3</ele>
        <time>2022-07-14T08:06:06Z</time>
      </trkpt>
      <trkpt lat="44.76038" lon="5.77177">
        <ele>1104.4</ele>
        <time>2022-07-14T08:06:07Z</time>
      </trkpt>
      <trkpt lat="44.76035" lon="5.7717">
        <ele>1104.8</ele>
        <time>2022-07-14T08:06:09Z</time>
      </trkpt>
      <trkpt lat="44.76032" lon="5.77168">
        <ele>1104.9</ele>
        <time>2022-07-14T08:06:10Z</time>
      </trkpt>
      <trkpt lat="44.76028" lon="5.77165">
        <ele>1105</ele>
        <time>2022-07-14T08:06:11Z</time>
      </trkpt>
      <trkpt lat="44.76027" lon="5.77164">
        <ele>1105</ele>
        <time>2022-07-14T08:06:12Z</time>
      </trkpt>
      <trkpt lat="44.76023" lon="5.77163">
        <ele>1105</ele>
        <time>2022-07-14T08:06:13Z</time>
      </trkpt>
      <trkpt lat="44.7602" lon="5.77164">
        <ele>1104.9</ele>
        <time>2022-07-14T08:06:14Z</time>
      </trkpt>
      <trkpt lat="44.76014" lon="5.77169">
        <ele>1104.5</ele>
        <time>2022-07-14T08:06:16Z</time>
      </trkpt>
      <trkpt lat="44.76012" lon="5.77168">
        <ele>1104.3</ele>
        <time>2022-07-14T08:06:18Z</time>
      </trkpt>
      <trkpt lat="44.76012" lon="5.77165">
        <ele>1104.1</ele>
        <time>2022-07-14T08:06:20Z</time>
      </trkpt>
      <trkpt lat="44.76015" lon="5.77164">
        <ele>1103.9</ele>
        <time>2022-07-14T08:06:23Z</time>
      </trkpt>
      <trkpt lat="44.76016" lon="5.77164">
        <ele>1103.9</ele>
        <time>2022-07-14T08:06:24Z</time>
      </trkpt>
      <trkpt lat="44.76016" lon="5.77163">
        <ele>1103.8</ele>
        <time>2022-07-14T08:06:25Z</time>
      </trkpt>
      <trkpt lat="44.76016" lon="5.77163">
        <ele>1103.8</ele>
        <time>2022-07-14T08:06:26Z</time>
      </trkpt>
      <trkpt lat="44.76017" lon="5.77162">
        <ele>1103.8</ele>
        <time>2022-07-14T08:06:27Z</time>
      </trkpt>
      <trkpt lat="44.76017" lon="5.77162">
        <ele>1103.8</ele>
        <time>2022-07-14T08:06:28Z</time>
      </trkpt>
      <trkpt lat="44.76014" lon="5.77164">
        <ele>1103.6</ele>
        <time>2022-07-14T08:11:51Z</time>
      </trkpt>
      <trkpt lat="44.76014" lon="5.77166">
        <ele>1103.5</ele>
        <time>2022-07-14T08:11:52Z</time>
      </trkpt>
      <trkpt lat="44.76014" lon="5.77168">
        <ele>1103.4</ele>
        <time>2022-07-14T08:11:53Z</time>
      </trkpt>
      <trkpt lat="44.76012" lon="5.77172">
        <ele>1103.1</ele>
        <time>2022-07-14T08:11:54Z</time>
      </trkpt>
      <trkpt lat="44.76011" lon="5.77173">
        <ele>1103</ele>
        <time>2022-07-14T08:11:55Z</time>
      </trkpt>
      <trkpt lat="44.76008" lon="5.77176">
        <ele>1102.7</ele>
        <time>2022-07-14T08:11:56Z</time>
      </trkpt>
      <trkpt lat="44.76007" lon="5.77177">
        <ele>1102.6</ele>
        <time>2022-07-14T08:11:57Z</time>
      </trkpt>
      <trkpt lat="44.76005" lon="5.77181">
        <ele>1102.3</ele>
        <time>2022-07-14T08:11:58Z</time>
      </trkpt>
      <trkpt lat="44.76002" lon="5.77185">
        <ele>1102</ele>
        <time>2022-07-14T08:11:59Z</time>
      </trkpt>
      <trkpt lat="44.76" lon="5.77189">
        <ele>1101.7</ele>
        <time>2022-07-14T08:12:00Z</time>
      </trkpt>
      <trkpt lat="44.75997" lon="5.77195">
        <ele>1101.2</ele>
        <time>2022-07-14T08:12:01Z</time>
      </trkpt>
      <trkpt lat="44.75992" lon="5.77202">
        <ele>1100.6</ele>
        <time>2022-07-14T08:12:02Z</time>
      </trkpt>
      <trkpt lat="44.75988" lon="5.77208">
        <ele>1100</ele>
        <time>2022-07-14T08:12:03Z</time>
      </trkpt>
      <trkpt lat="44.75983" lon="5.77214">
        <ele>1099.5</ele>
        <time>2022-07-14T08:12:04Z</time>
      </trkpt>
      <trkpt lat="44.75979" lon="5.77222">
        <ele>1098.9</ele>
        <time>2022-07-14T08:12:05Z</time>
      </trkpt>
      <trkpt lat="44.75973" lon="5.77229">
        <ele>1098.2</ele>
        <time>2022-07-14T08:12:06Z</time>
      </trkpt>
      <trkpt lat="44.75967" lon="5.77236">
        <ele>1097.6</ele>
        <time>2022-07-14T08:12:07Z</time>
      </trkpt>
      <trkpt lat="44.75961" lon="5.77243">
        <ele>1096.8</ele>
        <time>2022-07-14T08:12:08Z</time>
      </trkpt>
      <trkpt lat="44.75955" lon="5.77252">
        <ele>1096.1</ele>
        <time>2022-07-14T08:12:09Z</time>
      </trkpt>
      <trkpt lat="44.75949" lon="5.77262">
        <ele>1095.3</ele>
        <time>2022-07-14T08:12:10Z</time>
      </trkpt>
      <trkpt lat="44.75944" lon="5.77273">
        <ele>1094.4</ele>
        <time>2022-07-14T08:12:11Z</time>
      </trkpt>
      <trkpt lat="44.75939" lon="5.77285">
        <ele>1093.5</ele>
        <time>2022-07-14T08:12:12Z</time>
      </trkpt>
      <trkpt lat="44.75934" lon="5.77297">
        <ele>1092.6</ele>
        <time>2022-07-14T08:12:13Z</time>
      </trkpt>
      <trkpt lat="44.75928" lon="5.77308">
        <ele>1091.7</ele>
        <time>2022-07-14T08:12:14Z</time>
      </trkpt>
      <trkpt lat="44.75921" lon="5.77316">
        <ele>1090.8</ele>
        <time>2022-07-14T08:12:15Z</time>
      </trkpt>
      <trkpt lat="44.75912" lon="5.77322">
        <ele>1090</ele>
        <time>2022-07-14T08:12:16Z</time>
      </trkpt>
      <trkpt lat="44.75904" lon="5.77327">
        <ele>1089.1</ele>
        <time>2022-07-14T08:12:17Z</time>
      </trkpt>
      <trkpt lat="44.75894" lon="5.77331">
        <ele>1088.2</ele>
        <time>2022-07-14T08:12:18Z</time>
      </trkpt>
      <trkpt lat="44.75885" lon="5.77334">
        <ele>1087.4</ele>
        <time>2022-07-14T08:12:19Z</time>
      </trkpt>
      <trkpt lat="44.75877" lon="5.77335">
        <ele>1086.6</ele>
        <time>2022-07-14T08:12:20Z</time>
      </trkpt>
      <trkpt lat="44.75868" lon="5.77334">
        <ele>1085.8</ele>
        <time>2022-07-14T08:12:21Z</time>
      </trkpt>
      <trkpt lat="44.75857" lon="5.7733">
        <ele>1084.9</ele>
        <time>2022-07-14T08:12:22Z</time>
      </trkpt>
      <trkpt lat="44.75849" lon="5.77324">
        <ele>1083.9</ele>
        <time>2022-07-14T08:12:23Z</time>
      </trkpt>
      <trkpt lat="44.75843" lon="5.77316">
        <ele>1083.2</ele>
        <time>2022-07-14T08:12:24Z</time>
      </trkpt>
      <trkpt lat="44.75838" lon="5.77308">
        <ele>1082.5</ele>
        <time>2022-07-14T08:12:25Z</time>
      </trkpt>
      <trkpt lat="44.75833" lon="5.77301">
        <ele>1081.9</ele>
        <time>2022-07-14T08:12:26Z</time>
      </trkpt>
      <trkpt lat="44.75828" lon="5.77296">
        <ele>1081.3</ele>
        <time>2022-07-14T08:12:27Z</time>
      </trkpt>
      <trkpt lat="44.75822" lon="5.77296">
        <ele>1080.9</ele>
        <time>2022-07-14T08:12:28Z</time>
      </trkpt>
      <trkpt lat="44.75818" lon="5.773">
        <ele>1080.5</ele>
        <time>2022-07-14T08:12:29Z</time>
      </trkpt>
      <trkpt lat="44.75815" lon="5.77307">
        <ele>1080</ele>
        <time>2022-07-14T08:12:30Z</time>
      </trkpt>
      <trkpt lat="44.75813" lon="5.77313">
        <ele>1079.6</ele>
        <time>2022-07-14T08:12:31Z</time>
      </trkpt>
      <trkpt lat="44.7581" lon="5.7732">
        <ele>1079.1</ele>
        <time>2022-07-14T08:12:32Z</time>
      </trkpt>
      <trkpt lat="44.75807" lon="5.77329">
        <ele>1078.6</ele>
        <time>2022-07-14T08:12:33Z</time>
      </trkpt>
      <trkpt lat="44.75804" lon="5.77337">
        <ele>1078</ele>
        <time>2022-07-14T08:12:34Z</time>
      </trkpt>
      <trkpt lat="44.75801" lon="5.77346">
        <ele>1077.4</ele>
        <time>2022-07-14T08:12:35Z</time>
      </trkpt>
      <trkpt lat="44.75798" lon="5.77357">
        <ele>1076.7</ele>
        <time>2022-07-14T08:12:36Z</time>
      </trkpt>
      <trkpt lat="44.75796" lon="5.77368">
        <ele>1076</ele>
        <time>2022-07-14T08:12:37Z</time>
      </trkpt>
      <trkpt lat="44.75795" lon="5.77379">
        <ele>1075.3</ele>
        <time>2022-07-14T08:12:38Z</time>
      </trkpt>
      <trkpt lat="44.75795" lon="5.7739">
        <ele>1074.7</ele>
        <time>2022-07-14T08:12:39Z</time>
      </trkpt>
      <trkpt lat="44.75793" lon="5.77401">
        <ele>1074.1</ele>
        <time>2022-07-14T08:12:40Z</time>
      </trkpt>
      <trkpt lat="44.7579" lon="5.77411">
        <ele>1073.5</ele>
        <time>2022-07-14T08:12:41Z</time>
      </trkpt>
      <trkpt lat="44.75785" lon="5.7742">
        <ele>1072.9</ele>
        <time>2022-07-14T08:12:42Z</time>
      </trkpt>
      <trkpt lat="44.75779" lon="5.77428">
        <ele>1072.3</ele>
        <time>2022-07-14T08:12:43Z</time>
      </trkpt>
      <trkpt lat="44.75773" lon="5.77434">
        <ele>1071.8</ele>
        <time>2022-07-14T08:12:44Z</time>
      </trkpt>
      <trkpt lat="44.75766" lon="5.77443">
        <ele>1071.2</ele>
        <time>2022-07-14T08:12:45Z</time>
      </trkpt>
      <trkpt lat="44.7576" lon="5.77451">
        <ele>1070.7</ele>
        <time>2022-07-14T08:12:46Z</time>
      </trkpt>
      <trkpt lat="44.75754" lon="5.77458">
        <ele>1070.2</ele>
        <time>2022-07-14T08:12:47Z</time>
      </trkpt>
      <trkpt lat="44.75748" lon="5.77462">
        <ele>1069.8</ele>
        <time>2022-07-14T08:12:48Z</time>
      </trkpt>
      <trkpt lat="44.75742" lon="5.77463">
        <ele>1069.4</ele>
        <time>2022-07-14T08:12:49Z</time>
      </trkpt>
      <trkpt lat="44.75737" lon="5.77462">
        <ele>1069.1</ele>
        <time>2022-07-14T08:12:50Z</time>
      </trkpt>
      <trkpt lat="44.75734" lon="5.77457">
        <ele>1068.8</ele>
        <time>2022-07-14T08:12:51Z</time>
      </trkpt>
      <trkpt lat="44.75732" lon="5.7745">
        <ele>1068.5</ele>
        <time>2022-07-14T08:12:52Z</time>
      </trkpt>
      <trkpt lat="44.75732" lon="5.77442">
        <ele>1068.1</ele>
        <time>2022-07-14T08:12:53Z</time>
      </trkpt>
      <trkpt lat="44.75736" lon="5.77435">
        <ele>1067.7</ele>
        <time>2022-07-14T08:12:54Z</time>
      </trkpt>
      <trkpt lat="44.75741" lon="5.77429">
        <ele>1067.4</ele>
        <time>2022-07-14T08:12:55Z</time>
      </trkpt>
      <trkpt lat="44.75747" lon="5.77424">
        <ele>1066.9</ele>
        <time>2022-07-14T08:12:56Z</time>
      </trkpt>
      <trkpt lat="44.75753" lon="5.77419">
        <ele>1066.4</ele>
        <time>2022-07-14T08:12:57Z</time>
      </trkpt>
      <trkpt lat="44.75759" lon="5.77412">
        <ele>1065.9</ele>
        <time>2022-07-14T08:12:58Z</time>
      </trkpt>
      <trkpt lat="44.75764" lon="5.77405">
        <ele>1065.3</ele>
        <time>2022-07-14T08:12:59Z</time>
      </trkpt>
      <trkpt lat="44.75769" lon="5.77396">
        <ele>1064.6</ele>
        <time>2022-07-14T08:13:00Z</time>
      </trkpt>
      <trkpt lat="44.75773" lon="5.77385">
        <ele>1063.9</ele>
        <time>2022-07-14T08:13:01Z</time>
      </trkpt>
      <trkpt lat="44.75775" lon="5.77373">
        <ele>1063.2</ele>
        <time>2022-07-14T08:13:02Z</time>
      </trkpt>
      <trkpt lat="44.75778" lon="5.77362">
        <ele>1062.5</ele>
        <time>2022-07-14T08:13:03Z</time>
      </trkpt>
      <trkpt lat="44.7578" lon="5.77349">
        <ele>1061.8</ele>
        <time>2022-07-14T08:13:04Z</time>
      </trkpt>
      <trkpt lat="44.75781" lon="5.77335">
        <ele>1061</ele>
        <time>2022-07-14T08:13:05Z</time>
      </trkpt>
      <trkpt lat="44.75783" lon="5.77322">
        <ele>1060.2</ele>
        <time>2022-07-14T08:13:06Z</time>
      </trkpt>
      <trkpt lat="44.75785" lon="5.77307">
        <ele>1059.4</ele>
        <time>2022-07-14T08:13:07Z</time>
      </trkpt>
      <trkpt lat="44.75788" lon="5.77293">
        <ele>1058.6</ele>
        <time>2022-07-14T08:13:08Z</time>
      </trkpt>
      <trkpt lat="44.75789" lon="5.77279">
        <ele>1057.9</ele>
        <time>2022-07-14T08:13:09Z</time>
      </trkpt>
      <trkpt lat="44.75791" lon="5.77264">
        <ele>1057.2</ele>
        <time>2022-07-14T08:13:10Z</time>
      </trkpt>
      <trkpt lat="44.75793" lon="5.7725">
        <ele>1056.5</ele>
        <time>2022-07-14T08:13:11Z</time>
      </trkpt>
      <trkpt lat="44.75794" lon="5.77237">
        <ele>1055.8</ele>
        <time>2022-07-14T08:13:12Z</time>
      </trkpt>
      <trkpt lat="44.75794" lon="5.77225">
        <ele>1055.2</ele>
        <time>2022-07-14T08:13:13Z</time>
      </trkpt>
      <trkpt lat="44.75795" lon="5.77213">
        <ele>1054.6</ele>
        <time>2022-07-14T08:13:14Z</time>
      </trkpt>
      <trkpt lat="44.75798" lon="5.77205">
        <ele>1054</ele>
        <time>2022-07-14T08:13:15Z</time>
      </trkpt>
      <trkpt lat="44.75804" lon="5.77199">
        <ele>1053.5</ele>
        <time>2022-07-14T08:13:16Z</time>
      </trkpt>
      <trkpt lat="44.75811" lon="5.77199">
        <ele>1052.8</ele>
        <time>2022-07-14T08:13:17Z</time>
      </trkpt>
      <trkpt lat="44.75819" lon="5.772">
        <ele>1052.1</ele>
        <time>2022-07-14T08:13:18Z</time>
      </trkpt>
      <trkpt lat="44.75826" lon="5.77199">
        <ele>1051.4</ele>
        <time>2022-07-14T08:13:19Z</time>
      </trkpt>
      <trkpt lat="44.75834" lon="5.77194">
        <ele>1050.6</ele>
        <time>2022-07-14T08:13:20Z</time>
      </trkpt>
      <trkpt lat="44.75841" lon="5.77187">
        <ele>1049.8</ele>
        <time>2022-07-14T08:13:21Z</time>
      </trkpt>
      <trkpt lat="44.75847" lon="5.77178">
        <ele>1048.9</ele>
        <time>2022-07-14T08:13:22Z</time>
      </trkpt>
      <trkpt lat="44.75853" lon="5.77168">
        <ele>1048.1</ele>
        <time>2022-07-14T08:13:23Z</time>
      </trkpt>
      <trkpt lat="44.75858" lon="5.77156">
        <ele>1047.2</ele>
        <time>2022-07-14T08:13:24Z</time>
      </trkpt>
      <trkpt lat="44.75863" lon="5.77144">
        <ele>1046.3</ele>
        <time>2022-07-14T08:13:25Z</time>
      </trkpt>
      <trkpt lat="44.75868" lon="5.77134">
        <ele>1045.5</ele>
        <time>2022-07-14T08:13:26Z</time>
      </trkpt>
      <trkpt lat="44.75872" lon="5.77122">
        <ele>1044.7</ele>
        <time>2022-07-14T08:13:27Z</time>
      </trkpt>
      <trkpt lat="44.75876" lon="5.77111">
        <ele>1043.9</ele>
        <time>2022-07-14T08:13:28Z</time>
      </trkpt>
      <trkpt lat="44.75877" lon="5.77098">
        <ele>1043.1</ele>
        <time>2022-07-14T08:13:29Z</time>
      </trkpt>
      <trkpt lat="44.75877" lon="5.77085">
        <ele>1042.3</ele>
        <time>2022-07-14T08:13:30Z</time>
      </trkpt>
      <trkpt lat="44.75876" lon="5.77072">
        <ele>1041.4</ele>
        <time>2022-07-14T08:13:31Z</time>
      </trkpt>
      <trkpt lat="44.75875" lon="5.77058">
        <ele>1040.6</ele>
        <time>2022-07-14T08:13:32Z</time>
      </trkpt>
      <trkpt lat="44.75872" lon="5.77045">
        <ele>1039.6</ele>
        <time>2022-07-14T08:13:33Z</time>
      </trkpt>
      <trkpt lat="44.75868" lon="5.77032">
        <ele>1038.7</ele>
        <time>2022-07-14T08:13:34Z</time>
      </trkpt>
      <trkpt lat="44.75862" lon="5.77019">
        <ele>1037.8</ele>
        <time>2022-07-14T08:13:35Z</time>
      </trkpt>
      <trkpt lat="44.75855" lon="5.77007">
        <ele>1036.9</ele>
        <time>2022-07-14T08:13:36Z</time>
      </trkpt>
      <trkpt lat="44.75846" lon="5.76995">
        <ele>1035.8</ele>
        <time>2022-07-14T08:13:37Z</time>
      </trkpt>
      <trkpt lat="44.75837" lon="5.76983">
        <ele>1034.7</ele>
        <time>2022-07-14T08:13:38Z</time>
      </trkpt>
      <trkpt lat="44.7583" lon="5.76971">
        <ele>1033.8</ele>
        <time>2022-07-14T08:13:39Z</time>
      </trkpt>
      <trkpt lat="44.75824" lon="5.76959">
        <ele>1032.9</ele>
        <time>2022-07-14T08:13:40Z</time>
      </trkpt>
      <trkpt lat="44.75819" lon="5.76947">
        <ele>1032.1</ele>
        <time>2022-07-14T08:13:41Z</time>
      </trkpt>
      <trkpt lat="44.75813" lon="5.76936">
        <ele>1031.3</ele>
        <time>2022-07-14T08:13:42Z</time>
      </trkpt>
      <trkpt lat="44.75808" lon="5.76927">
        <ele>1030.6</ele>
        <time>2022-07-14T08:13:43Z</time>
      </trkpt>
      <trkpt lat="44.75804" lon="5.7692">
        <ele>1029.9</ele>
        <time>2022-07-14T08:13:44Z</time>
      </trkpt>
      <trkpt lat="44.75799" lon="5.76914">
        <ele>1029.3</ele>
        <time>2022-07-14T08:13:45Z</time>
      </trkpt>
      <trkpt lat="44.75792" lon="5.76914">
        <ele>1028.7</ele>
        <time>2022-07-14T08:13:46Z</time>
      </trkpt>
      <trkpt lat="44.75785" lon="5.76917">
        <ele>1028.1</ele>
        <time>2022-07-14T08:13:47Z</time>
      </trkpt>
      <trkpt lat="44.75778" lon="5.76923">
        <ele>1027.4</ele>
        <time>2022-07-14T08:13:48Z</time>
      </trkpt>
      <trkpt lat="44.75771" lon="5.76929">
        <ele>1026.7</ele>
        <time>2022-07-14T08:13:49Z</time>
      </trkpt>
      <trkpt lat="44.75764" lon="5.76937">
        <ele>1025.9</ele>
        <time>2022-07-14T08:13:50Z</time>
      </trkpt>
      <trkpt lat="44.75756" lon="5.76944">
        <ele>1025</ele>
        <time>2022-07-14T08:13:51Z</time>
      </trkpt>
      <trkpt lat="44.75747" lon="5.7695">
        <ele>1024.2</ele>
        <time>2022-07-14T08:13:52Z</time>
      </trkpt>
      <trkpt lat="44.75738" lon="5.76951">
        <ele>1023.4</ele>
        <time>2022-07-14T08:13:53Z</time>
      </trkpt>
      <trkpt lat="44.75729" lon="5.76949">
        <ele>1022.6</ele>
        <time>2022-07-14T08:13:54Z</time>
      </trkpt>
      <trkpt lat="44.75722" lon="5.76945">
        <ele>1021.9</ele>
        <time>2022-07-14T08:13:55Z</time>
      </trkpt>
      <trkpt lat="44.75715" lon="5.76938">
        <ele>1021.2</ele>
        <time>2022-07-14T08:13:56Z</time>
      </trkpt>
      <trkpt lat="44.75711" lon="5.76929">
        <ele>1020.5</ele>
        <time>2022-07-14T08:13:57Z</time>
      </trkpt>
      <trkpt lat="44.75708" lon="5.76917">
        <ele>1019.7</ele>
        <time>2022-07-14T08:13:58Z</time>
      </trkpt>
      <trkpt lat="44.75707" lon="5.76902">
        <ele>1018.8</ele>
        <time>2022-07-14T08:13:59Z</time>
      </trkpt>
      <trkpt lat="44.75709" lon="5.76886">
        <ele>1017.8</ele>
        <time>2022-07-14T08:14:00Z</time>
      </trkpt>
      <trkpt lat="44.75711" lon="5.76872">
        <ele>1016.9</ele>
        <time>2022-07-14T08:14:01Z</time>
      </trkpt>
      <trkpt lat="44.75712" lon="5.76861">
        <ele>1016.3</ele>
        <time>2022-07-14T08:14:02Z</time>
      </trkpt>
      <trkpt lat="44.7571" lon="5.76851">
        <ele>1015.7</ele>
        <time>2022-07-14T08:14:03Z</time>
      </trkpt>
      <trkpt lat="44.75704" lon="5.76844">
        <ele>1015.1</ele>
        <time>2022-07-14T08:14:04Z</time>
      </trkpt>
      <trkpt lat="44.75699" lon="5.76839">
        <ele>1014.6</ele>
        <time>2022-07-14T08:14:05Z</time>
      </trkpt>
      <trkpt lat="44.75691" lon="5.76838">
        <ele>1013.9</ele>
        <time>2022-07-14T08:14:06Z</time>
      </trkpt>
      <trkpt lat="44.75683" lon="5.7684">
        <ele>1013.2</ele>
        <time>2022-07-14T08:14:07Z</time>
      </trkpt>
      <trkpt lat="44.75674" lon="5.76844">
        <ele>1012.4</ele>
        <time>2022-07-14T08:14:08Z</time>
      </trkpt>
      <trkpt lat="44.75666" lon="5.76847">
        <ele>1011.7</ele>
        <time>2022-07-14T08:14:09Z</time>
      </trkpt>
      <trkpt lat="44.75657" lon="5.76846">
        <ele>1010.9</ele>
        <time>2022-07-14T08:14:10Z</time>
      </trkpt>
      <trkpt lat="44.75648" lon="5.76842">
        <ele>1010.2</ele>
        <time>2022-07-14T08:14:11Z</time>
      </trkpt>
      <trkpt lat="44.75639" lon="5.76834">
        <ele>1009.3</ele>
        <time>2022-07-14T08:14:12Z</time>
      </trkpt>
      <trkpt lat="44.75631" lon="5.76825">
        <ele>1008.4</ele>
        <time>2022-07-14T08:14:13Z</time>
      </trkpt>
      <trkpt lat="44.75623" lon="5.76818">
        <ele>1007.6</ele>
        <time>2022-07-14T08:14:14Z</time>
      </trkpt>
      <trkpt lat="44.75616" lon="5.76808">
        <ele>1006.8</ele>
        <time>2022-07-14T08:14:15Z</time>
      </trkpt>
      <trkpt lat="44.7561" lon="5.76798">
        <ele>1006</ele>
        <time>2022-07-14T08:14:16Z</time>
      </trkpt>
      <trkpt lat="44.75604" lon="5.76788">
        <ele>1005.2</ele>
        <time>2022-07-14T08:14:17Z</time>
      </trkpt>
      <trkpt lat="44.75598" lon="5.76778">
        <ele>1004.5</ele>
        <time>2022-07-14T08:14:18Z</time>
      </trkpt>
      <trkpt lat="44.75594" lon="5.76769">
        <ele>1003.8</ele>
        <time>2022-07-14T08:14:19Z</time>
      </trkpt>
      <trkpt lat="44.75594" lon="5.76757">
        <ele>1003.2</ele>
        <time>2022-07-14T08:14:20Z</time>
      </trkpt>
      <trkpt lat="44.75596" lon="5.76745">
        <ele>1002.5</ele>
        <time>2022-07-14T08:14:21Z</time>
      </trkpt>
      <trkpt lat="44.756" lon="5.76734">
        <ele>1001.7</ele>
        <time>2022-07-14T08:14:22Z</time>
      </trkpt>
      <trkpt lat="44.75603" lon="5.76723">
        <ele>1001</ele>
        <time>2022-07-14T08:14:23Z</time>
      </trkpt>
      <trkpt lat="44.75605" lon="5.76713">
        <ele>1000.4</ele>
        <time>2022-07-14T08:14:24Z</time>
      </trkpt>
      <trkpt lat="44.75603" lon="5.76702">
        <ele>999.7</ele>
        <time>2022-07-14T08:14:25Z</time>
      </trkpt>
      <trkpt lat="44.75596" lon="5.76693">
        <ele>999</ele>
        <time>2022-07-14T08:14:26Z</time>
      </trkpt>
      <trkpt lat="44.75588" lon="5.76686">
        <ele>998.3</ele>
        <time>2022-07-14T08:14:27Z</time>
      </trkpt>
      <trkpt lat="44.75579" lon="5.76683">
        <ele>997.5</ele>
        <time>2022-07-14T08:14:28Z</time>
      </trkpt>
      <trkpt lat="44.75569" lon="5.76681">
        <ele>996.7</ele>
        <time>2022-07-14T08:14:29Z</time>
      </trkpt>
      <trkpt lat="44.7556" lon="5.76679">
        <ele>996</ele>
        <time>2022-07-14T08:14:30Z</time>
      </trkpt>
      <trkpt lat="44.7555" lon="5.76676">
        <ele>995.3</ele>
        <time>2022-07-14T08:14:31Z</time>
      </trkpt>
      <trkpt lat="44.7554" lon="5.76674">
        <ele>994.5</ele>
        <time>2022-07-14T08:14:32Z</time>
      </trkpt>
      <trkpt lat="44.7553" lon="5.76672">
        <ele>993.7</ele>
        <time>2022-07-14T08:14:33Z</time>
      </trkpt>
      <trkpt lat="44.7552" lon="5.76669">
        <ele>992.9</ele>
        <time>2022-07-14T08:14:34Z</time>
      </trkpt>
      <trkpt lat="44.7551" lon="5.76666">
        <ele>992.1</ele>
        <time>2022-07-14T08:14:35Z</time>
      </trkpt>
      <trkpt lat="44.75499" lon="5.76663">
        <ele>991.2</ele>
        <time>2022-07-14T08:14:36Z</time>
      </trkpt>
      <trkpt lat="44.75489" lon="5.76661">
        <ele>990.3</ele>
        <time>2022-07-14T08:14:37Z</time>
      </trkpt>
      <trkpt lat="44.75479" lon="5.76659">
        <ele>989.4</ele>
        <time>2022-07-14T08:14:38Z</time>
      </trkpt>
      <trkpt lat="44.7547" lon="5.76656">
        <ele>988.7</ele>
        <time>2022-07-14T08:14:39Z</time>
      </trkpt>
      <trkpt lat="44.75463" lon="5.76652">
        <ele>988.1</ele>
        <time>2022-07-14T08:14:40Z</time>
      </trkpt>
      <trkpt lat="44.75456" lon="5.76646">
        <ele>987.5</ele>
        <time>2022-07-14T08:14:41Z</time>
      </trkpt>
      <trkpt lat="44.75451" lon="5.76638">
        <ele>986.9</ele>
        <time>2022-07-14T08:14:42Z</time>
      </trkpt>
      <trkpt lat="44.75447" lon="5.76625">
        <ele>986.3</ele>
        <time>2022-07-14T08:14:43Z</time>
      </trkpt>
      <trkpt lat="44.75442" lon="5.76612">
        <ele>985.6</ele>
        <time>2022-07-14T08:14:44Z</time>
      </trkpt>
      <trkpt lat="44.75437" lon="5.76602">
        <ele>985</ele>
        <time>2022-07-14T08:14:45Z</time>
      </trkpt>
      <trkpt lat="44.7543" lon="5.76592">
        <ele>984.4</ele>
        <time>2022-07-14T08:14:46Z</time>
      </trkpt>
      <trkpt lat="44.75423" lon="5.76583">
        <ele>983.8</ele>
        <time>2022-07-14T08:14:47Z</time>
      </trkpt>
      <trkpt lat="44.75415" lon="5.76574">
        <ele>983.1</ele>
        <time>2022-07-14T08:14:48Z</time>
      </trkpt>
      <trkpt lat="44.75407" lon="5.76564">
        <ele>982.2</ele>
        <time>2022-07-14T08:14:49Z</time>
      </trkpt>
      <trkpt lat="44.75399" lon="5.76555">
        <ele>981.4</ele>
        <time>2022-07-14T08:14:50Z</time>
      </trkpt>
      <trkpt lat="44.75389" lon="5.76546">
        <ele>980.5</ele>
        <time>2022-07-14T08:14:51Z</time>
      </trkpt>
      <trkpt lat="44.7538" lon="5.76538">
        <ele>979.6</ele>
        <time>2022-07-14T08:14:52Z</time>
      </trkpt>
      <trkpt lat="44.75369" lon="5.76533">
        <ele>978.7</ele>
        <time>2022-07-14T08:14:53Z</time>
      </trkpt>
      <trkpt lat="44.7536" lon="5.7653">
        <ele>978</ele>
        <time>2022-07-14T08:14:54Z</time>
      </trkpt>
      <trkpt lat="44.7535" lon="5.76529">
        <ele>977.2</ele>
        <time>2022-07-14T08:14:55Z</time>
      </trkpt>
      <trkpt lat="44.75339" lon="5.76528">
        <ele>976.3</ele>
        <time>2022-07-14T08:14:56Z</time>
      </trkpt>
      <trkpt lat="44.75328" lon="5.76526">
        <ele>975.4</ele>
        <time>2022-07-14T08:14:57Z</time>
      </trkpt>
      <trkpt lat="44.75316" lon="5.76523">
        <ele>974.5</ele>
        <time>2022-07-14T08:14:58Z</time>
      </trkpt>
      <trkpt lat="44.75306" lon="5.7652">
        <ele>973.7</ele>
        <time>2022-07-14T08:14:59Z</time>
      </trkpt>
      <trkpt lat="44.75297" lon="5.76516">
        <ele>972.9</ele>
        <time>2022-07-14T08:15:00Z</time>
      </trkpt>
      <trkpt lat="44.75287" lon="5.7651">
        <ele>972</ele>
        <time>2022-07-14T08:15:01Z</time>
      </trkpt>
      <trkpt lat="44.75278" lon="5.76502">
        <ele>971.1</ele>
        <time>2022-07-14T08:15:02Z</time>
      </trkpt>
      <trkpt lat="44.75269" lon="5.76492">
        <ele>970.2</ele>
        <time>2022-07-14T08:15:03Z</time>
      </trkpt>
      <trkpt lat="44.7526" lon="5.76483">
        <ele>969.3</ele>
        <time>2022-07-14T08:15:04Z</time>
      </trkpt>
      <trkpt lat="44.7525" lon="5.76475">
        <ele>968.4</ele>
        <time>2022-07-14T08:15:05Z</time>
      </trkpt>
      <trkpt lat="44.7524" lon="5.7647">
        <ele>967.5</ele>
        <time>2022-07-14T08:15:06Z</time>
      </trkpt>
      <trkpt lat="44.7523" lon="5.76467">
        <ele>966.6</ele>
        <time>2022-07-14T08:15:07Z</time>
      </trkpt>
      <trkpt lat="44.75218" lon="5.76464">
        <ele>965.6</ele>
        <time>2022-07-14T08:15:08Z</time>
      </trkpt>
      <trkpt lat="44.75207" lon="5.76459">
        <ele>964.6</ele>
        <time>2022-07-14T08:15:09Z</time>
      </trkpt>
      <trkpt lat="44.75196" lon="5.76452">
        <ele>963.6</ele>
        <time>2022-07-14T08:15:10Z</time>
      </trkpt>
      <trkpt lat="44.75186" lon="5.76445">
        <ele>962.7</ele>
        <time>2022-07-14T08:15:11Z</time>
      </trkpt>
      <trkpt lat="44.75177" lon="5.76438">
        <ele>961.9</ele>
        <time>2022-07-14T08:15:12Z</time>
      </trkpt>
      <trkpt lat="44.75169" lon="5.76433">
        <ele>961.3</ele>
        <time>2022-07-14T08:15:13Z</time>
      </trkpt>
      <trkpt lat="44.75162" lon="5.76428">
        <ele>960.7</ele>
        <time>2022-07-14T08:15:14Z</time>
      </trkpt>
      <trkpt lat="44.75156" lon="5.76424">
        <ele>960.2</ele>
        <time>2022-07-14T08:15:15Z</time>
      </trkpt>
      <trkpt lat="44.75152" lon="5.76421">
        <ele>959.9</ele>
        <time>2022-07-14T08:15:16Z</time>
      </trkpt>
      <trkpt lat="44.75148" lon="5.76419">
        <ele>959.6</ele>
        <time>2022-07-14T08:15:17Z</time>
      </trkpt>
      <trkpt lat="44.75146" lon="5.76416">
        <ele>959.5</ele>
        <time>2022-07-14T08:15:18Z</time>
      </trkpt>
      <trkpt lat="44.75143" lon="5.76412">
        <ele>959.2</ele>
        <time>2022-07-14T08:15:19Z</time>
      </trkpt>
      <trkpt lat="44.7514" lon="5.76408">
        <ele>959</ele>
        <time>2022-07-14T08:15:20Z</time>
      </trkpt>
      <trkpt lat="44.75138" lon="5.76404">
        <ele>958.8</ele>
        <time>2022-07-14T08:15:21Z</time>
      </trkpt>
      <trkpt lat="44.75136" lon="5.76401">
        <ele>958.6</ele>
        <time>2022-07-14T08:15:22Z</time>
      </trkpt>
      <trkpt lat="44.75134" lon="5.76399">
        <ele>958.5</ele>
        <time>2022-07-14T08:15:23Z</time>
      </trkpt>
      <trkpt lat="44.75133" lon="5.76399">
        <ele>958.4</ele>
        <time>2022-07-14T08:15:24Z</time>
      </trkpt>
      <trkpt lat="44.75131" lon="5.76393">
        <ele>958.1</ele>
        <time>2022-07-14T08:15:26Z</time>
      </trkpt>
      <trkpt lat="44.7513" lon="5.76388">
        <ele>957.9</ele>
        <time>2022-07-14T08:15:28Z</time>
      </trkpt>
      <trkpt lat="44.75129" lon="5.76383">
        <ele>957.7</ele>
        <time>2022-07-14T08:15:29Z</time>
      </trkpt>
      <trkpt lat="44.75126" lon="5.76379">
        <ele>957.5</ele>
        <time>2022-07-14T08:15:30Z</time>
      </trkpt>
      <trkpt lat="44.75121" lon="5.76372">
        <ele>957.1</ele>
        <time>2022-07-14T08:15:32Z</time>
      </trkpt>
      <trkpt lat="44.75107" lon="5.7638">
        <ele>956.5</ele>
        <time>2022-07-14T08:15:35Z</time>
      </trkpt>
      <trkpt lat="44.75103" lon="5.76386">
        <ele>956.1</ele>
        <time>2022-07-14T08:15:36Z</time>
      </trkpt>
      <trkpt lat="44.751" lon="5.76389">
        <ele>955.9</ele>
        <time>2022-07-14T08:15:37Z</time>
      </trkpt>
      <trkpt lat="44.751" lon="5.76393">
        <ele>955.8</ele>
        <time>2022-07-14T08:15:38Z</time>
      </trkpt>
      <trkpt lat="44.75102" lon="5.76393">
        <ele>955.6</ele>
        <time>2022-07-14T08:15:41Z</time>
      </trkpt>
      <trkpt lat="44.75102" lon="5.76393">
        <ele>955.6</ele>
        <time>2022-07-14T08:15:42Z</time>
      </trkpt>
      <trkpt lat="44.75103" lon="5.76393">
        <ele>955.6</ele>
        <time>2022-07-14T08:15:43Z</time>
      </trkpt>
      <trkpt lat="44.75103" lon="5.76393">
        <ele>955.6</ele>
        <time>2022-07-14T08:15:44Z</time>
      </trkpt>
      <trkpt lat="44.75103" lon="5.76392">
        <ele>955.5</ele>
        <time>2022-07-14T08:15:47Z</time>
      </trkpt>
      <trkpt lat="44.75103" lon="5.76392">
        <ele>955.5</ele>
        <time>2022-07-14T08:15:48Z</time>
      </trkpt>
      <trkpt lat="44.75104" lon="5.76387">
        <ele>955.3</ele>
        <time>2022-07-14T08:16:03Z</time>
      </trkpt>
      <trkpt lat="44.75104" lon="5.76386">
        <ele>955.3</ele>
        <time>2022-07-14T08:16:04Z</time>
      </trkpt>
      <trkpt lat="44.75104" lon="5.76386">
        <ele>955.3</ele>
        <time>2022-07-14T08:16:05Z</time>
      </trkpt>
      <trkpt lat="44.75104" lon="5.76386">
        <ele>955.3</ele>
        <time>2022-07-14T08:16:06Z</time>
      </trkpt>
      <trkpt lat="44.75105" lon="5.76386">
        <ele>955.2</ele>
        <time>2022-07-14T08:16:07Z</time>
      </trkpt>
      <trkpt lat="44.75105" lon="5.76386">
        <ele>955.2</ele>
        <time>2022-07-14T08:16:08Z</time>
      </trkpt>
      <trkpt lat="44.75105" lon="5.76387">
        <ele>955.2</ele>
        <time>2022-07-14T08:16:09Z</time>
      </trkpt>
      <trkpt lat="44.75105" lon="5.76387">
        <ele>955.2</ele>
        <time>2022-07-14T08:16:10Z</time>
      </trkpt>
      <trkpt lat="44.75104" lon="5.76387">
        <ele>955.1</ele>
        <time>2022-07-14T08:16:11Z</time>
      </trkpt>
      <trkpt lat="44.75104" lon="5.76388">
        <ele>955.1</ele>
        <time>2022-07-14T08:16:12Z</time>
      </trkpt>
      <trkpt lat="44.75104" lon="5.76389">
        <ele>955.1</ele>
        <time>2022-07-14T08:16:13Z</time>
      </trkpt>
      <trkpt lat="44.75104" lon="5.7639">
        <ele>955</ele>
        <time>2022-07-14T08:16:14Z</time>
      </trkpt>
      <trkpt lat="44.75104" lon="5.76391">
        <ele>955</ele>
        <time>2022-07-14T08:16:15Z</time>
      </trkpt>
      <trkpt lat="44.75105" lon="5.76391">
        <ele>955</ele>
        <time>2022-07-14T08:16:16Z</time>
      </trkpt>
      <trkpt lat="44.75105" lon="5.76391">
        <ele>955</ele>
        <time>2022-07-14T08:16:17Z</time>
      </trkpt>
      <trkpt lat="44.75105" lon="5.76391">
        <ele>955</ele>
        <time>2022-07-14T08:16:18Z</time>
      </trkpt>
      <trkpt lat="44.75105" lon="5.76391">
        <ele>955</ele>
        <time>2022-07-14T08:16:19Z</time>
      </trkpt>
      <trkpt lat="44.75105" lon="5.76392">
        <ele>955</ele>
        <time>2022-07-14T08:16:20Z</time>
      </trkpt>
      <trkpt lat="44.75105" lon="5.76392">
        <ele>954.9</ele>
        <time>2022-07-14T08:16:21Z</time>
      </trkpt>
      <trkpt lat="44.75104" lon="5.76392">
        <ele>954.9</ele>
        <time>2022-07-14T08:16:22Z</time>
      </trkpt>
      <trkpt lat="44.75104" lon="5.76393">
        <ele>954.9</ele>
        <time>2022-07-14T08:16:23Z</time>
      </trkpt>
      <trkpt lat="44.75103" lon="5.76393">
        <ele>954.8</ele>
        <time>2022-07-14T08:16:24Z</time>
      </trkpt>
      <trkpt lat="44.75103" lon="5.76394">
        <ele>954.8</ele>
        <time>2022-07-14T08:16:25Z</time>
      </trkpt>
      <trkpt lat="44.75103" lon="5.76394">
        <ele>954.8</ele>
        <time>2022-07-14T08:16:26Z</time>
      </trkpt>
      <trkpt lat="44.75104" lon="5.76395">
        <ele>954.8</ele>
        <time>2022-07-14T08:16:27Z</time>
      </trkpt>
      <trkpt lat="44.75104" lon="5.76396">
        <ele>954.7</ele>
        <time>2022-07-14T08:16:28Z</time>
      </trkpt>
      <trkpt lat="44.75105" lon="5.76398">
        <ele>954.6</ele>
        <time>2022-07-14T08:16:29Z</time>
      </trkpt>
      <trkpt lat="44.75105" lon="5.76399">
        <ele>954.6</ele>
        <time>2022-07-14T08:16:30Z</time>
      </trkpt>
      <trkpt lat="44.75106" lon="5.764">
        <ele>954.5</ele>
        <time>2022-07-14T08:16:31Z</time>
      </trkpt>
      <trkpt lat="44.75106" lon="5.76402">
        <ele>954.5</ele>
        <time>2022-07-14T08:16:32Z</time>
      </trkpt>
      <trkpt lat="44.75107" lon="5.76403">
        <ele>954.4</ele>
        <time>2022-07-14T08:16:33Z</time>
      </trkpt>
      <trkpt lat="44.75108" lon="5.76404">
        <ele>954.3</ele>
        <time>2022-07-14T08:16:34Z</time>
      </trkpt>
      <trkpt lat="44.75108" lon="5.76406">
        <ele>954.3</ele>
        <time>2022-07-14T08:16:41Z</time>
      </trkpt>
      <trkpt lat="44.75109" lon="5.76407">
        <ele>954.2</ele>
        <time>2022-07-14T08:16:42Z</time>
      </trkpt>
      <trkpt lat="44.75122" lon="5.76417">
        <ele>953.4</ele>
        <time>2022-07-14T08:16:45Z</time>
      </trkpt>
      <trkpt lat="44.75126" lon="5.76423">
        <ele>953.1</ele>
        <time>2022-07-14T08:16:46Z</time>
      </trkpt>
      <trkpt lat="44.7513" lon="5.76429">
        <ele>952.8</ele>
        <time>2022-07-14T08:16:47Z</time>
      </trkpt>
      <trkpt lat="44.75134" lon="5.76435">
        <ele>952.4</ele>
        <time>2022-07-14T08:16:48Z</time>
      </trkpt>
      <trkpt lat="44.75139" lon="5.76441">
        <ele>952</ele>
        <time>2022-07-14T08:16:49Z</time>
      </trkpt>
      <trkpt lat="44.75144" lon="5.76449">
        <ele>951.6</ele>
        <time>2022-07-14T08:16:50Z</time>
      </trkpt>
      <trkpt lat="44.75148" lon="5.76457">
        <ele>951.2</ele>
        <time>2022-07-14T08:16:51Z</time>
      </trkpt>
      <trkpt lat="44.75152" lon="5.76465">
        <ele>950.7</ele>
        <time>2022-07-14T08:16:52Z</time>
      </trkpt>
      <trkpt lat="44.75157" lon="5.76474">
        <ele>950.3</ele>
        <time>2022-07-14T08:16:53Z</time>
      </trkpt>
      <trkpt lat="44.75161" lon="5.76484">
        <ele>949.8</ele>
        <time>2022-07-14T08:16:54Z</time>
      </trkpt>
      <trkpt lat="44.75167" lon="5.76493">
        <ele>949.3</ele>
        <time>2022-07-14T08:16:55Z</time>
      </trkpt>
      <trkpt lat="44.75172" lon="5.76503">
        <ele>948.9</ele>
        <time>2022-07-14T08:16:56Z</time>
      </trkpt>
      <trkpt lat="44.75177" lon="5.76513">
        <ele>948.4</ele>
        <time>2022-07-14T08:16:57Z</time>
      </trkpt>
      <trkpt lat="44.75181" lon="5.76524">
        <ele>947.9</ele>
        <time>2022-07-14T08:16:58Z</time>
      </trkpt>
      <trkpt lat="44.75185" lon="5.76534">
        <ele>947.4</ele>
        <time>2022-07-14T08:16:59Z</time>
      </trkpt>
      <trkpt lat="44.75187" lon="5.76545">
        <ele>946.9</ele>
        <time>2022-07-14T08:17:00Z</time>
      </trkpt>
      <trkpt lat="44.75188" lon="5.76556">
        <ele>946.4</ele>
        <time>2022-07-14T08:17:01Z</time>
      </trkpt>
      <trkpt lat="44.75185" lon="5.76568">
        <ele>945.9</ele>
        <time>2022-07-14T08:17:02Z</time>
      </trkpt>
      <trkpt lat="44.75181" lon="5.7658">
        <ele>945.3</ele>
        <time>2022-07-14T08:17:03Z</time>
      </trkpt>
      <trkpt lat="44.75176" lon="5.7659">
        <ele>944.7</ele>
        <time>2022-07-14T08:17:04Z</time>
      </trkpt>
      <trkpt lat="44.75168" lon="5.76597">
        <ele>944.1</ele>
        <time>2022-07-14T08:17:05Z</time>
      </trkpt>
      <trkpt lat="44.75157" lon="5.76603">
        <ele>943.5</ele>
        <time>2022-07-14T08:17:06Z</time>
      </trkpt>
      <trkpt lat="44.75148" lon="5.7661">
        <ele>942.8</ele>
        <time>2022-07-14T08:17:07Z</time>
      </trkpt>
      <trkpt lat="44.75138" lon="5.76616">
        <ele>942.3</ele>
        <time>2022-07-14T08:17:08Z</time>
      </trkpt>
      <trkpt lat="44.75128" lon="5.76622">
        <ele>941.9</ele>
        <time>2022-07-14T08:17:09Z</time>
      </trkpt>
      <trkpt lat="44.7512" lon="5.76629">
        <ele>941.8</ele>
        <time>2022-07-14T08:17:10Z</time>
      </trkpt>
      <trkpt lat="44.7511" lon="5.76635">
        <ele>941.5</ele>
        <time>2022-07-14T08:17:11Z</time>
      </trkpt>
      <trkpt lat="44.75101" lon="5.7664">
        <ele>940.9</ele>
        <time>2022-07-14T08:17:12Z</time>
      </trkpt>
      <trkpt lat="44.75091" lon="5.76645">
        <ele>940.2</ele>
        <time>2022-07-14T08:17:13Z</time>
      </trkpt>
      <trkpt lat="44.75081" lon="5.76651">
        <ele>939.5</ele>
        <time>2022-07-14T08:17:14Z</time>
      </trkpt>
      <trkpt lat="44.75071" lon="5.76657">
        <ele>938.6</ele>
        <time>2022-07-14T08:17:15Z</time>
      </trkpt>
      <trkpt lat="44.7506" lon="5.76663">
        <ele>937.8</ele>
        <time>2022-07-14T08:17:16Z</time>
      </trkpt>
      <trkpt lat="44.7505" lon="5.76671">
        <ele>937</ele>
        <time>2022-07-14T08:17:17Z</time>
      </trkpt>
      <trkpt lat="44.75041" lon="5.76679">
        <ele>936.3</ele>
        <time>2022-07-14T08:17:18Z</time>
      </trkpt>
      <trkpt lat="44.75032" lon="5.76688">
        <ele>935.7</ele>
        <time>2022-07-14T08:17:19Z</time>
      </trkpt>
      <trkpt lat="44.75023" lon="5.76698">
        <ele>935.1</ele>
        <time>2022-07-14T08:17:20Z</time>
      </trkpt>
      <trkpt lat="44.75015" lon="5.76707">
        <ele>934.4</ele>
        <time>2022-07-14T08:17:21Z</time>
      </trkpt>
      <trkpt lat="44.75006" lon="5.76717">
        <ele>933.9</ele>
        <time>2022-07-14T08:17:22Z</time>
      </trkpt>
      <trkpt lat="44.74998" lon="5.76727">
        <ele>933.4</ele>
        <time>2022-07-14T08:17:23Z</time>
      </trkpt>
      <trkpt lat="44.74989" lon="5.76736">
        <ele>932.8</ele>
        <time>2022-07-14T08:17:24Z</time>
      </trkpt>
      <trkpt lat="44.74981" lon="5.76744">
        <ele>932.3</ele>
        <time>2022-07-14T08:17:25Z</time>
      </trkpt>
      <trkpt lat="44.74971" lon="5.76751">
        <ele>931.8</ele>
        <time>2022-07-14T08:17:26Z</time>
      </trkpt>
      <trkpt lat="44.74963" lon="5.76757">
        <ele>931.3</ele>
        <time>2022-07-14T08:17:27Z</time>
      </trkpt>
      <trkpt lat="44.74954" lon="5.76765">
        <ele>930.8</ele>
        <time>2022-07-14T08:17:28Z</time>
      </trkpt>
      <trkpt lat="44.74946" lon="5.76772">
        <ele>930.2</ele>
        <time>2022-07-14T08:17:29Z</time>
      </trkpt>
      <trkpt lat="44.74938" lon="5.7678">
        <ele>929.7</ele>
        <time>2022-07-14T08:17:30Z</time>
      </trkpt>
      <trkpt lat="44.74929" lon="5.76787">
        <ele>929.2</ele>
        <time>2022-07-14T08:17:31Z</time>
      </trkpt>
      <trkpt lat="44.7492" lon="5.76793">
        <ele>928.6</ele>
        <time>2022-07-14T08:17:32Z</time>
      </trkpt>
      <trkpt lat="44.74911" lon="5.76798">
        <ele>928.2</ele>
        <time>2022-07-14T08:17:33Z</time>
      </trkpt>
      <trkpt lat="44.74901" lon="5.76802">
        <ele>927.8</ele>
        <time>2022-07-14T08:17:34Z</time>
      </trkpt>
      <trkpt lat="44.74892" lon="5.76806">
        <ele>927.4</ele>
        <time>2022-07-14T08:17:35Z</time>
      </trkpt>
      <trkpt lat="44.74882" lon="5.76808">
        <ele>927.1</ele>
        <time>2022-07-14T08:17:36Z</time>
      </trkpt>
      <trkpt lat="44.74873" lon="5.76809">
        <ele>926.9</ele>
        <time>2022-07-14T08:17:37Z</time>
      </trkpt>
      <trkpt lat="44.74864" lon="5.7681">
        <ele>926.7</ele>
        <time>2022-07-14T08:17:38Z</time>
      </trkpt>
      <trkpt lat="44.74856" lon="5.7681">
        <ele>926.5</ele>
        <time>2022-07-14T08:17:39Z</time>
      </trkpt>
      <trkpt lat="44.74847" lon="5.7681">
        <ele>926.3</ele>
        <time>2022-07-14T08:17:40Z</time>
      </trkpt>
      <trkpt lat="44.74839" lon="5.7681">
        <ele>926.1</ele>
        <time>2022-07-14T08:17:41Z</time>
      </trkpt>
      <trkpt lat="44.74831" lon="5.76811">
        <ele>925.9</ele>
        <time>2022-07-14T08:17:42Z</time>
      </trkpt>
      <trkpt lat="44.74823" lon="5.76813">
        <ele>925.8</ele>
        <time>2022-07-14T08:17:43Z</time>
      </trkpt>
      <trkpt lat="44.74815" lon="5.76815">
        <ele>925.6</ele>
        <time>2022-07-14T08:17:44Z</time>
      </trkpt>
      <trkpt lat="44.74806" lon="5.76815">
        <ele>925.4</ele>
        <time>2022-07-14T08:17:45Z</time>
      </trkpt>
      <trkpt lat="44.74798" lon="5.76814">
        <ele>925.3</ele>
        <time>2022-07-14T08:17:46Z</time>
      </trkpt>
      <trkpt lat="44.7479" lon="5.76811">
        <ele>925.2</ele>
        <time>2022-07-14T08:17:47Z</time>
      </trkpt>
      <trkpt lat="44.74783" lon="5.76807">
        <ele>925.2</ele>
        <time>2022-07-14T08:17:48Z</time>
      </trkpt>
      <trkpt lat="44.74775" lon="5.76803">
        <ele>925.2</ele>
        <time>2022-07-14T08:17:49Z</time>
      </trkpt>
      <trkpt lat="44.74769" lon="5.76802">
        <ele>925.2</ele>
        <time>2022-07-14T08:17:50Z</time>
      </trkpt>
      <trkpt lat="44.74762" lon="5.76799">
        <ele>925.2</ele>
        <time>2022-07-14T08:17:51Z</time>
      </trkpt>
      <trkpt lat="44.74755" lon="5.76797">
        <ele>925.3</ele>
        <time>2022-07-14T08:17:52Z</time>
      </trkpt>
      <trkpt lat="44.74748" lon="5.76794">
        <ele>925.4</ele>
        <time>2022-07-14T08:17:53Z</time>
      </trkpt>
      <trkpt lat="44.74742" lon="5.76791">
        <ele>925.5</ele>
        <time>2022-07-14T08:17:54Z</time>
      </trkpt>
      <trkpt lat="44.74736" lon="5.76788">
        <ele>925.6</ele>
        <time>2022-07-14T08:17:55Z</time>
      </trkpt>
      <trkpt lat="44.74729" lon="5.76785">
        <ele>925.8</ele>
        <time>2022-07-14T08:17:56Z</time>
      </trkpt>
      <trkpt lat="44.74722" lon="5.76782">
        <ele>926</ele>
        <time>2022-07-14T08:17:57Z</time>
      </trkpt>
      <trkpt lat="44.74717" lon="5.76779">
        <ele>926.1</ele>
        <time>2022-07-14T08:17:58Z</time>
      </trkpt>
      <trkpt lat="44.74712" lon="5.76775">
        <ele>926.3</ele>
        <time>2022-07-14T08:17:59Z</time>
      </trkpt>
      <trkpt lat="44.74706" lon="5.76772">
        <ele>926.5</ele>
        <time>2022-07-14T08:18:00Z</time>
      </trkpt>
      <trkpt lat="44.74702" lon="5.7677">
        <ele>926.7</ele>
        <time>2022-07-14T08:18:01Z</time>
      </trkpt>
      <trkpt lat="44.74698" lon="5.76768">
        <ele>926.8</ele>
        <time>2022-07-14T08:18:02Z</time>
      </trkpt>
      <trkpt lat="44.74694" lon="5.76765">
        <ele>927</ele>
        <time>2022-07-14T08:18:03Z</time>
      </trkpt>
      <trkpt lat="44.7469" lon="5.76761">
        <ele>927.2</ele>
        <time>2022-07-14T08:18:04Z</time>
      </trkpt>
      <trkpt lat="44.74688" lon="5.7676">
        <ele>927.2</ele>
        <time>2022-07-14T08:18:05Z</time>
      </trkpt>
      <trkpt lat="44.74683" lon="5.76756">
        <ele>927.4</ele>
        <time>2022-07-14T08:18:06Z</time>
      </trkpt>
      <trkpt lat="44.74679" lon="5.76754">
        <ele>927.5</ele>
        <time>2022-07-14T08:18:07Z</time>
      </trkpt>
      <trkpt lat="44.74675" lon="5.76751">
        <ele>927.5</ele>
        <time>2022-07-14T08:18:08Z</time>
      </trkpt>
      <trkpt lat="44.7467" lon="5.76748">
        <ele>927.6</ele>
        <time>2022-07-14T08:18:09Z</time>
      </trkpt>
      <trkpt lat="44.74665" lon="5.76746">
        <ele>927.6</ele>
        <time>2022-07-14T08:18:10Z</time>
      </trkpt>
      <trkpt lat="44.7466" lon="5.76741">
        <ele>927.6</ele>
        <time>2022-07-14T08:18:11Z</time>
      </trkpt>
      <trkpt lat="44.7465" lon="5.76737">
        <ele>927.4</ele>
        <time>2022-07-14T08:18:13Z</time>
      </trkpt>
      <trkpt lat="44.74644" lon="5.76733">
        <ele>927.3</ele>
        <time>2022-07-14T08:18:15Z</time>
      </trkpt>
      <trkpt lat="44.74632" lon="5.7674">
        <ele>927</ele>
        <time>2022-07-14T08:18:18Z</time>
      </trkpt>
      <trkpt lat="44.74627" lon="5.76743">
        <ele>926.9</ele>
        <time>2022-07-14T08:18:19Z</time>
      </trkpt>
      <trkpt lat="44.74622" lon="5.76748">
        <ele>926.8</ele>
        <time>2022-07-14T08:18:20Z</time>
      </trkpt>
      <trkpt lat="44.74617" lon="5.76753">
        <ele>926.6</ele>
        <time>2022-07-14T08:18:21Z</time>
      </trkpt>
      <trkpt lat="44.74614" lon="5.76759">
        <ele>926.4</ele>
        <time>2022-07-14T08:18:22Z</time>
      </trkpt>
      <trkpt lat="44.74611" lon="5.76765">
        <ele>926.1</ele>
        <time>2022-07-14T08:18:23Z</time>
      </trkpt>
      <trkpt lat="44.74608" lon="5.76773">
        <ele>925.8</ele>
        <time>2022-07-14T08:18:24Z</time>
      </trkpt>
      <trkpt lat="44.74604" lon="5.7678">
        <ele>925.5</ele>
        <time>2022-07-14T08:18:25Z</time>
      </trkpt>
      <trkpt lat="44.74601" lon="5.76788">
        <ele>925.1</ele>
        <time>2022-07-14T08:18:26Z</time>
      </trkpt>
      <trkpt lat="44.74598" lon="5.76794">
        <ele>924.7</ele>
        <time>2022-07-14T08:18:27Z</time>
      </trkpt>
      <trkpt lat="44.74596" lon="5.768">
        <ele>924.4</ele>
        <time>2022-07-14T08:18:28Z</time>
      </trkpt>
      <trkpt lat="44.74593" lon="5.76803">
        <ele>924.1</ele>
        <time>2022-07-14T08:18:29Z</time>
      </trkpt>
      <trkpt lat="44.74589" lon="5.76807">
        <ele>923.7</ele>
        <time>2022-07-14T08:18:30Z</time>
      </trkpt>
      <trkpt lat="44.74584" lon="5.76809">
        <ele>923.2</ele>
        <time>2022-07-14T08:18:31Z</time>
      </trkpt>
      <trkpt lat="44.74577" lon="5.76809">
        <ele>922.6</ele>
        <time>2022-07-14T08:18:32Z</time>
      </trkpt>
      <trkpt lat="44.7457" lon="5.76809">
        <ele>922</ele>
        <time>2022-07-14T08:18:33Z</time>
      </trkpt>
      <trkpt lat="44.74563" lon="5.76808">
        <ele>921.4</ele>
        <time>2022-07-14T08:18:34Z</time>
      </trkpt>
      <trkpt lat="44.74555" lon="5.76807">
        <ele>920.9</ele>
        <time>2022-07-14T08:18:35Z</time>
      </trkpt>
      <trkpt lat="44.74547" lon="5.76808">
        <ele>920.5</ele>
        <time>2022-07-14T08:18:36Z</time>
      </trkpt>
      <trkpt lat="44.7454" lon="5.76811">
        <ele>920.1</ele>
        <time>2022-07-14T08:18:37Z</time>
      </trkpt>
      <trkpt lat="44.74533" lon="5.76815">
        <ele>919.9</ele>
        <time>2022-07-14T08:18:38Z</time>
      </trkpt>
      <trkpt lat="44.74527" lon="5.76817">
        <ele>919.7</ele>
        <time>2022-07-14T08:18:39Z</time>
      </trkpt>
      <trkpt lat="44.74523" lon="5.76819">
        <ele>919.5</ele>
        <time>2022-07-14T08:18:40Z</time>
      </trkpt>
      <trkpt lat="44.74519" lon="5.76819">
        <ele>919.4</ele>
        <time>2022-07-14T08:18:41Z</time>
      </trkpt>
      <trkpt lat="44.74515" lon="5.76818">
        <ele>919.2</ele>
        <time>2022-07-14T08:18:42Z</time>
      </trkpt>
      <trkpt lat="44.74514" lon="5.76819">
        <ele>919.2</ele>
        <time>2022-07-14T08:18:43Z</time>
      </trkpt>
      <trkpt lat="44.7451" lon="5.76819">
        <ele>919.1</ele>
        <time>2022-07-14T08:18:44Z</time>
      </trkpt>
      <trkpt lat="44.74507" lon="5.76818">
        <ele>919</ele>
        <time>2022-07-14T08:18:45Z</time>
      </trkpt>
      <trkpt lat="44.74503" lon="5.76817">
        <ele>918.9</ele>
        <time>2022-07-14T08:18:46Z</time>
      </trkpt>
      <trkpt lat="44.74496" lon="5.76816">
        <ele>918.7</ele>
        <time>2022-07-14T08:18:47Z</time>
      </trkpt>
      <trkpt lat="44.74495" lon="5.76815">
        <ele>918.7</ele>
        <time>2022-07-14T08:18:48Z</time>
      </trkpt>
      <trkpt lat="44.74494" lon="5.76814">
        <ele>918.6</ele>
        <time>2022-07-14T08:18:49Z</time>
      </trkpt>
      <trkpt lat="44.74487" lon="5.76814">
        <ele>918.3</ele>
        <time>2022-07-14T08:18:50Z</time>
      </trkpt>
      <trkpt lat="44.74479" lon="5.76814">
        <ele>918</ele>
        <time>2022-07-14T08:18:52Z</time>
      </trkpt>
      <trkpt lat="44.74471" lon="5.7681">
        <ele>917.6</ele>
        <time>2022-07-14T08:18:54Z</time>
      </trkpt>
      <trkpt lat="44.74466" lon="5.76806">
        <ele>917.4</ele>
        <time>2022-07-14T08:18:55Z</time>
      </trkpt>
      <trkpt lat="44.74451" lon="5.76792">
        <ele>916.7</ele>
        <time>2022-07-14T08:18:58Z</time>
      </trkpt>
      <trkpt lat="44.74446" lon="5.76786">
        <ele>916.5</ele>
        <time>2022-07-14T08:18:59Z</time>
      </trkpt>
      <trkpt lat="44.74443" lon="5.76785">
        <ele>916.4</ele>
        <time>2022-07-14T08:19:00Z</time>
      </trkpt>
      <trkpt lat="44.74439" lon="5.76782">
        <ele>916.2</ele>
        <time>2022-07-14T08:19:01Z</time>
      </trkpt>
      <trkpt lat="44.74434" lon="5.76777">
        <ele>916</ele>
        <time>2022-07-14T08:19:02Z</time>
      </trkpt>
      <trkpt lat="44.7443" lon="5.76772">
        <ele>915.9</ele>
        <time>2022-07-14T08:19:03Z</time>
      </trkpt>
      <trkpt lat="44.74425" lon="5.76768">
        <ele>915.7</ele>
        <time>2022-07-14T08:19:04Z</time>
      </trkpt>
      <trkpt lat="44.74421" lon="5.76763">
        <ele>915.5</ele>
        <time>2022-07-14T08:19:05Z</time>
      </trkpt>
      <trkpt lat="44.74415" lon="5.76758">
        <ele>915.3</ele>
        <time>2022-07-14T08:19:06Z</time>
      </trkpt>
      <trkpt lat="44.7441" lon="5.76754">
        <ele>915.1</ele>
        <time>2022-07-14T08:19:07Z</time>
      </trkpt>
      <trkpt lat="44.74405" lon="5.76749">
        <ele>914.9</ele>
        <time>2022-07-14T08:19:08Z</time>
      </trkpt>
      <trkpt lat="44.744" lon="5.76744">
        <ele>914.6</ele>
        <time>2022-07-14T08:19:09Z</time>
      </trkpt>
      <trkpt lat="44.74395" lon="5.76738">
        <ele>914.3</ele>
        <time>2022-07-14T08:19:10Z</time>
      </trkpt>
      <trkpt lat="44.74389" lon="5.76731">
        <ele>914</ele>
        <time>2022-07-14T08:19:11Z</time>
      </trkpt>
      <trkpt lat="44.74383" lon="5.76725">
        <ele>913.7</ele>
        <time>2022-07-14T08:19:12Z</time>
      </trkpt>
      <trkpt lat="44.74378" lon="5.76719">
        <ele>913.4</ele>
        <time>2022-07-14T08:19:13Z</time>
      </trkpt>
      <trkpt lat="44.74374" lon="5.76714">
        <ele>913.1</ele>
        <time>2022-07-14T08:19:14Z</time>
      </trkpt>
      <trkpt lat="44.74372" lon="5.76711">
        <ele>913</ele>
        <time>2022-07-14T08:19:15Z</time>
      </trkpt>
      <trkpt lat="44.74371" lon="5.7671">
        <ele>912.9</ele>
        <time>2022-07-14T08:19:16Z</time>
      </trkpt>
      <trkpt lat="44.74369" lon="5.76708">
        <ele>912.8</ele>
        <time>2022-07-14T08:19:17Z</time>
      </trkpt>
      <trkpt lat="44.74369" lon="5.76707">
        <ele>912.8</ele>
        <time>2022-07-14T08:19:18Z</time>
      </trkpt>
      <trkpt lat="44.74368" lon="5.76706">
        <ele>912.7</ele>
        <time>2022-07-14T08:19:19Z</time>
      </trkpt>
      <trkpt lat="44.74368" lon="5.76706">
        <ele>912.7</ele>
        <time>2022-07-14T08:19:20Z</time>
      </trkpt>
      <trkpt lat="44.74368" lon="5.76707">
        <ele>912.7</ele>
        <time>2022-07-14T08:19:21Z</time>
      </trkpt>
      <trkpt lat="44.74369" lon="5.76707">
        <ele>912.7</ele>
        <time>2022-07-14T08:19:22Z</time>
      </trkpt>
      <trkpt lat="44.74369" lon="5.76707">
        <ele>912.6</ele>
        <time>2022-07-14T08:19:23Z</time>
      </trkpt>
      <trkpt lat="44.7437" lon="5.76707">
        <ele>912.6</ele>
        <time>2022-07-14T08:19:24Z</time>
      </trkpt>
      <trkpt lat="44.74369" lon="5.76707">
        <ele>912.6</ele>
        <time>2022-07-14T08:19:26Z</time>
      </trkpt>
      <trkpt lat="44.74369" lon="5.76707">
        <ele>912.6</ele>
        <time>2022-07-14T08:19:27Z</time>
      </trkpt>
      <trkpt lat="44.74369" lon="5.76706">
        <ele>912.6</ele>
        <time>2022-07-14T08:19:28Z</time>
      </trkpt>
      <trkpt lat="44.74366" lon="5.76702">
        <ele>912.4</ele>
        <time>2022-07-14T08:19:54Z</time>
      </trkpt>
      <trkpt lat="44.74367" lon="5.76702">
        <ele>912.4</ele>
        <time>2022-07-14T08:19:55Z</time>
      </trkpt>
      <trkpt lat="44.74366" lon="5.767">
        <ele>912.3</ele>
        <time>2022-07-14T08:19:56Z</time>
      </trkpt>
      <trkpt lat="44.74358" lon="5.76693">
        <ele>911.9</ele>
        <time>2022-07-14T08:19:58Z</time>
      </trkpt>
      <trkpt lat="44.74352" lon="5.7669">
        <ele>911.6</ele>
        <time>2022-07-14T08:19:59Z</time>
      </trkpt>
      <trkpt lat="44.74343" lon="5.76676">
        <ele>911.1</ele>
        <time>2022-07-14T08:20:02Z</time>
      </trkpt>
      <trkpt lat="44.74339" lon="5.76672">
        <ele>910.9</ele>
        <time>2022-07-14T08:20:03Z</time>
      </trkpt>
      <trkpt lat="44.74335" lon="5.76667">
        <ele>910.7</ele>
        <time>2022-07-14T08:20:04Z</time>
      </trkpt>
      <trkpt lat="44.74329" lon="5.76662">
        <ele>910.4</ele>
        <time>2022-07-14T08:20:05Z</time>
      </trkpt>
      <trkpt lat="44.74324" lon="5.76657">
        <ele>910.2</ele>
        <time>2022-07-14T08:20:06Z</time>
      </trkpt>
      <trkpt lat="44.74319" lon="5.76651">
        <ele>909.9</ele>
        <time>2022-07-14T08:20:07Z</time>
      </trkpt>
      <trkpt lat="44.74314" lon="5.76646">
        <ele>909.7</ele>
        <time>2022-07-14T08:20:08Z</time>
      </trkpt>
      <trkpt lat="44.74308" lon="5.76641">
        <ele>909.4</ele>
        <time>2022-07-14T08:20:09Z</time>
      </trkpt>
      <trkpt lat="44.74303" lon="5.76636">
        <ele>909.1</ele>
        <time>2022-07-14T08:20:10Z</time>
      </trkpt>
      <trkpt lat="44.74298" lon="5.7663">
        <ele>908.8</ele>
        <time>2022-07-14T08:20:11Z</time>
      </trkpt>
      <trkpt lat="44.74292" lon="5.76623">
        <ele>908.5</ele>
        <time>2022-07-14T08:20:12Z</time>
      </trkpt>
      <trkpt lat="44.74286" lon="5.76617">
        <ele>908.2</ele>
        <time>2022-07-14T08:20:13Z</time>
      </trkpt>
      <trkpt lat="44.74279" lon="5.76611">
        <ele>907.9</ele>
        <time>2022-07-14T08:20:14Z</time>
      </trkpt>
      <trkpt lat="44.74273" lon="5.76605">
        <ele>907.7</ele>
        <time>2022-07-14T08:20:15Z</time>
      </trkpt>
      <trkpt lat="44.74266" lon="5.766">
        <ele>907.5</ele>
        <time>2022-07-14T08:20:16Z</time>
      </trkpt>
      <trkpt lat="44.74259" lon="5.76594">
        <ele>907.2</ele>
        <time>2022-07-14T08:20:17Z</time>
      </trkpt>
      <trkpt lat="44.74253" lon="5.76591">
        <ele>907</ele>
        <time>2022-07-14T08:20:18Z</time>
      </trkpt>
      <trkpt lat="44.74247" lon="5.76589">
        <ele>906.9</ele>
        <time>2022-07-14T08:20:19Z</time>
      </trkpt>
      <trkpt lat="44.74241" lon="5.76586">
        <ele>906.8</ele>
        <time>2022-07-14T08:20:20Z</time>
      </trkpt>
      <trkpt lat="44.74234" lon="5.76583">
        <ele>906.7</ele>
        <time>2022-07-14T08:20:21Z</time>
      </trkpt>
      <trkpt lat="44.74226" lon="5.7658">
        <ele>906.6</ele>
        <time>2022-07-14T08:20:22Z</time>
      </trkpt>
      <trkpt lat="44.74218" lon="5.76575">
        <ele>906.5</ele>
        <time>2022-07-14T08:20:23Z</time>
      </trkpt>
      <trkpt lat="44.7421" lon="5.76571">
        <ele>906.3</ele>
        <time>2022-07-14T08:20:24Z</time>
      </trkpt>
      <trkpt lat="44.74202" lon="5.76568">
        <ele>906.2</ele>
        <time>2022-07-14T08:20:25Z</time>
      </trkpt>
      <trkpt lat="44.74195" lon="5.76565">
        <ele>906</ele>
        <time>2022-07-14T08:20:26Z</time>
      </trkpt>
      <trkpt lat="44.74187" lon="5.76562">
        <ele>905.8</ele>
        <time>2022-07-14T08:20:27Z</time>
      </trkpt>
      <trkpt lat="44.74179" lon="5.76559">
        <ele>905.7</ele>
        <time>2022-07-14T08:20:28Z</time>
      </trkpt>
      <trkpt lat="44.74172" lon="5.76554">
        <ele>905.5</ele>
        <time>2022-07-14T08:20:29Z</time>
      </trkpt>
      <trkpt lat="44.74167" lon="5.76544">
        <ele>905.1</ele>
        <time>2022-07-14T08:20:30Z</time>
      </trkpt>
      <trkpt lat="44.74162" lon="5.76533">
        <ele>904.7</ele>
        <time>2022-07-14T08:20:31Z</time>
      </trkpt>
      <trkpt lat="44.74161" lon="5.76522">
        <ele>904.4</ele>
        <time>2022-07-14T08:20:32Z</time>
      </trkpt>
      <trkpt lat="44.74163" lon="5.76511">
        <ele>904</ele>
        <time>2022-07-14T08:20:33Z</time>
      </trkpt>
      <trkpt lat="44.74166" lon="5.76501">
        <ele>903.7</ele>
        <time>2022-07-14T08:20:34Z</time>
      </trkpt>
      <trkpt lat="44.74168" lon="5.7649">
        <ele>903.4</ele>
        <time>2022-07-14T08:20:35Z</time>
      </trkpt>
      <trkpt lat="44.74169" lon="5.76478">
        <ele>903</ele>
        <time>2022-07-14T08:20:36Z</time>
      </trkpt>
      <trkpt lat="44.7417" lon="5.76467">
        <ele>902.8</ele>
        <time>2022-07-14T08:20:37Z</time>
      </trkpt>
      <trkpt lat="44.74172" lon="5.76456">
        <ele>902.5</ele>
        <time>2022-07-14T08:20:38Z</time>
      </trkpt>
      <trkpt lat="44.74174" lon="5.76445">
        <ele>902.2</ele>
        <time>2022-07-14T08:20:39Z</time>
      </trkpt>
      <trkpt lat="44.74178" lon="5.76438">
        <ele>902</ele>
        <time>2022-07-14T08:20:40Z</time>
      </trkpt>
      <trkpt lat="44.74181" lon="5.76428">
        <ele>901.8</ele>
        <time>2022-07-14T08:20:41Z</time>
      </trkpt>
      <trkpt lat="44.74182" lon="5.76417">
        <ele>901.6</ele>
        <time>2022-07-14T08:20:42Z</time>
      </trkpt>
      <trkpt lat="44.74182" lon="5.76406">
        <ele>901.4</ele>
        <time>2022-07-14T08:20:43Z</time>
      </trkpt>
      <trkpt lat="44.74181" lon="5.76394">
        <ele>901.1</ele>
        <time>2022-07-14T08:20:44Z</time>
      </trkpt>
      <trkpt lat="44.7418" lon="5.76381">
        <ele>900.9</ele>
        <time>2022-07-14T08:20:45Z</time>
      </trkpt>
      <trkpt lat="44.74178" lon="5.76369">
        <ele>900.7</ele>
        <time>2022-07-14T08:20:46Z</time>
      </trkpt>
      <trkpt lat="44.74176" lon="5.76357">
        <ele>900.5</ele>
        <time>2022-07-14T08:20:47Z</time>
      </trkpt>
      <trkpt lat="44.74174" lon="5.76345">
        <ele>900.3</ele>
        <time>2022-07-14T08:20:48Z</time>
      </trkpt>
      <trkpt lat="44.74173" lon="5.76333">
        <ele>900.1</ele>
        <time>2022-07-14T08:20:49Z</time>
      </trkpt>
      <trkpt lat="44.74169" lon="5.7632">
        <ele>899.9</ele>
        <time>2022-07-14T08:20:50Z</time>
      </trkpt>
      <trkpt lat="44.74165" lon="5.7631">
        <ele>899.7</ele>
        <time>2022-07-14T08:20:51Z</time>
      </trkpt>
      <trkpt lat="44.7416" lon="5.76301">
        <ele>899.4</ele>
        <time>2022-07-14T08:20:52Z</time>
      </trkpt>
      <trkpt lat="44.74154" lon="5.76293">
        <ele>898.9</ele>
        <time>2022-07-14T08:20:53Z</time>
      </trkpt>
      <trkpt lat="44.74148" lon="5.76285">
        <ele>898.4</ele>
        <time>2022-07-14T08:20:54Z</time>
      </trkpt>
      <trkpt lat="44.74142" lon="5.76277">
        <ele>897.8</ele>
        <time>2022-07-14T08:20:55Z</time>
      </trkpt>
      <trkpt lat="44.74136" lon="5.76267">
        <ele>897.2</ele>
        <time>2022-07-14T08:20:56Z</time>
      </trkpt>
      <trkpt lat="44.7413" lon="5.76257">
        <ele>896.5</ele>
        <time>2022-07-14T08:20:57Z</time>
      </trkpt>
      <trkpt lat="44.74125" lon="5.76246">
        <ele>895.9</ele>
        <time>2022-07-14T08:20:58Z</time>
      </trkpt>
      <trkpt lat="44.74121" lon="5.76234">
        <ele>895.3</ele>
        <time>2022-07-14T08:20:59Z</time>
      </trkpt>
      <trkpt lat="44.74117" lon="5.76221">
        <ele>894.6</ele>
        <time>2022-07-14T08:21:00Z</time>
      </trkpt>
      <trkpt lat="44.74113" lon="5.76208">
        <ele>893.9</ele>
        <time>2022-07-14T08:21:01Z</time>
      </trkpt>
      <trkpt lat="44.74111" lon="5.76194">
        <ele>893.1</ele>
        <time>2022-07-14T08:21:02Z</time>
      </trkpt>
      <trkpt lat="44.74111" lon="5.76181">
        <ele>892.4</ele>
        <time>2022-07-14T08:21:03Z</time>
      </trkpt>
      <trkpt lat="44.7411" lon="5.76167">
        <ele>891.7</ele>
        <time>2022-07-14T08:21:04Z</time>
      </trkpt>
      <trkpt lat="44.7411" lon="5.76152">
        <ele>890.9</ele>
        <time>2022-07-14T08:21:05Z</time>
      </trkpt>
      <trkpt lat="44.7411" lon="5.76138">
        <ele>890.1</ele>
        <time>2022-07-14T08:21:06Z</time>
      </trkpt>
      <trkpt lat="44.74107" lon="5.76123">
        <ele>889.2</ele>
        <time>2022-07-14T08:21:07Z</time>
      </trkpt>
      <trkpt lat="44.74106" lon="5.76108">
        <ele>888.4</ele>
        <time>2022-07-14T08:21:08Z</time>
      </trkpt>
      <trkpt lat="44.74107" lon="5.76093">
        <ele>887.5</ele>
        <time>2022-07-14T08:21:09Z</time>
      </trkpt>
      <trkpt lat="44.74107" lon="5.76078">
        <ele>886.8</ele>
        <time>2022-07-14T08:21:10Z</time>
      </trkpt>
      <trkpt lat="44.74107" lon="5.76061">
        <ele>885.9</ele>
        <time>2022-07-14T08:21:11Z</time>
      </trkpt>
      <trkpt lat="44.74108" lon="5.76046">
        <ele>885.2</ele>
        <time>2022-07-14T08:21:12Z</time>
      </trkpt>
      <trkpt lat="44.74108" lon="5.7603">
        <ele>884.4</ele>
        <time>2022-07-14T08:21:13Z</time>
      </trkpt>
      <trkpt lat="44.7411" lon="5.76016">
        <ele>883.7</ele>
        <time>2022-07-14T08:21:14Z</time>
      </trkpt>
      <trkpt lat="44.7411" lon="5.76001">
        <ele>883</ele>
        <time>2022-07-14T08:21:15Z</time>
      </trkpt>
      <trkpt lat="44.7411" lon="5.75986">
        <ele>882.3</ele>
        <time>2022-07-14T08:21:16Z</time>
      </trkpt>
      <trkpt lat="44.74108" lon="5.75971">
        <ele>881.5</ele>
        <time>2022-07-14T08:21:17Z</time>
      </trkpt>
      <trkpt lat="44.74106" lon="5.75956">
        <ele>880.9</ele>
        <time>2022-07-14T08:21:18Z</time>
      </trkpt>
      <trkpt lat="44.74103" lon="5.75942">
        <ele>880.3</ele>
        <time>2022-07-14T08:21:19Z</time>
      </trkpt>
      <trkpt lat="44.74097" lon="5.75927">
        <ele>879.6</ele>
        <time>2022-07-14T08:21:20Z</time>
      </trkpt>
      <trkpt lat="44.74091" lon="5.75913">
        <ele>878.9</ele>
        <time>2022-07-14T08:21:21Z</time>
      </trkpt>
      <trkpt lat="44.74086" lon="5.75898">
        <ele>878.1</ele>
        <time>2022-07-14T08:21:22Z</time>
      </trkpt>
      <trkpt lat="44.74083" lon="5.75886">
        <ele>877.5</ele>
        <time>2022-07-14T08:21:23Z</time>
      </trkpt>
      <trkpt lat="44.74078" lon="5.75874">
        <ele>876.9</ele>
        <time>2022-07-14T08:21:24Z</time>
      </trkpt>
      <trkpt lat="44.74071" lon="5.75862">
        <ele>876.3</ele>
        <time>2022-07-14T08:21:25Z</time>
      </trkpt>
      <trkpt lat="44.74064" lon="5.75852">
        <ele>875.7</ele>
        <time>2022-07-14T08:21:26Z</time>
      </trkpt>
      <trkpt lat="44.74056" lon="5.75841">
        <ele>875.2</ele>
        <time>2022-07-14T08:21:27Z</time>
      </trkpt>
      <trkpt lat="44.74048" lon="5.7583">
        <ele>874.8</ele>
        <time>2022-07-14T08:21:28Z</time>
      </trkpt>
      <trkpt lat="44.74041" lon="5.75818">
        <ele>874.5</ele>
        <time>2022-07-14T08:21:29Z</time>
      </trkpt>
      <trkpt lat="44.74034" lon="5.75805">
        <ele>874.5</ele>
        <time>2022-07-14T08:21:30Z</time>
      </trkpt>
      <trkpt lat="44.74028" lon="5.75793">
        <ele>874.3</ele>
        <time>2022-07-14T08:21:31Z</time>
      </trkpt>
      <trkpt lat="44.74022" lon="5.75781">
        <ele>874.1</ele>
        <time>2022-07-14T08:21:32Z</time>
      </trkpt>
      <trkpt lat="44.74016" lon="5.7577">
        <ele>874</ele>
        <time>2022-07-14T08:21:33Z</time>
      </trkpt>
      <trkpt lat="44.74011" lon="5.75758">
        <ele>873.9</ele>
        <time>2022-07-14T08:21:34Z</time>
      </trkpt>
      <trkpt lat="44.74009" lon="5.75745">
        <ele>873.8</ele>
        <time>2022-07-14T08:21:35Z</time>
      </trkpt>
      <trkpt lat="44.74011" lon="5.75732">
        <ele>873.5</ele>
        <time>2022-07-14T08:21:36Z</time>
      </trkpt>
      <trkpt lat="44.74016" lon="5.75722">
        <ele>873.3</ele>
        <time>2022-07-14T08:21:37Z</time>
      </trkpt>
      <trkpt lat="44.74022" lon="5.75711">
        <ele>873.1</ele>
        <time>2022-07-14T08:21:38Z</time>
      </trkpt>
      <trkpt lat="44.74028" lon="5.75702">
        <ele>872.9</ele>
        <time>2022-07-14T08:21:39Z</time>
      </trkpt>
      <trkpt lat="44.74034" lon="5.75693">
        <ele>872.7</ele>
        <time>2022-07-14T08:21:40Z</time>
      </trkpt>
      <trkpt lat="44.74039" lon="5.75684">
        <ele>872.5</ele>
        <time>2022-07-14T08:21:41Z</time>
      </trkpt>
      <trkpt lat="44.74045" lon="5.75676">
        <ele>872.3</ele>
        <time>2022-07-14T08:21:42Z</time>
      </trkpt>
      <trkpt lat="44.74051" lon="5.75667">
        <ele>872.1</ele>
        <time>2022-07-14T08:21:43Z</time>
      </trkpt>
      <trkpt lat="44.74058" lon="5.75658">
        <ele>871.9</ele>
        <time>2022-07-14T08:21:44Z</time>
      </trkpt>
      <trkpt lat="44.74065" lon="5.75649">
        <ele>871.6</ele>
        <time>2022-07-14T08:21:45Z</time>
      </trkpt>
      <trkpt lat="44.74072" lon="5.7564">
        <ele>871.4</ele>
        <time>2022-07-14T08:21:46Z</time>
      </trkpt>
      <trkpt lat="44.74078" lon="5.75631">
        <ele>871.2</ele>
        <time>2022-07-14T08:21:47Z</time>
      </trkpt>
      <trkpt lat="44.74085" lon="5.75622">
        <ele>870.9</ele>
        <time>2022-07-14T08:21:48Z</time>
      </trkpt>
      <trkpt lat="44.74091" lon="5.75612">
        <ele>870.7</ele>
        <time>2022-07-14T08:21:49Z</time>
      </trkpt>
      <trkpt lat="44.74097" lon="5.75602">
        <ele>870.5</ele>
        <time>2022-07-14T08:21:50Z</time>
      </trkpt>
      <trkpt lat="44.74102" lon="5.75591">
        <ele>870.3</ele>
        <time>2022-07-14T08:21:51Z</time>
      </trkpt>
      <trkpt lat="44.74106" lon="5.7558">
        <ele>870.1</ele>
        <time>2022-07-14T08:21:52Z</time>
      </trkpt>
      <trkpt lat="44.74109" lon="5.75568">
        <ele>869.9</ele>
        <time>2022-07-14T08:21:53Z</time>
      </trkpt>
      <trkpt lat="44.74112" lon="5.75556">
        <ele>869.8</ele>
        <time>2022-07-14T08:21:54Z</time>
      </trkpt>
      <trkpt lat="44.74115" lon="5.75544">
        <ele>869.6</ele>
        <time>2022-07-14T08:21:55Z</time>
      </trkpt>
      <trkpt lat="44.74119" lon="5.75533">
        <ele>869.5</ele>
        <time>2022-07-14T08:21:56Z</time>
      </trkpt>
      <trkpt lat="44.74124" lon="5.75523">
        <ele>869.4</ele>
        <time>2022-07-14T08:21:57Z</time>
      </trkpt>
      <trkpt lat="44.74129" lon="5.75513">
        <ele>869.3</ele>
        <time>2022-07-14T08:21:58Z</time>
      </trkpt>
      <trkpt lat="44.74134" lon="5.75503">
        <ele>869.3</ele>
        <time>2022-07-14T08:21:59Z</time>
      </trkpt>
      <trkpt lat="44.74138" lon="5.75492">
        <ele>869.2</ele>
        <time>2022-07-14T08:22:00Z</time>
      </trkpt>
      <trkpt lat="44.74142" lon="5.75481">
        <ele>869.1</ele>
        <time>2022-07-14T08:22:01Z</time>
      </trkpt>
      <trkpt lat="44.74146" lon="5.75471">
        <ele>869</ele>
        <time>2022-07-14T08:22:02Z</time>
      </trkpt>
      <trkpt lat="44.74148" lon="5.75461">
        <ele>868.9</ele>
        <time>2022-07-14T08:22:03Z</time>
      </trkpt>
      <trkpt lat="44.74152" lon="5.75452">
        <ele>868.7</ele>
        <time>2022-07-14T08:22:04Z</time>
      </trkpt>
      <trkpt lat="44.74157" lon="5.75443">
        <ele>868.5</ele>
        <time>2022-07-14T08:22:05Z</time>
      </trkpt>
      <trkpt lat="44.74162" lon="5.75433">
        <ele>868.2</ele>
        <time>2022-07-14T08:22:06Z</time>
      </trkpt>
      <trkpt lat="44.74167" lon="5.75423">
        <ele>867.9</ele>
        <time>2022-07-14T08:22:07Z</time>
      </trkpt>
      <trkpt lat="44.74171" lon="5.75413">
        <ele>867.6</ele>
        <time>2022-07-14T08:22:08Z</time>
      </trkpt>
      <trkpt lat="44.74175" lon="5.75402">
        <ele>867.3</ele>
        <time>2022-07-14T08:22:09Z</time>
      </trkpt>
      <trkpt lat="44.74181" lon="5.75393">
        <ele>867</ele>
        <time>2022-07-14T08:22:10Z</time>
      </trkpt>
      <trkpt lat="44.74185" lon="5.75384">
        <ele>866.7</ele>
        <time>2022-07-14T08:22:11Z</time>
      </trkpt>
      <trkpt lat="44.74191" lon="5.75373">
        <ele>866.4</ele>
        <time>2022-07-14T08:22:12Z</time>
      </trkpt>
      <trkpt lat="44.74196" lon="5.75363">
        <ele>866.2</ele>
        <time>2022-07-14T08:22:13Z</time>
      </trkpt>
      <trkpt lat="44.74201" lon="5.75354">
        <ele>866</ele>
        <time>2022-07-14T08:22:14Z</time>
      </trkpt>
      <trkpt lat="44.74206" lon="5.75343">
        <ele>865.8</ele>
        <time>2022-07-14T08:22:15Z</time>
      </trkpt>
      <trkpt lat="44.74211" lon="5.75332">
        <ele>865.6</ele>
        <time>2022-07-14T08:22:16Z</time>
      </trkpt>
      <trkpt lat="44.74216" lon="5.75322">
        <ele>865.4</ele>
        <time>2022-07-14T08:22:17Z</time>
      </trkpt>
      <trkpt lat="44.74221" lon="5.75312">
        <ele>865.3</ele>
        <time>2022-07-14T08:22:18Z</time>
      </trkpt>
      <trkpt lat="44.74226" lon="5.75302">
        <ele>865.1</ele>
        <time>2022-07-14T08:22:19Z</time>
      </trkpt>
      <trkpt lat="44.7423" lon="5.75291">
        <ele>865</ele>
        <time>2022-07-14T08:22:20Z</time>
      </trkpt>
      <trkpt lat="44.74235" lon="5.7528">
        <ele>865</ele>
        <time>2022-07-14T08:22:21Z</time>
      </trkpt>
      <trkpt lat="44.7424" lon="5.75271">
        <ele>864.9</ele>
        <time>2022-07-14T08:22:22Z</time>
      </trkpt>
      <trkpt lat="44.74244" lon="5.75262">
        <ele>864.9</ele>
        <time>2022-07-14T08:22:23Z</time>
      </trkpt>
      <trkpt lat="44.74245" lon="5.75253">
        <ele>865</ele>
        <time>2022-07-14T08:22:24Z</time>
      </trkpt>
      <trkpt lat="44.74248" lon="5.75244">
        <ele>865</ele>
        <time>2022-07-14T08:22:25Z</time>
      </trkpt>
      <trkpt lat="44.74252" lon="5.75235">
        <ele>865.1</ele>
        <time>2022-07-14T08:22:26Z</time>
      </trkpt>
      <trkpt lat="44.74257" lon="5.75226">
        <ele>865.1</ele>
        <time>2022-07-14T08:22:27Z</time>
      </trkpt>
      <trkpt lat="44.74262" lon="5.75217">
        <ele>865.2</ele>
        <time>2022-07-14T08:22:28Z</time>
      </trkpt>
      <trkpt lat="44.74266" lon="5.7521">
        <ele>865.2</ele>
        <time>2022-07-14T08:22:29Z</time>
      </trkpt>
      <trkpt lat="44.7427" lon="5.75202">
        <ele>865.4</ele>
        <time>2022-07-14T08:22:30Z</time>
      </trkpt>
      <trkpt lat="44.74274" lon="5.75194">
        <ele>865.6</ele>
        <time>2022-07-14T08:22:31Z</time>
      </trkpt>
      <trkpt lat="44.74279" lon="5.75188">
        <ele>865.7</ele>
        <time>2022-07-14T08:22:32Z</time>
      </trkpt>
      <trkpt lat="44.74283" lon="5.75181">
        <ele>865.9</ele>
        <time>2022-07-14T08:22:33Z</time>
      </trkpt>
      <trkpt lat="44.74286" lon="5.75176">
        <ele>866.1</ele>
        <time>2022-07-14T08:22:34Z</time>
      </trkpt>
      <trkpt lat="44.7429" lon="5.75171">
        <ele>866.3</ele>
        <time>2022-07-14T08:22:35Z</time>
      </trkpt>
      <trkpt lat="44.74293" lon="5.75165">
        <ele>866.5</ele>
        <time>2022-07-14T08:22:36Z</time>
      </trkpt>
      <trkpt lat="44.74297" lon="5.7516">
        <ele>866.7</ele>
        <time>2022-07-14T08:22:37Z</time>
      </trkpt>
      <trkpt lat="44.743" lon="5.75154">
        <ele>866.9</ele>
        <time>2022-07-14T08:22:38Z</time>
      </trkpt>
      <trkpt lat="44.74304" lon="5.75149">
        <ele>867.1</ele>
        <time>2022-07-14T08:22:39Z</time>
      </trkpt>
      <trkpt lat="44.74307" lon="5.75143">
        <ele>867.3</ele>
        <time>2022-07-14T08:22:40Z</time>
      </trkpt>
      <trkpt lat="44.7431" lon="5.75137">
        <ele>867.5</ele>
        <time>2022-07-14T08:22:41Z</time>
      </trkpt>
      <trkpt lat="44.74313" lon="5.75131">
        <ele>867.7</ele>
        <time>2022-07-14T08:22:42Z</time>
      </trkpt>
      <trkpt lat="44.74315" lon="5.75125">
        <ele>867.9</ele>
        <time>2022-07-14T08:22:43Z</time>
      </trkpt>
      <trkpt lat="44.74317" lon="5.7512">
        <ele>868.1</ele>
        <time>2022-07-14T08:22:44Z</time>
      </trkpt>
      <trkpt lat="44.7432" lon="5.75115">
        <ele>868.2</ele>
        <time>2022-07-14T08:22:45Z</time>
      </trkpt>
      <trkpt lat="44.74322" lon="5.75109">
        <ele>868.4</ele>
        <time>2022-07-14T08:22:46Z</time>
      </trkpt>
      <trkpt lat="44.74323" lon="5.75101">
        <ele>868.6</ele>
        <time>2022-07-14T08:22:47Z</time>
      </trkpt>
      <trkpt lat="44.74324" lon="5.75095">
        <ele>868.8</ele>
        <time>2022-07-14T08:22:48Z</time>
      </trkpt>
      <trkpt lat="44.74325" lon="5.75087">
        <ele>868.9</ele>
        <time>2022-07-14T08:22:49Z</time>
      </trkpt>
      <trkpt lat="44.74325" lon="5.7508">
        <ele>869.1</ele>
        <time>2022-07-14T08:22:50Z</time>
      </trkpt>
      <trkpt lat="44.74326" lon="5.75072">
        <ele>869.3</ele>
        <time>2022-07-14T08:22:51Z</time>
      </trkpt>
      <trkpt lat="44.74327" lon="5.75065">
        <ele>869.4</ele>
        <time>2022-07-14T08:22:52Z</time>
      </trkpt>
      <trkpt lat="44.74327" lon="5.75058">
        <ele>869.5</ele>
        <time>2022-07-14T08:22:53Z</time>
      </trkpt>
      <trkpt lat="44.74328" lon="5.75051">
        <ele>869.6</ele>
        <time>2022-07-14T08:22:54Z</time>
      </trkpt>
      <trkpt lat="44.74329" lon="5.75045">
        <ele>869.6</ele>
        <time>2022-07-14T08:22:55Z</time>
      </trkpt>
      <trkpt lat="44.74331" lon="5.75039">
        <ele>869.7</ele>
        <time>2022-07-14T08:22:56Z</time>
      </trkpt>
      <trkpt lat="44.74333" lon="5.75032">
        <ele>869.7</ele>
        <time>2022-07-14T08:22:57Z</time>
      </trkpt>
      <trkpt lat="44.74336" lon="5.75026">
        <ele>869.7</ele>
        <time>2022-07-14T08:22:58Z</time>
      </trkpt>
      <trkpt lat="44.74339" lon="5.7502">
        <ele>869.6</ele>
        <time>2022-07-14T08:22:59Z</time>
      </trkpt>
      <trkpt lat="44.74343" lon="5.75014">
        <ele>869.6</ele>
        <time>2022-07-14T08:23:00Z</time>
      </trkpt>
      <trkpt lat="44.74347" lon="5.75007">
        <ele>869.6</ele>
        <time>2022-07-14T08:23:01Z</time>
      </trkpt>
      <trkpt lat="44.74351" lon="5.75001">
        <ele>869.5</ele>
        <time>2022-07-14T08:23:02Z</time>
      </trkpt>
      <trkpt lat="44.74355" lon="5.74996">
        <ele>869.5</ele>
        <time>2022-07-14T08:23:03Z</time>
      </trkpt>
      <trkpt lat="44.74357" lon="5.74989">
        <ele>869.4</ele>
        <time>2022-07-14T08:23:04Z</time>
      </trkpt>
      <trkpt lat="44.74359" lon="5.74981">
        <ele>869.4</ele>
        <time>2022-07-14T08:23:05Z</time>
      </trkpt>
      <trkpt lat="44.74361" lon="5.74972">
        <ele>869.3</ele>
        <time>2022-07-14T08:23:06Z</time>
      </trkpt>
      <trkpt lat="44.74361" lon="5.74964">
        <ele>869.2</ele>
        <time>2022-07-14T08:23:07Z</time>
      </trkpt>
      <trkpt lat="44.7436" lon="5.74955">
        <ele>869.1</ele>
        <time>2022-07-14T08:23:08Z</time>
      </trkpt>
      <trkpt lat="44.74358" lon="5.74945">
        <ele>869</ele>
        <time>2022-07-14T08:23:09Z</time>
      </trkpt>
      <trkpt lat="44.74356" lon="5.74937">
        <ele>868.8</ele>
        <time>2022-07-14T08:23:10Z</time>
      </trkpt>
      <trkpt lat="44.74355" lon="5.74928">
        <ele>868.7</ele>
        <time>2022-07-14T08:23:11Z</time>
      </trkpt>
      <trkpt lat="44.74354" lon="5.7492">
        <ele>868.5</ele>
        <time>2022-07-14T08:23:12Z</time>
      </trkpt>
      <trkpt lat="44.74353" lon="5.74911">
        <ele>868.2</ele>
        <time>2022-07-14T08:23:13Z</time>
      </trkpt>
      <trkpt lat="44.74352" lon="5.74901">
        <ele>868</ele>
        <time>2022-07-14T08:23:14Z</time>
      </trkpt>
      <trkpt lat="44.7435" lon="5.74891">
        <ele>867.6</ele>
        <time>2022-07-14T08:23:15Z</time>
      </trkpt>
      <trkpt lat="44.74349" lon="5.74883">
        <ele>867.4</ele>
        <time>2022-07-14T08:23:16Z</time>
      </trkpt>
      <trkpt lat="44.74349" lon="5.74873">
        <ele>867</ele>
        <time>2022-07-14T08:23:17Z</time>
      </trkpt>
      <trkpt lat="44.74349" lon="5.74862">
        <ele>866.4</ele>
        <time>2022-07-14T08:23:18Z</time>
      </trkpt>
      <trkpt lat="44.7435" lon="5.74851">
        <ele>865.8</ele>
        <time>2022-07-14T08:23:19Z</time>
      </trkpt>
      <trkpt lat="44.74351" lon="5.74839">
        <ele>865.1</ele>
        <time>2022-07-14T08:23:20Z</time>
      </trkpt>
      <trkpt lat="44.74353" lon="5.74826">
        <ele>864.2</ele>
        <time>2022-07-14T08:23:21Z</time>
      </trkpt>
      <trkpt lat="44.74358" lon="5.74814">
        <ele>863.2</ele>
        <time>2022-07-14T08:23:22Z</time>
      </trkpt>
      <trkpt lat="44.74365" lon="5.74804">
        <ele>862.2</ele>
        <time>2022-07-14T08:23:23Z</time>
      </trkpt>
      <trkpt lat="44.74373" lon="5.74793">
        <ele>861.2</ele>
        <time>2022-07-14T08:23:24Z</time>
      </trkpt>
      <trkpt lat="44.74383" lon="5.74784">
        <ele>860</ele>
        <time>2022-07-14T08:23:25Z</time>
      </trkpt>
      <trkpt lat="44.74393" lon="5.74777">
        <ele>858.9</ele>
        <time>2022-07-14T08:23:26Z</time>
      </trkpt>
      <trkpt lat="44.74404" lon="5.7477">
        <ele>857.8</ele>
        <time>2022-07-14T08:23:27Z</time>
      </trkpt>
      <trkpt lat="44.74415" lon="5.74763">
        <ele>856.7</ele>
        <time>2022-07-14T08:23:28Z</time>
      </trkpt>
      <trkpt lat="44.74423" lon="5.74754">
        <ele>855.7</ele>
        <time>2022-07-14T08:23:29Z</time>
      </trkpt>
      <trkpt lat="44.7443" lon="5.74741">
        <ele>854.5</ele>
        <time>2022-07-14T08:23:30Z</time>
      </trkpt>
      <trkpt lat="44.74438" lon="5.74729">
        <ele>853.5</ele>
        <time>2022-07-14T08:23:31Z</time>
      </trkpt>
      <trkpt lat="44.74444" lon="5.74716">
        <ele>852.7</ele>
        <time>2022-07-14T08:23:32Z</time>
      </trkpt>
      <trkpt lat="44.74449" lon="5.74701">
        <ele>852.2</ele>
        <time>2022-07-14T08:23:33Z</time>
      </trkpt>
      <trkpt lat="44.74454" lon="5.74687">
        <ele>851.9</ele>
        <time>2022-07-14T08:23:34Z</time>
      </trkpt>
      <trkpt lat="44.74457" lon="5.74673">
        <ele>851.7</ele>
        <time>2022-07-14T08:23:35Z</time>
      </trkpt>
      <trkpt lat="44.74459" lon="5.74658">
        <ele>851.5</ele>
        <time>2022-07-14T08:23:36Z</time>
      </trkpt>
      <trkpt lat="44.74461" lon="5.74643">
        <ele>851.5</ele>
        <time>2022-07-14T08:23:37Z</time>
      </trkpt>
      <trkpt lat="44.74463" lon="5.7463">
        <ele>851.6</ele>
        <time>2022-07-14T08:23:38Z</time>
      </trkpt>
      <trkpt lat="44.74465" lon="5.74618">
        <ele>851.7</ele>
        <time>2022-07-14T08:23:39Z</time>
      </trkpt>
      <trkpt lat="44.74466" lon="5.74608">
        <ele>851.8</ele>
        <time>2022-07-14T08:23:40Z</time>
      </trkpt>
      <trkpt lat="44.74467" lon="5.74596">
        <ele>851.8</ele>
        <time>2022-07-14T08:23:41Z</time>
      </trkpt>
      <trkpt lat="44.74469" lon="5.74587">
        <ele>851.8</ele>
        <time>2022-07-14T08:23:42Z</time>
      </trkpt>
      <trkpt lat="44.74469" lon="5.74578">
        <ele>851.8</ele>
        <time>2022-07-14T08:23:43Z</time>
      </trkpt>
      <trkpt lat="44.74468" lon="5.74567">
        <ele>851.7</ele>
        <time>2022-07-14T08:23:44Z</time>
      </trkpt>
      <trkpt lat="44.74468" lon="5.74557">
        <ele>851.6</ele>
        <time>2022-07-14T08:23:45Z</time>
      </trkpt>
      <trkpt lat="44.74468" lon="5.74546">
        <ele>851.5</ele>
        <time>2022-07-14T08:23:46Z</time>
      </trkpt>
      <trkpt lat="44.74469" lon="5.74535">
        <ele>851.4</ele>
        <time>2022-07-14T08:23:47Z</time>
      </trkpt>
      <trkpt lat="44.74471" lon="5.74523">
        <ele>851.2</ele>
        <time>2022-07-14T08:23:48Z</time>
      </trkpt>
      <trkpt lat="44.74475" lon="5.74514">
        <ele>851.1</ele>
        <time>2022-07-14T08:23:49Z</time>
      </trkpt>
      <trkpt lat="44.7448" lon="5.74506">
        <ele>851</ele>
        <time>2022-07-14T08:23:50Z</time>
      </trkpt>
      <trkpt lat="44.74489" lon="5.74505">
        <ele>850.8</ele>
        <time>2022-07-14T08:23:51Z</time>
      </trkpt>
      <trkpt lat="44.74498" lon="5.74504">
        <ele>850.5</ele>
        <time>2022-07-14T08:23:52Z</time>
      </trkpt>
      <trkpt lat="44.74507" lon="5.74503">
        <ele>850.2</ele>
        <time>2022-07-14T08:23:53Z</time>
      </trkpt>
      <trkpt lat="44.74514" lon="5.745">
        <ele>850</ele>
        <time>2022-07-14T08:23:54Z</time>
      </trkpt>
      <trkpt lat="44.74521" lon="5.74497">
        <ele>849.8</ele>
        <time>2022-07-14T08:23:55Z</time>
      </trkpt>
      <trkpt lat="44.74527" lon="5.74492">
        <ele>849.6</ele>
        <time>2022-07-14T08:23:56Z</time>
      </trkpt>
      <trkpt lat="44.74533" lon="5.74486">
        <ele>849.4</ele>
        <time>2022-07-14T08:23:57Z</time>
      </trkpt>
      <trkpt lat="44.74538" lon="5.7448">
        <ele>849.2</ele>
        <time>2022-07-14T08:23:58Z</time>
      </trkpt>
      <trkpt lat="44.74543" lon="5.74473">
        <ele>849</ele>
        <time>2022-07-14T08:23:59Z</time>
      </trkpt>
      <trkpt lat="44.74547" lon="5.74466">
        <ele>848.8</ele>
        <time>2022-07-14T08:24:00Z</time>
      </trkpt>
      <trkpt lat="44.74552" lon="5.7446">
        <ele>848.6</ele>
        <time>2022-07-14T08:24:01Z</time>
      </trkpt>
      <trkpt lat="44.74557" lon="5.74454">
        <ele>848.4</ele>
        <time>2022-07-14T08:24:02Z</time>
      </trkpt>
      <trkpt lat="44.74563" lon="5.74449">
        <ele>848.2</ele>
        <time>2022-07-14T08:24:03Z</time>
      </trkpt>
      <trkpt lat="44.7457" lon="5.74445">
        <ele>848</ele>
        <time>2022-07-14T08:24:04Z</time>
      </trkpt>
      <trkpt lat="44.74576" lon="5.74442">
        <ele>847.8</ele>
        <time>2022-07-14T08:24:05Z</time>
      </trkpt>
      <trkpt lat="44.74583" lon="5.74439">
        <ele>847.6</ele>
        <time>2022-07-14T08:24:06Z</time>
      </trkpt>
      <trkpt lat="44.74589" lon="5.74436">
        <ele>847.3</ele>
        <time>2022-07-14T08:24:07Z</time>
      </trkpt>
      <trkpt lat="44.74595" lon="5.74432">
        <ele>847.1</ele>
        <time>2022-07-14T08:24:08Z</time>
      </trkpt>
      <trkpt lat="44.746" lon="5.74428">
        <ele>846.9</ele>
        <time>2022-07-14T08:24:09Z</time>
      </trkpt>
      <trkpt lat="44.74605" lon="5.74423">
        <ele>846.7</ele>
        <time>2022-07-14T08:24:10Z</time>
      </trkpt>
      <trkpt lat="44.7461" lon="5.74419">
        <ele>846.5</ele>
        <time>2022-07-14T08:24:11Z</time>
      </trkpt>
      <trkpt lat="44.74616" lon="5.74415">
        <ele>846.3</ele>
        <time>2022-07-14T08:24:12Z</time>
      </trkpt>
      <trkpt lat="44.74622" lon="5.7441">
        <ele>846.1</ele>
        <time>2022-07-14T08:24:13Z</time>
      </trkpt>
      <trkpt lat="44.74628" lon="5.74406">
        <ele>845.8</ele>
        <time>2022-07-14T08:24:14Z</time>
      </trkpt>
      <trkpt lat="44.74635" lon="5.74402">
        <ele>845.6</ele>
        <time>2022-07-14T08:24:15Z</time>
      </trkpt>
      <trkpt lat="44.74642" lon="5.74398">
        <ele>845.3</ele>
        <time>2022-07-14T08:24:16Z</time>
      </trkpt>
      <trkpt lat="44.74649" lon="5.74395">
        <ele>845.1</ele>
        <time>2022-07-14T08:24:17Z</time>
      </trkpt>
      <trkpt lat="44.74655" lon="5.74392">
        <ele>844.9</ele>
        <time>2022-07-14T08:24:18Z</time>
      </trkpt>
      <trkpt lat="44.74662" lon="5.7439">
        <ele>844.6</ele>
        <time>2022-07-14T08:24:19Z</time>
      </trkpt>
      <trkpt lat="44.7467" lon="5.74389">
        <ele>844.3</ele>
        <time>2022-07-14T08:24:20Z</time>
      </trkpt>
      <trkpt lat="44.74678" lon="5.74388">
        <ele>844.1</ele>
        <time>2022-07-14T08:24:21Z</time>
      </trkpt>
      <trkpt lat="44.74685" lon="5.74387">
        <ele>843.8</ele>
        <time>2022-07-14T08:24:22Z</time>
      </trkpt>
      <trkpt lat="44.74693" lon="5.74385">
        <ele>843.6</ele>
        <time>2022-07-14T08:24:23Z</time>
      </trkpt>
      <trkpt lat="44.747" lon="5.74382">
        <ele>843.4</ele>
        <time>2022-07-14T08:24:24Z</time>
      </trkpt>
      <trkpt lat="44.74708" lon="5.74379">
        <ele>843.2</ele>
        <time>2022-07-14T08:24:25Z</time>
      </trkpt>
      <trkpt lat="44.74714" lon="5.74375">
        <ele>843.1</ele>
        <time>2022-07-14T08:24:26Z</time>
      </trkpt>
      <trkpt lat="44.74721" lon="5.74371">
        <ele>842.9</ele>
        <time>2022-07-14T08:24:27Z</time>
      </trkpt>
      <trkpt lat="44.74728" lon="5.74367">
        <ele>842.7</ele>
        <time>2022-07-14T08:24:28Z</time>
      </trkpt>
      <trkpt lat="44.74735" lon="5.74362">
        <ele>842.4</ele>
        <time>2022-07-14T08:24:29Z</time>
      </trkpt>
      <trkpt lat="44.74742" lon="5.74358">
        <ele>842.1</ele>
        <time>2022-07-14T08:24:30Z</time>
      </trkpt>
      <trkpt lat="44.7475" lon="5.74356">
        <ele>841.9</ele>
        <time>2022-07-14T08:24:31Z</time>
      </trkpt>
      <trkpt lat="44.74757" lon="5.74353">
        <ele>841.6</ele>
        <time>2022-07-14T08:24:32Z</time>
      </trkpt>
      <trkpt lat="44.74764" lon="5.74349">
        <ele>841.3</ele>
        <time>2022-07-14T08:24:33Z</time>
      </trkpt>
      <trkpt lat="44.7477" lon="5.74344">
        <ele>841.1</ele>
        <time>2022-07-14T08:24:34Z</time>
      </trkpt>
      <trkpt lat="44.74777" lon="5.7434">
        <ele>840.8</ele>
        <time>2022-07-14T08:24:35Z</time>
      </trkpt>
      <trkpt lat="44.74783" lon="5.74335">
        <ele>840.6</ele>
        <time>2022-07-14T08:24:36Z</time>
      </trkpt>
      <trkpt lat="44.7479" lon="5.74332">
        <ele>840.3</ele>
        <time>2022-07-14T08:24:37Z</time>
      </trkpt>
      <trkpt lat="44.74796" lon="5.74329">
        <ele>840.1</ele>
        <time>2022-07-14T08:24:38Z</time>
      </trkpt>
      <trkpt lat="44.74803" lon="5.74325">
        <ele>839.9</ele>
        <time>2022-07-14T08:24:39Z</time>
      </trkpt>
      <trkpt lat="44.7481" lon="5.74321">
        <ele>839.6</ele>
        <time>2022-07-14T08:24:40Z</time>
      </trkpt>
      <trkpt lat="44.74817" lon="5.74316">
        <ele>839.3</ele>
        <time>2022-07-14T08:24:41Z</time>
      </trkpt>
      <trkpt lat="44.74824" lon="5.74312">
        <ele>839</ele>
        <time>2022-07-14T08:24:42Z</time>
      </trkpt>
      <trkpt lat="44.7483" lon="5.74309">
        <ele>838.8</ele>
        <time>2022-07-14T08:24:43Z</time>
      </trkpt>
      <trkpt lat="44.74837" lon="5.74306">
        <ele>838.5</ele>
        <time>2022-07-14T08:24:44Z</time>
      </trkpt>
      <trkpt lat="44.74844" lon="5.743">
        <ele>838.2</ele>
        <time>2022-07-14T08:24:45Z</time>
      </trkpt>
      <trkpt lat="44.7485" lon="5.74295">
        <ele>837.9</ele>
        <time>2022-07-14T08:24:46Z</time>
      </trkpt>
      <trkpt lat="44.74858" lon="5.74291">
        <ele>837.6</ele>
        <time>2022-07-14T08:24:47Z</time>
      </trkpt>
      <trkpt lat="44.74864" lon="5.74286">
        <ele>837.3</ele>
        <time>2022-07-14T08:24:48Z</time>
      </trkpt>
      <trkpt lat="44.74871" lon="5.74279">
        <ele>837</ele>
        <time>2022-07-14T08:24:49Z</time>
      </trkpt>
      <trkpt lat="44.74877" lon="5.74273">
        <ele>836.8</ele>
        <time>2022-07-14T08:24:50Z</time>
      </trkpt>
      <trkpt lat="44.74882" lon="5.74266">
        <ele>836.5</ele>
        <time>2022-07-14T08:24:51Z</time>
      </trkpt>
      <trkpt lat="44.74887" lon="5.74259">
        <ele>836.3</ele>
        <time>2022-07-14T08:24:52Z</time>
      </trkpt>
      <trkpt lat="44.74892" lon="5.74253">
        <ele>836</ele>
        <time>2022-07-14T08:24:53Z</time>
      </trkpt>
      <trkpt lat="44.74897" lon="5.74246">
        <ele>835.8</ele>
        <time>2022-07-14T08:24:54Z</time>
      </trkpt>
      <trkpt lat="44.74903" lon="5.74239">
        <ele>835.5</ele>
        <time>2022-07-14T08:24:55Z</time>
      </trkpt>
      <trkpt lat="44.74908" lon="5.74232">
        <ele>835.2</ele>
        <time>2022-07-14T08:24:56Z</time>
      </trkpt>
      <trkpt lat="44.74914" lon="5.74225">
        <ele>835</ele>
        <time>2022-07-14T08:24:57Z</time>
      </trkpt>
      <trkpt lat="44.74919" lon="5.74218">
        <ele>834.7</ele>
        <time>2022-07-14T08:24:58Z</time>
      </trkpt>
      <trkpt lat="44.74925" lon="5.7421">
        <ele>834.4</ele>
        <time>2022-07-14T08:24:59Z</time>
      </trkpt>
      <trkpt lat="44.7493" lon="5.74203">
        <ele>834.1</ele>
        <time>2022-07-14T08:25:00Z</time>
      </trkpt>
      <trkpt lat="44.74935" lon="5.74196">
        <ele>833.8</ele>
        <time>2022-07-14T08:25:01Z</time>
      </trkpt>
      <trkpt lat="44.74941" lon="5.74188">
        <ele>833.6</ele>
        <time>2022-07-14T08:25:02Z</time>
      </trkpt>
      <trkpt lat="44.74946" lon="5.74181">
        <ele>833.3</ele>
        <time>2022-07-14T08:25:03Z</time>
      </trkpt>
      <trkpt lat="44.74951" lon="5.74174">
        <ele>833.1</ele>
        <time>2022-07-14T08:25:04Z</time>
      </trkpt>
      <trkpt lat="44.74956" lon="5.74166">
        <ele>832.8</ele>
        <time>2022-07-14T08:25:05Z</time>
      </trkpt>
      <trkpt lat="44.74961" lon="5.74159">
        <ele>832.6</ele>
        <time>2022-07-14T08:25:06Z</time>
      </trkpt>
      <trkpt lat="44.74967" lon="5.74152">
        <ele>832.3</ele>
        <time>2022-07-14T08:25:07Z</time>
      </trkpt>
      <trkpt lat="44.74972" lon="5.74145">
        <ele>832</ele>
        <time>2022-07-14T08:25:08Z</time>
      </trkpt>
      <trkpt lat="44.74977" lon="5.74137">
        <ele>831.8</ele>
        <time>2022-07-14T08:25:09Z</time>
      </trkpt>
      <trkpt lat="44.74982" lon="5.7413">
        <ele>831.5</ele>
        <time>2022-07-14T08:25:10Z</time>
      </trkpt>
      <trkpt lat="44.74988" lon="5.74123">
        <ele>831.2</ele>
        <time>2022-07-14T08:25:11Z</time>
      </trkpt>
      <trkpt lat="44.74993" lon="5.74115">
        <ele>830.9</ele>
        <time>2022-07-14T08:25:12Z</time>
      </trkpt>
      <trkpt lat="44.74999" lon="5.74108">
        <ele>830.6</ele>
        <time>2022-07-14T08:25:13Z</time>
      </trkpt>
      <trkpt lat="44.75004" lon="5.74101">
        <ele>830.3</ele>
        <time>2022-07-14T08:25:14Z</time>
      </trkpt>
      <trkpt lat="44.7501" lon="5.74094">
        <ele>830</ele>
        <time>2022-07-14T08:25:15Z</time>
      </trkpt>
      <trkpt lat="44.75017" lon="5.74086">
        <ele>829.6</ele>
        <time>2022-07-14T08:25:16Z</time>
      </trkpt>
      <trkpt lat="44.75022" lon="5.74079">
        <ele>829.3</ele>
        <time>2022-07-14T08:25:17Z</time>
      </trkpt>
      <trkpt lat="44.75028" lon="5.74071">
        <ele>829</ele>
        <time>2022-07-14T08:25:18Z</time>
      </trkpt>
      <trkpt lat="44.75032" lon="5.74063">
        <ele>828.7</ele>
        <time>2022-07-14T08:25:19Z</time>
      </trkpt>
      <trkpt lat="44.75038" lon="5.74055">
        <ele>828.4</ele>
        <time>2022-07-14T08:25:20Z</time>
      </trkpt>
      <trkpt lat="44.75043" lon="5.74048">
        <ele>828.1</ele>
        <time>2022-07-14T08:25:21Z</time>
      </trkpt>
      <trkpt lat="44.75048" lon="5.7404">
        <ele>827.9</ele>
        <time>2022-07-14T08:25:22Z</time>
      </trkpt>
      <trkpt lat="44.75053" lon="5.74033">
        <ele>827.6</ele>
        <time>2022-07-14T08:25:23Z</time>
      </trkpt>
      <trkpt lat="44.75058" lon="5.74026">
        <ele>827.4</ele>
        <time>2022-07-14T08:25:24Z</time>
      </trkpt>
      <trkpt lat="44.75063" lon="5.74017">
        <ele>827.1</ele>
        <time>2022-07-14T08:25:25Z</time>
      </trkpt>
      <trkpt lat="44.75069" lon="5.74009">
        <ele>826.8</ele>
        <time>2022-07-14T08:25:26Z</time>
      </trkpt>
      <trkpt lat="44.75074" lon="5.74001">
        <ele>826.5</ele>
        <time>2022-07-14T08:25:27Z</time>
      </trkpt>
      <trkpt lat="44.75079" lon="5.73993">
        <ele>826.3</ele>
        <time>2022-07-14T08:25:28Z</time>
      </trkpt>
      <trkpt lat="44.75084" lon="5.73986">
        <ele>826</ele>
        <time>2022-07-14T08:25:29Z</time>
      </trkpt>
      <trkpt lat="44.75089" lon="5.73978">
        <ele>825.8</ele>
        <time>2022-07-14T08:25:30Z</time>
      </trkpt>
      <trkpt lat="44.75094" lon="5.7397">
        <ele>825.5</ele>
        <time>2022-07-14T08:25:31Z</time>
      </trkpt>
      <trkpt lat="44.75098" lon="5.73962">
        <ele>825.3</ele>
        <time>2022-07-14T08:25:32Z</time>
      </trkpt>
      <trkpt lat="44.75102" lon="5.73954">
        <ele>825</ele>
        <time>2022-07-14T08:25:33Z</time>
      </trkpt>
      <trkpt lat="44.75107" lon="5.73948">
        <ele>824.8</ele>
        <time>2022-07-14T08:25:34Z</time>
      </trkpt>
      <trkpt lat="44.75112" lon="5.73941">
        <ele>824.5</ele>
        <time>2022-07-14T08:25:35Z</time>
      </trkpt>
      <trkpt lat="44.75118" lon="5.73934">
        <ele>824.3</ele>
        <time>2022-07-14T08:25:36Z</time>
      </trkpt>
      <trkpt lat="44.75123" lon="5.73927">
        <ele>824</ele>
        <time>2022-07-14T08:25:37Z</time>
      </trkpt>
      <trkpt lat="44.75129" lon="5.73921">
        <ele>823.8</ele>
        <time>2022-07-14T08:25:38Z</time>
      </trkpt>
      <trkpt lat="44.75135" lon="5.73915">
        <ele>823.6</ele>
        <time>2022-07-14T08:25:39Z</time>
      </trkpt>
      <trkpt lat="44.75141" lon="5.73908">
        <ele>823.3</ele>
        <time>2022-07-14T08:25:40Z</time>
      </trkpt>
      <trkpt lat="44.75147" lon="5.73901">
        <ele>823.1</ele>
        <time>2022-07-14T08:25:41Z</time>
      </trkpt>
      <trkpt lat="44.75153" lon="5.73896">
        <ele>822.9</ele>
        <time>2022-07-14T08:25:42Z</time>
      </trkpt>
      <trkpt lat="44.75159" lon="5.7389">
        <ele>822.7</ele>
        <time>2022-07-14T08:25:43Z</time>
      </trkpt>
      <trkpt lat="44.75164" lon="5.73884">
        <ele>822.6</ele>
        <time>2022-07-14T08:25:44Z</time>
      </trkpt>
      <trkpt lat="44.7517" lon="5.7388">
        <ele>822.5</ele>
        <time>2022-07-14T08:25:45Z</time>
      </trkpt>
      <trkpt lat="44.75175" lon="5.73875">
        <ele>822.3</ele>
        <time>2022-07-14T08:25:46Z</time>
      </trkpt>
      <trkpt lat="44.75181" lon="5.7387">
        <ele>822.2</ele>
        <time>2022-07-14T08:25:47Z</time>
      </trkpt>
      <trkpt lat="44.75187" lon="5.73864">
        <ele>822</ele>
        <time>2022-07-14T08:25:48Z</time>
      </trkpt>
      <trkpt lat="44.75193" lon="5.73859">
        <ele>821.9</ele>
        <time>2022-07-14T08:25:49Z</time>
      </trkpt>
      <trkpt lat="44.75199" lon="5.73853">
        <ele>821.7</ele>
        <time>2022-07-14T08:25:50Z</time>
      </trkpt>
      <trkpt lat="44.75205" lon="5.73847">
        <ele>821.5</ele>
        <time>2022-07-14T08:25:51Z</time>
      </trkpt>
      <trkpt lat="44.75211" lon="5.73842">
        <ele>821.3</ele>
        <time>2022-07-14T08:25:52Z</time>
      </trkpt>
      <trkpt lat="44.75218" lon="5.73838">
        <ele>821.1</ele>
        <time>2022-07-14T08:25:53Z</time>
      </trkpt>
      <trkpt lat="44.75225" lon="5.73832">
        <ele>820.9</ele>
        <time>2022-07-14T08:25:54Z</time>
      </trkpt>
      <trkpt lat="44.75231" lon="5.73827">
        <ele>820.7</ele>
        <time>2022-07-14T08:25:55Z</time>
      </trkpt>
      <trkpt lat="44.75238" lon="5.73822">
        <ele>820.5</ele>
        <time>2022-07-14T08:25:56Z</time>
      </trkpt>
      <trkpt lat="44.75245" lon="5.73816">
        <ele>820.3</ele>
        <time>2022-07-14T08:25:57Z</time>
      </trkpt>
      <trkpt lat="44.75252" lon="5.73811">
        <ele>820.2</ele>
        <time>2022-07-14T08:25:58Z</time>
      </trkpt>
      <trkpt lat="44.75258" lon="5.73807">
        <ele>820.1</ele>
        <time>2022-07-14T08:25:59Z</time>
      </trkpt>
      <trkpt lat="44.75264" lon="5.73802">
        <ele>820</ele>
        <time>2022-07-14T08:26:00Z</time>
      </trkpt>
      <trkpt lat="44.75271" lon="5.73797">
        <ele>820</ele>
        <time>2022-07-14T08:26:01Z</time>
      </trkpt>
      <trkpt lat="44.75278" lon="5.73792">
        <ele>819.9</ele>
        <time>2022-07-14T08:26:02Z</time>
      </trkpt>
      <trkpt lat="44.75284" lon="5.73788">
        <ele>819.8</ele>
        <time>2022-07-14T08:26:03Z</time>
      </trkpt>
      <trkpt lat="44.75291" lon="5.73783">
        <ele>819.7</ele>
        <time>2022-07-14T08:26:04Z</time>
      </trkpt>
      <trkpt lat="44.75297" lon="5.73779">
        <ele>819.5</ele>
        <time>2022-07-14T08:26:05Z</time>
      </trkpt>
      <trkpt lat="44.75304" lon="5.73775">
        <ele>819.4</ele>
        <time>2022-07-14T08:26:06Z</time>
      </trkpt>
      <trkpt lat="44.75311" lon="5.7377">
        <ele>819.2</ele>
        <time>2022-07-14T08:26:07Z</time>
      </trkpt>
      <trkpt lat="44.75318" lon="5.73764">
        <ele>818.9</ele>
        <time>2022-07-14T08:26:08Z</time>
      </trkpt>
      <trkpt lat="44.75325" lon="5.73759">
        <ele>818.6</ele>
        <time>2022-07-14T08:26:09Z</time>
      </trkpt>
      <trkpt lat="44.75332" lon="5.73753">
        <ele>818.3</ele>
        <time>2022-07-14T08:26:10Z</time>
      </trkpt>
      <trkpt lat="44.75339" lon="5.73748">
        <ele>817.9</ele>
        <time>2022-07-14T08:26:11Z</time>
      </trkpt>
      <trkpt lat="44.75346" lon="5.73743">
        <ele>817.6</ele>
        <time>2022-07-14T08:26:12Z</time>
      </trkpt>
      <trkpt lat="44.75353" lon="5.73737">
        <ele>817.2</ele>
        <time>2022-07-14T08:26:13Z</time>
      </trkpt>
      <trkpt lat="44.7536" lon="5.73732">
        <ele>816.8</ele>
        <time>2022-07-14T08:26:14Z</time>
      </trkpt>
      <trkpt lat="44.75367" lon="5.73727">
        <ele>816.4</ele>
        <time>2022-07-14T08:26:15Z</time>
      </trkpt>
      <trkpt lat="44.75374" lon="5.73722">
        <ele>816</ele>
        <time>2022-07-14T08:26:16Z</time>
      </trkpt>
      <trkpt lat="44.75381" lon="5.73717">
        <ele>815.6</ele>
        <time>2022-07-14T08:26:17Z</time>
      </trkpt>
      <trkpt lat="44.75389" lon="5.73712">
        <ele>815.1</ele>
        <time>2022-07-14T08:26:18Z</time>
      </trkpt>
      <trkpt lat="44.75397" lon="5.73706">
        <ele>814.6</ele>
        <time>2022-07-14T08:26:19Z</time>
      </trkpt>
      <trkpt lat="44.75405" lon="5.737">
        <ele>814</ele>
        <time>2022-07-14T08:26:20Z</time>
      </trkpt>
      <trkpt lat="44.75414" lon="5.73694">
        <ele>813.5</ele>
        <time>2022-07-14T08:26:21Z</time>
      </trkpt>
      <trkpt lat="44.75421" lon="5.7369">
        <ele>813.1</ele>
        <time>2022-07-14T08:26:22Z</time>
      </trkpt>
      <trkpt lat="44.7543" lon="5.73686">
        <ele>812.6</ele>
        <time>2022-07-14T08:26:23Z</time>
      </trkpt>
      <trkpt lat="44.75439" lon="5.7368">
        <ele>812.1</ele>
        <time>2022-07-14T08:26:24Z</time>
      </trkpt>
      <trkpt lat="44.75448" lon="5.73674">
        <ele>811.6</ele>
        <time>2022-07-14T08:26:25Z</time>
      </trkpt>
      <trkpt lat="44.75456" lon="5.73668">
        <ele>811.2</ele>
        <time>2022-07-14T08:26:26Z</time>
      </trkpt>
      <trkpt lat="44.75464" lon="5.73662">
        <ele>810.8</ele>
        <time>2022-07-14T08:26:27Z</time>
      </trkpt>
      <trkpt lat="44.75472" lon="5.73656">
        <ele>810.4</ele>
        <time>2022-07-14T08:26:28Z</time>
      </trkpt>
      <trkpt lat="44.75481" lon="5.73648">
        <ele>810</ele>
        <time>2022-07-14T08:26:29Z</time>
      </trkpt>
      <trkpt lat="44.75489" lon="5.73641">
        <ele>809.6</ele>
        <time>2022-07-14T08:26:30Z</time>
      </trkpt>
      <trkpt lat="44.75497" lon="5.73635">
        <ele>809.2</ele>
        <time>2022-07-14T08:26:31Z</time>
      </trkpt>
      <trkpt lat="44.75504" lon="5.73628">
        <ele>808.8</ele>
        <time>2022-07-14T08:26:32Z</time>
      </trkpt>
      <trkpt lat="44.75513" lon="5.73621">
        <ele>808.3</ele>
        <time>2022-07-14T08:26:33Z</time>
      </trkpt>
      <trkpt lat="44.75523" lon="5.73617">
        <ele>807.8</ele>
        <time>2022-07-14T08:26:34Z</time>
      </trkpt>
      <trkpt lat="44.75532" lon="5.73612">
        <ele>807.5</ele>
        <time>2022-07-14T08:26:35Z</time>
      </trkpt>
      <trkpt lat="44.75541" lon="5.73607">
        <ele>807.2</ele>
        <time>2022-07-14T08:26:36Z</time>
      </trkpt>
      <trkpt lat="44.7555" lon="5.73602">
        <ele>806.9</ele>
        <time>2022-07-14T08:26:37Z</time>
      </trkpt>
      <trkpt lat="44.75558" lon="5.73596">
        <ele>806.5</ele>
        <time>2022-07-14T08:26:38Z</time>
      </trkpt>
      <trkpt lat="44.75566" lon="5.73587">
        <ele>806.2</ele>
        <time>2022-07-14T08:26:39Z</time>
      </trkpt>
      <trkpt lat="44.75571" lon="5.73578">
        <ele>806.1</ele>
        <time>2022-07-14T08:26:40Z</time>
      </trkpt>
      <trkpt lat="44.75578" lon="5.73568">
        <ele>806.1</ele>
        <time>2022-07-14T08:26:41Z</time>
      </trkpt>
      <trkpt lat="44.75584" lon="5.73558">
        <ele>805.6</ele>
        <time>2022-07-14T08:26:42Z</time>
      </trkpt>
      <trkpt lat="44.7559" lon="5.73548">
        <ele>805.1</ele>
        <time>2022-07-14T08:26:43Z</time>
      </trkpt>
      <trkpt lat="44.75595" lon="5.73537">
        <ele>804.6</ele>
        <time>2022-07-14T08:26:44Z</time>
      </trkpt>
      <trkpt lat="44.75601" lon="5.73527">
        <ele>804</ele>
        <time>2022-07-14T08:26:45Z</time>
      </trkpt>
      <trkpt lat="44.75607" lon="5.73516">
        <ele>803.4</ele>
        <time>2022-07-14T08:26:46Z</time>
      </trkpt>
      <trkpt lat="44.75613" lon="5.73506">
        <ele>802.8</ele>
        <time>2022-07-14T08:26:47Z</time>
      </trkpt>
      <trkpt lat="44.75618" lon="5.73495">
        <ele>802.2</ele>
        <time>2022-07-14T08:26:48Z</time>
      </trkpt>
      <trkpt lat="44.75623" lon="5.73485">
        <ele>801.7</ele>
        <time>2022-07-14T08:26:49Z</time>
      </trkpt>
      <trkpt lat="44.75629" lon="5.73474">
        <ele>801.2</ele>
        <time>2022-07-14T08:26:50Z</time>
      </trkpt>
      <trkpt lat="44.75635" lon="5.73464">
        <ele>800.7</ele>
        <time>2022-07-14T08:26:51Z</time>
      </trkpt>
      <trkpt lat="44.7564" lon="5.73453">
        <ele>800.3</ele>
        <time>2022-07-14T08:26:52Z</time>
      </trkpt>
      <trkpt lat="44.75646" lon="5.73443">
        <ele>799.9</ele>
        <time>2022-07-14T08:26:53Z</time>
      </trkpt>
      <trkpt lat="44.75652" lon="5.73433">
        <ele>799.5</ele>
        <time>2022-07-14T08:26:54Z</time>
      </trkpt>
      <trkpt lat="44.75658" lon="5.73422">
        <ele>799.2</ele>
        <time>2022-07-14T08:26:55Z</time>
      </trkpt>
      <trkpt lat="44.75664" lon="5.73412">
        <ele>799</ele>
        <time>2022-07-14T08:26:56Z</time>
      </trkpt>
      <trkpt lat="44.7567" lon="5.73402">
        <ele>798.8</ele>
        <time>2022-07-14T08:26:57Z</time>
      </trkpt>
      <trkpt lat="44.75675" lon="5.73392">
        <ele>798.7</ele>
        <time>2022-07-14T08:26:58Z</time>
      </trkpt>
      <trkpt lat="44.75681" lon="5.73382">
        <ele>798.6</ele>
        <time>2022-07-14T08:26:59Z</time>
      </trkpt>
      <trkpt lat="44.75687" lon="5.73373">
        <ele>798.6</ele>
        <time>2022-07-14T08:27:00Z</time>
      </trkpt>
      <trkpt lat="44.75692" lon="5.73364">
        <ele>798.6</ele>
        <time>2022-07-14T08:27:01Z</time>
      </trkpt>
      <trkpt lat="44.75698" lon="5.73355">
        <ele>798.6</ele>
        <time>2022-07-14T08:27:02Z</time>
      </trkpt>
      <trkpt lat="44.75703" lon="5.73346">
        <ele>798.7</ele>
        <time>2022-07-14T08:27:03Z</time>
      </trkpt>
      <trkpt lat="44.75708" lon="5.73338">
        <ele>798.7</ele>
        <time>2022-07-14T08:27:04Z</time>
      </trkpt>
      <trkpt lat="44.75712" lon="5.7333">
        <ele>798.7</ele>
        <time>2022-07-14T08:27:05Z</time>
      </trkpt>
      <trkpt lat="44.75716" lon="5.73321">
        <ele>798.8</ele>
        <time>2022-07-14T08:27:06Z</time>
      </trkpt>
      <trkpt lat="44.7572" lon="5.73313">
        <ele>798.8</ele>
        <time>2022-07-14T08:27:07Z</time>
      </trkpt>
      <trkpt lat="44.75725" lon="5.73305">
        <ele>798.8</ele>
        <time>2022-07-14T08:27:08Z</time>
      </trkpt>
      <trkpt lat="44.7573" lon="5.73297">
        <ele>798.8</ele>
        <time>2022-07-14T08:27:09Z</time>
      </trkpt>
      <trkpt lat="44.75734" lon="5.7329">
        <ele>798.9</ele>
        <time>2022-07-14T08:27:10Z</time>
      </trkpt>
      <trkpt lat="44.75739" lon="5.73282">
        <ele>798.9</ele>
        <time>2022-07-14T08:27:11Z</time>
      </trkpt>
      <trkpt lat="44.75743" lon="5.73275">
        <ele>798.8</ele>
        <time>2022-07-14T08:27:12Z</time>
      </trkpt>
      <trkpt lat="44.75747" lon="5.73267">
        <ele>798.7</ele>
        <time>2022-07-14T08:27:13Z</time>
      </trkpt>
      <trkpt lat="44.75749" lon="5.73259">
        <ele>798.6</ele>
        <time>2022-07-14T08:27:14Z</time>
      </trkpt>
      <trkpt lat="44.75753" lon="5.73251">
        <ele>798.4</ele>
        <time>2022-07-14T08:27:15Z</time>
      </trkpt>
      <trkpt lat="44.75758" lon="5.73244">
        <ele>798.3</ele>
        <time>2022-07-14T08:27:16Z</time>
      </trkpt>
      <trkpt lat="44.75763" lon="5.73236">
        <ele>798.1</ele>
        <time>2022-07-14T08:27:17Z</time>
      </trkpt>
      <trkpt lat="44.75767" lon="5.73228">
        <ele>797.9</ele>
        <time>2022-07-14T08:27:18Z</time>
      </trkpt>
      <trkpt lat="44.75772" lon="5.73221">
        <ele>797.8</ele>
        <time>2022-07-14T08:27:19Z</time>
      </trkpt>
      <trkpt lat="44.75777" lon="5.73213">
        <ele>797.6</ele>
        <time>2022-07-14T08:27:20Z</time>
      </trkpt>
      <trkpt lat="44.75781" lon="5.73204">
        <ele>797.4</ele>
        <time>2022-07-14T08:27:21Z</time>
      </trkpt>
      <trkpt lat="44.75786" lon="5.73196">
        <ele>797.2</ele>
        <time>2022-07-14T08:27:22Z</time>
      </trkpt>
      <trkpt lat="44.75791" lon="5.73187">
        <ele>797.1</ele>
        <time>2022-07-14T08:27:23Z</time>
      </trkpt>
      <trkpt lat="44.75795" lon="5.73179">
        <ele>796.9</ele>
        <time>2022-07-14T08:27:24Z</time>
      </trkpt>
      <trkpt lat="44.758" lon="5.7317">
        <ele>796.8</ele>
        <time>2022-07-14T08:27:25Z</time>
      </trkpt>
      <trkpt lat="44.75805" lon="5.73161">
        <ele>796.6</ele>
        <time>2022-07-14T08:27:26Z</time>
      </trkpt>
      <trkpt lat="44.75809" lon="5.73153">
        <ele>796.4</ele>
        <time>2022-07-14T08:27:27Z</time>
      </trkpt>
      <trkpt lat="44.75813" lon="5.73144">
        <ele>796.2</ele>
        <time>2022-07-14T08:27:28Z</time>
      </trkpt>
      <trkpt lat="44.75818" lon="5.73135">
        <ele>796</ele>
        <time>2022-07-14T08:27:29Z</time>
      </trkpt>
      <trkpt lat="44.75822" lon="5.73126">
        <ele>795.7</ele>
        <time>2022-07-14T08:27:30Z</time>
      </trkpt>
      <trkpt lat="44.75827" lon="5.73118">
        <ele>795.5</ele>
        <time>2022-07-14T08:27:31Z</time>
      </trkpt>
      <trkpt lat="44.75832" lon="5.7311">
        <ele>795.2</ele>
        <time>2022-07-14T08:27:32Z</time>
      </trkpt>
      <trkpt lat="44.75835" lon="5.73102">
        <ele>795</ele>
        <time>2022-07-14T08:27:33Z</time>
      </trkpt>
      <trkpt lat="44.75839" lon="5.73093">
        <ele>794.7</ele>
        <time>2022-07-14T08:27:34Z</time>
      </trkpt>
      <trkpt lat="44.75843" lon="5.73085">
        <ele>794.4</ele>
        <time>2022-07-14T08:27:35Z</time>
      </trkpt>
      <trkpt lat="44.75847" lon="5.73077">
        <ele>794.2</ele>
        <time>2022-07-14T08:27:36Z</time>
      </trkpt>
      <trkpt lat="44.75851" lon="5.73068">
        <ele>793.9</ele>
        <time>2022-07-14T08:27:37Z</time>
      </trkpt>
      <trkpt lat="44.75856" lon="5.73059">
        <ele>793.6</ele>
        <time>2022-07-14T08:27:38Z</time>
      </trkpt>
      <trkpt lat="44.7586" lon="5.7305">
        <ele>793.3</ele>
        <time>2022-07-14T08:27:39Z</time>
      </trkpt>
      <trkpt lat="44.75865" lon="5.73042">
        <ele>793</ele>
        <time>2022-07-14T08:27:40Z</time>
      </trkpt>
      <trkpt lat="44.7587" lon="5.73033">
        <ele>792.8</ele>
        <time>2022-07-14T08:27:41Z</time>
      </trkpt>
      <trkpt lat="44.75875" lon="5.73025">
        <ele>792.6</ele>
        <time>2022-07-14T08:27:42Z</time>
      </trkpt>
      <trkpt lat="44.7588" lon="5.73016">
        <ele>792.4</ele>
        <time>2022-07-14T08:27:43Z</time>
      </trkpt>
      <trkpt lat="44.75885" lon="5.73007">
        <ele>792.2</ele>
        <time>2022-07-14T08:27:44Z</time>
      </trkpt>
      <trkpt lat="44.7589" lon="5.72998">
        <ele>792.1</ele>
        <time>2022-07-14T08:27:45Z</time>
      </trkpt>
      <trkpt lat="44.75894" lon="5.72989">
        <ele>791.9</ele>
        <time>2022-07-14T08:27:46Z</time>
      </trkpt>
      <trkpt lat="44.75899" lon="5.72981">
        <ele>791.8</ele>
        <time>2022-07-14T08:27:47Z</time>
      </trkpt>
      <trkpt lat="44.75904" lon="5.72972">
        <ele>791.7</ele>
        <time>2022-07-14T08:27:48Z</time>
      </trkpt>
      <trkpt lat="44.75909" lon="5.72964">
        <ele>791.7</ele>
        <time>2022-07-14T08:27:49Z</time>
      </trkpt>
      <trkpt lat="44.75914" lon="5.72956">
        <ele>791.6</ele>
        <time>2022-07-14T08:27:50Z</time>
      </trkpt>
      <trkpt lat="44.75919" lon="5.72947">
        <ele>791.6</ele>
        <time>2022-07-14T08:27:51Z</time>
      </trkpt>
      <trkpt lat="44.75924" lon="5.72938">
        <ele>791.6</ele>
        <time>2022-07-14T08:27:52Z</time>
      </trkpt>
      <trkpt lat="44.75928" lon="5.7293">
        <ele>791.5</ele>
        <time>2022-07-14T08:27:53Z</time>
      </trkpt>
      <trkpt lat="44.75933" lon="5.72922">
        <ele>791.5</ele>
        <time>2022-07-14T08:27:54Z</time>
      </trkpt>
      <trkpt lat="44.75939" lon="5.72915">
        <ele>791.5</ele>
        <time>2022-07-14T08:27:55Z</time>
      </trkpt>
      <trkpt lat="44.75944" lon="5.72907">
        <ele>791.5</ele>
        <time>2022-07-14T08:27:56Z</time>
      </trkpt>
      <trkpt lat="44.75949" lon="5.729">
        <ele>791.5</ele>
        <time>2022-07-14T08:27:57Z</time>
      </trkpt>
      <trkpt lat="44.75954" lon="5.72894">
        <ele>791.5</ele>
        <time>2022-07-14T08:27:58Z</time>
      </trkpt>
      <trkpt lat="44.7596" lon="5.72886">
        <ele>791.6</ele>
        <time>2022-07-14T08:27:59Z</time>
      </trkpt>
      <trkpt lat="44.75965" lon="5.7288">
        <ele>791.6</ele>
        <time>2022-07-14T08:28:00Z</time>
      </trkpt>
      <trkpt lat="44.7597" lon="5.72873">
        <ele>791.6</ele>
        <time>2022-07-14T08:28:01Z</time>
      </trkpt>
      <trkpt lat="44.75975" lon="5.72867">
        <ele>791.7</ele>
        <time>2022-07-14T08:28:02Z</time>
      </trkpt>
      <trkpt lat="44.75981" lon="5.7286">
        <ele>791.7</ele>
        <time>2022-07-14T08:28:03Z</time>
      </trkpt>
      <trkpt lat="44.75986" lon="5.72853">
        <ele>791.7</ele>
        <time>2022-07-14T08:28:04Z</time>
      </trkpt>
      <trkpt lat="44.75991" lon="5.72846">
        <ele>791.7</ele>
        <time>2022-07-14T08:28:05Z</time>
      </trkpt>
      <trkpt lat="44.75996" lon="5.7284">
        <ele>791.7</ele>
        <time>2022-07-14T08:28:06Z</time>
      </trkpt>
      <trkpt lat="44.76001" lon="5.72834">
        <ele>791.7</ele>
        <time>2022-07-14T08:28:07Z</time>
      </trkpt>
      <trkpt lat="44.76006" lon="5.72827">
        <ele>791.6</ele>
        <time>2022-07-14T08:28:08Z</time>
      </trkpt>
      <trkpt lat="44.76011" lon="5.7282">
        <ele>791.6</ele>
        <time>2022-07-14T08:28:09Z</time>
      </trkpt>
      <trkpt lat="44.76016" lon="5.72813">
        <ele>791.6</ele>
        <time>2022-07-14T08:28:10Z</time>
      </trkpt>
      <trkpt lat="44.7602" lon="5.72807">
        <ele>791.6</ele>
        <time>2022-07-14T08:28:11Z</time>
      </trkpt>
      <trkpt lat="44.76024" lon="5.72801">
        <ele>791.6</ele>
        <time>2022-07-14T08:28:12Z</time>
      </trkpt>
      <trkpt lat="44.76029" lon="5.72795">
        <ele>791.5</ele>
        <time>2022-07-14T08:28:13Z</time>
      </trkpt>
      <trkpt lat="44.76033" lon="5.72789">
        <ele>791.4</ele>
        <time>2022-07-14T08:28:14Z</time>
      </trkpt>
      <trkpt lat="44.76038" lon="5.72783">
        <ele>791.3</ele>
        <time>2022-07-14T08:28:15Z</time>
      </trkpt>
      <trkpt lat="44.76043" lon="5.72777">
        <ele>791.1</ele>
        <time>2022-07-14T08:28:16Z</time>
      </trkpt>
      <trkpt lat="44.76049" lon="5.72771">
        <ele>790.9</ele>
        <time>2022-07-14T08:28:17Z</time>
      </trkpt>
      <trkpt lat="44.76054" lon="5.72764">
        <ele>790.7</ele>
        <time>2022-07-14T08:28:18Z</time>
      </trkpt>
      <trkpt lat="44.7606" lon="5.72757">
        <ele>790.5</ele>
        <time>2022-07-14T08:28:19Z</time>
      </trkpt>
      <trkpt lat="44.76065" lon="5.7275">
        <ele>790.4</ele>
        <time>2022-07-14T08:28:20Z</time>
      </trkpt>
      <trkpt lat="44.7607" lon="5.72744">
        <ele>790.2</ele>
        <time>2022-07-14T08:28:21Z</time>
      </trkpt>
      <trkpt lat="44.76076" lon="5.72737">
        <ele>790</ele>
        <time>2022-07-14T08:28:22Z</time>
      </trkpt>
      <trkpt lat="44.7608" lon="5.7273">
        <ele>789.8</ele>
        <time>2022-07-14T08:28:23Z</time>
      </trkpt>
      <trkpt lat="44.76085" lon="5.72723">
        <ele>789.7</ele>
        <time>2022-07-14T08:28:24Z</time>
      </trkpt>
      <trkpt lat="44.7609" lon="5.72716">
        <ele>789.5</ele>
        <time>2022-07-14T08:28:25Z</time>
      </trkpt>
      <trkpt lat="44.76095" lon="5.72709">
        <ele>789.3</ele>
        <time>2022-07-14T08:28:26Z</time>
      </trkpt>
      <trkpt lat="44.76101" lon="5.72703">
        <ele>789.1</ele>
        <time>2022-07-14T08:28:27Z</time>
      </trkpt>
      <trkpt lat="44.76106" lon="5.72696">
        <ele>788.9</ele>
        <time>2022-07-14T08:28:28Z</time>
      </trkpt>
      <trkpt lat="44.76112" lon="5.72688">
        <ele>788.7</ele>
        <time>2022-07-14T08:28:29Z</time>
      </trkpt>
      <trkpt lat="44.76117" lon="5.72682">
        <ele>788.6</ele>
        <time>2022-07-14T08:28:30Z</time>
      </trkpt>
      <trkpt lat="44.76122" lon="5.72675">
        <ele>788.4</ele>
        <time>2022-07-14T08:28:31Z</time>
      </trkpt>
      <trkpt lat="44.76127" lon="5.72668">
        <ele>788.3</ele>
        <time>2022-07-14T08:28:32Z</time>
      </trkpt>
      <trkpt lat="44.76132" lon="5.72661">
        <ele>788.2</ele>
        <time>2022-07-14T08:28:33Z</time>
      </trkpt>
      <trkpt lat="44.76137" lon="5.72654">
        <ele>788</ele>
        <time>2022-07-14T08:28:34Z</time>
      </trkpt>
      <trkpt lat="44.76141" lon="5.72648">
        <ele>787.9</ele>
        <time>2022-07-14T08:28:35Z</time>
      </trkpt>
      <trkpt lat="44.76147" lon="5.72641">
        <ele>787.8</ele>
        <time>2022-07-14T08:28:36Z</time>
      </trkpt>
      <trkpt lat="44.76152" lon="5.72635">
        <ele>787.7</ele>
        <time>2022-07-14T08:28:37Z</time>
      </trkpt>
      <trkpt lat="44.76157" lon="5.72629">
        <ele>787.5</ele>
        <time>2022-07-14T08:28:38Z</time>
      </trkpt>
      <trkpt lat="44.76161" lon="5.72623">
        <ele>787.4</ele>
        <time>2022-07-14T08:28:39Z</time>
      </trkpt>
      <trkpt lat="44.76167" lon="5.72617">
        <ele>787.3</ele>
        <time>2022-07-14T08:28:40Z</time>
      </trkpt>
      <trkpt lat="44.76172" lon="5.72611">
        <ele>787.2</ele>
        <time>2022-07-14T08:28:41Z</time>
      </trkpt>
      <trkpt lat="44.76177" lon="5.72605">
        <ele>787</ele>
        <time>2022-07-14T08:28:42Z</time>
      </trkpt>
      <trkpt lat="44.76182" lon="5.72598">
        <ele>786.9</ele>
        <time>2022-07-14T08:28:43Z</time>
      </trkpt>
      <trkpt lat="44.76187" lon="5.72592">
        <ele>786.7</ele>
        <time>2022-07-14T08:28:44Z</time>
      </trkpt>
      <trkpt lat="44.76192" lon="5.72585">
        <ele>786.6</ele>
        <time>2022-07-14T08:28:45Z</time>
      </trkpt>
      <trkpt lat="44.76197" lon="5.72579">
        <ele>786.5</ele>
        <time>2022-07-14T08:28:46Z</time>
      </trkpt>
      <trkpt lat="44.76202" lon="5.72572">
        <ele>786.4</ele>
        <time>2022-07-14T08:28:47Z</time>
      </trkpt>
      <trkpt lat="44.76207" lon="5.72565">
        <ele>786.3</ele>
        <time>2022-07-14T08:28:48Z</time>
      </trkpt>
      <trkpt lat="44.76212" lon="5.72559">
        <ele>786.1</ele>
        <time>2022-07-14T08:28:49Z</time>
      </trkpt>
      <trkpt lat="44.76217" lon="5.72553">
        <ele>786</ele>
        <time>2022-07-14T08:28:50Z</time>
      </trkpt>
      <trkpt lat="44.76222" lon="5.72547">
        <ele>785.9</ele>
        <time>2022-07-14T08:28:51Z</time>
      </trkpt>
      <trkpt lat="44.76226" lon="5.72541">
        <ele>785.7</ele>
        <time>2022-07-14T08:28:52Z</time>
      </trkpt>
      <trkpt lat="44.7623" lon="5.72535">
        <ele>785.6</ele>
        <time>2022-07-14T08:28:53Z</time>
      </trkpt>
      <trkpt lat="44.76234" lon="5.72528">
        <ele>785.5</ele>
        <time>2022-07-14T08:28:54Z</time>
      </trkpt>
      <trkpt lat="44.76238" lon="5.72522">
        <ele>785.4</ele>
        <time>2022-07-14T08:28:55Z</time>
      </trkpt>
      <trkpt lat="44.76242" lon="5.72516">
        <ele>785.3</ele>
        <time>2022-07-14T08:28:56Z</time>
      </trkpt>
      <trkpt lat="44.76247" lon="5.7251">
        <ele>785.2</ele>
        <time>2022-07-14T08:28:57Z</time>
      </trkpt>
      <trkpt lat="44.76251" lon="5.72504">
        <ele>785.1</ele>
        <time>2022-07-14T08:28:58Z</time>
      </trkpt>
      <trkpt lat="44.76256" lon="5.72498">
        <ele>785</ele>
        <time>2022-07-14T08:28:59Z</time>
      </trkpt>
      <trkpt lat="44.76261" lon="5.72492">
        <ele>784.9</ele>
        <time>2022-07-14T08:29:00Z</time>
      </trkpt>
      <trkpt lat="44.76264" lon="5.72485">
        <ele>784.8</ele>
        <time>2022-07-14T08:29:01Z</time>
      </trkpt>
      <trkpt lat="44.76268" lon="5.72478">
        <ele>784.7</ele>
        <time>2022-07-14T08:29:02Z</time>
      </trkpt>
      <trkpt lat="44.76272" lon="5.72471">
        <ele>784.7</ele>
        <time>2022-07-14T08:29:03Z</time>
      </trkpt>
      <trkpt lat="44.76277" lon="5.72463">
        <ele>784.5</ele>
        <time>2022-07-14T08:29:04Z</time>
      </trkpt>
      <trkpt lat="44.7628" lon="5.72455">
        <ele>784.5</ele>
        <time>2022-07-14T08:29:05Z</time>
      </trkpt>
      <trkpt lat="44.76284" lon="5.72447">
        <ele>784.4</ele>
        <time>2022-07-14T08:29:06Z</time>
      </trkpt>
      <trkpt lat="44.76288" lon="5.72438">
        <ele>784.3</ele>
        <time>2022-07-14T08:29:07Z</time>
      </trkpt>
      <trkpt lat="44.76291" lon="5.7243">
        <ele>784.3</ele>
        <time>2022-07-14T08:29:08Z</time>
      </trkpt>
      <trkpt lat="44.76294" lon="5.72421">
        <ele>784.2</ele>
        <time>2022-07-14T08:29:09Z</time>
      </trkpt>
      <trkpt lat="44.76297" lon="5.72412">
        <ele>784.3</ele>
        <time>2022-07-14T08:29:10Z</time>
      </trkpt>
      <trkpt lat="44.76301" lon="5.72404">
        <ele>784.3</ele>
        <time>2022-07-14T08:29:11Z</time>
      </trkpt>
      <trkpt lat="44.76304" lon="5.72395">
        <ele>784.4</ele>
        <time>2022-07-14T08:29:12Z</time>
      </trkpt>
      <trkpt lat="44.76307" lon="5.72386">
        <ele>784.4</ele>
        <time>2022-07-14T08:29:13Z</time>
      </trkpt>
      <trkpt lat="44.76311" lon="5.72379">
        <ele>784.5</ele>
        <time>2022-07-14T08:29:14Z</time>
      </trkpt>
      <trkpt lat="44.76314" lon="5.72371">
        <ele>784.5</ele>
        <time>2022-07-14T08:29:15Z</time>
      </trkpt>
      <trkpt lat="44.76318" lon="5.72364">
        <ele>784.6</ele>
        <time>2022-07-14T08:29:16Z</time>
      </trkpt>
      <trkpt lat="44.76321" lon="5.72357">
        <ele>784.7</ele>
        <time>2022-07-14T08:29:17Z</time>
      </trkpt>
      <trkpt lat="44.76324" lon="5.7235">
        <ele>784.8</ele>
        <time>2022-07-14T08:29:18Z</time>
      </trkpt>
      <trkpt lat="44.76328" lon="5.72343">
        <ele>784.8</ele>
        <time>2022-07-14T08:29:19Z</time>
      </trkpt>
      <trkpt lat="44.76331" lon="5.72336">
        <ele>784.9</ele>
        <time>2022-07-14T08:29:20Z</time>
      </trkpt>
      <trkpt lat="44.76335" lon="5.72329">
        <ele>785</ele>
        <time>2022-07-14T08:29:21Z</time>
      </trkpt>
      <trkpt lat="44.76338" lon="5.72323">
        <ele>785.1</ele>
        <time>2022-07-14T08:29:22Z</time>
      </trkpt>
      <trkpt lat="44.76341" lon="5.72316">
        <ele>785.2</ele>
        <time>2022-07-14T08:29:23Z</time>
      </trkpt>
      <trkpt lat="44.76345" lon="5.72311">
        <ele>785.3</ele>
        <time>2022-07-14T08:29:24Z</time>
      </trkpt>
      <trkpt lat="44.76349" lon="5.72305">
        <ele>785.4</ele>
        <time>2022-07-14T08:29:25Z</time>
      </trkpt>
      <trkpt lat="44.76354" lon="5.723">
        <ele>785.4</ele>
        <time>2022-07-14T08:29:26Z</time>
      </trkpt>
      <trkpt lat="44.76358" lon="5.72295">
        <ele>785.5</ele>
        <time>2022-07-14T08:29:27Z</time>
      </trkpt>
      <trkpt lat="44.76362" lon="5.7229">
        <ele>785.5</ele>
        <time>2022-07-14T08:29:28Z</time>
      </trkpt>
      <trkpt lat="44.76366" lon="5.72285">
        <ele>785.6</ele>
        <time>2022-07-14T08:29:29Z</time>
      </trkpt>
      <trkpt lat="44.76371" lon="5.72281">
        <ele>785.6</ele>
        <time>2022-07-14T08:29:30Z</time>
      </trkpt>
      <trkpt lat="44.76375" lon="5.72277">
        <ele>785.7</ele>
        <time>2022-07-14T08:29:31Z</time>
      </trkpt>
      <trkpt lat="44.7638" lon="5.72272">
        <ele>785.8</ele>
        <time>2022-07-14T08:29:32Z</time>
      </trkpt>
      <trkpt lat="44.76384" lon="5.72268">
        <ele>785.8</ele>
        <time>2022-07-14T08:29:33Z</time>
      </trkpt>
      <trkpt lat="44.76388" lon="5.72263">
        <ele>785.9</ele>
        <time>2022-07-14T08:29:34Z</time>
      </trkpt>
      <trkpt lat="44.76393" lon="5.72258">
        <ele>785.9</ele>
        <time>2022-07-14T08:29:35Z</time>
      </trkpt>
      <trkpt lat="44.76397" lon="5.72254">
        <ele>786</ele>
        <time>2022-07-14T08:29:36Z</time>
      </trkpt>
      <trkpt lat="44.76401" lon="5.7225">
        <ele>786</ele>
        <time>2022-07-14T08:29:37Z</time>
      </trkpt>
      <trkpt lat="44.76405" lon="5.72246">
        <ele>786.1</ele>
        <time>2022-07-14T08:29:38Z</time>
      </trkpt>
      <trkpt lat="44.76409" lon="5.7224">
        <ele>786.1</ele>
        <time>2022-07-14T08:29:39Z</time>
      </trkpt>
      <trkpt lat="44.76412" lon="5.72235">
        <ele>786.2</ele>
        <time>2022-07-14T08:29:40Z</time>
      </trkpt>
      <trkpt lat="44.76416" lon="5.7223">
        <ele>786.2</ele>
        <time>2022-07-14T08:29:41Z</time>
      </trkpt>
      <trkpt lat="44.76419" lon="5.72224">
        <ele>786.3</ele>
        <time>2022-07-14T08:29:42Z</time>
      </trkpt>
      <trkpt lat="44.76423" lon="5.72219">
        <ele>786.4</ele>
        <time>2022-07-14T08:29:43Z</time>
      </trkpt>
      <trkpt lat="44.76427" lon="5.72213">
        <ele>786.4</ele>
        <time>2022-07-14T08:29:44Z</time>
      </trkpt>
      <trkpt lat="44.76431" lon="5.72207">
        <ele>786.5</ele>
        <time>2022-07-14T08:29:45Z</time>
      </trkpt>
      <trkpt lat="44.76434" lon="5.72201">
        <ele>786.6</ele>
        <time>2022-07-14T08:29:46Z</time>
      </trkpt>
      <trkpt lat="44.76437" lon="5.72194">
        <ele>786.7</ele>
        <time>2022-07-14T08:29:47Z</time>
      </trkpt>
      <trkpt lat="44.76439" lon="5.72188">
        <ele>786.8</ele>
        <time>2022-07-14T08:29:48Z</time>
      </trkpt>
      <trkpt lat="44.76442" lon="5.72181">
        <ele>786.9</ele>
        <time>2022-07-14T08:29:49Z</time>
      </trkpt>
      <trkpt lat="44.76445" lon="5.72174">
        <ele>787</ele>
        <time>2022-07-14T08:29:50Z</time>
      </trkpt>
      <trkpt lat="44.76447" lon="5.72168">
        <ele>787.1</ele>
        <time>2022-07-14T08:29:51Z</time>
      </trkpt>
      <trkpt lat="44.7645" lon="5.72161">
        <ele>787.1</ele>
        <time>2022-07-14T08:29:52Z</time>
      </trkpt>
      <trkpt lat="44.76452" lon="5.72154">
        <ele>787.2</ele>
        <time>2022-07-14T08:29:53Z</time>
      </trkpt>
      <trkpt lat="44.76454" lon="5.72147">
        <ele>787.3</ele>
        <time>2022-07-14T08:29:54Z</time>
      </trkpt>
      <trkpt lat="44.76457" lon="5.7214">
        <ele>787.4</ele>
        <time>2022-07-14T08:29:55Z</time>
      </trkpt>
      <trkpt lat="44.76459" lon="5.72134">
        <ele>787.5</ele>
        <time>2022-07-14T08:29:56Z</time>
      </trkpt>
      <trkpt lat="44.76462" lon="5.72127">
        <ele>787.5</ele>
        <time>2022-07-14T08:29:57Z</time>
      </trkpt>
      <trkpt lat="44.76464" lon="5.72121">
        <ele>787.6</ele>
        <time>2022-07-14T08:29:58Z</time>
      </trkpt>
      <trkpt lat="44.76467" lon="5.72114">
        <ele>787.6</ele>
        <time>2022-07-14T08:29:59Z</time>
      </trkpt>
      <trkpt lat="44.76469" lon="5.72107">
        <ele>787.7</ele>
        <time>2022-07-14T08:30:00Z</time>
      </trkpt>
      <trkpt lat="44.76472" lon="5.72101">
        <ele>787.7</ele>
        <time>2022-07-14T08:30:01Z</time>
      </trkpt>
      <trkpt lat="44.76476" lon="5.72095">
        <ele>787.8</ele>
        <time>2022-07-14T08:30:02Z</time>
      </trkpt>
      <trkpt lat="44.76479" lon="5.72089">
        <ele>787.8</ele>
        <time>2022-07-14T08:30:03Z</time>
      </trkpt>
      <trkpt lat="44.76482" lon="5.72082">
        <ele>787.9</ele>
        <time>2022-07-14T08:30:04Z</time>
      </trkpt>
      <trkpt lat="44.76485" lon="5.72076">
        <ele>787.9</ele>
        <time>2022-07-14T08:30:05Z</time>
      </trkpt>
      <trkpt lat="44.76488" lon="5.7207">
        <ele>788</ele>
        <time>2022-07-14T08:30:06Z</time>
      </trkpt>
      <trkpt lat="44.76491" lon="5.72064">
        <ele>788</ele>
        <time>2022-07-14T08:30:07Z</time>
      </trkpt>
      <trkpt lat="44.76494" lon="5.72058">
        <ele>788.1</ele>
        <time>2022-07-14T08:30:08Z</time>
      </trkpt>
      <trkpt lat="44.76496" lon="5.72051">
        <ele>788.1</ele>
        <time>2022-07-14T08:30:09Z</time>
      </trkpt>
      <trkpt lat="44.76499" lon="5.72045">
        <ele>788.2</ele>
        <time>2022-07-14T08:30:10Z</time>
      </trkpt>
      <trkpt lat="44.76501" lon="5.72039">
        <ele>788.3</ele>
        <time>2022-07-14T08:30:11Z</time>
      </trkpt>
      <trkpt lat="44.76504" lon="5.72033">
        <ele>788.3</ele>
        <time>2022-07-14T08:30:12Z</time>
      </trkpt>
      <trkpt lat="44.76506" lon="5.72027">
        <ele>788.4</ele>
        <time>2022-07-14T08:30:13Z</time>
      </trkpt>
      <trkpt lat="44.76509" lon="5.72021">
        <ele>788.4</ele>
        <time>2022-07-14T08:30:14Z</time>
      </trkpt>
      <trkpt lat="44.76511" lon="5.72014">
        <ele>788.5</ele>
        <time>2022-07-14T08:30:15Z</time>
      </trkpt>
      <trkpt lat="44.76513" lon="5.72008">
        <ele>788.5</ele>
        <time>2022-07-14T08:30:16Z</time>
      </trkpt>
      <trkpt lat="44.76515" lon="5.72001">
        <ele>788.6</ele>
        <time>2022-07-14T08:30:17Z</time>
      </trkpt>
      <trkpt lat="44.76517" lon="5.71994">
        <ele>788.7</ele>
        <time>2022-07-14T08:30:18Z</time>
      </trkpt>
      <trkpt lat="44.7652" lon="5.71988">
        <ele>788.7</ele>
        <time>2022-07-14T08:30:19Z</time>
      </trkpt>
      <trkpt lat="44.76522" lon="5.71981">
        <ele>788.8</ele>
        <time>2022-07-14T08:30:20Z</time>
      </trkpt>
      <trkpt lat="44.76524" lon="5.71975">
        <ele>788.9</ele>
        <time>2022-07-14T08:30:21Z</time>
      </trkpt>
      <trkpt lat="44.76527" lon="5.71969">
        <ele>788.9</ele>
        <time>2022-07-14T08:30:22Z</time>
      </trkpt>
      <trkpt lat="44.76529" lon="5.71962">
        <ele>789</ele>
        <time>2022-07-14T08:30:23Z</time>
      </trkpt>
      <trkpt lat="44.76531" lon="5.71956">
        <ele>789.1</ele>
        <time>2022-07-14T08:30:24Z</time>
      </trkpt>
      <trkpt lat="44.76533" lon="5.71949">
        <ele>789.2</ele>
        <time>2022-07-14T08:30:25Z</time>
      </trkpt>
      <trkpt lat="44.76535" lon="5.71943">
        <ele>789.2</ele>
        <time>2022-07-14T08:30:26Z</time>
      </trkpt>
      <trkpt lat="44.76537" lon="5.71936">
        <ele>789.3</ele>
        <time>2022-07-14T08:30:27Z</time>
      </trkpt>
      <trkpt lat="44.76539" lon="5.71929">
        <ele>789.4</ele>
        <time>2022-07-14T08:30:28Z</time>
      </trkpt>
      <trkpt lat="44.76541" lon="5.71922">
        <ele>789.5</ele>
        <time>2022-07-14T08:30:29Z</time>
      </trkpt>
      <trkpt lat="44.76544" lon="5.71916">
        <ele>789.5</ele>
        <time>2022-07-14T08:30:30Z</time>
      </trkpt>
      <trkpt lat="44.76547" lon="5.7191">
        <ele>789.6</ele>
        <time>2022-07-14T08:30:31Z</time>
      </trkpt>
      <trkpt lat="44.76549" lon="5.71904">
        <ele>789.7</ele>
        <time>2022-07-14T08:30:32Z</time>
      </trkpt>
      <trkpt lat="44.76552" lon="5.71897">
        <ele>789.7</ele>
        <time>2022-07-14T08:30:33Z</time>
      </trkpt>
      <trkpt lat="44.76553" lon="5.71891">
        <ele>789.8</ele>
        <time>2022-07-14T08:30:34Z</time>
      </trkpt>
      <trkpt lat="44.76555" lon="5.71884">
        <ele>789.8</ele>
        <time>2022-07-14T08:30:35Z</time>
      </trkpt>
      <trkpt lat="44.76558" lon="5.71878">
        <ele>789.9</ele>
        <time>2022-07-14T08:30:36Z</time>
      </trkpt>
      <trkpt lat="44.7656" lon="5.71872">
        <ele>790</ele>
        <time>2022-07-14T08:30:37Z</time>
      </trkpt>
      <trkpt lat="44.76562" lon="5.71865">
        <ele>790</ele>
        <time>2022-07-14T08:30:38Z</time>
      </trkpt>
      <trkpt lat="44.76564" lon="5.71859">
        <ele>790.1</ele>
        <time>2022-07-14T08:30:39Z</time>
      </trkpt>
      <trkpt lat="44.76566" lon="5.71853">
        <ele>790.2</ele>
        <time>2022-07-14T08:30:40Z</time>
      </trkpt>
      <trkpt lat="44.76569" lon="5.71847">
        <ele>790.2</ele>
        <time>2022-07-14T08:30:41Z</time>
      </trkpt>
      <trkpt lat="44.76572" lon="5.7184">
        <ele>790.3</ele>
        <time>2022-07-14T08:30:42Z</time>
      </trkpt>
      <trkpt lat="44.76574" lon="5.71833">
        <ele>790.4</ele>
        <time>2022-07-14T08:30:43Z</time>
      </trkpt>
      <trkpt lat="44.76576" lon="5.71827">
        <ele>790.5</ele>
        <time>2022-07-14T08:30:44Z</time>
      </trkpt>
      <trkpt lat="44.76578" lon="5.7182">
        <ele>790.6</ele>
        <time>2022-07-14T08:30:45Z</time>
      </trkpt>
      <trkpt lat="44.7658" lon="5.71814">
        <ele>790.6</ele>
        <time>2022-07-14T08:30:46Z</time>
      </trkpt>
      <trkpt lat="44.76583" lon="5.71807">
        <ele>790.7</ele>
        <time>2022-07-14T08:30:47Z</time>
      </trkpt>
      <trkpt lat="44.76586" lon="5.718">
        <ele>790.8</ele>
        <time>2022-07-14T08:30:48Z</time>
      </trkpt>
      <trkpt lat="44.76588" lon="5.71793">
        <ele>790.9</ele>
        <time>2022-07-14T08:30:49Z</time>
      </trkpt>
      <trkpt lat="44.7659" lon="5.71786">
        <ele>790.9</ele>
        <time>2022-07-14T08:30:50Z</time>
      </trkpt>
      <trkpt lat="44.76592" lon="5.71779">
        <ele>791</ele>
        <time>2022-07-14T08:30:51Z</time>
      </trkpt>
      <trkpt lat="44.76594" lon="5.71773">
        <ele>791.1</ele>
        <time>2022-07-14T08:30:52Z</time>
      </trkpt>
      <trkpt lat="44.76596" lon="5.71767">
        <ele>791.2</ele>
        <time>2022-07-14T08:30:53Z</time>
      </trkpt>
      <trkpt lat="44.76599" lon="5.71761">
        <ele>791.2</ele>
        <time>2022-07-14T08:30:54Z</time>
      </trkpt>
      <trkpt lat="44.76602" lon="5.71755">
        <ele>791.3</ele>
        <time>2022-07-14T08:30:55Z</time>
      </trkpt>
      <trkpt lat="44.76604" lon="5.71749">
        <ele>791.4</ele>
        <time>2022-07-14T08:30:56Z</time>
      </trkpt>
      <trkpt lat="44.76607" lon="5.71743">
        <ele>791.4</ele>
        <time>2022-07-14T08:30:57Z</time>
      </trkpt>
      <trkpt lat="44.7661" lon="5.71737">
        <ele>791.5</ele>
        <time>2022-07-14T08:30:58Z</time>
      </trkpt>
      <trkpt lat="44.76613" lon="5.71731">
        <ele>791.6</ele>
        <time>2022-07-14T08:30:59Z</time>
      </trkpt>
      <trkpt lat="44.76617" lon="5.71726">
        <ele>791.6</ele>
        <time>2022-07-14T08:31:00Z</time>
      </trkpt>
      <trkpt lat="44.7662" lon="5.7172">
        <ele>791.7</ele>
        <time>2022-07-14T08:31:01Z</time>
      </trkpt>
      <trkpt lat="44.76624" lon="5.71715">
        <ele>791.8</ele>
        <time>2022-07-14T08:31:02Z</time>
      </trkpt>
      <trkpt lat="44.76628" lon="5.7171">
        <ele>791.8</ele>
        <time>2022-07-14T08:31:03Z</time>
      </trkpt>
      <trkpt lat="44.76631" lon="5.71704">
        <ele>791.8</ele>
        <time>2022-07-14T08:31:04Z</time>
      </trkpt>
      <trkpt lat="44.76635" lon="5.71699">
        <ele>791.9</ele>
        <time>2022-07-14T08:31:05Z</time>
      </trkpt>
      <trkpt lat="44.76638" lon="5.71693">
        <ele>791.9</ele>
        <time>2022-07-14T08:31:06Z</time>
      </trkpt>
      <trkpt lat="44.76641" lon="5.71686">
        <ele>792</ele>
        <time>2022-07-14T08:31:07Z</time>
      </trkpt>
      <trkpt lat="44.76644" lon="5.7168">
        <ele>792</ele>
        <time>2022-07-14T08:31:08Z</time>
      </trkpt>
      <trkpt lat="44.76647" lon="5.71673">
        <ele>792.1</ele>
        <time>2022-07-14T08:31:09Z</time>
      </trkpt>
      <trkpt lat="44.76649" lon="5.71667">
        <ele>792.2</ele>
        <time>2022-07-14T08:31:10Z</time>
      </trkpt>
      <trkpt lat="44.76652" lon="5.7166">
        <ele>792.2</ele>
        <time>2022-07-14T08:31:11Z</time>
      </trkpt>
      <trkpt lat="44.76654" lon="5.71653">
        <ele>792.3</ele>
        <time>2022-07-14T08:31:12Z</time>
      </trkpt>
      <trkpt lat="44.76657" lon="5.71647">
        <ele>792.3</ele>
        <time>2022-07-14T08:31:13Z</time>
      </trkpt>
      <trkpt lat="44.76659" lon="5.71641">
        <ele>792.4</ele>
        <time>2022-07-14T08:31:14Z</time>
      </trkpt>
      <trkpt lat="44.76662" lon="5.71635">
        <ele>792.5</ele>
        <time>2022-07-14T08:31:15Z</time>
      </trkpt>
      <trkpt lat="44.76664" lon="5.71628">
        <ele>792.5</ele>
        <time>2022-07-14T08:31:16Z</time>
      </trkpt>
      <trkpt lat="44.76666" lon="5.71622">
        <ele>792.6</ele>
        <time>2022-07-14T08:31:17Z</time>
      </trkpt>
      <trkpt lat="44.76669" lon="5.71615">
        <ele>792.6</ele>
        <time>2022-07-14T08:31:18Z</time>
      </trkpt>
      <trkpt lat="44.76671" lon="5.71609">
        <ele>792.7</ele>
        <time>2022-07-14T08:31:19Z</time>
      </trkpt>
      <trkpt lat="44.76673" lon="5.71603">
        <ele>792.7</ele>
        <time>2022-07-14T08:31:20Z</time>
      </trkpt>
      <trkpt lat="44.76676" lon="5.71596">
        <ele>792.8</ele>
        <time>2022-07-14T08:31:21Z</time>
      </trkpt>
      <trkpt lat="44.76677" lon="5.7159">
        <ele>792.8</ele>
        <time>2022-07-14T08:31:22Z</time>
      </trkpt>
      <trkpt lat="44.76679" lon="5.71584">
        <ele>792.8</ele>
        <time>2022-07-14T08:31:23Z</time>
      </trkpt>
      <trkpt lat="44.76681" lon="5.71577">
        <ele>792.9</ele>
        <time>2022-07-14T08:31:24Z</time>
      </trkpt>
      <trkpt lat="44.76682" lon="5.71571">
        <ele>792.9</ele>
        <time>2022-07-14T08:31:25Z</time>
      </trkpt>
      <trkpt lat="44.76683" lon="5.71564">
        <ele>793</ele>
        <time>2022-07-14T08:31:26Z</time>
      </trkpt>
      <trkpt lat="44.76684" lon="5.71557">
        <ele>793</ele>
        <time>2022-07-14T08:31:27Z</time>
      </trkpt>
      <trkpt lat="44.76686" lon="5.71551">
        <ele>793.1</ele>
        <time>2022-07-14T08:31:28Z</time>
      </trkpt>
      <trkpt lat="44.76687" lon="5.71544">
        <ele>793.1</ele>
        <time>2022-07-14T08:31:29Z</time>
      </trkpt>
      <trkpt lat="44.76689" lon="5.71536">
        <ele>793.1</ele>
        <time>2022-07-14T08:31:30Z</time>
      </trkpt>
      <trkpt lat="44.76691" lon="5.7153">
        <ele>793.2</ele>
        <time>2022-07-14T08:31:31Z</time>
      </trkpt>
      <trkpt lat="44.76692" lon="5.71524">
        <ele>793.2</ele>
        <time>2022-07-14T08:31:32Z</time>
      </trkpt>
      <trkpt lat="44.76694" lon="5.71517">
        <ele>793.3</ele>
        <time>2022-07-14T08:31:33Z</time>
      </trkpt>
      <trkpt lat="44.76695" lon="5.71511">
        <ele>793.3</ele>
        <time>2022-07-14T08:31:34Z</time>
      </trkpt>
      <trkpt lat="44.76697" lon="5.71504">
        <ele>793.3</ele>
        <time>2022-07-14T08:31:35Z</time>
      </trkpt>
      <trkpt lat="44.76698" lon="5.71498">
        <ele>793.3</ele>
        <time>2022-07-14T08:31:36Z</time>
      </trkpt>
      <trkpt lat="44.767" lon="5.71492">
        <ele>793.4</ele>
        <time>2022-07-14T08:31:37Z</time>
      </trkpt>
      <trkpt lat="44.76702" lon="5.71485">
        <ele>793.4</ele>
        <time>2022-07-14T08:31:38Z</time>
      </trkpt>
      <trkpt lat="44.76704" lon="5.71478">
        <ele>793.4</ele>
        <time>2022-07-14T08:31:39Z</time>
      </trkpt>
      <trkpt lat="44.76706" lon="5.71471">
        <ele>793.4</ele>
        <time>2022-07-14T08:31:40Z</time>
      </trkpt>
      <trkpt lat="44.76708" lon="5.71463">
        <ele>793.4</ele>
        <time>2022-07-14T08:31:41Z</time>
      </trkpt>
      <trkpt lat="44.76709" lon="5.71456">
        <ele>793.5</ele>
        <time>2022-07-14T08:31:42Z</time>
      </trkpt>
      <trkpt lat="44.76711" lon="5.71449">
        <ele>793.5</ele>
        <time>2022-07-14T08:31:43Z</time>
      </trkpt>
      <trkpt lat="44.76714" lon="5.71441">
        <ele>793.5</ele>
        <time>2022-07-14T08:31:44Z</time>
      </trkpt>
      <trkpt lat="44.76716" lon="5.71433">
        <ele>793.5</ele>
        <time>2022-07-14T08:31:45Z</time>
      </trkpt>
      <trkpt lat="44.76718" lon="5.71426">
        <ele>793.5</ele>
        <time>2022-07-14T08:31:46Z</time>
      </trkpt>
      <trkpt lat="44.7672" lon="5.71418">
        <ele>793.6</ele>
        <time>2022-07-14T08:31:47Z</time>
      </trkpt>
      <trkpt lat="44.76722" lon="5.71411">
        <ele>793.6</ele>
        <time>2022-07-14T08:31:48Z</time>
      </trkpt>
      <trkpt lat="44.76724" lon="5.71404">
        <ele>793.7</ele>
        <time>2022-07-14T08:31:49Z</time>
      </trkpt>
      <trkpt lat="44.76726" lon="5.71397">
        <ele>793.7</ele>
        <time>2022-07-14T08:31:50Z</time>
      </trkpt>
      <trkpt lat="44.76728" lon="5.71391">
        <ele>793.7</ele>
        <time>2022-07-14T08:31:51Z</time>
      </trkpt>
      <trkpt lat="44.7673" lon="5.71384">
        <ele>793.8</ele>
        <time>2022-07-14T08:31:52Z</time>
      </trkpt>
      <trkpt lat="44.76733" lon="5.71378">
        <ele>793.8</ele>
        <time>2022-07-14T08:31:53Z</time>
      </trkpt>
      <trkpt lat="44.76736" lon="5.71372">
        <ele>793.8</ele>
        <time>2022-07-14T08:31:54Z</time>
      </trkpt>
      <trkpt lat="44.76739" lon="5.71365">
        <ele>793.8</ele>
        <time>2022-07-14T08:31:55Z</time>
      </trkpt>
      <trkpt lat="44.76742" lon="5.71358">
        <ele>793.8</ele>
        <time>2022-07-14T08:31:56Z</time>
      </trkpt>
      <trkpt lat="44.76745" lon="5.71352">
        <ele>793.9</ele>
        <time>2022-07-14T08:31:57Z</time>
      </trkpt>
      <trkpt lat="44.76749" lon="5.71346">
        <ele>793.9</ele>
        <time>2022-07-14T08:31:58Z</time>
      </trkpt>
      <trkpt lat="44.76752" lon="5.71341">
        <ele>793.9</ele>
        <time>2022-07-14T08:31:59Z</time>
      </trkpt>
      <trkpt lat="44.76755" lon="5.71335">
        <ele>793.9</ele>
        <time>2022-07-14T08:32:00Z</time>
      </trkpt>
      <trkpt lat="44.76758" lon="5.71329">
        <ele>794</ele>
        <time>2022-07-14T08:32:01Z</time>
      </trkpt>
      <trkpt lat="44.76761" lon="5.71323">
        <ele>794</ele>
        <time>2022-07-14T08:32:02Z</time>
      </trkpt>
      <trkpt lat="44.76763" lon="5.71319">
        <ele>793.9</ele>
        <time>2022-07-14T08:32:03Z</time>
      </trkpt>
      <trkpt lat="44.76765" lon="5.71313">
        <ele>793.9</ele>
        <time>2022-07-14T08:32:04Z</time>
      </trkpt>
      <trkpt lat="44.76768" lon="5.71307">
        <ele>793.9</ele>
        <time>2022-07-14T08:32:05Z</time>
      </trkpt>
      <trkpt lat="44.76771" lon="5.71301">
        <ele>793.8</ele>
        <time>2022-07-14T08:32:06Z</time>
      </trkpt>
      <trkpt lat="44.76775" lon="5.71295">
        <ele>793.8</ele>
        <time>2022-07-14T08:32:07Z</time>
      </trkpt>
      <trkpt lat="44.76778" lon="5.71288">
        <ele>793.8</ele>
        <time>2022-07-14T08:32:08Z</time>
      </trkpt>
      <trkpt lat="44.76781" lon="5.71282">
        <ele>793.8</ele>
        <time>2022-07-14T08:32:09Z</time>
      </trkpt>
      <trkpt lat="44.76784" lon="5.71275">
        <ele>793.7</ele>
        <time>2022-07-14T08:32:10Z</time>
      </trkpt>
      <trkpt lat="44.76787" lon="5.71268">
        <ele>793.7</ele>
        <time>2022-07-14T08:32:11Z</time>
      </trkpt>
      <trkpt lat="44.7679" lon="5.71262">
        <ele>793.7</ele>
        <time>2022-07-14T08:32:12Z</time>
      </trkpt>
      <trkpt lat="44.76793" lon="5.71255">
        <ele>793.6</ele>
        <time>2022-07-14T08:32:13Z</time>
      </trkpt>
      <trkpt lat="44.76796" lon="5.71248">
        <ele>793.6</ele>
        <time>2022-07-14T08:32:14Z</time>
      </trkpt>
      <trkpt lat="44.76799" lon="5.71242">
        <ele>793.5</ele>
        <time>2022-07-14T08:32:15Z</time>
      </trkpt>
      <trkpt lat="44.76803" lon="5.71235">
        <ele>793.5</ele>
        <time>2022-07-14T08:32:16Z</time>
      </trkpt>
      <trkpt lat="44.76806" lon="5.71228">
        <ele>793.4</ele>
        <time>2022-07-14T08:32:17Z</time>
      </trkpt>
      <trkpt lat="44.76809" lon="5.71221">
        <ele>793.4</ele>
        <time>2022-07-14T08:32:18Z</time>
      </trkpt>
      <trkpt lat="44.76813" lon="5.71214">
        <ele>793.3</ele>
        <time>2022-07-14T08:32:19Z</time>
      </trkpt>
      <trkpt lat="44.76816" lon="5.71207">
        <ele>793.2</ele>
        <time>2022-07-14T08:32:20Z</time>
      </trkpt>
      <trkpt lat="44.7682" lon="5.712">
        <ele>793.2</ele>
        <time>2022-07-14T08:32:21Z</time>
      </trkpt>
      <trkpt lat="44.76824" lon="5.71192">
        <ele>793.1</ele>
        <time>2022-07-14T08:32:22Z</time>
      </trkpt>
      <trkpt lat="44.76827" lon="5.71185">
        <ele>793.1</ele>
        <time>2022-07-14T08:32:23Z</time>
      </trkpt>
      <trkpt lat="44.7683" lon="5.71178">
        <ele>793</ele>
        <time>2022-07-14T08:32:24Z</time>
      </trkpt>
      <trkpt lat="44.76833" lon="5.71171">
        <ele>793</ele>
        <time>2022-07-14T08:32:25Z</time>
      </trkpt>
      <trkpt lat="44.76836" lon="5.71164">
        <ele>792.9</ele>
        <time>2022-07-14T08:32:26Z</time>
      </trkpt>
      <trkpt lat="44.7684" lon="5.71158">
        <ele>792.9</ele>
        <time>2022-07-14T08:32:27Z</time>
      </trkpt>
      <trkpt lat="44.76844" lon="5.71151">
        <ele>792.9</ele>
        <time>2022-07-14T08:32:28Z</time>
      </trkpt>
      <trkpt lat="44.76847" lon="5.71144">
        <ele>792.8</ele>
        <time>2022-07-14T08:32:29Z</time>
      </trkpt>
      <trkpt lat="44.7685" lon="5.71137">
        <ele>792.7</ele>
        <time>2022-07-14T08:32:30Z</time>
      </trkpt>
      <trkpt lat="44.76852" lon="5.71129">
        <ele>792.7</ele>
        <time>2022-07-14T08:32:31Z</time>
      </trkpt>
      <trkpt lat="44.76855" lon="5.71121">
        <ele>792.6</ele>
        <time>2022-07-14T08:32:32Z</time>
      </trkpt>
      <trkpt lat="44.76858" lon="5.71113">
        <ele>792.5</ele>
        <time>2022-07-14T08:32:33Z</time>
      </trkpt>
      <trkpt lat="44.7686" lon="5.71105">
        <ele>792.5</ele>
        <time>2022-07-14T08:32:34Z</time>
      </trkpt>
      <trkpt lat="44.76862" lon="5.71097">
        <ele>792.4</ele>
        <time>2022-07-14T08:32:35Z</time>
      </trkpt>
      <trkpt lat="44.76865" lon="5.71089">
        <ele>792.3</ele>
        <time>2022-07-14T08:32:36Z</time>
      </trkpt>
      <trkpt lat="44.76866" lon="5.71081">
        <ele>792.3</ele>
        <time>2022-07-14T08:32:37Z</time>
      </trkpt>
      <trkpt lat="44.76868" lon="5.71073">
        <ele>792.2</ele>
        <time>2022-07-14T08:32:38Z</time>
      </trkpt>
      <trkpt lat="44.7687" lon="5.71065">
        <ele>792.2</ele>
        <time>2022-07-14T08:32:39Z</time>
      </trkpt>
      <trkpt lat="44.76871" lon="5.71056">
        <ele>792.1</ele>
        <time>2022-07-14T08:32:40Z</time>
      </trkpt>
      <trkpt lat="44.76873" lon="5.71047">
        <ele>792</ele>
        <time>2022-07-14T08:32:41Z</time>
      </trkpt>
      <trkpt lat="44.76874" lon="5.71038">
        <ele>792</ele>
        <time>2022-07-14T08:32:42Z</time>
      </trkpt>
      <trkpt lat="44.76875" lon="5.71029">
        <ele>791.9</ele>
        <time>2022-07-14T08:32:43Z</time>
      </trkpt>
      <trkpt lat="44.76876" lon="5.7102">
        <ele>791.8</ele>
        <time>2022-07-14T08:32:44Z</time>
      </trkpt>
      <trkpt lat="44.76877" lon="5.71011">
        <ele>791.7</ele>
        <time>2022-07-14T08:32:45Z</time>
      </trkpt>
      <trkpt lat="44.76879" lon="5.71002">
        <ele>791.6</ele>
        <time>2022-07-14T08:32:46Z</time>
      </trkpt>
      <trkpt lat="44.76879" lon="5.70993">
        <ele>791.5</ele>
        <time>2022-07-14T08:32:47Z</time>
      </trkpt>
      <trkpt lat="44.7688" lon="5.70983">
        <ele>791.4</ele>
        <time>2022-07-14T08:32:48Z</time>
      </trkpt>
      <trkpt lat="44.7688" lon="5.70973">
        <ele>791.3</ele>
        <time>2022-07-14T08:32:49Z</time>
      </trkpt>
      <trkpt lat="44.76881" lon="5.70964">
        <ele>791.2</ele>
        <time>2022-07-14T08:32:50Z</time>
      </trkpt>
      <trkpt lat="44.76882" lon="5.70954">
        <ele>791.1</ele>
        <time>2022-07-14T08:32:51Z</time>
      </trkpt>
      <trkpt lat="44.76883" lon="5.70945">
        <ele>791</ele>
        <time>2022-07-14T08:32:52Z</time>
      </trkpt>
      <trkpt lat="44.76885" lon="5.70936">
        <ele>791</ele>
        <time>2022-07-14T08:32:53Z</time>
      </trkpt>
      <trkpt lat="44.76886" lon="5.70928">
        <ele>790.9</ele>
        <time>2022-07-14T08:32:54Z</time>
      </trkpt>
      <trkpt lat="44.76887" lon="5.70919">
        <ele>790.8</ele>
        <time>2022-07-14T08:32:55Z</time>
      </trkpt>
      <trkpt lat="44.76888" lon="5.70911">
        <ele>790.7</ele>
        <time>2022-07-14T08:32:56Z</time>
      </trkpt>
      <trkpt lat="44.76889" lon="5.70902">
        <ele>790.6</ele>
        <time>2022-07-14T08:32:57Z</time>
      </trkpt>
      <trkpt lat="44.76889" lon="5.70893">
        <ele>790.6</ele>
        <time>2022-07-14T08:32:58Z</time>
      </trkpt>
      <trkpt lat="44.76891" lon="5.70884">
        <ele>790.5</ele>
        <time>2022-07-14T08:32:59Z</time>
      </trkpt>
      <trkpt lat="44.76892" lon="5.70876">
        <ele>790.4</ele>
        <time>2022-07-14T08:33:00Z</time>
      </trkpt>
      <trkpt lat="44.76893" lon="5.70867">
        <ele>790.4</ele>
        <time>2022-07-14T08:33:01Z</time>
      </trkpt>
      <trkpt lat="44.76894" lon="5.70859">
        <ele>790.3</ele>
        <time>2022-07-14T08:33:02Z</time>
      </trkpt>
      <trkpt lat="44.76896" lon="5.7085">
        <ele>790.2</ele>
        <time>2022-07-14T08:33:03Z</time>
      </trkpt>
      <trkpt lat="44.76898" lon="5.70841">
        <ele>790.1</ele>
        <time>2022-07-14T08:33:04Z</time>
      </trkpt>
      <trkpt lat="44.769" lon="5.70832">
        <ele>790</ele>
        <time>2022-07-14T08:33:05Z</time>
      </trkpt>
      <trkpt lat="44.76901" lon="5.70824">
        <ele>790</ele>
        <time>2022-07-14T08:33:06Z</time>
      </trkpt>
      <trkpt lat="44.76902" lon="5.70816">
        <ele>789.9</ele>
        <time>2022-07-14T08:33:07Z</time>
      </trkpt>
      <trkpt lat="44.76903" lon="5.70807">
        <ele>789.8</ele>
        <time>2022-07-14T08:33:08Z</time>
      </trkpt>
      <trkpt lat="44.76905" lon="5.70799">
        <ele>789.7</ele>
        <time>2022-07-14T08:33:09Z</time>
      </trkpt>
      <trkpt lat="44.76907" lon="5.70792">
        <ele>789.7</ele>
        <time>2022-07-14T08:33:10Z</time>
      </trkpt>
      <trkpt lat="44.7691" lon="5.70783">
        <ele>789.6</ele>
        <time>2022-07-14T08:33:11Z</time>
      </trkpt>
      <trkpt lat="44.76912" lon="5.70774">
        <ele>789.6</ele>
        <time>2022-07-14T08:33:12Z</time>
      </trkpt>
      <trkpt lat="44.76915" lon="5.70767">
        <ele>789.6</ele>
        <time>2022-07-14T08:33:13Z</time>
      </trkpt>
      <trkpt lat="44.76918" lon="5.7076">
        <ele>789.6</ele>
        <time>2022-07-14T08:33:14Z</time>
      </trkpt>
      <trkpt lat="44.7692" lon="5.70752">
        <ele>789.5</ele>
        <time>2022-07-14T08:33:15Z</time>
      </trkpt>
      <trkpt lat="44.76922" lon="5.70744">
        <ele>789.5</ele>
        <time>2022-07-14T08:33:16Z</time>
      </trkpt>
      <trkpt lat="44.76924" lon="5.70736">
        <ele>789.4</ele>
        <time>2022-07-14T08:33:17Z</time>
      </trkpt>
      <trkpt lat="44.76926" lon="5.70728">
        <ele>789.3</ele>
        <time>2022-07-14T08:33:18Z</time>
      </trkpt>
      <trkpt lat="44.76929" lon="5.7072">
        <ele>789.2</ele>
        <time>2022-07-14T08:33:19Z</time>
      </trkpt>
      <trkpt lat="44.76932" lon="5.70712">
        <ele>789.2</ele>
        <time>2022-07-14T08:33:20Z</time>
      </trkpt>
      <trkpt lat="44.76935" lon="5.70704">
        <ele>789.1</ele>
        <time>2022-07-14T08:33:21Z</time>
      </trkpt>
      <trkpt lat="44.76937" lon="5.70695">
        <ele>789</ele>
        <time>2022-07-14T08:33:22Z</time>
      </trkpt>
      <trkpt lat="44.7694" lon="5.70687">
        <ele>788.9</ele>
        <time>2022-07-14T08:33:23Z</time>
      </trkpt>
      <trkpt lat="44.76942" lon="5.70679">
        <ele>788.8</ele>
        <time>2022-07-14T08:33:24Z</time>
      </trkpt>
      <trkpt lat="44.76945" lon="5.70671">
        <ele>788.8</ele>
        <time>2022-07-14T08:33:25Z</time>
      </trkpt>
      <trkpt lat="44.76947" lon="5.70663">
        <ele>788.7</ele>
        <time>2022-07-14T08:33:26Z</time>
      </trkpt>
      <trkpt lat="44.7695" lon="5.70654">
        <ele>788.6</ele>
        <time>2022-07-14T08:33:27Z</time>
      </trkpt>
      <trkpt lat="44.76953" lon="5.70646">
        <ele>788.5</ele>
        <time>2022-07-14T08:33:28Z</time>
      </trkpt>
      <trkpt lat="44.76956" lon="5.70637">
        <ele>788.4</ele>
        <time>2022-07-14T08:33:29Z</time>
      </trkpt>
      <trkpt lat="44.76959" lon="5.70629">
        <ele>788.3</ele>
        <time>2022-07-14T08:33:30Z</time>
      </trkpt>
      <trkpt lat="44.76961" lon="5.7062">
        <ele>788.2</ele>
        <time>2022-07-14T08:33:31Z</time>
      </trkpt>
      <trkpt lat="44.76963" lon="5.70611">
        <ele>788.1</ele>
        <time>2022-07-14T08:33:32Z</time>
      </trkpt>
      <trkpt lat="44.76966" lon="5.70603">
        <ele>788.1</ele>
        <time>2022-07-14T08:33:33Z</time>
      </trkpt>
      <trkpt lat="44.76969" lon="5.70594">
        <ele>788</ele>
        <time>2022-07-14T08:33:34Z</time>
      </trkpt>
      <trkpt lat="44.76972" lon="5.70586">
        <ele>787.9</ele>
        <time>2022-07-14T08:33:35Z</time>
      </trkpt>
      <trkpt lat="44.76974" lon="5.70577">
        <ele>787.9</ele>
        <time>2022-07-14T08:33:36Z</time>
      </trkpt>
      <trkpt lat="44.76977" lon="5.70569">
        <ele>787.9</ele>
        <time>2022-07-14T08:33:37Z</time>
      </trkpt>
      <trkpt lat="44.76979" lon="5.7056">
        <ele>787.8</ele>
        <time>2022-07-14T08:33:38Z</time>
      </trkpt>
      <trkpt lat="44.76982" lon="5.70552">
        <ele>787.8</ele>
        <time>2022-07-14T08:33:39Z</time>
      </trkpt>
      <trkpt lat="44.76985" lon="5.70545">
        <ele>787.8</ele>
        <time>2022-07-14T08:33:40Z</time>
      </trkpt>
      <trkpt lat="44.76988" lon="5.70536">
        <ele>787.7</ele>
        <time>2022-07-14T08:33:41Z</time>
      </trkpt>
      <trkpt lat="44.7699" lon="5.70528">
        <ele>787.7</ele>
        <time>2022-07-14T08:33:42Z</time>
      </trkpt>
      <trkpt lat="44.76992" lon="5.70519">
        <ele>787.7</ele>
        <time>2022-07-14T08:33:43Z</time>
      </trkpt>
      <trkpt lat="44.76994" lon="5.70511">
        <ele>787.6</ele>
        <time>2022-07-14T08:33:44Z</time>
      </trkpt>
      <trkpt lat="44.76996" lon="5.70503">
        <ele>787.6</ele>
        <time>2022-07-14T08:33:45Z</time>
      </trkpt>
      <trkpt lat="44.76999" lon="5.70496">
        <ele>787.6</ele>
        <time>2022-07-14T08:33:46Z</time>
      </trkpt>
      <trkpt lat="44.77002" lon="5.70489">
        <ele>787.5</ele>
        <time>2022-07-14T08:33:47Z</time>
      </trkpt>
      <trkpt lat="44.77005" lon="5.70482">
        <ele>787.5</ele>
        <time>2022-07-14T08:33:48Z</time>
      </trkpt>
      <trkpt lat="44.77008" lon="5.70474">
        <ele>787.5</ele>
        <time>2022-07-14T08:33:49Z</time>
      </trkpt>
      <trkpt lat="44.7701" lon="5.70467">
        <ele>787.5</ele>
        <time>2022-07-14T08:33:50Z</time>
      </trkpt>
      <trkpt lat="44.77012" lon="5.70461">
        <ele>787.5</ele>
        <time>2022-07-14T08:33:51Z</time>
      </trkpt>
      <trkpt lat="44.77013" lon="5.70454">
        <ele>787.5</ele>
        <time>2022-07-14T08:33:52Z</time>
      </trkpt>
      <trkpt lat="44.77014" lon="5.70448">
        <ele>787.6</ele>
        <time>2022-07-14T08:33:53Z</time>
      </trkpt>
      <trkpt lat="44.77015" lon="5.7044">
        <ele>787.7</ele>
        <time>2022-07-14T08:33:54Z</time>
      </trkpt>
      <trkpt lat="44.77017" lon="5.70433">
        <ele>787.7</ele>
        <time>2022-07-14T08:33:55Z</time>
      </trkpt>
      <trkpt lat="44.77018" lon="5.70427">
        <ele>787.8</ele>
        <time>2022-07-14T08:33:56Z</time>
      </trkpt>
      <trkpt lat="44.77019" lon="5.7042">
        <ele>787.9</ele>
        <time>2022-07-14T08:33:57Z</time>
      </trkpt>
      <trkpt lat="44.7702" lon="5.70412">
        <ele>788</ele>
        <time>2022-07-14T08:33:58Z</time>
      </trkpt>
      <trkpt lat="44.77021" lon="5.70405">
        <ele>788.1</ele>
        <time>2022-07-14T08:33:59Z</time>
      </trkpt>
      <trkpt lat="44.77022" lon="5.70398">
        <ele>788.2</ele>
        <time>2022-07-14T08:34:00Z</time>
      </trkpt>
      <trkpt lat="44.77023" lon="5.70391">
        <ele>788.3</ele>
        <time>2022-07-14T08:34:01Z</time>
      </trkpt>
      <trkpt lat="44.77024" lon="5.70384">
        <ele>788.4</ele>
        <time>2022-07-14T08:34:02Z</time>
      </trkpt>
      <trkpt lat="44.77026" lon="5.70377">
        <ele>788.5</ele>
        <time>2022-07-14T08:34:03Z</time>
      </trkpt>
      <trkpt lat="44.77027" lon="5.70369">
        <ele>788.6</ele>
        <time>2022-07-14T08:34:04Z</time>
      </trkpt>
      <trkpt lat="44.77028" lon="5.70362">
        <ele>788.7</ele>
        <time>2022-07-14T08:34:05Z</time>
      </trkpt>
      <trkpt lat="44.77028" lon="5.70354">
        <ele>788.8</ele>
        <time>2022-07-14T08:34:06Z</time>
      </trkpt>
      <trkpt lat="44.77028" lon="5.70347">
        <ele>788.9</ele>
        <time>2022-07-14T08:34:07Z</time>
      </trkpt>
      <trkpt lat="44.77028" lon="5.7034">
        <ele>789</ele>
        <time>2022-07-14T08:34:08Z</time>
      </trkpt>
      <trkpt lat="44.77028" lon="5.70333">
        <ele>789</ele>
        <time>2022-07-14T08:34:09Z</time>
      </trkpt>
      <trkpt lat="44.77028" lon="5.70326">
        <ele>789.1</ele>
        <time>2022-07-14T08:34:10Z</time>
      </trkpt>
      <trkpt lat="44.77027" lon="5.70319">
        <ele>789.2</ele>
        <time>2022-07-14T08:34:11Z</time>
      </trkpt>
      <trkpt lat="44.77027" lon="5.70312">
        <ele>789.3</ele>
        <time>2022-07-14T08:34:12Z</time>
      </trkpt>
      <trkpt lat="44.77025" lon="5.70305">
        <ele>789.5</ele>
        <time>2022-07-14T08:34:13Z</time>
      </trkpt>
      <trkpt lat="44.77024" lon="5.70298">
        <ele>789.6</ele>
        <time>2022-07-14T08:34:14Z</time>
      </trkpt>
      <trkpt lat="44.77022" lon="5.7029">
        <ele>789.6</ele>
        <time>2022-07-14T08:34:15Z</time>
      </trkpt>
      <trkpt lat="44.77021" lon="5.70283">
        <ele>789.7</ele>
        <time>2022-07-14T08:34:16Z</time>
      </trkpt>
      <trkpt lat="44.7702" lon="5.70276">
        <ele>789.8</ele>
        <time>2022-07-14T08:34:17Z</time>
      </trkpt>
      <trkpt lat="44.7702" lon="5.70269">
        <ele>789.9</ele>
        <time>2022-07-14T08:34:18Z</time>
      </trkpt>
      <trkpt lat="44.77019" lon="5.70262">
        <ele>790</ele>
        <time>2022-07-14T08:34:19Z</time>
      </trkpt>
      <trkpt lat="44.77018" lon="5.70255">
        <ele>790.1</ele>
        <time>2022-07-14T08:34:20Z</time>
      </trkpt>
      <trkpt lat="44.77017" lon="5.70249">
        <ele>790.1</ele>
        <time>2022-07-14T08:34:21Z</time>
      </trkpt>
      <trkpt lat="44.77016" lon="5.70243">
        <ele>790.2</ele>
        <time>2022-07-14T08:34:22Z</time>
      </trkpt>
      <trkpt lat="44.77016" lon="5.70239">
        <ele>790.2</ele>
        <time>2022-07-14T08:34:23Z</time>
      </trkpt>
      <trkpt lat="44.77014" lon="5.7023">
        <ele>790.3</ele>
        <time>2022-07-14T08:34:24Z</time>
      </trkpt>
      <trkpt lat="44.77013" lon="5.70223">
        <ele>790.3</ele>
        <time>2022-07-14T08:34:25Z</time>
      </trkpt>
      <trkpt lat="44.77012" lon="5.70216">
        <ele>790.4</ele>
        <time>2022-07-14T08:34:26Z</time>
      </trkpt>
      <trkpt lat="44.77011" lon="5.70209">
        <ele>790.4</ele>
        <time>2022-07-14T08:34:27Z</time>
      </trkpt>
      <trkpt lat="44.7701" lon="5.70202">
        <ele>790.5</ele>
        <time>2022-07-14T08:34:28Z</time>
      </trkpt>
      <trkpt lat="44.77009" lon="5.70195">
        <ele>790.5</ele>
        <time>2022-07-14T08:34:29Z</time>
      </trkpt>
      <trkpt lat="44.77008" lon="5.70188">
        <ele>790.5</ele>
        <time>2022-07-14T08:34:30Z</time>
      </trkpt>
      <trkpt lat="44.77007" lon="5.70182">
        <ele>790.5</ele>
        <time>2022-07-14T08:34:31Z</time>
      </trkpt>
      <trkpt lat="44.77005" lon="5.70174">
        <ele>790.5</ele>
        <time>2022-07-14T08:34:32Z</time>
      </trkpt>
      <trkpt lat="44.77004" lon="5.70167">
        <ele>790.5</ele>
        <time>2022-07-14T08:34:33Z</time>
      </trkpt>
      <trkpt lat="44.77003" lon="5.70159">
        <ele>790.5</ele>
        <time>2022-07-14T08:34:34Z</time>
      </trkpt>
      <trkpt lat="44.77002" lon="5.70151">
        <ele>790.5</ele>
        <time>2022-07-14T08:34:35Z</time>
      </trkpt>
      <trkpt lat="44.77001" lon="5.70143">
        <ele>790.5</ele>
        <time>2022-07-14T08:34:36Z</time>
      </trkpt>
      <trkpt lat="44.76999" lon="5.70136">
        <ele>790.6</ele>
        <time>2022-07-14T08:34:37Z</time>
      </trkpt>
      <trkpt lat="44.76998" lon="5.70128">
        <ele>790.6</ele>
        <time>2022-07-14T08:34:38Z</time>
      </trkpt>
      <trkpt lat="44.76997" lon="5.7012">
        <ele>790.6</ele>
        <time>2022-07-14T08:34:39Z</time>
      </trkpt>
      <trkpt lat="44.76996" lon="5.70113">
        <ele>790.6</ele>
        <time>2022-07-14T08:34:40Z</time>
      </trkpt>
      <trkpt lat="44.76995" lon="5.70105">
        <ele>790.6</ele>
        <time>2022-07-14T08:34:41Z</time>
      </trkpt>
      <trkpt lat="44.76993" lon="5.70097">
        <ele>790.6</ele>
        <time>2022-07-14T08:34:42Z</time>
      </trkpt>
      <trkpt lat="44.76992" lon="5.70089">
        <ele>790.6</ele>
        <time>2022-07-14T08:34:43Z</time>
      </trkpt>
      <trkpt lat="44.76991" lon="5.7008">
        <ele>790.7</ele>
        <time>2022-07-14T08:34:44Z</time>
      </trkpt>
      <trkpt lat="44.7699" lon="5.70072">
        <ele>790.7</ele>
        <time>2022-07-14T08:34:45Z</time>
      </trkpt>
      <trkpt lat="44.76989" lon="5.70064">
        <ele>790.7</ele>
        <time>2022-07-14T08:34:46Z</time>
      </trkpt>
      <trkpt lat="44.76988" lon="5.70055">
        <ele>790.7</ele>
        <time>2022-07-14T08:34:47Z</time>
      </trkpt>
      <trkpt lat="44.76988" lon="5.70047">
        <ele>790.7</ele>
        <time>2022-07-14T08:34:48Z</time>
      </trkpt>
      <trkpt lat="44.76987" lon="5.70038">
        <ele>790.8</ele>
        <time>2022-07-14T08:34:49Z</time>
      </trkpt>
      <trkpt lat="44.76987" lon="5.70029">
        <ele>790.8</ele>
        <time>2022-07-14T08:34:50Z</time>
      </trkpt>
      <trkpt lat="44.76988" lon="5.7002">
        <ele>790.9</ele>
        <time>2022-07-14T08:34:51Z</time>
      </trkpt>
      <trkpt lat="44.76988" lon="5.70011">
        <ele>790.9</ele>
        <time>2022-07-14T08:34:52Z</time>
      </trkpt>
      <trkpt lat="44.76988" lon="5.70002">
        <ele>791</ele>
        <time>2022-07-14T08:34:53Z</time>
      </trkpt>
      <trkpt lat="44.76988" lon="5.69993">
        <ele>791</ele>
        <time>2022-07-14T08:34:54Z</time>
      </trkpt>
      <trkpt lat="44.76987" lon="5.69984">
        <ele>791.1</ele>
        <time>2022-07-14T08:34:55Z</time>
      </trkpt>
      <trkpt lat="44.76987" lon="5.69975">
        <ele>791.1</ele>
        <time>2022-07-14T08:34:56Z</time>
      </trkpt>
      <trkpt lat="44.76986" lon="5.69966">
        <ele>791.2</ele>
        <time>2022-07-14T08:34:57Z</time>
      </trkpt>
      <trkpt lat="44.76986" lon="5.69957">
        <ele>791.3</ele>
        <time>2022-07-14T08:34:58Z</time>
      </trkpt>
      <trkpt lat="44.76985" lon="5.69948">
        <ele>791.4</ele>
        <time>2022-07-14T08:34:59Z</time>
      </trkpt>
      <trkpt lat="44.76985" lon="5.69939">
        <ele>791.6</ele>
        <time>2022-07-14T08:35:00Z</time>
      </trkpt>
      <trkpt lat="44.76984" lon="5.6993">
        <ele>791.7</ele>
        <time>2022-07-14T08:35:01Z</time>
      </trkpt>
      <trkpt lat="44.76983" lon="5.69921">
        <ele>791.9</ele>
        <time>2022-07-14T08:35:02Z</time>
      </trkpt>
      <trkpt lat="44.76982" lon="5.69913">
        <ele>792</ele>
        <time>2022-07-14T08:35:03Z</time>
      </trkpt>
      <trkpt lat="44.76981" lon="5.69905">
        <ele>792.2</ele>
        <time>2022-07-14T08:35:04Z</time>
      </trkpt>
      <trkpt lat="44.76979" lon="5.69898">
        <ele>792.4</ele>
        <time>2022-07-14T08:35:05Z</time>
      </trkpt>
      <trkpt lat="44.76976" lon="5.6989">
        <ele>792.6</ele>
        <time>2022-07-14T08:35:06Z</time>
      </trkpt>
      <trkpt lat="44.76973" lon="5.69883">
        <ele>792.8</ele>
        <time>2022-07-14T08:35:07Z</time>
      </trkpt>
      <trkpt lat="44.76969" lon="5.69876">
        <ele>793</ele>
        <time>2022-07-14T08:35:08Z</time>
      </trkpt>
      <trkpt lat="44.76965" lon="5.69871">
        <ele>793.2</ele>
        <time>2022-07-14T08:35:09Z</time>
      </trkpt>
      <trkpt lat="44.76961" lon="5.69866">
        <ele>793.4</ele>
        <time>2022-07-14T08:35:10Z</time>
      </trkpt>
      <trkpt lat="44.76957" lon="5.69862">
        <ele>793.6</ele>
        <time>2022-07-14T08:35:11Z</time>
      </trkpt>
      <trkpt lat="44.76952" lon="5.69858">
        <ele>793.8</ele>
        <time>2022-07-14T08:35:12Z</time>
      </trkpt>
      <trkpt lat="44.76948" lon="5.69854">
        <ele>794</ele>
        <time>2022-07-14T08:35:13Z</time>
      </trkpt>
      <trkpt lat="44.76944" lon="5.6985">
        <ele>794.2</ele>
        <time>2022-07-14T08:35:14Z</time>
      </trkpt>
      <trkpt lat="44.76939" lon="5.69847">
        <ele>794.3</ele>
        <time>2022-07-14T08:35:15Z</time>
      </trkpt>
      <trkpt lat="44.76935" lon="5.69844">
        <ele>794.5</ele>
        <time>2022-07-14T08:35:16Z</time>
      </trkpt>
      <trkpt lat="44.7693" lon="5.69841">
        <ele>794.7</ele>
        <time>2022-07-14T08:35:17Z</time>
      </trkpt>
      <trkpt lat="44.76924" lon="5.69838">
        <ele>794.9</ele>
        <time>2022-07-14T08:35:18Z</time>
      </trkpt>
      <trkpt lat="44.7692" lon="5.69835">
        <ele>795.1</ele>
        <time>2022-07-14T08:35:19Z</time>
      </trkpt>
      <trkpt lat="44.76915" lon="5.69833">
        <ele>795.3</ele>
        <time>2022-07-14T08:35:20Z</time>
      </trkpt>
      <trkpt lat="44.7691" lon="5.6983">
        <ele>795.4</ele>
        <time>2022-07-14T08:35:21Z</time>
      </trkpt>
      <trkpt lat="44.76905" lon="5.69827">
        <ele>795.6</ele>
        <time>2022-07-14T08:35:22Z</time>
      </trkpt>
      <trkpt lat="44.769" lon="5.69825">
        <ele>795.7</ele>
        <time>2022-07-14T08:35:23Z</time>
      </trkpt>
      <trkpt lat="44.76896" lon="5.69823">
        <ele>795.9</ele>
        <time>2022-07-14T08:35:24Z</time>
      </trkpt>
      <trkpt lat="44.76891" lon="5.6982">
        <ele>796</ele>
        <time>2022-07-14T08:35:25Z</time>
      </trkpt>
      <trkpt lat="44.76886" lon="5.69818">
        <ele>796.1</ele>
        <time>2022-07-14T08:35:26Z</time>
      </trkpt>
      <trkpt lat="44.76882" lon="5.69816">
        <ele>796.1</ele>
        <time>2022-07-14T08:35:27Z</time>
      </trkpt>
      <trkpt lat="44.76878" lon="5.69814">
        <ele>796.2</ele>
        <time>2022-07-14T08:35:28Z</time>
      </trkpt>
      <trkpt lat="44.76873" lon="5.69811">
        <ele>796.3</ele>
        <time>2022-07-14T08:35:29Z</time>
      </trkpt>
      <trkpt lat="44.76867" lon="5.69809">
        <ele>796.3</ele>
        <time>2022-07-14T08:35:30Z</time>
      </trkpt>
      <trkpt lat="44.76861" lon="5.69805">
        <ele>796.3</ele>
        <time>2022-07-14T08:35:31Z</time>
      </trkpt>
      <trkpt lat="44.76855" lon="5.69803">
        <ele>796.3</ele>
        <time>2022-07-14T08:35:32Z</time>
      </trkpt>
      <trkpt lat="44.7685" lon="5.698">
        <ele>796.3</ele>
        <time>2022-07-14T08:35:33Z</time>
      </trkpt>
      <trkpt lat="44.76845" lon="5.69798">
        <ele>796.3</ele>
        <time>2022-07-14T08:35:34Z</time>
      </trkpt>
      <trkpt lat="44.76839" lon="5.69794">
        <ele>796.3</ele>
        <time>2022-07-14T08:35:35Z</time>
      </trkpt>
      <trkpt lat="44.76833" lon="5.69791">
        <ele>796.2</ele>
        <time>2022-07-14T08:35:36Z</time>
      </trkpt>
      <trkpt lat="44.76827" lon="5.69788">
        <ele>796.2</ele>
        <time>2022-07-14T08:35:37Z</time>
      </trkpt>
      <trkpt lat="44.76822" lon="5.69784">
        <ele>796.2</ele>
        <time>2022-07-14T08:35:38Z</time>
      </trkpt>
      <trkpt lat="44.76816" lon="5.69782">
        <ele>796.2</ele>
        <time>2022-07-14T08:35:39Z</time>
      </trkpt>
      <trkpt lat="44.76811" lon="5.6978">
        <ele>796.2</ele>
        <time>2022-07-14T08:35:40Z</time>
      </trkpt>
      <trkpt lat="44.76804" lon="5.69778">
        <ele>796.2</ele>
        <time>2022-07-14T08:35:41Z</time>
      </trkpt>
      <trkpt lat="44.76798" lon="5.69777">
        <ele>796.3</ele>
        <time>2022-07-14T08:35:42Z</time>
      </trkpt>
      <trkpt lat="44.76792" lon="5.69776">
        <ele>796.3</ele>
        <time>2022-07-14T08:35:43Z</time>
      </trkpt>
      <trkpt lat="44.76785" lon="5.69776">
        <ele>796.3</ele>
        <time>2022-07-14T08:35:44Z</time>
      </trkpt>
      <trkpt lat="44.76779" lon="5.69776">
        <ele>796.3</ele>
        <time>2022-07-14T08:35:45Z</time>
      </trkpt>
      <trkpt lat="44.76773" lon="5.69777">
        <ele>796.3</ele>
        <time>2022-07-14T08:35:46Z</time>
      </trkpt>
      <trkpt lat="44.76767" lon="5.69777">
        <ele>796.3</ele>
        <time>2022-07-14T08:35:47Z</time>
      </trkpt>
      <trkpt lat="44.76761" lon="5.69777">
        <ele>796.4</ele>
        <time>2022-07-14T08:35:48Z</time>
      </trkpt>
      <trkpt lat="44.76755" lon="5.69778">
        <ele>796.4</ele>
        <time>2022-07-14T08:35:49Z</time>
      </trkpt>
      <trkpt lat="44.76749" lon="5.69778">
        <ele>796.4</ele>
        <time>2022-07-14T08:35:50Z</time>
      </trkpt>
      <trkpt lat="44.76742" lon="5.69778">
        <ele>796.5</ele>
        <time>2022-07-14T08:35:51Z</time>
      </trkpt>
      <trkpt lat="44.76737" lon="5.69778">
        <ele>796.6</ele>
        <time>2022-07-14T08:35:52Z</time>
      </trkpt>
      <trkpt lat="44.76731" lon="5.69778">
        <ele>796.6</ele>
        <time>2022-07-14T08:35:53Z</time>
      </trkpt>
      <trkpt lat="44.76725" lon="5.69778">
        <ele>796.7</ele>
        <time>2022-07-14T08:35:54Z</time>
      </trkpt>
      <trkpt lat="44.76718" lon="5.69778">
        <ele>796.7</ele>
        <time>2022-07-14T08:35:55Z</time>
      </trkpt>
      <trkpt lat="44.76713" lon="5.69778">
        <ele>796.8</ele>
        <time>2022-07-14T08:35:56Z</time>
      </trkpt>
      <trkpt lat="44.76706" lon="5.69777">
        <ele>796.9</ele>
        <time>2022-07-14T08:35:57Z</time>
      </trkpt>
      <trkpt lat="44.767" lon="5.69777">
        <ele>797</ele>
        <time>2022-07-14T08:35:58Z</time>
      </trkpt>
      <trkpt lat="44.76694" lon="5.69776">
        <ele>797.1</ele>
        <time>2022-07-14T08:35:59Z</time>
      </trkpt>
      <trkpt lat="44.76689" lon="5.69776">
        <ele>797.2</ele>
        <time>2022-07-14T08:36:00Z</time>
      </trkpt>
      <trkpt lat="44.76683" lon="5.69776">
        <ele>797.3</ele>
        <time>2022-07-14T08:36:01Z</time>
      </trkpt>
      <trkpt lat="44.76677" lon="5.69775">
        <ele>797.3</ele>
        <time>2022-07-14T08:36:02Z</time>
      </trkpt>
      <trkpt lat="44.76671" lon="5.69775">
        <ele>797.4</ele>
        <time>2022-07-14T08:36:03Z</time>
      </trkpt>
      <trkpt lat="44.76666" lon="5.69775">
        <ele>797.5</ele>
        <time>2022-07-14T08:36:04Z</time>
      </trkpt>
      <trkpt lat="44.7666" lon="5.69775">
        <ele>797.6</ele>
        <time>2022-07-14T08:36:05Z</time>
      </trkpt>
      <trkpt lat="44.76655" lon="5.69774">
        <ele>797.7</ele>
        <time>2022-07-14T08:36:06Z</time>
      </trkpt>
      <trkpt lat="44.76649" lon="5.69774">
        <ele>797.8</ele>
        <time>2022-07-14T08:36:07Z</time>
      </trkpt>
      <trkpt lat="44.76643" lon="5.69774">
        <ele>797.9</ele>
        <time>2022-07-14T08:36:08Z</time>
      </trkpt>
      <trkpt lat="44.76637" lon="5.69775">
        <ele>798.1</ele>
        <time>2022-07-14T08:36:09Z</time>
      </trkpt>
      <trkpt lat="44.76631" lon="5.69775">
        <ele>798.2</ele>
        <time>2022-07-14T08:36:10Z</time>
      </trkpt>
      <trkpt lat="44.76626" lon="5.69776">
        <ele>798.3</ele>
        <time>2022-07-14T08:36:11Z</time>
      </trkpt>
      <trkpt lat="44.76621" lon="5.69777">
        <ele>798.4</ele>
        <time>2022-07-14T08:36:12Z</time>
      </trkpt>
      <trkpt lat="44.76615" lon="5.69777">
        <ele>798.5</ele>
        <time>2022-07-14T08:36:13Z</time>
      </trkpt>
      <trkpt lat="44.7661" lon="5.69778">
        <ele>798.6</ele>
        <time>2022-07-14T08:36:14Z</time>
      </trkpt>
      <trkpt lat="44.76604" lon="5.69779">
        <ele>798.7</ele>
        <time>2022-07-14T08:36:15Z</time>
      </trkpt>
      <trkpt lat="44.76599" lon="5.69781">
        <ele>798.8</ele>
        <time>2022-07-14T08:36:16Z</time>
      </trkpt>
      <trkpt lat="44.76594" lon="5.69782">
        <ele>798.9</ele>
        <time>2022-07-14T08:36:17Z</time>
      </trkpt>
      <trkpt lat="44.76588" lon="5.69782">
        <ele>799.1</ele>
        <time>2022-07-14T08:36:18Z</time>
      </trkpt>
      <trkpt lat="44.76582" lon="5.69783">
        <ele>799.2</ele>
        <time>2022-07-14T08:36:19Z</time>
      </trkpt>
      <trkpt lat="44.76577" lon="5.69784">
        <ele>799.3</ele>
        <time>2022-07-14T08:36:20Z</time>
      </trkpt>
      <trkpt lat="44.76572" lon="5.69785">
        <ele>799.4</ele>
        <time>2022-07-14T08:36:21Z</time>
      </trkpt>
      <trkpt lat="44.76566" lon="5.69786">
        <ele>799.5</ele>
        <time>2022-07-14T08:36:22Z</time>
      </trkpt>
      <trkpt lat="44.76561" lon="5.69787">
        <ele>799.6</ele>
        <time>2022-07-14T08:36:23Z</time>
      </trkpt>
      <trkpt lat="44.76555" lon="5.69788">
        <ele>799.7</ele>
        <time>2022-07-14T08:36:24Z</time>
      </trkpt>
      <trkpt lat="44.7655" lon="5.69788">
        <ele>799.8</ele>
        <time>2022-07-14T08:36:25Z</time>
      </trkpt>
      <trkpt lat="44.76545" lon="5.69788">
        <ele>800</ele>
        <time>2022-07-14T08:36:26Z</time>
      </trkpt>
      <trkpt lat="44.76539" lon="5.69788">
        <ele>800.1</ele>
        <time>2022-07-14T08:36:27Z</time>
      </trkpt>
      <trkpt lat="44.76533" lon="5.69788">
        <ele>800.2</ele>
        <time>2022-07-14T08:36:28Z</time>
      </trkpt>
      <trkpt lat="44.76527" lon="5.69787">
        <ele>800.4</ele>
        <time>2022-07-14T08:36:29Z</time>
      </trkpt>
      <trkpt lat="44.76522" lon="5.69787">
        <ele>800.5</ele>
        <time>2022-07-14T08:36:30Z</time>
      </trkpt>
      <trkpt lat="44.76516" lon="5.69786">
        <ele>800.7</ele>
        <time>2022-07-14T08:36:31Z</time>
      </trkpt>
      <trkpt lat="44.76512" lon="5.69784">
        <ele>800.8</ele>
        <time>2022-07-14T08:36:32Z</time>
      </trkpt>
      <trkpt lat="44.76507" lon="5.69782">
        <ele>800.9</ele>
        <time>2022-07-14T08:36:33Z</time>
      </trkpt>
      <trkpt lat="44.76501" lon="5.6978">
        <ele>801.1</ele>
        <time>2022-07-14T08:36:34Z</time>
      </trkpt>
      <trkpt lat="44.76496" lon="5.69777">
        <ele>801.3</ele>
        <time>2022-07-14T08:36:35Z</time>
      </trkpt>
      <trkpt lat="44.76491" lon="5.69775">
        <ele>801.4</ele>
        <time>2022-07-14T08:36:36Z</time>
      </trkpt>
      <trkpt lat="44.76487" lon="5.69773">
        <ele>801.5</ele>
        <time>2022-07-14T08:36:37Z</time>
      </trkpt>
      <trkpt lat="44.76482" lon="5.6977">
        <ele>801.7</ele>
        <time>2022-07-14T08:36:38Z</time>
      </trkpt>
      <trkpt lat="44.76477" lon="5.69767">
        <ele>801.9</ele>
        <time>2022-07-14T08:36:39Z</time>
      </trkpt>
      <trkpt lat="44.76473" lon="5.69765">
        <ele>802</ele>
        <time>2022-07-14T08:36:40Z</time>
      </trkpt>
      <trkpt lat="44.76468" lon="5.69762">
        <ele>802.1</ele>
        <time>2022-07-14T08:36:41Z</time>
      </trkpt>
      <trkpt lat="44.76464" lon="5.69759">
        <ele>802.3</ele>
        <time>2022-07-14T08:36:42Z</time>
      </trkpt>
      <trkpt lat="44.76459" lon="5.69756">
        <ele>802.4</ele>
        <time>2022-07-14T08:36:43Z</time>
      </trkpt>
      <trkpt lat="44.76454" lon="5.69753">
        <ele>802.6</ele>
        <time>2022-07-14T08:36:44Z</time>
      </trkpt>
      <trkpt lat="44.7645" lon="5.6975">
        <ele>802.8</ele>
        <time>2022-07-14T08:36:45Z</time>
      </trkpt>
      <trkpt lat="44.76446" lon="5.69746">
        <ele>802.9</ele>
        <time>2022-07-14T08:36:46Z</time>
      </trkpt>
      <trkpt lat="44.76442" lon="5.69742">
        <ele>803.1</ele>
        <time>2022-07-14T08:36:47Z</time>
      </trkpt>
      <trkpt lat="44.76438" lon="5.69738">
        <ele>803.3</ele>
        <time>2022-07-14T08:36:48Z</time>
      </trkpt>
      <trkpt lat="44.76435" lon="5.69733">
        <ele>803.4</ele>
        <time>2022-07-14T08:36:49Z</time>
      </trkpt>
      <trkpt lat="44.76431" lon="5.69729">
        <ele>803.6</ele>
        <time>2022-07-14T08:36:50Z</time>
      </trkpt>
      <trkpt lat="44.76428" lon="5.69725">
        <ele>803.7</ele>
        <time>2022-07-14T08:36:51Z</time>
      </trkpt>
      <trkpt lat="44.76424" lon="5.69721">
        <ele>803.9</ele>
        <time>2022-07-14T08:36:52Z</time>
      </trkpt>
      <trkpt lat="44.7642" lon="5.69717">
        <ele>804</ele>
        <time>2022-07-14T08:36:53Z</time>
      </trkpt>
      <trkpt lat="44.76416" lon="5.69711">
        <ele>804.2</ele>
        <time>2022-07-14T08:36:54Z</time>
      </trkpt>
      <trkpt lat="44.76412" lon="5.69706">
        <ele>804.4</ele>
        <time>2022-07-14T08:36:55Z</time>
      </trkpt>
      <trkpt lat="44.76409" lon="5.69701">
        <ele>804.5</ele>
        <time>2022-07-14T08:36:56Z</time>
      </trkpt>
      <trkpt lat="44.76406" lon="5.69695">
        <ele>804.7</ele>
        <time>2022-07-14T08:36:57Z</time>
      </trkpt>
      <trkpt lat="44.76404" lon="5.6969">
        <ele>804.8</ele>
        <time>2022-07-14T08:36:58Z</time>
      </trkpt>
      <trkpt lat="44.76402" lon="5.69686">
        <ele>804.9</ele>
        <time>2022-07-14T08:36:59Z</time>
      </trkpt>
      <trkpt lat="44.76399" lon="5.69681">
        <ele>805</ele>
        <time>2022-07-14T08:37:00Z</time>
      </trkpt>
      <trkpt lat="44.76396" lon="5.69676">
        <ele>805.2</ele>
        <time>2022-07-14T08:37:01Z</time>
      </trkpt>
      <trkpt lat="44.76392" lon="5.6967">
        <ele>805.4</ele>
        <time>2022-07-14T08:37:02Z</time>
      </trkpt>
      <trkpt lat="44.7639" lon="5.69665">
        <ele>805.5</ele>
        <time>2022-07-14T08:37:03Z</time>
      </trkpt>
      <trkpt lat="44.76387" lon="5.69659">
        <ele>805.7</ele>
        <time>2022-07-14T08:37:04Z</time>
      </trkpt>
      <trkpt lat="44.76383" lon="5.69654">
        <ele>805.9</ele>
        <time>2022-07-14T08:37:05Z</time>
      </trkpt>
      <trkpt lat="44.7638" lon="5.69648">
        <ele>806</ele>
        <time>2022-07-14T08:37:06Z</time>
      </trkpt>
      <trkpt lat="44.76378" lon="5.69642">
        <ele>806.2</ele>
        <time>2022-07-14T08:37:07Z</time>
      </trkpt>
      <trkpt lat="44.76374" lon="5.69637">
        <ele>806.3</ele>
        <time>2022-07-14T08:37:08Z</time>
      </trkpt>
      <trkpt lat="44.76371" lon="5.69632">
        <ele>806.5</ele>
        <time>2022-07-14T08:37:09Z</time>
      </trkpt>
      <trkpt lat="44.76368" lon="5.69627">
        <ele>806.6</ele>
        <time>2022-07-14T08:37:10Z</time>
      </trkpt>
      <trkpt lat="44.76365" lon="5.69623">
        <ele>806.8</ele>
        <time>2022-07-14T08:37:11Z</time>
      </trkpt>
      <trkpt lat="44.76362" lon="5.69619">
        <ele>806.9</ele>
        <time>2022-07-14T08:37:12Z</time>
      </trkpt>
      <trkpt lat="44.76359" lon="5.69615">
        <ele>807</ele>
        <time>2022-07-14T08:37:13Z</time>
      </trkpt>
      <trkpt lat="44.76355" lon="5.6961">
        <ele>807.1</ele>
        <time>2022-07-14T08:37:14Z</time>
      </trkpt>
      <trkpt lat="44.76352" lon="5.69606">
        <ele>807.3</ele>
        <time>2022-07-14T08:37:15Z</time>
      </trkpt>
      <trkpt lat="44.76348" lon="5.69602">
        <ele>807.4</ele>
        <time>2022-07-14T08:37:16Z</time>
      </trkpt>
      <trkpt lat="44.76344" lon="5.69599">
        <ele>807.5</ele>
        <time>2022-07-14T08:37:17Z</time>
      </trkpt>
      <trkpt lat="44.7634" lon="5.69596">
        <ele>807.6</ele>
        <time>2022-07-14T08:37:18Z</time>
      </trkpt>
      <trkpt lat="44.76337" lon="5.69592">
        <ele>807.8</ele>
        <time>2022-07-14T08:37:19Z</time>
      </trkpt>
      <trkpt lat="44.76332" lon="5.69589">
        <ele>807.9</ele>
        <time>2022-07-14T08:37:20Z</time>
      </trkpt>
      <trkpt lat="44.76328" lon="5.69586">
        <ele>808.1</ele>
        <time>2022-07-14T08:37:21Z</time>
      </trkpt>
      <trkpt lat="44.76324" lon="5.69583">
        <ele>808.2</ele>
        <time>2022-07-14T08:37:22Z</time>
      </trkpt>
      <trkpt lat="44.7632" lon="5.69579">
        <ele>808.4</ele>
        <time>2022-07-14T08:37:23Z</time>
      </trkpt>
      <trkpt lat="44.76315" lon="5.69576">
        <ele>808.6</ele>
        <time>2022-07-14T08:37:24Z</time>
      </trkpt>
      <trkpt lat="44.76311" lon="5.69572">
        <ele>808.7</ele>
        <time>2022-07-14T08:37:25Z</time>
      </trkpt>
      <trkpt lat="44.76307" lon="5.69569">
        <ele>808.9</ele>
        <time>2022-07-14T08:37:26Z</time>
      </trkpt>
      <trkpt lat="44.76303" lon="5.69566">
        <ele>809</ele>
        <time>2022-07-14T08:37:27Z</time>
      </trkpt>
      <trkpt lat="44.76299" lon="5.69563">
        <ele>809.2</ele>
        <time>2022-07-14T08:37:28Z</time>
      </trkpt>
      <trkpt lat="44.76295" lon="5.69559">
        <ele>809.3</ele>
        <time>2022-07-14T08:37:29Z</time>
      </trkpt>
      <trkpt lat="44.76291" lon="5.69555">
        <ele>809.4</ele>
        <time>2022-07-14T08:37:30Z</time>
      </trkpt>
      <trkpt lat="44.76288" lon="5.69552">
        <ele>809.5</ele>
        <time>2022-07-14T08:37:31Z</time>
      </trkpt>
      <trkpt lat="44.76284" lon="5.69547">
        <ele>809.6</ele>
        <time>2022-07-14T08:37:32Z</time>
      </trkpt>
      <trkpt lat="44.7628" lon="5.69543">
        <ele>809.7</ele>
        <time>2022-07-14T08:37:33Z</time>
      </trkpt>
      <trkpt lat="44.76276" lon="5.69539">
        <ele>809.7</ele>
        <time>2022-07-14T08:37:34Z</time>
      </trkpt>
      <trkpt lat="44.76272" lon="5.69535">
        <ele>809.7</ele>
        <time>2022-07-14T08:37:35Z</time>
      </trkpt>
      <trkpt lat="44.76268" lon="5.69531">
        <ele>809.8</ele>
        <time>2022-07-14T08:37:36Z</time>
      </trkpt>
      <trkpt lat="44.76264" lon="5.69526">
        <ele>809.8</ele>
        <time>2022-07-14T08:37:37Z</time>
      </trkpt>
      <trkpt lat="44.76259" lon="5.69522">
        <ele>809.8</ele>
        <time>2022-07-14T08:37:38Z</time>
      </trkpt>
      <trkpt lat="44.76255" lon="5.69518">
        <ele>809.8</ele>
        <time>2022-07-14T08:37:39Z</time>
      </trkpt>
      <trkpt lat="44.76251" lon="5.69513">
        <ele>809.8</ele>
        <time>2022-07-14T08:37:40Z</time>
      </trkpt>
      <trkpt lat="44.76246" lon="5.69508">
        <ele>809.9</ele>
        <time>2022-07-14T08:37:41Z</time>
      </trkpt>
      <trkpt lat="44.76241" lon="5.69503">
        <ele>809.9</ele>
        <time>2022-07-14T08:37:42Z</time>
      </trkpt>
      <trkpt lat="44.76237" lon="5.69499">
        <ele>809.9</ele>
        <time>2022-07-14T08:37:43Z</time>
      </trkpt>
      <trkpt lat="44.76232" lon="5.69495">
        <ele>809.9</ele>
        <time>2022-07-14T08:37:44Z</time>
      </trkpt>
      <trkpt lat="44.76228" lon="5.6949">
        <ele>810</ele>
        <time>2022-07-14T08:37:45Z</time>
      </trkpt>
      <trkpt lat="44.76224" lon="5.69485">
        <ele>810</ele>
        <time>2022-07-14T08:37:46Z</time>
      </trkpt>
      <trkpt lat="44.7622" lon="5.69481">
        <ele>810.1</ele>
        <time>2022-07-14T08:37:47Z</time>
      </trkpt>
      <trkpt lat="44.76215" lon="5.69476">
        <ele>810.1</ele>
        <time>2022-07-14T08:37:48Z</time>
      </trkpt>
      <trkpt lat="44.76211" lon="5.69471">
        <ele>810.1</ele>
        <time>2022-07-14T08:37:49Z</time>
      </trkpt>
      <trkpt lat="44.76206" lon="5.69466">
        <ele>810.2</ele>
        <time>2022-07-14T08:37:50Z</time>
      </trkpt>
      <trkpt lat="44.76202" lon="5.69461">
        <ele>810.2</ele>
        <time>2022-07-14T08:37:51Z</time>
      </trkpt>
      <trkpt lat="44.76197" lon="5.69456">
        <ele>810.2</ele>
        <time>2022-07-14T08:37:52Z</time>
      </trkpt>
      <trkpt lat="44.76192" lon="5.69451">
        <ele>810.2</ele>
        <time>2022-07-14T08:37:53Z</time>
      </trkpt>
      <trkpt lat="44.76187" lon="5.69446">
        <ele>810.3</ele>
        <time>2022-07-14T08:37:54Z</time>
      </trkpt>
      <trkpt lat="44.76182" lon="5.6944">
        <ele>810.3</ele>
        <time>2022-07-14T08:37:55Z</time>
      </trkpt>
      <trkpt lat="44.76177" lon="5.69434">
        <ele>810.3</ele>
        <time>2022-07-14T08:37:56Z</time>
      </trkpt>
      <trkpt lat="44.76173" lon="5.69428">
        <ele>810.3</ele>
        <time>2022-07-14T08:37:57Z</time>
      </trkpt>
      <trkpt lat="44.76169" lon="5.69421">
        <ele>810.3</ele>
        <time>2022-07-14T08:37:58Z</time>
      </trkpt>
      <trkpt lat="44.76164" lon="5.69414">
        <ele>810.3</ele>
        <time>2022-07-14T08:37:59Z</time>
      </trkpt>
      <trkpt lat="44.7616" lon="5.69407">
        <ele>810.3</ele>
        <time>2022-07-14T08:38:00Z</time>
      </trkpt>
      <trkpt lat="44.76156" lon="5.694">
        <ele>810.4</ele>
        <time>2022-07-14T08:38:01Z</time>
      </trkpt>
      <trkpt lat="44.76153" lon="5.69392">
        <ele>810.4</ele>
        <time>2022-07-14T08:38:02Z</time>
      </trkpt>
      <trkpt lat="44.76149" lon="5.69385">
        <ele>810.4</ele>
        <time>2022-07-14T08:38:03Z</time>
      </trkpt>
      <trkpt lat="44.76146" lon="5.69378">
        <ele>810.4</ele>
        <time>2022-07-14T08:38:04Z</time>
      </trkpt>
      <trkpt lat="44.76144" lon="5.6937">
        <ele>810.4</ele>
        <time>2022-07-14T08:38:05Z</time>
      </trkpt>
      <trkpt lat="44.76141" lon="5.69362">
        <ele>810.4</ele>
        <time>2022-07-14T08:38:06Z</time>
      </trkpt>
      <trkpt lat="44.76139" lon="5.69354">
        <ele>810.4</ele>
        <time>2022-07-14T08:38:07Z</time>
      </trkpt>
      <trkpt lat="44.76136" lon="5.69346">
        <ele>810.4</ele>
        <time>2022-07-14T08:38:08Z</time>
      </trkpt>
      <trkpt lat="44.76133" lon="5.69339">
        <ele>810.4</ele>
        <time>2022-07-14T08:38:09Z</time>
      </trkpt>
      <trkpt lat="44.76131" lon="5.6933">
        <ele>810.4</ele>
        <time>2022-07-14T08:38:10Z</time>
      </trkpt>
      <trkpt lat="44.76128" lon="5.69322">
        <ele>810.4</ele>
        <time>2022-07-14T08:38:11Z</time>
      </trkpt>
      <trkpt lat="44.76126" lon="5.69315">
        <ele>810.4</ele>
        <time>2022-07-14T08:38:12Z</time>
      </trkpt>
      <trkpt lat="44.76124" lon="5.69307">
        <ele>810.4</ele>
        <time>2022-07-14T08:38:13Z</time>
      </trkpt>
      <trkpt lat="44.76122" lon="5.69299">
        <ele>810.4</ele>
        <time>2022-07-14T08:38:14Z</time>
      </trkpt>
      <trkpt lat="44.76119" lon="5.69291">
        <ele>810.4</ele>
        <time>2022-07-14T08:38:15Z</time>
      </trkpt>
      <trkpt lat="44.76117" lon="5.69283">
        <ele>810.4</ele>
        <time>2022-07-14T08:38:16Z</time>
      </trkpt>
      <trkpt lat="44.76114" lon="5.69275">
        <ele>810.4</ele>
        <time>2022-07-14T08:38:17Z</time>
      </trkpt>
      <trkpt lat="44.76111" lon="5.69267">
        <ele>810.4</ele>
        <time>2022-07-14T08:38:18Z</time>
      </trkpt>
      <trkpt lat="44.76109" lon="5.69259">
        <ele>810.4</ele>
        <time>2022-07-14T08:38:19Z</time>
      </trkpt>
      <trkpt lat="44.76107" lon="5.69251">
        <ele>810.4</ele>
        <time>2022-07-14T08:38:20Z</time>
      </trkpt>
      <trkpt lat="44.76104" lon="5.69242">
        <ele>810.4</ele>
        <time>2022-07-14T08:38:21Z</time>
      </trkpt>
      <trkpt lat="44.76102" lon="5.69234">
        <ele>810.4</ele>
        <time>2022-07-14T08:38:22Z</time>
      </trkpt>
      <trkpt lat="44.76099" lon="5.69227">
        <ele>810.5</ele>
        <time>2022-07-14T08:38:23Z</time>
      </trkpt>
      <trkpt lat="44.76096" lon="5.69219">
        <ele>810.5</ele>
        <time>2022-07-14T08:38:24Z</time>
      </trkpt>
      <trkpt lat="44.76092" lon="5.69212">
        <ele>810.5</ele>
        <time>2022-07-14T08:38:25Z</time>
      </trkpt>
      <trkpt lat="44.76088" lon="5.69205">
        <ele>810.6</ele>
        <time>2022-07-14T08:38:26Z</time>
      </trkpt>
      <trkpt lat="44.76084" lon="5.69198">
        <ele>810.6</ele>
        <time>2022-07-14T08:38:27Z</time>
      </trkpt>
      <trkpt lat="44.76079" lon="5.69192">
        <ele>810.6</ele>
        <time>2022-07-14T08:38:28Z</time>
      </trkpt>
      <trkpt lat="44.76074" lon="5.69186">
        <ele>810.6</ele>
        <time>2022-07-14T08:38:29Z</time>
      </trkpt>
      <trkpt lat="44.76069" lon="5.6918">
        <ele>810.6</ele>
        <time>2022-07-14T08:38:30Z</time>
      </trkpt>
      <trkpt lat="44.76064" lon="5.69174">
        <ele>810.6</ele>
        <time>2022-07-14T08:38:31Z</time>
      </trkpt>
      <trkpt lat="44.76059" lon="5.69169">
        <ele>810.6</ele>
        <time>2022-07-14T08:38:32Z</time>
      </trkpt>
      <trkpt lat="44.76053" lon="5.69163">
        <ele>810.6</ele>
        <time>2022-07-14T08:38:33Z</time>
      </trkpt>
      <trkpt lat="44.76048" lon="5.69156">
        <ele>810.6</ele>
        <time>2022-07-14T08:38:34Z</time>
      </trkpt>
      <trkpt lat="44.76042" lon="5.69149">
        <ele>810.5</ele>
        <time>2022-07-14T08:38:35Z</time>
      </trkpt>
      <trkpt lat="44.76036" lon="5.69144">
        <ele>810.5</ele>
        <time>2022-07-14T08:38:36Z</time>
      </trkpt>
      <trkpt lat="44.7603" lon="5.69138">
        <ele>810.5</ele>
        <time>2022-07-14T08:38:37Z</time>
      </trkpt>
      <trkpt lat="44.76025" lon="5.6913">
        <ele>810.5</ele>
        <time>2022-07-14T08:38:38Z</time>
      </trkpt>
      <trkpt lat="44.7602" lon="5.69123">
        <ele>810.5</ele>
        <time>2022-07-14T08:38:39Z</time>
      </trkpt>
      <trkpt lat="44.76015" lon="5.69115">
        <ele>810.5</ele>
        <time>2022-07-14T08:38:40Z</time>
      </trkpt>
      <trkpt lat="44.76012" lon="5.69107">
        <ele>810.5</ele>
        <time>2022-07-14T08:38:41Z</time>
      </trkpt>
      <trkpt lat="44.76008" lon="5.69098">
        <ele>810.5</ele>
        <time>2022-07-14T08:38:42Z</time>
      </trkpt>
      <trkpt lat="44.76004" lon="5.69089">
        <ele>810.5</ele>
        <time>2022-07-14T08:38:43Z</time>
      </trkpt>
      <trkpt lat="44.76001" lon="5.69079">
        <ele>810.5</ele>
        <time>2022-07-14T08:38:44Z</time>
      </trkpt>
      <trkpt lat="44.75998" lon="5.6907">
        <ele>810.5</ele>
        <time>2022-07-14T08:38:45Z</time>
      </trkpt>
      <trkpt lat="44.75995" lon="5.69061">
        <ele>810.5</ele>
        <time>2022-07-14T08:38:46Z</time>
      </trkpt>
      <trkpt lat="44.75993" lon="5.69052">
        <ele>810.5</ele>
        <time>2022-07-14T08:38:47Z</time>
      </trkpt>
      <trkpt lat="44.7599" lon="5.69044">
        <ele>810.4</ele>
        <time>2022-07-14T08:38:48Z</time>
      </trkpt>
      <trkpt lat="44.75987" lon="5.69036">
        <ele>810.4</ele>
        <time>2022-07-14T08:38:49Z</time>
      </trkpt>
      <trkpt lat="44.75984" lon="5.69027">
        <ele>810.4</ele>
        <time>2022-07-14T08:38:50Z</time>
      </trkpt>
      <trkpt lat="44.7598" lon="5.69018">
        <ele>810.4</ele>
        <time>2022-07-14T08:38:51Z</time>
      </trkpt>
      <trkpt lat="44.75977" lon="5.69009">
        <ele>810.4</ele>
        <time>2022-07-14T08:38:52Z</time>
      </trkpt>
      <trkpt lat="44.75974" lon="5.69">
        <ele>810.4</ele>
        <time>2022-07-14T08:38:53Z</time>
      </trkpt>
      <trkpt lat="44.75971" lon="5.68991">
        <ele>810.3</ele>
        <time>2022-07-14T08:38:54Z</time>
      </trkpt>
      <trkpt lat="44.75967" lon="5.68982">
        <ele>810.3</ele>
        <time>2022-07-14T08:38:55Z</time>
      </trkpt>
      <trkpt lat="44.75965" lon="5.68974">
        <ele>810.3</ele>
        <time>2022-07-14T08:38:56Z</time>
      </trkpt>
      <trkpt lat="44.75962" lon="5.68964">
        <ele>810.3</ele>
        <time>2022-07-14T08:38:57Z</time>
      </trkpt>
      <trkpt lat="44.7596" lon="5.68955">
        <ele>810.4</ele>
        <time>2022-07-14T08:38:58Z</time>
      </trkpt>
      <trkpt lat="44.75957" lon="5.68946">
        <ele>810.4</ele>
        <time>2022-07-14T08:38:59Z</time>
      </trkpt>
      <trkpt lat="44.75956" lon="5.68937">
        <ele>810.4</ele>
        <time>2022-07-14T08:39:00Z</time>
      </trkpt>
      <trkpt lat="44.75954" lon="5.68928">
        <ele>810.4</ele>
        <time>2022-07-14T08:39:01Z</time>
      </trkpt>
      <trkpt lat="44.75952" lon="5.68918">
        <ele>810.4</ele>
        <time>2022-07-14T08:39:02Z</time>
      </trkpt>
      <trkpt lat="44.75951" lon="5.68909">
        <ele>810.4</ele>
        <time>2022-07-14T08:39:03Z</time>
      </trkpt>
      <trkpt lat="44.7595" lon="5.68899">
        <ele>810.4</ele>
        <time>2022-07-14T08:39:04Z</time>
      </trkpt>
      <trkpt lat="44.75949" lon="5.6889">
        <ele>810.4</ele>
        <time>2022-07-14T08:39:05Z</time>
      </trkpt>
      <trkpt lat="44.75947" lon="5.6888">
        <ele>810.4</ele>
        <time>2022-07-14T08:39:06Z</time>
      </trkpt>
      <trkpt lat="44.75945" lon="5.6887">
        <ele>810.4</ele>
        <time>2022-07-14T08:39:07Z</time>
      </trkpt>
      <trkpt lat="44.75943" lon="5.68861">
        <ele>810.4</ele>
        <time>2022-07-14T08:39:08Z</time>
      </trkpt>
      <trkpt lat="44.7594" lon="5.68852">
        <ele>810.4</ele>
        <time>2022-07-14T08:39:09Z</time>
      </trkpt>
      <trkpt lat="44.75937" lon="5.68843">
        <ele>810.4</ele>
        <time>2022-07-14T08:39:10Z</time>
      </trkpt>
      <trkpt lat="44.75935" lon="5.68834">
        <ele>810.4</ele>
        <time>2022-07-14T08:39:11Z</time>
      </trkpt>
      <trkpt lat="44.75932" lon="5.68825">
        <ele>810.4</ele>
        <time>2022-07-14T08:39:12Z</time>
      </trkpt>
      <trkpt lat="44.75928" lon="5.68815">
        <ele>810.5</ele>
        <time>2022-07-14T08:39:13Z</time>
      </trkpt>
      <trkpt lat="44.75925" lon="5.68806">
        <ele>810.5</ele>
        <time>2022-07-14T08:39:14Z</time>
      </trkpt>
      <trkpt lat="44.75923" lon="5.68796">
        <ele>810.5</ele>
        <time>2022-07-14T08:39:15Z</time>
      </trkpt>
      <trkpt lat="44.75921" lon="5.68786">
        <ele>810.4</ele>
        <time>2022-07-14T08:39:16Z</time>
      </trkpt>
      <trkpt lat="44.75919" lon="5.68776">
        <ele>810.4</ele>
        <time>2022-07-14T08:39:17Z</time>
      </trkpt>
      <trkpt lat="44.75918" lon="5.68766">
        <ele>810.4</ele>
        <time>2022-07-14T08:39:18Z</time>
      </trkpt>
      <trkpt lat="44.75918" lon="5.68757">
        <ele>810.4</ele>
        <time>2022-07-14T08:39:19Z</time>
      </trkpt>
      <trkpt lat="44.75917" lon="5.68747">
        <ele>810.4</ele>
        <time>2022-07-14T08:39:20Z</time>
      </trkpt>
      <trkpt lat="44.75916" lon="5.68736">
        <ele>810.4</ele>
        <time>2022-07-14T08:39:21Z</time>
      </trkpt>
      <trkpt lat="44.75916" lon="5.68726">
        <ele>810.5</ele>
        <time>2022-07-14T08:39:22Z</time>
      </trkpt>
      <trkpt lat="44.75917" lon="5.68716">
        <ele>810.5</ele>
        <time>2022-07-14T08:39:23Z</time>
      </trkpt>
      <trkpt lat="44.75918" lon="5.68706">
        <ele>810.5</ele>
        <time>2022-07-14T08:39:24Z</time>
      </trkpt>
      <trkpt lat="44.7592" lon="5.68697">
        <ele>810.5</ele>
        <time>2022-07-14T08:39:25Z</time>
      </trkpt>
      <trkpt lat="44.7592" lon="5.68687">
        <ele>810.6</ele>
        <time>2022-07-14T08:39:26Z</time>
      </trkpt>
      <trkpt lat="44.7592" lon="5.68677">
        <ele>810.6</ele>
        <time>2022-07-14T08:39:27Z</time>
      </trkpt>
      <trkpt lat="44.7592" lon="5.68667">
        <ele>810.6</ele>
        <time>2022-07-14T08:39:28Z</time>
      </trkpt>
      <trkpt lat="44.7592" lon="5.68657">
        <ele>810.6</ele>
        <time>2022-07-14T08:39:29Z</time>
      </trkpt>
      <trkpt lat="44.75919" lon="5.68647">
        <ele>810.6</ele>
        <time>2022-07-14T08:39:30Z</time>
      </trkpt>
      <trkpt lat="44.75918" lon="5.68637">
        <ele>810.6</ele>
        <time>2022-07-14T08:39:31Z</time>
      </trkpt>
      <trkpt lat="44.75917" lon="5.68626">
        <ele>810.6</ele>
        <time>2022-07-14T08:39:32Z</time>
      </trkpt>
      <trkpt lat="44.75915" lon="5.68616">
        <ele>810.6</ele>
        <time>2022-07-14T08:39:33Z</time>
      </trkpt>
      <trkpt lat="44.75913" lon="5.68606">
        <ele>810.6</ele>
        <time>2022-07-14T08:39:34Z</time>
      </trkpt>
      <trkpt lat="44.75911" lon="5.68596">
        <ele>810.6</ele>
        <time>2022-07-14T08:39:35Z</time>
      </trkpt>
      <trkpt lat="44.75909" lon="5.68586">
        <ele>810.5</ele>
        <time>2022-07-14T08:39:36Z</time>
      </trkpt>
      <trkpt lat="44.75906" lon="5.68576">
        <ele>810.5</ele>
        <time>2022-07-14T08:39:37Z</time>
      </trkpt>
      <trkpt lat="44.75903" lon="5.68568">
        <ele>810.5</ele>
        <time>2022-07-14T08:39:38Z</time>
      </trkpt>
      <trkpt lat="44.75899" lon="5.68559">
        <ele>810.5</ele>
        <time>2022-07-14T08:39:39Z</time>
      </trkpt>
      <trkpt lat="44.75895" lon="5.68549">
        <ele>810.5</ele>
        <time>2022-07-14T08:39:40Z</time>
      </trkpt>
      <trkpt lat="44.7589" lon="5.68541">
        <ele>810.5</ele>
        <time>2022-07-14T08:39:41Z</time>
      </trkpt>
      <trkpt lat="44.75886" lon="5.68533">
        <ele>810.5</ele>
        <time>2022-07-14T08:39:42Z</time>
      </trkpt>
      <trkpt lat="44.75882" lon="5.68524">
        <ele>810.5</ele>
        <time>2022-07-14T08:39:43Z</time>
      </trkpt>
      <trkpt lat="44.75879" lon="5.68515">
        <ele>810.5</ele>
        <time>2022-07-14T08:39:44Z</time>
      </trkpt>
      <trkpt lat="44.75875" lon="5.68506">
        <ele>810.6</ele>
        <time>2022-07-14T08:39:45Z</time>
      </trkpt>
      <trkpt lat="44.75871" lon="5.68498">
        <ele>810.6</ele>
        <time>2022-07-14T08:39:46Z</time>
      </trkpt>
      <trkpt lat="44.75866" lon="5.6849">
        <ele>810.5</ele>
        <time>2022-07-14T08:39:47Z</time>
      </trkpt>
      <trkpt lat="44.75863" lon="5.68483">
        <ele>810.5</ele>
        <time>2022-07-14T08:39:48Z</time>
      </trkpt>
      <trkpt lat="44.75859" lon="5.68476">
        <ele>810.5</ele>
        <time>2022-07-14T08:39:49Z</time>
      </trkpt>
      <trkpt lat="44.75855" lon="5.68467">
        <ele>810.5</ele>
        <time>2022-07-14T08:39:50Z</time>
      </trkpt>
      <trkpt lat="44.75851" lon="5.6846">
        <ele>810.4</ele>
        <time>2022-07-14T08:39:51Z</time>
      </trkpt>
      <trkpt lat="44.75848" lon="5.68453">
        <ele>810.4</ele>
        <time>2022-07-14T08:39:52Z</time>
      </trkpt>
      <trkpt lat="44.75843" lon="5.68446">
        <ele>810.4</ele>
        <time>2022-07-14T08:39:53Z</time>
      </trkpt>
      <trkpt lat="44.75839" lon="5.68441">
        <ele>810.4</ele>
        <time>2022-07-14T08:39:54Z</time>
      </trkpt>
      <trkpt lat="44.75835" lon="5.68436">
        <ele>810.4</ele>
        <time>2022-07-14T08:39:55Z</time>
      </trkpt>
      <trkpt lat="44.7583" lon="5.68431">
        <ele>810.4</ele>
        <time>2022-07-14T08:39:56Z</time>
      </trkpt>
      <trkpt lat="44.75825" lon="5.68426">
        <ele>810.4</ele>
        <time>2022-07-14T08:39:57Z</time>
      </trkpt>
      <trkpt lat="44.75821" lon="5.68422">
        <ele>810.4</ele>
        <time>2022-07-14T08:39:58Z</time>
      </trkpt>
      <trkpt lat="44.75817" lon="5.68418">
        <ele>810.3</ele>
        <time>2022-07-14T08:39:59Z</time>
      </trkpt>
      <trkpt lat="44.75812" lon="5.68413">
        <ele>810.3</ele>
        <time>2022-07-14T08:40:00Z</time>
      </trkpt>
      <trkpt lat="44.75807" lon="5.68409">
        <ele>810.3</ele>
        <time>2022-07-14T08:40:01Z</time>
      </trkpt>
      <trkpt lat="44.75802" lon="5.68406">
        <ele>810.3</ele>
        <time>2022-07-14T08:40:02Z</time>
      </trkpt>
      <trkpt lat="44.75797" lon="5.68403">
        <ele>810.3</ele>
        <time>2022-07-14T08:40:03Z</time>
      </trkpt>
      <trkpt lat="44.75793" lon="5.684">
        <ele>810.3</ele>
        <time>2022-07-14T08:40:04Z</time>
      </trkpt>
      <trkpt lat="44.75788" lon="5.68397">
        <ele>810.3</ele>
        <time>2022-07-14T08:40:05Z</time>
      </trkpt>
      <trkpt lat="44.75783" lon="5.68394">
        <ele>810.4</ele>
        <time>2022-07-14T08:40:06Z</time>
      </trkpt>
      <trkpt lat="44.75777" lon="5.68393">
        <ele>810.4</ele>
        <time>2022-07-14T08:40:07Z</time>
      </trkpt>
      <trkpt lat="44.75771" lon="5.68391">
        <ele>810.4</ele>
        <time>2022-07-14T08:40:08Z</time>
      </trkpt>
      <trkpt lat="44.75765" lon="5.68389">
        <ele>810.4</ele>
        <time>2022-07-14T08:40:09Z</time>
      </trkpt>
      <trkpt lat="44.75759" lon="5.68387">
        <ele>810.4</ele>
        <time>2022-07-14T08:40:10Z</time>
      </trkpt>
      <trkpt lat="44.75753" lon="5.68385">
        <ele>810.4</ele>
        <time>2022-07-14T08:40:11Z</time>
      </trkpt>
      <trkpt lat="44.75748" lon="5.68383">
        <ele>810.5</ele>
        <time>2022-07-14T08:40:12Z</time>
      </trkpt>
      <trkpt lat="44.75742" lon="5.6838">
        <ele>810.5</ele>
        <time>2022-07-14T08:40:13Z</time>
      </trkpt>
      <trkpt lat="44.75737" lon="5.68377">
        <ele>810.5</ele>
        <time>2022-07-14T08:40:14Z</time>
      </trkpt>
      <trkpt lat="44.75732" lon="5.68373">
        <ele>810.5</ele>
        <time>2022-07-14T08:40:15Z</time>
      </trkpt>
      <trkpt lat="44.75727" lon="5.68367">
        <ele>810.6</ele>
        <time>2022-07-14T08:40:16Z</time>
      </trkpt>
      <trkpt lat="44.75722" lon="5.68362">
        <ele>810.6</ele>
        <time>2022-07-14T08:40:17Z</time>
      </trkpt>
      <trkpt lat="44.75717" lon="5.68355">
        <ele>810.6</ele>
        <time>2022-07-14T08:40:18Z</time>
      </trkpt>
      <trkpt lat="44.75711" lon="5.68349">
        <ele>810.6</ele>
        <time>2022-07-14T08:40:19Z</time>
      </trkpt>
      <trkpt lat="44.75707" lon="5.68342">
        <ele>810.5</ele>
        <time>2022-07-14T08:40:20Z</time>
      </trkpt>
      <trkpt lat="44.75703" lon="5.68335">
        <ele>810.5</ele>
        <time>2022-07-14T08:40:21Z</time>
      </trkpt>
      <trkpt lat="44.757" lon="5.68327">
        <ele>810.5</ele>
        <time>2022-07-14T08:40:22Z</time>
      </trkpt>
      <trkpt lat="44.75697" lon="5.68319">
        <ele>810.5</ele>
        <time>2022-07-14T08:40:23Z</time>
      </trkpt>
      <trkpt lat="44.75693" lon="5.68312">
        <ele>810.4</ele>
        <time>2022-07-14T08:40:24Z</time>
      </trkpt>
      <trkpt lat="44.7569" lon="5.68304">
        <ele>810.4</ele>
        <time>2022-07-14T08:40:25Z</time>
      </trkpt>
      <trkpt lat="44.75686" lon="5.68295">
        <ele>810.3</ele>
        <time>2022-07-14T08:40:26Z</time>
      </trkpt>
      <trkpt lat="44.75683" lon="5.68286">
        <ele>810.3</ele>
        <time>2022-07-14T08:40:27Z</time>
      </trkpt>
      <trkpt lat="44.75679" lon="5.68278">
        <ele>810.3</ele>
        <time>2022-07-14T08:40:28Z</time>
      </trkpt>
      <trkpt lat="44.75674" lon="5.68271">
        <ele>810.3</ele>
        <time>2022-07-14T08:40:29Z</time>
      </trkpt>
      <trkpt lat="44.75669" lon="5.68265">
        <ele>810.3</ele>
        <time>2022-07-14T08:40:30Z</time>
      </trkpt>
      <trkpt lat="44.75664" lon="5.68259">
        <ele>810.3</ele>
        <time>2022-07-14T08:40:31Z</time>
      </trkpt>
      <trkpt lat="44.75658" lon="5.68253">
        <ele>810.3</ele>
        <time>2022-07-14T08:40:32Z</time>
      </trkpt>
      <trkpt lat="44.75652" lon="5.68249">
        <ele>810.2</ele>
        <time>2022-07-14T08:40:33Z</time>
      </trkpt>
      <trkpt lat="44.75646" lon="5.68246">
        <ele>810.2</ele>
        <time>2022-07-14T08:40:34Z</time>
      </trkpt>
      <trkpt lat="44.75641" lon="5.68242">
        <ele>810.1</ele>
        <time>2022-07-14T08:40:35Z</time>
      </trkpt>
      <trkpt lat="44.75634" lon="5.68238">
        <ele>810</ele>
        <time>2022-07-14T08:40:36Z</time>
      </trkpt>
      <trkpt lat="44.75628" lon="5.68235">
        <ele>809.9</ele>
        <time>2022-07-14T08:40:37Z</time>
      </trkpt>
      <trkpt lat="44.75621" lon="5.68231">
        <ele>809.8</ele>
        <time>2022-07-14T08:40:38Z</time>
      </trkpt>
      <trkpt lat="44.75614" lon="5.68227">
        <ele>809.7</ele>
        <time>2022-07-14T08:40:39Z</time>
      </trkpt>
      <trkpt lat="44.75607" lon="5.68224">
        <ele>809.5</ele>
        <time>2022-07-14T08:40:40Z</time>
      </trkpt>
      <trkpt lat="44.756" lon="5.68221">
        <ele>809.3</ele>
        <time>2022-07-14T08:40:41Z</time>
      </trkpt>
      <trkpt lat="44.75593" lon="5.68218">
        <ele>809.2</ele>
        <time>2022-07-14T08:40:42Z</time>
      </trkpt>
      <trkpt lat="44.75586" lon="5.68215">
        <ele>808.9</ele>
        <time>2022-07-14T08:40:43Z</time>
      </trkpt>
      <trkpt lat="44.75579" lon="5.6821">
        <ele>808.7</ele>
        <time>2022-07-14T08:40:44Z</time>
      </trkpt>
      <trkpt lat="44.75572" lon="5.68205">
        <ele>808.4</ele>
        <time>2022-07-14T08:40:45Z</time>
      </trkpt>
      <trkpt lat="44.75565" lon="5.682">
        <ele>808.1</ele>
        <time>2022-07-14T08:40:46Z</time>
      </trkpt>
      <trkpt lat="44.75559" lon="5.68195">
        <ele>807.8</ele>
        <time>2022-07-14T08:40:47Z</time>
      </trkpt>
      <trkpt lat="44.75551" lon="5.6819">
        <ele>807.5</ele>
        <time>2022-07-14T08:40:48Z</time>
      </trkpt>
      <trkpt lat="44.75544" lon="5.68187">
        <ele>807.3</ele>
        <time>2022-07-14T08:40:49Z</time>
      </trkpt>
      <trkpt lat="44.75536" lon="5.68182">
        <ele>807</ele>
        <time>2022-07-14T08:40:50Z</time>
      </trkpt>
      <trkpt lat="44.75527" lon="5.68178">
        <ele>806.7</ele>
        <time>2022-07-14T08:40:51Z</time>
      </trkpt>
      <trkpt lat="44.75518" lon="5.68174">
        <ele>806.4</ele>
        <time>2022-07-14T08:40:52Z</time>
      </trkpt>
      <trkpt lat="44.7551" lon="5.6817">
        <ele>806.1</ele>
        <time>2022-07-14T08:40:53Z</time>
      </trkpt>
      <trkpt lat="44.75503" lon="5.68166">
        <ele>805.8</ele>
        <time>2022-07-14T08:40:54Z</time>
      </trkpt>
      <trkpt lat="44.75495" lon="5.6816">
        <ele>805.6</ele>
        <time>2022-07-14T08:40:55Z</time>
      </trkpt>
      <trkpt lat="44.75488" lon="5.68154">
        <ele>805.4</ele>
        <time>2022-07-14T08:40:56Z</time>
      </trkpt>
      <trkpt lat="44.75481" lon="5.68148">
        <ele>805.2</ele>
        <time>2022-07-14T08:40:57Z</time>
      </trkpt>
      <trkpt lat="44.75475" lon="5.68142">
        <ele>805.1</ele>
        <time>2022-07-14T08:40:58Z</time>
      </trkpt>
      <trkpt lat="44.75468" lon="5.68134">
        <ele>805</ele>
        <time>2022-07-14T08:40:59Z</time>
      </trkpt>
      <trkpt lat="44.75462" lon="5.68128">
        <ele>805</ele>
        <time>2022-07-14T08:41:00Z</time>
      </trkpt>
      <trkpt lat="44.75456" lon="5.68122">
        <ele>804.9</ele>
        <time>2022-07-14T08:41:01Z</time>
      </trkpt>
      <trkpt lat="44.7545" lon="5.68116">
        <ele>804.9</ele>
        <time>2022-07-14T08:41:02Z</time>
      </trkpt>
      <trkpt lat="44.75444" lon="5.68109">
        <ele>804.8</ele>
        <time>2022-07-14T08:41:03Z</time>
      </trkpt>
      <trkpt lat="44.75437" lon="5.68102">
        <ele>804.8</ele>
        <time>2022-07-14T08:41:04Z</time>
      </trkpt>
      <trkpt lat="44.75431" lon="5.68095">
        <ele>804.8</ele>
        <time>2022-07-14T08:41:05Z</time>
      </trkpt>
      <trkpt lat="44.75425" lon="5.68088">
        <ele>804.7</ele>
        <time>2022-07-14T08:41:06Z</time>
      </trkpt>
      <trkpt lat="44.75418" lon="5.68081">
        <ele>804.7</ele>
        <time>2022-07-14T08:41:07Z</time>
      </trkpt>
      <trkpt lat="44.75413" lon="5.68073">
        <ele>804.8</ele>
        <time>2022-07-14T08:41:08Z</time>
      </trkpt>
      <trkpt lat="44.75407" lon="5.68065">
        <ele>804.8</ele>
        <time>2022-07-14T08:41:09Z</time>
      </trkpt>
      <trkpt lat="44.75403" lon="5.68056">
        <ele>804.9</ele>
        <time>2022-07-14T08:41:10Z</time>
      </trkpt>
      <trkpt lat="44.75401" lon="5.68045">
        <ele>805</ele>
        <time>2022-07-14T08:41:11Z</time>
      </trkpt>
      <trkpt lat="44.75401" lon="5.68034">
        <ele>805</ele>
        <time>2022-07-14T08:41:12Z</time>
      </trkpt>
      <trkpt lat="44.75402" lon="5.68024">
        <ele>805</ele>
        <time>2022-07-14T08:41:13Z</time>
      </trkpt>
      <trkpt lat="44.75404" lon="5.68013">
        <ele>805</ele>
        <time>2022-07-14T08:41:14Z</time>
      </trkpt>
      <trkpt lat="44.75408" lon="5.68004">
        <ele>805.1</ele>
        <time>2022-07-14T08:41:15Z</time>
      </trkpt>
      <trkpt lat="44.75413" lon="5.67997">
        <ele>805.3</ele>
        <time>2022-07-14T08:41:16Z</time>
      </trkpt>
      <trkpt lat="44.7542" lon="5.67992">
        <ele>805.6</ele>
        <time>2022-07-14T08:41:17Z</time>
      </trkpt>
      <trkpt lat="44.75427" lon="5.67989">
        <ele>806</ele>
        <time>2022-07-14T08:41:18Z</time>
      </trkpt>
      <trkpt lat="44.75434" lon="5.67988">
        <ele>806.4</ele>
        <time>2022-07-14T08:41:19Z</time>
      </trkpt>
      <trkpt lat="44.7544" lon="5.67989">
        <ele>806.7</ele>
        <time>2022-07-14T08:41:20Z</time>
      </trkpt>
      <trkpt lat="44.75446" lon="5.67991">
        <ele>807.2</ele>
        <time>2022-07-14T08:41:21Z</time>
      </trkpt>
      <trkpt lat="44.75451" lon="5.67993">
        <ele>807.5</ele>
        <time>2022-07-14T08:41:22Z</time>
      </trkpt>
      <trkpt lat="44.75455" lon="5.67996">
        <ele>807.8</ele>
        <time>2022-07-14T08:41:23Z</time>
      </trkpt>
      <trkpt lat="44.7546" lon="5.67998">
        <ele>808.2</ele>
        <time>2022-07-14T08:41:24Z</time>
      </trkpt>
      <trkpt lat="44.75465" lon="5.68001">
        <ele>808.5</ele>
        <time>2022-07-14T08:41:25Z</time>
      </trkpt>
      <trkpt lat="44.75469" lon="5.68005">
        <ele>808.9</ele>
        <time>2022-07-14T08:41:26Z</time>
      </trkpt>
      <trkpt lat="44.75473" lon="5.68008">
        <ele>809.2</ele>
        <time>2022-07-14T08:41:27Z</time>
      </trkpt>
      <trkpt lat="44.75477" lon="5.68011">
        <ele>809.6</ele>
        <time>2022-07-14T08:41:28Z</time>
      </trkpt>
      <trkpt lat="44.75481" lon="5.68014">
        <ele>809.9</ele>
        <time>2022-07-14T08:41:29Z</time>
      </trkpt>
      <trkpt lat="44.75483" lon="5.68015">
        <ele>810</ele>
        <time>2022-07-14T08:41:30Z</time>
      </trkpt>
      <trkpt lat="44.75487" lon="5.68018">
        <ele>810.4</ele>
        <time>2022-07-14T08:41:31Z</time>
      </trkpt>
      <trkpt lat="44.7549" lon="5.6802">
        <ele>810.7</ele>
        <time>2022-07-14T08:41:32Z</time>
      </trkpt>
      <trkpt lat="44.75494" lon="5.68022">
        <ele>811</ele>
        <time>2022-07-14T08:41:33Z</time>
      </trkpt>
      <trkpt lat="44.75499" lon="5.68028">
        <ele>811.5</ele>
        <time>2022-07-14T08:41:34Z</time>
      </trkpt>
      <trkpt lat="44.75498" lon="5.68031">
        <ele>811.7</ele>
        <time>2022-07-14T08:41:35Z</time>
      </trkpt>
      <trkpt lat="44.75507" lon="5.68031">
        <ele>812.5</ele>
        <time>2022-07-14T08:41:37Z</time>
      </trkpt>
      <trkpt lat="44.75511" lon="5.6803">
        <ele>812.8</ele>
        <time>2022-07-14T08:41:38Z</time>
      </trkpt>
      <trkpt lat="44.75516" lon="5.6803">
        <ele>813.2</ele>
        <time>2022-07-14T08:41:39Z</time>
      </trkpt>
      <trkpt lat="44.75521" lon="5.6803">
        <ele>813.6</ele>
        <time>2022-07-14T08:41:40Z</time>
      </trkpt>
      <trkpt lat="44.75528" lon="5.68029">
        <ele>814.2</ele>
        <time>2022-07-14T08:41:42Z</time>
      </trkpt>
      <trkpt lat="44.75535" lon="5.68025">
        <ele>814.7</ele>
        <time>2022-07-14T08:41:45Z</time>
      </trkpt>
      <trkpt lat="44.75541" lon="5.68024">
        <ele>815.1</ele>
        <time>2022-07-14T08:41:46Z</time>
      </trkpt>
      <trkpt lat="44.75543" lon="5.68023">
        <ele>815.2</ele>
        <time>2022-07-14T08:41:47Z</time>
      </trkpt>
      <trkpt lat="44.75545" lon="5.68023">
        <ele>815.4</ele>
        <time>2022-07-14T08:41:48Z</time>
      </trkpt>
      <trkpt lat="44.75553" lon="5.68022">
        <ele>815.9</ele>
        <time>2022-07-14T08:41:50Z</time>
      </trkpt>
      <trkpt lat="44.75557" lon="5.68019">
        <ele>816.2</ele>
        <time>2022-07-14T08:41:52Z</time>
      </trkpt>
      <trkpt lat="44.75561" lon="5.68018">
        <ele>816.5</ele>
        <time>2022-07-14T08:41:53Z</time>
      </trkpt>
      <trkpt lat="44.7557" lon="5.68019">
        <ele>817.2</ele>
        <time>2022-07-14T08:41:56Z</time>
      </trkpt>
      <trkpt lat="44.75575" lon="5.68018">
        <ele>817.5</ele>
        <time>2022-07-14T08:41:58Z</time>
      </trkpt>
      <trkpt lat="44.75577" lon="5.68019">
        <ele>817.6</ele>
        <time>2022-07-14T08:41:59Z</time>
      </trkpt>
      <trkpt lat="44.75585" lon="5.68021">
        <ele>818.3</ele>
        <time>2022-07-14T08:42:02Z</time>
      </trkpt>
      <trkpt lat="44.75593" lon="5.68022">
        <ele>818.9</ele>
        <time>2022-07-14T08:42:05Z</time>
      </trkpt>
      <trkpt lat="44.75597" lon="5.68022">
        <ele>819.2</ele>
        <time>2022-07-14T08:42:07Z</time>
      </trkpt>
      <trkpt lat="44.75601" lon="5.68024">
        <ele>819.6</ele>
        <time>2022-07-14T08:42:09Z</time>
      </trkpt>
      <trkpt lat="44.75605" lon="5.68024">
        <ele>819.9</ele>
        <time>2022-07-14T08:42:11Z</time>
      </trkpt>
      <trkpt lat="44.75608" lon="5.68025">
        <ele>820</ele>
        <time>2022-07-14T08:42:12Z</time>
      </trkpt>
      <trkpt lat="44.75615" lon="5.68028">
        <ele>820.6</ele>
        <time>2022-07-14T08:42:14Z</time>
      </trkpt>
      <trkpt lat="44.75619" lon="5.6803">
        <ele>821</ele>
        <time>2022-07-14T08:42:16Z</time>
      </trkpt>
      <trkpt lat="44.75623" lon="5.68031">
        <ele>821.3</ele>
        <time>2022-07-14T08:42:19Z</time>
      </trkpt>
      <trkpt lat="44.75626" lon="5.68032">
        <ele>821.5</ele>
        <time>2022-07-14T08:42:20Z</time>
      </trkpt>
      <trkpt lat="44.75632" lon="5.68033">
        <ele>822</ele>
        <time>2022-07-14T08:42:22Z</time>
      </trkpt>
      <trkpt lat="44.75636" lon="5.68034">
        <ele>822.3</ele>
        <time>2022-07-14T08:42:24Z</time>
      </trkpt>
      <trkpt lat="44.75641" lon="5.68036">
        <ele>822.8</ele>
        <time>2022-07-14T08:42:26Z</time>
      </trkpt>
      <trkpt lat="44.75646" lon="5.68037">
        <ele>823.2</ele>
        <time>2022-07-14T08:42:28Z</time>
      </trkpt>
      <trkpt lat="44.7565" lon="5.68037">
        <ele>823.5</ele>
        <time>2022-07-14T08:42:30Z</time>
      </trkpt>
      <trkpt lat="44.75654" lon="5.68037">
        <ele>823.8</ele>
        <time>2022-07-14T08:42:31Z</time>
      </trkpt>
      <trkpt lat="44.75659" lon="5.68039">
        <ele>824.2</ele>
        <time>2022-07-14T08:42:33Z</time>
      </trkpt>
      <trkpt lat="44.75661" lon="5.68039">
        <ele>824.3</ele>
        <time>2022-07-14T08:42:34Z</time>
      </trkpt>
      <trkpt lat="44.75668" lon="5.68035">
        <ele>824.9</ele>
        <time>2022-07-14T08:42:37Z</time>
      </trkpt>
      <trkpt lat="44.75676" lon="5.68033">
        <ele>825.5</ele>
        <time>2022-07-14T08:42:40Z</time>
      </trkpt>
      <trkpt lat="44.75681" lon="5.68031">
        <ele>825.8</ele>
        <time>2022-07-14T08:42:41Z</time>
      </trkpt>
      <trkpt lat="44.75685" lon="5.68029">
        <ele>826.1</ele>
        <time>2022-07-14T08:42:43Z</time>
      </trkpt>
      <trkpt lat="44.75688" lon="5.68026">
        <ele>826.3</ele>
        <time>2022-07-14T08:42:44Z</time>
      </trkpt>
      <trkpt lat="44.75692" lon="5.68023">
        <ele>826.6</ele>
        <time>2022-07-14T08:42:46Z</time>
      </trkpt>
      <trkpt lat="44.75693" lon="5.68021">
        <ele>826.6</ele>
        <time>2022-07-14T08:42:47Z</time>
      </trkpt>
      <trkpt lat="44.75696" lon="5.68018">
        <ele>826.7</ele>
        <time>2022-07-14T08:42:49Z</time>
      </trkpt>
      <trkpt lat="44.75699" lon="5.68011">
        <ele>826.9</ele>
        <time>2022-07-14T08:42:51Z</time>
      </trkpt>
      <trkpt lat="44.757" lon="5.68006">
        <ele>827</ele>
        <time>2022-07-14T08:42:52Z</time>
      </trkpt>
      <trkpt lat="44.75703" lon="5.67998">
        <ele>827.2</ele>
        <time>2022-07-14T08:42:54Z</time>
      </trkpt>
      <trkpt lat="44.75703" lon="5.67993">
        <ele>827.5</ele>
        <time>2022-07-14T08:42:55Z</time>
      </trkpt>
      <trkpt lat="44.75702" lon="5.67987">
        <ele>827.6</ele>
        <time>2022-07-14T08:42:56Z</time>
      </trkpt>
      <trkpt lat="44.757" lon="5.67983">
        <ele>827.7</ele>
        <time>2022-07-14T08:42:57Z</time>
      </trkpt>
      <trkpt lat="44.75693" lon="5.6798">
        <ele>828</ele>
        <time>2022-07-14T08:42:59Z</time>
      </trkpt>
      <trkpt lat="44.75688" lon="5.6798">
        <ele>828.2</ele>
        <time>2022-07-14T08:43:00Z</time>
      </trkpt>
      <trkpt lat="44.75685" lon="5.6798">
        <ele>828.3</ele>
        <time>2022-07-14T08:43:01Z</time>
      </trkpt>
      <trkpt lat="44.75682" lon="5.67979">
        <ele>828.4</ele>
        <time>2022-07-14T08:43:02Z</time>
      </trkpt>
      <trkpt lat="44.7568" lon="5.67978">
        <ele>828.5</ele>
        <time>2022-07-14T08:43:03Z</time>
      </trkpt>
      <trkpt lat="44.75676" lon="5.67976">
        <ele>828.6</ele>
        <time>2022-07-14T08:43:04Z</time>
      </trkpt>
      <trkpt lat="44.75671" lon="5.67972">
        <ele>828.9</ele>
        <time>2022-07-14T08:43:06Z</time>
      </trkpt>
      <trkpt lat="44.75666" lon="5.6797">
        <ele>829.1</ele>
        <time>2022-07-14T08:43:07Z</time>
      </trkpt>
      <trkpt lat="44.75662" lon="5.67968">
        <ele>829.2</ele>
        <time>2022-07-14T08:43:08Z</time>
      </trkpt>
      <trkpt lat="44.75658" lon="5.67965">
        <ele>829.4</ele>
        <time>2022-07-14T08:43:10Z</time>
      </trkpt>
      <trkpt lat="44.75653" lon="5.67964">
        <ele>829.7</ele>
        <time>2022-07-14T08:43:11Z</time>
      </trkpt>
      <trkpt lat="44.75647" lon="5.67963">
        <ele>829.9</ele>
        <time>2022-07-14T08:43:13Z</time>
      </trkpt>
      <trkpt lat="44.75643" lon="5.67964">
        <ele>830.1</ele>
        <time>2022-07-14T08:43:14Z</time>
      </trkpt>
      <trkpt lat="44.75636" lon="5.67967">
        <ele>830.4</ele>
        <time>2022-07-14T08:43:16Z</time>
      </trkpt>
      <trkpt lat="44.75634" lon="5.67968">
        <ele>830.6</ele>
        <time>2022-07-14T08:43:17Z</time>
      </trkpt>
      <trkpt lat="44.75628" lon="5.6797">
        <ele>830.9</ele>
        <time>2022-07-14T08:43:18Z</time>
      </trkpt>
      <trkpt lat="44.75624" lon="5.6797">
        <ele>831.2</ele>
        <time>2022-07-14T08:43:19Z</time>
      </trkpt>
      <trkpt lat="44.75622" lon="5.6797">
        <ele>831.3</ele>
        <time>2022-07-14T08:43:20Z</time>
      </trkpt>
      <trkpt lat="44.75615" lon="5.67972">
        <ele>831.7</ele>
        <time>2022-07-14T08:43:22Z</time>
      </trkpt>
      <trkpt lat="44.75611" lon="5.67973">
        <ele>832</ele>
        <time>2022-07-14T08:43:23Z</time>
      </trkpt>
      <trkpt lat="44.75603" lon="5.67974">
        <ele>832.3</ele>
        <time>2022-07-14T08:43:25Z</time>
      </trkpt>
      <trkpt lat="44.75598" lon="5.67975">
        <ele>832.5</ele>
        <time>2022-07-14T08:43:26Z</time>
      </trkpt>
      <trkpt lat="44.75593" lon="5.67976">
        <ele>832.7</ele>
        <time>2022-07-14T08:43:28Z</time>
      </trkpt>
      <trkpt lat="44.7559" lon="5.67977">
        <ele>832.8</ele>
        <time>2022-07-14T08:43:29Z</time>
      </trkpt>
      <trkpt lat="44.75586" lon="5.67976">
        <ele>832.9</ele>
        <time>2022-07-14T08:43:30Z</time>
      </trkpt>
      <trkpt lat="44.75578" lon="5.67976">
        <ele>833.3</ele>
        <time>2022-07-14T08:43:32Z</time>
      </trkpt>
      <trkpt lat="44.75572" lon="5.67975">
        <ele>833.6</ele>
        <time>2022-07-14T08:43:34Z</time>
      </trkpt>
      <trkpt lat="44.75569" lon="5.67974">
        <ele>833.8</ele>
        <time>2022-07-14T08:43:35Z</time>
      </trkpt>
      <trkpt lat="44.75563" lon="5.67974">
        <ele>834</ele>
        <time>2022-07-14T08:43:36Z</time>
      </trkpt>
      <trkpt lat="44.75557" lon="5.67974">
        <ele>834.4</ele>
        <time>2022-07-14T08:43:38Z</time>
      </trkpt>
      <trkpt lat="44.75552" lon="5.67974">
        <ele>834.6</ele>
        <time>2022-07-14T08:43:39Z</time>
      </trkpt>
      <trkpt lat="44.75546" lon="5.67972">
        <ele>834.9</ele>
        <time>2022-07-14T08:43:40Z</time>
      </trkpt>
      <trkpt lat="44.75542" lon="5.67972">
        <ele>835.1</ele>
        <time>2022-07-14T08:43:41Z</time>
      </trkpt>
      <trkpt lat="44.75536" lon="5.67971">
        <ele>835.5</ele>
        <time>2022-07-14T08:43:43Z</time>
      </trkpt>
      <trkpt lat="44.75532" lon="5.67971">
        <ele>835.7</ele>
        <time>2022-07-14T08:43:44Z</time>
      </trkpt>
      <trkpt lat="44.75528" lon="5.67969">
        <ele>835.9</ele>
        <time>2022-07-14T08:43:45Z</time>
      </trkpt>
      <trkpt lat="44.75525" lon="5.67966">
        <ele>836.2</ele>
        <time>2022-07-14T08:43:46Z</time>
      </trkpt>
      <trkpt lat="44.75518" lon="5.6796">
        <ele>836.6</ele>
        <time>2022-07-14T08:43:49Z</time>
      </trkpt>
      <trkpt lat="44.75515" lon="5.67957">
        <ele>836.9</ele>
        <time>2022-07-14T08:43:50Z</time>
      </trkpt>
      <trkpt lat="44.75511" lon="5.67952">
        <ele>837.2</ele>
        <time>2022-07-14T08:43:52Z</time>
      </trkpt>
      <trkpt lat="44.75507" lon="5.67948">
        <ele>836.7</ele>
        <time>2022-07-14T08:43:53Z</time>
      </trkpt>
      <trkpt lat="44.75505" lon="5.67942">
        <ele>835.6</ele>
        <time>2022-07-14T08:43:55Z</time>
      </trkpt>
      <trkpt lat="44.75505" lon="5.67938">
        <ele>834.9</ele>
        <time>2022-07-14T08:43:56Z</time>
      </trkpt>
      <trkpt lat="44.75503" lon="5.6793">
        <ele>833.5</ele>
        <time>2022-07-14T08:43:58Z</time>
      </trkpt>
      <trkpt lat="44.75502" lon="5.67925">
        <ele>832.6</ele>
        <time>2022-07-14T08:43:59Z</time>
      </trkpt>
      <trkpt lat="44.755" lon="5.67924">
        <ele>832</ele>
        <time>2022-07-14T08:44:00Z</time>
      </trkpt>
      <trkpt lat="44.75497" lon="5.6792">
        <ele>832</ele>
        <time>2022-07-14T08:44:02Z</time>
      </trkpt>
      <trkpt lat="44.75495" lon="5.67917">
        <ele>832</ele>
        <time>2022-07-14T08:44:03Z</time>
      </trkpt>
      <trkpt lat="44.7549" lon="5.67912">
        <ele>831.9</ele>
        <time>2022-07-14T08:44:04Z</time>
      </trkpt>
      <trkpt lat="44.75486" lon="5.67912">
        <ele>832</ele>
        <time>2022-07-14T08:44:06Z</time>
      </trkpt>
      <trkpt lat="44.75482" lon="5.67915">
        <ele>831.8</ele>
        <time>2022-07-14T08:44:07Z</time>
      </trkpt>
      <trkpt lat="44.75476" lon="5.67917">
        <ele>831.6</ele>
        <time>2022-07-14T08:44:09Z</time>
      </trkpt>
      <trkpt lat="44.7547" lon="5.67917">
        <ele>831.5</ele>
        <time>2022-07-14T08:44:11Z</time>
      </trkpt>
      <trkpt lat="44.75467" lon="5.67917">
        <ele>831.4</ele>
        <time>2022-07-14T08:44:12Z</time>
      </trkpt>
      <trkpt lat="44.75464" lon="5.67918">
        <ele>831.3</ele>
        <time>2022-07-14T08:44:13Z</time>
      </trkpt>
      <trkpt lat="44.7546" lon="5.67917">
        <ele>831.3</ele>
        <time>2022-07-14T08:44:14Z</time>
      </trkpt>
      <trkpt lat="44.75456" lon="5.67914">
        <ele>831.4</ele>
        <time>2022-07-14T08:44:15Z</time>
      </trkpt>
      <trkpt lat="44.7545" lon="5.67909">
        <ele>831.5</ele>
        <time>2022-07-14T08:44:17Z</time>
      </trkpt>
      <trkpt lat="44.75446" lon="5.67906">
        <ele>831.5</ele>
        <time>2022-07-14T08:44:18Z</time>
      </trkpt>
      <trkpt lat="44.75445" lon="5.67904">
        <ele>831.6</ele>
        <time>2022-07-14T08:44:19Z</time>
      </trkpt>
      <trkpt lat="44.7544" lon="5.67897">
        <ele>831.7</ele>
        <time>2022-07-14T08:44:21Z</time>
      </trkpt>
      <trkpt lat="44.75431" lon="5.67892">
        <ele>831.8</ele>
        <time>2022-07-14T08:44:23Z</time>
      </trkpt>
      <trkpt lat="44.75425" lon="5.67889">
        <ele>831.9</ele>
        <time>2022-07-14T08:44:25Z</time>
      </trkpt>
      <trkpt lat="44.75423" lon="5.67887">
        <ele>832</ele>
        <time>2022-07-14T08:44:26Z</time>
      </trkpt>
      <trkpt lat="44.7542" lon="5.67885">
        <ele>832</ele>
        <time>2022-07-14T08:44:27Z</time>
      </trkpt>
      <trkpt lat="44.75416" lon="5.67884">
        <ele>832.1</ele>
        <time>2022-07-14T08:44:29Z</time>
      </trkpt>
      <trkpt lat="44.75413" lon="5.67884">
        <ele>832.2</ele>
        <time>2022-07-14T08:44:30Z</time>
      </trkpt>
      <trkpt lat="44.7541" lon="5.67883">
        <ele>832.2</ele>
        <time>2022-07-14T08:44:31Z</time>
      </trkpt>
      <trkpt lat="44.75407" lon="5.6788">
        <ele>832.3</ele>
        <time>2022-07-14T08:44:33Z</time>
      </trkpt>
      <trkpt lat="44.75409" lon="5.67874">
        <ele>832.4</ele>
        <time>2022-07-14T08:44:35Z</time>
      </trkpt>
      <trkpt lat="44.75411" lon="5.67871">
        <ele>832.4</ele>
        <time>2022-07-14T08:44:36Z</time>
      </trkpt>
      <trkpt lat="44.75414" lon="5.67866">
        <ele>832.5</ele>
        <time>2022-07-14T08:44:39Z</time>
      </trkpt>
      <trkpt lat="44.75416" lon="5.67862">
        <ele>832.5</ele>
        <time>2022-07-14T08:44:42Z</time>
      </trkpt>
      <trkpt lat="44.75416" lon="5.67862">
        <ele>832.5</ele>
        <time>2022-07-14T08:44:43Z</time>
      </trkpt>
      <trkpt lat="44.75416" lon="5.67863">
        <ele>832.6</ele>
        <time>2022-07-14T08:44:44Z</time>
      </trkpt>
      <trkpt lat="44.75416" lon="5.67863">
        <ele>832.6</ele>
        <time>2022-07-14T08:44:45Z</time>
      </trkpt>
      <trkpt lat="44.75416" lon="5.67864">
        <ele>832.6</ele>
        <time>2022-07-14T08:44:46Z</time>
      </trkpt>
      <trkpt lat="44.75416" lon="5.67864">
        <ele>832.6</ele>
        <time>2022-07-14T08:44:47Z</time>
      </trkpt>
      <trkpt lat="44.75416" lon="5.67864">
        <ele>832.6</ele>
        <time>2022-07-14T08:44:48Z</time>
      </trkpt>
      <trkpt lat="44.75417" lon="5.67864">
        <ele>832.6</ele>
        <time>2022-07-14T08:44:49Z</time>
      </trkpt>
      <trkpt lat="44.75417" lon="5.67864">
        <ele>832.6</ele>
        <time>2022-07-14T08:44:50Z</time>
      </trkpt>
      <trkpt lat="44.75417" lon="5.67864">
        <ele>832.6</ele>
        <time>2022-07-14T08:44:51Z</time>
      </trkpt>
      <trkpt lat="44.75417" lon="5.67864">
        <ele>832.6</ele>
        <time>2022-07-14T08:44:52Z</time>
      </trkpt>
      <trkpt lat="44.75417" lon="5.67864">
        <ele>832.6</ele>
        <time>2022-07-14T08:44:53Z</time>
      </trkpt>
    </trkseg>
  </trk>
</gpx>